<?xml version="1.0" encoding="UTF-8" standalone="no" ?>
<gpx xmlns="http://www.topografix.com/GPX/1/1" xmlns:xsi="http://www.w3.org/2001/XMLSchema-instance" xsi:schemaLocation="http://www.topografix.com/GPX/1/1 http://www.topografix.com/GPX/1/1/gpx.xsd" version="1.1" creator="VisuGPX - https://www.visugpx.com">
  <metadata>
    <name>Arcey Montenois etc</name>
    <desc><![CDATA[Arcey Montenois etc]]></desc>
  </metadata>
  <trk>
    <name><![CDATA[Rue Antoine Coysevox]]></name>
    <desc><![CDATA[]]></desc>
    <trkseg>
      <trkpt lat="47.51798" lon="6.77423">
        <ele>387</ele>
        <time>2015-05-08T07:06:57.000Z</time>
      </trkpt>
      <trkpt lat="47.51798" lon="6.77428">
        <ele>387</ele>
        <time>2015-05-08T07:07:18.000Z</time>
      </trkpt>
      <trkpt lat="47.51799" lon="6.7743">
        <ele>387</ele>
        <time>2015-05-08T07:07:19.000Z</time>
      </trkpt>
      <trkpt lat="47.518" lon="6.77436">
        <ele>387</ele>
        <time>2015-05-08T07:07:26.000Z</time>
      </trkpt>
      <trkpt lat="47.518" lon="6.77438">
        <ele>387</ele>
        <time>2015-05-08T07:07:27.000Z</time>
      </trkpt>
      <trkpt lat="47.51801" lon="6.77443">
        <ele>387</ele>
        <time>2015-05-08T07:07:58.000Z</time>
      </trkpt>
      <trkpt lat="47.51801" lon="6.77444">
        <ele>387</ele>
        <time>2015-05-08T07:07:59.000Z</time>
      </trkpt>
      <trkpt lat="47.51802" lon="6.7745">
        <ele>388</ele>
        <time>2015-05-08T07:10:34.000Z</time>
      </trkpt>
      <trkpt lat="47.51802" lon="6.77451">
        <ele>388</ele>
        <time>2015-05-08T07:10:35.000Z</time>
      </trkpt>
      <trkpt lat="47.51802" lon="6.77451">
        <ele>388</ele>
        <time>2015-05-08T07:10:40.000Z</time>
      </trkpt>
      <trkpt lat="47.51798" lon="6.7748">
        <ele>388</ele>
        <time>2015-05-08T07:10:41.000Z</time>
      </trkpt>
      <trkpt lat="47.51794" lon="6.77478">
        <ele>388</ele>
        <time>2015-05-08T07:12:44.000Z</time>
      </trkpt>
      <trkpt lat="47.51793" lon="6.77478">
        <ele>388</ele>
        <time>2015-05-08T07:12:45.000Z</time>
      </trkpt>
      <trkpt lat="47.51793" lon="6.77483">
        <ele>388</ele>
        <time>2015-05-08T07:13:25.000Z</time>
      </trkpt>
      <trkpt lat="47.51794" lon="6.77485">
        <ele>388</ele>
        <time>2015-05-08T07:13:26.000Z</time>
      </trkpt>
      <trkpt lat="47.51797" lon="6.77488">
        <ele>388</ele>
        <time>2015-05-08T07:13:28.000Z</time>
      </trkpt>
      <trkpt lat="47.51798" lon="6.7749">
        <ele>388</ele>
        <time>2015-05-08T07:13:29.000Z</time>
      </trkpt>
      <trkpt lat="47.51795" lon="6.77487">
        <ele>388</ele>
        <time>2015-05-08T07:13:33.000Z</time>
      </trkpt>
      <trkpt lat="47.51794" lon="6.77486">
        <ele>388</ele>
        <time>2015-05-08T07:13:34.000Z</time>
      </trkpt>
      <trkpt lat="47.51791" lon="6.77484">
        <ele>388</ele>
        <time>2015-05-08T07:13:36.000Z</time>
      </trkpt>
      <trkpt lat="47.5179" lon="6.77483">
        <ele>388</ele>
        <time>2015-05-08T07:13:37.000Z</time>
      </trkpt>
      <trkpt lat="47.51786" lon="6.77481">
        <ele>388</ele>
        <time>2015-05-08T07:13:39.000Z</time>
      </trkpt>
      <trkpt lat="47.51783" lon="6.77479">
        <ele>388</ele>
        <time>2015-05-08T07:13:40.000Z</time>
      </trkpt>
      <trkpt lat="47.51781" lon="6.77477">
        <ele>388</ele>
        <time>2015-05-08T07:13:41.000Z</time>
      </trkpt>
      <trkpt lat="47.51779" lon="6.77475">
        <ele>388</ele>
        <time>2015-05-08T07:13:42.000Z</time>
      </trkpt>
      <trkpt lat="47.51777" lon="6.77473">
        <ele>388</ele>
        <time>2015-05-08T07:13:43.000Z</time>
      </trkpt>
      <trkpt lat="47.51774" lon="6.77471">
        <ele>388</ele>
        <time>2015-05-08T07:13:44.000Z</time>
      </trkpt>
      <trkpt lat="47.51771" lon="6.7747">
        <ele>388</ele>
        <time>2015-05-08T07:13:45.000Z</time>
      </trkpt>
      <trkpt lat="47.51768" lon="6.77468">
        <ele>388</ele>
        <time>2015-05-08T07:13:46.000Z</time>
      </trkpt>
      <trkpt lat="47.51766" lon="6.77465">
        <ele>388</ele>
        <time>2015-05-08T07:13:47.000Z</time>
      </trkpt>
      <trkpt lat="47.51763" lon="6.77463">
        <ele>388</ele>
        <time>2015-05-08T07:13:48.000Z</time>
      </trkpt>
      <trkpt lat="47.51761" lon="6.7746">
        <ele>388</ele>
        <time>2015-05-08T07:13:49.000Z</time>
      </trkpt>
      <trkpt lat="47.51758" lon="6.77458">
        <ele>388</ele>
        <time>2015-05-08T07:13:50.000Z</time>
      </trkpt>
      <trkpt lat="47.51755" lon="6.77457">
        <ele>388</ele>
        <time>2015-05-08T07:13:51.000Z</time>
      </trkpt>
      <trkpt lat="47.51752" lon="6.77454">
        <ele>388</ele>
        <time>2015-05-08T07:13:52.000Z</time>
      </trkpt>
      <trkpt lat="47.5175" lon="6.77452">
        <ele>388</ele>
        <time>2015-05-08T07:13:53.000Z</time>
      </trkpt>
      <trkpt lat="47.51748" lon="6.7745">
        <ele>388</ele>
        <time>2015-05-08T07:13:54.000Z</time>
      </trkpt>
      <trkpt lat="47.51745" lon="6.77449">
        <ele>388</ele>
        <time>2015-05-08T07:13:55.000Z</time>
      </trkpt>
      <trkpt lat="47.51742" lon="6.7745">
        <ele>388</ele>
        <time>2015-05-08T07:13:56.000Z</time>
      </trkpt>
      <trkpt lat="47.51738" lon="6.77452">
        <ele>388</ele>
        <time>2015-05-08T07:13:57.000Z</time>
      </trkpt>
      <trkpt lat="47.51735" lon="6.77456">
        <ele>388</ele>
        <time>2015-05-08T07:13:58.000Z</time>
      </trkpt>
      <trkpt lat="47.51732" lon="6.77459">
        <ele>388</ele>
        <time>2015-05-08T07:13:59.000Z</time>
      </trkpt>
      <trkpt lat="47.5173" lon="6.77463">
        <ele>389</ele>
        <time>2015-05-08T07:14:00.000Z</time>
      </trkpt>
      <trkpt lat="47.51728" lon="6.77469">
        <ele>389</ele>
        <time>2015-05-08T07:14:01.000Z</time>
      </trkpt>
      <trkpt lat="47.51726" lon="6.77474">
        <ele>389</ele>
        <time>2015-05-08T07:14:02.000Z</time>
      </trkpt>
      <trkpt lat="47.51726" lon="6.7748">
        <ele>389</ele>
        <time>2015-05-08T07:14:03.000Z</time>
      </trkpt>
      <trkpt lat="47.51725" lon="6.77487">
        <ele>389</ele>
        <time>2015-05-08T07:14:04.000Z</time>
      </trkpt>
      <trkpt lat="47.51724" lon="6.77494">
        <ele>389</ele>
        <time>2015-05-08T07:14:05.000Z</time>
      </trkpt>
      <trkpt lat="47.51723" lon="6.775">
        <ele>389</ele>
        <time>2015-05-08T07:14:06.000Z</time>
      </trkpt>
      <trkpt lat="47.51722" lon="6.77507">
        <ele>390</ele>
        <time>2015-05-08T07:14:07.000Z</time>
      </trkpt>
      <trkpt lat="47.51721" lon="6.77514">
        <ele>390</ele>
        <time>2015-05-08T07:14:08.000Z</time>
      </trkpt>
      <trkpt lat="47.5172" lon="6.77521">
        <ele>390</ele>
        <time>2015-05-08T07:14:09.000Z</time>
      </trkpt>
      <trkpt lat="47.51719" lon="6.77527">
        <ele>390</ele>
        <time>2015-05-08T07:14:10.000Z</time>
      </trkpt>
      <trkpt lat="47.51718" lon="6.77532">
        <ele>390</ele>
        <time>2015-05-08T07:14:11.000Z</time>
      </trkpt>
      <trkpt lat="47.51717" lon="6.77537">
        <ele>390</ele>
        <time>2015-05-08T07:14:12.000Z</time>
      </trkpt>
      <trkpt lat="47.51715" lon="6.7754">
        <ele>390</ele>
        <time>2015-05-08T07:14:13.000Z</time>
      </trkpt>
      <trkpt lat="47.51712" lon="6.77541">
        <ele>390</ele>
        <time>2015-05-08T07:14:14.000Z</time>
      </trkpt>
      <trkpt lat="47.51709" lon="6.7754">
        <ele>390</ele>
        <time>2015-05-08T07:14:15.000Z</time>
      </trkpt>
      <trkpt lat="47.51706" lon="6.77537">
        <ele>390</ele>
        <time>2015-05-08T07:14:16.000Z</time>
      </trkpt>
      <trkpt lat="47.51702" lon="6.77533">
        <ele>390</ele>
        <time>2015-05-08T07:14:17.000Z</time>
      </trkpt>
      <trkpt lat="47.51699" lon="6.77529">
        <ele>390</ele>
        <time>2015-05-08T07:14:18.000Z</time>
      </trkpt>
      <trkpt lat="47.51692" lon="6.7752">
        <ele>390</ele>
        <time>2015-05-08T07:14:19.000Z</time>
      </trkpt>
      <trkpt lat="47.51688" lon="6.77516">
        <ele>390</ele>
        <time>2015-05-08T07:14:20.000Z</time>
      </trkpt>
      <trkpt lat="47.51684" lon="6.77511">
        <ele>390</ele>
        <time>2015-05-08T07:14:21.000Z</time>
      </trkpt>
      <trkpt lat="47.5168" lon="6.77507">
        <ele>389</ele>
        <time>2015-05-08T07:14:22.000Z</time>
      </trkpt>
      <trkpt lat="47.51675" lon="6.77503">
        <ele>389</ele>
        <time>2015-05-08T07:14:23.000Z</time>
      </trkpt>
      <trkpt lat="47.51671" lon="6.77498">
        <ele>389</ele>
        <time>2015-05-08T07:14:24.000Z</time>
      </trkpt>
      <trkpt lat="47.51666" lon="6.77492">
        <ele>388</ele>
        <time>2015-05-08T07:14:25.000Z</time>
      </trkpt>
      <trkpt lat="47.51662" lon="6.77487">
        <ele>388</ele>
        <time>2015-05-08T07:14:26.000Z</time>
      </trkpt>
      <trkpt lat="47.51657" lon="6.77481">
        <ele>387</ele>
        <time>2015-05-08T07:14:27.000Z</time>
      </trkpt>
      <trkpt lat="47.51653" lon="6.77476">
        <ele>387</ele>
        <time>2015-05-08T07:14:28.000Z</time>
      </trkpt>
      <trkpt lat="47.51648" lon="6.77471">
        <ele>387</ele>
        <time>2015-05-08T07:14:29.000Z</time>
      </trkpt>
      <trkpt lat="47.51644" lon="6.77465">
        <ele>386</ele>
        <time>2015-05-08T07:14:30.000Z</time>
      </trkpt>
      <trkpt lat="47.51639" lon="6.7746">
        <ele>386</ele>
        <time>2015-05-08T07:14:31.000Z</time>
      </trkpt>
      <trkpt lat="47.51634" lon="6.77454">
        <ele>386</ele>
        <time>2015-05-08T07:14:32.000Z</time>
      </trkpt>
      <trkpt lat="47.51629" lon="6.77449">
        <ele>386</ele>
        <time>2015-05-08T07:14:33.000Z</time>
      </trkpt>
      <trkpt lat="47.51624" lon="6.77444">
        <ele>386</ele>
        <time>2015-05-08T07:14:34.000Z</time>
      </trkpt>
      <trkpt lat="47.51618" lon="6.77438">
        <ele>385</ele>
        <time>2015-05-08T07:14:35.000Z</time>
      </trkpt>
      <trkpt lat="47.51612" lon="6.77432">
        <ele>385</ele>
        <time>2015-05-08T07:14:36.000Z</time>
      </trkpt>
      <trkpt lat="47.51606" lon="6.77426">
        <ele>385</ele>
        <time>2015-05-08T07:14:37.000Z</time>
      </trkpt>
      <trkpt lat="47.51601" lon="6.77421">
        <ele>384</ele>
        <time>2015-05-08T07:14:38.000Z</time>
      </trkpt>
      <trkpt lat="47.51595" lon="6.77414">
        <ele>383</ele>
        <time>2015-05-08T07:14:39.000Z</time>
      </trkpt>
      <trkpt lat="47.51589" lon="6.77407">
        <ele>383</ele>
        <time>2015-05-08T07:14:40.000Z</time>
      </trkpt>
      <trkpt lat="47.51583" lon="6.77401">
        <ele>382</ele>
        <time>2015-05-08T07:14:41.000Z</time>
      </trkpt>
      <trkpt lat="47.51577" lon="6.77395">
        <ele>382</ele>
        <time>2015-05-08T07:14:42.000Z</time>
      </trkpt>
      <trkpt lat="47.51572" lon="6.77387">
        <ele>381</ele>
        <time>2015-05-08T07:14:43.000Z</time>
      </trkpt>
      <trkpt lat="47.51566" lon="6.7738">
        <ele>381</ele>
        <time>2015-05-08T07:14:44.000Z</time>
      </trkpt>
      <trkpt lat="47.51559" lon="6.77372">
        <ele>381</ele>
        <time>2015-05-08T07:14:45.000Z</time>
      </trkpt>
      <trkpt lat="47.51553" lon="6.77365">
        <ele>381</ele>
        <time>2015-05-08T07:14:46.000Z</time>
      </trkpt>
      <trkpt lat="47.51546" lon="6.77358">
        <ele>380</ele>
        <time>2015-05-08T07:14:47.000Z</time>
      </trkpt>
      <trkpt lat="47.51539" lon="6.7735">
        <ele>380</ele>
        <time>2015-05-08T07:14:48.000Z</time>
      </trkpt>
      <trkpt lat="47.51532" lon="6.77343">
        <ele>380</ele>
        <time>2015-05-08T07:14:49.000Z</time>
      </trkpt>
      <trkpt lat="47.51525" lon="6.77335">
        <ele>380</ele>
        <time>2015-05-08T07:14:50.000Z</time>
      </trkpt>
      <trkpt lat="47.51518" lon="6.77327">
        <ele>378</ele>
        <time>2015-05-08T07:14:51.000Z</time>
      </trkpt>
      <trkpt lat="47.5151" lon="6.77318">
        <ele>378</ele>
        <time>2015-05-08T07:14:52.000Z</time>
      </trkpt>
      <trkpt lat="47.51503" lon="6.77308">
        <ele>378</ele>
        <time>2015-05-08T07:14:53.000Z</time>
      </trkpt>
      <trkpt lat="47.51498" lon="6.77297">
        <ele>377</ele>
        <time>2015-05-08T07:14:54.000Z</time>
      </trkpt>
      <trkpt lat="47.51496" lon="6.77284">
        <ele>377</ele>
        <time>2015-05-08T07:14:55.000Z</time>
      </trkpt>
      <trkpt lat="47.51494" lon="6.7727">
        <ele>376</ele>
        <time>2015-05-08T07:14:56.000Z</time>
      </trkpt>
      <trkpt lat="47.51493" lon="6.77258">
        <ele>376</ele>
        <time>2015-05-08T07:14:57.000Z</time>
      </trkpt>
      <trkpt lat="47.51492" lon="6.77247">
        <ele>376</ele>
        <time>2015-05-08T07:14:58.000Z</time>
      </trkpt>
      <trkpt lat="47.51491" lon="6.77235">
        <ele>375</ele>
        <time>2015-05-08T07:14:59.000Z</time>
      </trkpt>
      <trkpt lat="47.5149" lon="6.77224">
        <ele>375</ele>
        <time>2015-05-08T07:15:00.000Z</time>
      </trkpt>
      <trkpt lat="47.51489" lon="6.77215">
        <ele>375</ele>
        <time>2015-05-08T07:15:01.000Z</time>
      </trkpt>
      <trkpt lat="47.51486" lon="6.77207">
        <ele>375</ele>
        <time>2015-05-08T07:15:02.000Z</time>
      </trkpt>
      <trkpt lat="47.51481" lon="6.77202">
        <ele>375</ele>
        <time>2015-05-08T07:15:03.000Z</time>
      </trkpt>
      <trkpt lat="47.51473" lon="6.77199">
        <ele>375</ele>
        <time>2015-05-08T07:15:04.000Z</time>
      </trkpt>
      <trkpt lat="47.51466" lon="6.77201">
        <ele>375</ele>
        <time>2015-05-08T07:15:05.000Z</time>
      </trkpt>
      <trkpt lat="47.51459" lon="6.77202">
        <ele>375</ele>
        <time>2015-05-08T07:15:06.000Z</time>
      </trkpt>
      <trkpt lat="47.51453" lon="6.77206">
        <ele>375</ele>
        <time>2015-05-08T07:15:07.000Z</time>
      </trkpt>
      <trkpt lat="47.51445" lon="6.77208">
        <ele>375</ele>
        <time>2015-05-08T07:15:08.000Z</time>
      </trkpt>
      <trkpt lat="47.51439" lon="6.77211">
        <ele>375</ele>
        <time>2015-05-08T07:15:09.000Z</time>
      </trkpt>
      <trkpt lat="47.51432" lon="6.77214">
        <ele>375</ele>
        <time>2015-05-08T07:15:10.000Z</time>
      </trkpt>
      <trkpt lat="47.51426" lon="6.77217">
        <ele>375</ele>
        <time>2015-05-08T07:15:11.000Z</time>
      </trkpt>
      <trkpt lat="47.51414" lon="6.77223">
        <ele>376</ele>
        <time>2015-05-08T07:15:13.000Z</time>
      </trkpt>
      <trkpt lat="47.51409" lon="6.77225">
        <ele>376</ele>
        <time>2015-05-08T07:15:14.000Z</time>
      </trkpt>
      <trkpt lat="47.51404" lon="6.77228">
        <ele>376</ele>
        <time>2015-05-08T07:15:15.000Z</time>
      </trkpt>
      <trkpt lat="47.51399" lon="6.77231">
        <ele>376</ele>
        <time>2015-05-08T07:15:16.000Z</time>
      </trkpt>
      <trkpt lat="47.51394" lon="6.77234">
        <ele>376</ele>
        <time>2015-05-08T07:15:17.000Z</time>
      </trkpt>
      <trkpt lat="47.5139" lon="6.77237">
        <ele>376</ele>
        <time>2015-05-08T07:15:18.000Z</time>
      </trkpt>
      <trkpt lat="47.51385" lon="6.7724">
        <ele>376</ele>
        <time>2015-05-08T07:15:19.000Z</time>
      </trkpt>
      <trkpt lat="47.5138" lon="6.77242">
        <ele>376</ele>
        <time>2015-05-08T07:15:20.000Z</time>
      </trkpt>
      <trkpt lat="47.51377" lon="6.77245">
        <ele>376</ele>
        <time>2015-05-08T07:15:21.000Z</time>
      </trkpt>
      <trkpt lat="47.51373" lon="6.77248">
        <ele>376</ele>
        <time>2015-05-08T07:15:22.000Z</time>
      </trkpt>
      <trkpt lat="47.51369" lon="6.77249">
        <ele>376</ele>
        <time>2015-05-08T07:15:23.000Z</time>
      </trkpt>
      <trkpt lat="47.51366" lon="6.77252">
        <ele>378</ele>
        <time>2015-05-08T07:15:24.000Z</time>
      </trkpt>
      <trkpt lat="47.51363" lon="6.77255">
        <ele>378</ele>
        <time>2015-05-08T07:15:25.000Z</time>
      </trkpt>
      <trkpt lat="47.5136" lon="6.77257">
        <ele>378</ele>
        <time>2015-05-08T07:15:26.000Z</time>
      </trkpt>
      <trkpt lat="47.51358" lon="6.77259">
        <ele>378</ele>
        <time>2015-05-08T07:15:27.000Z</time>
      </trkpt>
      <trkpt lat="47.51356" lon="6.77262">
        <ele>378</ele>
        <time>2015-05-08T07:15:28.000Z</time>
      </trkpt>
      <trkpt lat="47.51353" lon="6.77263">
        <ele>378</ele>
        <time>2015-05-08T07:15:29.000Z</time>
      </trkpt>
      <trkpt lat="47.51351" lon="6.77265">
        <ele>378</ele>
        <time>2015-05-08T07:15:30.000Z</time>
      </trkpt>
      <trkpt lat="47.51348" lon="6.77267">
        <ele>378</ele>
        <time>2015-05-08T07:15:31.000Z</time>
      </trkpt>
      <trkpt lat="47.51346" lon="6.77269">
        <ele>378</ele>
        <time>2015-05-08T07:15:32.000Z</time>
      </trkpt>
      <trkpt lat="47.51344" lon="6.77271">
        <ele>378</ele>
        <time>2015-05-08T07:15:33.000Z</time>
      </trkpt>
      <trkpt lat="47.51341" lon="6.77273">
        <ele>378</ele>
        <time>2015-05-08T07:15:34.000Z</time>
      </trkpt>
      <trkpt lat="47.51339" lon="6.77275">
        <ele>378</ele>
        <time>2015-05-08T07:15:35.000Z</time>
      </trkpt>
      <trkpt lat="47.51337" lon="6.77276">
        <ele>378</ele>
        <time>2015-05-08T07:15:36.000Z</time>
      </trkpt>
      <trkpt lat="47.51334" lon="6.77277">
        <ele>378</ele>
        <time>2015-05-08T07:15:37.000Z</time>
      </trkpt>
      <trkpt lat="47.51331" lon="6.77278">
        <ele>377</ele>
        <time>2015-05-08T07:15:38.000Z</time>
      </trkpt>
      <trkpt lat="47.51329" lon="6.77279">
        <ele>377</ele>
        <time>2015-05-08T07:15:39.000Z</time>
      </trkpt>
      <trkpt lat="47.51326" lon="6.77278">
        <ele>377</ele>
        <time>2015-05-08T07:15:40.000Z</time>
      </trkpt>
      <trkpt lat="47.51323" lon="6.77278">
        <ele>377</ele>
        <time>2015-05-08T07:15:41.000Z</time>
      </trkpt>
      <trkpt lat="47.5132" lon="6.77277">
        <ele>377</ele>
        <time>2015-05-08T07:15:42.000Z</time>
      </trkpt>
      <trkpt lat="47.51317" lon="6.77277">
        <ele>377</ele>
        <time>2015-05-08T07:15:43.000Z</time>
      </trkpt>
      <trkpt lat="47.51314" lon="6.77276">
        <ele>377</ele>
        <time>2015-05-08T07:15:44.000Z</time>
      </trkpt>
      <trkpt lat="47.51311" lon="6.77275">
        <ele>377</ele>
        <time>2015-05-08T07:15:45.000Z</time>
      </trkpt>
      <trkpt lat="47.51308" lon="6.77274">
        <ele>377</ele>
        <time>2015-05-08T07:15:46.000Z</time>
      </trkpt>
      <trkpt lat="47.51305" lon="6.77272">
        <ele>377</ele>
        <time>2015-05-08T07:15:47.000Z</time>
      </trkpt>
      <trkpt lat="47.51302" lon="6.7727">
        <ele>377</ele>
        <time>2015-05-08T07:15:48.000Z</time>
      </trkpt>
      <trkpt lat="47.51299" lon="6.77269">
        <ele>377</ele>
        <time>2015-05-08T07:15:49.000Z</time>
      </trkpt>
      <trkpt lat="47.51296" lon="6.77267">
        <ele>377</ele>
        <time>2015-05-08T07:15:50.000Z</time>
      </trkpt>
      <trkpt lat="47.51293" lon="6.77265">
        <ele>377</ele>
        <time>2015-05-08T07:15:51.000Z</time>
      </trkpt>
      <trkpt lat="47.51289" lon="6.77264">
        <ele>377</ele>
        <time>2015-05-08T07:15:52.000Z</time>
      </trkpt>
      <trkpt lat="47.51286" lon="6.77262">
        <ele>377</ele>
        <time>2015-05-08T07:15:53.000Z</time>
      </trkpt>
      <trkpt lat="47.51282" lon="6.7726">
        <ele>377</ele>
        <time>2015-05-08T07:15:54.000Z</time>
      </trkpt>
      <trkpt lat="47.51279" lon="6.77258">
        <ele>377</ele>
        <time>2015-05-08T07:15:55.000Z</time>
      </trkpt>
      <trkpt lat="47.51276" lon="6.77256">
        <ele>377</ele>
        <time>2015-05-08T07:15:56.000Z</time>
      </trkpt>
      <trkpt lat="47.51273" lon="6.77254">
        <ele>377</ele>
        <time>2015-05-08T07:15:57.000Z</time>
      </trkpt>
      <trkpt lat="47.51269" lon="6.77252">
        <ele>378</ele>
        <time>2015-05-08T07:15:58.000Z</time>
      </trkpt>
      <trkpt lat="47.51266" lon="6.77249">
        <ele>378</ele>
        <time>2015-05-08T07:15:59.000Z</time>
      </trkpt>
      <trkpt lat="47.51262" lon="6.77247">
        <ele>378</ele>
        <time>2015-05-08T07:16:00.000Z</time>
      </trkpt>
      <trkpt lat="47.51258" lon="6.77244">
        <ele>379</ele>
        <time>2015-05-08T07:16:01.000Z</time>
      </trkpt>
      <trkpt lat="47.51255" lon="6.7724">
        <ele>379</ele>
        <time>2015-05-08T07:16:02.000Z</time>
      </trkpt>
      <trkpt lat="47.51252" lon="6.77235">
        <ele>378</ele>
        <time>2015-05-08T07:16:03.000Z</time>
      </trkpt>
      <trkpt lat="47.51249" lon="6.77231">
        <ele>377</ele>
        <time>2015-05-08T07:16:04.000Z</time>
      </trkpt>
      <trkpt lat="47.51246" lon="6.77226">
        <ele>376</ele>
        <time>2015-05-08T07:16:05.000Z</time>
      </trkpt>
      <trkpt lat="47.51243" lon="6.7722">
        <ele>376</ele>
        <time>2015-05-08T07:16:06.000Z</time>
      </trkpt>
      <trkpt lat="47.51242" lon="6.77212">
        <ele>376</ele>
        <time>2015-05-08T07:16:07.000Z</time>
      </trkpt>
      <trkpt lat="47.5124" lon="6.77206">
        <ele>376</ele>
        <time>2015-05-08T07:16:08.000Z</time>
      </trkpt>
      <trkpt lat="47.51238" lon="6.772">
        <ele>376</ele>
        <time>2015-05-08T07:16:09.000Z</time>
      </trkpt>
      <trkpt lat="47.51235" lon="6.77194">
        <ele>376</ele>
        <time>2015-05-08T07:16:10.000Z</time>
      </trkpt>
      <trkpt lat="47.51234" lon="6.77188">
        <ele>377</ele>
        <time>2015-05-08T07:16:11.000Z</time>
      </trkpt>
      <trkpt lat="47.51232" lon="6.77181">
        <ele>377</ele>
        <time>2015-05-08T07:16:12.000Z</time>
      </trkpt>
      <trkpt lat="47.51228" lon="6.77174">
        <ele>377</ele>
        <time>2015-05-08T07:16:13.000Z</time>
      </trkpt>
      <trkpt lat="47.51225" lon="6.77168">
        <ele>377</ele>
        <time>2015-05-08T07:16:14.000Z</time>
      </trkpt>
      <trkpt lat="47.51221" lon="6.77161">
        <ele>378</ele>
        <time>2015-05-08T07:16:15.000Z</time>
      </trkpt>
      <trkpt lat="47.51218" lon="6.77155">
        <ele>378</ele>
        <time>2015-05-08T07:16:16.000Z</time>
      </trkpt>
      <trkpt lat="47.51215" lon="6.77148">
        <ele>378</ele>
        <time>2015-05-08T07:16:17.000Z</time>
      </trkpt>
      <trkpt lat="47.51213" lon="6.77142">
        <ele>378</ele>
        <time>2015-05-08T07:16:18.000Z</time>
      </trkpt>
      <trkpt lat="47.51209" lon="6.77135">
        <ele>378</ele>
        <time>2015-05-08T07:16:19.000Z</time>
      </trkpt>
      <trkpt lat="47.51205" lon="6.77129">
        <ele>378</ele>
        <time>2015-05-08T07:16:20.000Z</time>
      </trkpt>
      <trkpt lat="47.51201" lon="6.77122">
        <ele>378</ele>
        <time>2015-05-08T07:16:21.000Z</time>
      </trkpt>
      <trkpt lat="47.51198" lon="6.77115">
        <ele>377</ele>
        <time>2015-05-08T07:16:22.000Z</time>
      </trkpt>
      <trkpt lat="47.51194" lon="6.77108">
        <ele>377</ele>
        <time>2015-05-08T07:16:23.000Z</time>
      </trkpt>
      <trkpt lat="47.5119" lon="6.771">
        <ele>378</ele>
        <time>2015-05-08T07:16:24.000Z</time>
      </trkpt>
      <trkpt lat="47.51185" lon="6.77091">
        <ele>378</ele>
        <time>2015-05-08T07:16:25.000Z</time>
      </trkpt>
      <trkpt lat="47.51181" lon="6.77083">
        <ele>378</ele>
        <time>2015-05-08T07:16:26.000Z</time>
      </trkpt>
      <trkpt lat="47.51177" lon="6.77076">
        <ele>377</ele>
        <time>2015-05-08T07:16:27.000Z</time>
      </trkpt>
      <trkpt lat="47.51172" lon="6.77067">
        <ele>377</ele>
        <time>2015-05-08T07:16:28.000Z</time>
      </trkpt>
      <trkpt lat="47.51166" lon="6.77061">
        <ele>376</ele>
        <time>2015-05-08T07:16:29.000Z</time>
      </trkpt>
      <trkpt lat="47.51161" lon="6.77055">
        <ele>376</ele>
        <time>2015-05-08T07:16:30.000Z</time>
      </trkpt>
      <trkpt lat="47.51155" lon="6.77049">
        <ele>376</ele>
        <time>2015-05-08T07:16:31.000Z</time>
      </trkpt>
      <trkpt lat="47.51149" lon="6.77044">
        <ele>376</ele>
        <time>2015-05-08T07:16:32.000Z</time>
      </trkpt>
      <trkpt lat="47.51143" lon="6.77039">
        <ele>375</ele>
        <time>2015-05-08T07:16:33.000Z</time>
      </trkpt>
      <trkpt lat="47.51139" lon="6.77033">
        <ele>375</ele>
        <time>2015-05-08T07:16:34.000Z</time>
      </trkpt>
      <trkpt lat="47.51134" lon="6.77027">
        <ele>375</ele>
        <time>2015-05-08T07:16:35.000Z</time>
      </trkpt>
      <trkpt lat="47.51128" lon="6.77023">
        <ele>375</ele>
        <time>2015-05-08T07:16:36.000Z</time>
      </trkpt>
      <trkpt lat="47.51123" lon="6.77018">
        <ele>375</ele>
        <time>2015-05-08T07:16:37.000Z</time>
      </trkpt>
      <trkpt lat="47.51118" lon="6.77014">
        <ele>375</ele>
        <time>2015-05-08T07:16:38.000Z</time>
      </trkpt>
      <trkpt lat="47.51113" lon="6.7701">
        <ele>375</ele>
        <time>2015-05-08T07:16:39.000Z</time>
      </trkpt>
      <trkpt lat="47.51107" lon="6.77006">
        <ele>375</ele>
        <time>2015-05-08T07:16:40.000Z</time>
      </trkpt>
      <trkpt lat="47.51103" lon="6.77002">
        <ele>375</ele>
        <time>2015-05-08T07:16:41.000Z</time>
      </trkpt>
      <trkpt lat="47.51098" lon="6.76998">
        <ele>375</ele>
        <time>2015-05-08T07:16:42.000Z</time>
      </trkpt>
      <trkpt lat="47.51093" lon="6.76993">
        <ele>375</ele>
        <time>2015-05-08T07:16:43.000Z</time>
      </trkpt>
      <trkpt lat="47.51089" lon="6.76986">
        <ele>375</ele>
        <time>2015-05-08T07:16:44.000Z</time>
      </trkpt>
      <trkpt lat="47.51083" lon="6.76983">
        <ele>375</ele>
        <time>2015-05-08T07:16:45.000Z</time>
      </trkpt>
      <trkpt lat="47.51077" lon="6.76979">
        <ele>375</ele>
        <time>2015-05-08T07:16:46.000Z</time>
      </trkpt>
      <trkpt lat="47.51072" lon="6.76975">
        <ele>375</ele>
        <time>2015-05-08T07:16:47.000Z</time>
      </trkpt>
      <trkpt lat="47.51067" lon="6.76971">
        <ele>375</ele>
        <time>2015-05-08T07:16:48.000Z</time>
      </trkpt>
      <trkpt lat="47.51062" lon="6.76967">
        <ele>375</ele>
        <time>2015-05-08T07:16:49.000Z</time>
      </trkpt>
      <trkpt lat="47.51058" lon="6.76961">
        <ele>375</ele>
        <time>2015-05-08T07:16:50.000Z</time>
      </trkpt>
      <trkpt lat="47.51053" lon="6.76957">
        <ele>375</ele>
        <time>2015-05-08T07:16:51.000Z</time>
      </trkpt>
      <trkpt lat="47.51047" lon="6.76954">
        <ele>375</ele>
        <time>2015-05-08T07:16:52.000Z</time>
      </trkpt>
      <trkpt lat="47.51041" lon="6.76951">
        <ele>375</ele>
        <time>2015-05-08T07:16:53.000Z</time>
      </trkpt>
      <trkpt lat="47.51036" lon="6.76946">
        <ele>375</ele>
        <time>2015-05-08T07:16:54.000Z</time>
      </trkpt>
      <trkpt lat="47.51031" lon="6.76942">
        <ele>375</ele>
        <time>2015-05-08T07:16:55.000Z</time>
      </trkpt>
      <trkpt lat="47.51027" lon="6.76938">
        <ele>375</ele>
        <time>2015-05-08T07:16:56.000Z</time>
      </trkpt>
      <trkpt lat="47.51023" lon="6.76931">
        <ele>375</ele>
        <time>2015-05-08T07:16:57.000Z</time>
      </trkpt>
      <trkpt lat="47.51019" lon="6.76926">
        <ele>375</ele>
        <time>2015-05-08T07:16:58.000Z</time>
      </trkpt>
      <trkpt lat="47.51015" lon="6.76923">
        <ele>375</ele>
        <time>2015-05-08T07:16:59.000Z</time>
      </trkpt>
      <trkpt lat="47.51011" lon="6.76919">
        <ele>376</ele>
        <time>2015-05-08T07:17:00.000Z</time>
      </trkpt>
      <trkpt lat="47.51008" lon="6.76914">
        <ele>376</ele>
        <time>2015-05-08T07:17:01.000Z</time>
      </trkpt>
      <trkpt lat="47.51009" lon="6.76908">
        <ele>376</ele>
        <time>2015-05-08T07:17:02.000Z</time>
      </trkpt>
      <trkpt lat="47.51007" lon="6.76903">
        <ele>376</ele>
        <time>2015-05-08T07:17:03.000Z</time>
      </trkpt>
      <trkpt lat="47.51005" lon="6.76898">
        <ele>376</ele>
        <time>2015-05-08T07:17:04.000Z</time>
      </trkpt>
      <trkpt lat="47.50999" lon="6.76896">
        <ele>377</ele>
        <time>2015-05-08T07:17:05.000Z</time>
      </trkpt>
      <trkpt lat="47.50993" lon="6.76893">
        <ele>377</ele>
        <time>2015-05-08T07:17:06.000Z</time>
      </trkpt>
      <trkpt lat="47.50986" lon="6.76893">
        <ele>377</ele>
        <time>2015-05-08T07:17:07.000Z</time>
      </trkpt>
      <trkpt lat="47.50981" lon="6.76893">
        <ele>377</ele>
        <time>2015-05-08T07:17:08.000Z</time>
      </trkpt>
      <trkpt lat="47.50976" lon="6.76891">
        <ele>377</ele>
        <time>2015-05-08T07:17:09.000Z</time>
      </trkpt>
      <trkpt lat="47.50971" lon="6.76888">
        <ele>377</ele>
        <time>2015-05-08T07:17:10.000Z</time>
      </trkpt>
      <trkpt lat="47.50967" lon="6.76885">
        <ele>377</ele>
        <time>2015-05-08T07:17:11.000Z</time>
      </trkpt>
      <trkpt lat="47.50962" lon="6.76884">
        <ele>377</ele>
        <time>2015-05-08T07:17:12.000Z</time>
      </trkpt>
      <trkpt lat="47.50958" lon="6.76881">
        <ele>377</ele>
        <time>2015-05-08T07:17:13.000Z</time>
      </trkpt>
      <trkpt lat="47.50954" lon="6.76879">
        <ele>378</ele>
        <time>2015-05-08T07:17:14.000Z</time>
      </trkpt>
      <trkpt lat="47.5095" lon="6.76875">
        <ele>378</ele>
        <time>2015-05-08T07:17:15.000Z</time>
      </trkpt>
      <trkpt lat="47.50946" lon="6.76872">
        <ele>378</ele>
        <time>2015-05-08T07:17:16.000Z</time>
      </trkpt>
      <trkpt lat="47.50943" lon="6.76867">
        <ele>378</ele>
        <time>2015-05-08T07:17:17.000Z</time>
      </trkpt>
      <trkpt lat="47.50941" lon="6.76863">
        <ele>378</ele>
        <time>2015-05-08T07:17:18.000Z</time>
      </trkpt>
      <trkpt lat="47.50939" lon="6.76859">
        <ele>378</ele>
        <time>2015-05-08T07:17:19.000Z</time>
      </trkpt>
      <trkpt lat="47.50935" lon="6.76854">
        <ele>378</ele>
        <time>2015-05-08T07:17:20.000Z</time>
      </trkpt>
      <trkpt lat="47.50932" lon="6.76848">
        <ele>379</ele>
        <time>2015-05-08T07:17:21.000Z</time>
      </trkpt>
      <trkpt lat="47.50931" lon="6.76844">
        <ele>379</ele>
        <time>2015-05-08T07:17:22.000Z</time>
      </trkpt>
      <trkpt lat="47.50929" lon="6.7684">
        <ele>379</ele>
        <time>2015-05-08T07:17:23.000Z</time>
      </trkpt>
      <trkpt lat="47.50928" lon="6.76835">
        <ele>379</ele>
        <time>2015-05-08T07:17:24.000Z</time>
      </trkpt>
      <trkpt lat="47.50926" lon="6.76829">
        <ele>379</ele>
        <time>2015-05-08T07:17:25.000Z</time>
      </trkpt>
      <trkpt lat="47.50924" lon="6.76824">
        <ele>379</ele>
        <time>2015-05-08T07:17:26.000Z</time>
      </trkpt>
      <trkpt lat="47.50922" lon="6.76819">
        <ele>379</ele>
        <time>2015-05-08T07:17:27.000Z</time>
      </trkpt>
      <trkpt lat="47.50921" lon="6.76814">
        <ele>378</ele>
        <time>2015-05-08T07:17:28.000Z</time>
      </trkpt>
      <trkpt lat="47.50919" lon="6.76809">
        <ele>378</ele>
        <time>2015-05-08T07:17:29.000Z</time>
      </trkpt>
      <trkpt lat="47.50917" lon="6.76803">
        <ele>378</ele>
        <time>2015-05-08T07:17:30.000Z</time>
      </trkpt>
      <trkpt lat="47.50915" lon="6.76797">
        <ele>381</ele>
        <time>2015-05-08T07:17:31.000Z</time>
      </trkpt>
      <trkpt lat="47.50912" lon="6.76791">
        <ele>381</ele>
        <time>2015-05-08T07:17:32.000Z</time>
      </trkpt>
      <trkpt lat="47.5091" lon="6.76786">
        <ele>381</ele>
        <time>2015-05-08T07:17:33.000Z</time>
      </trkpt>
      <trkpt lat="47.50908" lon="6.7678">
        <ele>381</ele>
        <time>2015-05-08T07:17:34.000Z</time>
      </trkpt>
      <trkpt lat="47.50906" lon="6.76775">
        <ele>380</ele>
        <time>2015-05-08T07:17:35.000Z</time>
      </trkpt>
      <trkpt lat="47.50904" lon="6.7677">
        <ele>380</ele>
        <time>2015-05-08T07:17:36.000Z</time>
      </trkpt>
      <trkpt lat="47.50902" lon="6.76765">
        <ele>380</ele>
        <time>2015-05-08T07:17:37.000Z</time>
      </trkpt>
      <trkpt lat="47.509" lon="6.76761">
        <ele>380</ele>
        <time>2015-05-08T07:17:38.000Z</time>
      </trkpt>
      <trkpt lat="47.50898" lon="6.76756">
        <ele>380</ele>
        <time>2015-05-08T07:17:39.000Z</time>
      </trkpt>
      <trkpt lat="47.50896" lon="6.76751">
        <ele>380</ele>
        <time>2015-05-08T07:17:40.000Z</time>
      </trkpt>
      <trkpt lat="47.50895" lon="6.76746">
        <ele>381</ele>
        <time>2015-05-08T07:17:41.000Z</time>
      </trkpt>
      <trkpt lat="47.50893" lon="6.76741">
        <ele>381</ele>
        <time>2015-05-08T07:17:42.000Z</time>
      </trkpt>
      <trkpt lat="47.50892" lon="6.76736">
        <ele>382</ele>
        <time>2015-05-08T07:17:43.000Z</time>
      </trkpt>
      <trkpt lat="47.50891" lon="6.76732">
        <ele>382</ele>
        <time>2015-05-08T07:17:44.000Z</time>
      </trkpt>
      <trkpt lat="47.5089" lon="6.76728">
        <ele>382</ele>
        <time>2015-05-08T07:17:45.000Z</time>
      </trkpt>
      <trkpt lat="47.50888" lon="6.76725">
        <ele>382</ele>
        <time>2015-05-08T07:17:46.000Z</time>
      </trkpt>
      <trkpt lat="47.50886" lon="6.7672">
        <ele>382</ele>
        <time>2015-05-08T07:17:47.000Z</time>
      </trkpt>
      <trkpt lat="47.50883" lon="6.76715">
        <ele>383</ele>
        <time>2015-05-08T07:17:48.000Z</time>
      </trkpt>
      <trkpt lat="47.50881" lon="6.7671">
        <ele>383</ele>
        <time>2015-05-08T07:17:49.000Z</time>
      </trkpt>
      <trkpt lat="47.50878" lon="6.76705">
        <ele>383</ele>
        <time>2015-05-08T07:17:50.000Z</time>
      </trkpt>
      <trkpt lat="47.50876" lon="6.76701">
        <ele>383</ele>
        <time>2015-05-08T07:17:51.000Z</time>
      </trkpt>
      <trkpt lat="47.50873" lon="6.76696">
        <ele>384</ele>
        <time>2015-05-08T07:17:52.000Z</time>
      </trkpt>
      <trkpt lat="47.50872" lon="6.76692">
        <ele>384</ele>
        <time>2015-05-08T07:17:53.000Z</time>
      </trkpt>
      <trkpt lat="47.5087" lon="6.76687">
        <ele>384</ele>
        <time>2015-05-08T07:17:54.000Z</time>
      </trkpt>
      <trkpt lat="47.50869" lon="6.76683">
        <ele>384</ele>
        <time>2015-05-08T07:17:55.000Z</time>
      </trkpt>
      <trkpt lat="47.50867" lon="6.76678">
        <ele>384</ele>
        <time>2015-05-08T07:17:56.000Z</time>
      </trkpt>
      <trkpt lat="47.50865" lon="6.76673">
        <ele>384</ele>
        <time>2015-05-08T07:17:57.000Z</time>
      </trkpt>
      <trkpt lat="47.50863" lon="6.76668">
        <ele>385</ele>
        <time>2015-05-08T07:17:58.000Z</time>
      </trkpt>
      <trkpt lat="47.50861" lon="6.76663">
        <ele>386</ele>
        <time>2015-05-08T07:17:59.000Z</time>
      </trkpt>
      <trkpt lat="47.50859" lon="6.76659">
        <ele>387</ele>
        <time>2015-05-08T07:18:00.000Z</time>
      </trkpt>
      <trkpt lat="47.50857" lon="6.76654">
        <ele>387</ele>
        <time>2015-05-08T07:18:01.000Z</time>
      </trkpt>
      <trkpt lat="47.50856" lon="6.7665">
        <ele>387</ele>
        <time>2015-05-08T07:18:02.000Z</time>
      </trkpt>
      <trkpt lat="47.50854" lon="6.76646">
        <ele>387</ele>
        <time>2015-05-08T07:18:03.000Z</time>
      </trkpt>
      <trkpt lat="47.50852" lon="6.76642">
        <ele>387</ele>
        <time>2015-05-08T07:18:04.000Z</time>
      </trkpt>
      <trkpt lat="47.5085" lon="6.76638">
        <ele>387</ele>
        <time>2015-05-08T07:18:05.000Z</time>
      </trkpt>
      <trkpt lat="47.50848" lon="6.76634">
        <ele>387</ele>
        <time>2015-05-08T07:18:06.000Z</time>
      </trkpt>
      <trkpt lat="47.50847" lon="6.76629">
        <ele>387</ele>
        <time>2015-05-08T07:18:07.000Z</time>
      </trkpt>
      <trkpt lat="47.50845" lon="6.76625">
        <ele>387</ele>
        <time>2015-05-08T07:18:08.000Z</time>
      </trkpt>
      <trkpt lat="47.50845" lon="6.76621">
        <ele>387</ele>
        <time>2015-05-08T07:18:09.000Z</time>
      </trkpt>
      <trkpt lat="47.50844" lon="6.76617">
        <ele>387</ele>
        <time>2015-05-08T07:18:10.000Z</time>
      </trkpt>
      <trkpt lat="47.50842" lon="6.76613">
        <ele>387</ele>
        <time>2015-05-08T07:18:11.000Z</time>
      </trkpt>
      <trkpt lat="47.50839" lon="6.76604">
        <ele>387</ele>
        <time>2015-05-08T07:18:13.000Z</time>
      </trkpt>
      <trkpt lat="47.50837" lon="6.766">
        <ele>388</ele>
        <time>2015-05-08T07:18:14.000Z</time>
      </trkpt>
      <trkpt lat="47.50836" lon="6.76596">
        <ele>388</ele>
        <time>2015-05-08T07:18:15.000Z</time>
      </trkpt>
      <trkpt lat="47.50834" lon="6.76592">
        <ele>388</ele>
        <time>2015-05-08T07:18:16.000Z</time>
      </trkpt>
      <trkpt lat="47.50833" lon="6.76589">
        <ele>389</ele>
        <time>2015-05-08T07:18:17.000Z</time>
      </trkpt>
      <trkpt lat="47.50829" lon="6.76588">
        <ele>389</ele>
        <time>2015-05-08T07:18:19.000Z</time>
      </trkpt>
      <trkpt lat="47.50826" lon="6.76591">
        <ele>390</ele>
        <time>2015-05-08T07:18:20.000Z</time>
      </trkpt>
      <trkpt lat="47.50823" lon="6.76595">
        <ele>390</ele>
        <time>2015-05-08T07:18:21.000Z</time>
      </trkpt>
      <trkpt lat="47.5082" lon="6.76595">
        <ele>390</ele>
        <time>2015-05-08T07:18:22.000Z</time>
      </trkpt>
      <trkpt lat="47.50818" lon="6.76594">
        <ele>390</ele>
        <time>2015-05-08T07:18:23.000Z</time>
      </trkpt>
      <trkpt lat="47.50816" lon="6.76591">
        <ele>390</ele>
        <time>2015-05-08T07:18:24.000Z</time>
      </trkpt>
      <trkpt lat="47.50815" lon="6.76587">
        <ele>390</ele>
        <time>2015-05-08T07:18:25.000Z</time>
      </trkpt>
      <trkpt lat="47.50812" lon="6.76583">
        <ele>391</ele>
        <time>2015-05-08T07:18:26.000Z</time>
      </trkpt>
      <trkpt lat="47.5081" lon="6.76581">
        <ele>391</ele>
        <time>2015-05-08T07:18:27.000Z</time>
      </trkpt>
      <trkpt lat="47.50807" lon="6.7658">
        <ele>391</ele>
        <time>2015-05-08T07:18:28.000Z</time>
      </trkpt>
      <trkpt lat="47.50803" lon="6.76581">
        <ele>391</ele>
        <time>2015-05-08T07:18:30.000Z</time>
      </trkpt>
      <trkpt lat="47.50801" lon="6.76582">
        <ele>391</ele>
        <time>2015-05-08T07:18:31.000Z</time>
      </trkpt>
      <trkpt lat="47.50799" lon="6.76583">
        <ele>392</ele>
        <time>2015-05-08T07:18:32.000Z</time>
      </trkpt>
      <trkpt lat="47.50796" lon="6.76584">
        <ele>391</ele>
        <time>2015-05-08T07:18:33.000Z</time>
      </trkpt>
      <trkpt lat="47.50792" lon="6.76585">
        <ele>391</ele>
        <time>2015-05-08T07:18:34.000Z</time>
      </trkpt>
      <trkpt lat="47.50789" lon="6.76587">
        <ele>391</ele>
        <time>2015-05-08T07:18:35.000Z</time>
      </trkpt>
      <trkpt lat="47.50784" lon="6.76588">
        <ele>391</ele>
        <time>2015-05-08T07:18:36.000Z</time>
      </trkpt>
      <trkpt lat="47.5078" lon="6.76588">
        <ele>392</ele>
        <time>2015-05-08T07:18:37.000Z</time>
      </trkpt>
      <trkpt lat="47.50776" lon="6.76589">
        <ele>392</ele>
        <time>2015-05-08T07:18:38.000Z</time>
      </trkpt>
      <trkpt lat="47.50772" lon="6.76589">
        <ele>392</ele>
        <time>2015-05-08T07:18:39.000Z</time>
      </trkpt>
      <trkpt lat="47.50768" lon="6.7659">
        <ele>392</ele>
        <time>2015-05-08T07:18:40.000Z</time>
      </trkpt>
      <trkpt lat="47.50764" lon="6.76591">
        <ele>392</ele>
        <time>2015-05-08T07:18:41.000Z</time>
      </trkpt>
      <trkpt lat="47.50761" lon="6.76591">
        <ele>393</ele>
        <time>2015-05-08T07:18:42.000Z</time>
      </trkpt>
      <trkpt lat="47.50757" lon="6.76591">
        <ele>393</ele>
        <time>2015-05-08T07:18:43.000Z</time>
      </trkpt>
      <trkpt lat="47.50753" lon="6.76591">
        <ele>393</ele>
        <time>2015-05-08T07:18:44.000Z</time>
      </trkpt>
      <trkpt lat="47.50749" lon="6.76591">
        <ele>394</ele>
        <time>2015-05-08T07:18:45.000Z</time>
      </trkpt>
      <trkpt lat="47.50745" lon="6.76591">
        <ele>394</ele>
        <time>2015-05-08T07:18:46.000Z</time>
      </trkpt>
      <trkpt lat="47.50741" lon="6.7659">
        <ele>394</ele>
        <time>2015-05-08T07:18:47.000Z</time>
      </trkpt>
      <trkpt lat="47.50737" lon="6.76589">
        <ele>394</ele>
        <time>2015-05-08T07:18:48.000Z</time>
      </trkpt>
      <trkpt lat="47.50733" lon="6.76589">
        <ele>394</ele>
        <time>2015-05-08T07:18:49.000Z</time>
      </trkpt>
      <trkpt lat="47.50729" lon="6.76587">
        <ele>394</ele>
        <time>2015-05-08T07:18:50.000Z</time>
      </trkpt>
      <trkpt lat="47.50726" lon="6.76586">
        <ele>394</ele>
        <time>2015-05-08T07:18:51.000Z</time>
      </trkpt>
      <trkpt lat="47.50722" lon="6.76584">
        <ele>394</ele>
        <time>2015-05-08T07:18:52.000Z</time>
      </trkpt>
      <trkpt lat="47.50718" lon="6.76583">
        <ele>395</ele>
        <time>2015-05-08T07:18:53.000Z</time>
      </trkpt>
      <trkpt lat="47.50715" lon="6.76582">
        <ele>395</ele>
        <time>2015-05-08T07:18:54.000Z</time>
      </trkpt>
      <trkpt lat="47.50711" lon="6.76582">
        <ele>395</ele>
        <time>2015-05-08T07:18:55.000Z</time>
      </trkpt>
      <trkpt lat="47.50707" lon="6.76581">
        <ele>395</ele>
        <time>2015-05-08T07:18:56.000Z</time>
      </trkpt>
      <trkpt lat="47.50703" lon="6.7658">
        <ele>395</ele>
        <time>2015-05-08T07:18:57.000Z</time>
      </trkpt>
      <trkpt lat="47.507" lon="6.76579">
        <ele>395</ele>
        <time>2015-05-08T07:18:58.000Z</time>
      </trkpt>
      <trkpt lat="47.50696" lon="6.76579">
        <ele>396</ele>
        <time>2015-05-08T07:18:59.000Z</time>
      </trkpt>
      <trkpt lat="47.50692" lon="6.76579">
        <ele>396</ele>
        <time>2015-05-08T07:19:00.000Z</time>
      </trkpt>
      <trkpt lat="47.50689" lon="6.76579">
        <ele>396</ele>
        <time>2015-05-08T07:19:01.000Z</time>
      </trkpt>
      <trkpt lat="47.50686" lon="6.76579">
        <ele>396</ele>
        <time>2015-05-08T07:19:02.000Z</time>
      </trkpt>
      <trkpt lat="47.50683" lon="6.76579">
        <ele>396</ele>
        <time>2015-05-08T07:19:03.000Z</time>
      </trkpt>
      <trkpt lat="47.50679" lon="6.76579">
        <ele>396</ele>
        <time>2015-05-08T07:19:04.000Z</time>
      </trkpt>
      <trkpt lat="47.50676" lon="6.76579">
        <ele>396</ele>
        <time>2015-05-08T07:19:05.000Z</time>
      </trkpt>
      <trkpt lat="47.50673" lon="6.7658">
        <ele>397</ele>
        <time>2015-05-08T07:19:06.000Z</time>
      </trkpt>
      <trkpt lat="47.50669" lon="6.76581">
        <ele>397</ele>
        <time>2015-05-08T07:19:07.000Z</time>
      </trkpt>
      <trkpt lat="47.50665" lon="6.76582">
        <ele>397</ele>
        <time>2015-05-08T07:19:08.000Z</time>
      </trkpt>
      <trkpt lat="47.50662" lon="6.76583">
        <ele>397</ele>
        <time>2015-05-08T07:19:09.000Z</time>
      </trkpt>
      <trkpt lat="47.50659" lon="6.76584">
        <ele>397</ele>
        <time>2015-05-08T07:19:10.000Z</time>
      </trkpt>
      <trkpt lat="47.50655" lon="6.76585">
        <ele>397</ele>
        <time>2015-05-08T07:19:11.000Z</time>
      </trkpt>
      <trkpt lat="47.50652" lon="6.76586">
        <ele>397</ele>
        <time>2015-05-08T07:19:12.000Z</time>
      </trkpt>
      <trkpt lat="47.50648" lon="6.76587">
        <ele>397</ele>
        <time>2015-05-08T07:19:13.000Z</time>
      </trkpt>
      <trkpt lat="47.50645" lon="6.76588">
        <ele>397</ele>
        <time>2015-05-08T07:19:14.000Z</time>
      </trkpt>
      <trkpt lat="47.50642" lon="6.76589">
        <ele>397</ele>
        <time>2015-05-08T07:19:15.000Z</time>
      </trkpt>
      <trkpt lat="47.50638" lon="6.7659">
        <ele>397</ele>
        <time>2015-05-08T07:19:16.000Z</time>
      </trkpt>
      <trkpt lat="47.50635" lon="6.76592">
        <ele>397</ele>
        <time>2015-05-08T07:19:17.000Z</time>
      </trkpt>
      <trkpt lat="47.50631" lon="6.76594">
        <ele>397</ele>
        <time>2015-05-08T07:19:18.000Z</time>
      </trkpt>
      <trkpt lat="47.50628" lon="6.76596">
        <ele>397</ele>
        <time>2015-05-08T07:19:19.000Z</time>
      </trkpt>
      <trkpt lat="47.50625" lon="6.76598">
        <ele>397</ele>
        <time>2015-05-08T07:19:20.000Z</time>
      </trkpt>
      <trkpt lat="47.50622" lon="6.76601">
        <ele>398</ele>
        <time>2015-05-08T07:19:21.000Z</time>
      </trkpt>
      <trkpt lat="47.50619" lon="6.76603">
        <ele>398</ele>
        <time>2015-05-08T07:19:22.000Z</time>
      </trkpt>
      <trkpt lat="47.50616" lon="6.76605">
        <ele>398</ele>
        <time>2015-05-08T07:19:23.000Z</time>
      </trkpt>
      <trkpt lat="47.50612" lon="6.76607">
        <ele>398</ele>
        <time>2015-05-08T07:19:24.000Z</time>
      </trkpt>
      <trkpt lat="47.50609" lon="6.76609">
        <ele>398</ele>
        <time>2015-05-08T07:19:25.000Z</time>
      </trkpt>
      <trkpt lat="47.50606" lon="6.7661">
        <ele>398</ele>
        <time>2015-05-08T07:19:26.000Z</time>
      </trkpt>
      <trkpt lat="47.50602" lon="6.76611">
        <ele>398</ele>
        <time>2015-05-08T07:19:27.000Z</time>
      </trkpt>
      <trkpt lat="47.50599" lon="6.76612">
        <ele>398</ele>
        <time>2015-05-08T07:19:28.000Z</time>
      </trkpt>
      <trkpt lat="47.50595" lon="6.76613">
        <ele>398</ele>
        <time>2015-05-08T07:19:29.000Z</time>
      </trkpt>
      <trkpt lat="47.50592" lon="6.76614">
        <ele>398</ele>
        <time>2015-05-08T07:19:30.000Z</time>
      </trkpt>
      <trkpt lat="47.50589" lon="6.76615">
        <ele>398</ele>
        <time>2015-05-08T07:19:31.000Z</time>
      </trkpt>
      <trkpt lat="47.50585" lon="6.76615">
        <ele>398</ele>
        <time>2015-05-08T07:19:32.000Z</time>
      </trkpt>
      <trkpt lat="47.50582" lon="6.76616">
        <ele>399</ele>
        <time>2015-05-08T07:19:33.000Z</time>
      </trkpt>
      <trkpt lat="47.50579" lon="6.76617">
        <ele>399</ele>
        <time>2015-05-08T07:19:34.000Z</time>
      </trkpt>
      <trkpt lat="47.50575" lon="6.76618">
        <ele>399</ele>
        <time>2015-05-08T07:19:35.000Z</time>
      </trkpt>
      <trkpt lat="47.50572" lon="6.76619">
        <ele>399</ele>
        <time>2015-05-08T07:19:36.000Z</time>
      </trkpt>
      <trkpt lat="47.50569" lon="6.7662">
        <ele>399</ele>
        <time>2015-05-08T07:19:37.000Z</time>
      </trkpt>
      <trkpt lat="47.50566" lon="6.7662">
        <ele>399</ele>
        <time>2015-05-08T07:19:38.000Z</time>
      </trkpt>
      <trkpt lat="47.50563" lon="6.76621">
        <ele>399</ele>
        <time>2015-05-08T07:19:39.000Z</time>
      </trkpt>
      <trkpt lat="47.50559" lon="6.76622">
        <ele>399</ele>
        <time>2015-05-08T07:19:40.000Z</time>
      </trkpt>
      <trkpt lat="47.50556" lon="6.76623">
        <ele>399</ele>
        <time>2015-05-08T07:19:41.000Z</time>
      </trkpt>
      <trkpt lat="47.50553" lon="6.76624">
        <ele>399</ele>
        <time>2015-05-08T07:19:42.000Z</time>
      </trkpt>
      <trkpt lat="47.5055" lon="6.76624">
        <ele>399</ele>
        <time>2015-05-08T07:19:43.000Z</time>
      </trkpt>
      <trkpt lat="47.50546" lon="6.76625">
        <ele>399</ele>
        <time>2015-05-08T07:19:44.000Z</time>
      </trkpt>
      <trkpt lat="47.50542" lon="6.76626">
        <ele>399</ele>
        <time>2015-05-08T07:19:45.000Z</time>
      </trkpt>
      <trkpt lat="47.50538" lon="6.76626">
        <ele>399</ele>
        <time>2015-05-08T07:19:46.000Z</time>
      </trkpt>
      <trkpt lat="47.50535" lon="6.76627">
        <ele>399</ele>
        <time>2015-05-08T07:19:47.000Z</time>
      </trkpt>
      <trkpt lat="47.5053" lon="6.76629">
        <ele>399</ele>
        <time>2015-05-08T07:19:48.000Z</time>
      </trkpt>
      <trkpt lat="47.50526" lon="6.7663">
        <ele>399</ele>
        <time>2015-05-08T07:19:49.000Z</time>
      </trkpt>
      <trkpt lat="47.50521" lon="6.76632">
        <ele>399</ele>
        <time>2015-05-08T07:19:50.000Z</time>
      </trkpt>
      <trkpt lat="47.50517" lon="6.76634">
        <ele>399</ele>
        <time>2015-05-08T07:19:51.000Z</time>
      </trkpt>
      <trkpt lat="47.50512" lon="6.76637">
        <ele>399</ele>
        <time>2015-05-08T07:19:52.000Z</time>
      </trkpt>
      <trkpt lat="47.50507" lon="6.76638">
        <ele>399</ele>
        <time>2015-05-08T07:19:53.000Z</time>
      </trkpt>
      <trkpt lat="47.50503" lon="6.7664">
        <ele>399</ele>
        <time>2015-05-08T07:19:54.000Z</time>
      </trkpt>
      <trkpt lat="47.50498" lon="6.76641">
        <ele>399</ele>
        <time>2015-05-08T07:19:55.000Z</time>
      </trkpt>
      <trkpt lat="47.50493" lon="6.76641">
        <ele>399</ele>
        <time>2015-05-08T07:19:56.000Z</time>
      </trkpt>
      <trkpt lat="47.50489" lon="6.76644">
        <ele>399</ele>
        <time>2015-05-08T07:19:57.000Z</time>
      </trkpt>
      <trkpt lat="47.50484" lon="6.76646">
        <ele>399</ele>
        <time>2015-05-08T07:19:58.000Z</time>
      </trkpt>
      <trkpt lat="47.50479" lon="6.76647">
        <ele>398</ele>
        <time>2015-05-08T07:19:59.000Z</time>
      </trkpt>
      <trkpt lat="47.50474" lon="6.76649">
        <ele>398</ele>
        <time>2015-05-08T07:20:00.000Z</time>
      </trkpt>
      <trkpt lat="47.50469" lon="6.76652">
        <ele>398</ele>
        <time>2015-05-08T07:20:01.000Z</time>
      </trkpt>
      <trkpt lat="47.50464" lon="6.76654">
        <ele>398</ele>
        <time>2015-05-08T07:20:02.000Z</time>
      </trkpt>
      <trkpt lat="47.5046" lon="6.76656">
        <ele>398</ele>
        <time>2015-05-08T07:20:03.000Z</time>
      </trkpt>
      <trkpt lat="47.50455" lon="6.76659">
        <ele>398</ele>
        <time>2015-05-08T07:20:04.000Z</time>
      </trkpt>
      <trkpt lat="47.5045" lon="6.76661">
        <ele>398</ele>
        <time>2015-05-08T07:20:05.000Z</time>
      </trkpt>
      <trkpt lat="47.50445" lon="6.76663">
        <ele>398</ele>
        <time>2015-05-08T07:20:06.000Z</time>
      </trkpt>
      <trkpt lat="47.50442" lon="6.76666">
        <ele>398</ele>
        <time>2015-05-08T07:20:07.000Z</time>
      </trkpt>
      <trkpt lat="47.50438" lon="6.76668">
        <ele>397</ele>
        <time>2015-05-08T07:20:08.000Z</time>
      </trkpt>
      <trkpt lat="47.50434" lon="6.7667">
        <ele>397</ele>
        <time>2015-05-08T07:20:09.000Z</time>
      </trkpt>
      <trkpt lat="47.5043" lon="6.76671">
        <ele>397</ele>
        <time>2015-05-08T07:20:10.000Z</time>
      </trkpt>
      <trkpt lat="47.50424" lon="6.76673">
        <ele>397</ele>
        <time>2015-05-08T07:20:11.000Z</time>
      </trkpt>
      <trkpt lat="47.50416" lon="6.76674">
        <ele>397</ele>
        <time>2015-05-08T07:20:13.000Z</time>
      </trkpt>
      <trkpt lat="47.50411" lon="6.76676">
        <ele>397</ele>
        <time>2015-05-08T07:20:14.000Z</time>
      </trkpt>
      <trkpt lat="47.50406" lon="6.76679">
        <ele>397</ele>
        <time>2015-05-08T07:20:15.000Z</time>
      </trkpt>
      <trkpt lat="47.50401" lon="6.76681">
        <ele>397</ele>
        <time>2015-05-08T07:20:16.000Z</time>
      </trkpt>
      <trkpt lat="47.50397" lon="6.76683">
        <ele>397</ele>
        <time>2015-05-08T07:20:17.000Z</time>
      </trkpt>
      <trkpt lat="47.50392" lon="6.76684">
        <ele>397</ele>
        <time>2015-05-08T07:20:18.000Z</time>
      </trkpt>
      <trkpt lat="47.50388" lon="6.76687">
        <ele>397</ele>
        <time>2015-05-08T07:20:19.000Z</time>
      </trkpt>
      <trkpt lat="47.50384" lon="6.76689">
        <ele>397</ele>
        <time>2015-05-08T07:20:20.000Z</time>
      </trkpt>
      <trkpt lat="47.50379" lon="6.76691">
        <ele>397</ele>
        <time>2015-05-08T07:20:21.000Z</time>
      </trkpt>
      <trkpt lat="47.50376" lon="6.76691">
        <ele>397</ele>
        <time>2015-05-08T07:20:22.000Z</time>
      </trkpt>
      <trkpt lat="47.50372" lon="6.76695">
        <ele>397</ele>
        <time>2015-05-08T07:20:23.000Z</time>
      </trkpt>
      <trkpt lat="47.50368" lon="6.76697">
        <ele>397</ele>
        <time>2015-05-08T07:20:24.000Z</time>
      </trkpt>
      <trkpt lat="47.50364" lon="6.76699">
        <ele>397</ele>
        <time>2015-05-08T07:20:25.000Z</time>
      </trkpt>
      <trkpt lat="47.5036" lon="6.76701">
        <ele>397</ele>
        <time>2015-05-08T07:20:26.000Z</time>
      </trkpt>
      <trkpt lat="47.50356" lon="6.76703">
        <ele>397</ele>
        <time>2015-05-08T07:20:27.000Z</time>
      </trkpt>
      <trkpt lat="47.50352" lon="6.76705">
        <ele>397</ele>
        <time>2015-05-08T07:20:28.000Z</time>
      </trkpt>
      <trkpt lat="47.50348" lon="6.76706">
        <ele>397</ele>
        <time>2015-05-08T07:20:29.000Z</time>
      </trkpt>
      <trkpt lat="47.50344" lon="6.76707">
        <ele>397</ele>
        <time>2015-05-08T07:20:30.000Z</time>
      </trkpt>
      <trkpt lat="47.5034" lon="6.76709">
        <ele>398</ele>
        <time>2015-05-08T07:20:31.000Z</time>
      </trkpt>
      <trkpt lat="47.50336" lon="6.76711">
        <ele>398</ele>
        <time>2015-05-08T07:20:32.000Z</time>
      </trkpt>
      <trkpt lat="47.50332" lon="6.76713">
        <ele>398</ele>
        <time>2015-05-08T07:20:33.000Z</time>
      </trkpt>
      <trkpt lat="47.50329" lon="6.76715">
        <ele>398</ele>
        <time>2015-05-08T07:20:34.000Z</time>
      </trkpt>
      <trkpt lat="47.50325" lon="6.76716">
        <ele>398</ele>
        <time>2015-05-08T07:20:35.000Z</time>
      </trkpt>
      <trkpt lat="47.50321" lon="6.76718">
        <ele>398</ele>
        <time>2015-05-08T07:20:36.000Z</time>
      </trkpt>
      <trkpt lat="47.50317" lon="6.7672">
        <ele>398</ele>
        <time>2015-05-08T07:20:37.000Z</time>
      </trkpt>
      <trkpt lat="47.50313" lon="6.76725">
        <ele>398</ele>
        <time>2015-05-08T07:20:38.000Z</time>
      </trkpt>
      <trkpt lat="47.50309" lon="6.76728">
        <ele>398</ele>
        <time>2015-05-08T07:20:39.000Z</time>
      </trkpt>
      <trkpt lat="47.50305" lon="6.76729">
        <ele>398</ele>
        <time>2015-05-08T07:20:40.000Z</time>
      </trkpt>
      <trkpt lat="47.50302" lon="6.76729">
        <ele>398</ele>
        <time>2015-05-08T07:20:41.000Z</time>
      </trkpt>
      <trkpt lat="47.50298" lon="6.76729">
        <ele>399</ele>
        <time>2015-05-08T07:20:42.000Z</time>
      </trkpt>
      <trkpt lat="47.50295" lon="6.7673">
        <ele>399</ele>
        <time>2015-05-08T07:20:43.000Z</time>
      </trkpt>
      <trkpt lat="47.5029" lon="6.76731">
        <ele>399</ele>
        <time>2015-05-08T07:20:44.000Z</time>
      </trkpt>
      <trkpt lat="47.50286" lon="6.76732">
        <ele>399</ele>
        <time>2015-05-08T07:20:45.000Z</time>
      </trkpt>
      <trkpt lat="47.50282" lon="6.76733">
        <ele>399</ele>
        <time>2015-05-08T07:20:46.000Z</time>
      </trkpt>
      <trkpt lat="47.50278" lon="6.76731">
        <ele>399</ele>
        <time>2015-05-08T07:20:47.000Z</time>
      </trkpt>
      <trkpt lat="47.50274" lon="6.76732">
        <ele>399</ele>
        <time>2015-05-08T07:20:48.000Z</time>
      </trkpt>
      <trkpt lat="47.50271" lon="6.76733">
        <ele>399</ele>
        <time>2015-05-08T07:20:49.000Z</time>
      </trkpt>
      <trkpt lat="47.50267" lon="6.76733">
        <ele>399</ele>
        <time>2015-05-08T07:20:50.000Z</time>
      </trkpt>
      <trkpt lat="47.50264" lon="6.76734">
        <ele>399</ele>
        <time>2015-05-08T07:20:51.000Z</time>
      </trkpt>
      <trkpt lat="47.5026" lon="6.76735">
        <ele>399</ele>
        <time>2015-05-08T07:20:52.000Z</time>
      </trkpt>
      <trkpt lat="47.50257" lon="6.76736">
        <ele>399</ele>
        <time>2015-05-08T07:20:53.000Z</time>
      </trkpt>
      <trkpt lat="47.50254" lon="6.76736">
        <ele>399</ele>
        <time>2015-05-08T07:20:54.000Z</time>
      </trkpt>
      <trkpt lat="47.5025" lon="6.76735">
        <ele>399</ele>
        <time>2015-05-08T07:20:55.000Z</time>
      </trkpt>
      <trkpt lat="47.50248" lon="6.76733">
        <ele>401</ele>
        <time>2015-05-08T07:20:56.000Z</time>
      </trkpt>
      <trkpt lat="47.50245" lon="6.7673">
        <ele>401</ele>
        <time>2015-05-08T07:20:57.000Z</time>
      </trkpt>
      <trkpt lat="47.50244" lon="6.76727">
        <ele>401</ele>
        <time>2015-05-08T07:20:58.000Z</time>
      </trkpt>
      <trkpt lat="47.50242" lon="6.76723">
        <ele>401</ele>
        <time>2015-05-08T07:20:59.000Z</time>
      </trkpt>
      <trkpt lat="47.5024" lon="6.76719">
        <ele>401</ele>
        <time>2015-05-08T07:21:00.000Z</time>
      </trkpt>
      <trkpt lat="47.50237" lon="6.76715">
        <ele>401</ele>
        <time>2015-05-08T07:21:01.000Z</time>
      </trkpt>
      <trkpt lat="47.50235" lon="6.76711">
        <ele>401</ele>
        <time>2015-05-08T07:21:02.000Z</time>
      </trkpt>
      <trkpt lat="47.50232" lon="6.76707">
        <ele>402</ele>
        <time>2015-05-08T07:21:03.000Z</time>
      </trkpt>
      <trkpt lat="47.50231" lon="6.76703">
        <ele>402</ele>
        <time>2015-05-08T07:21:04.000Z</time>
      </trkpt>
      <trkpt lat="47.50229" lon="6.76699">
        <ele>401</ele>
        <time>2015-05-08T07:21:05.000Z</time>
      </trkpt>
      <trkpt lat="47.50229" lon="6.76694">
        <ele>401</ele>
        <time>2015-05-08T07:21:06.000Z</time>
      </trkpt>
      <trkpt lat="47.50229" lon="6.76689">
        <ele>401</ele>
        <time>2015-05-08T07:21:07.000Z</time>
      </trkpt>
      <trkpt lat="47.50228" lon="6.76685">
        <ele>401</ele>
        <time>2015-05-08T07:21:08.000Z</time>
      </trkpt>
      <trkpt lat="47.50227" lon="6.7668">
        <ele>401</ele>
        <time>2015-05-08T07:21:09.000Z</time>
      </trkpt>
      <trkpt lat="47.50227" lon="6.76675">
        <ele>401</ele>
        <time>2015-05-08T07:21:10.000Z</time>
      </trkpt>
      <trkpt lat="47.50225" lon="6.76671">
        <ele>401</ele>
        <time>2015-05-08T07:21:11.000Z</time>
      </trkpt>
      <trkpt lat="47.50223" lon="6.7666">
        <ele>401</ele>
        <time>2015-05-08T07:21:13.000Z</time>
      </trkpt>
      <trkpt lat="47.50222" lon="6.76655">
        <ele>401</ele>
        <time>2015-05-08T07:21:14.000Z</time>
      </trkpt>
      <trkpt lat="47.50221" lon="6.76649">
        <ele>401</ele>
        <time>2015-05-08T07:21:15.000Z</time>
      </trkpt>
      <trkpt lat="47.5022" lon="6.76644">
        <ele>401</ele>
        <time>2015-05-08T07:21:16.000Z</time>
      </trkpt>
      <trkpt lat="47.50219" lon="6.76638">
        <ele>402</ele>
        <time>2015-05-08T07:21:17.000Z</time>
      </trkpt>
      <trkpt lat="47.50217" lon="6.76633">
        <ele>402</ele>
        <time>2015-05-08T07:21:18.000Z</time>
      </trkpt>
      <trkpt lat="47.50215" lon="6.76627">
        <ele>402</ele>
        <time>2015-05-08T07:21:19.000Z</time>
      </trkpt>
      <trkpt lat="47.50214" lon="6.76622">
        <ele>402</ele>
        <time>2015-05-08T07:21:20.000Z</time>
      </trkpt>
      <trkpt lat="47.50212" lon="6.76616">
        <ele>402</ele>
        <time>2015-05-08T07:21:21.000Z</time>
      </trkpt>
      <trkpt lat="47.50209" lon="6.7661">
        <ele>402</ele>
        <time>2015-05-08T07:21:22.000Z</time>
      </trkpt>
      <trkpt lat="47.50207" lon="6.76605">
        <ele>402</ele>
        <time>2015-05-08T07:21:23.000Z</time>
      </trkpt>
      <trkpt lat="47.50205" lon="6.766">
        <ele>402</ele>
        <time>2015-05-08T07:21:24.000Z</time>
      </trkpt>
      <trkpt lat="47.50203" lon="6.76595">
        <ele>403</ele>
        <time>2015-05-08T07:21:25.000Z</time>
      </trkpt>
      <trkpt lat="47.50202" lon="6.76592">
        <ele>403</ele>
        <time>2015-05-08T07:21:26.000Z</time>
      </trkpt>
      <trkpt lat="47.50201" lon="6.76589">
        <ele>403</ele>
        <time>2015-05-08T07:21:27.000Z</time>
      </trkpt>
      <trkpt lat="47.50199" lon="6.76583">
        <ele>402</ele>
        <time>2015-05-08T07:21:36.000Z</time>
      </trkpt>
      <trkpt lat="47.502" lon="6.76582">
        <ele>402</ele>
        <time>2015-05-08T07:21:37.000Z</time>
      </trkpt>
      <trkpt lat="47.50204" lon="6.76582">
        <ele>402</ele>
        <time>2015-05-08T07:21:38.000Z</time>
      </trkpt>
      <trkpt lat="47.50208" lon="6.76582">
        <ele>401</ele>
        <time>2015-05-08T07:21:39.000Z</time>
      </trkpt>
      <trkpt lat="47.50213" lon="6.76582">
        <ele>401</ele>
        <time>2015-05-08T07:21:40.000Z</time>
      </trkpt>
      <trkpt lat="47.50218" lon="6.76583">
        <ele>401</ele>
        <time>2015-05-08T07:21:41.000Z</time>
      </trkpt>
      <trkpt lat="47.50222" lon="6.76583">
        <ele>401</ele>
        <time>2015-05-08T07:21:42.000Z</time>
      </trkpt>
      <trkpt lat="47.50222" lon="6.76568">
        <ele>400</ele>
        <time>2015-05-08T07:21:43.000Z</time>
      </trkpt>
      <trkpt lat="47.50222" lon="6.7656">
        <ele>400</ele>
        <time>2015-05-08T07:21:44.000Z</time>
      </trkpt>
      <trkpt lat="47.50222" lon="6.76551">
        <ele>400</ele>
        <time>2015-05-08T07:21:45.000Z</time>
      </trkpt>
      <trkpt lat="47.5022" lon="6.76543">
        <ele>400</ele>
        <time>2015-05-08T07:21:46.000Z</time>
      </trkpt>
      <trkpt lat="47.5022" lon="6.76533">
        <ele>400</ele>
        <time>2015-05-08T07:21:47.000Z</time>
      </trkpt>
      <trkpt lat="47.5022" lon="6.76524">
        <ele>399</ele>
        <time>2015-05-08T07:21:48.000Z</time>
      </trkpt>
      <trkpt lat="47.50217" lon="6.76515">
        <ele>399</ele>
        <time>2015-05-08T07:21:49.000Z</time>
      </trkpt>
      <trkpt lat="47.50216" lon="6.76503">
        <ele>399</ele>
        <time>2015-05-08T07:21:50.000Z</time>
      </trkpt>
      <trkpt lat="47.50215" lon="6.76494">
        <ele>396</ele>
        <time>2015-05-08T07:21:51.000Z</time>
      </trkpt>
      <trkpt lat="47.50214" lon="6.76486">
        <ele>396</ele>
        <time>2015-05-08T07:21:52.000Z</time>
      </trkpt>
      <trkpt lat="47.50215" lon="6.76477">
        <ele>395</ele>
        <time>2015-05-08T07:21:53.000Z</time>
      </trkpt>
      <trkpt lat="47.50213" lon="6.76466">
        <ele>395</ele>
        <time>2015-05-08T07:21:54.000Z</time>
      </trkpt>
      <trkpt lat="47.50208" lon="6.76453">
        <ele>395</ele>
        <time>2015-05-08T07:21:55.000Z</time>
      </trkpt>
      <trkpt lat="47.50205" lon="6.76442">
        <ele>395</ele>
        <time>2015-05-08T07:21:56.000Z</time>
      </trkpt>
      <trkpt lat="47.50202" lon="6.76429">
        <ele>395</ele>
        <time>2015-05-08T07:21:57.000Z</time>
      </trkpt>
      <trkpt lat="47.50197" lon="6.76416">
        <ele>392</ele>
        <time>2015-05-08T07:21:58.000Z</time>
      </trkpt>
      <trkpt lat="47.50193" lon="6.76403">
        <ele>392</ele>
        <time>2015-05-08T07:21:59.000Z</time>
      </trkpt>
      <trkpt lat="47.50192" lon="6.76391">
        <ele>391</ele>
        <time>2015-05-08T07:22:00.000Z</time>
      </trkpt>
      <trkpt lat="47.50193" lon="6.76383">
        <ele>390</ele>
        <time>2015-05-08T07:22:01.000Z</time>
      </trkpt>
      <trkpt lat="47.50191" lon="6.76372">
        <ele>390</ele>
        <time>2015-05-08T07:22:02.000Z</time>
      </trkpt>
      <trkpt lat="47.5019" lon="6.76362">
        <ele>390</ele>
        <time>2015-05-08T07:22:03.000Z</time>
      </trkpt>
      <trkpt lat="47.50188" lon="6.76351">
        <ele>390</ele>
        <time>2015-05-08T07:22:04.000Z</time>
      </trkpt>
      <trkpt lat="47.50188" lon="6.76339">
        <ele>390</ele>
        <time>2015-05-08T07:22:05.000Z</time>
      </trkpt>
      <trkpt lat="47.50187" lon="6.76325">
        <ele>387</ele>
        <time>2015-05-08T07:22:06.000Z</time>
      </trkpt>
      <trkpt lat="47.50186" lon="6.76314">
        <ele>387</ele>
        <time>2015-05-08T07:22:07.000Z</time>
      </trkpt>
      <trkpt lat="47.50184" lon="6.76303">
        <ele>386</ele>
        <time>2015-05-08T07:22:08.000Z</time>
      </trkpt>
      <trkpt lat="47.50181" lon="6.7629">
        <ele>386</ele>
        <time>2015-05-08T07:22:09.000Z</time>
      </trkpt>
      <trkpt lat="47.50177" lon="6.76279">
        <ele>386</ele>
        <time>2015-05-08T07:22:10.000Z</time>
      </trkpt>
      <trkpt lat="47.50173" lon="6.76264">
        <ele>386</ele>
        <time>2015-05-08T07:22:11.000Z</time>
      </trkpt>
      <trkpt lat="47.50168" lon="6.76239">
        <ele>384</ele>
        <time>2015-05-08T07:22:13.000Z</time>
      </trkpt>
      <trkpt lat="47.50165" lon="6.7623">
        <ele>388</ele>
        <time>2015-05-08T07:22:14.000Z</time>
      </trkpt>
      <trkpt lat="47.50165" lon="6.7622">
        <ele>388</ele>
        <time>2015-05-08T07:22:15.000Z</time>
      </trkpt>
      <trkpt lat="47.50163" lon="6.76209">
        <ele>387</ele>
        <time>2015-05-08T07:22:16.000Z</time>
      </trkpt>
      <trkpt lat="47.50161" lon="6.76198">
        <ele>386</ele>
        <time>2015-05-08T07:22:17.000Z</time>
      </trkpt>
      <trkpt lat="47.5016" lon="6.76183">
        <ele>384</ele>
        <time>2015-05-08T07:22:18.000Z</time>
      </trkpt>
      <trkpt lat="47.50157" lon="6.76173">
        <ele>382</ele>
        <time>2015-05-08T07:22:19.000Z</time>
      </trkpt>
      <trkpt lat="47.50156" lon="6.76161">
        <ele>380</ele>
        <time>2015-05-08T07:22:20.000Z</time>
      </trkpt>
      <trkpt lat="47.50153" lon="6.7615">
        <ele>381</ele>
        <time>2015-05-08T07:22:21.000Z</time>
      </trkpt>
      <trkpt lat="47.5015" lon="6.7614">
        <ele>382</ele>
        <time>2015-05-08T07:22:22.000Z</time>
      </trkpt>
      <trkpt lat="47.50147" lon="6.76126">
        <ele>382</ele>
        <time>2015-05-08T07:22:23.000Z</time>
      </trkpt>
      <trkpt lat="47.50145" lon="6.76113">
        <ele>382</ele>
        <time>2015-05-08T07:22:24.000Z</time>
      </trkpt>
      <trkpt lat="47.50142" lon="6.76103">
        <ele>381</ele>
        <time>2015-05-08T07:22:25.000Z</time>
      </trkpt>
      <trkpt lat="47.50136" lon="6.76091">
        <ele>382</ele>
        <time>2015-05-08T07:22:26.000Z</time>
      </trkpt>
      <trkpt lat="47.50133" lon="6.76078">
        <ele>379</ele>
        <time>2015-05-08T07:22:27.000Z</time>
      </trkpt>
      <trkpt lat="47.50128" lon="6.76062">
        <ele>379</ele>
        <time>2015-05-08T07:22:28.000Z</time>
      </trkpt>
      <trkpt lat="47.50126" lon="6.76047">
        <ele>379</ele>
        <time>2015-05-08T07:22:29.000Z</time>
      </trkpt>
      <trkpt lat="47.50122" lon="6.76035">
        <ele>379</ele>
        <time>2015-05-08T07:22:30.000Z</time>
      </trkpt>
      <trkpt lat="47.50118" lon="6.76024">
        <ele>378</ele>
        <time>2015-05-08T07:22:31.000Z</time>
      </trkpt>
      <trkpt lat="47.50114" lon="6.76008">
        <ele>378</ele>
        <time>2015-05-08T07:22:32.000Z</time>
      </trkpt>
      <trkpt lat="47.50112" lon="6.75992">
        <ele>374</ele>
        <time>2015-05-08T07:22:33.000Z</time>
      </trkpt>
      <trkpt lat="47.50104" lon="6.75978">
        <ele>374</ele>
        <time>2015-05-08T07:22:34.000Z</time>
      </trkpt>
      <trkpt lat="47.50099" lon="6.75969">
        <ele>374</ele>
        <time>2015-05-08T07:22:35.000Z</time>
      </trkpt>
      <trkpt lat="47.50094" lon="6.75957">
        <ele>374</ele>
        <time>2015-05-08T07:22:36.000Z</time>
      </trkpt>
      <trkpt lat="47.50089" lon="6.75947">
        <ele>373</ele>
        <time>2015-05-08T07:22:37.000Z</time>
      </trkpt>
      <trkpt lat="47.50085" lon="6.75938">
        <ele>373</ele>
        <time>2015-05-08T07:22:38.000Z</time>
      </trkpt>
      <trkpt lat="47.50082" lon="6.75928">
        <ele>376</ele>
        <time>2015-05-08T07:22:39.000Z</time>
      </trkpt>
      <trkpt lat="47.50077" lon="6.75918">
        <ele>375</ele>
        <time>2015-05-08T07:22:40.000Z</time>
      </trkpt>
      <trkpt lat="47.50074" lon="6.75907">
        <ele>375</ele>
        <time>2015-05-08T07:22:41.000Z</time>
      </trkpt>
      <trkpt lat="47.50067" lon="6.75896">
        <ele>375</ele>
        <time>2015-05-08T07:22:42.000Z</time>
      </trkpt>
      <trkpt lat="47.50062" lon="6.75888">
        <ele>375</ele>
        <time>2015-05-08T07:22:43.000Z</time>
      </trkpt>
      <trkpt lat="47.50057" lon="6.75877">
        <ele>376</ele>
        <time>2015-05-08T07:22:44.000Z</time>
      </trkpt>
      <trkpt lat="47.50052" lon="6.75867">
        <ele>376</ele>
        <time>2015-05-08T07:22:45.000Z</time>
      </trkpt>
      <trkpt lat="47.50044" lon="6.75855">
        <ele>376</ele>
        <time>2015-05-08T07:22:46.000Z</time>
      </trkpt>
      <trkpt lat="47.50039" lon="6.75845">
        <ele>376</ele>
        <time>2015-05-08T07:22:47.000Z</time>
      </trkpt>
      <trkpt lat="47.50035" lon="6.75833">
        <ele>375</ele>
        <time>2015-05-08T07:22:48.000Z</time>
      </trkpt>
      <trkpt lat="47.50031" lon="6.7582">
        <ele>375</ele>
        <time>2015-05-08T07:22:49.000Z</time>
      </trkpt>
      <trkpt lat="47.50027" lon="6.7581">
        <ele>375</ele>
        <time>2015-05-08T07:22:50.000Z</time>
      </trkpt>
      <trkpt lat="47.50021" lon="6.75799">
        <ele>375</ele>
        <time>2015-05-08T07:22:51.000Z</time>
      </trkpt>
      <trkpt lat="47.50017" lon="6.7579">
        <ele>375</ele>
        <time>2015-05-08T07:22:52.000Z</time>
      </trkpt>
      <trkpt lat="47.50008" lon="6.7578">
        <ele>375</ele>
        <time>2015-05-08T07:22:53.000Z</time>
      </trkpt>
      <trkpt lat="47.49999" lon="6.75767">
        <ele>376</ele>
        <time>2015-05-08T07:22:54.000Z</time>
      </trkpt>
      <trkpt lat="47.49994" lon="6.7576">
        <ele>376</ele>
        <time>2015-05-08T07:22:55.000Z</time>
      </trkpt>
      <trkpt lat="47.49989" lon="6.75749">
        <ele>375</ele>
        <time>2015-05-08T07:22:56.000Z</time>
      </trkpt>
      <trkpt lat="47.49982" lon="6.7574">
        <ele>373</ele>
        <time>2015-05-08T07:22:57.000Z</time>
      </trkpt>
      <trkpt lat="47.4998" lon="6.7573">
        <ele>372</ele>
        <time>2015-05-08T07:22:58.000Z</time>
      </trkpt>
      <trkpt lat="47.49973" lon="6.75723">
        <ele>371</ele>
        <time>2015-05-08T07:22:59.000Z</time>
      </trkpt>
      <trkpt lat="47.49962" lon="6.75715">
        <ele>371</ele>
        <time>2015-05-08T07:23:00.000Z</time>
      </trkpt>
      <trkpt lat="47.49959" lon="6.75707">
        <ele>370</ele>
        <time>2015-05-08T07:23:01.000Z</time>
      </trkpt>
      <trkpt lat="47.49953" lon="6.75699">
        <ele>370</ele>
        <time>2015-05-08T07:23:02.000Z</time>
      </trkpt>
      <trkpt lat="47.49938" lon="6.75692">
        <ele>369</ele>
        <time>2015-05-08T07:23:03.000Z</time>
      </trkpt>
      <trkpt lat="47.49928" lon="6.75691">
        <ele>369</ele>
        <time>2015-05-08T07:23:04.000Z</time>
      </trkpt>
      <trkpt lat="47.49916" lon="6.75688">
        <ele>365</ele>
        <time>2015-05-08T07:23:05.000Z</time>
      </trkpt>
      <trkpt lat="47.49906" lon="6.75689">
        <ele>365</ele>
        <time>2015-05-08T07:23:06.000Z</time>
      </trkpt>
      <trkpt lat="47.49899" lon="6.75689">
        <ele>364</ele>
        <time>2015-05-08T07:23:07.000Z</time>
      </trkpt>
      <trkpt lat="47.49893" lon="6.75687">
        <ele>364</ele>
        <time>2015-05-08T07:23:08.000Z</time>
      </trkpt>
      <trkpt lat="47.49883" lon="6.75684">
        <ele>363</ele>
        <time>2015-05-08T07:23:09.000Z</time>
      </trkpt>
      <trkpt lat="47.49871" lon="6.75686">
        <ele>362</ele>
        <time>2015-05-08T07:23:10.000Z</time>
      </trkpt>
      <trkpt lat="47.49859" lon="6.75684">
        <ele>360</ele>
        <time>2015-05-08T07:23:11.000Z</time>
      </trkpt>
      <trkpt lat="47.49839" lon="6.75686">
        <ele>359</ele>
        <time>2015-05-08T07:23:13.000Z</time>
      </trkpt>
      <trkpt lat="47.4983" lon="6.75693">
        <ele>352</ele>
        <time>2015-05-08T07:23:14.000Z</time>
      </trkpt>
      <trkpt lat="47.49823" lon="6.75692">
        <ele>352</ele>
        <time>2015-05-08T07:23:14.999Z</time>
      </trkpt>
      <trkpt lat="47.49802" lon="6.75693">
        <ele>351</ele>
        <time>2015-05-08T07:23:16.000Z</time>
      </trkpt>
      <trkpt lat="47.49792" lon="6.75695">
        <ele>350</ele>
        <time>2015-05-08T07:23:17.000Z</time>
      </trkpt>
      <trkpt lat="47.49781" lon="6.75704">
        <ele>349</ele>
        <time>2015-05-08T07:23:18.000Z</time>
      </trkpt>
      <trkpt lat="47.4977" lon="6.75706">
        <ele>349</ele>
        <time>2015-05-08T07:23:19.000Z</time>
      </trkpt>
      <trkpt lat="47.49758" lon="6.75713">
        <ele>349</ele>
        <time>2015-05-08T07:23:20.000Z</time>
      </trkpt>
      <trkpt lat="47.49746" lon="6.75722">
        <ele>343</ele>
        <time>2015-05-08T07:23:21.000Z</time>
      </trkpt>
      <trkpt lat="47.49737" lon="6.75728">
        <ele>344</ele>
        <time>2015-05-08T07:23:22.000Z</time>
      </trkpt>
      <trkpt lat="47.49727" lon="6.75732">
        <ele>343</ele>
        <time>2015-05-08T07:23:23.000Z</time>
      </trkpt>
      <trkpt lat="47.49717" lon="6.75736">
        <ele>343</ele>
        <time>2015-05-08T07:23:24.000Z</time>
      </trkpt>
      <trkpt lat="47.49708" lon="6.7574">
        <ele>342</ele>
        <time>2015-05-08T07:23:25.000Z</time>
      </trkpt>
      <trkpt lat="47.49701" lon="6.75741">
        <ele>342</ele>
        <time>2015-05-08T07:23:26.000Z</time>
      </trkpt>
      <trkpt lat="47.4969" lon="6.75745">
        <ele>342</ele>
        <time>2015-05-08T07:23:27.000Z</time>
      </trkpt>
      <trkpt lat="47.49682" lon="6.75748">
        <ele>342</ele>
        <time>2015-05-08T07:23:28.000Z</time>
      </trkpt>
      <trkpt lat="47.49676" lon="6.75748">
        <ele>343</ele>
        <time>2015-05-08T07:23:29.000Z</time>
      </trkpt>
      <trkpt lat="47.49668" lon="6.75744">
        <ele>343</ele>
        <time>2015-05-08T07:23:30.000Z</time>
      </trkpt>
      <trkpt lat="47.4966" lon="6.75742">
        <ele>340</ele>
        <time>2015-05-08T07:23:31.000Z</time>
      </trkpt>
      <trkpt lat="47.49653" lon="6.75742">
        <ele>338</ele>
        <time>2015-05-08T07:23:32.000Z</time>
      </trkpt>
      <trkpt lat="47.49649" lon="6.75739">
        <ele>337</ele>
        <time>2015-05-08T07:23:33.000Z</time>
      </trkpt>
      <trkpt lat="47.49642" lon="6.75739">
        <ele>336</ele>
        <time>2015-05-08T07:23:34.000Z</time>
      </trkpt>
      <trkpt lat="47.49634" lon="6.75738">
        <ele>335</ele>
        <time>2015-05-08T07:23:35.000Z</time>
      </trkpt>
      <trkpt lat="47.49627" lon="6.75736">
        <ele>334</ele>
        <time>2015-05-08T07:23:36.000Z</time>
      </trkpt>
      <trkpt lat="47.49621" lon="6.75734">
        <ele>333</ele>
        <time>2015-05-08T07:23:37.000Z</time>
      </trkpt>
      <trkpt lat="47.49616" lon="6.75733">
        <ele>333</ele>
        <time>2015-05-08T07:23:38.000Z</time>
      </trkpt>
      <trkpt lat="47.49608" lon="6.75736">
        <ele>333</ele>
        <time>2015-05-08T07:23:39.000Z</time>
      </trkpt>
      <trkpt lat="47.49601" lon="6.75739">
        <ele>333</ele>
        <time>2015-05-08T07:23:40.000Z</time>
      </trkpt>
      <trkpt lat="47.49595" lon="6.75739">
        <ele>333</ele>
        <time>2015-05-08T07:23:41.000Z</time>
      </trkpt>
      <trkpt lat="47.49589" lon="6.75737">
        <ele>333</ele>
        <time>2015-05-08T07:23:42.000Z</time>
      </trkpt>
      <trkpt lat="47.49584" lon="6.75733">
        <ele>333</ele>
        <time>2015-05-08T07:23:43.000Z</time>
      </trkpt>
      <trkpt lat="47.49581" lon="6.75728">
        <ele>329</ele>
        <time>2015-05-08T07:23:44.000Z</time>
      </trkpt>
      <trkpt lat="47.49578" lon="6.75724">
        <ele>328</ele>
        <time>2015-05-08T07:23:45.000Z</time>
      </trkpt>
      <trkpt lat="47.49576" lon="6.75728">
        <ele>328</ele>
        <time>2015-05-08T07:23:47.000Z</time>
      </trkpt>
      <trkpt lat="47.49574" lon="6.75733">
        <ele>329</ele>
        <time>2015-05-08T07:23:48.000Z</time>
      </trkpt>
      <trkpt lat="47.49577" lon="6.75734">
        <ele>329</ele>
        <time>2015-05-08T07:23:52.000Z</time>
      </trkpt>
      <trkpt lat="47.49579" lon="6.75733">
        <ele>329</ele>
        <time>2015-05-08T07:23:53.000Z</time>
      </trkpt>
      <trkpt lat="47.49582" lon="6.75733">
        <ele>329</ele>
        <time>2015-05-08T07:23:55.000Z</time>
      </trkpt>
      <trkpt lat="47.49584" lon="6.75732">
        <ele>332</ele>
        <time>2015-05-08T07:23:56.000Z</time>
      </trkpt>
      <trkpt lat="47.49588" lon="6.75731">
        <ele>332</ele>
        <time>2015-05-08T07:23:58.000Z</time>
      </trkpt>
      <trkpt lat="47.4959" lon="6.75728">
        <ele>332</ele>
        <time>2015-05-08T07:23:59.000Z</time>
      </trkpt>
      <trkpt lat="47.49592" lon="6.75724">
        <ele>332</ele>
        <time>2015-05-08T07:24:00.000Z</time>
      </trkpt>
      <trkpt lat="47.49595" lon="6.7572">
        <ele>331</ele>
        <time>2015-05-08T07:24:01.000Z</time>
      </trkpt>
      <trkpt lat="47.49598" lon="6.75715">
        <ele>331</ele>
        <time>2015-05-08T07:24:02.000Z</time>
      </trkpt>
      <trkpt lat="47.496" lon="6.75709">
        <ele>331</ele>
        <time>2015-05-08T07:24:03.000Z</time>
      </trkpt>
      <trkpt lat="47.49596" lon="6.75693">
        <ele>328</ele>
        <time>2015-05-08T07:24:04.000Z</time>
      </trkpt>
      <trkpt lat="47.49593" lon="6.75685">
        <ele>327</ele>
        <time>2015-05-08T07:24:05.000Z</time>
      </trkpt>
      <trkpt lat="47.4959" lon="6.7568">
        <ele>326</ele>
        <time>2015-05-08T07:24:06.000Z</time>
      </trkpt>
      <trkpt lat="47.49588" lon="6.75675">
        <ele>324</ele>
        <time>2015-05-08T07:24:07.000Z</time>
      </trkpt>
      <trkpt lat="47.49586" lon="6.75669">
        <ele>322</ele>
        <time>2015-05-08T07:24:08.000Z</time>
      </trkpt>
      <trkpt lat="47.49582" lon="6.75664">
        <ele>321</ele>
        <time>2015-05-08T07:24:09.000Z</time>
      </trkpt>
      <trkpt lat="47.49577" lon="6.7566">
        <ele>321</ele>
        <time>2015-05-08T07:24:10.000Z</time>
      </trkpt>
      <trkpt lat="47.49572" lon="6.75661">
        <ele>321</ele>
        <time>2015-05-08T07:24:11.000Z</time>
      </trkpt>
      <trkpt lat="47.49567" lon="6.75664">
        <ele>321</ele>
        <time>2015-05-08T07:24:12.000Z</time>
      </trkpt>
      <trkpt lat="47.49564" lon="6.75669">
        <ele>323</ele>
        <time>2015-05-08T07:24:13.000Z</time>
      </trkpt>
      <trkpt lat="47.49561" lon="6.75674">
        <ele>323</ele>
        <time>2015-05-08T07:24:14.000Z</time>
      </trkpt>
      <trkpt lat="47.49557" lon="6.75679">
        <ele>324</ele>
        <time>2015-05-08T07:24:15.000Z</time>
      </trkpt>
      <trkpt lat="47.49554" lon="6.75683">
        <ele>324</ele>
        <time>2015-05-08T07:24:16.000Z</time>
      </trkpt>
      <trkpt lat="47.4955" lon="6.75688">
        <ele>324</ele>
        <time>2015-05-08T07:24:17.000Z</time>
      </trkpt>
      <trkpt lat="47.49546" lon="6.75692">
        <ele>324</ele>
        <time>2015-05-08T07:24:18.000Z</time>
      </trkpt>
      <trkpt lat="47.49542" lon="6.75696">
        <ele>324</ele>
        <time>2015-05-08T07:24:19.000Z</time>
      </trkpt>
      <trkpt lat="47.49537" lon="6.75699">
        <ele>324</ele>
        <time>2015-05-08T07:24:20.000Z</time>
      </trkpt>
      <trkpt lat="47.49534" lon="6.75704">
        <ele>325</ele>
        <time>2015-05-08T07:24:21.000Z</time>
      </trkpt>
      <trkpt lat="47.4953" lon="6.75709">
        <ele>325</ele>
        <time>2015-05-08T07:24:22.000Z</time>
      </trkpt>
      <trkpt lat="47.49526" lon="6.75711">
        <ele>325</ele>
        <time>2015-05-08T07:24:23.000Z</time>
      </trkpt>
      <trkpt lat="47.49522" lon="6.75715">
        <ele>325</ele>
        <time>2015-05-08T07:24:24.000Z</time>
      </trkpt>
      <trkpt lat="47.49517" lon="6.75718">
        <ele>325</ele>
        <time>2015-05-08T07:24:25.000Z</time>
      </trkpt>
      <trkpt lat="47.49513" lon="6.75718">
        <ele>325</ele>
        <time>2015-05-08T07:24:26.000Z</time>
      </trkpt>
      <trkpt lat="47.49509" lon="6.75722">
        <ele>325</ele>
        <time>2015-05-08T07:24:27.000Z</time>
      </trkpt>
      <trkpt lat="47.49504" lon="6.75725">
        <ele>324</ele>
        <time>2015-05-08T07:24:28.000Z</time>
      </trkpt>
      <trkpt lat="47.49499" lon="6.75727">
        <ele>322</ele>
        <time>2015-05-08T07:24:29.000Z</time>
      </trkpt>
      <trkpt lat="47.49495" lon="6.7573">
        <ele>322</ele>
        <time>2015-05-08T07:24:30.000Z</time>
      </trkpt>
      <trkpt lat="47.4949" lon="6.7573">
        <ele>322</ele>
        <time>2015-05-08T07:24:31.000Z</time>
      </trkpt>
      <trkpt lat="47.49486" lon="6.7573">
        <ele>322</ele>
        <time>2015-05-08T07:24:32.000Z</time>
      </trkpt>
      <trkpt lat="47.49482" lon="6.75728">
        <ele>322</ele>
        <time>2015-05-08T07:24:33.000Z</time>
      </trkpt>
      <trkpt lat="47.4948" lon="6.7572">
        <ele>322</ele>
        <time>2015-05-08T07:24:34.000Z</time>
      </trkpt>
      <trkpt lat="47.49478" lon="6.75713">
        <ele>321</ele>
        <time>2015-05-08T07:24:35.000Z</time>
      </trkpt>
      <trkpt lat="47.49477" lon="6.75706">
        <ele>321</ele>
        <time>2015-05-08T07:24:36.000Z</time>
      </trkpt>
      <trkpt lat="47.49473" lon="6.75703">
        <ele>321</ele>
        <time>2015-05-08T07:24:37.000Z</time>
      </trkpt>
      <trkpt lat="47.49471" lon="6.75698">
        <ele>321</ele>
        <time>2015-05-08T07:24:38.000Z</time>
      </trkpt>
      <trkpt lat="47.49469" lon="6.75692">
        <ele>321</ele>
        <time>2015-05-08T07:24:39.000Z</time>
      </trkpt>
      <trkpt lat="47.49464" lon="6.75688">
        <ele>321</ele>
        <time>2015-05-08T07:24:40.000Z</time>
      </trkpt>
      <trkpt lat="47.49459" lon="6.75687">
        <ele>321</ele>
        <time>2015-05-08T07:24:41.000Z</time>
      </trkpt>
      <trkpt lat="47.49455" lon="6.75689">
        <ele>321</ele>
        <time>2015-05-08T07:24:42.000Z</time>
      </trkpt>
      <trkpt lat="47.49451" lon="6.75691">
        <ele>321</ele>
        <time>2015-05-08T07:24:43.000Z</time>
      </trkpt>
      <trkpt lat="47.49447" lon="6.75693">
        <ele>321</ele>
        <time>2015-05-08T07:24:44.000Z</time>
      </trkpt>
      <trkpt lat="47.49443" lon="6.75692">
        <ele>321</ele>
        <time>2015-05-08T07:24:45.000Z</time>
      </trkpt>
      <trkpt lat="47.49441" lon="6.7569">
        <ele>320</ele>
        <time>2015-05-08T07:24:46.000Z</time>
      </trkpt>
      <trkpt lat="47.49439" lon="6.75687">
        <ele>320</ele>
        <time>2015-05-08T07:24:47.000Z</time>
      </trkpt>
      <trkpt lat="47.49437" lon="6.75683">
        <ele>320</ele>
        <time>2015-05-08T07:24:48.000Z</time>
      </trkpt>
      <trkpt lat="47.49434" lon="6.7568">
        <ele>320</ele>
        <time>2015-05-08T07:24:49.000Z</time>
      </trkpt>
      <trkpt lat="47.49432" lon="6.75676">
        <ele>320</ele>
        <time>2015-05-08T07:24:50.000Z</time>
      </trkpt>
      <trkpt lat="47.49427" lon="6.7567">
        <ele>320</ele>
        <time>2015-05-08T07:24:51.000Z</time>
      </trkpt>
      <trkpt lat="47.49425" lon="6.75666">
        <ele>319</ele>
        <time>2015-05-08T07:24:52.000Z</time>
      </trkpt>
      <trkpt lat="47.49423" lon="6.75663">
        <ele>319</ele>
        <time>2015-05-08T07:24:53.000Z</time>
      </trkpt>
      <trkpt lat="47.49421" lon="6.75665">
        <ele>319</ele>
        <time>2015-05-08T07:24:54.000Z</time>
      </trkpt>
      <trkpt lat="47.49419" lon="6.75666">
        <ele>319</ele>
        <time>2015-05-08T07:24:55.000Z</time>
      </trkpt>
      <trkpt lat="47.49415" lon="6.75669">
        <ele>319</ele>
        <time>2015-05-08T07:24:56.000Z</time>
      </trkpt>
      <trkpt lat="47.49411" lon="6.7567">
        <ele>319</ele>
        <time>2015-05-08T07:24:57.000Z</time>
      </trkpt>
      <trkpt lat="47.49408" lon="6.75671">
        <ele>319</ele>
        <time>2015-05-08T07:24:58.000Z</time>
      </trkpt>
      <trkpt lat="47.49403" lon="6.75674">
        <ele>319</ele>
        <time>2015-05-08T07:24:59.000Z</time>
      </trkpt>
      <trkpt lat="47.494" lon="6.75675">
        <ele>319</ele>
        <time>2015-05-08T07:25:00.000Z</time>
      </trkpt>
      <trkpt lat="47.49397" lon="6.75684">
        <ele>319</ele>
        <time>2015-05-08T07:25:01.000Z</time>
      </trkpt>
      <trkpt lat="47.49393" lon="6.75686">
        <ele>319</ele>
        <time>2015-05-08T07:25:02.000Z</time>
      </trkpt>
      <trkpt lat="47.49388" lon="6.75689">
        <ele>319</ele>
        <time>2015-05-08T07:25:03.000Z</time>
      </trkpt>
      <trkpt lat="47.49384" lon="6.75689">
        <ele>319</ele>
        <time>2015-05-08T07:25:05.000Z</time>
      </trkpt>
      <trkpt lat="47.49381" lon="6.7569">
        <ele>319</ele>
        <time>2015-05-08T07:25:06.000Z</time>
      </trkpt>
      <trkpt lat="47.49379" lon="6.75691">
        <ele>319</ele>
        <time>2015-05-08T07:25:07.000Z</time>
      </trkpt>
      <trkpt lat="47.49376" lon="6.75693">
        <ele>319</ele>
        <time>2015-05-08T07:25:08.000Z</time>
      </trkpt>
      <trkpt lat="47.49373" lon="6.75694">
        <ele>319</ele>
        <time>2015-05-08T07:25:09.000Z</time>
      </trkpt>
      <trkpt lat="47.49371" lon="6.75699">
        <ele>319</ele>
        <time>2015-05-08T07:25:10.000Z</time>
      </trkpt>
      <trkpt lat="47.49368" lon="6.75699">
        <ele>319</ele>
        <time>2015-05-08T07:25:11.000Z</time>
      </trkpt>
      <trkpt lat="47.49364" lon="6.757">
        <ele>319</ele>
        <time>2015-05-08T07:25:13.000Z</time>
      </trkpt>
      <trkpt lat="47.49361" lon="6.75701">
        <ele>319</ele>
        <time>2015-05-08T07:25:15.000Z</time>
      </trkpt>
      <trkpt lat="47.49358" lon="6.75703">
        <ele>319</ele>
        <time>2015-05-08T07:25:16.000Z</time>
      </trkpt>
      <trkpt lat="47.49351" lon="6.75707">
        <ele>319</ele>
        <time>2015-05-08T07:25:17.000Z</time>
      </trkpt>
      <trkpt lat="47.49346" lon="6.75712">
        <ele>319</ele>
        <time>2015-05-08T07:25:18.000Z</time>
      </trkpt>
      <trkpt lat="47.49342" lon="6.75717">
        <ele>318</ele>
        <time>2015-05-08T07:25:19.000Z</time>
      </trkpt>
      <trkpt lat="47.49335" lon="6.75718">
        <ele>318</ele>
        <time>2015-05-08T07:25:20.000Z</time>
      </trkpt>
      <trkpt lat="47.49329" lon="6.75722">
        <ele>319</ele>
        <time>2015-05-08T07:25:21.000Z</time>
      </trkpt>
      <trkpt lat="47.49325" lon="6.75725">
        <ele>319</ele>
        <time>2015-05-08T07:25:22.000Z</time>
      </trkpt>
      <trkpt lat="47.49321" lon="6.75728">
        <ele>319</ele>
        <time>2015-05-08T07:25:23.000Z</time>
      </trkpt>
      <trkpt lat="47.49318" lon="6.75731">
        <ele>319</ele>
        <time>2015-05-08T07:25:24.000Z</time>
      </trkpt>
      <trkpt lat="47.49313" lon="6.75732">
        <ele>319</ele>
        <time>2015-05-08T07:25:25.000Z</time>
      </trkpt>
      <trkpt lat="47.49309" lon="6.75733">
        <ele>319</ele>
        <time>2015-05-08T07:25:26.000Z</time>
      </trkpt>
      <trkpt lat="47.49305" lon="6.75738">
        <ele>319</ele>
        <time>2015-05-08T07:25:27.000Z</time>
      </trkpt>
      <trkpt lat="47.49302" lon="6.75742">
        <ele>319</ele>
        <time>2015-05-08T07:25:28.000Z</time>
      </trkpt>
      <trkpt lat="47.493" lon="6.75748">
        <ele>319</ele>
        <time>2015-05-08T07:25:29.000Z</time>
      </trkpt>
      <trkpt lat="47.49297" lon="6.75751">
        <ele>318</ele>
        <time>2015-05-08T07:25:30.000Z</time>
      </trkpt>
      <trkpt lat="47.49295" lon="6.75754">
        <ele>318</ele>
        <time>2015-05-08T07:25:31.000Z</time>
      </trkpt>
      <trkpt lat="47.49292" lon="6.75757">
        <ele>318</ele>
        <time>2015-05-08T07:25:32.000Z</time>
      </trkpt>
      <trkpt lat="47.49291" lon="6.7576">
        <ele>318</ele>
        <time>2015-05-08T07:25:33.000Z</time>
      </trkpt>
      <trkpt lat="47.49289" lon="6.75762">
        <ele>318</ele>
        <time>2015-05-08T07:25:34.000Z</time>
      </trkpt>
      <trkpt lat="47.49287" lon="6.75765">
        <ele>318</ele>
        <time>2015-05-08T07:25:35.000Z</time>
      </trkpt>
      <trkpt lat="47.49285" lon="6.75768">
        <ele>318</ele>
        <time>2015-05-08T07:25:36.000Z</time>
      </trkpt>
      <trkpt lat="47.49282" lon="6.75772">
        <ele>318</ele>
        <time>2015-05-08T07:25:37.000Z</time>
      </trkpt>
      <trkpt lat="47.49279" lon="6.75776">
        <ele>318</ele>
        <time>2015-05-08T07:25:38.000Z</time>
      </trkpt>
      <trkpt lat="47.49276" lon="6.7578">
        <ele>318</ele>
        <time>2015-05-08T07:25:39.000Z</time>
      </trkpt>
      <trkpt lat="47.49272" lon="6.75784">
        <ele>318</ele>
        <time>2015-05-08T07:25:40.000Z</time>
      </trkpt>
      <trkpt lat="47.49268" lon="6.75788">
        <ele>318</ele>
        <time>2015-05-08T07:25:41.000Z</time>
      </trkpt>
      <trkpt lat="47.49264" lon="6.75792">
        <ele>317</ele>
        <time>2015-05-08T07:25:42.000Z</time>
      </trkpt>
      <trkpt lat="47.49261" lon="6.75796">
        <ele>317</ele>
        <time>2015-05-08T07:25:43.000Z</time>
      </trkpt>
      <trkpt lat="47.49258" lon="6.758">
        <ele>317</ele>
        <time>2015-05-08T07:25:44.000Z</time>
      </trkpt>
      <trkpt lat="47.49255" lon="6.75805">
        <ele>317</ele>
        <time>2015-05-08T07:25:45.000Z</time>
      </trkpt>
      <trkpt lat="47.49253" lon="6.7581">
        <ele>316</ele>
        <time>2015-05-08T07:25:46.000Z</time>
      </trkpt>
      <trkpt lat="47.4925" lon="6.75815">
        <ele>316</ele>
        <time>2015-05-08T07:25:47.000Z</time>
      </trkpt>
      <trkpt lat="47.49248" lon="6.75821">
        <ele>317</ele>
        <time>2015-05-08T07:25:48.000Z</time>
      </trkpt>
      <trkpt lat="47.49245" lon="6.75826">
        <ele>316</ele>
        <time>2015-05-08T07:25:49.000Z</time>
      </trkpt>
      <trkpt lat="47.49243" lon="6.75832">
        <ele>316</ele>
        <time>2015-05-08T07:25:50.000Z</time>
      </trkpt>
      <trkpt lat="47.49241" lon="6.75837">
        <ele>315</ele>
        <time>2015-05-08T07:25:51.000Z</time>
      </trkpt>
      <trkpt lat="47.49238" lon="6.75842">
        <ele>316</ele>
        <time>2015-05-08T07:25:52.000Z</time>
      </trkpt>
      <trkpt lat="47.49236" lon="6.75847">
        <ele>317</ele>
        <time>2015-05-08T07:25:53.000Z</time>
      </trkpt>
      <trkpt lat="47.49234" lon="6.75851">
        <ele>317</ele>
        <time>2015-05-08T07:25:54.000Z</time>
      </trkpt>
      <trkpt lat="47.49232" lon="6.75855">
        <ele>318</ele>
        <time>2015-05-08T07:25:55.000Z</time>
      </trkpt>
      <trkpt lat="47.4923" lon="6.7586">
        <ele>318</ele>
        <time>2015-05-08T07:25:56.000Z</time>
      </trkpt>
      <trkpt lat="47.49228" lon="6.75865">
        <ele>318</ele>
        <time>2015-05-08T07:25:57.000Z</time>
      </trkpt>
      <trkpt lat="47.49226" lon="6.7587">
        <ele>318</ele>
        <time>2015-05-08T07:25:58.000Z</time>
      </trkpt>
      <trkpt lat="47.49224" lon="6.75874">
        <ele>319</ele>
        <time>2015-05-08T07:25:59.000Z</time>
      </trkpt>
      <trkpt lat="47.49222" lon="6.75879">
        <ele>319</ele>
        <time>2015-05-08T07:26:00.000Z</time>
      </trkpt>
      <trkpt lat="47.4922" lon="6.75883">
        <ele>319</ele>
        <time>2015-05-08T07:26:01.000Z</time>
      </trkpt>
      <trkpt lat="47.49219" lon="6.75888">
        <ele>319</ele>
        <time>2015-05-08T07:26:02.000Z</time>
      </trkpt>
      <trkpt lat="47.49216" lon="6.75893">
        <ele>319</ele>
        <time>2015-05-08T07:26:03.000Z</time>
      </trkpt>
      <trkpt lat="47.49213" lon="6.75898">
        <ele>319</ele>
        <time>2015-05-08T07:26:04.000Z</time>
      </trkpt>
      <trkpt lat="47.49211" lon="6.75903">
        <ele>319</ele>
        <time>2015-05-08T07:26:05.000Z</time>
      </trkpt>
      <trkpt lat="47.49208" lon="6.75907">
        <ele>320</ele>
        <time>2015-05-08T07:26:06.000Z</time>
      </trkpt>
      <trkpt lat="47.49206" lon="6.75911">
        <ele>320</ele>
        <time>2015-05-08T07:26:07.000Z</time>
      </trkpt>
      <trkpt lat="47.49204" lon="6.75916">
        <ele>320</ele>
        <time>2015-05-08T07:26:08.000Z</time>
      </trkpt>
      <trkpt lat="47.49202" lon="6.75922">
        <ele>320</ele>
        <time>2015-05-08T07:26:09.000Z</time>
      </trkpt>
      <trkpt lat="47.492" lon="6.75927">
        <ele>320</ele>
        <time>2015-05-08T07:26:10.000Z</time>
      </trkpt>
      <trkpt lat="47.49198" lon="6.75931">
        <ele>320</ele>
        <time>2015-05-08T07:26:11.000Z</time>
      </trkpt>
      <trkpt lat="47.49196" lon="6.75934">
        <ele>321</ele>
        <time>2015-05-08T07:26:12.000Z</time>
      </trkpt>
      <trkpt lat="47.49192" lon="6.75936">
        <ele>321</ele>
        <time>2015-05-08T07:26:14.000Z</time>
      </trkpt>
      <trkpt lat="47.49191" lon="6.75937">
        <ele>321</ele>
        <time>2015-05-08T07:26:15.000Z</time>
      </trkpt>
      <trkpt lat="47.49189" lon="6.7594">
        <ele>321</ele>
        <time>2015-05-08T07:26:16.000Z</time>
      </trkpt>
      <trkpt lat="47.49187" lon="6.75945">
        <ele>321</ele>
        <time>2015-05-08T07:26:17.000Z</time>
      </trkpt>
      <trkpt lat="47.49185" lon="6.75949">
        <ele>321</ele>
        <time>2015-05-08T07:26:18.000Z</time>
      </trkpt>
      <trkpt lat="47.49183" lon="6.75954">
        <ele>321</ele>
        <time>2015-05-08T07:26:19.000Z</time>
      </trkpt>
      <trkpt lat="47.49181" lon="6.75959">
        <ele>320</ele>
        <time>2015-05-08T07:26:20.000Z</time>
      </trkpt>
      <trkpt lat="47.4918" lon="6.75963">
        <ele>320</ele>
        <time>2015-05-08T07:26:21.000Z</time>
      </trkpt>
      <trkpt lat="47.49178" lon="6.75967">
        <ele>320</ele>
        <time>2015-05-08T07:26:22.000Z</time>
      </trkpt>
      <trkpt lat="47.49176" lon="6.75971">
        <ele>320</ele>
        <time>2015-05-08T07:26:23.000Z</time>
      </trkpt>
      <trkpt lat="47.49174" lon="6.75976">
        <ele>320</ele>
        <time>2015-05-08T07:26:24.000Z</time>
      </trkpt>
      <trkpt lat="47.49172" lon="6.7598">
        <ele>320</ele>
        <time>2015-05-08T07:26:25.000Z</time>
      </trkpt>
      <trkpt lat="47.49171" lon="6.75985">
        <ele>320</ele>
        <time>2015-05-08T07:26:26.000Z</time>
      </trkpt>
      <trkpt lat="47.49169" lon="6.7599">
        <ele>320</ele>
        <time>2015-05-08T07:26:27.000Z</time>
      </trkpt>
      <trkpt lat="47.49168" lon="6.75994">
        <ele>319</ele>
        <time>2015-05-08T07:26:28.000Z</time>
      </trkpt>
      <trkpt lat="47.49168" lon="6.75998">
        <ele>319</ele>
        <time>2015-05-08T07:26:29.000Z</time>
      </trkpt>
      <trkpt lat="47.49167" lon="6.76001">
        <ele>319</ele>
        <time>2015-05-08T07:26:30.000Z</time>
      </trkpt>
      <trkpt lat="47.49166" lon="6.76004">
        <ele>320</ele>
        <time>2015-05-08T07:26:31.000Z</time>
      </trkpt>
      <trkpt lat="47.49164" lon="6.76009">
        <ele>321</ele>
        <time>2015-05-08T07:26:32.000Z</time>
      </trkpt>
      <trkpt lat="47.49161" lon="6.76015">
        <ele>321</ele>
        <time>2015-05-08T07:26:33.000Z</time>
      </trkpt>
      <trkpt lat="47.49158" lon="6.76021">
        <ele>322</ele>
        <time>2015-05-08T07:26:34.000Z</time>
      </trkpt>
      <trkpt lat="47.49155" lon="6.76028">
        <ele>323</ele>
        <time>2015-05-08T07:26:35.000Z</time>
      </trkpt>
      <trkpt lat="47.49153" lon="6.76035">
        <ele>323</ele>
        <time>2015-05-08T07:26:36.000Z</time>
      </trkpt>
      <trkpt lat="47.49151" lon="6.76043">
        <ele>323</ele>
        <time>2015-05-08T07:26:37.000Z</time>
      </trkpt>
      <trkpt lat="47.49149" lon="6.7605">
        <ele>323</ele>
        <time>2015-05-08T07:26:38.000Z</time>
      </trkpt>
      <trkpt lat="47.49147" lon="6.76057">
        <ele>323</ele>
        <time>2015-05-08T07:26:39.000Z</time>
      </trkpt>
      <trkpt lat="47.49145" lon="6.76063">
        <ele>322</ele>
        <time>2015-05-08T07:26:40.000Z</time>
      </trkpt>
      <trkpt lat="47.49143" lon="6.7607">
        <ele>322</ele>
        <time>2015-05-08T07:26:41.000Z</time>
      </trkpt>
      <trkpt lat="47.49142" lon="6.76076">
        <ele>322</ele>
        <time>2015-05-08T07:26:42.000Z</time>
      </trkpt>
      <trkpt lat="47.4914" lon="6.76083">
        <ele>322</ele>
        <time>2015-05-08T07:26:43.000Z</time>
      </trkpt>
      <trkpt lat="47.49138" lon="6.76089">
        <ele>321</ele>
        <time>2015-05-08T07:26:44.000Z</time>
      </trkpt>
      <trkpt lat="47.49137" lon="6.76095">
        <ele>322</ele>
        <time>2015-05-08T07:26:45.000Z</time>
      </trkpt>
      <trkpt lat="47.49135" lon="6.76102">
        <ele>322</ele>
        <time>2015-05-08T07:26:46.000Z</time>
      </trkpt>
      <trkpt lat="47.49134" lon="6.76108">
        <ele>322</ele>
        <time>2015-05-08T07:26:47.000Z</time>
      </trkpt>
      <trkpt lat="47.49133" lon="6.76115">
        <ele>322</ele>
        <time>2015-05-08T07:26:48.000Z</time>
      </trkpt>
      <trkpt lat="47.49131" lon="6.7612">
        <ele>322</ele>
        <time>2015-05-08T07:26:49.000Z</time>
      </trkpt>
      <trkpt lat="47.4913" lon="6.76126">
        <ele>322</ele>
        <time>2015-05-08T07:26:50.000Z</time>
      </trkpt>
      <trkpt lat="47.49129" lon="6.76132">
        <ele>322</ele>
        <time>2015-05-08T07:26:51.000Z</time>
      </trkpt>
      <trkpt lat="47.49127" lon="6.76139">
        <ele>322</ele>
        <time>2015-05-08T07:26:52.000Z</time>
      </trkpt>
      <trkpt lat="47.49126" lon="6.76146">
        <ele>322</ele>
        <time>2015-05-08T07:26:53.000Z</time>
      </trkpt>
      <trkpt lat="47.49125" lon="6.76153">
        <ele>322</ele>
        <time>2015-05-08T07:26:54.000Z</time>
      </trkpt>
      <trkpt lat="47.49124" lon="6.76159">
        <ele>322</ele>
        <time>2015-05-08T07:26:55.000Z</time>
      </trkpt>
      <trkpt lat="47.49123" lon="6.76166">
        <ele>322</ele>
        <time>2015-05-08T07:26:56.000Z</time>
      </trkpt>
      <trkpt lat="47.49122" lon="6.76171">
        <ele>321</ele>
        <time>2015-05-08T07:26:57.000Z</time>
      </trkpt>
      <trkpt lat="47.49121" lon="6.76177">
        <ele>321</ele>
        <time>2015-05-08T07:26:58.000Z</time>
      </trkpt>
      <trkpt lat="47.4912" lon="6.76183">
        <ele>321</ele>
        <time>2015-05-08T07:26:59.000Z</time>
      </trkpt>
      <trkpt lat="47.49119" lon="6.76189">
        <ele>321</ele>
        <time>2015-05-08T07:27:00.000Z</time>
      </trkpt>
      <trkpt lat="47.49118" lon="6.76195">
        <ele>321</ele>
        <time>2015-05-08T07:27:01.000Z</time>
      </trkpt>
      <trkpt lat="47.49117" lon="6.762">
        <ele>321</ele>
        <time>2015-05-08T07:27:02.000Z</time>
      </trkpt>
      <trkpt lat="47.49116" lon="6.76206">
        <ele>321</ele>
        <time>2015-05-08T07:27:03.000Z</time>
      </trkpt>
      <trkpt lat="47.49115" lon="6.76213">
        <ele>321</ele>
        <time>2015-05-08T07:27:04.000Z</time>
      </trkpt>
      <trkpt lat="47.49115" lon="6.76219">
        <ele>321</ele>
        <time>2015-05-08T07:27:05.000Z</time>
      </trkpt>
      <trkpt lat="47.49115" lon="6.76226">
        <ele>321</ele>
        <time>2015-05-08T07:27:06.000Z</time>
      </trkpt>
      <trkpt lat="47.49115" lon="6.76232">
        <ele>322</ele>
        <time>2015-05-08T07:27:07.000Z</time>
      </trkpt>
      <trkpt lat="47.49115" lon="6.7624">
        <ele>322</ele>
        <time>2015-05-08T07:27:08.000Z</time>
      </trkpt>
      <trkpt lat="47.49115" lon="6.76247">
        <ele>322</ele>
        <time>2015-05-08T07:27:09.000Z</time>
      </trkpt>
      <trkpt lat="47.49115" lon="6.76255">
        <ele>321</ele>
        <time>2015-05-08T07:27:10.000Z</time>
      </trkpt>
      <trkpt lat="47.49115" lon="6.76263">
        <ele>321</ele>
        <time>2015-05-08T07:27:11.000Z</time>
      </trkpt>
      <trkpt lat="47.49115" lon="6.76271">
        <ele>320</ele>
        <time>2015-05-08T07:27:12.000Z</time>
      </trkpt>
      <trkpt lat="47.49115" lon="6.76278">
        <ele>320</ele>
        <time>2015-05-08T07:27:13.000Z</time>
      </trkpt>
      <trkpt lat="47.49114" lon="6.76285">
        <ele>320</ele>
        <time>2015-05-08T07:27:14.000Z</time>
      </trkpt>
      <trkpt lat="47.49114" lon="6.76292">
        <ele>320</ele>
        <time>2015-05-08T07:27:15.000Z</time>
      </trkpt>
      <trkpt lat="47.49113" lon="6.763">
        <ele>320</ele>
        <time>2015-05-08T07:27:16.000Z</time>
      </trkpt>
      <trkpt lat="47.49112" lon="6.76307">
        <ele>320</ele>
        <time>2015-05-08T07:27:17.000Z</time>
      </trkpt>
      <trkpt lat="47.4911" lon="6.76313">
        <ele>320</ele>
        <time>2015-05-08T07:27:18.000Z</time>
      </trkpt>
      <trkpt lat="47.49108" lon="6.7632">
        <ele>320</ele>
        <time>2015-05-08T07:27:19.000Z</time>
      </trkpt>
      <trkpt lat="47.49106" lon="6.76327">
        <ele>321</ele>
        <time>2015-05-08T07:27:20.000Z</time>
      </trkpt>
      <trkpt lat="47.49104" lon="6.76334">
        <ele>320</ele>
        <time>2015-05-08T07:27:21.000Z</time>
      </trkpt>
      <trkpt lat="47.49103" lon="6.76341">
        <ele>320</ele>
        <time>2015-05-08T07:27:22.000Z</time>
      </trkpt>
      <trkpt lat="47.49103" lon="6.76348">
        <ele>320</ele>
        <time>2015-05-08T07:27:23.000Z</time>
      </trkpt>
      <trkpt lat="47.49102" lon="6.76355">
        <ele>319</ele>
        <time>2015-05-08T07:27:24.000Z</time>
      </trkpt>
      <trkpt lat="47.49102" lon="6.76363">
        <ele>319</ele>
        <time>2015-05-08T07:27:25.000Z</time>
      </trkpt>
      <trkpt lat="47.49102" lon="6.7637">
        <ele>319</ele>
        <time>2015-05-08T07:27:26.000Z</time>
      </trkpt>
      <trkpt lat="47.49102" lon="6.76378">
        <ele>319</ele>
        <time>2015-05-08T07:27:27.000Z</time>
      </trkpt>
      <trkpt lat="47.49103" lon="6.76386">
        <ele>319</ele>
        <time>2015-05-08T07:27:28.000Z</time>
      </trkpt>
      <trkpt lat="47.49103" lon="6.76395">
        <ele>319</ele>
        <time>2015-05-08T07:27:29.000Z</time>
      </trkpt>
      <trkpt lat="47.49104" lon="6.76403">
        <ele>319</ele>
        <time>2015-05-08T07:27:30.000Z</time>
      </trkpt>
      <trkpt lat="47.49105" lon="6.76411">
        <ele>319</ele>
        <time>2015-05-08T07:27:31.000Z</time>
      </trkpt>
      <trkpt lat="47.49106" lon="6.76419">
        <ele>318</ele>
        <time>2015-05-08T07:27:32.000Z</time>
      </trkpt>
      <trkpt lat="47.49106" lon="6.76427">
        <ele>318</ele>
        <time>2015-05-08T07:27:33.000Z</time>
      </trkpt>
      <trkpt lat="47.49107" lon="6.76436">
        <ele>318</ele>
        <time>2015-05-08T07:27:34.000Z</time>
      </trkpt>
      <trkpt lat="47.49107" lon="6.76444">
        <ele>318</ele>
        <time>2015-05-08T07:27:35.000Z</time>
      </trkpt>
      <trkpt lat="47.49107" lon="6.76452">
        <ele>318</ele>
        <time>2015-05-08T07:27:36.000Z</time>
      </trkpt>
      <trkpt lat="47.49107" lon="6.76458">
        <ele>318</ele>
        <time>2015-05-08T07:27:36.999Z</time>
      </trkpt>
      <trkpt lat="47.49107" lon="6.76468">
        <ele>318</ele>
        <time>2015-05-08T07:27:38.000Z</time>
      </trkpt>
      <trkpt lat="47.49107" lon="6.76476">
        <ele>318</ele>
        <time>2015-05-08T07:27:39.000Z</time>
      </trkpt>
      <trkpt lat="47.49107" lon="6.76484">
        <ele>318</ele>
        <time>2015-05-08T07:27:40.000Z</time>
      </trkpt>
      <trkpt lat="47.49109" lon="6.76493">
        <ele>318</ele>
        <time>2015-05-08T07:27:41.000Z</time>
      </trkpt>
      <trkpt lat="47.49127" lon="6.76515">
        <ele>316</ele>
        <time>2015-05-08T07:27:42.000Z</time>
      </trkpt>
      <trkpt lat="47.49135" lon="6.76517">
        <ele>316</ele>
        <time>2015-05-08T07:27:43.000Z</time>
      </trkpt>
      <trkpt lat="47.49142" lon="6.76516">
        <ele>315</ele>
        <time>2015-05-08T07:27:44.000Z</time>
      </trkpt>
      <trkpt lat="47.49148" lon="6.76516">
        <ele>315</ele>
        <time>2015-05-08T07:27:45.000Z</time>
      </trkpt>
      <trkpt lat="47.49152" lon="6.76512">
        <ele>315</ele>
        <time>2015-05-08T07:27:46.000Z</time>
      </trkpt>
      <trkpt lat="47.49156" lon="6.7651">
        <ele>314</ele>
        <time>2015-05-08T07:27:47.000Z</time>
      </trkpt>
      <trkpt lat="47.4916" lon="6.76508">
        <ele>314</ele>
        <time>2015-05-08T07:27:48.000Z</time>
      </trkpt>
      <trkpt lat="47.49162" lon="6.76508">
        <ele>314</ele>
        <time>2015-05-08T07:27:49.000Z</time>
      </trkpt>
      <trkpt lat="47.49164" lon="6.76506">
        <ele>314</ele>
        <time>2015-05-08T07:27:50.000Z</time>
      </trkpt>
      <trkpt lat="47.49167" lon="6.76505">
        <ele>314</ele>
        <time>2015-05-08T07:27:52.000Z</time>
      </trkpt>
      <trkpt lat="47.49169" lon="6.76505">
        <ele>314</ele>
        <time>2015-05-08T07:27:53.000Z</time>
      </trkpt>
      <trkpt lat="47.49173" lon="6.76501">
        <ele>314</ele>
        <time>2015-05-08T07:27:55.000Z</time>
      </trkpt>
      <trkpt lat="47.49174" lon="6.765">
        <ele>314</ele>
        <time>2015-05-08T07:27:56.000Z</time>
      </trkpt>
      <trkpt lat="47.49178" lon="6.76497">
        <ele>315</ele>
        <time>2015-05-08T07:27:58.000Z</time>
      </trkpt>
      <trkpt lat="47.49179" lon="6.76497">
        <ele>315</ele>
        <time>2015-05-08T07:27:59.000Z</time>
      </trkpt>
      <trkpt lat="47.49182" lon="6.76494">
        <ele>315</ele>
        <time>2015-05-08T07:28:02.000Z</time>
      </trkpt>
      <trkpt lat="47.49183" lon="6.76492">
        <ele>316</ele>
        <time>2015-05-08T07:28:03.000Z</time>
      </trkpt>
      <trkpt lat="47.49178" lon="6.76492">
        <ele>315</ele>
        <time>2015-05-08T07:28:07.000Z</time>
      </trkpt>
      <trkpt lat="47.49178" lon="6.76492">
        <ele>315</ele>
        <time>2015-05-08T07:28:08.000Z</time>
      </trkpt>
      <trkpt lat="47.49182" lon="6.76492">
        <ele>316</ele>
        <time>2015-05-08T07:32:08.000Z</time>
      </trkpt>
      <trkpt lat="47.49182" lon="6.76492">
        <ele>316</ele>
        <time>2015-05-08T07:32:09.000Z</time>
      </trkpt>
      <trkpt lat="47.49184" lon="6.76496">
        <ele>316</ele>
        <time>2015-05-08T07:37:30.000Z</time>
      </trkpt>
      <trkpt lat="47.49183" lon="6.76498">
        <ele>315</ele>
        <time>2015-05-08T07:37:31.000Z</time>
      </trkpt>
      <trkpt lat="47.4918" lon="6.765">
        <ele>315</ele>
        <time>2015-05-08T07:37:33.000Z</time>
      </trkpt>
      <trkpt lat="47.49179" lon="6.765">
        <ele>315</ele>
        <time>2015-05-08T07:37:34.000Z</time>
      </trkpt>
      <trkpt lat="47.49174" lon="6.76502">
        <ele>314</ele>
        <time>2015-05-08T07:37:38.000Z</time>
      </trkpt>
      <trkpt lat="47.49174" lon="6.76502">
        <ele>314</ele>
        <time>2015-05-08T07:37:39.000Z</time>
      </trkpt>
      <trkpt lat="47.49171" lon="6.76505">
        <ele>314</ele>
        <time>2015-05-08T07:37:43.000Z</time>
      </trkpt>
      <trkpt lat="47.4917" lon="6.76506">
        <ele>314</ele>
        <time>2015-05-08T07:37:44.000Z</time>
      </trkpt>
      <trkpt lat="47.49167" lon="6.76507">
        <ele>314</ele>
        <time>2015-05-08T07:37:45.000Z</time>
      </trkpt>
      <trkpt lat="47.49159" lon="6.76511">
        <ele>314</ele>
        <time>2015-05-08T07:37:46.000Z</time>
      </trkpt>
      <trkpt lat="47.49155" lon="6.76515">
        <ele>315</ele>
        <time>2015-05-08T07:37:47.000Z</time>
      </trkpt>
      <trkpt lat="47.4915" lon="6.76519">
        <ele>315</ele>
        <time>2015-05-08T07:37:48.000Z</time>
      </trkpt>
      <trkpt lat="47.49144" lon="6.7652">
        <ele>315</ele>
        <time>2015-05-08T07:37:49.000Z</time>
      </trkpt>
      <trkpt lat="47.49139" lon="6.76521">
        <ele>315</ele>
        <time>2015-05-08T07:37:50.000Z</time>
      </trkpt>
      <trkpt lat="47.49134" lon="6.7652">
        <ele>316</ele>
        <time>2015-05-08T07:37:51.000Z</time>
      </trkpt>
      <trkpt lat="47.49129" lon="6.76518">
        <ele>316</ele>
        <time>2015-05-08T07:37:52.000Z</time>
      </trkpt>
      <trkpt lat="47.49126" lon="6.76513">
        <ele>316</ele>
        <time>2015-05-08T07:37:53.000Z</time>
      </trkpt>
      <trkpt lat="47.49125" lon="6.76508">
        <ele>316</ele>
        <time>2015-05-08T07:37:54.000Z</time>
      </trkpt>
      <trkpt lat="47.49124" lon="6.76504">
        <ele>316</ele>
        <time>2015-05-08T07:37:55.000Z</time>
      </trkpt>
      <trkpt lat="47.49124" lon="6.765">
        <ele>316</ele>
        <time>2015-05-08T07:37:56.000Z</time>
      </trkpt>
      <trkpt lat="47.49124" lon="6.76497">
        <ele>317</ele>
        <time>2015-05-08T07:37:57.000Z</time>
      </trkpt>
      <trkpt lat="47.49124" lon="6.76492">
        <ele>317</ele>
        <time>2015-05-08T07:37:59.000Z</time>
      </trkpt>
      <trkpt lat="47.49124" lon="6.76491">
        <ele>317</ele>
        <time>2015-05-08T07:38:00.000Z</time>
      </trkpt>
      <trkpt lat="47.49125" lon="6.76485">
        <ele>317</ele>
        <time>2015-05-08T07:38:04.000Z</time>
      </trkpt>
      <trkpt lat="47.49126" lon="6.76483">
        <ele>317</ele>
        <time>2015-05-08T07:38:05.000Z</time>
      </trkpt>
      <trkpt lat="47.49126" lon="6.76479">
        <ele>317</ele>
        <time>2015-05-08T07:38:07.000Z</time>
      </trkpt>
      <trkpt lat="47.49127" lon="6.76476">
        <ele>317</ele>
        <time>2015-05-08T07:38:08.000Z</time>
      </trkpt>
      <trkpt lat="47.49127" lon="6.7647">
        <ele>317</ele>
        <time>2015-05-08T07:38:10.000Z</time>
      </trkpt>
      <trkpt lat="47.49127" lon="6.76466">
        <ele>317</ele>
        <time>2015-05-08T07:38:11.000Z</time>
      </trkpt>
      <trkpt lat="47.49128" lon="6.7646">
        <ele>317</ele>
        <time>2015-05-08T07:38:13.000Z</time>
      </trkpt>
      <trkpt lat="47.49128" lon="6.76458">
        <ele>317</ele>
        <time>2015-05-08T07:38:14.000Z</time>
      </trkpt>
      <trkpt lat="47.49128" lon="6.76452">
        <ele>317</ele>
        <time>2015-05-08T07:38:16.000Z</time>
      </trkpt>
      <trkpt lat="47.49127" lon="6.76449">
        <ele>317</ele>
        <time>2015-05-08T07:38:17.000Z</time>
      </trkpt>
      <trkpt lat="47.49127" lon="6.76446">
        <ele>317</ele>
        <time>2015-05-08T07:38:18.000Z</time>
      </trkpt>
      <trkpt lat="47.49127" lon="6.76441">
        <ele>317</ele>
        <time>2015-05-08T07:38:19.000Z</time>
      </trkpt>
      <trkpt lat="47.49127" lon="6.76437">
        <ele>317</ele>
        <time>2015-05-08T07:38:20.000Z</time>
      </trkpt>
      <trkpt lat="47.49126" lon="6.76432">
        <ele>317</ele>
        <time>2015-05-08T07:38:21.000Z</time>
      </trkpt>
      <trkpt lat="47.49122" lon="6.7643">
        <ele>317</ele>
        <time>2015-05-08T07:38:23.000Z</time>
      </trkpt>
      <trkpt lat="47.4912" lon="6.7643">
        <ele>317</ele>
        <time>2015-05-08T07:38:24.000Z</time>
      </trkpt>
      <trkpt lat="47.49118" lon="6.76428">
        <ele>317</ele>
        <time>2015-05-08T07:38:30.000Z</time>
      </trkpt>
      <trkpt lat="47.49116" lon="6.76428">
        <ele>318</ele>
        <time>2015-05-08T07:38:31.000Z</time>
      </trkpt>
      <trkpt lat="47.49114" lon="6.76428">
        <ele>318</ele>
        <time>2015-05-08T07:38:32.000Z</time>
      </trkpt>
      <trkpt lat="47.49111" lon="6.76427">
        <ele>318</ele>
        <time>2015-05-08T07:38:33.000Z</time>
      </trkpt>
      <trkpt lat="47.49109" lon="6.76426">
        <ele>318</ele>
        <time>2015-05-08T07:38:34.000Z</time>
      </trkpt>
      <trkpt lat="47.49107" lon="6.76424">
        <ele>318</ele>
        <time>2015-05-08T07:38:35.000Z</time>
      </trkpt>
      <trkpt lat="47.49105" lon="6.76422">
        <ele>318</ele>
        <time>2015-05-08T07:38:36.000Z</time>
      </trkpt>
      <trkpt lat="47.49103" lon="6.7642">
        <ele>319</ele>
        <time>2015-05-08T07:38:37.000Z</time>
      </trkpt>
      <trkpt lat="47.49101" lon="6.76415">
        <ele>319</ele>
        <time>2015-05-08T07:38:39.000Z</time>
      </trkpt>
      <trkpt lat="47.491" lon="6.76412">
        <ele>319</ele>
        <time>2015-05-08T07:38:40.000Z</time>
      </trkpt>
      <trkpt lat="47.49099" lon="6.76409">
        <ele>319</ele>
        <time>2015-05-08T07:38:41.000Z</time>
      </trkpt>
      <trkpt lat="47.49098" lon="6.76405">
        <ele>319</ele>
        <time>2015-05-08T07:38:42.000Z</time>
      </trkpt>
      <trkpt lat="47.49097" lon="6.76402">
        <ele>319</ele>
        <time>2015-05-08T07:38:43.000Z</time>
      </trkpt>
      <trkpt lat="47.49096" lon="6.76398">
        <ele>319</ele>
        <time>2015-05-08T07:38:44.000Z</time>
      </trkpt>
      <trkpt lat="47.49095" lon="6.76395">
        <ele>319</ele>
        <time>2015-05-08T07:38:45.000Z</time>
      </trkpt>
      <trkpt lat="47.49094" lon="6.76391">
        <ele>319</ele>
        <time>2015-05-08T07:38:46.000Z</time>
      </trkpt>
      <trkpt lat="47.49093" lon="6.76388">
        <ele>319</ele>
        <time>2015-05-08T07:38:47.000Z</time>
      </trkpt>
      <trkpt lat="47.49092" lon="6.76384">
        <ele>319</ele>
        <time>2015-05-08T07:38:48.000Z</time>
      </trkpt>
      <trkpt lat="47.4909" lon="6.7638">
        <ele>319</ele>
        <time>2015-05-08T07:38:49.000Z</time>
      </trkpt>
      <trkpt lat="47.49087" lon="6.76376">
        <ele>319</ele>
        <time>2015-05-08T07:38:50.000Z</time>
      </trkpt>
      <trkpt lat="47.49085" lon="6.76372">
        <ele>319</ele>
        <time>2015-05-08T07:38:51.000Z</time>
      </trkpt>
      <trkpt lat="47.49083" lon="6.76368">
        <ele>332</ele>
        <time>2015-05-08T07:38:52.000Z</time>
      </trkpt>
      <trkpt lat="47.49079" lon="6.76365">
        <ele>332</ele>
        <time>2015-05-08T07:38:55.000Z</time>
      </trkpt>
      <trkpt lat="47.49078" lon="6.76363">
        <ele>332</ele>
        <time>2015-05-08T07:38:56.000Z</time>
      </trkpt>
      <trkpt lat="47.49076" lon="6.76358">
        <ele>332</ele>
        <time>2015-05-08T07:39:00.000Z</time>
      </trkpt>
      <trkpt lat="47.49075" lon="6.76357">
        <ele>332</ele>
        <time>2015-05-08T07:39:01.000Z</time>
      </trkpt>
      <trkpt lat="47.49072" lon="6.76352">
        <ele>332</ele>
        <time>2015-05-08T07:39:04.000Z</time>
      </trkpt>
      <trkpt lat="47.49071" lon="6.76351">
        <ele>332</ele>
        <time>2015-05-08T07:39:05.000Z</time>
      </trkpt>
      <trkpt lat="47.49071" lon="6.76346">
        <ele>331</ele>
        <time>2015-05-08T07:39:08.000Z</time>
      </trkpt>
      <trkpt lat="47.49071" lon="6.76344">
        <ele>330</ele>
        <time>2015-05-08T07:39:09.000Z</time>
      </trkpt>
      <trkpt lat="47.49071" lon="6.76337">
        <ele>329</ele>
        <time>2015-05-08T07:39:13.000Z</time>
      </trkpt>
      <trkpt lat="47.49071" lon="6.76336">
        <ele>329</ele>
        <time>2015-05-08T07:39:14.000Z</time>
      </trkpt>
      <trkpt lat="47.49071" lon="6.7633">
        <ele>330</ele>
        <time>2015-05-08T07:39:20.000Z</time>
      </trkpt>
      <trkpt lat="47.4907" lon="6.76328">
        <ele>331</ele>
        <time>2015-05-08T07:39:21.000Z</time>
      </trkpt>
      <trkpt lat="47.49068" lon="6.76323">
        <ele>332</ele>
        <time>2015-05-08T07:39:24.000Z</time>
      </trkpt>
      <trkpt lat="47.49067" lon="6.76321">
        <ele>333</ele>
        <time>2015-05-08T07:39:25.000Z</time>
      </trkpt>
      <trkpt lat="47.49065" lon="6.76317">
        <ele>334</ele>
        <time>2015-05-08T07:39:27.000Z</time>
      </trkpt>
      <trkpt lat="47.49065" lon="6.76314">
        <ele>334</ele>
        <time>2015-05-08T07:39:28.000Z</time>
      </trkpt>
      <trkpt lat="47.49065" lon="6.7631">
        <ele>335</ele>
        <time>2015-05-08T07:39:29.000Z</time>
      </trkpt>
      <trkpt lat="47.49064" lon="6.76307">
        <ele>335</ele>
        <time>2015-05-08T07:39:30.000Z</time>
      </trkpt>
      <trkpt lat="47.49063" lon="6.76303">
        <ele>336</ele>
        <time>2015-05-08T07:39:31.000Z</time>
      </trkpt>
      <trkpt lat="47.49061" lon="6.76298">
        <ele>336</ele>
        <time>2015-05-08T07:39:32.000Z</time>
      </trkpt>
      <trkpt lat="47.49059" lon="6.76294">
        <ele>337</ele>
        <time>2015-05-08T07:39:33.000Z</time>
      </trkpt>
      <trkpt lat="47.49057" lon="6.7629">
        <ele>337</ele>
        <time>2015-05-08T07:39:34.000Z</time>
      </trkpt>
      <trkpt lat="47.49056" lon="6.76286">
        <ele>337</ele>
        <time>2015-05-08T07:39:35.000Z</time>
      </trkpt>
      <trkpt lat="47.49057" lon="6.76283">
        <ele>337</ele>
        <time>2015-05-08T07:39:36.000Z</time>
      </trkpt>
      <trkpt lat="47.49057" lon="6.76277">
        <ele>337</ele>
        <time>2015-05-08T07:39:38.000Z</time>
      </trkpt>
      <trkpt lat="47.49057" lon="6.76275">
        <ele>337</ele>
        <time>2015-05-08T07:39:39.000Z</time>
      </trkpt>
      <trkpt lat="47.49056" lon="6.7627">
        <ele>337</ele>
        <time>2015-05-08T07:39:41.000Z</time>
      </trkpt>
      <trkpt lat="47.49056" lon="6.76268">
        <ele>337</ele>
        <time>2015-05-08T07:39:42.000Z</time>
      </trkpt>
      <trkpt lat="47.49055" lon="6.76261">
        <ele>337</ele>
        <time>2015-05-08T07:39:44.000Z</time>
      </trkpt>
      <trkpt lat="47.49055" lon="6.76258">
        <ele>337</ele>
        <time>2015-05-08T07:39:45.000Z</time>
      </trkpt>
      <trkpt lat="47.49054" lon="6.76254">
        <ele>337</ele>
        <time>2015-05-08T07:39:46.000Z</time>
      </trkpt>
      <trkpt lat="47.49053" lon="6.7625">
        <ele>338</ele>
        <time>2015-05-08T07:39:47.000Z</time>
      </trkpt>
      <trkpt lat="47.49053" lon="6.76246">
        <ele>338</ele>
        <time>2015-05-08T07:39:48.000Z</time>
      </trkpt>
      <trkpt lat="47.49052" lon="6.76242">
        <ele>339</ele>
        <time>2015-05-08T07:39:49.000Z</time>
      </trkpt>
      <trkpt lat="47.49052" lon="6.76239">
        <ele>339</ele>
        <time>2015-05-08T07:39:50.000Z</time>
      </trkpt>
      <trkpt lat="47.49051" lon="6.76235">
        <ele>339</ele>
        <time>2015-05-08T07:39:51.000Z</time>
      </trkpt>
      <trkpt lat="47.49051" lon="6.76231">
        <ele>339</ele>
        <time>2015-05-08T07:39:52.000Z</time>
      </trkpt>
      <trkpt lat="47.49051" lon="6.76227">
        <ele>340</ele>
        <time>2015-05-08T07:39:53.000Z</time>
      </trkpt>
      <trkpt lat="47.4905" lon="6.76221">
        <ele>340</ele>
        <time>2015-05-08T07:39:55.000Z</time>
      </trkpt>
      <trkpt lat="47.4905" lon="6.76217">
        <ele>340</ele>
        <time>2015-05-08T07:39:56.000Z</time>
      </trkpt>
      <trkpt lat="47.4905" lon="6.76213">
        <ele>340</ele>
        <time>2015-05-08T07:39:57.000Z</time>
      </trkpt>
      <trkpt lat="47.4905" lon="6.7621">
        <ele>340</ele>
        <time>2015-05-08T07:39:58.000Z</time>
      </trkpt>
      <trkpt lat="47.49049" lon="6.76205">
        <ele>340</ele>
        <time>2015-05-08T07:39:59.000Z</time>
      </trkpt>
      <trkpt lat="47.49049" lon="6.76201">
        <ele>340</ele>
        <time>2015-05-08T07:40:00.000Z</time>
      </trkpt>
      <trkpt lat="47.49049" lon="6.76197">
        <ele>340</ele>
        <time>2015-05-08T07:40:01.000Z</time>
      </trkpt>
      <trkpt lat="47.49049" lon="6.76192">
        <ele>340</ele>
        <time>2015-05-08T07:40:02.000Z</time>
      </trkpt>
      <trkpt lat="47.49049" lon="6.76187">
        <ele>340</ele>
        <time>2015-05-08T07:40:03.000Z</time>
      </trkpt>
      <trkpt lat="47.49049" lon="6.76183">
        <ele>340</ele>
        <time>2015-05-08T07:40:04.000Z</time>
      </trkpt>
      <trkpt lat="47.4905" lon="6.76178">
        <ele>339</ele>
        <time>2015-05-08T07:40:05.000Z</time>
      </trkpt>
      <trkpt lat="47.4905" lon="6.76173">
        <ele>339</ele>
        <time>2015-05-08T07:40:06.000Z</time>
      </trkpt>
      <trkpt lat="47.4905" lon="6.76167">
        <ele>339</ele>
        <time>2015-05-08T07:40:07.000Z</time>
      </trkpt>
      <trkpt lat="47.4905" lon="6.76161">
        <ele>341</ele>
        <time>2015-05-08T07:40:08.000Z</time>
      </trkpt>
      <trkpt lat="47.49051" lon="6.76156">
        <ele>341</ele>
        <time>2015-05-08T07:40:09.000Z</time>
      </trkpt>
      <trkpt lat="47.49052" lon="6.76151">
        <ele>341</ele>
        <time>2015-05-08T07:40:10.000Z</time>
      </trkpt>
      <trkpt lat="47.49054" lon="6.76147">
        <ele>341</ele>
        <time>2015-05-08T07:40:11.000Z</time>
      </trkpt>
      <trkpt lat="47.49056" lon="6.7614">
        <ele>341</ele>
        <time>2015-05-08T07:40:13.000Z</time>
      </trkpt>
      <trkpt lat="47.49057" lon="6.76135">
        <ele>341</ele>
        <time>2015-05-08T07:40:15.000Z</time>
      </trkpt>
      <trkpt lat="47.49057" lon="6.76132">
        <ele>341</ele>
        <time>2015-05-08T07:40:16.000Z</time>
      </trkpt>
      <trkpt lat="47.49058" lon="6.76126">
        <ele>342</ele>
        <time>2015-05-08T07:40:18.000Z</time>
      </trkpt>
      <trkpt lat="47.49058" lon="6.76123">
        <ele>342</ele>
        <time>2015-05-08T07:40:19.000Z</time>
      </trkpt>
      <trkpt lat="47.49058" lon="6.7612">
        <ele>342</ele>
        <time>2015-05-08T07:40:20.000Z</time>
      </trkpt>
      <trkpt lat="47.49058" lon="6.76116">
        <ele>342</ele>
        <time>2015-05-08T07:40:21.000Z</time>
      </trkpt>
      <trkpt lat="47.49059" lon="6.76112">
        <ele>341</ele>
        <time>2015-05-08T07:40:22.000Z</time>
      </trkpt>
      <trkpt lat="47.4906" lon="6.76109">
        <ele>341</ele>
        <time>2015-05-08T07:40:23.000Z</time>
      </trkpt>
      <trkpt lat="47.4906" lon="6.76106">
        <ele>341</ele>
        <time>2015-05-08T07:40:24.000Z</time>
      </trkpt>
      <trkpt lat="47.4906" lon="6.76102">
        <ele>341</ele>
        <time>2015-05-08T07:40:25.000Z</time>
      </trkpt>
      <trkpt lat="47.4906" lon="6.76096">
        <ele>340</ele>
        <time>2015-05-08T07:40:27.000Z</time>
      </trkpt>
      <trkpt lat="47.4906" lon="6.76093">
        <ele>340</ele>
        <time>2015-05-08T07:40:28.000Z</time>
      </trkpt>
      <trkpt lat="47.49059" lon="6.76087">
        <ele>340</ele>
        <time>2015-05-08T07:40:30.000Z</time>
      </trkpt>
      <trkpt lat="47.49059" lon="6.76084">
        <ele>340</ele>
        <time>2015-05-08T07:40:31.000Z</time>
      </trkpt>
      <trkpt lat="47.49059" lon="6.76078">
        <ele>343</ele>
        <time>2015-05-08T07:40:33.000Z</time>
      </trkpt>
      <trkpt lat="47.49059" lon="6.76075">
        <ele>344</ele>
        <time>2015-05-08T07:40:34.000Z</time>
      </trkpt>
      <trkpt lat="47.49058" lon="6.76069">
        <ele>345</ele>
        <time>2015-05-08T07:40:36.000Z</time>
      </trkpt>
      <trkpt lat="47.49059" lon="6.76066">
        <ele>345</ele>
        <time>2015-05-08T07:40:37.000Z</time>
      </trkpt>
      <trkpt lat="47.49059" lon="6.7606">
        <ele>345</ele>
        <time>2015-05-08T07:40:39.000Z</time>
      </trkpt>
      <trkpt lat="47.4906" lon="6.76057">
        <ele>346</ele>
        <time>2015-05-08T07:40:40.000Z</time>
      </trkpt>
      <trkpt lat="47.4906" lon="6.76054">
        <ele>346</ele>
        <time>2015-05-08T07:40:41.000Z</time>
      </trkpt>
      <trkpt lat="47.49061" lon="6.76049">
        <ele>346</ele>
        <time>2015-05-08T07:40:42.000Z</time>
      </trkpt>
      <trkpt lat="47.49061" lon="6.76045">
        <ele>346</ele>
        <time>2015-05-08T07:40:43.000Z</time>
      </trkpt>
      <trkpt lat="47.49062" lon="6.76041">
        <ele>346</ele>
        <time>2015-05-08T07:40:44.000Z</time>
      </trkpt>
      <trkpt lat="47.49063" lon="6.76037">
        <ele>346</ele>
        <time>2015-05-08T07:40:45.000Z</time>
      </trkpt>
      <trkpt lat="47.49063" lon="6.76033">
        <ele>346</ele>
        <time>2015-05-08T07:40:46.000Z</time>
      </trkpt>
      <trkpt lat="47.49064" lon="6.76029">
        <ele>346</ele>
        <time>2015-05-08T07:40:47.000Z</time>
      </trkpt>
      <trkpt lat="47.49064" lon="6.76025">
        <ele>346</ele>
        <time>2015-05-08T07:40:48.000Z</time>
      </trkpt>
      <trkpt lat="47.49065" lon="6.76021">
        <ele>345</ele>
        <time>2015-05-08T07:40:49.000Z</time>
      </trkpt>
      <trkpt lat="47.49066" lon="6.76016">
        <ele>344</ele>
        <time>2015-05-08T07:40:50.000Z</time>
      </trkpt>
      <trkpt lat="47.49067" lon="6.76012">
        <ele>343</ele>
        <time>2015-05-08T07:40:51.000Z</time>
      </trkpt>
      <trkpt lat="47.49068" lon="6.76007">
        <ele>342</ele>
        <time>2015-05-08T07:40:52.000Z</time>
      </trkpt>
      <trkpt lat="47.49069" lon="6.76003">
        <ele>342</ele>
        <time>2015-05-08T07:40:53.000Z</time>
      </trkpt>
      <trkpt lat="47.49069" lon="6.75999">
        <ele>344</ele>
        <time>2015-05-08T07:40:54.000Z</time>
      </trkpt>
      <trkpt lat="47.4907" lon="6.75993">
        <ele>344</ele>
        <time>2015-05-08T07:40:56.000Z</time>
      </trkpt>
      <trkpt lat="47.4907" lon="6.7599">
        <ele>345</ele>
        <time>2015-05-08T07:40:57.000Z</time>
      </trkpt>
      <trkpt lat="47.49072" lon="6.75984">
        <ele>346</ele>
        <time>2015-05-08T07:40:59.000Z</time>
      </trkpt>
      <trkpt lat="47.49073" lon="6.75981">
        <ele>347</ele>
        <time>2015-05-08T07:41:00.000Z</time>
      </trkpt>
      <trkpt lat="47.49074" lon="6.75978">
        <ele>347</ele>
        <time>2015-05-08T07:41:01.000Z</time>
      </trkpt>
      <trkpt lat="47.49075" lon="6.75975">
        <ele>348</ele>
        <time>2015-05-08T07:41:02.000Z</time>
      </trkpt>
      <trkpt lat="47.49076" lon="6.75972">
        <ele>348</ele>
        <time>2015-05-08T07:41:03.000Z</time>
      </trkpt>
      <trkpt lat="47.49077" lon="6.75968">
        <ele>349</ele>
        <time>2015-05-08T07:41:04.000Z</time>
      </trkpt>
      <trkpt lat="47.49078" lon="6.75964">
        <ele>349</ele>
        <time>2015-05-08T07:41:05.000Z</time>
      </trkpt>
      <trkpt lat="47.49079" lon="6.75959">
        <ele>350</ele>
        <time>2015-05-08T07:41:06.000Z</time>
      </trkpt>
      <trkpt lat="47.49079" lon="6.75956">
        <ele>350</ele>
        <time>2015-05-08T07:41:07.000Z</time>
      </trkpt>
      <trkpt lat="47.4908" lon="6.75952">
        <ele>350</ele>
        <time>2015-05-08T07:41:08.000Z</time>
      </trkpt>
      <trkpt lat="47.4908" lon="6.75948">
        <ele>349</ele>
        <time>2015-05-08T07:41:09.000Z</time>
      </trkpt>
      <trkpt lat="47.49081" lon="6.75944">
        <ele>349</ele>
        <time>2015-05-08T07:41:10.000Z</time>
      </trkpt>
      <trkpt lat="47.49081" lon="6.75938">
        <ele>348</ele>
        <time>2015-05-08T07:41:11.000Z</time>
      </trkpt>
      <trkpt lat="47.49082" lon="6.75927">
        <ele>344</ele>
        <time>2015-05-08T07:41:13.000Z</time>
      </trkpt>
      <trkpt lat="47.49082" lon="6.75923">
        <ele>343</ele>
        <time>2015-05-08T07:41:14.000Z</time>
      </trkpt>
      <trkpt lat="47.49083" lon="6.7592">
        <ele>340</ele>
        <time>2015-05-08T07:41:15.000Z</time>
      </trkpt>
      <trkpt lat="47.49084" lon="6.75914">
        <ele>337</ele>
        <time>2015-05-08T07:41:17.000Z</time>
      </trkpt>
      <trkpt lat="47.49084" lon="6.75911">
        <ele>337</ele>
        <time>2015-05-08T07:41:18.000Z</time>
      </trkpt>
      <trkpt lat="47.49085" lon="6.75908">
        <ele>337</ele>
        <time>2015-05-08T07:41:19.000Z</time>
      </trkpt>
      <trkpt lat="47.49087" lon="6.75904">
        <ele>336</ele>
        <time>2015-05-08T07:41:20.000Z</time>
      </trkpt>
      <trkpt lat="47.49088" lon="6.759">
        <ele>336</ele>
        <time>2015-05-08T07:41:21.000Z</time>
      </trkpt>
      <trkpt lat="47.4909" lon="6.75896">
        <ele>336</ele>
        <time>2015-05-08T07:41:22.000Z</time>
      </trkpt>
      <trkpt lat="47.49091" lon="6.75892">
        <ele>336</ele>
        <time>2015-05-08T07:41:23.000Z</time>
      </trkpt>
      <trkpt lat="47.49093" lon="6.75887">
        <ele>335</ele>
        <time>2015-05-08T07:41:24.000Z</time>
      </trkpt>
      <trkpt lat="47.49094" lon="6.75882">
        <ele>335</ele>
        <time>2015-05-08T07:41:25.000Z</time>
      </trkpt>
      <trkpt lat="47.49095" lon="6.75878">
        <ele>336</ele>
        <time>2015-05-08T07:41:26.000Z</time>
      </trkpt>
      <trkpt lat="47.49097" lon="6.75873">
        <ele>336</ele>
        <time>2015-05-08T07:41:27.000Z</time>
      </trkpt>
      <trkpt lat="47.49098" lon="6.75866">
        <ele>336</ele>
        <time>2015-05-08T07:41:28.000Z</time>
      </trkpt>
      <trkpt lat="47.491" lon="6.75857">
        <ele>337</ele>
        <time>2015-05-08T07:41:29.000Z</time>
      </trkpt>
      <trkpt lat="47.49102" lon="6.75848">
        <ele>337</ele>
        <time>2015-05-08T07:41:30.000Z</time>
      </trkpt>
      <trkpt lat="47.49104" lon="6.75841">
        <ele>338</ele>
        <time>2015-05-08T07:41:31.000Z</time>
      </trkpt>
      <trkpt lat="47.49106" lon="6.75835">
        <ele>337</ele>
        <time>2015-05-08T07:41:32.000Z</time>
      </trkpt>
      <trkpt lat="47.49108" lon="6.75831">
        <ele>341</ele>
        <time>2015-05-08T07:41:33.000Z</time>
      </trkpt>
      <trkpt lat="47.49109" lon="6.75828">
        <ele>341</ele>
        <time>2015-05-08T07:41:34.000Z</time>
      </trkpt>
      <trkpt lat="47.49111" lon="6.75825">
        <ele>340</ele>
        <time>2015-05-08T07:41:35.000Z</time>
      </trkpt>
      <trkpt lat="47.49113" lon="6.75821">
        <ele>340</ele>
        <time>2015-05-08T07:41:36.000Z</time>
      </trkpt>
      <trkpt lat="47.49114" lon="6.75817">
        <ele>340</ele>
        <time>2015-05-08T07:41:37.000Z</time>
      </trkpt>
      <trkpt lat="47.49116" lon="6.75812">
        <ele>340</ele>
        <time>2015-05-08T07:41:38.000Z</time>
      </trkpt>
      <trkpt lat="47.49118" lon="6.75808">
        <ele>340</ele>
        <time>2015-05-08T07:41:39.000Z</time>
      </trkpt>
      <trkpt lat="47.4912" lon="6.75803">
        <ele>340</ele>
        <time>2015-05-08T07:41:40.000Z</time>
      </trkpt>
      <trkpt lat="47.49122" lon="6.75798">
        <ele>339</ele>
        <time>2015-05-08T07:41:41.000Z</time>
      </trkpt>
      <trkpt lat="47.49124" lon="6.75794">
        <ele>339</ele>
        <time>2015-05-08T07:41:42.000Z</time>
      </trkpt>
      <trkpt lat="47.49126" lon="6.75789">
        <ele>339</ele>
        <time>2015-05-08T07:41:43.000Z</time>
      </trkpt>
      <trkpt lat="47.49128" lon="6.75785">
        <ele>339</ele>
        <time>2015-05-08T07:41:44.000Z</time>
      </trkpt>
      <trkpt lat="47.4913" lon="6.75782">
        <ele>339</ele>
        <time>2015-05-08T07:41:45.000Z</time>
      </trkpt>
      <trkpt lat="47.49132" lon="6.75777">
        <ele>339</ele>
        <time>2015-05-08T07:41:47.000Z</time>
      </trkpt>
      <trkpt lat="47.49133" lon="6.75774">
        <ele>339</ele>
        <time>2015-05-08T07:41:48.000Z</time>
      </trkpt>
      <trkpt lat="47.49134" lon="6.75769">
        <ele>339</ele>
        <time>2015-05-08T07:41:50.000Z</time>
      </trkpt>
      <trkpt lat="47.49135" lon="6.75766">
        <ele>339</ele>
        <time>2015-05-08T07:41:51.000Z</time>
      </trkpt>
      <trkpt lat="47.49135" lon="6.75762">
        <ele>339</ele>
        <time>2015-05-08T07:41:53.000Z</time>
      </trkpt>
      <trkpt lat="47.49136" lon="6.75759">
        <ele>339</ele>
        <time>2015-05-08T07:41:54.000Z</time>
      </trkpt>
      <trkpt lat="47.49136" lon="6.75756">
        <ele>339</ele>
        <time>2015-05-08T07:41:55.000Z</time>
      </trkpt>
      <trkpt lat="47.49137" lon="6.75753">
        <ele>339</ele>
        <time>2015-05-08T07:41:56.000Z</time>
      </trkpt>
      <trkpt lat="47.49138" lon="6.7575">
        <ele>345</ele>
        <time>2015-05-08T07:41:57.000Z</time>
      </trkpt>
      <trkpt lat="47.49139" lon="6.75747">
        <ele>345</ele>
        <time>2015-05-08T07:41:58.000Z</time>
      </trkpt>
      <trkpt lat="47.4914" lon="6.75744">
        <ele>345</ele>
        <time>2015-05-08T07:41:59.000Z</time>
      </trkpt>
      <trkpt lat="47.49141" lon="6.75741">
        <ele>345</ele>
        <time>2015-05-08T07:42:00.000Z</time>
      </trkpt>
      <trkpt lat="47.49144" lon="6.75738">
        <ele>345</ele>
        <time>2015-05-08T07:42:01.000Z</time>
      </trkpt>
      <trkpt lat="47.49146" lon="6.75734">
        <ele>345</ele>
        <time>2015-05-08T07:42:02.000Z</time>
      </trkpt>
      <trkpt lat="47.49148" lon="6.7573">
        <ele>345</ele>
        <time>2015-05-08T07:42:03.000Z</time>
      </trkpt>
      <trkpt lat="47.4915" lon="6.75726">
        <ele>346</ele>
        <time>2015-05-08T07:42:04.000Z</time>
      </trkpt>
      <trkpt lat="47.49152" lon="6.75723">
        <ele>346</ele>
        <time>2015-05-08T07:42:05.000Z</time>
      </trkpt>
      <trkpt lat="47.49154" lon="6.7572">
        <ele>346</ele>
        <time>2015-05-08T07:42:06.000Z</time>
      </trkpt>
      <trkpt lat="47.49155" lon="6.75717">
        <ele>346</ele>
        <time>2015-05-08T07:42:07.000Z</time>
      </trkpt>
      <trkpt lat="47.49156" lon="6.75714">
        <ele>347</ele>
        <time>2015-05-08T07:42:08.000Z</time>
      </trkpt>
      <trkpt lat="47.49156" lon="6.75709">
        <ele>347</ele>
        <time>2015-05-08T07:42:09.000Z</time>
      </trkpt>
      <trkpt lat="47.49156" lon="6.75706">
        <ele>348</ele>
        <time>2015-05-08T07:42:10.000Z</time>
      </trkpt>
      <trkpt lat="47.49157" lon="6.757">
        <ele>348</ele>
        <time>2015-05-08T07:42:13.000Z</time>
      </trkpt>
      <trkpt lat="47.49158" lon="6.75698">
        <ele>348</ele>
        <time>2015-05-08T07:42:14.000Z</time>
      </trkpt>
      <trkpt lat="47.49159" lon="6.75692">
        <ele>349</ele>
        <time>2015-05-08T07:42:16.000Z</time>
      </trkpt>
      <trkpt lat="47.49159" lon="6.75689">
        <ele>349</ele>
        <time>2015-05-08T07:42:17.000Z</time>
      </trkpt>
      <trkpt lat="47.4916" lon="6.75684">
        <ele>349</ele>
        <time>2015-05-08T07:42:19.000Z</time>
      </trkpt>
      <trkpt lat="47.49161" lon="6.75682">
        <ele>349</ele>
        <time>2015-05-08T07:42:20.000Z</time>
      </trkpt>
      <trkpt lat="47.49163" lon="6.75679">
        <ele>349</ele>
        <time>2015-05-08T07:42:22.000Z</time>
      </trkpt>
      <trkpt lat="47.49164" lon="6.75677">
        <ele>349</ele>
        <time>2015-05-08T07:42:23.000Z</time>
      </trkpt>
      <trkpt lat="47.49165" lon="6.75671">
        <ele>348</ele>
        <time>2015-05-08T07:42:25.000Z</time>
      </trkpt>
      <trkpt lat="47.49166" lon="6.75668">
        <ele>348</ele>
        <time>2015-05-08T07:42:26.000Z</time>
      </trkpt>
      <trkpt lat="47.49167" lon="6.75662">
        <ele>347</ele>
        <time>2015-05-08T07:42:28.000Z</time>
      </trkpt>
      <trkpt lat="47.49168" lon="6.7566">
        <ele>346</ele>
        <time>2015-05-08T07:42:29.000Z</time>
      </trkpt>
      <trkpt lat="47.49169" lon="6.75655">
        <ele>345</ele>
        <time>2015-05-08T07:42:31.000Z</time>
      </trkpt>
      <trkpt lat="47.4917" lon="6.75652">
        <ele>345</ele>
        <time>2015-05-08T07:42:32.000Z</time>
      </trkpt>
      <trkpt lat="47.4917" lon="6.75646">
        <ele>344</ele>
        <time>2015-05-08T07:42:34.000Z</time>
      </trkpt>
      <trkpt lat="47.4917" lon="6.75642">
        <ele>344</ele>
        <time>2015-05-08T07:42:35.000Z</time>
      </trkpt>
      <trkpt lat="47.49171" lon="6.75639">
        <ele>344</ele>
        <time>2015-05-08T07:42:36.000Z</time>
      </trkpt>
      <trkpt lat="47.49172" lon="6.75636">
        <ele>344</ele>
        <time>2015-05-08T07:42:37.000Z</time>
      </trkpt>
      <trkpt lat="47.49173" lon="6.75633">
        <ele>344</ele>
        <time>2015-05-08T07:42:38.000Z</time>
      </trkpt>
      <trkpt lat="47.49173" lon="6.75629">
        <ele>344</ele>
        <time>2015-05-08T07:42:39.000Z</time>
      </trkpt>
      <trkpt lat="47.49173" lon="6.75625">
        <ele>344</ele>
        <time>2015-05-08T07:42:40.000Z</time>
      </trkpt>
      <trkpt lat="47.49174" lon="6.75622">
        <ele>344</ele>
        <time>2015-05-08T07:42:41.000Z</time>
      </trkpt>
      <trkpt lat="47.49175" lon="6.75618">
        <ele>344</ele>
        <time>2015-05-08T07:42:42.000Z</time>
      </trkpt>
      <trkpt lat="47.49175" lon="6.75614">
        <ele>345</ele>
        <time>2015-05-08T07:42:43.000Z</time>
      </trkpt>
      <trkpt lat="47.49177" lon="6.7561">
        <ele>345</ele>
        <time>2015-05-08T07:42:44.000Z</time>
      </trkpt>
      <trkpt lat="47.49177" lon="6.75607">
        <ele>346</ele>
        <time>2015-05-08T07:42:45.000Z</time>
      </trkpt>
      <trkpt lat="47.49178" lon="6.75604">
        <ele>346</ele>
        <time>2015-05-08T07:42:46.000Z</time>
      </trkpt>
      <trkpt lat="47.49179" lon="6.756">
        <ele>347</ele>
        <time>2015-05-08T07:42:47.000Z</time>
      </trkpt>
      <trkpt lat="47.49181" lon="6.75595">
        <ele>347</ele>
        <time>2015-05-08T07:42:49.000Z</time>
      </trkpt>
      <trkpt lat="47.49182" lon="6.75593">
        <ele>347</ele>
        <time>2015-05-08T07:42:50.000Z</time>
      </trkpt>
      <trkpt lat="47.49185" lon="6.7559">
        <ele>347</ele>
        <time>2015-05-08T07:42:52.000Z</time>
      </trkpt>
      <trkpt lat="47.49188" lon="6.75588">
        <ele>346</ele>
        <time>2015-05-08T07:42:53.000Z</time>
      </trkpt>
      <trkpt lat="47.49189" lon="6.75583">
        <ele>350</ele>
        <time>2015-05-08T07:42:58.000Z</time>
      </trkpt>
      <trkpt lat="47.49189" lon="6.75582">
        <ele>350</ele>
        <time>2015-05-08T07:42:59.000Z</time>
      </trkpt>
      <trkpt lat="47.4919" lon="6.75577">
        <ele>349</ele>
        <time>2015-05-08T07:43:01.000Z</time>
      </trkpt>
      <trkpt lat="47.49191" lon="6.75573">
        <ele>349</ele>
        <time>2015-05-08T07:43:02.000Z</time>
      </trkpt>
      <trkpt lat="47.49191" lon="6.75568">
        <ele>349</ele>
        <time>2015-05-08T07:43:03.000Z</time>
      </trkpt>
      <trkpt lat="47.49192" lon="6.75563">
        <ele>349</ele>
        <time>2015-05-08T07:43:04.000Z</time>
      </trkpt>
      <trkpt lat="47.49193" lon="6.75558">
        <ele>349</ele>
        <time>2015-05-08T07:43:05.000Z</time>
      </trkpt>
      <trkpt lat="47.49194" lon="6.75552">
        <ele>349</ele>
        <time>2015-05-08T07:43:06.000Z</time>
      </trkpt>
      <trkpt lat="47.49195" lon="6.75547">
        <ele>349</ele>
        <time>2015-05-08T07:43:07.000Z</time>
      </trkpt>
      <trkpt lat="47.49196" lon="6.75543">
        <ele>349</ele>
        <time>2015-05-08T07:43:08.000Z</time>
      </trkpt>
      <trkpt lat="47.49197" lon="6.75538">
        <ele>349</ele>
        <time>2015-05-08T07:43:09.000Z</time>
      </trkpt>
      <trkpt lat="47.49197" lon="6.75535">
        <ele>349</ele>
        <time>2015-05-08T07:43:10.000Z</time>
      </trkpt>
      <trkpt lat="47.49198" lon="6.7553">
        <ele>349</ele>
        <time>2015-05-08T07:43:11.000Z</time>
      </trkpt>
      <trkpt lat="47.49199" lon="6.75525">
        <ele>349</ele>
        <time>2015-05-08T07:43:12.000Z</time>
      </trkpt>
      <trkpt lat="47.49199" lon="6.75521">
        <ele>350</ele>
        <time>2015-05-08T07:43:13.000Z</time>
      </trkpt>
      <trkpt lat="47.492" lon="6.75517">
        <ele>350</ele>
        <time>2015-05-08T07:43:14.000Z</time>
      </trkpt>
      <trkpt lat="47.49201" lon="6.75513">
        <ele>350</ele>
        <time>2015-05-08T07:43:15.000Z</time>
      </trkpt>
      <trkpt lat="47.49202" lon="6.7551">
        <ele>350</ele>
        <time>2015-05-08T07:43:16.000Z</time>
      </trkpt>
      <trkpt lat="47.49203" lon="6.75506">
        <ele>350</ele>
        <time>2015-05-08T07:43:17.000Z</time>
      </trkpt>
      <trkpt lat="47.49203" lon="6.75502">
        <ele>350</ele>
        <time>2015-05-08T07:43:18.000Z</time>
      </trkpt>
      <trkpt lat="47.49204" lon="6.75497">
        <ele>353</ele>
        <time>2015-05-08T07:43:19.000Z</time>
      </trkpt>
      <trkpt lat="47.49204" lon="6.75492">
        <ele>353</ele>
        <time>2015-05-08T07:43:20.000Z</time>
      </trkpt>
      <trkpt lat="47.49204" lon="6.75488">
        <ele>353</ele>
        <time>2015-05-08T07:43:21.000Z</time>
      </trkpt>
      <trkpt lat="47.49204" lon="6.75485">
        <ele>353</ele>
        <time>2015-05-08T07:43:22.000Z</time>
      </trkpt>
      <trkpt lat="47.49205" lon="6.75478">
        <ele>353</ele>
        <time>2015-05-08T07:43:24.000Z</time>
      </trkpt>
      <trkpt lat="47.49206" lon="6.75475">
        <ele>353</ele>
        <time>2015-05-08T07:43:25.000Z</time>
      </trkpt>
      <trkpt lat="47.49207" lon="6.75472">
        <ele>353</ele>
        <time>2015-05-08T07:43:26.000Z</time>
      </trkpt>
      <trkpt lat="47.49208" lon="6.75468">
        <ele>353</ele>
        <time>2015-05-08T07:43:27.000Z</time>
      </trkpt>
      <trkpt lat="47.49209" lon="6.75465">
        <ele>353</ele>
        <time>2015-05-08T07:43:28.000Z</time>
      </trkpt>
      <trkpt lat="47.4921" lon="6.75462">
        <ele>353</ele>
        <time>2015-05-08T07:43:29.000Z</time>
      </trkpt>
      <trkpt lat="47.4921" lon="6.75458">
        <ele>353</ele>
        <time>2015-05-08T07:43:30.000Z</time>
      </trkpt>
      <trkpt lat="47.49211" lon="6.75455">
        <ele>353</ele>
        <time>2015-05-08T07:43:31.000Z</time>
      </trkpt>
      <trkpt lat="47.49211" lon="6.75452">
        <ele>353</ele>
        <time>2015-05-08T07:43:32.000Z</time>
      </trkpt>
      <trkpt lat="47.49212" lon="6.75448">
        <ele>353</ele>
        <time>2015-05-08T07:43:33.000Z</time>
      </trkpt>
      <trkpt lat="47.49214" lon="6.75443">
        <ele>353</ele>
        <time>2015-05-08T07:43:35.000Z</time>
      </trkpt>
      <trkpt lat="47.49214" lon="6.7544">
        <ele>353</ele>
        <time>2015-05-08T07:43:36.000Z</time>
      </trkpt>
      <trkpt lat="47.49216" lon="6.75434">
        <ele>353</ele>
        <time>2015-05-08T07:43:39.000Z</time>
      </trkpt>
      <trkpt lat="47.49216" lon="6.75432">
        <ele>353</ele>
        <time>2015-05-08T07:43:39.999Z</time>
      </trkpt>
      <trkpt lat="47.49219" lon="6.75428">
        <ele>352</ele>
        <time>2015-05-08T07:43:44.000Z</time>
      </trkpt>
      <trkpt lat="47.49219" lon="6.75427">
        <ele>352</ele>
        <time>2015-05-08T07:43:45.000Z</time>
      </trkpt>
      <trkpt lat="47.49218" lon="6.75422">
        <ele>352</ele>
        <time>2015-05-08T07:43:48.000Z</time>
      </trkpt>
      <trkpt lat="47.49218" lon="6.7542">
        <ele>352</ele>
        <time>2015-05-08T07:43:49.000Z</time>
      </trkpt>
      <trkpt lat="47.49217" lon="6.75416">
        <ele>356</ele>
        <time>2015-05-08T07:43:51.000Z</time>
      </trkpt>
      <trkpt lat="47.49215" lon="6.7541">
        <ele>357</ele>
        <time>2015-05-08T07:43:52.000Z</time>
      </trkpt>
      <trkpt lat="47.49214" lon="6.75405">
        <ele>357</ele>
        <time>2015-05-08T07:43:55.000Z</time>
      </trkpt>
      <trkpt lat="47.49214" lon="6.75403">
        <ele>357</ele>
        <time>2015-05-08T07:43:56.000Z</time>
      </trkpt>
      <trkpt lat="47.49214" lon="6.75397">
        <ele>357</ele>
        <time>2015-05-08T07:43:59.000Z</time>
      </trkpt>
      <trkpt lat="47.49214" lon="6.75395">
        <ele>357</ele>
        <time>2015-05-08T07:44:00.000Z</time>
      </trkpt>
      <trkpt lat="47.49212" lon="6.7539">
        <ele>358</ele>
        <time>2015-05-08T07:44:03.000Z</time>
      </trkpt>
      <trkpt lat="47.49212" lon="6.75388">
        <ele>358</ele>
        <time>2015-05-08T07:44:04.000Z</time>
      </trkpt>
      <trkpt lat="47.49213" lon="6.75382">
        <ele>358</ele>
        <time>2015-05-08T07:44:19.000Z</time>
      </trkpt>
      <trkpt lat="47.49213" lon="6.75381">
        <ele>358</ele>
        <time>2015-05-08T07:44:20.000Z</time>
      </trkpt>
      <trkpt lat="47.49212" lon="6.75376">
        <ele>358</ele>
        <time>2015-05-08T07:44:23.000Z</time>
      </trkpt>
      <trkpt lat="47.49212" lon="6.75374">
        <ele>358</ele>
        <time>2015-05-08T07:44:24.000Z</time>
      </trkpt>
      <trkpt lat="47.49212" lon="6.75368">
        <ele>359</ele>
        <time>2015-05-08T07:44:28.000Z</time>
      </trkpt>
      <trkpt lat="47.49214" lon="6.75367">
        <ele>358</ele>
        <time>2015-05-08T07:44:29.000Z</time>
      </trkpt>
      <trkpt lat="47.49214" lon="6.75361">
        <ele>358</ele>
        <time>2015-05-08T07:44:50.000Z</time>
      </trkpt>
      <trkpt lat="47.49214" lon="6.7536">
        <ele>358</ele>
        <time>2015-05-08T07:44:51.000Z</time>
      </trkpt>
      <trkpt lat="47.49213" lon="6.75354">
        <ele>359</ele>
        <time>2015-05-08T07:44:55.000Z</time>
      </trkpt>
      <trkpt lat="47.49212" lon="6.75352">
        <ele>359</ele>
        <time>2015-05-08T07:44:56.000Z</time>
      </trkpt>
      <trkpt lat="47.49212" lon="6.75348">
        <ele>359</ele>
        <time>2015-05-08T07:44:58.000Z</time>
      </trkpt>
      <trkpt lat="47.49211" lon="6.75346">
        <ele>359</ele>
        <time>2015-05-08T07:44:59.000Z</time>
      </trkpt>
      <trkpt lat="47.4921" lon="6.75342">
        <ele>359</ele>
        <time>2015-05-08T07:45:01.000Z</time>
      </trkpt>
      <trkpt lat="47.4921" lon="6.75339">
        <ele>359</ele>
        <time>2015-05-08T07:45:02.000Z</time>
      </trkpt>
      <trkpt lat="47.4921" lon="6.75334">
        <ele>359</ele>
        <time>2015-05-08T07:45:04.000Z</time>
      </trkpt>
      <trkpt lat="47.49211" lon="6.75332">
        <ele>362</ele>
        <time>2015-05-08T07:45:05.000Z</time>
      </trkpt>
      <trkpt lat="47.49211" lon="6.75327">
        <ele>362</ele>
        <time>2015-05-08T07:45:07.000Z</time>
      </trkpt>
      <trkpt lat="47.4921" lon="6.75324">
        <ele>362</ele>
        <time>2015-05-08T07:45:08.000Z</time>
      </trkpt>
      <trkpt lat="47.49209" lon="6.7532">
        <ele>362</ele>
        <time>2015-05-08T07:45:10.000Z</time>
      </trkpt>
      <trkpt lat="47.49209" lon="6.75318">
        <ele>362</ele>
        <time>2015-05-08T07:45:11.000Z</time>
      </trkpt>
      <trkpt lat="47.4921" lon="6.75313">
        <ele>362</ele>
        <time>2015-05-08T07:45:13.000Z</time>
      </trkpt>
      <trkpt lat="47.49211" lon="6.75311">
        <ele>362</ele>
        <time>2015-05-08T07:45:14.000Z</time>
      </trkpt>
      <trkpt lat="47.4921" lon="6.75307">
        <ele>362</ele>
        <time>2015-05-08T07:45:16.000Z</time>
      </trkpt>
      <trkpt lat="47.4921" lon="6.75305">
        <ele>363</ele>
        <time>2015-05-08T07:45:17.000Z</time>
      </trkpt>
      <trkpt lat="47.49209" lon="6.753">
        <ele>363</ele>
        <time>2015-05-08T07:45:19.000Z</time>
      </trkpt>
      <trkpt lat="47.49209" lon="6.75298">
        <ele>363</ele>
        <time>2015-05-08T07:45:20.000Z</time>
      </trkpt>
      <trkpt lat="47.49207" lon="6.75294">
        <ele>363</ele>
        <time>2015-05-08T07:45:22.000Z</time>
      </trkpt>
      <trkpt lat="47.49205" lon="6.75293">
        <ele>364</ele>
        <time>2015-05-08T07:45:23.000Z</time>
      </trkpt>
      <trkpt lat="47.49202" lon="6.7529">
        <ele>364</ele>
        <time>2015-05-08T07:45:25.000Z</time>
      </trkpt>
      <trkpt lat="47.49201" lon="6.75288">
        <ele>364</ele>
        <time>2015-05-08T07:45:26.000Z</time>
      </trkpt>
      <trkpt lat="47.492" lon="6.75282">
        <ele>365</ele>
        <time>2015-05-08T07:45:29.000Z</time>
      </trkpt>
      <trkpt lat="47.492" lon="6.7528">
        <ele>365</ele>
        <time>2015-05-08T07:45:30.000Z</time>
      </trkpt>
      <trkpt lat="47.49199" lon="6.75274">
        <ele>365</ele>
        <time>2015-05-08T07:45:33.000Z</time>
      </trkpt>
      <trkpt lat="47.49199" lon="6.75272">
        <ele>365</ele>
        <time>2015-05-08T07:45:34.000Z</time>
      </trkpt>
      <trkpt lat="47.49196" lon="6.75268">
        <ele>366</ele>
        <time>2015-05-08T07:45:36.000Z</time>
      </trkpt>
      <trkpt lat="47.49195" lon="6.75266">
        <ele>367</ele>
        <time>2015-05-08T07:45:37.000Z</time>
      </trkpt>
      <trkpt lat="47.49192" lon="6.7526">
        <ele>368</ele>
        <time>2015-05-08T07:45:39.000Z</time>
      </trkpt>
      <trkpt lat="47.49191" lon="6.75257">
        <ele>368</ele>
        <time>2015-05-08T07:45:40.000Z</time>
      </trkpt>
      <trkpt lat="47.49191" lon="6.75253">
        <ele>369</ele>
        <time>2015-05-08T07:45:41.000Z</time>
      </trkpt>
      <trkpt lat="47.49191" lon="6.7525">
        <ele>370</ele>
        <time>2015-05-08T07:45:42.000Z</time>
      </trkpt>
      <trkpt lat="47.49189" lon="6.75246">
        <ele>371</ele>
        <time>2015-05-08T07:45:45.000Z</time>
      </trkpt>
      <trkpt lat="47.49187" lon="6.75246">
        <ele>371</ele>
        <time>2015-05-08T07:45:46.000Z</time>
      </trkpt>
      <trkpt lat="47.49183" lon="6.75243">
        <ele>372</ele>
        <time>2015-05-08T07:45:50.000Z</time>
      </trkpt>
      <trkpt lat="47.49182" lon="6.75241">
        <ele>373</ele>
        <time>2015-05-08T07:45:51.000Z</time>
      </trkpt>
      <trkpt lat="47.49179" lon="6.75237">
        <ele>373</ele>
        <time>2015-05-08T07:45:53.000Z</time>
      </trkpt>
      <trkpt lat="47.49178" lon="6.75234">
        <ele>372</ele>
        <time>2015-05-08T07:45:54.000Z</time>
      </trkpt>
      <trkpt lat="47.49175" lon="6.7523">
        <ele>372</ele>
        <time>2015-05-08T07:45:56.000Z</time>
      </trkpt>
      <trkpt lat="47.49174" lon="6.75228">
        <ele>372</ele>
        <time>2015-05-08T07:45:57.000Z</time>
      </trkpt>
      <trkpt lat="47.49172" lon="6.75223">
        <ele>372</ele>
        <time>2015-05-08T07:46:00.000Z</time>
      </trkpt>
      <trkpt lat="47.49171" lon="6.75223">
        <ele>372</ele>
        <time>2015-05-08T07:46:01.000Z</time>
      </trkpt>
      <trkpt lat="47.49167" lon="6.75222">
        <ele>372</ele>
        <time>2015-05-08T07:46:05.000Z</time>
      </trkpt>
      <trkpt lat="47.49167" lon="6.75221">
        <ele>388</ele>
        <time>2015-05-08T07:46:06.000Z</time>
      </trkpt>
      <trkpt lat="47.49164" lon="6.75218">
        <ele>388</ele>
        <time>2015-05-08T07:46:08.000Z</time>
      </trkpt>
      <trkpt lat="47.49163" lon="6.75217">
        <ele>388</ele>
        <time>2015-05-08T07:46:09.000Z</time>
      </trkpt>
      <trkpt lat="47.49159" lon="6.75213">
        <ele>389</ele>
        <time>2015-05-08T07:46:12.000Z</time>
      </trkpt>
      <trkpt lat="47.49159" lon="6.75212">
        <ele>389</ele>
        <time>2015-05-08T07:46:13.000Z</time>
      </trkpt>
      <trkpt lat="47.49157" lon="6.75207">
        <ele>389</ele>
        <time>2015-05-08T07:46:17.000Z</time>
      </trkpt>
      <trkpt lat="47.49156" lon="6.75206">
        <ele>389</ele>
        <time>2015-05-08T07:46:18.000Z</time>
      </trkpt>
      <trkpt lat="47.49153" lon="6.75205">
        <ele>389</ele>
        <time>2015-05-08T07:46:22.000Z</time>
      </trkpt>
      <trkpt lat="47.49152" lon="6.75205">
        <ele>389</ele>
        <time>2015-05-08T07:46:23.000Z</time>
      </trkpt>
      <trkpt lat="47.49149" lon="6.752">
        <ele>390</ele>
        <time>2015-05-08T07:46:32.000Z</time>
      </trkpt>
      <trkpt lat="47.49149" lon="6.75199">
        <ele>390</ele>
        <time>2015-05-08T07:46:33.000Z</time>
      </trkpt>
      <trkpt lat="47.49146" lon="6.75196">
        <ele>390</ele>
        <time>2015-05-08T07:46:40.000Z</time>
      </trkpt>
      <trkpt lat="47.49145" lon="6.75195">
        <ele>390</ele>
        <time>2015-05-08T07:46:41.000Z</time>
      </trkpt>
      <trkpt lat="47.49142" lon="6.7519">
        <ele>390</ele>
        <time>2015-05-08T07:46:45.000Z</time>
      </trkpt>
      <trkpt lat="47.49142" lon="6.75189">
        <ele>390</ele>
        <time>2015-05-08T07:46:46.000Z</time>
      </trkpt>
      <trkpt lat="47.49139" lon="6.75185">
        <ele>390</ele>
        <time>2015-05-08T07:46:50.000Z</time>
      </trkpt>
      <trkpt lat="47.49138" lon="6.75184">
        <ele>390</ele>
        <time>2015-05-08T07:46:51.000Z</time>
      </trkpt>
      <trkpt lat="47.49135" lon="6.7518">
        <ele>391</ele>
        <time>2015-05-08T07:46:59.000Z</time>
      </trkpt>
      <trkpt lat="47.49135" lon="6.75178">
        <ele>391</ele>
        <time>2015-05-08T07:47:00.000Z</time>
      </trkpt>
      <trkpt lat="47.49133" lon="6.75173">
        <ele>391</ele>
        <time>2015-05-08T07:47:04.000Z</time>
      </trkpt>
      <trkpt lat="47.49132" lon="6.75172">
        <ele>391</ele>
        <time>2015-05-08T07:47:05.000Z</time>
      </trkpt>
      <trkpt lat="47.4913" lon="6.75167">
        <ele>390</ele>
        <time>2015-05-08T07:47:12.000Z</time>
      </trkpt>
      <trkpt lat="47.4913" lon="6.75165">
        <ele>390</ele>
        <time>2015-05-08T07:47:13.000Z</time>
      </trkpt>
      <trkpt lat="47.4913" lon="6.7516">
        <ele>390</ele>
        <time>2015-05-08T07:47:16.000Z</time>
      </trkpt>
      <trkpt lat="47.4913" lon="6.75157">
        <ele>390</ele>
        <time>2015-05-08T07:47:17.000Z</time>
      </trkpt>
      <trkpt lat="47.4913" lon="6.75151">
        <ele>390</ele>
        <time>2015-05-08T07:47:20.000Z</time>
      </trkpt>
      <trkpt lat="47.4913" lon="6.7515">
        <ele>390</ele>
        <time>2015-05-08T07:47:21.000Z</time>
      </trkpt>
      <trkpt lat="47.49127" lon="6.75145">
        <ele>390</ele>
        <time>2015-05-08T07:47:25.000Z</time>
      </trkpt>
      <trkpt lat="47.49126" lon="6.75144">
        <ele>391</ele>
        <time>2015-05-08T07:47:26.000Z</time>
      </trkpt>
      <trkpt lat="47.49122" lon="6.75141">
        <ele>391</ele>
        <time>2015-05-08T07:47:30.000Z</time>
      </trkpt>
      <trkpt lat="47.49121" lon="6.7514">
        <ele>391</ele>
        <time>2015-05-08T07:47:31.000Z</time>
      </trkpt>
      <trkpt lat="47.49117" lon="6.75141">
        <ele>392</ele>
        <time>2015-05-08T07:47:35.000Z</time>
      </trkpt>
      <trkpt lat="47.49116" lon="6.75141">
        <ele>392</ele>
        <time>2015-05-08T07:47:36.000Z</time>
      </trkpt>
      <trkpt lat="47.49113" lon="6.75138">
        <ele>393</ele>
        <time>2015-05-08T07:47:41.000Z</time>
      </trkpt>
      <trkpt lat="47.49112" lon="6.75137">
        <ele>393</ele>
        <time>2015-05-08T07:47:42.000Z</time>
      </trkpt>
      <trkpt lat="47.49109" lon="6.75134">
        <ele>393</ele>
        <time>2015-05-08T07:47:51.000Z</time>
      </trkpt>
      <trkpt lat="47.49108" lon="6.75133">
        <ele>393</ele>
        <time>2015-05-08T07:47:52.000Z</time>
      </trkpt>
      <trkpt lat="47.49104" lon="6.75132">
        <ele>393</ele>
        <time>2015-05-08T07:47:59.000Z</time>
      </trkpt>
      <trkpt lat="47.49104" lon="6.75132">
        <ele>394</ele>
        <time>2015-05-08T07:48:00.000Z</time>
      </trkpt>
      <trkpt lat="47.49101" lon="6.75128">
        <ele>394</ele>
        <time>2015-05-08T07:48:07.000Z</time>
      </trkpt>
      <trkpt lat="47.491" lon="6.75127">
        <ele>394</ele>
        <time>2015-05-08T07:48:08.000Z</time>
      </trkpt>
      <trkpt lat="47.49096" lon="6.75124">
        <ele>394</ele>
        <time>2015-05-08T07:48:12.000Z</time>
      </trkpt>
      <trkpt lat="47.49095" lon="6.75124">
        <ele>394</ele>
        <time>2015-05-08T07:48:13.000Z</time>
      </trkpt>
      <trkpt lat="47.49092" lon="6.7512">
        <ele>394</ele>
        <time>2015-05-08T07:48:21.000Z</time>
      </trkpt>
      <trkpt lat="47.49091" lon="6.7512">
        <ele>394</ele>
        <time>2015-05-08T07:48:22.000Z</time>
      </trkpt>
      <trkpt lat="47.49087" lon="6.75117">
        <ele>395</ele>
        <time>2015-05-08T07:48:33.000Z</time>
      </trkpt>
      <trkpt lat="47.49086" lon="6.75117">
        <ele>395</ele>
        <time>2015-05-08T07:48:34.000Z</time>
      </trkpt>
      <trkpt lat="47.49082" lon="6.75116">
        <ele>408</ele>
        <time>2015-05-08T07:48:38.000Z</time>
      </trkpt>
      <trkpt lat="47.4908" lon="6.75116">
        <ele>409</ele>
        <time>2015-05-08T07:48:39.000Z</time>
      </trkpt>
      <trkpt lat="47.49076" lon="6.75116">
        <ele>409</ele>
        <time>2015-05-08T07:48:45.000Z</time>
      </trkpt>
      <trkpt lat="47.49075" lon="6.75116">
        <ele>409</ele>
        <time>2015-05-08T07:48:46.000Z</time>
      </trkpt>
      <trkpt lat="47.49072" lon="6.75116">
        <ele>409</ele>
        <time>2015-05-08T07:48:50.000Z</time>
      </trkpt>
      <trkpt lat="47.49071" lon="6.75115">
        <ele>409</ele>
        <time>2015-05-08T07:48:51.000Z</time>
      </trkpt>
      <trkpt lat="47.49066" lon="6.75114">
        <ele>410</ele>
        <time>2015-05-08T07:48:55.000Z</time>
      </trkpt>
      <trkpt lat="47.49065" lon="6.75114">
        <ele>410</ele>
        <time>2015-05-08T07:48:56.000Z</time>
      </trkpt>
      <trkpt lat="47.49061" lon="6.75113">
        <ele>410</ele>
        <time>2015-05-08T07:49:02.000Z</time>
      </trkpt>
      <trkpt lat="47.4906" lon="6.75112">
        <ele>410</ele>
        <time>2015-05-08T07:49:03.000Z</time>
      </trkpt>
      <trkpt lat="47.49057" lon="6.75112">
        <ele>411</ele>
        <time>2015-05-08T07:49:06.000Z</time>
      </trkpt>
      <trkpt lat="47.49056" lon="6.75112">
        <ele>411</ele>
        <time>2015-05-08T07:49:07.000Z</time>
      </trkpt>
      <trkpt lat="47.49052" lon="6.7511">
        <ele>411</ele>
        <time>2015-05-08T07:49:18.000Z</time>
      </trkpt>
      <trkpt lat="47.49051" lon="6.75109">
        <ele>411</ele>
        <time>2015-05-08T07:49:19.000Z</time>
      </trkpt>
      <trkpt lat="47.49047" lon="6.75108">
        <ele>412</ele>
        <time>2015-05-08T07:49:27.000Z</time>
      </trkpt>
      <trkpt lat="47.49045" lon="6.75108">
        <ele>412</ele>
        <time>2015-05-08T07:49:28.000Z</time>
      </trkpt>
      <trkpt lat="47.49042" lon="6.75108">
        <ele>412</ele>
        <time>2015-05-08T07:49:30.000Z</time>
      </trkpt>
      <trkpt lat="47.4904" lon="6.75108">
        <ele>413</ele>
        <time>2015-05-08T07:49:31.000Z</time>
      </trkpt>
      <trkpt lat="47.49036" lon="6.7511">
        <ele>413</ele>
        <time>2015-05-08T07:49:36.000Z</time>
      </trkpt>
      <trkpt lat="47.49035" lon="6.7511">
        <ele>413</ele>
        <time>2015-05-08T07:49:37.000Z</time>
      </trkpt>
      <trkpt lat="47.49031" lon="6.7511">
        <ele>414</ele>
        <time>2015-05-08T07:49:40.000Z</time>
      </trkpt>
      <trkpt lat="47.4903" lon="6.7511">
        <ele>414</ele>
        <time>2015-05-08T07:49:41.000Z</time>
      </trkpt>
      <trkpt lat="47.49026" lon="6.7511">
        <ele>415</ele>
        <time>2015-05-08T07:49:45.000Z</time>
      </trkpt>
      <trkpt lat="47.49025" lon="6.7511">
        <ele>415</ele>
        <time>2015-05-08T07:49:46.000Z</time>
      </trkpt>
      <trkpt lat="47.49021" lon="6.75109">
        <ele>415</ele>
        <time>2015-05-08T07:49:51.000Z</time>
      </trkpt>
      <trkpt lat="47.4902" lon="6.75109">
        <ele>415</ele>
        <time>2015-05-08T07:49:52.000Z</time>
      </trkpt>
      <trkpt lat="47.49018" lon="6.75103">
        <ele>416</ele>
        <time>2015-05-08T07:50:00.000Z</time>
      </trkpt>
      <trkpt lat="47.49017" lon="6.75103">
        <ele>416</ele>
        <time>2015-05-08T07:50:01.000Z</time>
      </trkpt>
      <trkpt lat="47.49012" lon="6.75104">
        <ele>416</ele>
        <time>2015-05-08T07:50:04.000Z</time>
      </trkpt>
      <trkpt lat="47.49011" lon="6.75104">
        <ele>417</ele>
        <time>2015-05-08T07:50:05.000Z</time>
      </trkpt>
      <trkpt lat="47.49008" lon="6.75107">
        <ele>417</ele>
        <time>2015-05-08T07:50:08.000Z</time>
      </trkpt>
      <trkpt lat="47.49006" lon="6.75107">
        <ele>417</ele>
        <time>2015-05-08T07:50:09.000Z</time>
      </trkpt>
      <trkpt lat="47.49002" lon="6.75105">
        <ele>417</ele>
        <time>2015-05-08T07:50:11.000Z</time>
      </trkpt>
      <trkpt lat="47.49" lon="6.75103">
        <ele>417</ele>
        <time>2015-05-08T07:50:12.000Z</time>
      </trkpt>
      <trkpt lat="47.48998" lon="6.751">
        <ele>426</ele>
        <time>2015-05-08T07:50:14.000Z</time>
      </trkpt>
      <trkpt lat="47.48996" lon="6.75099">
        <ele>426</ele>
        <time>2015-05-08T07:50:15.000Z</time>
      </trkpt>
      <trkpt lat="47.48993" lon="6.75098">
        <ele>426</ele>
        <time>2015-05-08T07:50:17.000Z</time>
      </trkpt>
      <trkpt lat="47.48991" lon="6.75098">
        <ele>426</ele>
        <time>2015-05-08T07:50:18.000Z</time>
      </trkpt>
      <trkpt lat="47.48987" lon="6.75101">
        <ele>427</ele>
        <time>2015-05-08T07:50:20.000Z</time>
      </trkpt>
      <trkpt lat="47.48986" lon="6.75103">
        <ele>427</ele>
        <time>2015-05-08T07:50:21.000Z</time>
      </trkpt>
      <trkpt lat="47.48982" lon="6.75106">
        <ele>428</ele>
        <time>2015-05-08T07:50:26.000Z</time>
      </trkpt>
      <trkpt lat="47.48982" lon="6.75106">
        <ele>428</ele>
        <time>2015-05-08T07:50:27.000Z</time>
      </trkpt>
      <trkpt lat="47.48979" lon="6.75106">
        <ele>428</ele>
        <time>2015-05-08T07:50:28.000Z</time>
      </trkpt>
      <trkpt lat="47.48976" lon="6.75105">
        <ele>429</ele>
        <time>2015-05-08T07:50:29.000Z</time>
      </trkpt>
      <trkpt lat="47.48972" lon="6.75103">
        <ele>429</ele>
        <time>2015-05-08T07:50:30.000Z</time>
      </trkpt>
      <trkpt lat="47.48969" lon="6.75102">
        <ele>430</ele>
        <time>2015-05-08T07:50:31.000Z</time>
      </trkpt>
      <trkpt lat="47.48966" lon="6.75101">
        <ele>430</ele>
        <time>2015-05-08T07:50:32.000Z</time>
      </trkpt>
      <trkpt lat="47.48964" lon="6.751">
        <ele>430</ele>
        <time>2015-05-08T07:50:33.000Z</time>
      </trkpt>
      <trkpt lat="47.48963" lon="6.75105">
        <ele>430</ele>
        <time>2015-05-08T07:50:40.000Z</time>
      </trkpt>
      <trkpt lat="47.48963" lon="6.75107">
        <ele>430</ele>
        <time>2015-05-08T07:50:41.000Z</time>
      </trkpt>
      <trkpt lat="47.4896" lon="6.75103">
        <ele>431</ele>
        <time>2015-05-08T07:51:21.000Z</time>
      </trkpt>
      <trkpt lat="47.48959" lon="6.75102">
        <ele>431</ele>
        <time>2015-05-08T07:51:22.000Z</time>
      </trkpt>
      <trkpt lat="47.48956" lon="6.75099">
        <ele>431</ele>
        <time>2015-05-08T07:51:26.000Z</time>
      </trkpt>
      <trkpt lat="47.48955" lon="6.75098">
        <ele>431</ele>
        <time>2015-05-08T07:51:27.000Z</time>
      </trkpt>
      <trkpt lat="47.48952" lon="6.75093">
        <ele>432</ele>
        <time>2015-05-08T07:51:30.000Z</time>
      </trkpt>
      <trkpt lat="47.4895" lon="6.75092">
        <ele>432</ele>
        <time>2015-05-08T07:51:31.000Z</time>
      </trkpt>
      <trkpt lat="47.48947" lon="6.75088">
        <ele>433</ele>
        <time>2015-05-08T07:51:34.000Z</time>
      </trkpt>
      <trkpt lat="47.48946" lon="6.75087">
        <ele>433</ele>
        <time>2015-05-08T07:51:35.000Z</time>
      </trkpt>
      <trkpt lat="47.48943" lon="6.75083">
        <ele>433</ele>
        <time>2015-05-08T07:51:39.000Z</time>
      </trkpt>
      <trkpt lat="47.48943" lon="6.75082">
        <ele>433</ele>
        <time>2015-05-08T07:51:40.000Z</time>
      </trkpt>
      <trkpt lat="47.48941" lon="6.75076">
        <ele>433</ele>
        <time>2015-05-08T07:51:44.000Z</time>
      </trkpt>
      <trkpt lat="47.4894" lon="6.75075">
        <ele>433</ele>
        <time>2015-05-08T07:51:45.000Z</time>
      </trkpt>
      <trkpt lat="47.48938" lon="6.75071">
        <ele>434</ele>
        <time>2015-05-08T07:51:47.000Z</time>
      </trkpt>
      <trkpt lat="47.48937" lon="6.7507">
        <ele>434</ele>
        <time>2015-05-08T07:51:48.000Z</time>
      </trkpt>
      <trkpt lat="47.48934" lon="6.75067">
        <ele>434</ele>
        <time>2015-05-08T07:51:50.000Z</time>
      </trkpt>
      <trkpt lat="47.48932" lon="6.75066">
        <ele>434</ele>
        <time>2015-05-08T07:51:51.000Z</time>
      </trkpt>
      <trkpt lat="47.48928" lon="6.75062">
        <ele>434</ele>
        <time>2015-05-08T07:51:54.000Z</time>
      </trkpt>
      <trkpt lat="47.48927" lon="6.75062">
        <ele>434</ele>
        <time>2015-05-08T07:51:55.000Z</time>
      </trkpt>
      <trkpt lat="47.48924" lon="6.75059">
        <ele>435</ele>
        <time>2015-05-08T07:51:59.000Z</time>
      </trkpt>
      <trkpt lat="47.48923" lon="6.75057">
        <ele>435</ele>
        <time>2015-05-08T07:52:00.000Z</time>
      </trkpt>
      <trkpt lat="47.48923" lon="6.75051">
        <ele>434</ele>
        <time>2015-05-08T07:52:09.000Z</time>
      </trkpt>
      <trkpt lat="47.48922" lon="6.75051">
        <ele>434</ele>
        <time>2015-05-08T07:52:10.000Z</time>
      </trkpt>
      <trkpt lat="47.4892" lon="6.75047">
        <ele>434</ele>
        <time>2015-05-08T07:52:13.000Z</time>
      </trkpt>
      <trkpt lat="47.48919" lon="6.75045">
        <ele>434</ele>
        <time>2015-05-08T07:52:14.000Z</time>
      </trkpt>
      <trkpt lat="47.48919" lon="6.75039">
        <ele>435</ele>
        <time>2015-05-08T07:52:17.000Z</time>
      </trkpt>
      <trkpt lat="47.48919" lon="6.75037">
        <ele>435</ele>
        <time>2015-05-08T07:52:18.000Z</time>
      </trkpt>
      <trkpt lat="47.48917" lon="6.7503">
        <ele>435</ele>
        <time>2015-05-08T07:52:21.000Z</time>
      </trkpt>
      <trkpt lat="47.48917" lon="6.75028">
        <ele>435</ele>
        <time>2015-05-08T07:52:22.000Z</time>
      </trkpt>
      <trkpt lat="47.48915" lon="6.75022">
        <ele>445</ele>
        <time>2015-05-08T07:52:24.000Z</time>
      </trkpt>
      <trkpt lat="47.48914" lon="6.7502">
        <ele>445</ele>
        <time>2015-05-08T07:52:25.000Z</time>
      </trkpt>
      <trkpt lat="47.48913" lon="6.75015">
        <ele>444</ele>
        <time>2015-05-08T07:52:27.000Z</time>
      </trkpt>
      <trkpt lat="47.48912" lon="6.75013">
        <ele>444</ele>
        <time>2015-05-08T07:52:28.000Z</time>
      </trkpt>
      <trkpt lat="47.48911" lon="6.75009">
        <ele>444</ele>
        <time>2015-05-08T07:52:30.000Z</time>
      </trkpt>
      <trkpt lat="47.4891" lon="6.75007">
        <ele>444</ele>
        <time>2015-05-08T07:52:31.000Z</time>
      </trkpt>
      <trkpt lat="47.48908" lon="6.75002">
        <ele>444</ele>
        <time>2015-05-08T07:52:33.000Z</time>
      </trkpt>
      <trkpt lat="47.48907" lon="6.75">
        <ele>444</ele>
        <time>2015-05-08T07:52:34.000Z</time>
      </trkpt>
      <trkpt lat="47.48905" lon="6.74996">
        <ele>444</ele>
        <time>2015-05-08T07:52:36.000Z</time>
      </trkpt>
      <trkpt lat="47.48904" lon="6.74995">
        <ele>444</ele>
        <time>2015-05-08T07:52:37.000Z</time>
      </trkpt>
      <trkpt lat="47.48902" lon="6.7499">
        <ele>444</ele>
        <time>2015-05-08T07:52:39.000Z</time>
      </trkpt>
      <trkpt lat="47.48901" lon="6.74988">
        <ele>444</ele>
        <time>2015-05-08T07:52:40.000Z</time>
      </trkpt>
      <trkpt lat="47.489" lon="6.74984">
        <ele>444</ele>
        <time>2015-05-08T07:52:42.000Z</time>
      </trkpt>
      <trkpt lat="47.489" lon="6.74982">
        <ele>444</ele>
        <time>2015-05-08T07:52:43.000Z</time>
      </trkpt>
      <trkpt lat="47.48896" lon="6.7498">
        <ele>445</ele>
        <time>2015-05-08T07:52:46.000Z</time>
      </trkpt>
      <trkpt lat="47.48895" lon="6.7498">
        <ele>445</ele>
        <time>2015-05-08T07:52:47.000Z</time>
      </trkpt>
      <trkpt lat="47.48891" lon="6.74981">
        <ele>445</ele>
        <time>2015-05-08T07:52:52.000Z</time>
      </trkpt>
      <trkpt lat="47.4889" lon="6.74982">
        <ele>445</ele>
        <time>2015-05-08T07:52:53.000Z</time>
      </trkpt>
      <trkpt lat="47.48886" lon="6.74983">
        <ele>446</ele>
        <time>2015-05-08T07:55:28.000Z</time>
      </trkpt>
      <trkpt lat="47.48885" lon="6.74983">
        <ele>446</ele>
        <time>2015-05-08T07:55:29.000Z</time>
      </trkpt>
      <trkpt lat="47.48883" lon="6.74988">
        <ele>446</ele>
        <time>2015-05-08T07:55:52.000Z</time>
      </trkpt>
      <trkpt lat="47.48882" lon="6.74989">
        <ele>446</ele>
        <time>2015-05-08T07:55:53.000Z</time>
      </trkpt>
      <trkpt lat="47.48879" lon="6.74989">
        <ele>446</ele>
        <time>2015-05-08T07:55:55.000Z</time>
      </trkpt>
      <trkpt lat="47.48877" lon="6.74989">
        <ele>446</ele>
        <time>2015-05-08T07:55:56.000Z</time>
      </trkpt>
      <trkpt lat="47.48874" lon="6.7499">
        <ele>447</ele>
        <time>2015-05-08T07:55:57.000Z</time>
      </trkpt>
      <trkpt lat="47.48872" lon="6.74991">
        <ele>447</ele>
        <time>2015-05-08T07:55:58.000Z</time>
      </trkpt>
      <trkpt lat="47.48868" lon="6.74991">
        <ele>447</ele>
        <time>2015-05-08T07:56:00.000Z</time>
      </trkpt>
      <trkpt lat="47.48866" lon="6.74991">
        <ele>447</ele>
        <time>2015-05-08T07:56:01.000Z</time>
      </trkpt>
      <trkpt lat="47.48863" lon="6.74991">
        <ele>448</ele>
        <time>2015-05-08T07:56:04.000Z</time>
      </trkpt>
      <trkpt lat="47.48862" lon="6.74992">
        <ele>448</ele>
        <time>2015-05-08T07:56:05.000Z</time>
      </trkpt>
      <trkpt lat="47.48858" lon="6.74992">
        <ele>448</ele>
        <time>2015-05-08T07:56:07.000Z</time>
      </trkpt>
      <trkpt lat="47.48856" lon="6.74992">
        <ele>449</ele>
        <time>2015-05-08T07:56:08.000Z</time>
      </trkpt>
      <trkpt lat="47.48851" lon="6.74992">
        <ele>449</ele>
        <time>2015-05-08T07:56:10.000Z</time>
      </trkpt>
      <trkpt lat="47.48849" lon="6.74992">
        <ele>449</ele>
        <time>2015-05-08T07:56:11.000Z</time>
      </trkpt>
      <trkpt lat="47.48845" lon="6.7499">
        <ele>450</ele>
        <time>2015-05-08T07:56:13.000Z</time>
      </trkpt>
      <trkpt lat="47.48843" lon="6.74989">
        <ele>450</ele>
        <time>2015-05-08T07:56:14.000Z</time>
      </trkpt>
      <trkpt lat="47.48839" lon="6.74987">
        <ele>450</ele>
        <time>2015-05-08T07:56:16.000Z</time>
      </trkpt>
      <trkpt lat="47.48838" lon="6.74985">
        <ele>450</ele>
        <time>2015-05-08T07:56:17.000Z</time>
      </trkpt>
      <trkpt lat="47.48835" lon="6.74983">
        <ele>450</ele>
        <time>2015-05-08T07:56:18.000Z</time>
      </trkpt>
      <trkpt lat="47.48833" lon="6.74982">
        <ele>450</ele>
        <time>2015-05-08T07:56:19.000Z</time>
      </trkpt>
      <trkpt lat="47.4883" lon="6.7498">
        <ele>454</ele>
        <time>2015-05-08T07:56:21.000Z</time>
      </trkpt>
      <trkpt lat="47.48828" lon="6.74979">
        <ele>454</ele>
        <time>2015-05-08T07:56:22.000Z</time>
      </trkpt>
      <trkpt lat="47.48824" lon="6.74977">
        <ele>454</ele>
        <time>2015-05-08T07:56:24.000Z</time>
      </trkpt>
      <trkpt lat="47.48823" lon="6.74976">
        <ele>454</ele>
        <time>2015-05-08T07:56:25.000Z</time>
      </trkpt>
      <trkpt lat="47.4882" lon="6.74976">
        <ele>454</ele>
        <time>2015-05-08T07:56:26.000Z</time>
      </trkpt>
      <trkpt lat="47.48817" lon="6.74975">
        <ele>454</ele>
        <time>2015-05-08T07:56:27.000Z</time>
      </trkpt>
      <trkpt lat="47.48814" lon="6.74975">
        <ele>455</ele>
        <time>2015-05-08T07:56:28.000Z</time>
      </trkpt>
      <trkpt lat="47.48811" lon="6.74976">
        <ele>455</ele>
        <time>2015-05-08T07:56:29.000Z</time>
      </trkpt>
      <trkpt lat="47.48809" lon="6.74977">
        <ele>455</ele>
        <time>2015-05-08T07:56:30.000Z</time>
      </trkpt>
      <trkpt lat="47.48806" lon="6.74978">
        <ele>455</ele>
        <time>2015-05-08T07:56:31.000Z</time>
      </trkpt>
      <trkpt lat="47.48803" lon="6.7498">
        <ele>455</ele>
        <time>2015-05-08T07:56:32.000Z</time>
      </trkpt>
      <trkpt lat="47.488" lon="6.74983">
        <ele>455</ele>
        <time>2015-05-08T07:56:33.000Z</time>
      </trkpt>
      <trkpt lat="47.48798" lon="6.74985">
        <ele>455</ele>
        <time>2015-05-08T07:56:34.000Z</time>
      </trkpt>
      <trkpt lat="47.48796" lon="6.74988">
        <ele>455</ele>
        <time>2015-05-08T07:56:35.000Z</time>
      </trkpt>
      <trkpt lat="47.48794" lon="6.74993">
        <ele>455</ele>
        <time>2015-05-08T07:56:37.000Z</time>
      </trkpt>
      <trkpt lat="47.48794" lon="6.74996">
        <ele>455</ele>
        <time>2015-05-08T07:56:38.000Z</time>
      </trkpt>
      <trkpt lat="47.48791" lon="6.75001">
        <ele>456</ele>
        <time>2015-05-08T07:56:41.000Z</time>
      </trkpt>
      <trkpt lat="47.4879" lon="6.75003">
        <ele>457</ele>
        <time>2015-05-08T07:56:42.000Z</time>
      </trkpt>
      <trkpt lat="47.48789" lon="6.75007">
        <ele>457</ele>
        <time>2015-05-08T07:56:44.000Z</time>
      </trkpt>
      <trkpt lat="47.48787" lon="6.7501">
        <ele>457</ele>
        <time>2015-05-08T07:56:45.000Z</time>
      </trkpt>
      <trkpt lat="47.48786" lon="6.75015">
        <ele>457</ele>
        <time>2015-05-08T07:56:46.000Z</time>
      </trkpt>
      <trkpt lat="47.48785" lon="6.7502">
        <ele>457</ele>
        <time>2015-05-08T07:56:47.000Z</time>
      </trkpt>
      <trkpt lat="47.48783" lon="6.75026">
        <ele>457</ele>
        <time>2015-05-08T07:56:48.000Z</time>
      </trkpt>
      <trkpt lat="47.48782" lon="6.7503">
        <ele>457</ele>
        <time>2015-05-08T07:56:49.000Z</time>
      </trkpt>
      <trkpt lat="47.48781" lon="6.75034">
        <ele>457</ele>
        <time>2015-05-08T07:56:50.000Z</time>
      </trkpt>
      <trkpt lat="47.4878" lon="6.75037">
        <ele>457</ele>
        <time>2015-05-08T07:56:51.000Z</time>
      </trkpt>
      <trkpt lat="47.48779" lon="6.75041">
        <ele>457</ele>
        <time>2015-05-08T07:56:53.000Z</time>
      </trkpt>
      <trkpt lat="47.48778" lon="6.75044">
        <ele>457</ele>
        <time>2015-05-08T07:56:54.000Z</time>
      </trkpt>
      <trkpt lat="47.48776" lon="6.75049">
        <ele>457</ele>
        <time>2015-05-08T07:56:56.000Z</time>
      </trkpt>
      <trkpt lat="47.48775" lon="6.75051">
        <ele>457</ele>
        <time>2015-05-08T07:56:57.000Z</time>
      </trkpt>
      <trkpt lat="47.48775" lon="6.75055">
        <ele>457</ele>
        <time>2015-05-08T07:56:58.000Z</time>
      </trkpt>
      <trkpt lat="47.48775" lon="6.75059">
        <ele>457</ele>
        <time>2015-05-08T07:56:59.000Z</time>
      </trkpt>
      <trkpt lat="47.48775" lon="6.75064">
        <ele>457</ele>
        <time>2015-05-08T07:57:00.000Z</time>
      </trkpt>
      <trkpt lat="47.48775" lon="6.75068">
        <ele>457</ele>
        <time>2015-05-08T07:57:01.000Z</time>
      </trkpt>
      <trkpt lat="47.48774" lon="6.75072">
        <ele>457</ele>
        <time>2015-05-08T07:57:02.000Z</time>
      </trkpt>
      <trkpt lat="47.48773" lon="6.75076">
        <ele>457</ele>
        <time>2015-05-08T07:57:03.000Z</time>
      </trkpt>
      <trkpt lat="47.48771" lon="6.75079">
        <ele>457</ele>
        <time>2015-05-08T07:57:04.000Z</time>
      </trkpt>
      <trkpt lat="47.48769" lon="6.75083">
        <ele>457</ele>
        <time>2015-05-08T07:57:05.000Z</time>
      </trkpt>
      <trkpt lat="47.48766" lon="6.75087">
        <ele>457</ele>
        <time>2015-05-08T07:57:06.000Z</time>
      </trkpt>
      <trkpt lat="47.48764" lon="6.75091">
        <ele>457</ele>
        <time>2015-05-08T07:57:07.000Z</time>
      </trkpt>
      <trkpt lat="47.48762" lon="6.75096">
        <ele>457</ele>
        <time>2015-05-08T07:57:08.000Z</time>
      </trkpt>
      <trkpt lat="47.4876" lon="6.75102">
        <ele>457</ele>
        <time>2015-05-08T07:57:09.000Z</time>
      </trkpt>
      <trkpt lat="47.48758" lon="6.75107">
        <ele>457</ele>
        <time>2015-05-08T07:57:10.000Z</time>
      </trkpt>
      <trkpt lat="47.48756" lon="6.75112">
        <ele>457</ele>
        <time>2015-05-08T07:57:11.000Z</time>
      </trkpt>
      <trkpt lat="47.48754" lon="6.75118">
        <ele>457</ele>
        <time>2015-05-08T07:57:12.000Z</time>
      </trkpt>
      <trkpt lat="47.48753" lon="6.75125">
        <ele>457</ele>
        <time>2015-05-08T07:57:13.000Z</time>
      </trkpt>
      <trkpt lat="47.48752" lon="6.75131">
        <ele>457</ele>
        <time>2015-05-08T07:57:14.000Z</time>
      </trkpt>
      <trkpt lat="47.48751" lon="6.75138">
        <ele>457</ele>
        <time>2015-05-08T07:57:15.000Z</time>
      </trkpt>
      <trkpt lat="47.48751" lon="6.75145">
        <ele>457</ele>
        <time>2015-05-08T07:57:16.000Z</time>
      </trkpt>
      <trkpt lat="47.48751" lon="6.75151">
        <ele>456</ele>
        <time>2015-05-08T07:57:17.000Z</time>
      </trkpt>
      <trkpt lat="47.4875" lon="6.75157">
        <ele>456</ele>
        <time>2015-05-08T07:57:18.000Z</time>
      </trkpt>
      <trkpt lat="47.48749" lon="6.75165">
        <ele>455</ele>
        <time>2015-05-08T07:57:19.000Z</time>
      </trkpt>
      <trkpt lat="47.48743" lon="6.75197">
        <ele>450</ele>
        <time>2015-05-08T07:57:20.000Z</time>
      </trkpt>
      <trkpt lat="47.48741" lon="6.75207">
        <ele>450</ele>
        <time>2015-05-08T07:57:21.000Z</time>
      </trkpt>
      <trkpt lat="47.48742" lon="6.75211">
        <ele>450</ele>
        <time>2015-05-08T07:57:22.000Z</time>
      </trkpt>
      <trkpt lat="47.48742" lon="6.75215">
        <ele>449</ele>
        <time>2015-05-08T07:57:23.000Z</time>
      </trkpt>
      <trkpt lat="47.48743" lon="6.75218">
        <ele>450</ele>
        <time>2015-05-08T07:57:24.000Z</time>
      </trkpt>
      <trkpt lat="47.48743" lon="6.75222">
        <ele>450</ele>
        <time>2015-05-08T07:57:25.000Z</time>
      </trkpt>
      <trkpt lat="47.48743" lon="6.75228">
        <ele>450</ele>
        <time>2015-05-08T07:57:26.000Z</time>
      </trkpt>
      <trkpt lat="47.48742" lon="6.75231">
        <ele>450</ele>
        <time>2015-05-08T07:57:27.000Z</time>
      </trkpt>
      <trkpt lat="47.48741" lon="6.75236">
        <ele>451</ele>
        <time>2015-05-08T07:57:28.000Z</time>
      </trkpt>
      <trkpt lat="47.48741" lon="6.7524">
        <ele>451</ele>
        <time>2015-05-08T07:57:29.000Z</time>
      </trkpt>
      <trkpt lat="47.4874" lon="6.75246">
        <ele>451</ele>
        <time>2015-05-08T07:57:31.000Z</time>
      </trkpt>
      <trkpt lat="47.4874" lon="6.75249">
        <ele>451</ele>
        <time>2015-05-08T07:57:32.000Z</time>
      </trkpt>
      <trkpt lat="47.48739" lon="6.75254">
        <ele>450</ele>
        <time>2015-05-08T07:57:33.000Z</time>
      </trkpt>
      <trkpt lat="47.48738" lon="6.75259">
        <ele>449</ele>
        <time>2015-05-08T07:57:34.000Z</time>
      </trkpt>
      <trkpt lat="47.48737" lon="6.75265">
        <ele>449</ele>
        <time>2015-05-08T07:57:35.000Z</time>
      </trkpt>
      <trkpt lat="47.48736" lon="6.75271">
        <ele>448</ele>
        <time>2015-05-08T07:57:36.000Z</time>
      </trkpt>
      <trkpt lat="47.48734" lon="6.75277">
        <ele>447</ele>
        <time>2015-05-08T07:57:37.000Z</time>
      </trkpt>
      <trkpt lat="47.48732" lon="6.75284">
        <ele>446</ele>
        <time>2015-05-08T07:57:38.000Z</time>
      </trkpt>
      <trkpt lat="47.4873" lon="6.75291">
        <ele>446</ele>
        <time>2015-05-08T07:57:39.000Z</time>
      </trkpt>
      <trkpt lat="47.48728" lon="6.75298">
        <ele>446</ele>
        <time>2015-05-08T07:57:40.000Z</time>
      </trkpt>
      <trkpt lat="47.48726" lon="6.75305">
        <ele>446</ele>
        <time>2015-05-08T07:57:41.000Z</time>
      </trkpt>
      <trkpt lat="47.48726" lon="6.75311">
        <ele>446</ele>
        <time>2015-05-08T07:57:42.000Z</time>
      </trkpt>
      <trkpt lat="47.48725" lon="6.75317">
        <ele>446</ele>
        <time>2015-05-08T07:57:43.000Z</time>
      </trkpt>
      <trkpt lat="47.48725" lon="6.75322">
        <ele>446</ele>
        <time>2015-05-08T07:57:44.000Z</time>
      </trkpt>
      <trkpt lat="47.48725" lon="6.75328">
        <ele>446</ele>
        <time>2015-05-08T07:57:45.000Z</time>
      </trkpt>
      <trkpt lat="47.48724" lon="6.75333">
        <ele>446</ele>
        <time>2015-05-08T07:57:46.000Z</time>
      </trkpt>
      <trkpt lat="47.48723" lon="6.75339">
        <ele>443</ele>
        <time>2015-05-08T07:57:47.000Z</time>
      </trkpt>
      <trkpt lat="47.48722" lon="6.75345">
        <ele>443</ele>
        <time>2015-05-08T07:57:48.000Z</time>
      </trkpt>
      <trkpt lat="47.4872" lon="6.7535">
        <ele>442</ele>
        <time>2015-05-08T07:57:49.000Z</time>
      </trkpt>
      <trkpt lat="47.48719" lon="6.75356">
        <ele>442</ele>
        <time>2015-05-08T07:57:50.000Z</time>
      </trkpt>
      <trkpt lat="47.48718" lon="6.75362">
        <ele>442</ele>
        <time>2015-05-08T07:57:51.000Z</time>
      </trkpt>
      <trkpt lat="47.48717" lon="6.75368">
        <ele>441</ele>
        <time>2015-05-08T07:57:52.000Z</time>
      </trkpt>
      <trkpt lat="47.48716" lon="6.75373">
        <ele>441</ele>
        <time>2015-05-08T07:57:53.000Z</time>
      </trkpt>
      <trkpt lat="47.48716" lon="6.75378">
        <ele>441</ele>
        <time>2015-05-08T07:57:54.000Z</time>
      </trkpt>
      <trkpt lat="47.48715" lon="6.75384">
        <ele>440</ele>
        <time>2015-05-08T07:57:55.000Z</time>
      </trkpt>
      <trkpt lat="47.48714" lon="6.75389">
        <ele>440</ele>
        <time>2015-05-08T07:57:56.000Z</time>
      </trkpt>
      <trkpt lat="47.48713" lon="6.75394">
        <ele>440</ele>
        <time>2015-05-08T07:57:57.000Z</time>
      </trkpt>
      <trkpt lat="47.48712" lon="6.75398">
        <ele>440</ele>
        <time>2015-05-08T07:57:58.000Z</time>
      </trkpt>
      <trkpt lat="47.48712" lon="6.75402">
        <ele>440</ele>
        <time>2015-05-08T07:57:59.000Z</time>
      </trkpt>
      <trkpt lat="47.48711" lon="6.75406">
        <ele>440</ele>
        <time>2015-05-08T07:58:00.000Z</time>
      </trkpt>
      <trkpt lat="47.48711" lon="6.7541">
        <ele>440</ele>
        <time>2015-05-08T07:58:01.000Z</time>
      </trkpt>
      <trkpt lat="47.4871" lon="6.75413">
        <ele>439</ele>
        <time>2015-05-08T07:58:02.000Z</time>
      </trkpt>
      <trkpt lat="47.4871" lon="6.75417">
        <ele>435</ele>
        <time>2015-05-08T07:58:03.000Z</time>
      </trkpt>
      <trkpt lat="47.48709" lon="6.75422">
        <ele>435</ele>
        <time>2015-05-08T07:58:04.000Z</time>
      </trkpt>
      <trkpt lat="47.48709" lon="6.75427">
        <ele>435</ele>
        <time>2015-05-08T07:58:05.000Z</time>
      </trkpt>
      <trkpt lat="47.48708" lon="6.75432">
        <ele>435</ele>
        <time>2015-05-08T07:58:06.000Z</time>
      </trkpt>
      <trkpt lat="47.48707" lon="6.75439">
        <ele>435</ele>
        <time>2015-05-08T07:58:07.000Z</time>
      </trkpt>
      <trkpt lat="47.48706" lon="6.75448">
        <ele>434</ele>
        <time>2015-05-08T07:58:08.000Z</time>
      </trkpt>
      <trkpt lat="47.48705" lon="6.75456">
        <ele>434</ele>
        <time>2015-05-08T07:58:09.000Z</time>
      </trkpt>
      <trkpt lat="47.48704" lon="6.75465">
        <ele>434</ele>
        <time>2015-05-08T07:58:10.000Z</time>
      </trkpt>
      <trkpt lat="47.48704" lon="6.75473">
        <ele>433</ele>
        <time>2015-05-08T07:58:11.000Z</time>
      </trkpt>
      <trkpt lat="47.48703" lon="6.7548">
        <ele>433</ele>
        <time>2015-05-08T07:58:12.000Z</time>
      </trkpt>
      <trkpt lat="47.48702" lon="6.75487">
        <ele>433</ele>
        <time>2015-05-08T07:58:13.000Z</time>
      </trkpt>
      <trkpt lat="47.48702" lon="6.75493">
        <ele>432</ele>
        <time>2015-05-08T07:58:14.000Z</time>
      </trkpt>
      <trkpt lat="47.48701" lon="6.755">
        <ele>432</ele>
        <time>2015-05-08T07:58:15.000Z</time>
      </trkpt>
      <trkpt lat="47.48701" lon="6.75524">
        <ele>428</ele>
        <time>2015-05-08T07:58:16.000Z</time>
      </trkpt>
      <trkpt lat="47.487" lon="6.75534">
        <ele>428</ele>
        <time>2015-05-08T07:58:17.000Z</time>
      </trkpt>
      <trkpt lat="47.48697" lon="6.7554">
        <ele>427</ele>
        <time>2015-05-08T07:58:18.000Z</time>
      </trkpt>
      <trkpt lat="47.48695" lon="6.75545">
        <ele>427</ele>
        <time>2015-05-08T07:58:19.000Z</time>
      </trkpt>
      <trkpt lat="47.48695" lon="6.75548">
        <ele>427</ele>
        <time>2015-05-08T07:58:20.000Z</time>
      </trkpt>
      <trkpt lat="47.48694" lon="6.75555">
        <ele>427</ele>
        <time>2015-05-08T07:58:21.000Z</time>
      </trkpt>
      <trkpt lat="47.48694" lon="6.75559">
        <ele>426</ele>
        <time>2015-05-08T07:58:22.000Z</time>
      </trkpt>
      <trkpt lat="47.48693" lon="6.75564">
        <ele>426</ele>
        <time>2015-05-08T07:58:23.000Z</time>
      </trkpt>
      <trkpt lat="47.48693" lon="6.7557">
        <ele>426</ele>
        <time>2015-05-08T07:58:24.000Z</time>
      </trkpt>
      <trkpt lat="47.48692" lon="6.75575">
        <ele>426</ele>
        <time>2015-05-08T07:58:25.000Z</time>
      </trkpt>
      <trkpt lat="47.48691" lon="6.7558">
        <ele>425</ele>
        <time>2015-05-08T07:58:26.000Z</time>
      </trkpt>
      <trkpt lat="47.4869" lon="6.75587">
        <ele>422</ele>
        <time>2015-05-08T07:58:27.000Z</time>
      </trkpt>
      <trkpt lat="47.48688" lon="6.75593">
        <ele>422</ele>
        <time>2015-05-08T07:58:28.000Z</time>
      </trkpt>
      <trkpt lat="47.48687" lon="6.756">
        <ele>422</ele>
        <time>2015-05-08T07:58:29.000Z</time>
      </trkpt>
      <trkpt lat="47.48686" lon="6.75607">
        <ele>422</ele>
        <time>2015-05-08T07:58:30.000Z</time>
      </trkpt>
      <trkpt lat="47.48684" lon="6.75614">
        <ele>422</ele>
        <time>2015-05-08T07:58:31.000Z</time>
      </trkpt>
      <trkpt lat="47.48683" lon="6.7562">
        <ele>422</ele>
        <time>2015-05-08T07:58:32.000Z</time>
      </trkpt>
      <trkpt lat="47.48683" lon="6.75626">
        <ele>421</ele>
        <time>2015-05-08T07:58:33.000Z</time>
      </trkpt>
      <trkpt lat="47.48682" lon="6.75631">
        <ele>421</ele>
        <time>2015-05-08T07:58:34.000Z</time>
      </trkpt>
      <trkpt lat="47.48682" lon="6.75637">
        <ele>421</ele>
        <time>2015-05-08T07:58:36.000Z</time>
      </trkpt>
      <trkpt lat="47.48682" lon="6.75639">
        <ele>421</ele>
        <time>2015-05-08T07:58:37.000Z</time>
      </trkpt>
      <trkpt lat="47.48682" lon="6.75645">
        <ele>420</ele>
        <time>2015-05-08T07:58:43.000Z</time>
      </trkpt>
      <trkpt lat="47.48683" lon="6.75646">
        <ele>420</ele>
        <time>2015-05-08T07:58:44.000Z</time>
      </trkpt>
      <trkpt lat="47.48683" lon="6.7565">
        <ele>420</ele>
        <time>2015-05-08T07:58:46.000Z</time>
      </trkpt>
      <trkpt lat="47.48683" lon="6.75653">
        <ele>420</ele>
        <time>2015-05-08T07:58:47.000Z</time>
      </trkpt>
      <trkpt lat="47.48683" lon="6.75656">
        <ele>420</ele>
        <time>2015-05-08T07:58:48.000Z</time>
      </trkpt>
      <trkpt lat="47.48684" lon="6.7566">
        <ele>420</ele>
        <time>2015-05-08T07:58:49.000Z</time>
      </trkpt>
      <trkpt lat="47.48685" lon="6.75663">
        <ele>420</ele>
        <time>2015-05-08T07:58:50.000Z</time>
      </trkpt>
      <trkpt lat="47.48687" lon="6.75667">
        <ele>420</ele>
        <time>2015-05-08T07:58:51.000Z</time>
      </trkpt>
      <trkpt lat="47.4869" lon="6.7567">
        <ele>420</ele>
        <time>2015-05-08T07:58:52.000Z</time>
      </trkpt>
      <trkpt lat="47.48693" lon="6.75673">
        <ele>420</ele>
        <time>2015-05-08T07:58:53.000Z</time>
      </trkpt>
      <trkpt lat="47.48691" lon="6.7568">
        <ele>420</ele>
        <time>2015-05-08T07:59:02.000Z</time>
      </trkpt>
      <trkpt lat="47.48691" lon="6.7568">
        <ele>420</ele>
        <time>2015-05-08T07:59:03.000Z</time>
      </trkpt>
      <trkpt lat="47.48688" lon="6.75681">
        <ele>420</ele>
        <time>2015-05-08T07:59:09.000Z</time>
      </trkpt>
      <trkpt lat="47.48686" lon="6.75684">
        <ele>420</ele>
        <time>2015-05-08T07:59:10.000Z</time>
      </trkpt>
      <trkpt lat="47.48685" lon="6.75687">
        <ele>420</ele>
        <time>2015-05-08T07:59:11.000Z</time>
      </trkpt>
      <trkpt lat="47.48682" lon="6.7569">
        <ele>420</ele>
        <time>2015-05-08T07:59:12.000Z</time>
      </trkpt>
      <trkpt lat="47.48679" lon="6.75692">
        <ele>420</ele>
        <time>2015-05-08T07:59:13.000Z</time>
      </trkpt>
      <trkpt lat="47.48677" lon="6.75695">
        <ele>420</ele>
        <time>2015-05-08T07:59:14.000Z</time>
      </trkpt>
      <trkpt lat="47.48674" lon="6.75697">
        <ele>420</ele>
        <time>2015-05-08T07:59:15.000Z</time>
      </trkpt>
      <trkpt lat="47.48672" lon="6.757">
        <ele>420</ele>
        <time>2015-05-08T07:59:16.000Z</time>
      </trkpt>
      <trkpt lat="47.4867" lon="6.75702">
        <ele>420</ele>
        <time>2015-05-08T07:59:17.000Z</time>
      </trkpt>
      <trkpt lat="47.48667" lon="6.75704">
        <ele>420</ele>
        <time>2015-05-08T07:59:18.000Z</time>
      </trkpt>
      <trkpt lat="47.48665" lon="6.75707">
        <ele>411</ele>
        <time>2015-05-08T07:59:19.000Z</time>
      </trkpt>
      <trkpt lat="47.48662" lon="6.75709">
        <ele>411</ele>
        <time>2015-05-08T07:59:20.000Z</time>
      </trkpt>
      <trkpt lat="47.48658" lon="6.75713">
        <ele>411</ele>
        <time>2015-05-08T07:59:21.000Z</time>
      </trkpt>
      <trkpt lat="47.48655" lon="6.75716">
        <ele>411</ele>
        <time>2015-05-08T07:59:22.000Z</time>
      </trkpt>
      <trkpt lat="47.48652" lon="6.7572">
        <ele>411</ele>
        <time>2015-05-08T07:59:23.000Z</time>
      </trkpt>
      <trkpt lat="47.48649" lon="6.75724">
        <ele>411</ele>
        <time>2015-05-08T07:59:24.000Z</time>
      </trkpt>
      <trkpt lat="47.48646" lon="6.75728">
        <ele>411</ele>
        <time>2015-05-08T07:59:25.000Z</time>
      </trkpt>
      <trkpt lat="47.48643" lon="6.75731">
        <ele>411</ele>
        <time>2015-05-08T07:59:26.000Z</time>
      </trkpt>
      <trkpt lat="47.48641" lon="6.75734">
        <ele>410</ele>
        <time>2015-05-08T07:59:27.000Z</time>
      </trkpt>
      <trkpt lat="47.48638" lon="6.75738">
        <ele>410</ele>
        <time>2015-05-08T07:59:28.000Z</time>
      </trkpt>
      <trkpt lat="47.48636" lon="6.75741">
        <ele>410</ele>
        <time>2015-05-08T07:59:29.000Z</time>
      </trkpt>
      <trkpt lat="47.48635" lon="6.75744">
        <ele>410</ele>
        <time>2015-05-08T07:59:30.000Z</time>
      </trkpt>
      <trkpt lat="47.48633" lon="6.75746">
        <ele>409</ele>
        <time>2015-05-08T07:59:31.000Z</time>
      </trkpt>
      <trkpt lat="47.48631" lon="6.75748">
        <ele>409</ele>
        <time>2015-05-08T07:59:32.000Z</time>
      </trkpt>
      <trkpt lat="47.48627" lon="6.75749">
        <ele>408</ele>
        <time>2015-05-08T07:59:34.000Z</time>
      </trkpt>
      <trkpt lat="47.48625" lon="6.75749">
        <ele>408</ele>
        <time>2015-05-08T07:59:35.000Z</time>
      </trkpt>
      <trkpt lat="47.48623" lon="6.75748">
        <ele>408</ele>
        <time>2015-05-08T07:59:36.000Z</time>
      </trkpt>
      <trkpt lat="47.4862" lon="6.75748">
        <ele>407</ele>
        <time>2015-05-08T07:59:37.000Z</time>
      </trkpt>
      <trkpt lat="47.48616" lon="6.75748">
        <ele>406</ele>
        <time>2015-05-08T07:59:39.000Z</time>
      </trkpt>
      <trkpt lat="47.48613" lon="6.75748">
        <ele>406</ele>
        <time>2015-05-08T07:59:40.000Z</time>
      </trkpt>
      <trkpt lat="47.48611" lon="6.75749">
        <ele>406</ele>
        <time>2015-05-08T07:59:41.000Z</time>
      </trkpt>
      <trkpt lat="47.48608" lon="6.75749">
        <ele>405</ele>
        <time>2015-05-08T07:59:42.000Z</time>
      </trkpt>
      <trkpt lat="47.48604" lon="6.75748">
        <ele>404</ele>
        <time>2015-05-08T07:59:44.000Z</time>
      </trkpt>
      <trkpt lat="47.48603" lon="6.75747">
        <ele>404</ele>
        <time>2015-05-08T07:59:45.000Z</time>
      </trkpt>
      <trkpt lat="47.486" lon="6.75746">
        <ele>404</ele>
        <time>2015-05-08T07:59:47.000Z</time>
      </trkpt>
      <trkpt lat="47.48598" lon="6.75745">
        <ele>403</ele>
        <time>2015-05-08T07:59:48.000Z</time>
      </trkpt>
      <trkpt lat="47.48594" lon="6.75744">
        <ele>402</ele>
        <time>2015-05-08T07:59:50.000Z</time>
      </trkpt>
      <trkpt lat="47.48592" lon="6.75743">
        <ele>402</ele>
        <time>2015-05-08T07:59:51.000Z</time>
      </trkpt>
      <trkpt lat="47.4859" lon="6.75742">
        <ele>402</ele>
        <time>2015-05-08T07:59:52.000Z</time>
      </trkpt>
      <trkpt lat="47.48588" lon="6.7574">
        <ele>402</ele>
        <time>2015-05-08T07:59:53.000Z</time>
      </trkpt>
      <trkpt lat="47.48585" lon="6.75737">
        <ele>402</ele>
        <time>2015-05-08T07:59:55.000Z</time>
      </trkpt>
      <trkpt lat="47.48582" lon="6.75736">
        <ele>395</ele>
        <time>2015-05-08T07:59:56.000Z</time>
      </trkpt>
      <trkpt lat="47.48579" lon="6.75736">
        <ele>395</ele>
        <time>2015-05-08T07:59:58.000Z</time>
      </trkpt>
      <trkpt lat="47.48577" lon="6.75736">
        <ele>395</ele>
        <time>2015-05-08T07:59:59.000Z</time>
      </trkpt>
      <trkpt lat="47.48573" lon="6.75736">
        <ele>394</ele>
        <time>2015-05-08T08:00:02.000Z</time>
      </trkpt>
      <trkpt lat="47.48572" lon="6.75735">
        <ele>394</ele>
        <time>2015-05-08T08:00:03.000Z</time>
      </trkpt>
      <trkpt lat="47.48571" lon="6.75729">
        <ele>393</ele>
        <time>2015-05-08T08:00:14.000Z</time>
      </trkpt>
      <trkpt lat="47.48572" lon="6.75726">
        <ele>393</ele>
        <time>2015-05-08T08:00:15.000Z</time>
      </trkpt>
      <trkpt lat="47.48572" lon="6.7572">
        <ele>393</ele>
        <time>2015-05-08T08:00:17.000Z</time>
      </trkpt>
      <trkpt lat="47.48573" lon="6.75717">
        <ele>393</ele>
        <time>2015-05-08T08:00:18.000Z</time>
      </trkpt>
      <trkpt lat="47.48574" lon="6.75711">
        <ele>392</ele>
        <time>2015-05-08T08:00:20.000Z</time>
      </trkpt>
      <trkpt lat="47.48575" lon="6.75709">
        <ele>392</ele>
        <time>2015-05-08T08:00:21.000Z</time>
      </trkpt>
      <trkpt lat="47.48576" lon="6.75705">
        <ele>392</ele>
        <time>2015-05-08T08:00:23.000Z</time>
      </trkpt>
      <trkpt lat="47.48577" lon="6.75703">
        <ele>392</ele>
        <time>2015-05-08T08:00:24.000Z</time>
      </trkpt>
      <trkpt lat="47.48579" lon="6.75698">
        <ele>393</ele>
        <time>2015-05-08T08:00:26.000Z</time>
      </trkpt>
      <trkpt lat="47.4858" lon="6.75696">
        <ele>393</ele>
        <time>2015-05-08T08:00:27.000Z</time>
      </trkpt>
      <trkpt lat="47.48582" lon="6.7569">
        <ele>393</ele>
        <time>2015-05-08T08:00:29.000Z</time>
      </trkpt>
      <trkpt lat="47.48583" lon="6.75687">
        <ele>393</ele>
        <time>2015-05-08T08:00:30.000Z</time>
      </trkpt>
      <trkpt lat="47.48585" lon="6.75681">
        <ele>402</ele>
        <time>2015-05-08T08:00:32.000Z</time>
      </trkpt>
      <trkpt lat="47.48586" lon="6.75679">
        <ele>401</ele>
        <time>2015-05-08T08:00:33.000Z</time>
      </trkpt>
      <trkpt lat="47.48588" lon="6.75674">
        <ele>400</ele>
        <time>2015-05-08T08:00:35.000Z</time>
      </trkpt>
      <trkpt lat="47.48588" lon="6.75672">
        <ele>400</ele>
        <time>2015-05-08T08:00:36.000Z</time>
      </trkpt>
      <trkpt lat="47.48589" lon="6.75668">
        <ele>399</ele>
        <time>2015-05-08T08:00:38.000Z</time>
      </trkpt>
      <trkpt lat="47.48589" lon="6.75666">
        <ele>400</ele>
        <time>2015-05-08T08:00:39.000Z</time>
      </trkpt>
      <trkpt lat="47.4859" lon="6.7566">
        <ele>400</ele>
        <time>2015-05-08T08:00:42.000Z</time>
      </trkpt>
      <trkpt lat="47.48589" lon="6.75659">
        <ele>401</ele>
        <time>2015-05-08T08:00:43.000Z</time>
      </trkpt>
      <trkpt lat="47.48589" lon="6.75653">
        <ele>402</ele>
        <time>2015-05-08T08:00:46.000Z</time>
      </trkpt>
      <trkpt lat="47.48589" lon="6.75651">
        <ele>402</ele>
        <time>2015-05-08T08:00:47.000Z</time>
      </trkpt>
      <trkpt lat="47.48588" lon="6.75647">
        <ele>403</ele>
        <time>2015-05-08T08:00:49.000Z</time>
      </trkpt>
      <trkpt lat="47.48588" lon="6.75644">
        <ele>403</ele>
        <time>2015-05-08T08:00:50.000Z</time>
      </trkpt>
      <trkpt lat="47.48587" lon="6.75638">
        <ele>404</ele>
        <time>2015-05-08T08:00:53.000Z</time>
      </trkpt>
      <trkpt lat="47.48587" lon="6.75635">
        <ele>404</ele>
        <time>2015-05-08T08:00:54.000Z</time>
      </trkpt>
      <trkpt lat="47.48587" lon="6.75632">
        <ele>404</ele>
        <time>2015-05-08T08:00:55.000Z</time>
      </trkpt>
      <trkpt lat="47.48587" lon="6.75627">
        <ele>404</ele>
        <time>2015-05-08T08:00:56.000Z</time>
      </trkpt>
      <trkpt lat="47.48587" lon="6.75623">
        <ele>404</ele>
        <time>2015-05-08T08:00:57.000Z</time>
      </trkpt>
      <trkpt lat="47.48587" lon="6.75618">
        <ele>404</ele>
        <time>2015-05-08T08:00:58.000Z</time>
      </trkpt>
      <trkpt lat="47.48586" lon="6.75613">
        <ele>404</ele>
        <time>2015-05-08T08:00:59.000Z</time>
      </trkpt>
      <trkpt lat="47.48586" lon="6.75608">
        <ele>404</ele>
        <time>2015-05-08T08:01:00.000Z</time>
      </trkpt>
      <trkpt lat="47.48585" lon="6.75603">
        <ele>403</ele>
        <time>2015-05-08T08:01:01.000Z</time>
      </trkpt>
      <trkpt lat="47.48585" lon="6.75598">
        <ele>402</ele>
        <time>2015-05-08T08:01:02.000Z</time>
      </trkpt>
      <trkpt lat="47.48584" lon="6.75592">
        <ele>401</ele>
        <time>2015-05-08T08:01:03.000Z</time>
      </trkpt>
      <trkpt lat="47.48584" lon="6.75586">
        <ele>399</ele>
        <time>2015-05-08T08:01:04.000Z</time>
      </trkpt>
      <trkpt lat="47.48584" lon="6.75581">
        <ele>399</ele>
        <time>2015-05-08T08:01:05.000Z</time>
      </trkpt>
      <trkpt lat="47.48585" lon="6.75577">
        <ele>401</ele>
        <time>2015-05-08T08:01:06.000Z</time>
      </trkpt>
      <trkpt lat="47.48585" lon="6.7557">
        <ele>404</ele>
        <time>2015-05-08T08:01:08.000Z</time>
      </trkpt>
      <trkpt lat="47.48585" lon="6.75567">
        <ele>405</ele>
        <time>2015-05-08T08:01:09.000Z</time>
      </trkpt>
      <trkpt lat="47.48585" lon="6.75562">
        <ele>406</ele>
        <time>2015-05-08T08:01:11.000Z</time>
      </trkpt>
      <trkpt lat="47.48585" lon="6.7556">
        <ele>406</ele>
        <time>2015-05-08T08:01:12.000Z</time>
      </trkpt>
      <trkpt lat="47.48584" lon="6.75554">
        <ele>407</ele>
        <time>2015-05-08T08:01:15.000Z</time>
      </trkpt>
      <trkpt lat="47.48584" lon="6.75552">
        <ele>407</ele>
        <time>2015-05-08T08:01:16.000Z</time>
      </trkpt>
      <trkpt lat="47.48583" lon="6.75547">
        <ele>392</ele>
        <time>2015-05-08T08:01:18.000Z</time>
      </trkpt>
      <trkpt lat="47.48582" lon="6.75543">
        <ele>392</ele>
        <time>2015-05-08T08:01:19.000Z</time>
      </trkpt>
      <trkpt lat="47.4858" lon="6.75537">
        <ele>393</ele>
        <time>2015-05-08T08:01:23.000Z</time>
      </trkpt>
      <trkpt lat="47.48579" lon="6.75537">
        <ele>392</ele>
        <time>2015-05-08T08:01:24.000Z</time>
      </trkpt>
      <trkpt lat="47.48575" lon="6.75537">
        <ele>392</ele>
        <time>2015-05-08T08:01:27.000Z</time>
      </trkpt>
      <trkpt lat="47.48573" lon="6.75537">
        <ele>392</ele>
        <time>2015-05-08T08:01:28.000Z</time>
      </trkpt>
      <trkpt lat="47.4857" lon="6.75534">
        <ele>392</ele>
        <time>2015-05-08T08:01:38.000Z</time>
      </trkpt>
      <trkpt lat="47.4857" lon="6.75531">
        <ele>392</ele>
        <time>2015-05-08T08:01:39.000Z</time>
      </trkpt>
      <trkpt lat="47.48568" lon="6.75527">
        <ele>392</ele>
        <time>2015-05-08T08:01:41.000Z</time>
      </trkpt>
      <trkpt lat="47.48568" lon="6.75524">
        <ele>393</ele>
        <time>2015-05-08T08:01:42.000Z</time>
      </trkpt>
      <trkpt lat="47.48566" lon="6.75518">
        <ele>393</ele>
        <time>2015-05-08T08:01:44.000Z</time>
      </trkpt>
      <trkpt lat="47.48565" lon="6.75515">
        <ele>393</ele>
        <time>2015-05-08T08:01:45.000Z</time>
      </trkpt>
      <trkpt lat="47.48564" lon="6.75509">
        <ele>393</ele>
        <time>2015-05-08T08:01:47.000Z</time>
      </trkpt>
      <trkpt lat="47.48563" lon="6.75505">
        <ele>393</ele>
        <time>2015-05-08T08:01:48.000Z</time>
      </trkpt>
      <trkpt lat="47.48562" lon="6.75501">
        <ele>393</ele>
        <time>2015-05-08T08:01:49.000Z</time>
      </trkpt>
      <trkpt lat="47.48561" lon="6.75496">
        <ele>393</ele>
        <time>2015-05-08T08:01:50.000Z</time>
      </trkpt>
      <trkpt lat="47.4856" lon="6.75491">
        <ele>392</ele>
        <time>2015-05-08T08:01:51.000Z</time>
      </trkpt>
      <trkpt lat="47.48559" lon="6.75485">
        <ele>392</ele>
        <time>2015-05-08T08:01:52.000Z</time>
      </trkpt>
      <trkpt lat="47.48557" lon="6.75479">
        <ele>391</ele>
        <time>2015-05-08T08:01:53.000Z</time>
      </trkpt>
      <trkpt lat="47.48556" lon="6.75472">
        <ele>390</ele>
        <time>2015-05-08T08:01:54.000Z</time>
      </trkpt>
      <trkpt lat="47.48554" lon="6.75465">
        <ele>390</ele>
        <time>2015-05-08T08:01:55.000Z</time>
      </trkpt>
      <trkpt lat="47.48552" lon="6.75456">
        <ele>389</ele>
        <time>2015-05-08T08:01:56.000Z</time>
      </trkpt>
      <trkpt lat="47.4855" lon="6.75449">
        <ele>389</ele>
        <time>2015-05-08T08:01:57.000Z</time>
      </trkpt>
      <trkpt lat="47.48549" lon="6.75441">
        <ele>389</ele>
        <time>2015-05-08T08:01:58.000Z</time>
      </trkpt>
      <trkpt lat="47.48548" lon="6.75434">
        <ele>389</ele>
        <time>2015-05-08T08:01:59.000Z</time>
      </trkpt>
      <trkpt lat="47.48547" lon="6.75427">
        <ele>389</ele>
        <time>2015-05-08T08:02:00.000Z</time>
      </trkpt>
      <trkpt lat="47.48545" lon="6.75419">
        <ele>388</ele>
        <time>2015-05-08T08:02:01.000Z</time>
      </trkpt>
      <trkpt lat="47.48543" lon="6.75411">
        <ele>389</ele>
        <time>2015-05-08T08:02:02.000Z</time>
      </trkpt>
      <trkpt lat="47.48541" lon="6.75403">
        <ele>388</ele>
        <time>2015-05-08T08:02:03.000Z</time>
      </trkpt>
      <trkpt lat="47.48539" lon="6.75394">
        <ele>388</ele>
        <time>2015-05-08T08:02:04.000Z</time>
      </trkpt>
      <trkpt lat="47.48538" lon="6.75385">
        <ele>388</ele>
        <time>2015-05-08T08:02:05.000Z</time>
      </trkpt>
      <trkpt lat="47.48537" lon="6.75378">
        <ele>388</ele>
        <time>2015-05-08T08:02:06.000Z</time>
      </trkpt>
      <trkpt lat="47.48535" lon="6.75371">
        <ele>388</ele>
        <time>2015-05-08T08:02:07.000Z</time>
      </trkpt>
      <trkpt lat="47.48534" lon="6.75365">
        <ele>388</ele>
        <time>2015-05-08T08:02:08.000Z</time>
      </trkpt>
      <trkpt lat="47.48533" lon="6.7536">
        <ele>387</ele>
        <time>2015-05-08T08:02:09.000Z</time>
      </trkpt>
      <trkpt lat="47.48531" lon="6.75355">
        <ele>387</ele>
        <time>2015-05-08T08:02:10.000Z</time>
      </trkpt>
      <trkpt lat="47.48529" lon="6.7535">
        <ele>386</ele>
        <time>2015-05-08T08:02:11.000Z</time>
      </trkpt>
      <trkpt lat="47.48527" lon="6.75346">
        <ele>385</ele>
        <time>2015-05-08T08:02:12.000Z</time>
      </trkpt>
      <trkpt lat="47.48525" lon="6.75342">
        <ele>385</ele>
        <time>2015-05-08T08:02:13.000Z</time>
      </trkpt>
      <trkpt lat="47.48523" lon="6.75339">
        <ele>384</ele>
        <time>2015-05-08T08:02:14.000Z</time>
      </trkpt>
      <trkpt lat="47.48522" lon="6.75336">
        <ele>384</ele>
        <time>2015-05-08T08:02:15.000Z</time>
      </trkpt>
      <trkpt lat="47.48521" lon="6.75329">
        <ele>385</ele>
        <time>2015-05-08T08:02:17.000Z</time>
      </trkpt>
      <trkpt lat="47.48521" lon="6.75326">
        <ele>385</ele>
        <time>2015-05-08T08:02:18.000Z</time>
      </trkpt>
      <trkpt lat="47.48521" lon="6.7532">
        <ele>386</ele>
        <time>2015-05-08T08:02:20.000Z</time>
      </trkpt>
      <trkpt lat="47.48521" lon="6.75317">
        <ele>386</ele>
        <time>2015-05-08T08:02:21.000Z</time>
      </trkpt>
      <trkpt lat="47.4852" lon="6.75314">
        <ele>386</ele>
        <time>2015-05-08T08:02:22.000Z</time>
      </trkpt>
      <trkpt lat="47.4852" lon="6.7531">
        <ele>387</ele>
        <time>2015-05-08T08:02:23.000Z</time>
      </trkpt>
      <trkpt lat="47.4852" lon="6.75306">
        <ele>387</ele>
        <time>2015-05-08T08:02:24.000Z</time>
      </trkpt>
      <trkpt lat="47.48519" lon="6.75302">
        <ele>387</ele>
        <time>2015-05-08T08:02:25.000Z</time>
      </trkpt>
      <trkpt lat="47.48519" lon="6.75297">
        <ele>388</ele>
        <time>2015-05-08T08:02:26.000Z</time>
      </trkpt>
      <trkpt lat="47.48519" lon="6.75292">
        <ele>388</ele>
        <time>2015-05-08T08:02:27.000Z</time>
      </trkpt>
      <trkpt lat="47.48518" lon="6.75287">
        <ele>388</ele>
        <time>2015-05-08T08:02:28.000Z</time>
      </trkpt>
      <trkpt lat="47.48517" lon="6.75282">
        <ele>387</ele>
        <time>2015-05-08T08:02:29.000Z</time>
      </trkpt>
      <trkpt lat="47.48516" lon="6.75278">
        <ele>387</ele>
        <time>2015-05-08T08:02:30.000Z</time>
      </trkpt>
      <trkpt lat="47.48516" lon="6.75274">
        <ele>386</ele>
        <time>2015-05-08T08:02:31.000Z</time>
      </trkpt>
      <trkpt lat="47.48515" lon="6.7527">
        <ele>386</ele>
        <time>2015-05-08T08:02:32.000Z</time>
      </trkpt>
      <trkpt lat="47.48515" lon="6.75266">
        <ele>385</ele>
        <time>2015-05-08T08:02:33.000Z</time>
      </trkpt>
      <trkpt lat="47.48514" lon="6.75261">
        <ele>384</ele>
        <time>2015-05-08T08:02:34.000Z</time>
      </trkpt>
      <trkpt lat="47.48514" lon="6.75257">
        <ele>384</ele>
        <time>2015-05-08T08:02:35.000Z</time>
      </trkpt>
      <trkpt lat="47.48513" lon="6.75253">
        <ele>383</ele>
        <time>2015-05-08T08:02:36.000Z</time>
      </trkpt>
      <trkpt lat="47.48513" lon="6.75249">
        <ele>383</ele>
        <time>2015-05-08T08:02:37.000Z</time>
      </trkpt>
      <trkpt lat="47.48513" lon="6.75245">
        <ele>383</ele>
        <time>2015-05-08T08:02:38.000Z</time>
      </trkpt>
      <trkpt lat="47.48513" lon="6.75241">
        <ele>383</ele>
        <time>2015-05-08T08:02:39.000Z</time>
      </trkpt>
      <trkpt lat="47.48513" lon="6.75235">
        <ele>384</ele>
        <time>2015-05-08T08:02:41.000Z</time>
      </trkpt>
      <trkpt lat="47.48512" lon="6.75232">
        <ele>385</ele>
        <time>2015-05-08T08:02:42.000Z</time>
      </trkpt>
      <trkpt lat="47.48512" lon="6.75228">
        <ele>385</ele>
        <time>2015-05-08T08:02:43.000Z</time>
      </trkpt>
      <trkpt lat="47.48512" lon="6.75224">
        <ele>386</ele>
        <time>2015-05-08T08:02:44.000Z</time>
      </trkpt>
      <trkpt lat="47.48512" lon="6.75219">
        <ele>386</ele>
        <time>2015-05-08T08:02:45.000Z</time>
      </trkpt>
      <trkpt lat="47.48512" lon="6.75215">
        <ele>386</ele>
        <time>2015-05-08T08:02:46.000Z</time>
      </trkpt>
      <trkpt lat="47.48511" lon="6.75209">
        <ele>386</ele>
        <time>2015-05-08T08:02:48.000Z</time>
      </trkpt>
      <trkpt lat="47.48511" lon="6.75207">
        <ele>386</ele>
        <time>2015-05-08T08:02:48.999Z</time>
      </trkpt>
      <trkpt lat="47.4851" lon="6.75203">
        <ele>386</ele>
        <time>2015-05-08T08:02:50.000Z</time>
      </trkpt>
      <trkpt lat="47.4851" lon="6.752">
        <ele>385</ele>
        <time>2015-05-08T08:02:51.000Z</time>
      </trkpt>
      <trkpt lat="47.4851" lon="6.75194">
        <ele>385</ele>
        <time>2015-05-08T08:02:54.000Z</time>
      </trkpt>
      <trkpt lat="47.4851" lon="6.75192">
        <ele>384</ele>
        <time>2015-05-08T08:02:55.000Z</time>
      </trkpt>
      <trkpt lat="47.48512" lon="6.75187">
        <ele>384</ele>
        <time>2015-05-08T08:02:59.000Z</time>
      </trkpt>
      <trkpt lat="47.48512" lon="6.75185">
        <ele>383</ele>
        <time>2015-05-08T08:03:00.000Z</time>
      </trkpt>
      <trkpt lat="47.48513" lon="6.75179">
        <ele>383</ele>
        <time>2015-05-08T08:03:05.000Z</time>
      </trkpt>
      <trkpt lat="47.48514" lon="6.75178">
        <ele>382</ele>
        <time>2015-05-08T08:03:06.000Z</time>
      </trkpt>
      <trkpt lat="47.48514" lon="6.75174">
        <ele>382</ele>
        <time>2015-05-08T08:03:09.000Z</time>
      </trkpt>
      <trkpt lat="47.48514" lon="6.75171">
        <ele>381</ele>
        <time>2015-05-08T08:03:10.000Z</time>
      </trkpt>
      <trkpt lat="47.48515" lon="6.75166">
        <ele>379</ele>
        <time>2015-05-08T08:03:11.000Z</time>
      </trkpt>
      <trkpt lat="47.48515" lon="6.75161">
        <ele>379</ele>
        <time>2015-05-08T08:03:12.000Z</time>
      </trkpt>
      <trkpt lat="47.48515" lon="6.75156">
        <ele>380</ele>
        <time>2015-05-08T08:03:13.000Z</time>
      </trkpt>
      <trkpt lat="47.48517" lon="6.75152">
        <ele>381</ele>
        <time>2015-05-08T08:03:14.000Z</time>
      </trkpt>
      <trkpt lat="47.48518" lon="6.75147">
        <ele>381</ele>
        <time>2015-05-08T08:03:15.000Z</time>
      </trkpt>
      <trkpt lat="47.48519" lon="6.75141">
        <ele>382</ele>
        <time>2015-05-08T08:03:16.000Z</time>
      </trkpt>
      <trkpt lat="47.48519" lon="6.75136">
        <ele>382</ele>
        <time>2015-05-08T08:03:17.000Z</time>
      </trkpt>
      <trkpt lat="47.48519" lon="6.75131">
        <ele>382</ele>
        <time>2015-05-08T08:03:18.000Z</time>
      </trkpt>
      <trkpt lat="47.48519" lon="6.75124">
        <ele>382</ele>
        <time>2015-05-08T08:03:19.998Z</time>
      </trkpt>
      <trkpt lat="47.4852" lon="6.75119">
        <ele>381</ele>
        <time>2015-05-08T08:03:21.000Z</time>
      </trkpt>
      <trkpt lat="47.48521" lon="6.75116">
        <ele>381</ele>
        <time>2015-05-08T08:03:22.000Z</time>
      </trkpt>
      <trkpt lat="47.48521" lon="6.75112">
        <ele>381</ele>
        <time>2015-05-08T08:03:23.000Z</time>
      </trkpt>
      <trkpt lat="47.48522" lon="6.75109">
        <ele>381</ele>
        <time>2015-05-08T08:03:24.000Z</time>
      </trkpt>
      <trkpt lat="47.48523" lon="6.75106">
        <ele>381</ele>
        <time>2015-05-08T08:03:25.000Z</time>
      </trkpt>
      <trkpt lat="47.48526" lon="6.75102">
        <ele>381</ele>
        <time>2015-05-08T08:03:27.000Z</time>
      </trkpt>
      <trkpt lat="47.48528" lon="6.751">
        <ele>381</ele>
        <time>2015-05-08T08:03:28.000Z</time>
      </trkpt>
      <trkpt lat="47.48531" lon="6.75096">
        <ele>382</ele>
        <time>2015-05-08T08:03:31.000Z</time>
      </trkpt>
      <trkpt lat="47.48532" lon="6.75094">
        <ele>382</ele>
        <time>2015-05-08T08:03:32.000Z</time>
      </trkpt>
      <trkpt lat="47.48534" lon="6.75089">
        <ele>382</ele>
        <time>2015-05-08T08:03:34.000Z</time>
      </trkpt>
      <trkpt lat="47.48534" lon="6.75087">
        <ele>382</ele>
        <time>2015-05-08T08:03:35.000Z</time>
      </trkpt>
      <trkpt lat="47.48535" lon="6.75081">
        <ele>380</ele>
        <time>2015-05-08T08:03:37.000Z</time>
      </trkpt>
      <trkpt lat="47.48536" lon="6.75078">
        <ele>380</ele>
        <time>2015-05-08T08:03:38.000Z</time>
      </trkpt>
      <trkpt lat="47.48537" lon="6.75073">
        <ele>380</ele>
        <time>2015-05-08T08:03:40.000Z</time>
      </trkpt>
      <trkpt lat="47.48537" lon="6.75071">
        <ele>380</ele>
        <time>2015-05-08T08:03:41.000Z</time>
      </trkpt>
      <trkpt lat="47.48538" lon="6.75065">
        <ele>381</ele>
        <time>2015-05-08T08:03:44.000Z</time>
      </trkpt>
      <trkpt lat="47.48539" lon="6.75064">
        <ele>381</ele>
        <time>2015-05-08T08:03:45.000Z</time>
      </trkpt>
      <trkpt lat="47.4854" lon="6.75058">
        <ele>381</ele>
        <time>2015-05-08T08:03:48.000Z</time>
      </trkpt>
      <trkpt lat="47.4854" lon="6.75056">
        <ele>381</ele>
        <time>2015-05-08T08:03:49.000Z</time>
      </trkpt>
      <trkpt lat="47.48541" lon="6.75051">
        <ele>381</ele>
        <time>2015-05-08T08:03:52.000Z</time>
      </trkpt>
      <trkpt lat="47.48541" lon="6.75049">
        <ele>381</ele>
        <time>2015-05-08T08:03:53.000Z</time>
      </trkpt>
      <trkpt lat="47.48542" lon="6.75044">
        <ele>381</ele>
        <time>2015-05-08T08:03:56.000Z</time>
      </trkpt>
      <trkpt lat="47.48543" lon="6.75042">
        <ele>382</ele>
        <time>2015-05-08T08:03:57.000Z</time>
      </trkpt>
      <trkpt lat="47.48544" lon="6.75038">
        <ele>382</ele>
        <time>2015-05-08T08:03:59.000Z</time>
      </trkpt>
      <trkpt lat="47.48545" lon="6.75036">
        <ele>382</ele>
        <time>2015-05-08T08:04:00.000Z</time>
      </trkpt>
      <trkpt lat="47.48546" lon="6.7503">
        <ele>382</ele>
        <time>2015-05-08T08:04:03.000Z</time>
      </trkpt>
      <trkpt lat="47.48546" lon="6.75029">
        <ele>382</ele>
        <time>2015-05-08T08:04:04.000Z</time>
      </trkpt>
      <trkpt lat="47.48547" lon="6.75024">
        <ele>382</ele>
        <time>2015-05-08T08:04:06.000Z</time>
      </trkpt>
      <trkpt lat="47.48547" lon="6.75022">
        <ele>382</ele>
        <time>2015-05-08T08:04:07.000Z</time>
      </trkpt>
      <trkpt lat="47.48547" lon="6.75017">
        <ele>382</ele>
        <time>2015-05-08T08:04:09.000Z</time>
      </trkpt>
      <trkpt lat="47.48547" lon="6.75015">
        <ele>383</ele>
        <time>2015-05-08T08:04:10.000Z</time>
      </trkpt>
      <trkpt lat="47.48548" lon="6.75009">
        <ele>383</ele>
        <time>2015-05-08T08:04:13.000Z</time>
      </trkpt>
      <trkpt lat="47.48547" lon="6.75008">
        <ele>383</ele>
        <time>2015-05-08T08:04:14.000Z</time>
      </trkpt>
      <trkpt lat="47.48548" lon="6.75001">
        <ele>383</ele>
        <time>2015-05-08T08:04:18.000Z</time>
      </trkpt>
      <trkpt lat="47.48548" lon="6.74999">
        <ele>383</ele>
        <time>2015-05-08T08:04:19.000Z</time>
      </trkpt>
      <trkpt lat="47.48549" lon="6.74994">
        <ele>383</ele>
        <time>2015-05-08T08:04:22.000Z</time>
      </trkpt>
      <trkpt lat="47.4855" lon="6.74992">
        <ele>383</ele>
        <time>2015-05-08T08:04:23.000Z</time>
      </trkpt>
      <trkpt lat="47.48552" lon="6.74988">
        <ele>383</ele>
        <time>2015-05-08T08:04:25.000Z</time>
      </trkpt>
      <trkpt lat="47.48553" lon="6.74985">
        <ele>383</ele>
        <time>2015-05-08T08:04:26.000Z</time>
      </trkpt>
      <trkpt lat="47.48553" lon="6.74981">
        <ele>384</ele>
        <time>2015-05-08T08:04:27.000Z</time>
      </trkpt>
      <trkpt lat="47.48554" lon="6.74978">
        <ele>384</ele>
        <time>2015-05-08T08:04:28.000Z</time>
      </trkpt>
      <trkpt lat="47.48555" lon="6.74975">
        <ele>384</ele>
        <time>2015-05-08T08:04:29.000Z</time>
      </trkpt>
      <trkpt lat="47.48556" lon="6.74971">
        <ele>384</ele>
        <time>2015-05-08T08:04:30.000Z</time>
      </trkpt>
      <trkpt lat="47.48556" lon="6.74965">
        <ele>384</ele>
        <time>2015-05-08T08:04:32.000Z</time>
      </trkpt>
      <trkpt lat="47.48557" lon="6.74963">
        <ele>384</ele>
        <time>2015-05-08T08:04:33.000Z</time>
      </trkpt>
      <trkpt lat="47.48558" lon="6.74958">
        <ele>384</ele>
        <time>2015-05-08T08:04:35.000Z</time>
      </trkpt>
      <trkpt lat="47.48558" lon="6.74955">
        <ele>384</ele>
        <time>2015-05-08T08:04:36.000Z</time>
      </trkpt>
      <trkpt lat="47.4856" lon="6.7495">
        <ele>384</ele>
        <time>2015-05-08T08:04:39.000Z</time>
      </trkpt>
      <trkpt lat="47.4856" lon="6.74948">
        <ele>385</ele>
        <time>2015-05-08T08:04:40.000Z</time>
      </trkpt>
      <trkpt lat="47.48562" lon="6.74943">
        <ele>385</ele>
        <time>2015-05-08T08:04:43.000Z</time>
      </trkpt>
      <trkpt lat="47.48562" lon="6.74941">
        <ele>386</ele>
        <time>2015-05-08T08:04:44.000Z</time>
      </trkpt>
      <trkpt lat="47.48562" lon="6.74935">
        <ele>386</ele>
        <time>2015-05-08T08:04:48.000Z</time>
      </trkpt>
      <trkpt lat="47.48562" lon="6.74932">
        <ele>386</ele>
        <time>2015-05-08T08:04:49.000Z</time>
      </trkpt>
      <trkpt lat="47.48561" lon="6.74926">
        <ele>387</ele>
        <time>2015-05-08T08:04:52.000Z</time>
      </trkpt>
      <trkpt lat="47.48561" lon="6.74924">
        <ele>387</ele>
        <time>2015-05-08T08:04:53.000Z</time>
      </trkpt>
      <trkpt lat="47.48562" lon="6.74919">
        <ele>388</ele>
        <time>2015-05-08T08:04:57.000Z</time>
      </trkpt>
      <trkpt lat="47.48562" lon="6.74918">
        <ele>388</ele>
        <time>2015-05-08T08:04:58.000Z</time>
      </trkpt>
      <trkpt lat="47.48563" lon="6.74912">
        <ele>389</ele>
        <time>2015-05-08T08:05:01.000Z</time>
      </trkpt>
      <trkpt lat="47.48564" lon="6.74909">
        <ele>389</ele>
        <time>2015-05-08T08:05:02.000Z</time>
      </trkpt>
      <trkpt lat="47.48564" lon="6.74903">
        <ele>389</ele>
        <time>2015-05-08T08:05:06.000Z</time>
      </trkpt>
      <trkpt lat="47.48564" lon="6.74902">
        <ele>389</ele>
        <time>2015-05-08T08:05:07.000Z</time>
      </trkpt>
      <trkpt lat="47.48564" lon="6.74897">
        <ele>388</ele>
        <time>2015-05-08T08:05:10.000Z</time>
      </trkpt>
      <trkpt lat="47.48564" lon="6.74895">
        <ele>388</ele>
        <time>2015-05-08T08:05:11.000Z</time>
      </trkpt>
      <trkpt lat="47.48564" lon="6.74889">
        <ele>388</ele>
        <time>2015-05-08T08:05:14.000Z</time>
      </trkpt>
      <trkpt lat="47.48564" lon="6.74887">
        <ele>388</ele>
        <time>2015-05-08T08:05:15.000Z</time>
      </trkpt>
      <trkpt lat="47.48565" lon="6.74881">
        <ele>388</ele>
        <time>2015-05-08T08:05:18.000Z</time>
      </trkpt>
      <trkpt lat="47.48565" lon="6.74878">
        <ele>388</ele>
        <time>2015-05-08T08:05:19.000Z</time>
      </trkpt>
      <trkpt lat="47.48566" lon="6.74872">
        <ele>388</ele>
        <time>2015-05-08T08:05:21.000Z</time>
      </trkpt>
      <trkpt lat="47.48567" lon="6.74869">
        <ele>388</ele>
        <time>2015-05-08T08:05:22.000Z</time>
      </trkpt>
      <trkpt lat="47.48568" lon="6.74864">
        <ele>389</ele>
        <time>2015-05-08T08:05:24.000Z</time>
      </trkpt>
      <trkpt lat="47.48568" lon="6.74862">
        <ele>389</ele>
        <time>2015-05-08T08:05:25.000Z</time>
      </trkpt>
      <trkpt lat="47.48569" lon="6.74857">
        <ele>390</ele>
        <time>2015-05-08T08:05:27.000Z</time>
      </trkpt>
      <trkpt lat="47.48569" lon="6.74855">
        <ele>391</ele>
        <time>2015-05-08T08:05:28.000Z</time>
      </trkpt>
      <trkpt lat="47.48569" lon="6.74849">
        <ele>392</ele>
        <time>2015-05-08T08:05:32.000Z</time>
      </trkpt>
      <trkpt lat="47.4857" lon="6.74848">
        <ele>392</ele>
        <time>2015-05-08T08:05:33.000Z</time>
      </trkpt>
      <trkpt lat="47.48571" lon="6.74842">
        <ele>394</ele>
        <time>2015-05-08T08:05:37.000Z</time>
      </trkpt>
      <trkpt lat="47.48571" lon="6.7484">
        <ele>394</ele>
        <time>2015-05-08T08:05:38.000Z</time>
      </trkpt>
      <trkpt lat="47.48571" lon="6.74835">
        <ele>395</ele>
        <time>2015-05-08T08:05:41.000Z</time>
      </trkpt>
      <trkpt lat="47.48571" lon="6.74833">
        <ele>397</ele>
        <time>2015-05-08T08:05:42.000Z</time>
      </trkpt>
      <trkpt lat="47.48572" lon="6.74827">
        <ele>397</ele>
        <time>2015-05-08T08:05:45.000Z</time>
      </trkpt>
      <trkpt lat="47.48572" lon="6.74825">
        <ele>396</ele>
        <time>2015-05-08T08:05:46.000Z</time>
      </trkpt>
      <trkpt lat="47.48572" lon="6.7482">
        <ele>395</ele>
        <time>2015-05-08T08:05:48.000Z</time>
      </trkpt>
      <trkpt lat="47.48572" lon="6.74817">
        <ele>395</ele>
        <time>2015-05-08T08:05:49.000Z</time>
      </trkpt>
      <trkpt lat="47.48573" lon="6.74812">
        <ele>394</ele>
        <time>2015-05-08T08:05:51.000Z</time>
      </trkpt>
      <trkpt lat="47.48573" lon="6.74809">
        <ele>394</ele>
        <time>2015-05-08T08:05:52.000Z</time>
      </trkpt>
      <trkpt lat="47.48573" lon="6.74805">
        <ele>394</ele>
        <time>2015-05-08T08:05:54.000Z</time>
      </trkpt>
      <trkpt lat="47.48572" lon="6.74802">
        <ele>393</ele>
        <time>2015-05-08T08:05:55.000Z</time>
      </trkpt>
      <trkpt lat="47.48572" lon="6.74797">
        <ele>393</ele>
        <time>2015-05-08T08:05:57.000Z</time>
      </trkpt>
      <trkpt lat="47.48572" lon="6.74795">
        <ele>393</ele>
        <time>2015-05-08T08:05:58.000Z</time>
      </trkpt>
      <trkpt lat="47.48572" lon="6.74788">
        <ele>393</ele>
        <time>2015-05-08T08:06:01.000Z</time>
      </trkpt>
      <trkpt lat="47.48572" lon="6.74787">
        <ele>394</ele>
        <time>2015-05-08T08:06:02.000Z</time>
      </trkpt>
      <trkpt lat="47.48572" lon="6.74781">
        <ele>394</ele>
        <time>2015-05-08T08:06:05.000Z</time>
      </trkpt>
      <trkpt lat="47.48573" lon="6.74779">
        <ele>394</ele>
        <time>2015-05-08T08:06:06.000Z</time>
      </trkpt>
      <trkpt lat="47.48574" lon="6.74773">
        <ele>396</ele>
        <time>2015-05-08T08:06:09.000Z</time>
      </trkpt>
      <trkpt lat="47.48574" lon="6.74771">
        <ele>396</ele>
        <time>2015-05-08T08:06:10.000Z</time>
      </trkpt>
      <trkpt lat="47.48575" lon="6.74765">
        <ele>398</ele>
        <time>2015-05-08T08:06:13.000Z</time>
      </trkpt>
      <trkpt lat="47.48576" lon="6.74762">
        <ele>399</ele>
        <time>2015-05-08T08:06:14.000Z</time>
      </trkpt>
      <trkpt lat="47.48577" lon="6.74757">
        <ele>401</ele>
        <time>2015-05-08T08:06:16.000Z</time>
      </trkpt>
      <trkpt lat="47.48578" lon="6.74755">
        <ele>402</ele>
        <time>2015-05-08T08:06:17.000Z</time>
      </trkpt>
      <trkpt lat="47.48579" lon="6.74749">
        <ele>404</ele>
        <time>2015-05-08T08:06:19.000Z</time>
      </trkpt>
      <trkpt lat="47.48579" lon="6.74747">
        <ele>404</ele>
        <time>2015-05-08T08:06:20.000Z</time>
      </trkpt>
      <trkpt lat="47.48579" lon="6.74742">
        <ele>402</ele>
        <time>2015-05-08T08:06:22.000Z</time>
      </trkpt>
      <trkpt lat="47.48579" lon="6.7474">
        <ele>402</ele>
        <time>2015-05-08T08:06:23.000Z</time>
      </trkpt>
      <trkpt lat="47.4858" lon="6.74734">
        <ele>400</ele>
        <time>2015-05-08T08:06:26.000Z</time>
      </trkpt>
      <trkpt lat="47.48581" lon="6.74732">
        <ele>400</ele>
        <time>2015-05-08T08:06:27.000Z</time>
      </trkpt>
      <trkpt lat="47.48583" lon="6.74726">
        <ele>399</ele>
        <time>2015-05-08T08:06:30.000Z</time>
      </trkpt>
      <trkpt lat="47.48583" lon="6.74724">
        <ele>399</ele>
        <time>2015-05-08T08:06:31.000Z</time>
      </trkpt>
      <trkpt lat="47.48584" lon="6.74718">
        <ele>418</ele>
        <time>2015-05-08T08:06:34.000Z</time>
      </trkpt>
      <trkpt lat="47.48584" lon="6.74715">
        <ele>418</ele>
        <time>2015-05-08T08:06:35.000Z</time>
      </trkpt>
      <trkpt lat="47.48584" lon="6.74709">
        <ele>418</ele>
        <time>2015-05-08T08:06:37.000Z</time>
      </trkpt>
      <trkpt lat="47.48584" lon="6.74707">
        <ele>418</ele>
        <time>2015-05-08T08:06:38.000Z</time>
      </trkpt>
      <trkpt lat="47.48583" lon="6.74701">
        <ele>399</ele>
        <time>2015-05-08T08:06:41.000Z</time>
      </trkpt>
      <trkpt lat="47.48583" lon="6.74699">
        <ele>399</ele>
        <time>2015-05-08T08:06:42.000Z</time>
      </trkpt>
      <trkpt lat="47.48583" lon="6.74693">
        <ele>400</ele>
        <time>2015-05-08T08:06:45.000Z</time>
      </trkpt>
      <trkpt lat="47.48583" lon="6.74691">
        <ele>400</ele>
        <time>2015-05-08T08:06:46.000Z</time>
      </trkpt>
      <trkpt lat="47.48584" lon="6.74685">
        <ele>416</ele>
        <time>2015-05-08T08:06:49.000Z</time>
      </trkpt>
      <trkpt lat="47.48584" lon="6.74682">
        <ele>416</ele>
        <time>2015-05-08T08:06:50.000Z</time>
      </trkpt>
      <trkpt lat="47.48585" lon="6.74677">
        <ele>415</ele>
        <time>2015-05-08T08:06:52.000Z</time>
      </trkpt>
      <trkpt lat="47.48586" lon="6.74675">
        <ele>414</ele>
        <time>2015-05-08T08:06:53.000Z</time>
      </trkpt>
      <trkpt lat="47.48588" lon="6.74671">
        <ele>413</ele>
        <time>2015-05-08T08:06:56.000Z</time>
      </trkpt>
      <trkpt lat="47.48589" lon="6.7467">
        <ele>413</ele>
        <time>2015-05-08T08:06:57.000Z</time>
      </trkpt>
      <trkpt lat="47.48589" lon="6.74664">
        <ele>413</ele>
        <time>2015-05-08T08:07:00.000Z</time>
      </trkpt>
      <trkpt lat="47.48588" lon="6.74661">
        <ele>414</ele>
        <time>2015-05-08T08:07:01.000Z</time>
      </trkpt>
      <trkpt lat="47.48588" lon="6.74656">
        <ele>416</ele>
        <time>2015-05-08T08:07:03.000Z</time>
      </trkpt>
      <trkpt lat="47.48587" lon="6.74653">
        <ele>417</ele>
        <time>2015-05-08T08:07:04.000Z</time>
      </trkpt>
      <trkpt lat="47.48587" lon="6.74647">
        <ele>418</ele>
        <time>2015-05-08T08:07:08.000Z</time>
      </trkpt>
      <trkpt lat="47.48587" lon="6.74646">
        <ele>419</ele>
        <time>2015-05-08T08:07:09.000Z</time>
      </trkpt>
      <trkpt lat="47.48587" lon="6.7464">
        <ele>420</ele>
        <time>2015-05-08T08:07:12.000Z</time>
      </trkpt>
      <trkpt lat="47.48586" lon="6.74637">
        <ele>420</ele>
        <time>2015-05-08T08:07:13.000Z</time>
      </trkpt>
      <trkpt lat="47.48587" lon="6.74631">
        <ele>421</ele>
        <time>2015-05-08T08:07:15.000Z</time>
      </trkpt>
      <trkpt lat="47.48587" lon="6.74629">
        <ele>421</ele>
        <time>2015-05-08T08:07:16.000Z</time>
      </trkpt>
      <trkpt lat="47.48587" lon="6.74624">
        <ele>421</ele>
        <time>2015-05-08T08:07:18.000Z</time>
      </trkpt>
      <trkpt lat="47.48586" lon="6.74621">
        <ele>421</ele>
        <time>2015-05-08T08:07:19.000Z</time>
      </trkpt>
      <trkpt lat="47.48586" lon="6.74616">
        <ele>421</ele>
        <time>2015-05-08T08:07:21.000Z</time>
      </trkpt>
      <trkpt lat="47.48586" lon="6.74613">
        <ele>421</ele>
        <time>2015-05-08T08:07:22.000Z</time>
      </trkpt>
      <trkpt lat="47.48586" lon="6.74608">
        <ele>420</ele>
        <time>2015-05-08T08:07:24.000Z</time>
      </trkpt>
      <trkpt lat="47.48586" lon="6.74605">
        <ele>420</ele>
        <time>2015-05-08T08:07:25.000Z</time>
      </trkpt>
      <trkpt lat="47.48586" lon="6.74601">
        <ele>420</ele>
        <time>2015-05-08T08:07:26.000Z</time>
      </trkpt>
      <trkpt lat="47.48586" lon="6.74598">
        <ele>419</ele>
        <time>2015-05-08T08:07:27.000Z</time>
      </trkpt>
      <trkpt lat="47.48586" lon="6.74593">
        <ele>418</ele>
        <time>2015-05-08T08:07:28.000Z</time>
      </trkpt>
      <trkpt lat="47.48585" lon="6.74589">
        <ele>417</ele>
        <time>2015-05-08T08:07:29.000Z</time>
      </trkpt>
      <trkpt lat="47.48585" lon="6.74585">
        <ele>415</ele>
        <time>2015-05-08T08:07:30.000Z</time>
      </trkpt>
      <trkpt lat="47.48585" lon="6.74581">
        <ele>415</ele>
        <time>2015-05-08T08:07:31.000Z</time>
      </trkpt>
      <trkpt lat="47.48585" lon="6.74577">
        <ele>417</ele>
        <time>2015-05-08T08:07:32.000Z</time>
      </trkpt>
      <trkpt lat="47.48585" lon="6.74573">
        <ele>419</ele>
        <time>2015-05-08T08:07:33.000Z</time>
      </trkpt>
      <trkpt lat="47.48585" lon="6.74569">
        <ele>420</ele>
        <time>2015-05-08T08:07:34.000Z</time>
      </trkpt>
      <trkpt lat="47.48585" lon="6.74564">
        <ele>421</ele>
        <time>2015-05-08T08:07:35.000Z</time>
      </trkpt>
      <trkpt lat="47.48585" lon="6.74558">
        <ele>422</ele>
        <time>2015-05-08T08:07:36.000Z</time>
      </trkpt>
      <trkpt lat="47.48584" lon="6.74553">
        <ele>423</ele>
        <time>2015-05-08T08:07:37.000Z</time>
      </trkpt>
      <trkpt lat="47.48584" lon="6.74547">
        <ele>423</ele>
        <time>2015-05-08T08:07:38.000Z</time>
      </trkpt>
      <trkpt lat="47.48583" lon="6.74541">
        <ele>404</ele>
        <time>2015-05-08T08:07:39.000Z</time>
      </trkpt>
      <trkpt lat="47.48582" lon="6.74536">
        <ele>404</ele>
        <time>2015-05-08T08:07:40.000Z</time>
      </trkpt>
      <trkpt lat="47.48581" lon="6.74529">
        <ele>405</ele>
        <time>2015-05-08T08:07:41.000Z</time>
      </trkpt>
      <trkpt lat="47.48579" lon="6.74523">
        <ele>406</ele>
        <time>2015-05-08T08:07:42.000Z</time>
      </trkpt>
      <trkpt lat="47.48578" lon="6.74515">
        <ele>407</ele>
        <time>2015-05-08T08:07:43.000Z</time>
      </trkpt>
      <trkpt lat="47.48577" lon="6.74512">
        <ele>408</ele>
        <time>2015-05-08T08:07:43.999Z</time>
      </trkpt>
      <trkpt lat="47.48575" lon="6.74499">
        <ele>410</ele>
        <time>2015-05-08T08:07:45.000Z</time>
      </trkpt>
      <trkpt lat="47.48574" lon="6.74489">
        <ele>407</ele>
        <time>2015-05-08T08:07:46.000Z</time>
      </trkpt>
      <trkpt lat="47.48573" lon="6.74481">
        <ele>405</ele>
        <time>2015-05-08T08:07:47.000Z</time>
      </trkpt>
      <trkpt lat="47.48572" lon="6.74472">
        <ele>403</ele>
        <time>2015-05-08T08:07:48.000Z</time>
      </trkpt>
      <trkpt lat="47.48571" lon="6.74464">
        <ele>402</ele>
        <time>2015-05-08T08:07:49.000Z</time>
      </trkpt>
      <trkpt lat="47.4857" lon="6.74457">
        <ele>402</ele>
        <time>2015-05-08T08:07:50.000Z</time>
      </trkpt>
      <trkpt lat="47.48569" lon="6.74449">
        <ele>402</ele>
        <time>2015-05-08T08:07:51.000Z</time>
      </trkpt>
      <trkpt lat="47.48568" lon="6.7444">
        <ele>403</ele>
        <time>2015-05-08T08:07:52.000Z</time>
      </trkpt>
      <trkpt lat="47.48567" lon="6.74432">
        <ele>404</ele>
        <time>2015-05-08T08:07:53.000Z</time>
      </trkpt>
      <trkpt lat="47.48566" lon="6.74424">
        <ele>404</ele>
        <time>2015-05-08T08:07:54.000Z</time>
      </trkpt>
      <trkpt lat="47.48565" lon="6.74416">
        <ele>404</ele>
        <time>2015-05-08T08:07:55.000Z</time>
      </trkpt>
      <trkpt lat="47.48565" lon="6.74406">
        <ele>403</ele>
        <time>2015-05-08T08:07:56.000Z</time>
      </trkpt>
      <trkpt lat="47.48566" lon="6.74385">
        <ele>399</ele>
        <time>2015-05-08T08:07:57.000Z</time>
      </trkpt>
      <trkpt lat="47.48566" lon="6.74373">
        <ele>398</ele>
        <time>2015-05-08T08:07:58.000Z</time>
      </trkpt>
      <trkpt lat="47.48568" lon="6.74367">
        <ele>399</ele>
        <time>2015-05-08T08:07:59.000Z</time>
      </trkpt>
      <trkpt lat="47.48569" lon="6.74362">
        <ele>399</ele>
        <time>2015-05-08T08:08:00.000Z</time>
      </trkpt>
      <trkpt lat="47.48568" lon="6.74349">
        <ele>400</ele>
        <time>2015-05-08T08:08:01.000Z</time>
      </trkpt>
      <trkpt lat="47.48568" lon="6.74337">
        <ele>402</ele>
        <time>2015-05-08T08:08:02.000Z</time>
      </trkpt>
      <trkpt lat="47.48568" lon="6.74326">
        <ele>400</ele>
        <time>2015-05-08T08:08:03.000Z</time>
      </trkpt>
      <trkpt lat="47.48568" lon="6.74314">
        <ele>398</ele>
        <time>2015-05-08T08:08:04.000Z</time>
      </trkpt>
      <trkpt lat="47.48569" lon="6.74305">
        <ele>397</ele>
        <time>2015-05-08T08:08:05.000Z</time>
      </trkpt>
      <trkpt lat="47.4857" lon="6.74294">
        <ele>396</ele>
        <time>2015-05-08T08:08:06.000Z</time>
      </trkpt>
      <trkpt lat="47.48569" lon="6.74286">
        <ele>396</ele>
        <time>2015-05-08T08:08:07.000Z</time>
      </trkpt>
      <trkpt lat="47.4857" lon="6.74276">
        <ele>397</ele>
        <time>2015-05-08T08:08:08.000Z</time>
      </trkpt>
      <trkpt lat="47.4857" lon="6.74265">
        <ele>398</ele>
        <time>2015-05-08T08:08:09.000Z</time>
      </trkpt>
      <trkpt lat="47.48573" lon="6.7426">
        <ele>400</ele>
        <time>2015-05-08T08:08:10.000Z</time>
      </trkpt>
      <trkpt lat="47.48573" lon="6.74254">
        <ele>401</ele>
        <time>2015-05-08T08:08:11.000Z</time>
      </trkpt>
      <trkpt lat="47.48574" lon="6.74249">
        <ele>401</ele>
        <time>2015-05-08T08:08:12.000Z</time>
      </trkpt>
      <trkpt lat="47.48577" lon="6.74245">
        <ele>402</ele>
        <time>2015-05-08T08:08:13.000Z</time>
      </trkpt>
      <trkpt lat="47.48578" lon="6.74238">
        <ele>400</ele>
        <time>2015-05-08T08:08:14.000Z</time>
      </trkpt>
      <trkpt lat="47.48578" lon="6.74207">
        <ele>394</ele>
        <time>2015-05-08T08:08:15.000Z</time>
      </trkpt>
      <trkpt lat="47.48579" lon="6.7418">
        <ele>397</ele>
        <time>2015-05-08T08:08:16.000Z</time>
      </trkpt>
      <trkpt lat="47.48579" lon="6.74172">
        <ele>399</ele>
        <time>2015-05-08T08:08:17.000Z</time>
      </trkpt>
      <trkpt lat="47.48578" lon="6.74163">
        <ele>398</ele>
        <time>2015-05-08T08:08:18.000Z</time>
      </trkpt>
      <trkpt lat="47.4858" lon="6.74151">
        <ele>395</ele>
        <time>2015-05-08T08:08:19.000Z</time>
      </trkpt>
      <trkpt lat="47.4858" lon="6.74139">
        <ele>392</ele>
        <time>2015-05-08T08:08:20.000Z</time>
      </trkpt>
      <trkpt lat="47.48581" lon="6.74122">
        <ele>391</ele>
        <time>2015-05-08T08:08:21.000Z</time>
      </trkpt>
      <trkpt lat="47.48583" lon="6.74108">
        <ele>391</ele>
        <time>2015-05-08T08:08:22.000Z</time>
      </trkpt>
      <trkpt lat="47.48584" lon="6.741">
        <ele>403</ele>
        <time>2015-05-08T08:08:23.000Z</time>
      </trkpt>
      <trkpt lat="47.48585" lon="6.74093">
        <ele>401</ele>
        <time>2015-05-08T08:08:24.000Z</time>
      </trkpt>
      <trkpt lat="47.48585" lon="6.74084">
        <ele>398</ele>
        <time>2015-05-08T08:08:25.000Z</time>
      </trkpt>
      <trkpt lat="47.48585" lon="6.74078">
        <ele>399</ele>
        <time>2015-05-08T08:08:27.000Z</time>
      </trkpt>
      <trkpt lat="47.48585" lon="6.74077">
        <ele>399</ele>
        <time>2015-05-08T08:08:28.000Z</time>
      </trkpt>
      <trkpt lat="47.48585" lon="6.7407">
        <ele>400</ele>
        <time>2015-05-08T08:08:31.000Z</time>
      </trkpt>
      <trkpt lat="47.48585" lon="6.74067">
        <ele>401</ele>
        <time>2015-05-08T08:08:32.000Z</time>
      </trkpt>
      <trkpt lat="47.48585" lon="6.74062">
        <ele>401</ele>
        <time>2015-05-08T08:08:33.000Z</time>
      </trkpt>
      <trkpt lat="47.48586" lon="6.74057">
        <ele>402</ele>
        <time>2015-05-08T08:08:34.000Z</time>
      </trkpt>
      <trkpt lat="47.48587" lon="6.74052">
        <ele>402</ele>
        <time>2015-05-08T08:08:35.000Z</time>
      </trkpt>
      <trkpt lat="47.48587" lon="6.74045">
        <ele>402</ele>
        <time>2015-05-08T08:08:36.000Z</time>
      </trkpt>
      <trkpt lat="47.48588" lon="6.74038">
        <ele>402</ele>
        <time>2015-05-08T08:08:37.000Z</time>
      </trkpt>
      <trkpt lat="47.48594" lon="6.74008">
        <ele>398</ele>
        <time>2015-05-08T08:08:38.000Z</time>
      </trkpt>
      <trkpt lat="47.48596" lon="6.74">
        <ele>398</ele>
        <time>2015-05-08T08:08:39.000Z</time>
      </trkpt>
      <trkpt lat="47.48597" lon="6.73994">
        <ele>396</ele>
        <time>2015-05-08T08:08:40.000Z</time>
      </trkpt>
      <trkpt lat="47.48598" lon="6.73988">
        <ele>396</ele>
        <time>2015-05-08T08:08:41.000Z</time>
      </trkpt>
      <trkpt lat="47.48599" lon="6.7398">
        <ele>396</ele>
        <time>2015-05-08T08:08:42.000Z</time>
      </trkpt>
      <trkpt lat="47.48599" lon="6.73974">
        <ele>396</ele>
        <time>2015-05-08T08:08:43.000Z</time>
      </trkpt>
      <trkpt lat="47.48599" lon="6.73969">
        <ele>396</ele>
        <time>2015-05-08T08:08:44.000Z</time>
      </trkpt>
      <trkpt lat="47.48599" lon="6.73963">
        <ele>396</ele>
        <time>2015-05-08T08:08:45.000Z</time>
      </trkpt>
      <trkpt lat="47.486" lon="6.73958">
        <ele>396</ele>
        <time>2015-05-08T08:08:46.000Z</time>
      </trkpt>
      <trkpt lat="47.48601" lon="6.73953">
        <ele>396</ele>
        <time>2015-05-08T08:08:47.000Z</time>
      </trkpt>
      <trkpt lat="47.48602" lon="6.73949">
        <ele>395</ele>
        <time>2015-05-08T08:08:48.000Z</time>
      </trkpt>
      <trkpt lat="47.48604" lon="6.73943">
        <ele>395</ele>
        <time>2015-05-08T08:08:49.000Z</time>
      </trkpt>
      <trkpt lat="47.48605" lon="6.73936">
        <ele>395</ele>
        <time>2015-05-08T08:08:50.000Z</time>
      </trkpt>
      <trkpt lat="47.48607" lon="6.73929">
        <ele>394</ele>
        <time>2015-05-08T08:08:51.000Z</time>
      </trkpt>
      <trkpt lat="47.48608" lon="6.73922">
        <ele>394</ele>
        <time>2015-05-08T08:08:52.000Z</time>
      </trkpt>
      <trkpt lat="47.4861" lon="6.73916">
        <ele>389</ele>
        <time>2015-05-08T08:08:53.000Z</time>
      </trkpt>
      <trkpt lat="47.48611" lon="6.7391">
        <ele>389</ele>
        <time>2015-05-08T08:08:54.000Z</time>
      </trkpt>
      <trkpt lat="47.48612" lon="6.73903">
        <ele>389</ele>
        <time>2015-05-08T08:08:55.000Z</time>
      </trkpt>
      <trkpt lat="47.48612" lon="6.73897">
        <ele>388</ele>
        <time>2015-05-08T08:08:56.000Z</time>
      </trkpt>
      <trkpt lat="47.48613" lon="6.73891">
        <ele>388</ele>
        <time>2015-05-08T08:08:57.000Z</time>
      </trkpt>
      <trkpt lat="47.48613" lon="6.73884">
        <ele>388</ele>
        <time>2015-05-08T08:08:58.000Z</time>
      </trkpt>
      <trkpt lat="47.48614" lon="6.73878">
        <ele>387</ele>
        <time>2015-05-08T08:08:59.000Z</time>
      </trkpt>
      <trkpt lat="47.48614" lon="6.7387">
        <ele>387</ele>
        <time>2015-05-08T08:09:00.000Z</time>
      </trkpt>
      <trkpt lat="47.48615" lon="6.73863">
        <ele>387</ele>
        <time>2015-05-08T08:09:01.000Z</time>
      </trkpt>
      <trkpt lat="47.48617" lon="6.73854">
        <ele>386</ele>
        <time>2015-05-08T08:09:02.000Z</time>
      </trkpt>
      <trkpt lat="47.48618" lon="6.73847">
        <ele>386</ele>
        <time>2015-05-08T08:09:03.000Z</time>
      </trkpt>
      <trkpt lat="47.4862" lon="6.7384">
        <ele>386</ele>
        <time>2015-05-08T08:09:04.000Z</time>
      </trkpt>
      <trkpt lat="47.48621" lon="6.73834">
        <ele>386</ele>
        <time>2015-05-08T08:09:05.000Z</time>
      </trkpt>
      <trkpt lat="47.48621" lon="6.73829">
        <ele>382</ele>
        <time>2015-05-08T08:09:06.000Z</time>
      </trkpt>
      <trkpt lat="47.48622" lon="6.73823">
        <ele>382</ele>
        <time>2015-05-08T08:09:07.000Z</time>
      </trkpt>
      <trkpt lat="47.48622" lon="6.73817">
        <ele>382</ele>
        <time>2015-05-08T08:09:08.000Z</time>
      </trkpt>
      <trkpt lat="47.48622" lon="6.7381">
        <ele>382</ele>
        <time>2015-05-08T08:09:09.000Z</time>
      </trkpt>
      <trkpt lat="47.48621" lon="6.73802">
        <ele>382</ele>
        <time>2015-05-08T08:09:10.000Z</time>
      </trkpt>
      <trkpt lat="47.48621" lon="6.73794">
        <ele>382</ele>
        <time>2015-05-08T08:09:11.000Z</time>
      </trkpt>
      <trkpt lat="47.48621" lon="6.73784">
        <ele>382</ele>
        <time>2015-05-08T08:09:12.000Z</time>
      </trkpt>
      <trkpt lat="47.48621" lon="6.73774">
        <ele>382</ele>
        <time>2015-05-08T08:09:13.000Z</time>
      </trkpt>
      <trkpt lat="47.48621" lon="6.73735">
        <ele>382</ele>
        <time>2015-05-08T08:09:14.000Z</time>
      </trkpt>
      <trkpt lat="47.48617" lon="6.73724">
        <ele>382</ele>
        <time>2015-05-08T08:09:15.000Z</time>
      </trkpt>
      <trkpt lat="47.48616" lon="6.73711">
        <ele>382</ele>
        <time>2015-05-08T08:09:16.000Z</time>
      </trkpt>
      <trkpt lat="47.48615" lon="6.73698">
        <ele>382</ele>
        <time>2015-05-08T08:09:17.000Z</time>
      </trkpt>
      <trkpt lat="47.48614" lon="6.73687">
        <ele>382</ele>
        <time>2015-05-08T08:09:18.000Z</time>
      </trkpt>
      <trkpt lat="47.48613" lon="6.73671">
        <ele>382</ele>
        <time>2015-05-08T08:09:19.000Z</time>
      </trkpt>
      <trkpt lat="47.48612" lon="6.7366">
        <ele>381</ele>
        <time>2015-05-08T08:09:20.000Z</time>
      </trkpt>
      <trkpt lat="47.48612" lon="6.73651">
        <ele>381</ele>
        <time>2015-05-08T08:09:21.000Z</time>
      </trkpt>
      <trkpt lat="47.48614" lon="6.73639">
        <ele>381</ele>
        <time>2015-05-08T08:09:22.000Z</time>
      </trkpt>
      <trkpt lat="47.48615" lon="6.73626">
        <ele>380</ele>
        <time>2015-05-08T08:09:23.000Z</time>
      </trkpt>
      <trkpt lat="47.48617" lon="6.73616">
        <ele>380</ele>
        <time>2015-05-08T08:09:24.000Z</time>
      </trkpt>
      <trkpt lat="47.48619" lon="6.73606">
        <ele>380</ele>
        <time>2015-05-08T08:09:25.000Z</time>
      </trkpt>
      <trkpt lat="47.48622" lon="6.73597">
        <ele>380</ele>
        <time>2015-05-08T08:09:26.000Z</time>
      </trkpt>
      <trkpt lat="47.48624" lon="6.73584">
        <ele>380</ele>
        <time>2015-05-08T08:09:27.000Z</time>
      </trkpt>
      <trkpt lat="47.48626" lon="6.73574">
        <ele>376</ele>
        <time>2015-05-08T08:09:28.000Z</time>
      </trkpt>
      <trkpt lat="47.48628" lon="6.73566">
        <ele>376</ele>
        <time>2015-05-08T08:09:29.000Z</time>
      </trkpt>
      <trkpt lat="47.4863" lon="6.73561">
        <ele>376</ele>
        <time>2015-05-08T08:09:30.000Z</time>
      </trkpt>
      <trkpt lat="47.48631" lon="6.73556">
        <ele>375</ele>
        <time>2015-05-08T08:09:31.000Z</time>
      </trkpt>
      <trkpt lat="47.4863" lon="6.73555">
        <ele>375</ele>
        <time>2015-05-08T08:09:37.000Z</time>
      </trkpt>
      <trkpt lat="47.48631" lon="6.73546">
        <ele>375</ele>
        <time>2015-05-08T08:09:38.000Z</time>
      </trkpt>
      <trkpt lat="47.4863" lon="6.73542">
        <ele>375</ele>
        <time>2015-05-08T08:09:41.000Z</time>
      </trkpt>
      <trkpt lat="47.48629" lon="6.7354">
        <ele>375</ele>
        <time>2015-05-08T08:09:42.000Z</time>
      </trkpt>
      <trkpt lat="47.48629" lon="6.73534">
        <ele>374</ele>
        <time>2015-05-08T08:09:44.000Z</time>
      </trkpt>
      <trkpt lat="47.48629" lon="6.73529">
        <ele>374</ele>
        <time>2015-05-08T08:09:45.000Z</time>
      </trkpt>
      <trkpt lat="47.4863" lon="6.73524">
        <ele>374</ele>
        <time>2015-05-08T08:09:46.000Z</time>
      </trkpt>
      <trkpt lat="47.48631" lon="6.73518">
        <ele>374</ele>
        <time>2015-05-08T08:09:47.000Z</time>
      </trkpt>
      <trkpt lat="47.48632" lon="6.73511">
        <ele>374</ele>
        <time>2015-05-08T08:09:48.000Z</time>
      </trkpt>
      <trkpt lat="47.48632" lon="6.73504">
        <ele>373</ele>
        <time>2015-05-08T08:09:49.000Z</time>
      </trkpt>
      <trkpt lat="47.48633" lon="6.73497">
        <ele>368</ele>
        <time>2015-05-08T08:09:50.000Z</time>
      </trkpt>
      <trkpt lat="47.48634" lon="6.7349">
        <ele>368</ele>
        <time>2015-05-08T08:09:51.000Z</time>
      </trkpt>
      <trkpt lat="47.48635" lon="6.73484">
        <ele>368</ele>
        <time>2015-05-08T08:09:52.000Z</time>
      </trkpt>
      <trkpt lat="47.48637" lon="6.7348">
        <ele>368</ele>
        <time>2015-05-08T08:09:53.000Z</time>
      </trkpt>
      <trkpt lat="47.48648" lon="6.73492">
        <ele>369</ele>
        <time>2015-05-08T08:09:54.000Z</time>
      </trkpt>
      <trkpt lat="47.48651" lon="6.73489">
        <ele>369</ele>
        <time>2015-05-08T08:09:55.000Z</time>
      </trkpt>
      <trkpt lat="47.48653" lon="6.73492">
        <ele>369</ele>
        <time>2015-05-08T08:09:55.998Z</time>
      </trkpt>
      <trkpt lat="47.48657" lon="6.7349">
        <ele>370</ele>
        <time>2015-05-08T08:09:58.000Z</time>
      </trkpt>
      <trkpt lat="47.48661" lon="6.73493">
        <ele>370</ele>
        <time>2015-05-08T08:09:59.000Z</time>
      </trkpt>
      <trkpt lat="47.48664" lon="6.73494">
        <ele>371</ele>
        <time>2015-05-08T08:10:00.000Z</time>
      </trkpt>
      <trkpt lat="47.48666" lon="6.73495">
        <ele>371</ele>
        <time>2015-05-08T08:10:01.000Z</time>
      </trkpt>
      <trkpt lat="47.48669" lon="6.735">
        <ele>371</ele>
        <time>2015-05-08T08:10:03.000Z</time>
      </trkpt>
      <trkpt lat="47.48671" lon="6.73502">
        <ele>372</ele>
        <time>2015-05-08T08:10:04.000Z</time>
      </trkpt>
      <trkpt lat="47.48674" lon="6.73506">
        <ele>373</ele>
        <time>2015-05-08T08:10:06.000Z</time>
      </trkpt>
      <trkpt lat="47.48676" lon="6.73509">
        <ele>373</ele>
        <time>2015-05-08T08:10:07.000Z</time>
      </trkpt>
      <trkpt lat="47.48678" lon="6.73511">
        <ele>373</ele>
        <time>2015-05-08T08:10:08.000Z</time>
      </trkpt>
      <trkpt lat="47.4868" lon="6.73514">
        <ele>373</ele>
        <time>2015-05-08T08:10:09.000Z</time>
      </trkpt>
      <trkpt lat="47.48683" lon="6.73517">
        <ele>374</ele>
        <time>2015-05-08T08:10:10.000Z</time>
      </trkpt>
      <trkpt lat="47.48685" lon="6.73519">
        <ele>374</ele>
        <time>2015-05-08T08:10:11.000Z</time>
      </trkpt>
      <trkpt lat="47.48688" lon="6.73523">
        <ele>374</ele>
        <time>2015-05-08T08:10:12.000Z</time>
      </trkpt>
      <trkpt lat="47.48691" lon="6.73526">
        <ele>374</ele>
        <time>2015-05-08T08:10:13.000Z</time>
      </trkpt>
      <trkpt lat="47.48694" lon="6.73529">
        <ele>374</ele>
        <time>2015-05-08T08:10:14.000Z</time>
      </trkpt>
      <trkpt lat="47.48698" lon="6.73534">
        <ele>374</ele>
        <time>2015-05-08T08:10:15.000Z</time>
      </trkpt>
      <trkpt lat="47.48701" lon="6.73538">
        <ele>375</ele>
        <time>2015-05-08T08:10:16.000Z</time>
      </trkpt>
      <trkpt lat="47.48705" lon="6.73542">
        <ele>375</ele>
        <time>2015-05-08T08:10:17.000Z</time>
      </trkpt>
      <trkpt lat="47.48708" lon="6.73545">
        <ele>375</ele>
        <time>2015-05-08T08:10:18.000Z</time>
      </trkpt>
      <trkpt lat="47.48712" lon="6.73549">
        <ele>375</ele>
        <time>2015-05-08T08:10:19.000Z</time>
      </trkpt>
      <trkpt lat="47.48716" lon="6.73552">
        <ele>375</ele>
        <time>2015-05-08T08:10:20.000Z</time>
      </trkpt>
      <trkpt lat="47.48719" lon="6.73555">
        <ele>375</ele>
        <time>2015-05-08T08:10:21.000Z</time>
      </trkpt>
      <trkpt lat="47.48723" lon="6.73558">
        <ele>375</ele>
        <time>2015-05-08T08:10:22.000Z</time>
      </trkpt>
      <trkpt lat="47.48726" lon="6.7356">
        <ele>376</ele>
        <time>2015-05-08T08:10:23.000Z</time>
      </trkpt>
      <trkpt lat="47.4873" lon="6.73562">
        <ele>376</ele>
        <time>2015-05-08T08:10:24.000Z</time>
      </trkpt>
      <trkpt lat="47.48734" lon="6.73564">
        <ele>376</ele>
        <time>2015-05-08T08:10:25.000Z</time>
      </trkpt>
      <trkpt lat="47.48737" lon="6.73566">
        <ele>376</ele>
        <time>2015-05-08T08:10:26.000Z</time>
      </trkpt>
      <trkpt lat="47.48741" lon="6.73567">
        <ele>376</ele>
        <time>2015-05-08T08:10:27.000Z</time>
      </trkpt>
      <trkpt lat="47.48745" lon="6.73569">
        <ele>376</ele>
        <time>2015-05-08T08:10:28.000Z</time>
      </trkpt>
      <trkpt lat="47.4875" lon="6.7357">
        <ele>377</ele>
        <time>2015-05-08T08:10:29.000Z</time>
      </trkpt>
      <trkpt lat="47.48754" lon="6.73571">
        <ele>377</ele>
        <time>2015-05-08T08:10:30.000Z</time>
      </trkpt>
      <trkpt lat="47.48758" lon="6.73572">
        <ele>377</ele>
        <time>2015-05-08T08:10:31.000Z</time>
      </trkpt>
      <trkpt lat="47.48761" lon="6.73574">
        <ele>377</ele>
        <time>2015-05-08T08:10:32.000Z</time>
      </trkpt>
      <trkpt lat="47.48765" lon="6.73577">
        <ele>376</ele>
        <time>2015-05-08T08:10:33.000Z</time>
      </trkpt>
      <trkpt lat="47.48769" lon="6.73579">
        <ele>376</ele>
        <time>2015-05-08T08:10:34.000Z</time>
      </trkpt>
      <trkpt lat="47.48773" lon="6.73581">
        <ele>376</ele>
        <time>2015-05-08T08:10:35.000Z</time>
      </trkpt>
      <trkpt lat="47.48777" lon="6.73583">
        <ele>376</ele>
        <time>2015-05-08T08:10:36.000Z</time>
      </trkpt>
      <trkpt lat="47.48781" lon="6.73585">
        <ele>380</ele>
        <time>2015-05-08T08:10:37.000Z</time>
      </trkpt>
      <trkpt lat="47.48784" lon="6.73587">
        <ele>380</ele>
        <time>2015-05-08T08:10:38.000Z</time>
      </trkpt>
      <trkpt lat="47.48787" lon="6.73588">
        <ele>381</ele>
        <time>2015-05-08T08:10:39.000Z</time>
      </trkpt>
      <trkpt lat="47.4879" lon="6.73589">
        <ele>381</ele>
        <time>2015-05-08T08:10:40.000Z</time>
      </trkpt>
      <trkpt lat="47.48792" lon="6.7359">
        <ele>381</ele>
        <time>2015-05-08T08:10:41.000Z</time>
      </trkpt>
      <trkpt lat="47.48795" lon="6.73591">
        <ele>381</ele>
        <time>2015-05-08T08:10:42.000Z</time>
      </trkpt>
      <trkpt lat="47.48797" lon="6.73593">
        <ele>381</ele>
        <time>2015-05-08T08:10:43.000Z</time>
      </trkpt>
      <trkpt lat="47.48799" lon="6.73596">
        <ele>381</ele>
        <time>2015-05-08T08:10:44.000Z</time>
      </trkpt>
      <trkpt lat="47.48801" lon="6.73598">
        <ele>381</ele>
        <time>2015-05-08T08:10:45.000Z</time>
      </trkpt>
      <trkpt lat="47.48804" lon="6.73601">
        <ele>381</ele>
        <time>2015-05-08T08:10:46.000Z</time>
      </trkpt>
      <trkpt lat="47.48808" lon="6.73603">
        <ele>381</ele>
        <time>2015-05-08T08:10:47.000Z</time>
      </trkpt>
      <trkpt lat="47.48812" lon="6.73604">
        <ele>381</ele>
        <time>2015-05-08T08:10:48.000Z</time>
      </trkpt>
      <trkpt lat="47.48816" lon="6.73606">
        <ele>381</ele>
        <time>2015-05-08T08:10:49.000Z</time>
      </trkpt>
      <trkpt lat="47.48819" lon="6.73609">
        <ele>381</ele>
        <time>2015-05-08T08:10:50.000Z</time>
      </trkpt>
      <trkpt lat="47.48823" lon="6.73611">
        <ele>381</ele>
        <time>2015-05-08T08:10:51.000Z</time>
      </trkpt>
      <trkpt lat="47.48827" lon="6.73615">
        <ele>381</ele>
        <time>2015-05-08T08:10:52.000Z</time>
      </trkpt>
      <trkpt lat="47.4883" lon="6.73618">
        <ele>381</ele>
        <time>2015-05-08T08:10:53.000Z</time>
      </trkpt>
      <trkpt lat="47.48834" lon="6.73621">
        <ele>381</ele>
        <time>2015-05-08T08:10:54.000Z</time>
      </trkpt>
      <trkpt lat="47.48836" lon="6.73624">
        <ele>381</ele>
        <time>2015-05-08T08:10:55.000Z</time>
      </trkpt>
      <trkpt lat="47.48839" lon="6.73625">
        <ele>381</ele>
        <time>2015-05-08T08:10:56.000Z</time>
      </trkpt>
      <trkpt lat="47.48842" lon="6.73626">
        <ele>381</ele>
        <time>2015-05-08T08:10:57.000Z</time>
      </trkpt>
      <trkpt lat="47.48846" lon="6.73628">
        <ele>381</ele>
        <time>2015-05-08T08:10:59.000Z</time>
      </trkpt>
      <trkpt lat="47.48848" lon="6.73628">
        <ele>381</ele>
        <time>2015-05-08T08:11:00.000Z</time>
      </trkpt>
      <trkpt lat="47.4885" lon="6.73628">
        <ele>381</ele>
        <time>2015-05-08T08:11:01.000Z</time>
      </trkpt>
      <trkpt lat="47.48853" lon="6.73628">
        <ele>381</ele>
        <time>2015-05-08T08:11:02.000Z</time>
      </trkpt>
      <trkpt lat="47.48856" lon="6.73628">
        <ele>381</ele>
        <time>2015-05-08T08:11:03.000Z</time>
      </trkpt>
      <trkpt lat="47.48859" lon="6.73628">
        <ele>381</ele>
        <time>2015-05-08T08:11:04.000Z</time>
      </trkpt>
      <trkpt lat="47.48862" lon="6.73629">
        <ele>381</ele>
        <time>2015-05-08T08:11:05.000Z</time>
      </trkpt>
      <trkpt lat="47.48866" lon="6.73628">
        <ele>380</ele>
        <time>2015-05-08T08:11:06.000Z</time>
      </trkpt>
      <trkpt lat="47.48869" lon="6.73627">
        <ele>380</ele>
        <time>2015-05-08T08:11:07.000Z</time>
      </trkpt>
      <trkpt lat="47.48872" lon="6.73625">
        <ele>380</ele>
        <time>2015-05-08T08:11:08.000Z</time>
      </trkpt>
      <trkpt lat="47.48876" lon="6.73623">
        <ele>380</ele>
        <time>2015-05-08T08:11:10.000Z</time>
      </trkpt>
      <trkpt lat="47.48877" lon="6.73622">
        <ele>380</ele>
        <time>2015-05-08T08:11:11.000Z</time>
      </trkpt>
      <trkpt lat="47.48881" lon="6.73621">
        <ele>380</ele>
        <time>2015-05-08T08:11:14.000Z</time>
      </trkpt>
      <trkpt lat="47.48882" lon="6.7362">
        <ele>380</ele>
        <time>2015-05-08T08:11:15.000Z</time>
      </trkpt>
      <trkpt lat="47.48886" lon="6.73618">
        <ele>380</ele>
        <time>2015-05-08T08:11:24.000Z</time>
      </trkpt>
      <trkpt lat="47.48886" lon="6.73618">
        <ele>380</ele>
        <time>2015-05-08T08:11:25.000Z</time>
      </trkpt>
      <trkpt lat="47.4889" lon="6.73614">
        <ele>380</ele>
        <time>2015-05-08T08:11:31.000Z</time>
      </trkpt>
      <trkpt lat="47.4889" lon="6.73614">
        <ele>380</ele>
        <time>2015-05-08T08:11:32.000Z</time>
      </trkpt>
      <trkpt lat="47.48894" lon="6.73611">
        <ele>380</ele>
        <time>2015-05-08T08:11:38.000Z</time>
      </trkpt>
      <trkpt lat="47.48894" lon="6.7361">
        <ele>380</ele>
        <time>2015-05-08T08:11:39.000Z</time>
      </trkpt>
      <trkpt lat="47.48898" lon="6.73606">
        <ele>380</ele>
        <time>2015-05-08T08:11:51.000Z</time>
      </trkpt>
      <trkpt lat="47.489" lon="6.73606">
        <ele>379</ele>
        <time>2015-05-08T08:11:52.000Z</time>
      </trkpt>
      <trkpt lat="47.48902" lon="6.73606">
        <ele>379</ele>
        <time>2015-05-08T08:11:53.000Z</time>
      </trkpt>
      <trkpt lat="47.48905" lon="6.73606">
        <ele>379</ele>
        <time>2015-05-08T08:11:54.000Z</time>
      </trkpt>
      <trkpt lat="47.48907" lon="6.73606">
        <ele>379</ele>
        <time>2015-05-08T08:11:55.000Z</time>
      </trkpt>
      <trkpt lat="47.48909" lon="6.73606">
        <ele>379</ele>
        <time>2015-05-08T08:11:55.999Z</time>
      </trkpt>
      <trkpt lat="47.48912" lon="6.73604">
        <ele>379</ele>
        <time>2015-05-08T08:11:57.000Z</time>
      </trkpt>
      <trkpt lat="47.48913" lon="6.73602">
        <ele>379</ele>
        <time>2015-05-08T08:11:58.000Z</time>
      </trkpt>
      <trkpt lat="47.48915" lon="6.736">
        <ele>379</ele>
        <time>2015-05-08T08:11:59.000Z</time>
      </trkpt>
      <trkpt lat="47.48917" lon="6.73597">
        <ele>378</ele>
        <time>2015-05-08T08:12:00.000Z</time>
      </trkpt>
      <trkpt lat="47.4892" lon="6.73594">
        <ele>378</ele>
        <time>2015-05-08T08:12:01.000Z</time>
      </trkpt>
      <trkpt lat="47.48924" lon="6.73575">
        <ele>378</ele>
        <time>2015-05-08T08:12:02.000Z</time>
      </trkpt>
      <trkpt lat="47.48927" lon="6.73567">
        <ele>377</ele>
        <time>2015-05-08T08:12:03.000Z</time>
      </trkpt>
      <trkpt lat="47.4893" lon="6.73567">
        <ele>377</ele>
        <time>2015-05-08T08:12:04.000Z</time>
      </trkpt>
      <trkpt lat="47.48934" lon="6.73565">
        <ele>377</ele>
        <time>2015-05-08T08:12:05.000Z</time>
      </trkpt>
      <trkpt lat="47.48937" lon="6.73563">
        <ele>377</ele>
        <time>2015-05-08T08:12:06.000Z</time>
      </trkpt>
      <trkpt lat="47.48939" lon="6.73561">
        <ele>377</ele>
        <time>2015-05-08T08:12:07.000Z</time>
      </trkpt>
      <trkpt lat="47.48942" lon="6.73557">
        <ele>377</ele>
        <time>2015-05-08T08:12:08.000Z</time>
      </trkpt>
      <trkpt lat="47.48943" lon="6.73554">
        <ele>377</ele>
        <time>2015-05-08T08:12:09.000Z</time>
      </trkpt>
      <trkpt lat="47.48945" lon="6.73552">
        <ele>377</ele>
        <time>2015-05-08T08:12:10.000Z</time>
      </trkpt>
      <trkpt lat="47.48948" lon="6.7355">
        <ele>377</ele>
        <time>2015-05-08T08:12:11.000Z</time>
      </trkpt>
      <trkpt lat="47.48951" lon="6.73549">
        <ele>377</ele>
        <time>2015-05-08T08:12:12.000Z</time>
      </trkpt>
      <trkpt lat="47.48953" lon="6.73547">
        <ele>377</ele>
        <time>2015-05-08T08:12:13.000Z</time>
      </trkpt>
      <trkpt lat="47.48956" lon="6.73544">
        <ele>377</ele>
        <time>2015-05-08T08:12:14.000Z</time>
      </trkpt>
      <trkpt lat="47.48959" lon="6.73541">
        <ele>377</ele>
        <time>2015-05-08T08:12:15.000Z</time>
      </trkpt>
      <trkpt lat="47.48963" lon="6.73538">
        <ele>377</ele>
        <time>2015-05-08T08:12:16.000Z</time>
      </trkpt>
      <trkpt lat="47.48966" lon="6.73536">
        <ele>377</ele>
        <time>2015-05-08T08:12:17.000Z</time>
      </trkpt>
      <trkpt lat="47.4897" lon="6.73534">
        <ele>377</ele>
        <time>2015-05-08T08:12:18.000Z</time>
      </trkpt>
      <trkpt lat="47.48974" lon="6.73533">
        <ele>377</ele>
        <time>2015-05-08T08:12:19.000Z</time>
      </trkpt>
      <trkpt lat="47.48977" lon="6.73533">
        <ele>377</ele>
        <time>2015-05-08T08:12:20.000Z</time>
      </trkpt>
      <trkpt lat="47.48981" lon="6.73532">
        <ele>377</ele>
        <time>2015-05-08T08:12:21.000Z</time>
      </trkpt>
      <trkpt lat="47.48984" lon="6.73532">
        <ele>377</ele>
        <time>2015-05-08T08:12:22.000Z</time>
      </trkpt>
      <trkpt lat="47.48987" lon="6.73531">
        <ele>378</ele>
        <time>2015-05-08T08:12:23.000Z</time>
      </trkpt>
      <trkpt lat="47.4899" lon="6.73531">
        <ele>378</ele>
        <time>2015-05-08T08:12:24.000Z</time>
      </trkpt>
      <trkpt lat="47.48993" lon="6.7353">
        <ele>378</ele>
        <time>2015-05-08T08:12:25.000Z</time>
      </trkpt>
      <trkpt lat="47.48997" lon="6.73528">
        <ele>378</ele>
        <time>2015-05-08T08:12:26.000Z</time>
      </trkpt>
      <trkpt lat="47.49" lon="6.73527">
        <ele>379</ele>
        <time>2015-05-08T08:12:27.000Z</time>
      </trkpt>
      <trkpt lat="47.49004" lon="6.73525">
        <ele>379</ele>
        <time>2015-05-08T08:12:28.000Z</time>
      </trkpt>
      <trkpt lat="47.49008" lon="6.73523">
        <ele>379</ele>
        <time>2015-05-08T08:12:29.000Z</time>
      </trkpt>
      <trkpt lat="47.49012" lon="6.7352">
        <ele>379</ele>
        <time>2015-05-08T08:12:30.000Z</time>
      </trkpt>
      <trkpt lat="47.49016" lon="6.73518">
        <ele>379</ele>
        <time>2015-05-08T08:12:31.000Z</time>
      </trkpt>
      <trkpt lat="47.4902" lon="6.73515">
        <ele>379</ele>
        <time>2015-05-08T08:12:32.000Z</time>
      </trkpt>
      <trkpt lat="47.49023" lon="6.73513">
        <ele>380</ele>
        <time>2015-05-08T08:12:33.000Z</time>
      </trkpt>
      <trkpt lat="47.49026" lon="6.73511">
        <ele>380</ele>
        <time>2015-05-08T08:12:34.000Z</time>
      </trkpt>
      <trkpt lat="47.4903" lon="6.73509">
        <ele>380</ele>
        <time>2015-05-08T08:12:35.000Z</time>
      </trkpt>
      <trkpt lat="47.49033" lon="6.73507">
        <ele>380</ele>
        <time>2015-05-08T08:12:36.000Z</time>
      </trkpt>
      <trkpt lat="47.49036" lon="6.73505">
        <ele>380</ele>
        <time>2015-05-08T08:12:37.000Z</time>
      </trkpt>
      <trkpt lat="47.49039" lon="6.73501">
        <ele>380</ele>
        <time>2015-05-08T08:12:38.000Z</time>
      </trkpt>
      <trkpt lat="47.49041" lon="6.73497">
        <ele>382</ele>
        <time>2015-05-08T08:12:39.000Z</time>
      </trkpt>
      <trkpt lat="47.49043" lon="6.73491">
        <ele>382</ele>
        <time>2015-05-08T08:12:40.000Z</time>
      </trkpt>
      <trkpt lat="47.49045" lon="6.73486">
        <ele>382</ele>
        <time>2015-05-08T08:12:41.000Z</time>
      </trkpt>
      <trkpt lat="47.49047" lon="6.73481">
        <ele>382</ele>
        <time>2015-05-08T08:12:42.000Z</time>
      </trkpt>
      <trkpt lat="47.49048" lon="6.73473">
        <ele>382</ele>
        <time>2015-05-08T08:12:43.000Z</time>
      </trkpt>
      <trkpt lat="47.49049" lon="6.73451">
        <ele>382</ele>
        <time>2015-05-08T08:12:44.000Z</time>
      </trkpt>
      <trkpt lat="47.49052" lon="6.73444">
        <ele>382</ele>
        <time>2015-05-08T08:12:45.000Z</time>
      </trkpt>
      <trkpt lat="47.49054" lon="6.7344">
        <ele>383</ele>
        <time>2015-05-08T08:12:46.000Z</time>
      </trkpt>
      <trkpt lat="47.49055" lon="6.73437">
        <ele>383</ele>
        <time>2015-05-08T08:12:47.000Z</time>
      </trkpt>
      <trkpt lat="47.49058" lon="6.73434">
        <ele>383</ele>
        <time>2015-05-08T08:12:48.000Z</time>
      </trkpt>
      <trkpt lat="47.4906" lon="6.73427">
        <ele>383</ele>
        <time>2015-05-08T08:12:49.000Z</time>
      </trkpt>
      <trkpt lat="47.49063" lon="6.73421">
        <ele>384</ele>
        <time>2015-05-08T08:12:50.000Z</time>
      </trkpt>
      <trkpt lat="47.49065" lon="6.73417">
        <ele>384</ele>
        <time>2015-05-08T08:12:51.000Z</time>
      </trkpt>
      <trkpt lat="47.49067" lon="6.73414">
        <ele>384</ele>
        <time>2015-05-08T08:12:52.000Z</time>
      </trkpt>
      <trkpt lat="47.4907" lon="6.7341">
        <ele>385</ele>
        <time>2015-05-08T08:12:53.000Z</time>
      </trkpt>
      <trkpt lat="47.49073" lon="6.73407">
        <ele>385</ele>
        <time>2015-05-08T08:12:54.000Z</time>
      </trkpt>
      <trkpt lat="47.49075" lon="6.73403">
        <ele>385</ele>
        <time>2015-05-08T08:12:55.000Z</time>
      </trkpt>
      <trkpt lat="47.49078" lon="6.73399">
        <ele>385</ele>
        <time>2015-05-08T08:12:56.000Z</time>
      </trkpt>
      <trkpt lat="47.49081" lon="6.73396">
        <ele>385</ele>
        <time>2015-05-08T08:12:57.000Z</time>
      </trkpt>
      <trkpt lat="47.49083" lon="6.73393">
        <ele>384</ele>
        <time>2015-05-08T08:12:58.000Z</time>
      </trkpt>
      <trkpt lat="47.49085" lon="6.73389">
        <ele>387</ele>
        <time>2015-05-08T08:12:59.000Z</time>
      </trkpt>
      <trkpt lat="47.49087" lon="6.73384">
        <ele>387</ele>
        <time>2015-05-08T08:13:00.000Z</time>
      </trkpt>
      <trkpt lat="47.49089" lon="6.73378">
        <ele>387</ele>
        <time>2015-05-08T08:13:01.000Z</time>
      </trkpt>
      <trkpt lat="47.49091" lon="6.73372">
        <ele>387</ele>
        <time>2015-05-08T08:13:02.000Z</time>
      </trkpt>
      <trkpt lat="47.49093" lon="6.73367">
        <ele>387</ele>
        <time>2015-05-08T08:13:03.000Z</time>
      </trkpt>
      <trkpt lat="47.49095" lon="6.73361">
        <ele>387</ele>
        <time>2015-05-08T08:13:04.000Z</time>
      </trkpt>
      <trkpt lat="47.49097" lon="6.73353">
        <ele>387</ele>
        <time>2015-05-08T08:13:05.000Z</time>
      </trkpt>
      <trkpt lat="47.49099" lon="6.73346">
        <ele>387</ele>
        <time>2015-05-08T08:13:06.000Z</time>
      </trkpt>
      <trkpt lat="47.49101" lon="6.73338">
        <ele>387</ele>
        <time>2015-05-08T08:13:07.000Z</time>
      </trkpt>
      <trkpt lat="47.49103" lon="6.73331">
        <ele>388</ele>
        <time>2015-05-08T08:13:08.000Z</time>
      </trkpt>
      <trkpt lat="47.49105" lon="6.73324">
        <ele>388</ele>
        <time>2015-05-08T08:13:09.000Z</time>
      </trkpt>
      <trkpt lat="47.49107" lon="6.73318">
        <ele>388</ele>
        <time>2015-05-08T08:13:10.000Z</time>
      </trkpt>
      <trkpt lat="47.49109" lon="6.73313">
        <ele>389</ele>
        <time>2015-05-08T08:13:11.000Z</time>
      </trkpt>
      <trkpt lat="47.4911" lon="6.73309">
        <ele>389</ele>
        <time>2015-05-08T08:13:12.000Z</time>
      </trkpt>
      <trkpt lat="47.49112" lon="6.73305">
        <ele>389</ele>
        <time>2015-05-08T08:13:13.000Z</time>
      </trkpt>
      <trkpt lat="47.49113" lon="6.73299">
        <ele>389</ele>
        <time>2015-05-08T08:13:14.000Z</time>
      </trkpt>
      <trkpt lat="47.49115" lon="6.73292">
        <ele>389</ele>
        <time>2015-05-08T08:13:15.000Z</time>
      </trkpt>
      <trkpt lat="47.49117" lon="6.73286">
        <ele>389</ele>
        <time>2015-05-08T08:13:16.000Z</time>
      </trkpt>
      <trkpt lat="47.49119" lon="6.73279">
        <ele>389</ele>
        <time>2015-05-08T08:13:17.000Z</time>
      </trkpt>
      <trkpt lat="47.4912" lon="6.73274">
        <ele>389</ele>
        <time>2015-05-08T08:13:18.000Z</time>
      </trkpt>
      <trkpt lat="47.49122" lon="6.7327">
        <ele>389</ele>
        <time>2015-05-08T08:13:19.000Z</time>
      </trkpt>
      <trkpt lat="47.49123" lon="6.73266">
        <ele>389</ele>
        <time>2015-05-08T08:13:20.000Z</time>
      </trkpt>
      <trkpt lat="47.49124" lon="6.73263">
        <ele>389</ele>
        <time>2015-05-08T08:13:21.000Z</time>
      </trkpt>
      <trkpt lat="47.49125" lon="6.7326">
        <ele>390</ele>
        <time>2015-05-08T08:13:22.000Z</time>
      </trkpt>
      <trkpt lat="47.49127" lon="6.73258">
        <ele>390</ele>
        <time>2015-05-08T08:13:23.000Z</time>
      </trkpt>
      <trkpt lat="47.49129" lon="6.73255">
        <ele>390</ele>
        <time>2015-05-08T08:13:24.000Z</time>
      </trkpt>
      <trkpt lat="47.4913" lon="6.73253">
        <ele>390</ele>
        <time>2015-05-08T08:13:25.000Z</time>
      </trkpt>
      <trkpt lat="47.49132" lon="6.7325">
        <ele>390</ele>
        <time>2015-05-08T08:13:26.000Z</time>
      </trkpt>
      <trkpt lat="47.49134" lon="6.73248">
        <ele>392</ele>
        <time>2015-05-08T08:13:27.000Z</time>
      </trkpt>
      <trkpt lat="47.49135" lon="6.73246">
        <ele>392</ele>
        <time>2015-05-08T08:13:28.000Z</time>
      </trkpt>
      <trkpt lat="47.49137" lon="6.73242">
        <ele>392</ele>
        <time>2015-05-08T08:13:29.000Z</time>
      </trkpt>
      <trkpt lat="47.4914" lon="6.73238">
        <ele>392</ele>
        <time>2015-05-08T08:13:30.000Z</time>
      </trkpt>
      <trkpt lat="47.49142" lon="6.73234">
        <ele>392</ele>
        <time>2015-05-08T08:13:31.000Z</time>
      </trkpt>
      <trkpt lat="47.49145" lon="6.7323">
        <ele>392</ele>
        <time>2015-05-08T08:13:32.000Z</time>
      </trkpt>
      <trkpt lat="47.49147" lon="6.73227">
        <ele>392</ele>
        <time>2015-05-08T08:13:33.000Z</time>
      </trkpt>
      <trkpt lat="47.49149" lon="6.73224">
        <ele>392</ele>
        <time>2015-05-08T08:13:34.000Z</time>
      </trkpt>
      <trkpt lat="47.49151" lon="6.73221">
        <ele>393</ele>
        <time>2015-05-08T08:13:35.000Z</time>
      </trkpt>
      <trkpt lat="47.49153" lon="6.73218">
        <ele>393</ele>
        <time>2015-05-08T08:13:36.000Z</time>
      </trkpt>
      <trkpt lat="47.49155" lon="6.73216">
        <ele>393</ele>
        <time>2015-05-08T08:13:37.000Z</time>
      </trkpt>
      <trkpt lat="47.49157" lon="6.73213">
        <ele>393</ele>
        <time>2015-05-08T08:13:38.000Z</time>
      </trkpt>
      <trkpt lat="47.49159" lon="6.73212">
        <ele>393</ele>
        <time>2015-05-08T08:13:39.000Z</time>
      </trkpt>
      <trkpt lat="47.49163" lon="6.7321">
        <ele>393</ele>
        <time>2015-05-08T08:13:41.000Z</time>
      </trkpt>
      <trkpt lat="47.49165" lon="6.73209">
        <ele>393</ele>
        <time>2015-05-08T08:13:42.000Z</time>
      </trkpt>
      <trkpt lat="47.49168" lon="6.73206">
        <ele>396</ele>
        <time>2015-05-08T08:13:44.000Z</time>
      </trkpt>
      <trkpt lat="47.49169" lon="6.73203">
        <ele>396</ele>
        <time>2015-05-08T08:13:45.000Z</time>
      </trkpt>
      <trkpt lat="47.4917" lon="6.732">
        <ele>396</ele>
        <time>2015-05-08T08:13:46.000Z</time>
      </trkpt>
      <trkpt lat="47.49171" lon="6.73197">
        <ele>396</ele>
        <time>2015-05-08T08:13:47.000Z</time>
      </trkpt>
      <trkpt lat="47.49171" lon="6.73193">
        <ele>396</ele>
        <time>2015-05-08T08:13:48.000Z</time>
      </trkpt>
      <trkpt lat="47.49172" lon="6.7319">
        <ele>396</ele>
        <time>2015-05-08T08:13:49.000Z</time>
      </trkpt>
      <trkpt lat="47.49173" lon="6.73186">
        <ele>396</ele>
        <time>2015-05-08T08:13:50.000Z</time>
      </trkpt>
      <trkpt lat="47.49174" lon="6.7318">
        <ele>397</ele>
        <time>2015-05-08T08:13:51.000Z</time>
      </trkpt>
      <trkpt lat="47.49176" lon="6.73174">
        <ele>397</ele>
        <time>2015-05-08T08:13:52.000Z</time>
      </trkpt>
      <trkpt lat="47.49178" lon="6.73167">
        <ele>397</ele>
        <time>2015-05-08T08:13:53.000Z</time>
      </trkpt>
      <trkpt lat="47.4918" lon="6.7316">
        <ele>397</ele>
        <time>2015-05-08T08:13:54.000Z</time>
      </trkpt>
      <trkpt lat="47.49181" lon="6.73155">
        <ele>397</ele>
        <time>2015-05-08T08:13:55.000Z</time>
      </trkpt>
      <trkpt lat="47.49182" lon="6.73149">
        <ele>397</ele>
        <time>2015-05-08T08:13:56.000Z</time>
      </trkpt>
      <trkpt lat="47.49183" lon="6.73144">
        <ele>396</ele>
        <time>2015-05-08T08:13:57.000Z</time>
      </trkpt>
      <trkpt lat="47.49184" lon="6.73139">
        <ele>396</ele>
        <time>2015-05-08T08:13:58.000Z</time>
      </trkpt>
      <trkpt lat="47.49184" lon="6.73134">
        <ele>396</ele>
        <time>2015-05-08T08:13:59.000Z</time>
      </trkpt>
      <trkpt lat="47.49185" lon="6.73128">
        <ele>396</ele>
        <time>2015-05-08T08:14:00.000Z</time>
      </trkpt>
      <trkpt lat="47.49185" lon="6.73123">
        <ele>396</ele>
        <time>2015-05-08T08:14:01.000Z</time>
      </trkpt>
      <trkpt lat="47.49185" lon="6.73119">
        <ele>396</ele>
        <time>2015-05-08T08:14:02.000Z</time>
      </trkpt>
      <trkpt lat="47.49185" lon="6.73114">
        <ele>396</ele>
        <time>2015-05-08T08:14:03.000Z</time>
      </trkpt>
      <trkpt lat="47.49185" lon="6.73109">
        <ele>396</ele>
        <time>2015-05-08T08:14:04.000Z</time>
      </trkpt>
      <trkpt lat="47.49186" lon="6.73103">
        <ele>396</ele>
        <time>2015-05-08T08:14:05.000Z</time>
      </trkpt>
      <trkpt lat="47.49186" lon="6.73098">
        <ele>395</ele>
        <time>2015-05-08T08:14:06.000Z</time>
      </trkpt>
      <trkpt lat="47.49187" lon="6.73092">
        <ele>395</ele>
        <time>2015-05-08T08:14:07.000Z</time>
      </trkpt>
      <trkpt lat="47.49187" lon="6.73085">
        <ele>395</ele>
        <time>2015-05-08T08:14:08.000Z</time>
      </trkpt>
      <trkpt lat="47.49188" lon="6.73079">
        <ele>395</ele>
        <time>2015-05-08T08:14:09.000Z</time>
      </trkpt>
      <trkpt lat="47.49188" lon="6.73073">
        <ele>395</ele>
        <time>2015-05-08T08:14:10.000Z</time>
      </trkpt>
      <trkpt lat="47.49188" lon="6.73068">
        <ele>395</ele>
        <time>2015-05-08T08:14:11.000Z</time>
      </trkpt>
      <trkpt lat="47.49189" lon="6.73063">
        <ele>395</ele>
        <time>2015-05-08T08:14:12.000Z</time>
      </trkpt>
      <trkpt lat="47.49189" lon="6.73058">
        <ele>395</ele>
        <time>2015-05-08T08:14:13.000Z</time>
      </trkpt>
      <trkpt lat="47.49189" lon="6.73055">
        <ele>395</ele>
        <time>2015-05-08T08:14:14.000Z</time>
      </trkpt>
      <trkpt lat="47.49189" lon="6.73051">
        <ele>395</ele>
        <time>2015-05-08T08:14:15.000Z</time>
      </trkpt>
      <trkpt lat="47.4919" lon="6.73047">
        <ele>395</ele>
        <time>2015-05-08T08:14:16.000Z</time>
      </trkpt>
      <trkpt lat="47.49191" lon="6.73042">
        <ele>395</ele>
        <time>2015-05-08T08:14:18.000Z</time>
      </trkpt>
      <trkpt lat="47.49192" lon="6.73039">
        <ele>395</ele>
        <time>2015-05-08T08:14:19.000Z</time>
      </trkpt>
      <trkpt lat="47.49193" lon="6.73036">
        <ele>395</ele>
        <time>2015-05-08T08:14:20.000Z</time>
      </trkpt>
      <trkpt lat="47.49193" lon="6.73032">
        <ele>395</ele>
        <time>2015-05-08T08:14:21.000Z</time>
      </trkpt>
      <trkpt lat="47.49194" lon="6.73027">
        <ele>395</ele>
        <time>2015-05-08T08:14:22.000Z</time>
      </trkpt>
      <trkpt lat="47.49194" lon="6.73023">
        <ele>394</ele>
        <time>2015-05-08T08:14:23.000Z</time>
      </trkpt>
      <trkpt lat="47.49194" lon="6.73019">
        <ele>394</ele>
        <time>2015-05-08T08:14:24.000Z</time>
      </trkpt>
      <trkpt lat="47.49194" lon="6.73015">
        <ele>394</ele>
        <time>2015-05-08T08:14:25.000Z</time>
      </trkpt>
      <trkpt lat="47.49195" lon="6.73011">
        <ele>394</ele>
        <time>2015-05-08T08:14:26.000Z</time>
      </trkpt>
      <trkpt lat="47.49196" lon="6.73007">
        <ele>394</ele>
        <time>2015-05-08T08:14:27.000Z</time>
      </trkpt>
      <trkpt lat="47.49197" lon="6.73003">
        <ele>394</ele>
        <time>2015-05-08T08:14:28.000Z</time>
      </trkpt>
      <trkpt lat="47.49198" lon="6.72999">
        <ele>394</ele>
        <time>2015-05-08T08:14:29.000Z</time>
      </trkpt>
      <trkpt lat="47.49199" lon="6.72996">
        <ele>394</ele>
        <time>2015-05-08T08:14:30.000Z</time>
      </trkpt>
      <trkpt lat="47.492" lon="6.72993">
        <ele>395</ele>
        <time>2015-05-08T08:14:31.000Z</time>
      </trkpt>
      <trkpt lat="47.49203" lon="6.72988">
        <ele>395</ele>
        <time>2015-05-08T08:14:33.000Z</time>
      </trkpt>
      <trkpt lat="47.49204" lon="6.72986">
        <ele>395</ele>
        <time>2015-05-08T08:14:34.000Z</time>
      </trkpt>
      <trkpt lat="47.49205" lon="6.7298">
        <ele>395</ele>
        <time>2015-05-08T08:14:36.000Z</time>
      </trkpt>
      <trkpt lat="47.49206" lon="6.72977">
        <ele>395</ele>
        <time>2015-05-08T08:14:37.000Z</time>
      </trkpt>
      <trkpt lat="47.49208" lon="6.72973">
        <ele>395</ele>
        <time>2015-05-08T08:14:38.000Z</time>
      </trkpt>
      <trkpt lat="47.49209" lon="6.72968">
        <ele>395</ele>
        <time>2015-05-08T08:14:39.000Z</time>
      </trkpt>
      <trkpt lat="47.49211" lon="6.72963">
        <ele>395</ele>
        <time>2015-05-08T08:14:40.000Z</time>
      </trkpt>
      <trkpt lat="47.49212" lon="6.72959">
        <ele>395</ele>
        <time>2015-05-08T08:14:41.000Z</time>
      </trkpt>
      <trkpt lat="47.49214" lon="6.72954">
        <ele>396</ele>
        <time>2015-05-08T08:14:42.000Z</time>
      </trkpt>
      <trkpt lat="47.49215" lon="6.72949">
        <ele>396</ele>
        <time>2015-05-08T08:14:43.000Z</time>
      </trkpt>
      <trkpt lat="47.49217" lon="6.72945">
        <ele>396</ele>
        <time>2015-05-08T08:14:44.000Z</time>
      </trkpt>
      <trkpt lat="47.49218" lon="6.72941">
        <ele>396</ele>
        <time>2015-05-08T08:14:45.000Z</time>
      </trkpt>
      <trkpt lat="47.49221" lon="6.72936">
        <ele>396</ele>
        <time>2015-05-08T08:14:47.000Z</time>
      </trkpt>
      <trkpt lat="47.49222" lon="6.72934">
        <ele>396</ele>
        <time>2015-05-08T08:14:48.000Z</time>
      </trkpt>
      <trkpt lat="47.49225" lon="6.72929">
        <ele>396</ele>
        <time>2015-05-08T08:14:50.000Z</time>
      </trkpt>
      <trkpt lat="47.49228" lon="6.72927">
        <ele>397</ele>
        <time>2015-05-08T08:14:51.000Z</time>
      </trkpt>
      <trkpt lat="47.49232" lon="6.72924">
        <ele>397</ele>
        <time>2015-05-08T08:14:52.000Z</time>
      </trkpt>
      <trkpt lat="47.49236" lon="6.72921">
        <ele>397</ele>
        <time>2015-05-08T08:14:53.000Z</time>
      </trkpt>
      <trkpt lat="47.4924" lon="6.72917">
        <ele>398</ele>
        <time>2015-05-08T08:14:54.000Z</time>
      </trkpt>
      <trkpt lat="47.49244" lon="6.72913">
        <ele>398</ele>
        <time>2015-05-08T08:14:55.000Z</time>
      </trkpt>
      <trkpt lat="47.49248" lon="6.72909">
        <ele>398</ele>
        <time>2015-05-08T08:14:56.000Z</time>
      </trkpt>
      <trkpt lat="47.49258" lon="6.72905">
        <ele>398</ele>
        <time>2015-05-08T08:14:57.000Z</time>
      </trkpt>
      <trkpt lat="47.49262" lon="6.72903">
        <ele>397</ele>
        <time>2015-05-08T08:14:58.000Z</time>
      </trkpt>
      <trkpt lat="47.49266" lon="6.72899">
        <ele>397</ele>
        <time>2015-05-08T08:14:59.000Z</time>
      </trkpt>
      <trkpt lat="47.4927" lon="6.72896">
        <ele>397</ele>
        <time>2015-05-08T08:15:00.000Z</time>
      </trkpt>
      <trkpt lat="47.49273" lon="6.72894">
        <ele>397</ele>
        <time>2015-05-08T08:15:01.000Z</time>
      </trkpt>
      <trkpt lat="47.49275" lon="6.7289">
        <ele>397</ele>
        <time>2015-05-08T08:15:02.000Z</time>
      </trkpt>
      <trkpt lat="47.49276" lon="6.72887">
        <ele>397</ele>
        <time>2015-05-08T08:15:03.000Z</time>
      </trkpt>
      <trkpt lat="47.49278" lon="6.72885">
        <ele>396</ele>
        <time>2015-05-08T08:15:04.000Z</time>
      </trkpt>
      <trkpt lat="47.4928" lon="6.72877">
        <ele>396</ele>
        <time>2015-05-08T08:15:05.000Z</time>
      </trkpt>
      <trkpt lat="47.49281" lon="6.72874">
        <ele>396</ele>
        <time>2015-05-08T08:15:06.000Z</time>
      </trkpt>
      <trkpt lat="47.49282" lon="6.72871">
        <ele>396</ele>
        <time>2015-05-08T08:15:07.000Z</time>
      </trkpt>
      <trkpt lat="47.49284" lon="6.72868">
        <ele>396</ele>
        <time>2015-05-08T08:15:08.000Z</time>
      </trkpt>
      <trkpt lat="47.49285" lon="6.72864">
        <ele>396</ele>
        <time>2015-05-08T08:15:09.000Z</time>
      </trkpt>
      <trkpt lat="47.49286" lon="6.7286">
        <ele>396</ele>
        <time>2015-05-08T08:15:10.000Z</time>
      </trkpt>
      <trkpt lat="47.49287" lon="6.72856">
        <ele>396</ele>
        <time>2015-05-08T08:15:11.000Z</time>
      </trkpt>
      <trkpt lat="47.49288" lon="6.7285">
        <ele>396</ele>
        <time>2015-05-08T08:15:12.000Z</time>
      </trkpt>
      <trkpt lat="47.4929" lon="6.72846">
        <ele>396</ele>
        <time>2015-05-08T08:15:13.000Z</time>
      </trkpt>
      <trkpt lat="47.4929" lon="6.72842">
        <ele>396</ele>
        <time>2015-05-08T08:15:14.000Z</time>
      </trkpt>
      <trkpt lat="47.49291" lon="6.72837">
        <ele>396</ele>
        <time>2015-05-08T08:15:15.000Z</time>
      </trkpt>
      <trkpt lat="47.49292" lon="6.72832">
        <ele>397</ele>
        <time>2015-05-08T08:15:16.000Z</time>
      </trkpt>
      <trkpt lat="47.49293" lon="6.72827">
        <ele>397</ele>
        <time>2015-05-08T08:15:17.000Z</time>
      </trkpt>
      <trkpt lat="47.49293" lon="6.72822">
        <ele>397</ele>
        <time>2015-05-08T08:15:18.000Z</time>
      </trkpt>
      <trkpt lat="47.49294" lon="6.72818">
        <ele>397</ele>
        <time>2015-05-08T08:15:19.000Z</time>
      </trkpt>
      <trkpt lat="47.49295" lon="6.72814">
        <ele>397</ele>
        <time>2015-05-08T08:15:20.000Z</time>
      </trkpt>
      <trkpt lat="47.49296" lon="6.72811">
        <ele>397</ele>
        <time>2015-05-08T08:15:21.000Z</time>
      </trkpt>
      <trkpt lat="47.49297" lon="6.72805">
        <ele>397</ele>
        <time>2015-05-08T08:15:23.000Z</time>
      </trkpt>
      <trkpt lat="47.49297" lon="6.72802">
        <ele>397</ele>
        <time>2015-05-08T08:15:24.000Z</time>
      </trkpt>
      <trkpt lat="47.49298" lon="6.72799">
        <ele>397</ele>
        <time>2015-05-08T08:15:25.000Z</time>
      </trkpt>
      <trkpt lat="47.49298" lon="6.72795">
        <ele>397</ele>
        <time>2015-05-08T08:15:26.000Z</time>
      </trkpt>
      <trkpt lat="47.49299" lon="6.72791">
        <ele>397</ele>
        <time>2015-05-08T08:15:27.000Z</time>
      </trkpt>
      <trkpt lat="47.493" lon="6.72787">
        <ele>398</ele>
        <time>2015-05-08T08:15:28.000Z</time>
      </trkpt>
      <trkpt lat="47.49301" lon="6.72784">
        <ele>398</ele>
        <time>2015-05-08T08:15:29.000Z</time>
      </trkpt>
      <trkpt lat="47.49302" lon="6.72781">
        <ele>398</ele>
        <time>2015-05-08T08:15:30.000Z</time>
      </trkpt>
      <trkpt lat="47.49303" lon="6.72775">
        <ele>398</ele>
        <time>2015-05-08T08:15:32.000Z</time>
      </trkpt>
      <trkpt lat="47.49303" lon="6.72772">
        <ele>398</ele>
        <time>2015-05-08T08:15:33.000Z</time>
      </trkpt>
      <trkpt lat="47.49304" lon="6.72768">
        <ele>398</ele>
        <time>2015-05-08T08:15:34.000Z</time>
      </trkpt>
      <trkpt lat="47.49305" lon="6.72765">
        <ele>398</ele>
        <time>2015-05-08T08:15:35.000Z</time>
      </trkpt>
      <trkpt lat="47.49307" lon="6.72762">
        <ele>398</ele>
        <time>2015-05-08T08:15:36.000Z</time>
      </trkpt>
      <trkpt lat="47.49308" lon="6.72759">
        <ele>398</ele>
        <time>2015-05-08T08:15:37.000Z</time>
      </trkpt>
      <trkpt lat="47.49312" lon="6.72755">
        <ele>398</ele>
        <time>2015-05-08T08:15:39.000Z</time>
      </trkpt>
      <trkpt lat="47.49314" lon="6.72754">
        <ele>399</ele>
        <time>2015-05-08T08:15:40.000Z</time>
      </trkpt>
      <trkpt lat="47.49315" lon="6.7275">
        <ele>399</ele>
        <time>2015-05-08T08:15:41.000Z</time>
      </trkpt>
      <trkpt lat="47.49315" lon="6.72745">
        <ele>399</ele>
        <time>2015-05-08T08:15:42.000Z</time>
      </trkpt>
      <trkpt lat="47.49315" lon="6.72741">
        <ele>400</ele>
        <time>2015-05-08T08:15:43.000Z</time>
      </trkpt>
      <trkpt lat="47.49315" lon="6.72735">
        <ele>400</ele>
        <time>2015-05-08T08:15:44.000Z</time>
      </trkpt>
      <trkpt lat="47.49316" lon="6.72731">
        <ele>400</ele>
        <time>2015-05-08T08:15:45.000Z</time>
      </trkpt>
      <trkpt lat="47.49316" lon="6.72726">
        <ele>400</ele>
        <time>2015-05-08T08:15:46.000Z</time>
      </trkpt>
      <trkpt lat="47.49317" lon="6.72721">
        <ele>400</ele>
        <time>2015-05-08T08:15:47.000Z</time>
      </trkpt>
      <trkpt lat="47.49318" lon="6.72715">
        <ele>400</ele>
        <time>2015-05-08T08:15:48.000Z</time>
      </trkpt>
      <trkpt lat="47.49319" lon="6.72709">
        <ele>400</ele>
        <time>2015-05-08T08:15:49.000Z</time>
      </trkpt>
      <trkpt lat="47.4932" lon="6.72703">
        <ele>400</ele>
        <time>2015-05-08T08:15:50.000Z</time>
      </trkpt>
      <trkpt lat="47.49321" lon="6.72697">
        <ele>400</ele>
        <time>2015-05-08T08:15:51.000Z</time>
      </trkpt>
      <trkpt lat="47.49322" lon="6.72691">
        <ele>401</ele>
        <time>2015-05-08T08:15:52.000Z</time>
      </trkpt>
      <trkpt lat="47.49323" lon="6.72686">
        <ele>401</ele>
        <time>2015-05-08T08:15:53.000Z</time>
      </trkpt>
      <trkpt lat="47.49323" lon="6.72681">
        <ele>401</ele>
        <time>2015-05-08T08:15:54.000Z</time>
      </trkpt>
      <trkpt lat="47.49324" lon="6.72678">
        <ele>402</ele>
        <time>2015-05-08T08:15:55.000Z</time>
      </trkpt>
      <trkpt lat="47.49325" lon="6.72674">
        <ele>402</ele>
        <time>2015-05-08T08:15:56.000Z</time>
      </trkpt>
      <trkpt lat="47.49326" lon="6.72671">
        <ele>403</ele>
        <time>2015-05-08T08:15:57.000Z</time>
      </trkpt>
      <trkpt lat="47.49327" lon="6.72667">
        <ele>403</ele>
        <time>2015-05-08T08:15:58.000Z</time>
      </trkpt>
      <trkpt lat="47.49328" lon="6.72662">
        <ele>403</ele>
        <time>2015-05-08T08:15:59.000Z</time>
      </trkpt>
      <trkpt lat="47.49329" lon="6.72659">
        <ele>403</ele>
        <time>2015-05-08T08:16:00.011Z</time>
      </trkpt>
      <trkpt lat="47.49329" lon="6.72652">
        <ele>403</ele>
        <time>2015-05-08T08:16:01.000Z</time>
      </trkpt>
      <trkpt lat="47.49329" lon="6.72648">
        <ele>403</ele>
        <time>2015-05-08T08:16:02.000Z</time>
      </trkpt>
      <trkpt lat="47.49329" lon="6.72644">
        <ele>403</ele>
        <time>2015-05-08T08:16:03.000Z</time>
      </trkpt>
      <trkpt lat="47.49329" lon="6.7264">
        <ele>403</ele>
        <time>2015-05-08T08:16:04.000Z</time>
      </trkpt>
      <trkpt lat="47.49329" lon="6.72636">
        <ele>403</ele>
        <time>2015-05-08T08:16:05.000Z</time>
      </trkpt>
      <trkpt lat="47.49329" lon="6.72632">
        <ele>403</ele>
        <time>2015-05-08T08:16:06.000Z</time>
      </trkpt>
      <trkpt lat="47.49329" lon="6.72628">
        <ele>403</ele>
        <time>2015-05-08T08:16:07.000Z</time>
      </trkpt>
      <trkpt lat="47.49329" lon="6.72624">
        <ele>403</ele>
        <time>2015-05-08T08:16:08.000Z</time>
      </trkpt>
      <trkpt lat="47.49329" lon="6.72619">
        <ele>403</ele>
        <time>2015-05-08T08:16:10.000Z</time>
      </trkpt>
      <trkpt lat="47.4933" lon="6.72616">
        <ele>403</ele>
        <time>2015-05-08T08:16:11.000Z</time>
      </trkpt>
      <trkpt lat="47.49331" lon="6.72613">
        <ele>403</ele>
        <time>2015-05-08T08:16:12.000Z</time>
      </trkpt>
      <trkpt lat="47.49333" lon="6.7261">
        <ele>403</ele>
        <time>2015-05-08T08:16:13.000Z</time>
      </trkpt>
      <trkpt lat="47.49334" lon="6.72604">
        <ele>404</ele>
        <time>2015-05-08T08:16:15.000Z</time>
      </trkpt>
      <trkpt lat="47.49335" lon="6.72601">
        <ele>404</ele>
        <time>2015-05-08T08:16:16.000Z</time>
      </trkpt>
      <trkpt lat="47.49336" lon="6.72598">
        <ele>404</ele>
        <time>2015-05-08T08:16:17.000Z</time>
      </trkpt>
      <trkpt lat="47.49337" lon="6.72595">
        <ele>405</ele>
        <time>2015-05-08T08:16:18.000Z</time>
      </trkpt>
      <trkpt lat="47.49338" lon="6.72591">
        <ele>405</ele>
        <time>2015-05-08T08:16:19.000Z</time>
      </trkpt>
      <trkpt lat="47.49339" lon="6.72587">
        <ele>405</ele>
        <time>2015-05-08T08:16:20.000Z</time>
      </trkpt>
      <trkpt lat="47.49339" lon="6.72583">
        <ele>406</ele>
        <time>2015-05-08T08:16:21.000Z</time>
      </trkpt>
      <trkpt lat="47.49339" lon="6.7258">
        <ele>406</ele>
        <time>2015-05-08T08:16:22.000Z</time>
      </trkpt>
      <trkpt lat="47.49339" lon="6.72576">
        <ele>405</ele>
        <time>2015-05-08T08:16:23.000Z</time>
      </trkpt>
      <trkpt lat="47.49339" lon="6.72572">
        <ele>405</ele>
        <time>2015-05-08T08:16:24.000Z</time>
      </trkpt>
      <trkpt lat="47.49339" lon="6.72567">
        <ele>405</ele>
        <time>2015-05-08T08:16:25.000Z</time>
      </trkpt>
      <trkpt lat="47.49339" lon="6.72563">
        <ele>405</ele>
        <time>2015-05-08T08:16:26.000Z</time>
      </trkpt>
      <trkpt lat="47.49339" lon="6.72558">
        <ele>405</ele>
        <time>2015-05-08T08:16:27.000Z</time>
      </trkpt>
      <trkpt lat="47.4934" lon="6.72554">
        <ele>405</ele>
        <time>2015-05-08T08:16:28.000Z</time>
      </trkpt>
      <trkpt lat="47.4934" lon="6.7255">
        <ele>405</ele>
        <time>2015-05-08T08:16:29.000Z</time>
      </trkpt>
      <trkpt lat="47.49341" lon="6.72546">
        <ele>405</ele>
        <time>2015-05-08T08:16:30.000Z</time>
      </trkpt>
      <trkpt lat="47.49342" lon="6.72543">
        <ele>405</ele>
        <time>2015-05-08T08:16:31.000Z</time>
      </trkpt>
      <trkpt lat="47.49342" lon="6.72539">
        <ele>405</ele>
        <time>2015-05-08T08:16:32.000Z</time>
      </trkpt>
      <trkpt lat="47.49343" lon="6.72535">
        <ele>405</ele>
        <time>2015-05-08T08:16:33.000Z</time>
      </trkpt>
      <trkpt lat="47.49344" lon="6.72531">
        <ele>405</ele>
        <time>2015-05-08T08:16:34.000Z</time>
      </trkpt>
      <trkpt lat="47.49346" lon="6.72528">
        <ele>406</ele>
        <time>2015-05-08T08:16:35.000Z</time>
      </trkpt>
      <trkpt lat="47.49347" lon="6.72524">
        <ele>406</ele>
        <time>2015-05-08T08:16:36.000Z</time>
      </trkpt>
      <trkpt lat="47.49348" lon="6.7252">
        <ele>406</ele>
        <time>2015-05-08T08:16:37.000Z</time>
      </trkpt>
      <trkpt lat="47.49349" lon="6.72517">
        <ele>406</ele>
        <time>2015-05-08T08:16:38.000Z</time>
      </trkpt>
      <trkpt lat="47.4935" lon="6.72512">
        <ele>406</ele>
        <time>2015-05-08T08:16:40.000Z</time>
      </trkpt>
      <trkpt lat="47.49351" lon="6.72509">
        <ele>406</ele>
        <time>2015-05-08T08:16:41.000Z</time>
      </trkpt>
      <trkpt lat="47.49353" lon="6.72504">
        <ele>406</ele>
        <time>2015-05-08T08:16:43.000Z</time>
      </trkpt>
      <trkpt lat="47.49354" lon="6.72501">
        <ele>406</ele>
        <time>2015-05-08T08:16:44.000Z</time>
      </trkpt>
      <trkpt lat="47.49354" lon="6.72496">
        <ele>408</ele>
        <time>2015-05-08T08:16:46.000Z</time>
      </trkpt>
      <trkpt lat="47.49354" lon="6.72493">
        <ele>407</ele>
        <time>2015-05-08T08:16:47.000Z</time>
      </trkpt>
      <trkpt lat="47.49354" lon="6.7249">
        <ele>407</ele>
        <time>2015-05-08T08:16:48.000Z</time>
      </trkpt>
      <trkpt lat="47.49354" lon="6.72486">
        <ele>407</ele>
        <time>2015-05-08T08:16:49.000Z</time>
      </trkpt>
      <trkpt lat="47.49355" lon="6.72483">
        <ele>407</ele>
        <time>2015-05-08T08:16:50.000Z</time>
      </trkpt>
      <trkpt lat="47.49356" lon="6.72479">
        <ele>407</ele>
        <time>2015-05-08T08:16:51.000Z</time>
      </trkpt>
      <trkpt lat="47.49356" lon="6.72476">
        <ele>407</ele>
        <time>2015-05-08T08:16:52.000Z</time>
      </trkpt>
      <trkpt lat="47.49357" lon="6.72472">
        <ele>407</ele>
        <time>2015-05-08T08:16:53.000Z</time>
      </trkpt>
      <trkpt lat="47.49357" lon="6.72468">
        <ele>407</ele>
        <time>2015-05-08T08:16:54.000Z</time>
      </trkpt>
      <trkpt lat="47.49357" lon="6.72465">
        <ele>407</ele>
        <time>2015-05-08T08:16:55.000Z</time>
      </trkpt>
      <trkpt lat="47.49357" lon="6.72461">
        <ele>407</ele>
        <time>2015-05-08T08:16:56.000Z</time>
      </trkpt>
      <trkpt lat="47.49357" lon="6.72457">
        <ele>408</ele>
        <time>2015-05-08T08:16:57.000Z</time>
      </trkpt>
      <trkpt lat="47.49357" lon="6.72454">
        <ele>408</ele>
        <time>2015-05-08T08:16:58.000Z</time>
      </trkpt>
      <trkpt lat="47.49358" lon="6.72451">
        <ele>408</ele>
        <time>2015-05-08T08:16:59.000Z</time>
      </trkpt>
      <trkpt lat="47.49358" lon="6.72447">
        <ele>408</ele>
        <time>2015-05-08T08:17:00.000Z</time>
      </trkpt>
      <trkpt lat="47.49358" lon="6.72444">
        <ele>408</ele>
        <time>2015-05-08T08:17:01.000Z</time>
      </trkpt>
      <trkpt lat="47.49356" lon="6.72438">
        <ele>408</ele>
        <time>2015-05-08T08:17:03.000Z</time>
      </trkpt>
      <trkpt lat="47.49355" lon="6.72434">
        <ele>408</ele>
        <time>2015-05-08T08:17:04.000Z</time>
      </trkpt>
      <trkpt lat="47.49354" lon="6.72429">
        <ele>409</ele>
        <time>2015-05-08T08:17:05.000Z</time>
      </trkpt>
      <trkpt lat="47.49352" lon="6.72423">
        <ele>409</ele>
        <time>2015-05-08T08:17:06.000Z</time>
      </trkpt>
      <trkpt lat="47.4935" lon="6.72419">
        <ele>409</ele>
        <time>2015-05-08T08:17:07.000Z</time>
      </trkpt>
      <trkpt lat="47.49348" lon="6.72416">
        <ele>411</ele>
        <time>2015-05-08T08:17:08.000Z</time>
      </trkpt>
      <trkpt lat="47.49345" lon="6.72412">
        <ele>411</ele>
        <time>2015-05-08T08:17:12.000Z</time>
      </trkpt>
      <trkpt lat="47.49344" lon="6.7241">
        <ele>411</ele>
        <time>2015-05-08T08:17:13.000Z</time>
      </trkpt>
      <trkpt lat="47.49343" lon="6.72406">
        <ele>411</ele>
        <time>2015-05-08T08:17:15.000Z</time>
      </trkpt>
      <trkpt lat="47.49342" lon="6.72403">
        <ele>411</ele>
        <time>2015-05-08T08:17:16.000Z</time>
      </trkpt>
      <trkpt lat="47.49342" lon="6.72399">
        <ele>411</ele>
        <time>2015-05-08T08:17:17.000Z</time>
      </trkpt>
      <trkpt lat="47.49341" lon="6.72395">
        <ele>411</ele>
        <time>2015-05-08T08:17:18.000Z</time>
      </trkpt>
      <trkpt lat="47.4934" lon="6.7239">
        <ele>411</ele>
        <time>2015-05-08T08:17:19.000Z</time>
      </trkpt>
      <trkpt lat="47.4934" lon="6.72385">
        <ele>411</ele>
        <time>2015-05-08T08:17:20.000Z</time>
      </trkpt>
      <trkpt lat="47.49339" lon="6.7238">
        <ele>411</ele>
        <time>2015-05-08T08:17:21.000Z</time>
      </trkpt>
      <trkpt lat="47.49339" lon="6.72375">
        <ele>411</ele>
        <time>2015-05-08T08:17:22.000Z</time>
      </trkpt>
      <trkpt lat="47.49339" lon="6.72371">
        <ele>411</ele>
        <time>2015-05-08T08:17:23.000Z</time>
      </trkpt>
      <trkpt lat="47.49339" lon="6.72366">
        <ele>412</ele>
        <time>2015-05-08T08:17:24.000Z</time>
      </trkpt>
      <trkpt lat="47.49339" lon="6.72362">
        <ele>412</ele>
        <time>2015-05-08T08:17:25.000Z</time>
      </trkpt>
      <trkpt lat="47.49338" lon="6.72358">
        <ele>412</ele>
        <time>2015-05-08T08:17:26.000Z</time>
      </trkpt>
      <trkpt lat="47.49338" lon="6.72355">
        <ele>412</ele>
        <time>2015-05-08T08:17:27.000Z</time>
      </trkpt>
      <trkpt lat="47.49338" lon="6.72351">
        <ele>412</ele>
        <time>2015-05-08T08:17:28.000Z</time>
      </trkpt>
      <trkpt lat="47.49338" lon="6.72348">
        <ele>413</ele>
        <time>2015-05-08T08:17:29.000Z</time>
      </trkpt>
      <trkpt lat="47.49338" lon="6.72344">
        <ele>413</ele>
        <time>2015-05-08T08:17:30.000Z</time>
      </trkpt>
      <trkpt lat="47.49338" lon="6.72339">
        <ele>413</ele>
        <time>2015-05-08T08:17:32.000Z</time>
      </trkpt>
      <trkpt lat="47.49338" lon="6.72337">
        <ele>413</ele>
        <time>2015-05-08T08:17:33.000Z</time>
      </trkpt>
      <trkpt lat="47.49338" lon="6.72333">
        <ele>414</ele>
        <time>2015-05-08T08:17:35.000Z</time>
      </trkpt>
      <trkpt lat="47.4934" lon="6.7233">
        <ele>414</ele>
        <time>2015-05-08T08:17:36.000Z</time>
      </trkpt>
      <trkpt lat="47.49341" lon="6.72327">
        <ele>414</ele>
        <time>2015-05-08T08:17:37.000Z</time>
      </trkpt>
      <trkpt lat="47.49343" lon="6.72323">
        <ele>414</ele>
        <time>2015-05-08T08:17:38.000Z</time>
      </trkpt>
      <trkpt lat="47.49344" lon="6.72319">
        <ele>414</ele>
        <time>2015-05-08T08:17:39.000Z</time>
      </trkpt>
      <trkpt lat="47.49346" lon="6.72315">
        <ele>415</ele>
        <time>2015-05-08T08:17:40.000Z</time>
      </trkpt>
      <trkpt lat="47.49347" lon="6.72311">
        <ele>415</ele>
        <time>2015-05-08T08:17:41.000Z</time>
      </trkpt>
      <trkpt lat="47.49348" lon="6.72307">
        <ele>415</ele>
        <time>2015-05-08T08:17:42.000Z</time>
      </trkpt>
      <trkpt lat="47.4935" lon="6.72302">
        <ele>415</ele>
        <time>2015-05-08T08:17:44.000Z</time>
      </trkpt>
      <trkpt lat="47.4935" lon="6.723">
        <ele>415</ele>
        <time>2015-05-08T08:17:45.000Z</time>
      </trkpt>
      <trkpt lat="47.49352" lon="6.72296">
        <ele>415</ele>
        <time>2015-05-08T08:17:59.000Z</time>
      </trkpt>
      <trkpt lat="47.49352" lon="6.72294">
        <ele>415</ele>
        <time>2015-05-08T08:18:00.000Z</time>
      </trkpt>
      <trkpt lat="47.49354" lon="6.72289">
        <ele>415</ele>
        <time>2015-05-08T08:18:02.000Z</time>
      </trkpt>
      <trkpt lat="47.49355" lon="6.72286">
        <ele>415</ele>
        <time>2015-05-08T08:18:03.000Z</time>
      </trkpt>
      <trkpt lat="47.49356" lon="6.72282">
        <ele>416</ele>
        <time>2015-05-08T08:18:04.000Z</time>
      </trkpt>
      <trkpt lat="47.49357" lon="6.7228">
        <ele>416</ele>
        <time>2015-05-08T08:18:04.998Z</time>
      </trkpt>
      <trkpt lat="47.49357" lon="6.72273">
        <ele>416</ele>
        <time>2015-05-08T08:18:07.000Z</time>
      </trkpt>
      <trkpt lat="47.49357" lon="6.72271">
        <ele>416</ele>
        <time>2015-05-08T08:18:08.000Z</time>
      </trkpt>
      <trkpt lat="47.49358" lon="6.72265">
        <ele>416</ele>
        <time>2015-05-08T08:18:11.000Z</time>
      </trkpt>
      <trkpt lat="47.49358" lon="6.72263">
        <ele>416</ele>
        <time>2015-05-08T08:18:12.000Z</time>
      </trkpt>
      <trkpt lat="47.49359" lon="6.72258">
        <ele>416</ele>
        <time>2015-05-08T08:18:15.000Z</time>
      </trkpt>
      <trkpt lat="47.4936" lon="6.72256">
        <ele>416</ele>
        <time>2015-05-08T08:18:16.000Z</time>
      </trkpt>
      <trkpt lat="47.49361" lon="6.72253">
        <ele>416</ele>
        <time>2015-05-08T08:18:17.000Z</time>
      </trkpt>
      <trkpt lat="47.49363" lon="6.72249">
        <ele>419</ele>
        <time>2015-05-08T08:18:18.000Z</time>
      </trkpt>
      <trkpt lat="47.49364" lon="6.72245">
        <ele>419</ele>
        <time>2015-05-08T08:18:19.000Z</time>
      </trkpt>
      <trkpt lat="47.49366" lon="6.72243">
        <ele>419</ele>
        <time>2015-05-08T08:18:20.000Z</time>
      </trkpt>
      <trkpt lat="47.49368" lon="6.72239">
        <ele>419</ele>
        <time>2015-05-08T08:18:23.000Z</time>
      </trkpt>
      <trkpt lat="47.49369" lon="6.72237">
        <ele>419</ele>
        <time>2015-05-08T08:18:24.000Z</time>
      </trkpt>
      <trkpt lat="47.49369" lon="6.72233">
        <ele>419</ele>
        <time>2015-05-08T08:18:27.000Z</time>
      </trkpt>
      <trkpt lat="47.4937" lon="6.72231">
        <ele>419</ele>
        <time>2015-05-08T08:18:28.000Z</time>
      </trkpt>
      <trkpt lat="47.49369" lon="6.72225">
        <ele>419</ele>
        <time>2015-05-08T08:18:30.000Z</time>
      </trkpt>
      <trkpt lat="47.49369" lon="6.72222">
        <ele>419</ele>
        <time>2015-05-08T08:18:31.000Z</time>
      </trkpt>
      <trkpt lat="47.49368" lon="6.72219">
        <ele>419</ele>
        <time>2015-05-08T08:18:32.000Z</time>
      </trkpt>
      <trkpt lat="47.49367" lon="6.72215">
        <ele>419</ele>
        <time>2015-05-08T08:18:33.000Z</time>
      </trkpt>
      <trkpt lat="47.49365" lon="6.72209">
        <ele>419</ele>
        <time>2015-05-08T08:18:35.000Z</time>
      </trkpt>
      <trkpt lat="47.49365" lon="6.72206">
        <ele>419</ele>
        <time>2015-05-08T08:18:36.000Z</time>
      </trkpt>
      <trkpt lat="47.49365" lon="6.72202">
        <ele>419</ele>
        <time>2015-05-08T08:18:37.000Z</time>
      </trkpt>
      <trkpt lat="47.49366" lon="6.72198">
        <ele>420</ele>
        <time>2015-05-08T08:18:38.000Z</time>
      </trkpt>
      <trkpt lat="47.49367" lon="6.72194">
        <ele>420</ele>
        <time>2015-05-08T08:18:39.000Z</time>
      </trkpt>
      <trkpt lat="47.49367" lon="6.7219">
        <ele>420</ele>
        <time>2015-05-08T08:18:40.000Z</time>
      </trkpt>
      <trkpt lat="47.49368" lon="6.72185">
        <ele>420</ele>
        <time>2015-05-08T08:18:41.000Z</time>
      </trkpt>
      <trkpt lat="47.49369" lon="6.72181">
        <ele>420</ele>
        <time>2015-05-08T08:18:42.000Z</time>
      </trkpt>
      <trkpt lat="47.49369" lon="6.72177">
        <ele>420</ele>
        <time>2015-05-08T08:18:43.000Z</time>
      </trkpt>
      <trkpt lat="47.4937" lon="6.72173">
        <ele>420</ele>
        <time>2015-05-08T08:18:44.000Z</time>
      </trkpt>
      <trkpt lat="47.49371" lon="6.72167">
        <ele>420</ele>
        <time>2015-05-08T08:18:46.000Z</time>
      </trkpt>
      <trkpt lat="47.49372" lon="6.72164">
        <ele>422</ele>
        <time>2015-05-08T08:18:47.000Z</time>
      </trkpt>
      <trkpt lat="47.49373" lon="6.72158">
        <ele>422</ele>
        <time>2015-05-08T08:18:49.000Z</time>
      </trkpt>
      <trkpt lat="47.49373" lon="6.72156">
        <ele>422</ele>
        <time>2015-05-08T08:18:50.000Z</time>
      </trkpt>
      <trkpt lat="47.49375" lon="6.7215">
        <ele>422</ele>
        <time>2015-05-08T08:18:53.000Z</time>
      </trkpt>
      <trkpt lat="47.49376" lon="6.72148">
        <ele>422</ele>
        <time>2015-05-08T08:18:54.000Z</time>
      </trkpt>
      <trkpt lat="47.49377" lon="6.72143">
        <ele>422</ele>
        <time>2015-05-08T08:18:56.000Z</time>
      </trkpt>
      <trkpt lat="47.49377" lon="6.72141">
        <ele>422</ele>
        <time>2015-05-08T08:18:57.000Z</time>
      </trkpt>
      <trkpt lat="47.49377" lon="6.72135">
        <ele>423</ele>
        <time>2015-05-08T08:18:59.000Z</time>
      </trkpt>
      <trkpt lat="47.49377" lon="6.72132">
        <ele>423</ele>
        <time>2015-05-08T08:19:00.000Z</time>
      </trkpt>
      <trkpt lat="47.49376" lon="6.72127">
        <ele>423</ele>
        <time>2015-05-08T08:19:02.000Z</time>
      </trkpt>
      <trkpt lat="47.49376" lon="6.72124">
        <ele>423</ele>
        <time>2015-05-08T08:19:03.000Z</time>
      </trkpt>
      <trkpt lat="47.49377" lon="6.72119">
        <ele>423</ele>
        <time>2015-05-08T08:19:05.000Z</time>
      </trkpt>
      <trkpt lat="47.49377" lon="6.72117">
        <ele>423</ele>
        <time>2015-05-08T08:19:06.000Z</time>
      </trkpt>
      <trkpt lat="47.49378" lon="6.72113">
        <ele>423</ele>
        <time>2015-05-08T08:19:07.000Z</time>
      </trkpt>
      <trkpt lat="47.49378" lon="6.7211">
        <ele>423</ele>
        <time>2015-05-08T08:19:08.000Z</time>
      </trkpt>
      <trkpt lat="47.49379" lon="6.72106">
        <ele>423</ele>
        <time>2015-05-08T08:19:09.000Z</time>
      </trkpt>
      <trkpt lat="47.49379" lon="6.72103">
        <ele>423</ele>
        <time>2015-05-08T08:19:10.000Z</time>
      </trkpt>
      <trkpt lat="47.4938" lon="6.72098">
        <ele>423</ele>
        <time>2015-05-08T08:19:12.000Z</time>
      </trkpt>
      <trkpt lat="47.4938" lon="6.72096">
        <ele>423</ele>
        <time>2015-05-08T08:19:13.000Z</time>
      </trkpt>
      <trkpt lat="47.49383" lon="6.72092">
        <ele>423</ele>
        <time>2015-05-08T08:19:16.000Z</time>
      </trkpt>
      <trkpt lat="47.49383" lon="6.7209">
        <ele>423</ele>
        <time>2015-05-08T08:19:17.000Z</time>
      </trkpt>
      <trkpt lat="47.49385" lon="6.72086">
        <ele>423</ele>
        <time>2015-05-08T08:19:19.000Z</time>
      </trkpt>
      <trkpt lat="47.49386" lon="6.72083">
        <ele>425</ele>
        <time>2015-05-08T08:19:20.000Z</time>
      </trkpt>
      <trkpt lat="47.49387" lon="6.72079">
        <ele>425</ele>
        <time>2015-05-08T08:19:22.000Z</time>
      </trkpt>
      <trkpt lat="47.49387" lon="6.72076">
        <ele>425</ele>
        <time>2015-05-08T08:19:23.000Z</time>
      </trkpt>
      <trkpt lat="47.49388" lon="6.72072">
        <ele>425</ele>
        <time>2015-05-08T08:19:24.000Z</time>
      </trkpt>
      <trkpt lat="47.49388" lon="6.72069">
        <ele>425</ele>
        <time>2015-05-08T08:19:25.000Z</time>
      </trkpt>
      <trkpt lat="47.49389" lon="6.72065">
        <ele>425</ele>
        <time>2015-05-08T08:19:26.000Z</time>
      </trkpt>
      <trkpt lat="47.4939" lon="6.72062">
        <ele>425</ele>
        <time>2015-05-08T08:19:27.000Z</time>
      </trkpt>
      <trkpt lat="47.49393" lon="6.72056">
        <ele>425</ele>
        <time>2015-05-08T08:19:29.000Z</time>
      </trkpt>
      <trkpt lat="47.49394" lon="6.72054">
        <ele>425</ele>
        <time>2015-05-08T08:19:30.000Z</time>
      </trkpt>
      <trkpt lat="47.49395" lon="6.72048">
        <ele>426</ele>
        <time>2015-05-08T08:19:33.000Z</time>
      </trkpt>
      <trkpt lat="47.49394" lon="6.72046">
        <ele>426</ele>
        <time>2015-05-08T08:19:34.000Z</time>
      </trkpt>
      <trkpt lat="47.49394" lon="6.72041">
        <ele>426</ele>
        <time>2015-05-08T08:19:36.000Z</time>
      </trkpt>
      <trkpt lat="47.49394" lon="6.72038">
        <ele>426</ele>
        <time>2015-05-08T08:19:37.000Z</time>
      </trkpt>
      <trkpt lat="47.49394" lon="6.72034">
        <ele>426</ele>
        <time>2015-05-08T08:19:38.000Z</time>
      </trkpt>
      <trkpt lat="47.49394" lon="6.7203">
        <ele>426</ele>
        <time>2015-05-08T08:19:39.000Z</time>
      </trkpt>
      <trkpt lat="47.49394" lon="6.72026">
        <ele>426</ele>
        <time>2015-05-08T08:19:40.000Z</time>
      </trkpt>
      <trkpt lat="47.49394" lon="6.72022">
        <ele>426</ele>
        <time>2015-05-08T08:19:41.000Z</time>
      </trkpt>
      <trkpt lat="47.49394" lon="6.72018">
        <ele>426</ele>
        <time>2015-05-08T08:19:42.000Z</time>
      </trkpt>
      <trkpt lat="47.49394" lon="6.72015">
        <ele>426</ele>
        <time>2015-05-08T08:19:43.000Z</time>
      </trkpt>
      <trkpt lat="47.49395" lon="6.72009">
        <ele>426</ele>
        <time>2015-05-08T08:19:45.000Z</time>
      </trkpt>
      <trkpt lat="47.49395" lon="6.72007">
        <ele>426</ele>
        <time>2015-05-08T08:19:46.000Z</time>
      </trkpt>
      <trkpt lat="47.49396" lon="6.72001">
        <ele>426</ele>
        <time>2015-05-08T08:19:48.000Z</time>
      </trkpt>
      <trkpt lat="47.49396" lon="6.71999">
        <ele>429</ele>
        <time>2015-05-08T08:19:49.000Z</time>
      </trkpt>
      <trkpt lat="47.49398" lon="6.71995">
        <ele>429</ele>
        <time>2015-05-08T08:19:51.000Z</time>
      </trkpt>
      <trkpt lat="47.49398" lon="6.71992">
        <ele>429</ele>
        <time>2015-05-08T08:19:52.000Z</time>
      </trkpt>
      <trkpt lat="47.49399" lon="6.71986">
        <ele>429</ele>
        <time>2015-05-08T08:19:55.000Z</time>
      </trkpt>
      <trkpt lat="47.494" lon="6.71983">
        <ele>429</ele>
        <time>2015-05-08T08:19:56.000Z</time>
      </trkpt>
      <trkpt lat="47.49401" lon="6.71979">
        <ele>429</ele>
        <time>2015-05-08T08:19:58.000Z</time>
      </trkpt>
      <trkpt lat="47.49401" lon="6.71976">
        <ele>429</ele>
        <time>2015-05-08T08:19:59.000Z</time>
      </trkpt>
      <trkpt lat="47.49403" lon="6.7197">
        <ele>430</ele>
        <time>2015-05-08T08:20:02.000Z</time>
      </trkpt>
      <trkpt lat="47.49403" lon="6.71969">
        <ele>430</ele>
        <time>2015-05-08T08:20:03.000Z</time>
      </trkpt>
      <trkpt lat="47.49404" lon="6.71963">
        <ele>430</ele>
        <time>2015-05-08T08:20:06.000Z</time>
      </trkpt>
      <trkpt lat="47.49404" lon="6.71962">
        <ele>430</ele>
        <time>2015-05-08T08:20:07.000Z</time>
      </trkpt>
      <trkpt lat="47.49405" lon="6.71955">
        <ele>431</ele>
        <time>2015-05-08T08:20:13.000Z</time>
      </trkpt>
      <trkpt lat="47.49405" lon="6.71955">
        <ele>431</ele>
        <time>2015-05-08T08:20:14.000Z</time>
      </trkpt>
      <trkpt lat="47.49405" lon="6.71948">
        <ele>431</ele>
        <time>2015-05-08T08:20:22.000Z</time>
      </trkpt>
      <trkpt lat="47.49405" lon="6.71946">
        <ele>431</ele>
        <time>2015-05-08T08:20:23.000Z</time>
      </trkpt>
      <trkpt lat="47.49405" lon="6.71941">
        <ele>431</ele>
        <time>2015-05-08T08:20:25.000Z</time>
      </trkpt>
      <trkpt lat="47.49405" lon="6.71938">
        <ele>432</ele>
        <time>2015-05-08T08:20:26.000Z</time>
      </trkpt>
      <trkpt lat="47.49405" lon="6.71933">
        <ele>432</ele>
        <time>2015-05-08T08:20:28.000Z</time>
      </trkpt>
      <trkpt lat="47.49404" lon="6.7193">
        <ele>432</ele>
        <time>2015-05-08T08:20:29.000Z</time>
      </trkpt>
      <trkpt lat="47.49403" lon="6.71924">
        <ele>432</ele>
        <time>2015-05-08T08:20:31.000Z</time>
      </trkpt>
      <trkpt lat="47.49403" lon="6.71921">
        <ele>432</ele>
        <time>2015-05-08T08:20:32.000Z</time>
      </trkpt>
      <trkpt lat="47.49403" lon="6.71917">
        <ele>432</ele>
        <time>2015-05-08T08:20:33.000Z</time>
      </trkpt>
      <trkpt lat="47.49402" lon="6.71914">
        <ele>434</ele>
        <time>2015-05-08T08:20:34.000Z</time>
      </trkpt>
      <trkpt lat="47.49402" lon="6.7191">
        <ele>434</ele>
        <time>2015-05-08T08:20:35.000Z</time>
      </trkpt>
      <trkpt lat="47.49402" lon="6.71907">
        <ele>434</ele>
        <time>2015-05-08T08:20:36.000Z</time>
      </trkpt>
      <trkpt lat="47.49403" lon="6.71903">
        <ele>434</ele>
        <time>2015-05-08T08:20:37.000Z</time>
      </trkpt>
      <trkpt lat="47.49404" lon="6.719">
        <ele>435</ele>
        <time>2015-05-08T08:20:38.000Z</time>
      </trkpt>
      <trkpt lat="47.49406" lon="6.71894">
        <ele>435</ele>
        <time>2015-05-08T08:20:40.000Z</time>
      </trkpt>
      <trkpt lat="47.49406" lon="6.71892">
        <ele>435</ele>
        <time>2015-05-08T08:20:41.000Z</time>
      </trkpt>
      <trkpt lat="47.49408" lon="6.71886">
        <ele>435</ele>
        <time>2015-05-08T08:20:44.000Z</time>
      </trkpt>
      <trkpt lat="47.49409" lon="6.71884">
        <ele>435</ele>
        <time>2015-05-08T08:20:45.000Z</time>
      </trkpt>
      <trkpt lat="47.49409" lon="6.71878">
        <ele>435</ele>
        <time>2015-05-08T08:20:48.000Z</time>
      </trkpt>
      <trkpt lat="47.49409" lon="6.71876">
        <ele>435</ele>
        <time>2015-05-08T08:20:49.000Z</time>
      </trkpt>
      <trkpt lat="47.49409" lon="6.71871">
        <ele>435</ele>
        <time>2015-05-08T08:20:51.000Z</time>
      </trkpt>
      <trkpt lat="47.4941" lon="6.71868">
        <ele>435</ele>
        <time>2015-05-08T08:20:52.000Z</time>
      </trkpt>
      <trkpt lat="47.49411" lon="6.71863">
        <ele>436</ele>
        <time>2015-05-08T08:20:55.000Z</time>
      </trkpt>
      <trkpt lat="47.49411" lon="6.71862">
        <ele>436</ele>
        <time>2015-05-08T08:20:56.000Z</time>
      </trkpt>
      <trkpt lat="47.49412" lon="6.71858">
        <ele>436</ele>
        <time>2015-05-08T08:20:58.000Z</time>
      </trkpt>
      <trkpt lat="47.49413" lon="6.71855">
        <ele>436</ele>
        <time>2015-05-08T08:20:59.000Z</time>
      </trkpt>
      <trkpt lat="47.49415" lon="6.7185">
        <ele>436</ele>
        <time>2015-05-08T08:21:01.000Z</time>
      </trkpt>
      <trkpt lat="47.49416" lon="6.71847">
        <ele>437</ele>
        <time>2015-05-08T08:21:02.000Z</time>
      </trkpt>
      <trkpt lat="47.49418" lon="6.71841">
        <ele>437</ele>
        <time>2015-05-08T08:21:05.000Z</time>
      </trkpt>
      <trkpt lat="47.49418" lon="6.7184">
        <ele>437</ele>
        <time>2015-05-08T08:21:06.000Z</time>
      </trkpt>
      <trkpt lat="47.4942" lon="6.71835">
        <ele>437</ele>
        <time>2015-05-08T08:21:08.000Z</time>
      </trkpt>
      <trkpt lat="47.4942" lon="6.71833">
        <ele>438</ele>
        <time>2015-05-08T08:21:09.000Z</time>
      </trkpt>
      <trkpt lat="47.49421" lon="6.71827">
        <ele>439</ele>
        <time>2015-05-08T08:21:11.000Z</time>
      </trkpt>
      <trkpt lat="47.49421" lon="6.71825">
        <ele>439</ele>
        <time>2015-05-08T08:21:12.000Z</time>
      </trkpt>
      <trkpt lat="47.49422" lon="6.7182">
        <ele>439</ele>
        <time>2015-05-08T08:21:14.000Z</time>
      </trkpt>
      <trkpt lat="47.49423" lon="6.71817">
        <ele>439</ele>
        <time>2015-05-08T08:21:15.000Z</time>
      </trkpt>
      <trkpt lat="47.49424" lon="6.71812">
        <ele>440</ele>
        <time>2015-05-08T08:21:17.000Z</time>
      </trkpt>
      <trkpt lat="47.49425" lon="6.71809">
        <ele>440</ele>
        <time>2015-05-08T08:21:18.000Z</time>
      </trkpt>
      <trkpt lat="47.49423" lon="6.71804">
        <ele>440</ele>
        <time>2015-05-08T08:21:23.000Z</time>
      </trkpt>
      <trkpt lat="47.49423" lon="6.71803">
        <ele>440</ele>
        <time>2015-05-08T08:21:24.000Z</time>
      </trkpt>
      <trkpt lat="47.49423" lon="6.71797">
        <ele>441</ele>
        <time>2015-05-08T08:21:27.000Z</time>
      </trkpt>
      <trkpt lat="47.49423" lon="6.71794">
        <ele>441</ele>
        <time>2015-05-08T08:21:28.000Z</time>
      </trkpt>
      <trkpt lat="47.49424" lon="6.71788">
        <ele>441</ele>
        <time>2015-05-08T08:21:31.000Z</time>
      </trkpt>
      <trkpt lat="47.49424" lon="6.71786">
        <ele>441</ele>
        <time>2015-05-08T08:21:32.000Z</time>
      </trkpt>
      <trkpt lat="47.49426" lon="6.71782">
        <ele>442</ele>
        <time>2015-05-08T08:21:34.000Z</time>
      </trkpt>
      <trkpt lat="47.49426" lon="6.71779">
        <ele>442</ele>
        <time>2015-05-08T08:21:35.000Z</time>
      </trkpt>
      <trkpt lat="47.49428" lon="6.71775">
        <ele>442</ele>
        <time>2015-05-08T08:21:37.000Z</time>
      </trkpt>
      <trkpt lat="47.49428" lon="6.71773">
        <ele>442</ele>
        <time>2015-05-08T08:21:38.000Z</time>
      </trkpt>
      <trkpt lat="47.49429" lon="6.71767">
        <ele>443</ele>
        <time>2015-05-08T08:21:40.000Z</time>
      </trkpt>
      <trkpt lat="47.49428" lon="6.71763">
        <ele>443</ele>
        <time>2015-05-08T08:21:41.000Z</time>
      </trkpt>
      <trkpt lat="47.49429" lon="6.71757">
        <ele>444</ele>
        <time>2015-05-08T08:21:43.000Z</time>
      </trkpt>
      <trkpt lat="47.49429" lon="6.71754">
        <ele>444</ele>
        <time>2015-05-08T08:21:44.000Z</time>
      </trkpt>
      <trkpt lat="47.49429" lon="6.71749">
        <ele>447</ele>
        <time>2015-05-08T08:21:46.000Z</time>
      </trkpt>
      <trkpt lat="47.49429" lon="6.71746">
        <ele>447</ele>
        <time>2015-05-08T08:21:47.000Z</time>
      </trkpt>
      <trkpt lat="47.49431" lon="6.71741">
        <ele>447</ele>
        <time>2015-05-08T08:21:49.000Z</time>
      </trkpt>
      <trkpt lat="47.49431" lon="6.71739">
        <ele>447</ele>
        <time>2015-05-08T08:21:50.000Z</time>
      </trkpt>
      <trkpt lat="47.49432" lon="6.71734">
        <ele>447</ele>
        <time>2015-05-08T08:21:52.000Z</time>
      </trkpt>
      <trkpt lat="47.49433" lon="6.71732">
        <ele>447</ele>
        <time>2015-05-08T08:21:53.000Z</time>
      </trkpt>
      <trkpt lat="47.49433" lon="6.71726">
        <ele>447</ele>
        <time>2015-05-08T08:21:55.000Z</time>
      </trkpt>
      <trkpt lat="47.49432" lon="6.71722">
        <ele>447</ele>
        <time>2015-05-08T08:21:56.000Z</time>
      </trkpt>
      <trkpt lat="47.49431" lon="6.71719">
        <ele>448</ele>
        <time>2015-05-08T08:21:57.000Z</time>
      </trkpt>
      <trkpt lat="47.49431" lon="6.71716">
        <ele>448</ele>
        <time>2015-05-08T08:21:58.000Z</time>
      </trkpt>
      <trkpt lat="47.49429" lon="6.7171">
        <ele>448</ele>
        <time>2015-05-08T08:22:00.000Z</time>
      </trkpt>
      <trkpt lat="47.49428" lon="6.71707">
        <ele>448</ele>
        <time>2015-05-08T08:22:01.000Z</time>
      </trkpt>
      <trkpt lat="47.49426" lon="6.71702">
        <ele>448</ele>
        <time>2015-05-08T08:22:03.000Z</time>
      </trkpt>
      <trkpt lat="47.49426" lon="6.717">
        <ele>448</ele>
        <time>2015-05-08T08:22:04.000Z</time>
      </trkpt>
      <trkpt lat="47.49426" lon="6.71695">
        <ele>449</ele>
        <time>2015-05-08T08:22:06.000Z</time>
      </trkpt>
      <trkpt lat="47.49426" lon="6.71691">
        <ele>449</ele>
        <time>2015-05-08T08:22:07.000Z</time>
      </trkpt>
      <trkpt lat="47.49426" lon="6.71688">
        <ele>449</ele>
        <time>2015-05-08T08:22:08.000Z</time>
      </trkpt>
      <trkpt lat="47.49426" lon="6.71684">
        <ele>449</ele>
        <time>2015-05-08T08:22:09.000Z</time>
      </trkpt>
      <trkpt lat="47.49426" lon="6.71679">
        <ele>450</ele>
        <time>2015-05-08T08:22:11.000Z</time>
      </trkpt>
      <trkpt lat="47.49426" lon="6.71676">
        <ele>450</ele>
        <time>2015-05-08T08:22:12.000Z</time>
      </trkpt>
      <trkpt lat="47.49426" lon="6.71672">
        <ele>450</ele>
        <time>2015-05-08T08:22:13.000Z</time>
      </trkpt>
      <trkpt lat="47.49426" lon="6.71668">
        <ele>450</ele>
        <time>2015-05-08T08:22:14.000Z</time>
      </trkpt>
      <trkpt lat="47.49426" lon="6.71665">
        <ele>451</ele>
        <time>2015-05-08T08:22:15.000Z</time>
      </trkpt>
      <trkpt lat="47.49426" lon="6.71662">
        <ele>451</ele>
        <time>2015-05-08T08:22:16.000Z</time>
      </trkpt>
      <trkpt lat="47.49427" lon="6.71657">
        <ele>451</ele>
        <time>2015-05-08T08:22:18.000Z</time>
      </trkpt>
      <trkpt lat="47.49427" lon="6.71654">
        <ele>451</ele>
        <time>2015-05-08T08:22:19.000Z</time>
      </trkpt>
      <trkpt lat="47.49428" lon="6.71649">
        <ele>451</ele>
        <time>2015-05-08T08:22:21.000Z</time>
      </trkpt>
      <trkpt lat="47.49428" lon="6.71646">
        <ele>451</ele>
        <time>2015-05-08T08:22:22.000Z</time>
      </trkpt>
      <trkpt lat="47.49429" lon="6.71643">
        <ele>451</ele>
        <time>2015-05-08T08:22:23.000Z</time>
      </trkpt>
      <trkpt lat="47.49429" lon="6.71639">
        <ele>452</ele>
        <time>2015-05-08T08:22:24.000Z</time>
      </trkpt>
      <trkpt lat="47.49429" lon="6.71633">
        <ele>452</ele>
        <time>2015-05-08T08:22:26.000Z</time>
      </trkpt>
      <trkpt lat="47.49428" lon="6.71631">
        <ele>452</ele>
        <time>2015-05-08T08:22:27.000Z</time>
      </trkpt>
      <trkpt lat="47.49428" lon="6.71626">
        <ele>452</ele>
        <time>2015-05-08T08:22:29.000Z</time>
      </trkpt>
      <trkpt lat="47.49428" lon="6.71623">
        <ele>452</ele>
        <time>2015-05-08T08:22:30.000Z</time>
      </trkpt>
      <trkpt lat="47.49428" lon="6.71617">
        <ele>452</ele>
        <time>2015-05-08T08:22:32.000Z</time>
      </trkpt>
      <trkpt lat="47.49428" lon="6.71614">
        <ele>452</ele>
        <time>2015-05-08T08:22:33.000Z</time>
      </trkpt>
      <trkpt lat="47.49428" lon="6.7161">
        <ele>452</ele>
        <time>2015-05-08T08:22:34.000Z</time>
      </trkpt>
      <trkpt lat="47.49428" lon="6.71606">
        <ele>452</ele>
        <time>2015-05-08T08:22:35.000Z</time>
      </trkpt>
      <trkpt lat="47.49429" lon="6.71601">
        <ele>453</ele>
        <time>2015-05-08T08:22:36.000Z</time>
      </trkpt>
      <trkpt lat="47.49429" lon="6.71595">
        <ele>453</ele>
        <time>2015-05-08T08:22:37.000Z</time>
      </trkpt>
      <trkpt lat="47.49429" lon="6.7159">
        <ele>453</ele>
        <time>2015-05-08T08:22:38.000Z</time>
      </trkpt>
      <trkpt lat="47.49429" lon="6.71585">
        <ele>453</ele>
        <time>2015-05-08T08:22:39.000Z</time>
      </trkpt>
      <trkpt lat="47.49428" lon="6.71579">
        <ele>454</ele>
        <time>2015-05-08T08:22:40.000Z</time>
      </trkpt>
      <trkpt lat="47.49428" lon="6.71575">
        <ele>454</ele>
        <time>2015-05-08T08:22:41.000Z</time>
      </trkpt>
      <trkpt lat="47.49428" lon="6.71571">
        <ele>454</ele>
        <time>2015-05-08T08:22:42.000Z</time>
      </trkpt>
      <trkpt lat="47.49429" lon="6.71567">
        <ele>454</ele>
        <time>2015-05-08T08:22:43.000Z</time>
      </trkpt>
      <trkpt lat="47.49429" lon="6.71563">
        <ele>454</ele>
        <time>2015-05-08T08:22:44.000Z</time>
      </trkpt>
      <trkpt lat="47.49429" lon="6.71559">
        <ele>454</ele>
        <time>2015-05-08T08:22:45.000Z</time>
      </trkpt>
      <trkpt lat="47.49429" lon="6.71556">
        <ele>454</ele>
        <time>2015-05-08T08:22:46.000Z</time>
      </trkpt>
      <trkpt lat="47.49429" lon="6.71552">
        <ele>454</ele>
        <time>2015-05-08T08:22:47.000Z</time>
      </trkpt>
      <trkpt lat="47.49428" lon="6.71549">
        <ele>455</ele>
        <time>2015-05-08T08:22:48.000Z</time>
      </trkpt>
      <trkpt lat="47.49428" lon="6.71545">
        <ele>455</ele>
        <time>2015-05-08T08:22:49.000Z</time>
      </trkpt>
      <trkpt lat="47.49428" lon="6.71542">
        <ele>455</ele>
        <time>2015-05-08T08:22:50.000Z</time>
      </trkpt>
      <trkpt lat="47.49428" lon="6.71538">
        <ele>455</ele>
        <time>2015-05-08T08:22:51.000Z</time>
      </trkpt>
      <trkpt lat="47.49428" lon="6.71532">
        <ele>455</ele>
        <time>2015-05-08T08:22:53.000Z</time>
      </trkpt>
      <trkpt lat="47.49427" lon="6.71529">
        <ele>455</ele>
        <time>2015-05-08T08:22:54.000Z</time>
      </trkpt>
      <trkpt lat="47.49427" lon="6.71524">
        <ele>456</ele>
        <time>2015-05-08T08:22:56.000Z</time>
      </trkpt>
      <trkpt lat="47.49426" lon="6.71521">
        <ele>456</ele>
        <time>2015-05-08T08:22:57.000Z</time>
      </trkpt>
      <trkpt lat="47.49426" lon="6.71515">
        <ele>456</ele>
        <time>2015-05-08T08:22:59.000Z</time>
      </trkpt>
      <trkpt lat="47.49425" lon="6.71513">
        <ele>456</ele>
        <time>2015-05-08T08:23:00.000Z</time>
      </trkpt>
      <trkpt lat="47.49424" lon="6.71508">
        <ele>457</ele>
        <time>2015-05-08T08:23:02.000Z</time>
      </trkpt>
      <trkpt lat="47.49424" lon="6.71505">
        <ele>457</ele>
        <time>2015-05-08T08:23:03.000Z</time>
      </trkpt>
      <trkpt lat="47.49424" lon="6.715">
        <ele>457</ele>
        <time>2015-05-08T08:23:05.000Z</time>
      </trkpt>
      <trkpt lat="47.49424" lon="6.71498">
        <ele>458</ele>
        <time>2015-05-08T08:23:06.000Z</time>
      </trkpt>
      <trkpt lat="47.49424" lon="6.71491">
        <ele>458</ele>
        <time>2015-05-08T08:23:08.000Z</time>
      </trkpt>
      <trkpt lat="47.49424" lon="6.71487">
        <ele>458</ele>
        <time>2015-05-08T08:23:09.000Z</time>
      </trkpt>
      <trkpt lat="47.49424" lon="6.71483">
        <ele>457</ele>
        <time>2015-05-08T08:23:10.000Z</time>
      </trkpt>
      <trkpt lat="47.49424" lon="6.71479">
        <ele>457</ele>
        <time>2015-05-08T08:23:11.000Z</time>
      </trkpt>
      <trkpt lat="47.49424" lon="6.71474">
        <ele>457</ele>
        <time>2015-05-08T08:23:12.000Z</time>
      </trkpt>
      <trkpt lat="47.49423" lon="6.7147">
        <ele>457</ele>
        <time>2015-05-08T08:23:13.000Z</time>
      </trkpt>
      <trkpt lat="47.49423" lon="6.71465">
        <ele>457</ele>
        <time>2015-05-08T08:23:14.000Z</time>
      </trkpt>
      <trkpt lat="47.49422" lon="6.71461">
        <ele>457</ele>
        <time>2015-05-08T08:23:15.000Z</time>
      </trkpt>
      <trkpt lat="47.49422" lon="6.71457">
        <ele>457</ele>
        <time>2015-05-08T08:23:16.000Z</time>
      </trkpt>
      <trkpt lat="47.49422" lon="6.71453">
        <ele>457</ele>
        <time>2015-05-08T08:23:17.000Z</time>
      </trkpt>
      <trkpt lat="47.49422" lon="6.71449">
        <ele>457</ele>
        <time>2015-05-08T08:23:18.000Z</time>
      </trkpt>
      <trkpt lat="47.49421" lon="6.71446">
        <ele>457</ele>
        <time>2015-05-08T08:23:19.000Z</time>
      </trkpt>
      <trkpt lat="47.49421" lon="6.71442">
        <ele>457</ele>
        <time>2015-05-08T08:23:20.000Z</time>
      </trkpt>
      <trkpt lat="47.49421" lon="6.71439">
        <ele>458</ele>
        <time>2015-05-08T08:23:21.000Z</time>
      </trkpt>
      <trkpt lat="47.49421" lon="6.71435">
        <ele>458</ele>
        <time>2015-05-08T08:23:22.000Z</time>
      </trkpt>
      <trkpt lat="47.49421" lon="6.71432">
        <ele>458</ele>
        <time>2015-05-08T08:23:23.000Z</time>
      </trkpt>
      <trkpt lat="47.49421" lon="6.71427">
        <ele>458</ele>
        <time>2015-05-08T08:23:24.000Z</time>
      </trkpt>
      <trkpt lat="47.49421" lon="6.71423">
        <ele>458</ele>
        <time>2015-05-08T08:23:25.000Z</time>
      </trkpt>
      <trkpt lat="47.49421" lon="6.71419">
        <ele>458</ele>
        <time>2015-05-08T08:23:26.000Z</time>
      </trkpt>
      <trkpt lat="47.49421" lon="6.71414">
        <ele>458</ele>
        <time>2015-05-08T08:23:27.000Z</time>
      </trkpt>
      <trkpt lat="47.49421" lon="6.7141">
        <ele>458</ele>
        <time>2015-05-08T08:23:28.000Z</time>
      </trkpt>
      <trkpt lat="47.4942" lon="6.71405">
        <ele>459</ele>
        <time>2015-05-08T08:23:29.000Z</time>
      </trkpt>
      <trkpt lat="47.4942" lon="6.714">
        <ele>459</ele>
        <time>2015-05-08T08:23:30.000Z</time>
      </trkpt>
      <trkpt lat="47.49419" lon="6.71394">
        <ele>459</ele>
        <time>2015-05-08T08:23:31.000Z</time>
      </trkpt>
      <trkpt lat="47.49418" lon="6.71388">
        <ele>459</ele>
        <time>2015-05-08T08:23:32.000Z</time>
      </trkpt>
      <trkpt lat="47.49418" lon="6.7138">
        <ele>460</ele>
        <time>2015-05-08T08:23:33.000Z</time>
      </trkpt>
      <trkpt lat="47.49417" lon="6.71371">
        <ele>457</ele>
        <time>2015-05-08T08:23:34.000Z</time>
      </trkpt>
      <trkpt lat="47.49416" lon="6.71362">
        <ele>458</ele>
        <time>2015-05-08T08:23:35.000Z</time>
      </trkpt>
      <trkpt lat="47.49416" lon="6.71353">
        <ele>458</ele>
        <time>2015-05-08T08:23:36.000Z</time>
      </trkpt>
      <trkpt lat="47.49415" lon="6.71345">
        <ele>459</ele>
        <time>2015-05-08T08:23:37.000Z</time>
      </trkpt>
      <trkpt lat="47.49415" lon="6.71338">
        <ele>461</ele>
        <time>2015-05-08T08:23:38.000Z</time>
      </trkpt>
      <trkpt lat="47.49415" lon="6.71331">
        <ele>462</ele>
        <time>2015-05-08T08:23:39.000Z</time>
      </trkpt>
      <trkpt lat="47.49415" lon="6.71324">
        <ele>461</ele>
        <time>2015-05-08T08:23:40.000Z</time>
      </trkpt>
      <trkpt lat="47.49416" lon="6.71318">
        <ele>460</ele>
        <time>2015-05-08T08:23:41.000Z</time>
      </trkpt>
      <trkpt lat="47.49416" lon="6.71313">
        <ele>460</ele>
        <time>2015-05-08T08:23:42.000Z</time>
      </trkpt>
      <trkpt lat="47.49417" lon="6.71307">
        <ele>460</ele>
        <time>2015-05-08T08:23:43.000Z</time>
      </trkpt>
      <trkpt lat="47.49417" lon="6.71302">
        <ele>463</ele>
        <time>2015-05-08T08:23:44.000Z</time>
      </trkpt>
      <trkpt lat="47.49417" lon="6.71298">
        <ele>463</ele>
        <time>2015-05-08T08:23:45.000Z</time>
      </trkpt>
      <trkpt lat="47.49417" lon="6.71292">
        <ele>463</ele>
        <time>2015-05-08T08:23:46.000Z</time>
      </trkpt>
      <trkpt lat="47.49417" lon="6.71284">
        <ele>463</ele>
        <time>2015-05-08T08:23:47.000Z</time>
      </trkpt>
      <trkpt lat="47.49416" lon="6.71277">
        <ele>461</ele>
        <time>2015-05-08T08:23:48.000Z</time>
      </trkpt>
      <trkpt lat="47.49415" lon="6.71271">
        <ele>461</ele>
        <time>2015-05-08T08:23:49.000Z</time>
      </trkpt>
      <trkpt lat="47.49415" lon="6.71267">
        <ele>462</ele>
        <time>2015-05-08T08:23:50.000Z</time>
      </trkpt>
      <trkpt lat="47.49413" lon="6.71261">
        <ele>463</ele>
        <time>2015-05-08T08:23:52.000Z</time>
      </trkpt>
      <trkpt lat="47.49413" lon="6.71259">
        <ele>463</ele>
        <time>2015-05-08T08:23:53.000Z</time>
      </trkpt>
      <trkpt lat="47.49412" lon="6.71254">
        <ele>464</ele>
        <time>2015-05-08T08:23:56.000Z</time>
      </trkpt>
      <trkpt lat="47.49412" lon="6.71252">
        <ele>464</ele>
        <time>2015-05-08T08:23:57.000Z</time>
      </trkpt>
      <trkpt lat="47.49409" lon="6.71247">
        <ele>464</ele>
        <time>2015-05-08T08:23:59.000Z</time>
      </trkpt>
      <trkpt lat="47.49408" lon="6.71244">
        <ele>463</ele>
        <time>2015-05-08T08:24:00.000Z</time>
      </trkpt>
      <trkpt lat="47.49407" lon="6.71241">
        <ele>463</ele>
        <time>2015-05-08T08:24:01.000Z</time>
      </trkpt>
      <trkpt lat="47.49405" lon="6.71236">
        <ele>463</ele>
        <time>2015-05-08T08:24:02.000Z</time>
      </trkpt>
      <trkpt lat="47.49404" lon="6.71231">
        <ele>462</ele>
        <time>2015-05-08T08:24:03.000Z</time>
      </trkpt>
      <trkpt lat="47.49403" lon="6.71226">
        <ele>462</ele>
        <time>2015-05-08T08:24:04.000Z</time>
      </trkpt>
      <trkpt lat="47.49401" lon="6.71221">
        <ele>462</ele>
        <time>2015-05-08T08:24:05.000Z</time>
      </trkpt>
      <trkpt lat="47.494" lon="6.71215">
        <ele>462</ele>
        <time>2015-05-08T08:24:06.000Z</time>
      </trkpt>
      <trkpt lat="47.49399" lon="6.7121">
        <ele>462</ele>
        <time>2015-05-08T08:24:07.000Z</time>
      </trkpt>
      <trkpt lat="47.49398" lon="6.71205">
        <ele>462</ele>
        <time>2015-05-08T08:24:08.000Z</time>
      </trkpt>
      <trkpt lat="47.49397" lon="6.712">
        <ele>462</ele>
        <time>2015-05-08T08:24:09.000Z</time>
      </trkpt>
      <trkpt lat="47.49396" lon="6.71195">
        <ele>462</ele>
        <time>2015-05-08T08:24:10.000Z</time>
      </trkpt>
      <trkpt lat="47.49396" lon="6.71191">
        <ele>462</ele>
        <time>2015-05-08T08:24:11.000Z</time>
      </trkpt>
      <trkpt lat="47.49395" lon="6.71187">
        <ele>462</ele>
        <time>2015-05-08T08:24:12.000Z</time>
      </trkpt>
      <trkpt lat="47.49395" lon="6.71182">
        <ele>462</ele>
        <time>2015-05-08T08:24:13.000Z</time>
      </trkpt>
      <trkpt lat="47.49395" lon="6.71178">
        <ele>462</ele>
        <time>2015-05-08T08:24:14.000Z</time>
      </trkpt>
      <trkpt lat="47.49395" lon="6.71173">
        <ele>463</ele>
        <time>2015-05-08T08:24:15.000Z</time>
      </trkpt>
      <trkpt lat="47.49394" lon="6.71169">
        <ele>463</ele>
        <time>2015-05-08T08:24:16.000Z</time>
      </trkpt>
      <trkpt lat="47.49394" lon="6.71165">
        <ele>462</ele>
        <time>2015-05-08T08:24:17.000Z</time>
      </trkpt>
      <trkpt lat="47.49393" lon="6.71161">
        <ele>462</ele>
        <time>2015-05-08T08:24:18.000Z</time>
      </trkpt>
      <trkpt lat="47.49392" lon="6.71157">
        <ele>462</ele>
        <time>2015-05-08T08:24:19.000Z</time>
      </trkpt>
      <trkpt lat="47.49392" lon="6.71153">
        <ele>462</ele>
        <time>2015-05-08T08:24:20.000Z</time>
      </trkpt>
      <trkpt lat="47.49391" lon="6.71149">
        <ele>462</ele>
        <time>2015-05-08T08:24:21.000Z</time>
      </trkpt>
      <trkpt lat="47.49391" lon="6.71146">
        <ele>461</ele>
        <time>2015-05-08T08:24:22.015Z</time>
      </trkpt>
      <trkpt lat="47.4939" lon="6.7114">
        <ele>461</ele>
        <time>2015-05-08T08:24:23.000Z</time>
      </trkpt>
      <trkpt lat="47.49389" lon="6.71135">
        <ele>461</ele>
        <time>2015-05-08T08:24:24.000Z</time>
      </trkpt>
      <trkpt lat="47.49388" lon="6.71131">
        <ele>461</ele>
        <time>2015-05-08T08:24:25.000Z</time>
      </trkpt>
      <trkpt lat="47.49386" lon="6.71128">
        <ele>461</ele>
        <time>2015-05-08T08:24:26.000Z</time>
      </trkpt>
      <trkpt lat="47.49385" lon="6.71124">
        <ele>461</ele>
        <time>2015-05-08T08:24:27.000Z</time>
      </trkpt>
      <trkpt lat="47.49383" lon="6.7112">
        <ele>460</ele>
        <time>2015-05-08T08:24:28.000Z</time>
      </trkpt>
      <trkpt lat="47.49382" lon="6.71116">
        <ele>460</ele>
        <time>2015-05-08T08:24:29.000Z</time>
      </trkpt>
      <trkpt lat="47.49381" lon="6.71112">
        <ele>460</ele>
        <time>2015-05-08T08:24:30.000Z</time>
      </trkpt>
      <trkpt lat="47.49379" lon="6.71108">
        <ele>460</ele>
        <time>2015-05-08T08:24:31.000Z</time>
      </trkpt>
      <trkpt lat="47.49378" lon="6.71103">
        <ele>460</ele>
        <time>2015-05-08T08:24:32.000Z</time>
      </trkpt>
      <trkpt lat="47.49375" lon="6.71097">
        <ele>460</ele>
        <time>2015-05-08T08:24:33.000Z</time>
      </trkpt>
      <trkpt lat="47.49372" lon="6.71092">
        <ele>460</ele>
        <time>2015-05-08T08:24:34.000Z</time>
      </trkpt>
      <trkpt lat="47.4937" lon="6.71086">
        <ele>460</ele>
        <time>2015-05-08T08:24:35.000Z</time>
      </trkpt>
      <trkpt lat="47.49367" lon="6.71082">
        <ele>459</ele>
        <time>2015-05-08T08:24:36.000Z</time>
      </trkpt>
      <trkpt lat="47.49365" lon="6.71078">
        <ele>459</ele>
        <time>2015-05-08T08:24:37.000Z</time>
      </trkpt>
      <trkpt lat="47.49364" lon="6.71075">
        <ele>459</ele>
        <time>2015-05-08T08:24:38.000Z</time>
      </trkpt>
      <trkpt lat="47.49362" lon="6.71072">
        <ele>459</ele>
        <time>2015-05-08T08:24:39.000Z</time>
      </trkpt>
      <trkpt lat="47.49361" lon="6.71068">
        <ele>459</ele>
        <time>2015-05-08T08:24:40.000Z</time>
      </trkpt>
      <trkpt lat="47.4936" lon="6.71064">
        <ele>459</ele>
        <time>2015-05-08T08:24:41.000Z</time>
      </trkpt>
      <trkpt lat="47.49359" lon="6.7106">
        <ele>459</ele>
        <time>2015-05-08T08:24:42.000Z</time>
      </trkpt>
      <trkpt lat="47.49358" lon="6.71056">
        <ele>459</ele>
        <time>2015-05-08T08:24:43.000Z</time>
      </trkpt>
      <trkpt lat="47.49356" lon="6.71051">
        <ele>459</ele>
        <time>2015-05-08T08:24:44.000Z</time>
      </trkpt>
      <trkpt lat="47.49355" lon="6.71047">
        <ele>459</ele>
        <time>2015-05-08T08:24:45.000Z</time>
      </trkpt>
      <trkpt lat="47.49353" lon="6.71043">
        <ele>459</ele>
        <time>2015-05-08T08:24:46.000Z</time>
      </trkpt>
      <trkpt lat="47.49351" lon="6.71039">
        <ele>459</ele>
        <time>2015-05-08T08:24:47.000Z</time>
      </trkpt>
      <trkpt lat="47.49349" lon="6.71035">
        <ele>459</ele>
        <time>2015-05-08T08:24:48.000Z</time>
      </trkpt>
      <trkpt lat="47.49348" lon="6.71031">
        <ele>459</ele>
        <time>2015-05-08T08:24:49.000Z</time>
      </trkpt>
      <trkpt lat="47.49346" lon="6.71027">
        <ele>459</ele>
        <time>2015-05-08T08:24:50.000Z</time>
      </trkpt>
      <trkpt lat="47.49345" lon="6.71022">
        <ele>459</ele>
        <time>2015-05-08T08:24:51.000Z</time>
      </trkpt>
      <trkpt lat="47.49343" lon="6.71018">
        <ele>459</ele>
        <time>2015-05-08T08:24:52.000Z</time>
      </trkpt>
      <trkpt lat="47.49341" lon="6.71013">
        <ele>459</ele>
        <time>2015-05-08T08:24:53.000Z</time>
      </trkpt>
      <trkpt lat="47.49339" lon="6.71009">
        <ele>459</ele>
        <time>2015-05-08T08:24:54.000Z</time>
      </trkpt>
      <trkpt lat="47.49338" lon="6.71006">
        <ele>459</ele>
        <time>2015-05-08T08:24:55.000Z</time>
      </trkpt>
      <trkpt lat="47.49336" lon="6.71003">
        <ele>459</ele>
        <time>2015-05-08T08:24:56.000Z</time>
      </trkpt>
      <trkpt lat="47.49335" lon="6.70999">
        <ele>459</ele>
        <time>2015-05-08T08:24:57.000Z</time>
      </trkpt>
      <trkpt lat="47.49333" lon="6.70996">
        <ele>458</ele>
        <time>2015-05-08T08:24:58.000Z</time>
      </trkpt>
      <trkpt lat="47.49331" lon="6.70992">
        <ele>458</ele>
        <time>2015-05-08T08:24:59.000Z</time>
      </trkpt>
      <trkpt lat="47.49328" lon="6.70988">
        <ele>457</ele>
        <time>2015-05-08T08:25:00.000Z</time>
      </trkpt>
      <trkpt lat="47.49326" lon="6.70985">
        <ele>457</ele>
        <time>2015-05-08T08:25:01.000Z</time>
      </trkpt>
      <trkpt lat="47.49323" lon="6.70981">
        <ele>457</ele>
        <time>2015-05-08T08:25:02.000Z</time>
      </trkpt>
      <trkpt lat="47.49321" lon="6.70976">
        <ele>456</ele>
        <time>2015-05-08T08:25:03.000Z</time>
      </trkpt>
      <trkpt lat="47.49319" lon="6.70971">
        <ele>456</ele>
        <time>2015-05-08T08:25:04.000Z</time>
      </trkpt>
      <trkpt lat="47.49317" lon="6.70966">
        <ele>456</ele>
        <time>2015-05-08T08:25:05.000Z</time>
      </trkpt>
      <trkpt lat="47.49315" lon="6.70961">
        <ele>456</ele>
        <time>2015-05-08T08:25:06.000Z</time>
      </trkpt>
      <trkpt lat="47.49313" lon="6.70955">
        <ele>456</ele>
        <time>2015-05-08T08:25:07.000Z</time>
      </trkpt>
      <trkpt lat="47.49311" lon="6.7095">
        <ele>456</ele>
        <time>2015-05-08T08:25:08.000Z</time>
      </trkpt>
      <trkpt lat="47.49309" lon="6.70945">
        <ele>456</ele>
        <time>2015-05-08T08:25:09.000Z</time>
      </trkpt>
      <trkpt lat="47.49306" lon="6.7094">
        <ele>456</ele>
        <time>2015-05-08T08:25:10.000Z</time>
      </trkpt>
      <trkpt lat="47.49303" lon="6.70936">
        <ele>456</ele>
        <time>2015-05-08T08:25:11.000Z</time>
      </trkpt>
      <trkpt lat="47.49301" lon="6.70931">
        <ele>455</ele>
        <time>2015-05-08T08:25:12.000Z</time>
      </trkpt>
      <trkpt lat="47.49298" lon="6.70926">
        <ele>455</ele>
        <time>2015-05-08T08:25:13.000Z</time>
      </trkpt>
      <trkpt lat="47.49295" lon="6.70921">
        <ele>455</ele>
        <time>2015-05-08T08:25:14.000Z</time>
      </trkpt>
      <trkpt lat="47.49292" lon="6.70916">
        <ele>455</ele>
        <time>2015-05-08T08:25:15.000Z</time>
      </trkpt>
      <trkpt lat="47.49289" lon="6.70911">
        <ele>455</ele>
        <time>2015-05-08T08:25:16.000Z</time>
      </trkpt>
      <trkpt lat="47.49286" lon="6.70907">
        <ele>455</ele>
        <time>2015-05-08T08:25:17.000Z</time>
      </trkpt>
      <trkpt lat="47.49283" lon="6.70903">
        <ele>455</ele>
        <time>2015-05-08T08:25:18.000Z</time>
      </trkpt>
      <trkpt lat="47.49281" lon="6.70899">
        <ele>455</ele>
        <time>2015-05-08T08:25:19.000Z</time>
      </trkpt>
      <trkpt lat="47.49279" lon="6.70895">
        <ele>455</ele>
        <time>2015-05-08T08:25:20.000Z</time>
      </trkpt>
      <trkpt lat="47.49277" lon="6.70891">
        <ele>455</ele>
        <time>2015-05-08T08:25:21.000Z</time>
      </trkpt>
      <trkpt lat="47.49275" lon="6.70886">
        <ele>455</ele>
        <time>2015-05-08T08:25:22.000Z</time>
      </trkpt>
      <trkpt lat="47.49272" lon="6.70881">
        <ele>455</ele>
        <time>2015-05-08T08:25:23.000Z</time>
      </trkpt>
      <trkpt lat="47.4927" lon="6.70877">
        <ele>455</ele>
        <time>2015-05-08T08:25:24.000Z</time>
      </trkpt>
      <trkpt lat="47.49267" lon="6.70872">
        <ele>455</ele>
        <time>2015-05-08T08:25:25.000Z</time>
      </trkpt>
      <trkpt lat="47.49264" lon="6.70867">
        <ele>455</ele>
        <time>2015-05-08T08:25:26.000Z</time>
      </trkpt>
      <trkpt lat="47.49262" lon="6.70862">
        <ele>455</ele>
        <time>2015-05-08T08:25:27.000Z</time>
      </trkpt>
      <trkpt lat="47.49259" lon="6.70858">
        <ele>455</ele>
        <time>2015-05-08T08:25:28.000Z</time>
      </trkpt>
      <trkpt lat="47.49256" lon="6.70853">
        <ele>454</ele>
        <time>2015-05-08T08:25:29.000Z</time>
      </trkpt>
      <trkpt lat="47.49253" lon="6.70848">
        <ele>454</ele>
        <time>2015-05-08T08:25:30.000Z</time>
      </trkpt>
      <trkpt lat="47.49251" lon="6.70843">
        <ele>454</ele>
        <time>2015-05-08T08:25:31.000Z</time>
      </trkpt>
      <trkpt lat="47.49248" lon="6.70839">
        <ele>453</ele>
        <time>2015-05-08T08:25:32.000Z</time>
      </trkpt>
      <trkpt lat="47.49246" lon="6.70834">
        <ele>453</ele>
        <time>2015-05-08T08:25:33.000Z</time>
      </trkpt>
      <trkpt lat="47.49244" lon="6.70829">
        <ele>454</ele>
        <time>2015-05-08T08:25:34.000Z</time>
      </trkpt>
      <trkpt lat="47.49242" lon="6.70825">
        <ele>453</ele>
        <time>2015-05-08T08:25:35.000Z</time>
      </trkpt>
      <trkpt lat="47.4924" lon="6.7082">
        <ele>453</ele>
        <time>2015-05-08T08:25:36.000Z</time>
      </trkpt>
      <trkpt lat="47.49238" lon="6.70817">
        <ele>453</ele>
        <time>2015-05-08T08:25:37.000Z</time>
      </trkpt>
      <trkpt lat="47.49236" lon="6.70813">
        <ele>453</ele>
        <time>2015-05-08T08:25:38.000Z</time>
      </trkpt>
      <trkpt lat="47.49234" lon="6.70808">
        <ele>453</ele>
        <time>2015-05-08T08:25:39.000Z</time>
      </trkpt>
      <trkpt lat="47.49231" lon="6.70803">
        <ele>453</ele>
        <time>2015-05-08T08:25:40.000Z</time>
      </trkpt>
      <trkpt lat="47.49228" lon="6.70799">
        <ele>453</ele>
        <time>2015-05-08T08:25:41.000Z</time>
      </trkpt>
      <trkpt lat="47.49225" lon="6.70794">
        <ele>453</ele>
        <time>2015-05-08T08:25:42.000Z</time>
      </trkpt>
      <trkpt lat="47.49222" lon="6.70788">
        <ele>453</ele>
        <time>2015-05-08T08:25:43.000Z</time>
      </trkpt>
      <trkpt lat="47.4922" lon="6.70783">
        <ele>453</ele>
        <time>2015-05-08T08:25:44.000Z</time>
      </trkpt>
      <trkpt lat="47.49217" lon="6.70778">
        <ele>453</ele>
        <time>2015-05-08T08:25:45.000Z</time>
      </trkpt>
      <trkpt lat="47.49215" lon="6.70772">
        <ele>453</ele>
        <time>2015-05-08T08:25:46.000Z</time>
      </trkpt>
      <trkpt lat="47.49212" lon="6.70767">
        <ele>453</ele>
        <time>2015-05-08T08:25:47.000Z</time>
      </trkpt>
      <trkpt lat="47.4921" lon="6.70762">
        <ele>453</ele>
        <time>2015-05-08T08:25:48.000Z</time>
      </trkpt>
      <trkpt lat="47.49207" lon="6.70757">
        <ele>453</ele>
        <time>2015-05-08T08:25:49.000Z</time>
      </trkpt>
      <trkpt lat="47.49205" lon="6.70752">
        <ele>453</ele>
        <time>2015-05-08T08:25:50.000Z</time>
      </trkpt>
      <trkpt lat="47.49202" lon="6.70746">
        <ele>454</ele>
        <time>2015-05-08T08:25:51.000Z</time>
      </trkpt>
      <trkpt lat="47.49199" lon="6.70741">
        <ele>454</ele>
        <time>2015-05-08T08:25:52.000Z</time>
      </trkpt>
      <trkpt lat="47.49196" lon="6.70735">
        <ele>454</ele>
        <time>2015-05-08T08:25:53.000Z</time>
      </trkpt>
      <trkpt lat="47.49194" lon="6.7073">
        <ele>454</ele>
        <time>2015-05-08T08:25:54.000Z</time>
      </trkpt>
      <trkpt lat="47.49191" lon="6.70724">
        <ele>454</ele>
        <time>2015-05-08T08:25:55.000Z</time>
      </trkpt>
      <trkpt lat="47.49189" lon="6.70719">
        <ele>454</ele>
        <time>2015-05-08T08:25:56.000Z</time>
      </trkpt>
      <trkpt lat="47.49186" lon="6.70713">
        <ele>454</ele>
        <time>2015-05-08T08:25:57.000Z</time>
      </trkpt>
      <trkpt lat="47.49185" lon="6.70708">
        <ele>455</ele>
        <time>2015-05-08T08:25:58.000Z</time>
      </trkpt>
      <trkpt lat="47.49182" lon="6.70702">
        <ele>455</ele>
        <time>2015-05-08T08:25:59.000Z</time>
      </trkpt>
      <trkpt lat="47.4918" lon="6.70695">
        <ele>455</ele>
        <time>2015-05-08T08:26:00.000Z</time>
      </trkpt>
      <trkpt lat="47.49178" lon="6.70689">
        <ele>455</ele>
        <time>2015-05-08T08:26:01.000Z</time>
      </trkpt>
      <trkpt lat="47.49175" lon="6.70682">
        <ele>455</ele>
        <time>2015-05-08T08:26:02.000Z</time>
      </trkpt>
      <trkpt lat="47.49172" lon="6.70677">
        <ele>455</ele>
        <time>2015-05-08T08:26:03.000Z</time>
      </trkpt>
      <trkpt lat="47.49169" lon="6.70671">
        <ele>456</ele>
        <time>2015-05-08T08:26:04.000Z</time>
      </trkpt>
      <trkpt lat="47.49166" lon="6.70666">
        <ele>456</ele>
        <time>2015-05-08T08:26:05.000Z</time>
      </trkpt>
      <trkpt lat="47.49163" lon="6.70661">
        <ele>455</ele>
        <time>2015-05-08T08:26:06.000Z</time>
      </trkpt>
      <trkpt lat="47.49161" lon="6.70656">
        <ele>455</ele>
        <time>2015-05-08T08:26:07.000Z</time>
      </trkpt>
      <trkpt lat="47.49158" lon="6.7065">
        <ele>454</ele>
        <time>2015-05-08T08:26:08.000Z</time>
      </trkpt>
      <trkpt lat="47.49155" lon="6.70644">
        <ele>454</ele>
        <time>2015-05-08T08:26:09.000Z</time>
      </trkpt>
      <trkpt lat="47.49153" lon="6.70639">
        <ele>454</ele>
        <time>2015-05-08T08:26:10.000Z</time>
      </trkpt>
      <trkpt lat="47.4915" lon="6.70633">
        <ele>454</ele>
        <time>2015-05-08T08:26:11.000Z</time>
      </trkpt>
      <trkpt lat="47.49148" lon="6.70627">
        <ele>454</ele>
        <time>2015-05-08T08:26:12.000Z</time>
      </trkpt>
      <trkpt lat="47.49145" lon="6.70622">
        <ele>454</ele>
        <time>2015-05-08T08:26:13.000Z</time>
      </trkpt>
      <trkpt lat="47.49143" lon="6.70617">
        <ele>454</ele>
        <time>2015-05-08T08:26:14.000Z</time>
      </trkpt>
      <trkpt lat="47.4914" lon="6.70611">
        <ele>454</ele>
        <time>2015-05-08T08:26:15.000Z</time>
      </trkpt>
      <trkpt lat="47.49138" lon="6.70605">
        <ele>454</ele>
        <time>2015-05-08T08:26:16.000Z</time>
      </trkpt>
      <trkpt lat="47.49135" lon="6.706">
        <ele>454</ele>
        <time>2015-05-08T08:26:17.000Z</time>
      </trkpt>
      <trkpt lat="47.49133" lon="6.70595">
        <ele>454</ele>
        <time>2015-05-08T08:26:18.000Z</time>
      </trkpt>
      <trkpt lat="47.49132" lon="6.7059">
        <ele>454</ele>
        <time>2015-05-08T08:26:19.000Z</time>
      </trkpt>
      <trkpt lat="47.4913" lon="6.70586">
        <ele>453</ele>
        <time>2015-05-08T08:26:20.000Z</time>
      </trkpt>
      <trkpt lat="47.49129" lon="6.70581">
        <ele>453</ele>
        <time>2015-05-08T08:26:21.000Z</time>
      </trkpt>
      <trkpt lat="47.49127" lon="6.70575">
        <ele>453</ele>
        <time>2015-05-08T08:26:22.000Z</time>
      </trkpt>
      <trkpt lat="47.49125" lon="6.70568">
        <ele>453</ele>
        <time>2015-05-08T08:26:23.000Z</time>
      </trkpt>
      <trkpt lat="47.49123" lon="6.70561">
        <ele>453</ele>
        <time>2015-05-08T08:26:24.000Z</time>
      </trkpt>
      <trkpt lat="47.49121" lon="6.70555">
        <ele>453</ele>
        <time>2015-05-08T08:26:25.000Z</time>
      </trkpt>
      <trkpt lat="47.49118" lon="6.70547">
        <ele>453</ele>
        <time>2015-05-08T08:26:26.000Z</time>
      </trkpt>
      <trkpt lat="47.49116" lon="6.7054">
        <ele>453</ele>
        <time>2015-05-08T08:26:27.000Z</time>
      </trkpt>
      <trkpt lat="47.49113" lon="6.70532">
        <ele>453</ele>
        <time>2015-05-08T08:26:28.000Z</time>
      </trkpt>
      <trkpt lat="47.49111" lon="6.70525">
        <ele>453</ele>
        <time>2015-05-08T08:26:29.000Z</time>
      </trkpt>
      <trkpt lat="47.49109" lon="6.70517">
        <ele>453</ele>
        <time>2015-05-08T08:26:30.000Z</time>
      </trkpt>
      <trkpt lat="47.49106" lon="6.70509">
        <ele>453</ele>
        <time>2015-05-08T08:26:31.000Z</time>
      </trkpt>
      <trkpt lat="47.49103" lon="6.70502">
        <ele>453</ele>
        <time>2015-05-08T08:26:32.000Z</time>
      </trkpt>
      <trkpt lat="47.491" lon="6.70495">
        <ele>451</ele>
        <time>2015-05-08T08:26:33.000Z</time>
      </trkpt>
      <trkpt lat="47.49095" lon="6.70487">
        <ele>451</ele>
        <time>2015-05-08T08:26:34.000Z</time>
      </trkpt>
      <trkpt lat="47.4909" lon="6.7048">
        <ele>451</ele>
        <time>2015-05-08T08:26:35.000Z</time>
      </trkpt>
      <trkpt lat="47.49085" lon="6.70472">
        <ele>451</ele>
        <time>2015-05-08T08:26:36.000Z</time>
      </trkpt>
      <trkpt lat="47.4908" lon="6.70465">
        <ele>450</ele>
        <time>2015-05-08T08:26:37.000Z</time>
      </trkpt>
      <trkpt lat="47.49076" lon="6.70457">
        <ele>450</ele>
        <time>2015-05-08T08:26:38.000Z</time>
      </trkpt>
      <trkpt lat="47.49073" lon="6.7045">
        <ele>449</ele>
        <time>2015-05-08T08:26:39.000Z</time>
      </trkpt>
      <trkpt lat="47.49071" lon="6.70441">
        <ele>449</ele>
        <time>2015-05-08T08:26:40.000Z</time>
      </trkpt>
      <trkpt lat="47.49069" lon="6.70433">
        <ele>449</ele>
        <time>2015-05-08T08:26:41.000Z</time>
      </trkpt>
      <trkpt lat="47.49068" lon="6.70427">
        <ele>449</ele>
        <time>2015-05-08T08:26:42.000Z</time>
      </trkpt>
      <trkpt lat="47.49065" lon="6.7042">
        <ele>449</ele>
        <time>2015-05-08T08:26:43.000Z</time>
      </trkpt>
      <trkpt lat="47.49063" lon="6.70412">
        <ele>449</ele>
        <time>2015-05-08T08:26:44.000Z</time>
      </trkpt>
      <trkpt lat="47.49061" lon="6.70405">
        <ele>449</ele>
        <time>2015-05-08T08:26:45.000Z</time>
      </trkpt>
      <trkpt lat="47.49054" lon="6.70382">
        <ele>449</ele>
        <time>2015-05-08T08:26:46.000Z</time>
      </trkpt>
      <trkpt lat="47.49052" lon="6.70374">
        <ele>449</ele>
        <time>2015-05-08T08:26:47.000Z</time>
      </trkpt>
      <trkpt lat="47.4905" lon="6.70366">
        <ele>449</ele>
        <time>2015-05-08T08:26:48.000Z</time>
      </trkpt>
      <trkpt lat="47.49046" lon="6.70356">
        <ele>449</ele>
        <time>2015-05-08T08:26:49.000Z</time>
      </trkpt>
      <trkpt lat="47.49044" lon="6.70346">
        <ele>449</ele>
        <time>2015-05-08T08:26:50.000Z</time>
      </trkpt>
      <trkpt lat="47.49041" lon="6.70334">
        <ele>448</ele>
        <time>2015-05-08T08:26:51.000Z</time>
      </trkpt>
      <trkpt lat="47.49039" lon="6.70323">
        <ele>448</ele>
        <time>2015-05-08T08:26:52.000Z</time>
      </trkpt>
      <trkpt lat="47.49036" lon="6.70311">
        <ele>448</ele>
        <time>2015-05-08T08:26:53.000Z</time>
      </trkpt>
      <trkpt lat="47.4903" lon="6.7031">
        <ele>448</ele>
        <time>2015-05-08T08:26:54.000Z</time>
      </trkpt>
      <trkpt lat="47.49029" lon="6.70307">
        <ele>448</ele>
        <time>2015-05-08T08:26:56.000Z</time>
      </trkpt>
      <trkpt lat="47.49025" lon="6.70308">
        <ele>448</ele>
        <time>2015-05-08T08:26:57.000Z</time>
      </trkpt>
      <trkpt lat="47.49023" lon="6.70305">
        <ele>448</ele>
        <time>2015-05-08T08:26:58.000Z</time>
      </trkpt>
      <trkpt lat="47.49023" lon="6.703">
        <ele>448</ele>
        <time>2015-05-08T08:26:59.000Z</time>
      </trkpt>
      <trkpt lat="47.49025" lon="6.70295">
        <ele>448</ele>
        <time>2015-05-08T08:27:00.000Z</time>
      </trkpt>
      <trkpt lat="47.49026" lon="6.7029">
        <ele>448</ele>
        <time>2015-05-08T08:27:01.000Z</time>
      </trkpt>
      <trkpt lat="47.49024" lon="6.70286">
        <ele>448</ele>
        <time>2015-05-08T08:27:02.000Z</time>
      </trkpt>
      <trkpt lat="47.49024" lon="6.70281">
        <ele>448</ele>
        <time>2015-05-08T08:27:03.000Z</time>
      </trkpt>
      <trkpt lat="47.49024" lon="6.70276">
        <ele>448</ele>
        <time>2015-05-08T08:27:04.000Z</time>
      </trkpt>
      <trkpt lat="47.49023" lon="6.70271">
        <ele>448</ele>
        <time>2015-05-08T08:27:05.000Z</time>
      </trkpt>
      <trkpt lat="47.49022" lon="6.70266">
        <ele>448</ele>
        <time>2015-05-08T08:27:06.000Z</time>
      </trkpt>
      <trkpt lat="47.49021" lon="6.70261">
        <ele>447</ele>
        <time>2015-05-08T08:27:07.000Z</time>
      </trkpt>
      <trkpt lat="47.4902" lon="6.70256">
        <ele>447</ele>
        <time>2015-05-08T08:27:08.000Z</time>
      </trkpt>
      <trkpt lat="47.49019" lon="6.70252">
        <ele>447</ele>
        <time>2015-05-08T08:27:09.000Z</time>
      </trkpt>
      <trkpt lat="47.49018" lon="6.70248">
        <ele>446</ele>
        <time>2015-05-08T08:27:10.000Z</time>
      </trkpt>
      <trkpt lat="47.49017" lon="6.70245">
        <ele>446</ele>
        <time>2015-05-08T08:27:11.000Z</time>
      </trkpt>
      <trkpt lat="47.49016" lon="6.7024">
        <ele>446</ele>
        <time>2015-05-08T08:27:14.000Z</time>
      </trkpt>
      <trkpt lat="47.49016" lon="6.70238">
        <ele>446</ele>
        <time>2015-05-08T08:27:15.000Z</time>
      </trkpt>
      <trkpt lat="47.49015" lon="6.70232">
        <ele>446</ele>
        <time>2015-05-08T08:27:19.000Z</time>
      </trkpt>
      <trkpt lat="47.49014" lon="6.7023">
        <ele>446</ele>
        <time>2015-05-08T08:27:20.000Z</time>
      </trkpt>
      <trkpt lat="47.49012" lon="6.70226">
        <ele>446</ele>
        <time>2015-05-08T08:27:22.000Z</time>
      </trkpt>
      <trkpt lat="47.49012" lon="6.70224">
        <ele>446</ele>
        <time>2015-05-08T08:27:23.000Z</time>
      </trkpt>
      <trkpt lat="47.4901" lon="6.70218">
        <ele>446</ele>
        <time>2015-05-08T08:27:28.000Z</time>
      </trkpt>
      <trkpt lat="47.49009" lon="6.70218">
        <ele>446</ele>
        <time>2015-05-08T08:27:29.000Z</time>
      </trkpt>
      <trkpt lat="47.49006" lon="6.70214">
        <ele>446</ele>
        <time>2015-05-08T08:27:41.000Z</time>
      </trkpt>
      <trkpt lat="47.49006" lon="6.70214">
        <ele>446</ele>
        <time>2015-05-08T08:27:42.000Z</time>
      </trkpt>
      <trkpt lat="47.49005" lon="6.70207">
        <ele>446</ele>
        <time>2015-05-08T08:28:17.000Z</time>
      </trkpt>
      <trkpt lat="47.49004" lon="6.70203">
        <ele>446</ele>
        <time>2015-05-08T08:28:18.000Z</time>
      </trkpt>
      <trkpt lat="47.49002" lon="6.702">
        <ele>446</ele>
        <time>2015-05-08T08:28:19.000Z</time>
      </trkpt>
      <trkpt lat="47.49001" lon="6.70195">
        <ele>445</ele>
        <time>2015-05-08T08:28:20.000Z</time>
      </trkpt>
      <trkpt lat="47.49" lon="6.7019">
        <ele>440</ele>
        <time>2015-05-08T08:28:21.000Z</time>
      </trkpt>
      <trkpt lat="47.48999" lon="6.70184">
        <ele>440</ele>
        <time>2015-05-08T08:28:22.000Z</time>
      </trkpt>
      <trkpt lat="47.48997" lon="6.70178">
        <ele>441</ele>
        <time>2015-05-08T08:28:23.000Z</time>
      </trkpt>
      <trkpt lat="47.48996" lon="6.70171">
        <ele>441</ele>
        <time>2015-05-08T08:28:24.000Z</time>
      </trkpt>
      <trkpt lat="47.48994" lon="6.70165">
        <ele>440</ele>
        <time>2015-05-08T08:28:25.000Z</time>
      </trkpt>
      <trkpt lat="47.48987" lon="6.70149">
        <ele>437</ele>
        <time>2015-05-08T08:28:26.000Z</time>
      </trkpt>
      <trkpt lat="47.48985" lon="6.70143">
        <ele>436</ele>
        <time>2015-05-08T08:28:27.000Z</time>
      </trkpt>
      <trkpt lat="47.48983" lon="6.70137">
        <ele>436</ele>
        <time>2015-05-08T08:28:28.000Z</time>
      </trkpt>
      <trkpt lat="47.48981" lon="6.70131">
        <ele>435</ele>
        <time>2015-05-08T08:28:29.000Z</time>
      </trkpt>
      <trkpt lat="47.4898" lon="6.70125">
        <ele>435</ele>
        <time>2015-05-08T08:28:30.000Z</time>
      </trkpt>
      <trkpt lat="47.48978" lon="6.70118">
        <ele>434</ele>
        <time>2015-05-08T08:28:31.000Z</time>
      </trkpt>
      <trkpt lat="47.48979" lon="6.70112">
        <ele>434</ele>
        <time>2015-05-08T08:28:32.000Z</time>
      </trkpt>
      <trkpt lat="47.48975" lon="6.70106">
        <ele>434</ele>
        <time>2015-05-08T08:28:33.000Z</time>
      </trkpt>
      <trkpt lat="47.48974" lon="6.70099">
        <ele>433</ele>
        <time>2015-05-08T08:28:34.000Z</time>
      </trkpt>
      <trkpt lat="47.48973" lon="6.70091">
        <ele>433</ele>
        <time>2015-05-08T08:28:35.000Z</time>
      </trkpt>
      <trkpt lat="47.4897" lon="6.70083">
        <ele>429</ele>
        <time>2015-05-08T08:28:36.000Z</time>
      </trkpt>
      <trkpt lat="47.48967" lon="6.70075">
        <ele>429</ele>
        <time>2015-05-08T08:28:37.000Z</time>
      </trkpt>
      <trkpt lat="47.48965" lon="6.70066">
        <ele>428</ele>
        <time>2015-05-08T08:28:38.000Z</time>
      </trkpt>
      <trkpt lat="47.48963" lon="6.70058">
        <ele>428</ele>
        <time>2015-05-08T08:28:39.000Z</time>
      </trkpt>
      <trkpt lat="47.48959" lon="6.70052">
        <ele>428</ele>
        <time>2015-05-08T08:28:40.000Z</time>
      </trkpt>
      <trkpt lat="47.48956" lon="6.70047">
        <ele>428</ele>
        <time>2015-05-08T08:28:41.000Z</time>
      </trkpt>
      <trkpt lat="47.48952" lon="6.70038">
        <ele>427</ele>
        <time>2015-05-08T08:28:42.000Z</time>
      </trkpt>
      <trkpt lat="47.48944" lon="6.70029">
        <ele>427</ele>
        <time>2015-05-08T08:28:43.000Z</time>
      </trkpt>
      <trkpt lat="47.48937" lon="6.7002">
        <ele>426</ele>
        <time>2015-05-08T08:28:44.000Z</time>
      </trkpt>
      <trkpt lat="47.48931" lon="6.7001">
        <ele>425</ele>
        <time>2015-05-08T08:28:45.000Z</time>
      </trkpt>
      <trkpt lat="47.48924" lon="6.7">
        <ele>423</ele>
        <time>2015-05-08T08:28:46.000Z</time>
      </trkpt>
      <trkpt lat="47.48919" lon="6.69987">
        <ele>422</ele>
        <time>2015-05-08T08:28:47.000Z</time>
      </trkpt>
      <trkpt lat="47.48916" lon="6.69975">
        <ele>421</ele>
        <time>2015-05-08T08:28:48.000Z</time>
      </trkpt>
      <trkpt lat="47.4891" lon="6.69962">
        <ele>421</ele>
        <time>2015-05-08T08:28:49.000Z</time>
      </trkpt>
      <trkpt lat="47.48904" lon="6.69948">
        <ele>420</ele>
        <time>2015-05-08T08:28:50.000Z</time>
      </trkpt>
      <trkpt lat="47.489" lon="6.69937">
        <ele>420</ele>
        <time>2015-05-08T08:28:51.000Z</time>
      </trkpt>
      <trkpt lat="47.48895" lon="6.69923">
        <ele>420</ele>
        <time>2015-05-08T08:28:52.000Z</time>
      </trkpt>
      <trkpt lat="47.48887" lon="6.69913">
        <ele>416</ele>
        <time>2015-05-08T08:28:53.000Z</time>
      </trkpt>
      <trkpt lat="47.4888" lon="6.69902">
        <ele>415</ele>
        <time>2015-05-08T08:28:54.000Z</time>
      </trkpt>
      <trkpt lat="47.48874" lon="6.69888">
        <ele>414</ele>
        <time>2015-05-08T08:28:55.000Z</time>
      </trkpt>
      <trkpt lat="47.48869" lon="6.69876">
        <ele>414</ele>
        <time>2015-05-08T08:28:56.000Z</time>
      </trkpt>
      <trkpt lat="47.48858" lon="6.69865">
        <ele>413</ele>
        <time>2015-05-08T08:28:57.000Z</time>
      </trkpt>
      <trkpt lat="47.48852" lon="6.69853">
        <ele>412</ele>
        <time>2015-05-08T08:28:58.000Z</time>
      </trkpt>
      <trkpt lat="47.48845" lon="6.6984">
        <ele>410</ele>
        <time>2015-05-08T08:28:59.000Z</time>
      </trkpt>
      <trkpt lat="47.48838" lon="6.69828">
        <ele>407</ele>
        <time>2015-05-08T08:29:00.000Z</time>
      </trkpt>
      <trkpt lat="47.4883" lon="6.69816">
        <ele>406</ele>
        <time>2015-05-08T08:29:01.000Z</time>
      </trkpt>
      <trkpt lat="47.48824" lon="6.69803">
        <ele>405</ele>
        <time>2015-05-08T08:29:02.000Z</time>
      </trkpt>
      <trkpt lat="47.48818" lon="6.69792">
        <ele>404</ele>
        <time>2015-05-08T08:29:03.000Z</time>
      </trkpt>
      <trkpt lat="47.48811" lon="6.6978">
        <ele>403</ele>
        <time>2015-05-08T08:29:04.000Z</time>
      </trkpt>
      <trkpt lat="47.48805" lon="6.6977">
        <ele>403</ele>
        <time>2015-05-08T08:29:05.000Z</time>
      </trkpt>
      <trkpt lat="47.48797" lon="6.69763">
        <ele>403</ele>
        <time>2015-05-08T08:29:06.000Z</time>
      </trkpt>
      <trkpt lat="47.48795" lon="6.69754">
        <ele>403</ele>
        <time>2015-05-08T08:29:07.000Z</time>
      </trkpt>
      <trkpt lat="47.48788" lon="6.69746">
        <ele>399</ele>
        <time>2015-05-08T08:29:08.000Z</time>
      </trkpt>
      <trkpt lat="47.48781" lon="6.69731">
        <ele>398</ele>
        <time>2015-05-08T08:29:09.000Z</time>
      </trkpt>
      <trkpt lat="47.48776" lon="6.69722">
        <ele>398</ele>
        <time>2015-05-08T08:29:10.000Z</time>
      </trkpt>
      <trkpt lat="47.48768" lon="6.69707">
        <ele>398</ele>
        <time>2015-05-08T08:29:11.000Z</time>
      </trkpt>
      <trkpt lat="47.48758" lon="6.69689">
        <ele>396</ele>
        <time>2015-05-08T08:29:12.000Z</time>
      </trkpt>
      <trkpt lat="47.4875" lon="6.69673">
        <ele>395</ele>
        <time>2015-05-08T08:29:13.000Z</time>
      </trkpt>
      <trkpt lat="47.48744" lon="6.69664">
        <ele>393</ele>
        <time>2015-05-08T08:29:14.000Z</time>
      </trkpt>
      <trkpt lat="47.48737" lon="6.69651">
        <ele>392</ele>
        <time>2015-05-08T08:29:15.000Z</time>
      </trkpt>
      <trkpt lat="47.48729" lon="6.6964">
        <ele>391</ele>
        <time>2015-05-08T08:29:16.000Z</time>
      </trkpt>
      <trkpt lat="47.4872" lon="6.6963">
        <ele>391</ele>
        <time>2015-05-08T08:29:17.000Z</time>
      </trkpt>
      <trkpt lat="47.48714" lon="6.69619">
        <ele>390</ele>
        <time>2015-05-08T08:29:18.000Z</time>
      </trkpt>
      <trkpt lat="47.48709" lon="6.69605">
        <ele>390</ele>
        <time>2015-05-08T08:29:19.000Z</time>
      </trkpt>
      <trkpt lat="47.48704" lon="6.69596">
        <ele>390</ele>
        <time>2015-05-08T08:29:20.000Z</time>
      </trkpt>
      <trkpt lat="47.487" lon="6.69584">
        <ele>390</ele>
        <time>2015-05-08T08:29:21.000Z</time>
      </trkpt>
      <trkpt lat="47.48688" lon="6.69573">
        <ele>386</ele>
        <time>2015-05-08T08:29:22.000Z</time>
      </trkpt>
      <trkpt lat="47.48683" lon="6.69563">
        <ele>385</ele>
        <time>2015-05-08T08:29:23.000Z</time>
      </trkpt>
      <trkpt lat="47.48677" lon="6.69551">
        <ele>385</ele>
        <time>2015-05-08T08:29:24.000Z</time>
      </trkpt>
      <trkpt lat="47.4867" lon="6.69539">
        <ele>384</ele>
        <time>2015-05-08T08:29:25.000Z</time>
      </trkpt>
      <trkpt lat="47.48664" lon="6.69532">
        <ele>384</ele>
        <time>2015-05-08T08:29:26.000Z</time>
      </trkpt>
      <trkpt lat="47.48656" lon="6.69522">
        <ele>383</ele>
        <time>2015-05-08T08:29:27.000Z</time>
      </trkpt>
      <trkpt lat="47.48647" lon="6.69514">
        <ele>383</ele>
        <time>2015-05-08T08:29:28.000Z</time>
      </trkpt>
      <trkpt lat="47.48639" lon="6.6951">
        <ele>383</ele>
        <time>2015-05-08T08:29:29.000Z</time>
      </trkpt>
      <trkpt lat="47.48634" lon="6.69503">
        <ele>383</ele>
        <time>2015-05-08T08:29:30.000Z</time>
      </trkpt>
      <trkpt lat="47.4863" lon="6.69493">
        <ele>380</ele>
        <time>2015-05-08T08:29:31.000Z</time>
      </trkpt>
      <trkpt lat="47.48623" lon="6.69485">
        <ele>380</ele>
        <time>2015-05-08T08:29:32.000Z</time>
      </trkpt>
      <trkpt lat="47.48619" lon="6.69477">
        <ele>380</ele>
        <time>2015-05-08T08:29:33.000Z</time>
      </trkpt>
      <trkpt lat="47.48612" lon="6.69468">
        <ele>379</ele>
        <time>2015-05-08T08:29:34.000Z</time>
      </trkpt>
      <trkpt lat="47.48607" lon="6.69461">
        <ele>379</ele>
        <time>2015-05-08T08:29:35.000Z</time>
      </trkpt>
      <trkpt lat="47.48604" lon="6.69452">
        <ele>379</ele>
        <time>2015-05-08T08:29:36.000Z</time>
      </trkpt>
      <trkpt lat="47.48598" lon="6.69442">
        <ele>379</ele>
        <time>2015-05-08T08:29:37.000Z</time>
      </trkpt>
      <trkpt lat="47.48594" lon="6.69431">
        <ele>379</ele>
        <time>2015-05-08T08:29:38.000Z</time>
      </trkpt>
      <trkpt lat="47.48589" lon="6.69422">
        <ele>378</ele>
        <time>2015-05-08T08:29:39.000Z</time>
      </trkpt>
      <trkpt lat="47.48583" lon="6.69413">
        <ele>377</ele>
        <time>2015-05-08T08:29:40.000Z</time>
      </trkpt>
      <trkpt lat="47.48576" lon="6.69404">
        <ele>376</ele>
        <time>2015-05-08T08:29:41.000Z</time>
      </trkpt>
      <trkpt lat="47.48572" lon="6.69393">
        <ele>376</ele>
        <time>2015-05-08T08:29:42.000Z</time>
      </trkpt>
      <trkpt lat="47.48563" lon="6.69384">
        <ele>375</ele>
        <time>2015-05-08T08:29:43.000Z</time>
      </trkpt>
      <trkpt lat="47.48559" lon="6.69372">
        <ele>374</ele>
        <time>2015-05-08T08:29:44.000Z</time>
      </trkpt>
      <trkpt lat="47.48549" lon="6.69362">
        <ele>374</ele>
        <time>2015-05-08T08:29:45.000Z</time>
      </trkpt>
      <trkpt lat="47.48535" lon="6.69354">
        <ele>374</ele>
        <time>2015-05-08T08:29:46.000Z</time>
      </trkpt>
      <trkpt lat="47.48525" lon="6.69346">
        <ele>373</ele>
        <time>2015-05-08T08:29:47.000Z</time>
      </trkpt>
      <trkpt lat="47.48521" lon="6.69337">
        <ele>373</ele>
        <time>2015-05-08T08:29:48.000Z</time>
      </trkpt>
      <trkpt lat="47.48519" lon="6.69328">
        <ele>370</ele>
        <time>2015-05-08T08:29:49.000Z</time>
      </trkpt>
      <trkpt lat="47.48515" lon="6.69316">
        <ele>369</ele>
        <time>2015-05-08T08:29:50.000Z</time>
      </trkpt>
      <trkpt lat="47.48512" lon="6.69305">
        <ele>369</ele>
        <time>2015-05-08T08:29:51.000Z</time>
      </trkpt>
      <trkpt lat="47.48507" lon="6.69295">
        <ele>368</ele>
        <time>2015-05-08T08:29:52.000Z</time>
      </trkpt>
      <trkpt lat="47.48501" lon="6.69287">
        <ele>368</ele>
        <time>2015-05-08T08:29:53.000Z</time>
      </trkpt>
      <trkpt lat="47.48493" lon="6.69278">
        <ele>368</ele>
        <time>2015-05-08T08:29:54.000Z</time>
      </trkpt>
      <trkpt lat="47.48488" lon="6.6927">
        <ele>368</ele>
        <time>2015-05-08T08:29:55.000Z</time>
      </trkpt>
      <trkpt lat="47.48483" lon="6.69261">
        <ele>368</ele>
        <time>2015-05-08T08:29:56.000Z</time>
      </trkpt>
      <trkpt lat="47.48472" lon="6.69253">
        <ele>368</ele>
        <time>2015-05-08T08:29:57.000Z</time>
      </trkpt>
      <trkpt lat="47.48462" lon="6.69247">
        <ele>368</ele>
        <time>2015-05-08T08:29:58.000Z</time>
      </trkpt>
      <trkpt lat="47.48457" lon="6.69242">
        <ele>368</ele>
        <time>2015-05-08T08:29:59.000Z</time>
      </trkpt>
      <trkpt lat="47.4845" lon="6.69233">
        <ele>369</ele>
        <time>2015-05-08T08:30:00.000Z</time>
      </trkpt>
      <trkpt lat="47.48433" lon="6.69231">
        <ele>369</ele>
        <time>2015-05-08T08:30:01.000Z</time>
      </trkpt>
      <trkpt lat="47.48426" lon="6.69228">
        <ele>370</ele>
        <time>2015-05-08T08:30:02.000Z</time>
      </trkpt>
      <trkpt lat="47.48417" lon="6.69225">
        <ele>370</ele>
        <time>2015-05-08T08:30:03.000Z</time>
      </trkpt>
      <trkpt lat="47.48413" lon="6.69221">
        <ele>370</ele>
        <time>2015-05-08T08:30:04.000Z</time>
      </trkpt>
      <trkpt lat="47.4841" lon="6.69218">
        <ele>370</ele>
        <time>2015-05-08T08:30:05.000Z</time>
      </trkpt>
      <trkpt lat="47.48406" lon="6.69213">
        <ele>370</ele>
        <time>2015-05-08T08:30:06.000Z</time>
      </trkpt>
      <trkpt lat="47.48402" lon="6.69211">
        <ele>370</ele>
        <time>2015-05-08T08:30:07.000Z</time>
      </trkpt>
      <trkpt lat="47.48397" lon="6.69208">
        <ele>370</ele>
        <time>2015-05-08T08:30:08.000Z</time>
      </trkpt>
      <trkpt lat="47.48392" lon="6.69207">
        <ele>369</ele>
        <time>2015-05-08T08:30:09.000Z</time>
      </trkpt>
      <trkpt lat="47.48387" lon="6.69203">
        <ele>369</ele>
        <time>2015-05-08T08:30:10.000Z</time>
      </trkpt>
      <trkpt lat="47.48382" lon="6.69201">
        <ele>369</ele>
        <time>2015-05-08T08:30:11.000Z</time>
      </trkpt>
      <trkpt lat="47.48368" lon="6.69193">
        <ele>369</ele>
        <time>2015-05-08T08:30:13.000Z</time>
      </trkpt>
      <trkpt lat="47.48365" lon="6.69191">
        <ele>369</ele>
        <time>2015-05-08T08:30:14.000Z</time>
      </trkpt>
      <trkpt lat="47.4836" lon="6.6919">
        <ele>368</ele>
        <time>2015-05-08T08:30:15.000Z</time>
      </trkpt>
      <trkpt lat="47.48354" lon="6.69189">
        <ele>368</ele>
        <time>2015-05-08T08:30:16.000Z</time>
      </trkpt>
      <trkpt lat="47.48348" lon="6.6919">
        <ele>368</ele>
        <time>2015-05-08T08:30:17.000Z</time>
      </trkpt>
      <trkpt lat="47.48342" lon="6.69191">
        <ele>368</ele>
        <time>2015-05-08T08:30:18.000Z</time>
      </trkpt>
      <trkpt lat="47.48336" lon="6.69193">
        <ele>368</ele>
        <time>2015-05-08T08:30:19.000Z</time>
      </trkpt>
      <trkpt lat="47.4833" lon="6.69195">
        <ele>363</ele>
        <time>2015-05-08T08:30:20.000Z</time>
      </trkpt>
      <trkpt lat="47.48324" lon="6.69197">
        <ele>363</ele>
        <time>2015-05-08T08:30:21.000Z</time>
      </trkpt>
      <trkpt lat="47.48318" lon="6.692">
        <ele>363</ele>
        <time>2015-05-08T08:30:22.000Z</time>
      </trkpt>
      <trkpt lat="47.48312" lon="6.69202">
        <ele>362</ele>
        <time>2015-05-08T08:30:23.000Z</time>
      </trkpt>
      <trkpt lat="47.48307" lon="6.69203">
        <ele>362</ele>
        <time>2015-05-08T08:30:24.000Z</time>
      </trkpt>
      <trkpt lat="47.48301" lon="6.69203">
        <ele>362</ele>
        <time>2015-05-08T08:30:25.000Z</time>
      </trkpt>
      <trkpt lat="47.48296" lon="6.69202">
        <ele>361</ele>
        <time>2015-05-08T08:30:26.000Z</time>
      </trkpt>
      <trkpt lat="47.4829" lon="6.69202">
        <ele>361</ele>
        <time>2015-05-08T08:30:27.000Z</time>
      </trkpt>
      <trkpt lat="47.48283" lon="6.69201">
        <ele>360</ele>
        <time>2015-05-08T08:30:28.000Z</time>
      </trkpt>
      <trkpt lat="47.48277" lon="6.69199">
        <ele>360</ele>
        <time>2015-05-08T08:30:29.000Z</time>
      </trkpt>
      <trkpt lat="47.48272" lon="6.69197">
        <ele>360</ele>
        <time>2015-05-08T08:30:30.000Z</time>
      </trkpt>
      <trkpt lat="47.48267" lon="6.69193">
        <ele>359</ele>
        <time>2015-05-08T08:30:31.000Z</time>
      </trkpt>
      <trkpt lat="47.48258" lon="6.69189">
        <ele>358</ele>
        <time>2015-05-08T08:30:32.000Z</time>
      </trkpt>
      <trkpt lat="47.48256" lon="6.69183">
        <ele>358</ele>
        <time>2015-05-08T08:30:33.000Z</time>
      </trkpt>
      <trkpt lat="47.48252" lon="6.69179">
        <ele>357</ele>
        <time>2015-05-08T08:30:34.000Z</time>
      </trkpt>
      <trkpt lat="47.48249" lon="6.69172">
        <ele>355</ele>
        <time>2015-05-08T08:30:35.000Z</time>
      </trkpt>
      <trkpt lat="47.48246" lon="6.69166">
        <ele>355</ele>
        <time>2015-05-08T08:30:36.000Z</time>
      </trkpt>
      <trkpt lat="47.48243" lon="6.69162">
        <ele>355</ele>
        <time>2015-05-08T08:30:37.000Z</time>
      </trkpt>
      <trkpt lat="47.48239" lon="6.69158">
        <ele>354</ele>
        <time>2015-05-08T08:30:38.000Z</time>
      </trkpt>
      <trkpt lat="47.48239" lon="6.69153">
        <ele>354</ele>
        <time>2015-05-08T08:30:39.000Z</time>
      </trkpt>
      <trkpt lat="47.48237" lon="6.69149">
        <ele>354</ele>
        <time>2015-05-08T08:30:40.000Z</time>
      </trkpt>
      <trkpt lat="47.48235" lon="6.69145">
        <ele>354</ele>
        <time>2015-05-08T08:30:41.000Z</time>
      </trkpt>
      <trkpt lat="47.48234" lon="6.69141">
        <ele>354</ele>
        <time>2015-05-08T08:30:42.000Z</time>
      </trkpt>
      <trkpt lat="47.48233" lon="6.69137">
        <ele>354</ele>
        <time>2015-05-08T08:30:43.000Z</time>
      </trkpt>
      <trkpt lat="47.48231" lon="6.69133">
        <ele>354</ele>
        <time>2015-05-08T08:30:44.000Z</time>
      </trkpt>
      <trkpt lat="47.48229" lon="6.69129">
        <ele>354</ele>
        <time>2015-05-08T08:30:45.000Z</time>
      </trkpt>
      <trkpt lat="47.48227" lon="6.69126">
        <ele>354</ele>
        <time>2015-05-08T08:30:46.000Z</time>
      </trkpt>
      <trkpt lat="47.48226" lon="6.69122">
        <ele>354</ele>
        <time>2015-05-08T08:30:47.000Z</time>
      </trkpt>
      <trkpt lat="47.48224" lon="6.69119">
        <ele>354</ele>
        <time>2015-05-08T08:30:48.000Z</time>
      </trkpt>
      <trkpt lat="47.48222" lon="6.69115">
        <ele>354</ele>
        <time>2015-05-08T08:30:49.000Z</time>
      </trkpt>
      <trkpt lat="47.4822" lon="6.69111">
        <ele>354</ele>
        <time>2015-05-08T08:30:50.000Z</time>
      </trkpt>
      <trkpt lat="47.48219" lon="6.69106">
        <ele>354</ele>
        <time>2015-05-08T08:30:51.000Z</time>
      </trkpt>
      <trkpt lat="47.48217" lon="6.69101">
        <ele>354</ele>
        <time>2015-05-08T08:30:52.000Z</time>
      </trkpt>
      <trkpt lat="47.48216" lon="6.69096">
        <ele>354</ele>
        <time>2015-05-08T08:30:53.000Z</time>
      </trkpt>
      <trkpt lat="47.48215" lon="6.69092">
        <ele>354</ele>
        <time>2015-05-08T08:30:54.000Z</time>
      </trkpt>
      <trkpt lat="47.48214" lon="6.69087">
        <ele>354</ele>
        <time>2015-05-08T08:34:19.000Z</time>
      </trkpt>
      <trkpt lat="47.48214" lon="6.69084">
        <ele>354</ele>
        <time>2015-05-08T08:34:20.000Z</time>
      </trkpt>
      <trkpt lat="47.48215" lon="6.69079">
        <ele>355</ele>
        <time>2015-05-08T08:34:22.000Z</time>
      </trkpt>
      <trkpt lat="47.48216" lon="6.69077">
        <ele>355</ele>
        <time>2015-05-08T08:34:23.000Z</time>
      </trkpt>
      <trkpt lat="47.4822" lon="6.69073">
        <ele>355</ele>
        <time>2015-05-08T08:34:25.000Z</time>
      </trkpt>
      <trkpt lat="47.48221" lon="6.69071">
        <ele>355</ele>
        <time>2015-05-08T08:34:26.000Z</time>
      </trkpt>
      <trkpt lat="47.48225" lon="6.69069">
        <ele>355</ele>
        <time>2015-05-08T08:34:29.000Z</time>
      </trkpt>
      <trkpt lat="47.48226" lon="6.69069">
        <ele>355</ele>
        <time>2015-05-08T08:34:30.000Z</time>
      </trkpt>
      <trkpt lat="47.48229" lon="6.69068">
        <ele>355</ele>
        <time>2015-05-08T08:34:32.000Z</time>
      </trkpt>
      <trkpt lat="47.48231" lon="6.69067">
        <ele>355</ele>
        <time>2015-05-08T08:34:33.000Z</time>
      </trkpt>
      <trkpt lat="47.48234" lon="6.69065">
        <ele>355</ele>
        <time>2015-05-08T08:34:35.000Z</time>
      </trkpt>
      <trkpt lat="47.48237" lon="6.69063">
        <ele>355</ele>
        <time>2015-05-08T08:34:36.000Z</time>
      </trkpt>
      <trkpt lat="47.48239" lon="6.6906">
        <ele>355</ele>
        <time>2015-05-08T08:34:37.000Z</time>
      </trkpt>
      <trkpt lat="47.48241" lon="6.69058">
        <ele>355</ele>
        <time>2015-05-08T08:34:38.000Z</time>
      </trkpt>
      <trkpt lat="47.48243" lon="6.69055">
        <ele>355</ele>
        <time>2015-05-08T08:34:39.000Z</time>
      </trkpt>
      <trkpt lat="47.48245" lon="6.69054">
        <ele>355</ele>
        <time>2015-05-08T08:34:40.000Z</time>
      </trkpt>
      <trkpt lat="47.48248" lon="6.69052">
        <ele>355</ele>
        <time>2015-05-08T08:34:41.000Z</time>
      </trkpt>
      <trkpt lat="47.4825" lon="6.6905">
        <ele>355</ele>
        <time>2015-05-08T08:34:42.000Z</time>
      </trkpt>
      <trkpt lat="47.48252" lon="6.69048">
        <ele>357</ele>
        <time>2015-05-08T08:34:43.000Z</time>
      </trkpt>
      <trkpt lat="47.48253" lon="6.69045">
        <ele>357</ele>
        <time>2015-05-08T08:34:44.000Z</time>
      </trkpt>
      <trkpt lat="47.48255" lon="6.69041">
        <ele>357</ele>
        <time>2015-05-08T08:34:46.000Z</time>
      </trkpt>
      <trkpt lat="47.48257" lon="6.69039">
        <ele>357</ele>
        <time>2015-05-08T08:34:47.000Z</time>
      </trkpt>
      <trkpt lat="47.48259" lon="6.69036">
        <ele>357</ele>
        <time>2015-05-08T08:34:48.000Z</time>
      </trkpt>
      <trkpt lat="47.48261" lon="6.69035">
        <ele>357</ele>
        <time>2015-05-08T08:34:49.000Z</time>
      </trkpt>
      <trkpt lat="47.48263" lon="6.69033">
        <ele>357</ele>
        <time>2015-05-08T08:34:50.000Z</time>
      </trkpt>
      <trkpt lat="47.48266" lon="6.69032">
        <ele>357</ele>
        <time>2015-05-08T08:34:51.000Z</time>
      </trkpt>
      <trkpt lat="47.48269" lon="6.69031">
        <ele>357</ele>
        <time>2015-05-08T08:34:52.000Z</time>
      </trkpt>
      <trkpt lat="47.48272" lon="6.6903">
        <ele>357</ele>
        <time>2015-05-08T08:34:53.000Z</time>
      </trkpt>
      <trkpt lat="47.48275" lon="6.6903">
        <ele>357</ele>
        <time>2015-05-08T08:34:55.000Z</time>
      </trkpt>
      <trkpt lat="47.48277" lon="6.6903">
        <ele>357</ele>
        <time>2015-05-08T08:34:56.000Z</time>
      </trkpt>
      <trkpt lat="47.48279" lon="6.6903">
        <ele>357</ele>
        <time>2015-05-08T08:34:57.000Z</time>
      </trkpt>
      <trkpt lat="47.48282" lon="6.69031">
        <ele>357</ele>
        <time>2015-05-08T08:34:58.000Z</time>
      </trkpt>
      <trkpt lat="47.48285" lon="6.69031">
        <ele>357</ele>
        <time>2015-05-08T08:34:59.000Z</time>
      </trkpt>
      <trkpt lat="47.48287" lon="6.6903">
        <ele>357</ele>
        <time>2015-05-08T08:35:00.000Z</time>
      </trkpt>
      <trkpt lat="47.4829" lon="6.6903">
        <ele>357</ele>
        <time>2015-05-08T08:35:01.000Z</time>
      </trkpt>
      <trkpt lat="47.48293" lon="6.69028">
        <ele>357</ele>
        <time>2015-05-08T08:35:02.000Z</time>
      </trkpt>
      <trkpt lat="47.48297" lon="6.69027">
        <ele>357</ele>
        <time>2015-05-08T08:35:03.000Z</time>
      </trkpt>
      <trkpt lat="47.483" lon="6.69025">
        <ele>357</ele>
        <time>2015-05-08T08:35:04.000Z</time>
      </trkpt>
      <trkpt lat="47.48303" lon="6.69024">
        <ele>357</ele>
        <time>2015-05-08T08:35:05.000Z</time>
      </trkpt>
      <trkpt lat="47.48306" lon="6.69023">
        <ele>357</ele>
        <time>2015-05-08T08:35:06.000Z</time>
      </trkpt>
      <trkpt lat="47.48309" lon="6.69023">
        <ele>357</ele>
        <time>2015-05-08T08:35:07.000Z</time>
      </trkpt>
      <trkpt lat="47.48312" lon="6.69022">
        <ele>357</ele>
        <time>2015-05-08T08:35:08.000Z</time>
      </trkpt>
      <trkpt lat="47.48315" lon="6.69022">
        <ele>357</ele>
        <time>2015-05-08T08:35:09.000Z</time>
      </trkpt>
      <trkpt lat="47.48318" lon="6.69021">
        <ele>357</ele>
        <time>2015-05-08T08:35:10.000Z</time>
      </trkpt>
      <trkpt lat="47.48321" lon="6.69021">
        <ele>357</ele>
        <time>2015-05-08T08:35:11.000Z</time>
      </trkpt>
      <trkpt lat="47.48324" lon="6.69022">
        <ele>357</ele>
        <time>2015-05-08T08:35:12.000Z</time>
      </trkpt>
      <trkpt lat="47.48328" lon="6.69022">
        <ele>357</ele>
        <time>2015-05-08T08:35:13.000Z</time>
      </trkpt>
      <trkpt lat="47.4833" lon="6.69021">
        <ele>357</ele>
        <time>2015-05-08T08:35:14.000Z</time>
      </trkpt>
      <trkpt lat="47.48333" lon="6.69022">
        <ele>357</ele>
        <time>2015-05-08T08:35:15.000Z</time>
      </trkpt>
      <trkpt lat="47.48337" lon="6.69022">
        <ele>359</ele>
        <time>2015-05-08T08:35:16.000Z</time>
      </trkpt>
      <trkpt lat="47.4834" lon="6.69022">
        <ele>359</ele>
        <time>2015-05-08T08:35:17.000Z</time>
      </trkpt>
      <trkpt lat="47.48342" lon="6.69022">
        <ele>359</ele>
        <time>2015-05-08T08:35:18.000Z</time>
      </trkpt>
      <trkpt lat="47.48345" lon="6.69021">
        <ele>359</ele>
        <time>2015-05-08T08:35:19.000Z</time>
      </trkpt>
      <trkpt lat="47.48348" lon="6.69021">
        <ele>359</ele>
        <time>2015-05-08T08:35:20.000Z</time>
      </trkpt>
      <trkpt lat="47.4835" lon="6.69019">
        <ele>359</ele>
        <time>2015-05-08T08:35:21.000Z</time>
      </trkpt>
      <trkpt lat="47.48352" lon="6.69018">
        <ele>359</ele>
        <time>2015-05-08T08:35:22.000Z</time>
      </trkpt>
      <trkpt lat="47.48355" lon="6.69017">
        <ele>359</ele>
        <time>2015-05-08T08:35:23.000Z</time>
      </trkpt>
      <trkpt lat="47.48357" lon="6.69016">
        <ele>359</ele>
        <time>2015-05-08T08:35:24.000Z</time>
      </trkpt>
      <trkpt lat="47.4836" lon="6.69015">
        <ele>360</ele>
        <time>2015-05-08T08:35:25.000Z</time>
      </trkpt>
      <trkpt lat="47.48363" lon="6.69013">
        <ele>360</ele>
        <time>2015-05-08T08:35:26.000Z</time>
      </trkpt>
      <trkpt lat="47.48366" lon="6.69011">
        <ele>360</ele>
        <time>2015-05-08T08:35:27.000Z</time>
      </trkpt>
      <trkpt lat="47.48369" lon="6.69009">
        <ele>360</ele>
        <time>2015-05-08T08:35:28.000Z</time>
      </trkpt>
      <trkpt lat="47.48372" lon="6.69007">
        <ele>360</ele>
        <time>2015-05-08T08:35:30.000Z</time>
      </trkpt>
      <trkpt lat="47.48374" lon="6.69006">
        <ele>360</ele>
        <time>2015-05-08T08:35:31.000Z</time>
      </trkpt>
      <trkpt lat="47.48378" lon="6.69003">
        <ele>360</ele>
        <time>2015-05-08T08:35:33.000Z</time>
      </trkpt>
      <trkpt lat="47.4838" lon="6.69001">
        <ele>360</ele>
        <time>2015-05-08T08:35:34.000Z</time>
      </trkpt>
      <trkpt lat="47.48382" lon="6.68999">
        <ele>356</ele>
        <time>2015-05-08T08:35:35.000Z</time>
      </trkpt>
      <trkpt lat="47.48383" lon="6.68997">
        <ele>356</ele>
        <time>2015-05-08T08:35:36.000Z</time>
      </trkpt>
      <trkpt lat="47.48385" lon="6.68994">
        <ele>356</ele>
        <time>2015-05-08T08:35:37.000Z</time>
      </trkpt>
      <trkpt lat="47.48387" lon="6.68991">
        <ele>356</ele>
        <time>2015-05-08T08:35:38.000Z</time>
      </trkpt>
      <trkpt lat="47.48389" lon="6.68987">
        <ele>356</ele>
        <time>2015-05-08T08:35:39.000Z</time>
      </trkpt>
      <trkpt lat="47.48392" lon="6.68983">
        <ele>356</ele>
        <time>2015-05-08T08:35:40.000Z</time>
      </trkpt>
      <trkpt lat="47.48394" lon="6.68979">
        <ele>356</ele>
        <time>2015-05-08T08:35:41.000Z</time>
      </trkpt>
      <trkpt lat="47.48395" lon="6.68976">
        <ele>356</ele>
        <time>2015-05-08T08:35:42.000Z</time>
      </trkpt>
      <trkpt lat="47.48397" lon="6.68973">
        <ele>356</ele>
        <time>2015-05-08T08:35:43.000Z</time>
      </trkpt>
      <trkpt lat="47.48399" lon="6.68971">
        <ele>356</ele>
        <time>2015-05-08T08:35:44.000Z</time>
      </trkpt>
      <trkpt lat="47.48402" lon="6.68968">
        <ele>355</ele>
        <time>2015-05-08T08:35:45.000Z</time>
      </trkpt>
      <trkpt lat="47.48403" lon="6.68965">
        <ele>355</ele>
        <time>2015-05-08T08:35:46.000Z</time>
      </trkpt>
      <trkpt lat="47.48405" lon="6.6896">
        <ele>355</ele>
        <time>2015-05-08T08:35:57.000Z</time>
      </trkpt>
      <trkpt lat="47.48405" lon="6.68959">
        <ele>355</ele>
        <time>2015-05-08T08:35:58.000Z</time>
      </trkpt>
      <trkpt lat="47.48408" lon="6.68954">
        <ele>355</ele>
        <time>2015-05-08T08:36:22.000Z</time>
      </trkpt>
      <trkpt lat="47.48408" lon="6.68954">
        <ele>355</ele>
        <time>2015-05-08T08:36:23.000Z</time>
      </trkpt>
      <trkpt lat="47.4841" lon="6.68949">
        <ele>354</ele>
        <time>2015-05-08T08:36:51.000Z</time>
      </trkpt>
      <trkpt lat="47.48411" lon="6.68946">
        <ele>354</ele>
        <time>2015-05-08T08:36:52.000Z</time>
      </trkpt>
      <trkpt lat="47.48413" lon="6.68942">
        <ele>354</ele>
        <time>2015-05-08T08:36:54.000Z</time>
      </trkpt>
      <trkpt lat="47.48415" lon="6.68939">
        <ele>354</ele>
        <time>2015-05-08T08:36:55.000Z</time>
      </trkpt>
      <trkpt lat="47.48416" lon="6.68937">
        <ele>353</ele>
        <time>2015-05-08T08:36:56.000Z</time>
      </trkpt>
      <trkpt lat="47.48418" lon="6.68933">
        <ele>354</ele>
        <time>2015-05-08T08:36:57.000Z</time>
      </trkpt>
      <trkpt lat="47.4842" lon="6.6893">
        <ele>354</ele>
        <time>2015-05-08T08:36:58.000Z</time>
      </trkpt>
      <trkpt lat="47.48422" lon="6.68927">
        <ele>353</ele>
        <time>2015-05-08T08:36:59.000Z</time>
      </trkpt>
      <trkpt lat="47.48424" lon="6.68921">
        <ele>353</ele>
        <time>2015-05-08T08:37:00.000Z</time>
      </trkpt>
      <trkpt lat="47.48425" lon="6.68915">
        <ele>352</ele>
        <time>2015-05-08T08:37:01.000Z</time>
      </trkpt>
      <trkpt lat="47.48427" lon="6.68911">
        <ele>351</ele>
        <time>2015-05-08T08:37:02.000Z</time>
      </trkpt>
      <trkpt lat="47.48429" lon="6.68902">
        <ele>351</ele>
        <time>2015-05-08T08:37:03.000Z</time>
      </trkpt>
      <trkpt lat="47.48431" lon="6.68896">
        <ele>351</ele>
        <time>2015-05-08T08:37:04.000Z</time>
      </trkpt>
      <trkpt lat="47.48433" lon="6.68891">
        <ele>351</ele>
        <time>2015-05-08T08:37:05.000Z</time>
      </trkpt>
      <trkpt lat="47.48435" lon="6.68885">
        <ele>351</ele>
        <time>2015-05-08T08:37:06.000Z</time>
      </trkpt>
      <trkpt lat="47.48437" lon="6.68879">
        <ele>351</ele>
        <time>2015-05-08T08:37:07.000Z</time>
      </trkpt>
      <trkpt lat="47.4844" lon="6.68872">
        <ele>351</ele>
        <time>2015-05-08T08:37:08.000Z</time>
      </trkpt>
      <trkpt lat="47.48446" lon="6.68853">
        <ele>350</ele>
        <time>2015-05-08T08:37:09.000Z</time>
      </trkpt>
      <trkpt lat="47.4845" lon="6.68844">
        <ele>350</ele>
        <time>2015-05-08T08:37:10.000Z</time>
      </trkpt>
      <trkpt lat="47.48452" lon="6.6883">
        <ele>348</ele>
        <time>2015-05-08T08:37:11.000Z</time>
      </trkpt>
      <trkpt lat="47.48453" lon="6.68817">
        <ele>348</ele>
        <time>2015-05-08T08:37:12.000Z</time>
      </trkpt>
      <trkpt lat="47.48457" lon="6.68807">
        <ele>347</ele>
        <time>2015-05-08T08:37:13.000Z</time>
      </trkpt>
      <trkpt lat="47.48461" lon="6.68797">
        <ele>347</ele>
        <time>2015-05-08T08:37:14.000Z</time>
      </trkpt>
      <trkpt lat="47.48464" lon="6.6879">
        <ele>347</ele>
        <time>2015-05-08T08:37:15.000Z</time>
      </trkpt>
      <trkpt lat="47.48467" lon="6.68783">
        <ele>347</ele>
        <time>2015-05-08T08:37:16.000Z</time>
      </trkpt>
      <trkpt lat="47.48471" lon="6.68777">
        <ele>346</ele>
        <time>2015-05-08T08:37:17.000Z</time>
      </trkpt>
      <trkpt lat="47.48475" lon="6.68774">
        <ele>346</ele>
        <time>2015-05-08T08:37:18.000Z</time>
      </trkpt>
      <trkpt lat="47.48479" lon="6.68773">
        <ele>346</ele>
        <time>2015-05-08T08:37:19.000Z</time>
      </trkpt>
      <trkpt lat="47.48483" lon="6.68772">
        <ele>346</ele>
        <time>2015-05-08T08:37:20.000Z</time>
      </trkpt>
      <trkpt lat="47.48487" lon="6.68771">
        <ele>346</ele>
        <time>2015-05-08T08:37:21.000Z</time>
      </trkpt>
      <trkpt lat="47.4849" lon="6.68766">
        <ele>346</ele>
        <time>2015-05-08T08:37:22.000Z</time>
      </trkpt>
      <trkpt lat="47.48496" lon="6.68756">
        <ele>345</ele>
        <time>2015-05-08T08:37:23.000Z</time>
      </trkpt>
      <trkpt lat="47.48502" lon="6.68745">
        <ele>344</ele>
        <time>2015-05-08T08:37:24.000Z</time>
      </trkpt>
      <trkpt lat="47.48505" lon="6.68736">
        <ele>343</ele>
        <time>2015-05-08T08:37:25.000Z</time>
      </trkpt>
      <trkpt lat="47.4851" lon="6.68728">
        <ele>343</ele>
        <time>2015-05-08T08:37:26.000Z</time>
      </trkpt>
      <trkpt lat="47.48512" lon="6.68721">
        <ele>342</ele>
        <time>2015-05-08T08:37:27.000Z</time>
      </trkpt>
      <trkpt lat="47.48513" lon="6.68714">
        <ele>342</ele>
        <time>2015-05-08T08:37:28.000Z</time>
      </trkpt>
      <trkpt lat="47.48514" lon="6.68705">
        <ele>342</ele>
        <time>2015-05-08T08:37:29.000Z</time>
      </trkpt>
      <trkpt lat="47.48515" lon="6.687">
        <ele>341</ele>
        <time>2015-05-08T08:37:30.000Z</time>
      </trkpt>
      <trkpt lat="47.48516" lon="6.68698">
        <ele>341</ele>
        <time>2015-05-08T08:37:31.000Z</time>
      </trkpt>
      <trkpt lat="47.48519" lon="6.68697">
        <ele>341</ele>
        <time>2015-05-08T08:37:32.000Z</time>
      </trkpt>
      <trkpt lat="47.48531" lon="6.68695">
        <ele>342</ele>
        <time>2015-05-08T08:37:33.000Z</time>
      </trkpt>
      <trkpt lat="47.48536" lon="6.68693">
        <ele>342</ele>
        <time>2015-05-08T08:37:34.000Z</time>
      </trkpt>
      <trkpt lat="47.48539" lon="6.68692">
        <ele>342</ele>
        <time>2015-05-08T08:37:35.000Z</time>
      </trkpt>
      <trkpt lat="47.48544" lon="6.68693">
        <ele>342</ele>
        <time>2015-05-08T08:37:36.000Z</time>
      </trkpt>
      <trkpt lat="47.48549" lon="6.68693">
        <ele>342</ele>
        <time>2015-05-08T08:37:37.000Z</time>
      </trkpt>
      <trkpt lat="47.48553" lon="6.6869">
        <ele>342</ele>
        <time>2015-05-08T08:37:38.000Z</time>
      </trkpt>
      <trkpt lat="47.48555" lon="6.68687">
        <ele>342</ele>
        <time>2015-05-08T08:37:39.000Z</time>
      </trkpt>
      <trkpt lat="47.48557" lon="6.68684">
        <ele>342</ele>
        <time>2015-05-08T08:37:40.000Z</time>
      </trkpt>
      <trkpt lat="47.48559" lon="6.6868">
        <ele>342</ele>
        <time>2015-05-08T08:37:41.000Z</time>
      </trkpt>
      <trkpt lat="47.48561" lon="6.68679">
        <ele>342</ele>
        <time>2015-05-08T08:37:42.000Z</time>
      </trkpt>
      <trkpt lat="47.48562" lon="6.68673">
        <ele>342</ele>
        <time>2015-05-08T08:37:45.000Z</time>
      </trkpt>
      <trkpt lat="47.48562" lon="6.6867">
        <ele>342</ele>
        <time>2015-05-08T08:37:46.000Z</time>
      </trkpt>
      <trkpt lat="47.48564" lon="6.68665">
        <ele>342</ele>
        <time>2015-05-08T08:37:48.000Z</time>
      </trkpt>
      <trkpt lat="47.48564" lon="6.68664">
        <ele>342</ele>
        <time>2015-05-08T08:37:49.000Z</time>
      </trkpt>
      <trkpt lat="47.48568" lon="6.6866">
        <ele>343</ele>
        <time>2015-05-08T08:37:55.000Z</time>
      </trkpt>
      <trkpt lat="47.48569" lon="6.6866">
        <ele>343</ele>
        <time>2015-05-08T08:37:56.000Z</time>
      </trkpt>
      <trkpt lat="47.48572" lon="6.68655">
        <ele>343</ele>
        <time>2015-05-08T08:38:01.000Z</time>
      </trkpt>
      <trkpt lat="47.48573" lon="6.68654">
        <ele>343</ele>
        <time>2015-05-08T08:38:02.000Z</time>
      </trkpt>
      <trkpt lat="47.48575" lon="6.68652">
        <ele>343</ele>
        <time>2015-05-08T08:38:04.000Z</time>
      </trkpt>
      <trkpt lat="47.48577" lon="6.6865">
        <ele>343</ele>
        <time>2015-05-08T08:38:05.000Z</time>
      </trkpt>
      <trkpt lat="47.48579" lon="6.68647">
        <ele>343</ele>
        <time>2015-05-08T08:38:07.000Z</time>
      </trkpt>
      <trkpt lat="47.4858" lon="6.68646">
        <ele>343</ele>
        <time>2015-05-08T08:38:08.000Z</time>
      </trkpt>
      <trkpt lat="47.48583" lon="6.68641">
        <ele>343</ele>
        <time>2015-05-08T08:38:11.000Z</time>
      </trkpt>
      <trkpt lat="47.48584" lon="6.68639">
        <ele>345</ele>
        <time>2015-05-08T08:38:12.000Z</time>
      </trkpt>
      <trkpt lat="47.48586" lon="6.68634">
        <ele>345</ele>
        <time>2015-05-08T08:38:14.000Z</time>
      </trkpt>
      <trkpt lat="47.48587" lon="6.68631">
        <ele>345</ele>
        <time>2015-05-08T08:38:15.000Z</time>
      </trkpt>
      <trkpt lat="47.48589" lon="6.68628">
        <ele>346</ele>
        <time>2015-05-08T08:38:16.000Z</time>
      </trkpt>
      <trkpt lat="47.4859" lon="6.68626">
        <ele>346</ele>
        <time>2015-05-08T08:38:17.000Z</time>
      </trkpt>
      <trkpt lat="47.48592" lon="6.6862">
        <ele>346</ele>
        <time>2015-05-08T08:38:20.000Z</time>
      </trkpt>
      <trkpt lat="47.48592" lon="6.68617">
        <ele>346</ele>
        <time>2015-05-08T08:38:21.000Z</time>
      </trkpt>
      <trkpt lat="47.48593" lon="6.68613">
        <ele>346</ele>
        <time>2015-05-08T08:38:23.000Z</time>
      </trkpt>
      <trkpt lat="47.48593" lon="6.68611">
        <ele>346</ele>
        <time>2015-05-08T08:38:24.000Z</time>
      </trkpt>
      <trkpt lat="47.48592" lon="6.68605">
        <ele>346</ele>
        <time>2015-05-08T08:38:26.000Z</time>
      </trkpt>
      <trkpt lat="47.48591" lon="6.68602">
        <ele>346</ele>
        <time>2015-05-08T08:38:27.000Z</time>
      </trkpt>
      <trkpt lat="47.48589" lon="6.68596">
        <ele>346</ele>
        <time>2015-05-08T08:38:29.000Z</time>
      </trkpt>
      <trkpt lat="47.48589" lon="6.68593">
        <ele>346</ele>
        <time>2015-05-08T08:38:30.000Z</time>
      </trkpt>
      <trkpt lat="47.48589" lon="6.68587">
        <ele>346</ele>
        <time>2015-05-08T08:38:32.000Z</time>
      </trkpt>
      <trkpt lat="47.48589" lon="6.68584">
        <ele>346</ele>
        <time>2015-05-08T08:38:33.000Z</time>
      </trkpt>
      <trkpt lat="47.48589" lon="6.68581">
        <ele>346</ele>
        <time>2015-05-08T08:38:34.000Z</time>
      </trkpt>
      <trkpt lat="47.4859" lon="6.68578">
        <ele>347</ele>
        <time>2015-05-08T08:38:35.000Z</time>
      </trkpt>
      <trkpt lat="47.4859" lon="6.68571">
        <ele>347</ele>
        <time>2015-05-08T08:38:37.000Z</time>
      </trkpt>
      <trkpt lat="47.4859" lon="6.68569">
        <ele>347</ele>
        <time>2015-05-08T08:38:38.000Z</time>
      </trkpt>
      <trkpt lat="47.4859" lon="6.68565">
        <ele>347</ele>
        <time>2015-05-08T08:38:40.000Z</time>
      </trkpt>
      <trkpt lat="47.4859" lon="6.68562">
        <ele>347</ele>
        <time>2015-05-08T08:38:41.000Z</time>
      </trkpt>
      <trkpt lat="47.48591" lon="6.68559">
        <ele>347</ele>
        <time>2015-05-08T08:38:42.000Z</time>
      </trkpt>
      <trkpt lat="47.48591" lon="6.68555">
        <ele>347</ele>
        <time>2015-05-08T08:38:43.000Z</time>
      </trkpt>
      <trkpt lat="47.48592" lon="6.68551">
        <ele>348</ele>
        <time>2015-05-08T08:38:44.000Z</time>
      </trkpt>
      <trkpt lat="47.48592" lon="6.68547">
        <ele>348</ele>
        <time>2015-05-08T08:38:45.000Z</time>
      </trkpt>
      <trkpt lat="47.48594" lon="6.68541">
        <ele>348</ele>
        <time>2015-05-08T08:38:47.000Z</time>
      </trkpt>
      <trkpt lat="47.48594" lon="6.68539">
        <ele>348</ele>
        <time>2015-05-08T08:38:48.000Z</time>
      </trkpt>
      <trkpt lat="47.48594" lon="6.68535">
        <ele>348</ele>
        <time>2015-05-08T08:38:49.000Z</time>
      </trkpt>
      <trkpt lat="47.48595" lon="6.68532">
        <ele>348</ele>
        <time>2015-05-08T08:38:50.000Z</time>
      </trkpt>
      <trkpt lat="47.48595" lon="6.68526">
        <ele>348</ele>
        <time>2015-05-08T08:38:52.000Z</time>
      </trkpt>
      <trkpt lat="47.48596" lon="6.68525">
        <ele>348</ele>
        <time>2015-05-08T08:38:53.000Z</time>
      </trkpt>
      <trkpt lat="47.48596" lon="6.6852">
        <ele>348</ele>
        <time>2015-05-08T08:38:55.000Z</time>
      </trkpt>
      <trkpt lat="47.48596" lon="6.68517">
        <ele>348</ele>
        <time>2015-05-08T08:38:56.000Z</time>
      </trkpt>
      <trkpt lat="47.48595" lon="6.68511">
        <ele>348</ele>
        <time>2015-05-08T08:38:58.000Z</time>
      </trkpt>
      <trkpt lat="47.48594" lon="6.68508">
        <ele>349</ele>
        <time>2015-05-08T08:38:59.000Z</time>
      </trkpt>
      <trkpt lat="47.48595" lon="6.68504">
        <ele>349</ele>
        <time>2015-05-08T08:39:01.000Z</time>
      </trkpt>
      <trkpt lat="47.48596" lon="6.68502">
        <ele>349</ele>
        <time>2015-05-08T08:39:02.000Z</time>
      </trkpt>
      <trkpt lat="47.48596" lon="6.68496">
        <ele>349</ele>
        <time>2015-05-08T08:39:05.000Z</time>
      </trkpt>
      <trkpt lat="47.48594" lon="6.68493">
        <ele>349</ele>
        <time>2015-05-08T08:39:06.000Z</time>
      </trkpt>
      <trkpt lat="47.48593" lon="6.68489">
        <ele>349</ele>
        <time>2015-05-08T08:39:07.000Z</time>
      </trkpt>
      <trkpt lat="47.48593" lon="6.68486">
        <ele>348</ele>
        <time>2015-05-08T08:39:08.000Z</time>
      </trkpt>
      <trkpt lat="47.48592" lon="6.68482">
        <ele>348</ele>
        <time>2015-05-08T08:39:09.000Z</time>
      </trkpt>
      <trkpt lat="47.48592" lon="6.68478">
        <ele>348</ele>
        <time>2015-05-08T08:39:10.000Z</time>
      </trkpt>
      <trkpt lat="47.48592" lon="6.68474">
        <ele>348</ele>
        <time>2015-05-08T08:39:11.000Z</time>
      </trkpt>
      <trkpt lat="47.48592" lon="6.68471">
        <ele>348</ele>
        <time>2015-05-08T08:39:12.000Z</time>
      </trkpt>
      <trkpt lat="47.48593" lon="6.68465">
        <ele>348</ele>
        <time>2015-05-08T08:39:14.000Z</time>
      </trkpt>
      <trkpt lat="47.48594" lon="6.68462">
        <ele>348</ele>
        <time>2015-05-08T08:39:15.000Z</time>
      </trkpt>
      <trkpt lat="47.48595" lon="6.68458">
        <ele>348</ele>
        <time>2015-05-08T08:39:16.000Z</time>
      </trkpt>
      <trkpt lat="47.48596" lon="6.68455">
        <ele>348</ele>
        <time>2015-05-08T08:39:17.000Z</time>
      </trkpt>
      <trkpt lat="47.48597" lon="6.68449">
        <ele>348</ele>
        <time>2015-05-08T08:39:19.000Z</time>
      </trkpt>
      <trkpt lat="47.48598" lon="6.68445">
        <ele>348</ele>
        <time>2015-05-08T08:39:20.000Z</time>
      </trkpt>
      <trkpt lat="47.48599" lon="6.68439">
        <ele>347</ele>
        <time>2015-05-08T08:39:22.000Z</time>
      </trkpt>
      <trkpt lat="47.48599" lon="6.68436">
        <ele>347</ele>
        <time>2015-05-08T08:39:23.000Z</time>
      </trkpt>
      <trkpt lat="47.48598" lon="6.68431">
        <ele>347</ele>
        <time>2015-05-08T08:39:25.000Z</time>
      </trkpt>
      <trkpt lat="47.48596" lon="6.68429">
        <ele>347</ele>
        <time>2015-05-08T08:39:26.000Z</time>
      </trkpt>
      <trkpt lat="47.48594" lon="6.68428">
        <ele>347</ele>
        <time>2015-05-08T08:39:27.000Z</time>
      </trkpt>
      <trkpt lat="47.48591" lon="6.68426">
        <ele>347</ele>
        <time>2015-05-08T08:39:28.000Z</time>
      </trkpt>
      <trkpt lat="47.48588" lon="6.68425">
        <ele>347</ele>
        <time>2015-05-08T08:39:29.000Z</time>
      </trkpt>
      <trkpt lat="47.48586" lon="6.68423">
        <ele>346</ele>
        <time>2015-05-08T08:39:30.000Z</time>
      </trkpt>
      <trkpt lat="47.48583" lon="6.68421">
        <ele>346</ele>
        <time>2015-05-08T08:39:31.000Z</time>
      </trkpt>
      <trkpt lat="47.4858" lon="6.6842">
        <ele>346</ele>
        <time>2015-05-08T08:39:32.000Z</time>
      </trkpt>
      <trkpt lat="47.48577" lon="6.68419">
        <ele>347</ele>
        <time>2015-05-08T08:39:33.000Z</time>
      </trkpt>
      <trkpt lat="47.48574" lon="6.68418">
        <ele>347</ele>
        <time>2015-05-08T08:39:34.000Z</time>
      </trkpt>
      <trkpt lat="47.48572" lon="6.68417">
        <ele>346</ele>
        <time>2015-05-08T08:39:35.000Z</time>
      </trkpt>
      <trkpt lat="47.48569" lon="6.68415">
        <ele>347</ele>
        <time>2015-05-08T08:39:36.000Z</time>
      </trkpt>
      <trkpt lat="47.48566" lon="6.68412">
        <ele>347</ele>
        <time>2015-05-08T08:39:37.000Z</time>
      </trkpt>
      <trkpt lat="47.48563" lon="6.6841">
        <ele>347</ele>
        <time>2015-05-08T08:39:38.000Z</time>
      </trkpt>
      <trkpt lat="47.4856" lon="6.68408">
        <ele>347</ele>
        <time>2015-05-08T08:39:39.000Z</time>
      </trkpt>
      <trkpt lat="47.48558" lon="6.68406">
        <ele>347</ele>
        <time>2015-05-08T08:39:40.000Z</time>
      </trkpt>
      <trkpt lat="47.48556" lon="6.68404">
        <ele>347</ele>
        <time>2015-05-08T08:39:41.000Z</time>
      </trkpt>
      <trkpt lat="47.48553" lon="6.68402">
        <ele>347</ele>
        <time>2015-05-08T08:39:42.000Z</time>
      </trkpt>
      <trkpt lat="47.4855" lon="6.684">
        <ele>347</ele>
        <time>2015-05-08T08:39:43.000Z</time>
      </trkpt>
      <trkpt lat="47.48547" lon="6.68399">
        <ele>347</ele>
        <time>2015-05-08T08:39:44.000Z</time>
      </trkpt>
      <trkpt lat="47.48545" lon="6.68397">
        <ele>347</ele>
        <time>2015-05-08T08:39:45.000Z</time>
      </trkpt>
      <trkpt lat="47.48542" lon="6.68394">
        <ele>347</ele>
        <time>2015-05-08T08:39:46.000Z</time>
      </trkpt>
      <trkpt lat="47.4854" lon="6.68392">
        <ele>347</ele>
        <time>2015-05-08T08:39:47.000Z</time>
      </trkpt>
      <trkpt lat="47.48538" lon="6.6839">
        <ele>347</ele>
        <time>2015-05-08T08:39:48.000Z</time>
      </trkpt>
      <trkpt lat="47.48536" lon="6.68388">
        <ele>347</ele>
        <time>2015-05-08T08:39:49.000Z</time>
      </trkpt>
      <trkpt lat="47.48533" lon="6.68386">
        <ele>347</ele>
        <time>2015-05-08T08:39:50.000Z</time>
      </trkpt>
      <trkpt lat="47.48531" lon="6.68384">
        <ele>348</ele>
        <time>2015-05-08T08:39:51.000Z</time>
      </trkpt>
      <trkpt lat="47.48529" lon="6.68382">
        <ele>348</ele>
        <time>2015-05-08T08:39:52.000Z</time>
      </trkpt>
      <trkpt lat="47.48527" lon="6.6838">
        <ele>348</ele>
        <time>2015-05-08T08:39:53.000Z</time>
      </trkpt>
      <trkpt lat="47.48524" lon="6.68379">
        <ele>348</ele>
        <time>2015-05-08T08:39:54.000Z</time>
      </trkpt>
      <trkpt lat="47.48521" lon="6.68377">
        <ele>348</ele>
        <time>2015-05-08T08:39:55.000Z</time>
      </trkpt>
      <trkpt lat="47.48518" lon="6.68375">
        <ele>348</ele>
        <time>2015-05-08T08:39:56.000Z</time>
      </trkpt>
      <trkpt lat="47.48515" lon="6.6837">
        <ele>348</ele>
        <time>2015-05-08T08:39:59.000Z</time>
      </trkpt>
      <trkpt lat="47.48515" lon="6.68368">
        <ele>348</ele>
        <time>2015-05-08T08:40:00.000Z</time>
      </trkpt>
      <trkpt lat="47.48513" lon="6.68364">
        <ele>348</ele>
        <time>2015-05-08T08:40:03.000Z</time>
      </trkpt>
      <trkpt lat="47.48512" lon="6.68363">
        <ele>348</ele>
        <time>2015-05-08T08:40:04.000Z</time>
      </trkpt>
      <trkpt lat="47.48509" lon="6.68362">
        <ele>348</ele>
        <time>2015-05-08T08:40:06.000Z</time>
      </trkpt>
      <trkpt lat="47.48507" lon="6.68363">
        <ele>348</ele>
        <time>2015-05-08T08:40:07.000Z</time>
      </trkpt>
      <trkpt lat="47.48503" lon="6.68363">
        <ele>348</ele>
        <time>2015-05-08T08:40:09.000Z</time>
      </trkpt>
      <trkpt lat="47.48502" lon="6.68363">
        <ele>348</ele>
        <time>2015-05-08T08:40:10.000Z</time>
      </trkpt>
      <trkpt lat="47.48498" lon="6.68364">
        <ele>359</ele>
        <time>2015-05-08T08:40:13.000Z</time>
      </trkpt>
      <trkpt lat="47.48496" lon="6.68365">
        <ele>359</ele>
        <time>2015-05-08T08:40:14.000Z</time>
      </trkpt>
      <trkpt lat="47.48493" lon="6.68368">
        <ele>359</ele>
        <time>2015-05-08T08:40:16.000Z</time>
      </trkpt>
      <trkpt lat="47.48492" lon="6.68368">
        <ele>359</ele>
        <time>2015-05-08T08:40:17.000Z</time>
      </trkpt>
      <trkpt lat="47.48488" lon="6.6837">
        <ele>360</ele>
        <time>2015-05-08T08:40:20.000Z</time>
      </trkpt>
      <trkpt lat="47.48487" lon="6.68371">
        <ele>360</ele>
        <time>2015-05-08T08:40:21.000Z</time>
      </trkpt>
      <trkpt lat="47.48483" lon="6.68374">
        <ele>360</ele>
        <time>2015-05-08T08:40:28.000Z</time>
      </trkpt>
      <trkpt lat="47.48483" lon="6.68374">
        <ele>361</ele>
        <time>2015-05-08T08:40:29.000Z</time>
      </trkpt>
      <trkpt lat="47.48479" lon="6.68378">
        <ele>361</ele>
        <time>2015-05-08T08:40:33.000Z</time>
      </trkpt>
      <trkpt lat="47.48479" lon="6.68379">
        <ele>361</ele>
        <time>2015-05-08T08:40:34.000Z</time>
      </trkpt>
      <trkpt lat="47.48476" lon="6.68383">
        <ele>361</ele>
        <time>2015-05-08T08:40:38.000Z</time>
      </trkpt>
      <trkpt lat="47.48475" lon="6.68384">
        <ele>361</ele>
        <time>2015-05-08T08:40:39.000Z</time>
      </trkpt>
      <trkpt lat="47.48473" lon="6.68389">
        <ele>361</ele>
        <time>2015-05-08T08:40:42.000Z</time>
      </trkpt>
      <trkpt lat="47.48472" lon="6.6839">
        <ele>361</ele>
        <time>2015-05-08T08:40:43.000Z</time>
      </trkpt>
      <trkpt lat="47.4847" lon="6.68396">
        <ele>361</ele>
        <time>2015-05-08T08:40:50.000Z</time>
      </trkpt>
      <trkpt lat="47.48469" lon="6.68397">
        <ele>362</ele>
        <time>2015-05-08T08:40:51.000Z</time>
      </trkpt>
      <trkpt lat="47.48468" lon="6.68402">
        <ele>362</ele>
        <time>2015-05-08T08:40:56.000Z</time>
      </trkpt>
      <trkpt lat="47.48468" lon="6.68403">
        <ele>362</ele>
        <time>2015-05-08T08:40:57.000Z</time>
      </trkpt>
      <trkpt lat="47.48464" lon="6.68407">
        <ele>362</ele>
        <time>2015-05-08T08:41:07.000Z</time>
      </trkpt>
      <trkpt lat="47.48464" lon="6.68407">
        <ele>362</ele>
        <time>2015-05-08T08:41:08.000Z</time>
      </trkpt>
      <trkpt lat="47.48463" lon="6.68413">
        <ele>363</ele>
        <time>2015-05-08T08:41:15.000Z</time>
      </trkpt>
      <trkpt lat="47.48462" lon="6.68414">
        <ele>363</ele>
        <time>2015-05-08T08:41:16.000Z</time>
      </trkpt>
      <trkpt lat="47.4846" lon="6.68418">
        <ele>360</ele>
        <time>2015-05-08T08:41:22.000Z</time>
      </trkpt>
      <trkpt lat="47.48459" lon="6.68419">
        <ele>360</ele>
        <time>2015-05-08T08:41:23.000Z</time>
      </trkpt>
      <trkpt lat="47.48456" lon="6.68422">
        <ele>361</ele>
        <time>2015-05-08T08:41:28.000Z</time>
      </trkpt>
      <trkpt lat="47.48455" lon="6.68422">
        <ele>361</ele>
        <time>2015-05-08T08:41:29.000Z</time>
      </trkpt>
      <trkpt lat="47.48452" lon="6.68426">
        <ele>361</ele>
        <time>2015-05-08T08:41:32.000Z</time>
      </trkpt>
      <trkpt lat="47.48451" lon="6.68427">
        <ele>361</ele>
        <time>2015-05-08T08:41:33.000Z</time>
      </trkpt>
      <trkpt lat="47.48448" lon="6.68431">
        <ele>362</ele>
        <time>2015-05-08T08:41:46.000Z</time>
      </trkpt>
      <trkpt lat="47.48447" lon="6.68432">
        <ele>362</ele>
        <time>2015-05-08T08:41:47.000Z</time>
      </trkpt>
      <trkpt lat="47.48444" lon="6.68435">
        <ele>362</ele>
        <time>2015-05-08T08:41:54.000Z</time>
      </trkpt>
      <trkpt lat="47.48443" lon="6.68436">
        <ele>362</ele>
        <time>2015-05-08T08:41:55.000Z</time>
      </trkpt>
      <trkpt lat="47.48441" lon="6.68441">
        <ele>362</ele>
        <time>2015-05-08T08:41:59.000Z</time>
      </trkpt>
      <trkpt lat="47.4844" lon="6.68442">
        <ele>362</ele>
        <time>2015-05-08T08:42:00.000Z</time>
      </trkpt>
      <trkpt lat="47.48438" lon="6.68448">
        <ele>362</ele>
        <time>2015-05-08T08:42:08.000Z</time>
      </trkpt>
      <trkpt lat="47.48438" lon="6.68448">
        <ele>362</ele>
        <time>2015-05-08T08:42:09.000Z</time>
      </trkpt>
      <trkpt lat="47.48434" lon="6.6845">
        <ele>362</ele>
        <time>2015-05-08T08:42:22.000Z</time>
      </trkpt>
      <trkpt lat="47.48433" lon="6.68451">
        <ele>362</ele>
        <time>2015-05-08T08:42:23.000Z</time>
      </trkpt>
      <trkpt lat="47.4843" lon="6.68454">
        <ele>362</ele>
        <time>2015-05-08T08:42:26.000Z</time>
      </trkpt>
      <trkpt lat="47.48429" lon="6.68455">
        <ele>362</ele>
        <time>2015-05-08T08:42:27.000Z</time>
      </trkpt>
      <trkpt lat="47.48425" lon="6.68459">
        <ele>362</ele>
        <time>2015-05-08T08:42:30.000Z</time>
      </trkpt>
      <trkpt lat="47.48424" lon="6.6846">
        <ele>362</ele>
        <time>2015-05-08T08:42:31.000Z</time>
      </trkpt>
      <trkpt lat="47.48421" lon="6.68464">
        <ele>362</ele>
        <time>2015-05-08T08:42:34.000Z</time>
      </trkpt>
      <trkpt lat="47.48419" lon="6.68465">
        <ele>362</ele>
        <time>2015-05-08T08:42:35.000Z</time>
      </trkpt>
      <trkpt lat="47.48416" lon="6.68466">
        <ele>372</ele>
        <time>2015-05-08T08:42:37.000Z</time>
      </trkpt>
      <trkpt lat="47.48415" lon="6.68467">
        <ele>372</ele>
        <time>2015-05-08T08:42:38.000Z</time>
      </trkpt>
      <trkpt lat="47.48411" lon="6.68468">
        <ele>372</ele>
        <time>2015-05-08T08:42:41.000Z</time>
      </trkpt>
      <trkpt lat="47.4841" lon="6.68468">
        <ele>372</ele>
        <time>2015-05-08T08:42:42.000Z</time>
      </trkpt>
      <trkpt lat="47.48407" lon="6.68471">
        <ele>372</ele>
        <time>2015-05-08T08:42:45.000Z</time>
      </trkpt>
      <trkpt lat="47.48406" lon="6.68471">
        <ele>372</ele>
        <time>2015-05-08T08:42:46.000Z</time>
      </trkpt>
      <trkpt lat="47.48401" lon="6.6847">
        <ele>373</ele>
        <time>2015-05-08T08:42:51.000Z</time>
      </trkpt>
      <trkpt lat="47.484" lon="6.6847">
        <ele>373</ele>
        <time>2015-05-08T08:42:52.000Z</time>
      </trkpt>
      <trkpt lat="47.48396" lon="6.68471">
        <ele>373</ele>
        <time>2015-05-08T08:42:56.000Z</time>
      </trkpt>
      <trkpt lat="47.48395" lon="6.68471">
        <ele>374</ele>
        <time>2015-05-08T08:42:57.000Z</time>
      </trkpt>
      <trkpt lat="47.48391" lon="6.68468">
        <ele>374</ele>
        <time>2015-05-08T08:43:02.000Z</time>
      </trkpt>
      <trkpt lat="47.4839" lon="6.68467">
        <ele>375</ele>
        <time>2015-05-08T08:43:03.000Z</time>
      </trkpt>
      <trkpt lat="47.48386" lon="6.68468">
        <ele>375</ele>
        <time>2015-05-08T08:43:08.000Z</time>
      </trkpt>
      <trkpt lat="47.48385" lon="6.68468">
        <ele>375</ele>
        <time>2015-05-08T08:43:09.000Z</time>
      </trkpt>
      <trkpt lat="47.48381" lon="6.68469">
        <ele>375</ele>
        <time>2015-05-08T08:43:14.000Z</time>
      </trkpt>
      <trkpt lat="47.48381" lon="6.68469">
        <ele>375</ele>
        <time>2015-05-08T08:43:15.000Z</time>
      </trkpt>
      <trkpt lat="47.48377" lon="6.68468">
        <ele>376</ele>
        <time>2015-05-08T08:43:18.000Z</time>
      </trkpt>
      <trkpt lat="47.48376" lon="6.68467">
        <ele>376</ele>
        <time>2015-05-08T08:43:19.000Z</time>
      </trkpt>
      <trkpt lat="47.48374" lon="6.68462">
        <ele>377</ele>
        <time>2015-05-08T08:43:23.000Z</time>
      </trkpt>
      <trkpt lat="47.48374" lon="6.68461">
        <ele>377</ele>
        <time>2015-05-08T08:43:24.000Z</time>
      </trkpt>
      <trkpt lat="47.48377" lon="6.6846">
        <ele>377</ele>
        <time>2015-05-08T08:43:40.000Z</time>
      </trkpt>
      <trkpt lat="47.48378" lon="6.68459">
        <ele>377</ele>
        <time>2015-05-08T08:43:41.000Z</time>
      </trkpt>
      <trkpt lat="47.4838" lon="6.68455">
        <ele>377</ele>
        <time>2015-05-08T08:43:45.000Z</time>
      </trkpt>
      <trkpt lat="47.48381" lon="6.68453">
        <ele>377</ele>
        <time>2015-05-08T08:43:46.000Z</time>
      </trkpt>
      <trkpt lat="47.48382" lon="6.68447">
        <ele>377</ele>
        <time>2015-05-08T08:43:51.000Z</time>
      </trkpt>
      <trkpt lat="47.48382" lon="6.68446">
        <ele>377</ele>
        <time>2015-05-08T08:43:52.000Z</time>
      </trkpt>
      <trkpt lat="47.48383" lon="6.68439">
        <ele>378</ele>
        <time>2015-05-08T08:43:55.000Z</time>
      </trkpt>
      <trkpt lat="47.48384" lon="6.68437">
        <ele>378</ele>
        <time>2015-05-08T08:43:56.000Z</time>
      </trkpt>
      <trkpt lat="47.48386" lon="6.68432">
        <ele>378</ele>
        <time>2015-05-08T08:43:58.000Z</time>
      </trkpt>
      <trkpt lat="47.48387" lon="6.6843">
        <ele>378</ele>
        <time>2015-05-08T08:43:59.000Z</time>
      </trkpt>
      <trkpt lat="47.48388" lon="6.68425">
        <ele>378</ele>
        <time>2015-05-08T08:44:01.000Z</time>
      </trkpt>
      <trkpt lat="47.48388" lon="6.68423">
        <ele>378</ele>
        <time>2015-05-08T08:44:02.000Z</time>
      </trkpt>
      <trkpt lat="47.48389" lon="6.68418">
        <ele>378</ele>
        <time>2015-05-08T08:44:04.000Z</time>
      </trkpt>
      <trkpt lat="47.48389" lon="6.68416">
        <ele>384</ele>
        <time>2015-05-08T08:44:05.000Z</time>
      </trkpt>
      <trkpt lat="47.4839" lon="6.6841">
        <ele>384</ele>
        <time>2015-05-08T08:44:08.000Z</time>
      </trkpt>
      <trkpt lat="47.48391" lon="6.68408">
        <ele>384</ele>
        <time>2015-05-08T08:44:09.000Z</time>
      </trkpt>
      <trkpt lat="47.48391" lon="6.68403">
        <ele>384</ele>
        <time>2015-05-08T08:44:11.000Z</time>
      </trkpt>
      <trkpt lat="47.48391" lon="6.68401">
        <ele>384</ele>
        <time>2015-05-08T08:44:12.000Z</time>
      </trkpt>
      <trkpt lat="47.4839" lon="6.68395">
        <ele>385</ele>
        <time>2015-05-08T08:44:15.000Z</time>
      </trkpt>
      <trkpt lat="47.4839" lon="6.68393">
        <ele>385</ele>
        <time>2015-05-08T08:44:16.000Z</time>
      </trkpt>
      <trkpt lat="47.48391" lon="6.68389">
        <ele>385</ele>
        <time>2015-05-08T08:44:18.000Z</time>
      </trkpt>
      <trkpt lat="47.48391" lon="6.68387">
        <ele>386</ele>
        <time>2015-05-08T08:44:19.000Z</time>
      </trkpt>
      <trkpt lat="47.48392" lon="6.68381">
        <ele>386</ele>
        <time>2015-05-08T08:44:22.000Z</time>
      </trkpt>
      <trkpt lat="47.48393" lon="6.68379">
        <ele>386</ele>
        <time>2015-05-08T08:44:23.000Z</time>
      </trkpt>
      <trkpt lat="47.48393" lon="6.68373">
        <ele>386</ele>
        <time>2015-05-08T08:44:25.000Z</time>
      </trkpt>
      <trkpt lat="47.48393" lon="6.6837">
        <ele>387</ele>
        <time>2015-05-08T08:44:26.000Z</time>
      </trkpt>
      <trkpt lat="47.48393" lon="6.68365">
        <ele>387</ele>
        <time>2015-05-08T08:44:28.000Z</time>
      </trkpt>
      <trkpt lat="47.48394" lon="6.68363">
        <ele>387</ele>
        <time>2015-05-08T08:44:29.000Z</time>
      </trkpt>
      <trkpt lat="47.48395" lon="6.68357">
        <ele>387</ele>
        <time>2015-05-08T08:44:31.000Z</time>
      </trkpt>
      <trkpt lat="47.48395" lon="6.68355">
        <ele>387</ele>
        <time>2015-05-08T08:44:32.000Z</time>
      </trkpt>
      <trkpt lat="47.48397" lon="6.6835">
        <ele>387</ele>
        <time>2015-05-08T08:44:35.000Z</time>
      </trkpt>
      <trkpt lat="47.48397" lon="6.68348">
        <ele>387</ele>
        <time>2015-05-08T08:44:36.000Z</time>
      </trkpt>
      <trkpt lat="47.48399" lon="6.68342">
        <ele>386</ele>
        <time>2015-05-08T08:44:39.000Z</time>
      </trkpt>
      <trkpt lat="47.48399" lon="6.68339">
        <ele>386</ele>
        <time>2015-05-08T08:44:40.000Z</time>
      </trkpt>
      <trkpt lat="47.48399" lon="6.68333">
        <ele>389</ele>
        <time>2015-05-08T08:44:43.000Z</time>
      </trkpt>
      <trkpt lat="47.48399" lon="6.6833">
        <ele>389</ele>
        <time>2015-05-08T08:44:44.000Z</time>
      </trkpt>
      <trkpt lat="47.48399" lon="6.68324">
        <ele>390</ele>
        <time>2015-05-08T08:44:47.000Z</time>
      </trkpt>
      <trkpt lat="47.48399" lon="6.68322">
        <ele>390</ele>
        <time>2015-05-08T08:44:48.000Z</time>
      </trkpt>
      <trkpt lat="47.48399" lon="6.68317">
        <ele>390</ele>
        <time>2015-05-08T08:44:50.000Z</time>
      </trkpt>
      <trkpt lat="47.48398" lon="6.68314">
        <ele>391</ele>
        <time>2015-05-08T08:44:51.000Z</time>
      </trkpt>
      <trkpt lat="47.48397" lon="6.68308">
        <ele>391</ele>
        <time>2015-05-08T08:44:53.000Z</time>
      </trkpt>
      <trkpt lat="47.48396" lon="6.68306">
        <ele>392</ele>
        <time>2015-05-08T08:44:54.000Z</time>
      </trkpt>
      <trkpt lat="47.48395" lon="6.683">
        <ele>392</ele>
        <time>2015-05-08T08:44:57.000Z</time>
      </trkpt>
      <trkpt lat="47.48395" lon="6.68297">
        <ele>392</ele>
        <time>2015-05-08T08:44:58.000Z</time>
      </trkpt>
      <trkpt lat="47.48396" lon="6.68291">
        <ele>392</ele>
        <time>2015-05-08T08:45:00.000Z</time>
      </trkpt>
      <trkpt lat="47.48396" lon="6.68289">
        <ele>393</ele>
        <time>2015-05-08T08:45:01.000Z</time>
      </trkpt>
      <trkpt lat="47.48397" lon="6.68283">
        <ele>393</ele>
        <time>2015-05-08T08:45:04.000Z</time>
      </trkpt>
      <trkpt lat="47.48397" lon="6.68281">
        <ele>393</ele>
        <time>2015-05-08T08:45:05.000Z</time>
      </trkpt>
      <trkpt lat="47.48399" lon="6.68276">
        <ele>392</ele>
        <time>2015-05-08T08:45:07.000Z</time>
      </trkpt>
      <trkpt lat="47.48399" lon="6.68274">
        <ele>392</ele>
        <time>2015-05-08T08:45:08.000Z</time>
      </trkpt>
      <trkpt lat="47.48399" lon="6.68269">
        <ele>392</ele>
        <time>2015-05-08T08:45:10.000Z</time>
      </trkpt>
      <trkpt lat="47.48398" lon="6.68267">
        <ele>392</ele>
        <time>2015-05-08T08:45:11.000Z</time>
      </trkpt>
      <trkpt lat="47.48396" lon="6.68263">
        <ele>392</ele>
        <time>2015-05-08T08:45:13.000Z</time>
      </trkpt>
      <trkpt lat="47.48395" lon="6.6826">
        <ele>393</ele>
        <time>2015-05-08T08:45:14.000Z</time>
      </trkpt>
      <trkpt lat="47.48393" lon="6.68255">
        <ele>393</ele>
        <time>2015-05-08T08:45:16.000Z</time>
      </trkpt>
      <trkpt lat="47.48392" lon="6.68252">
        <ele>393</ele>
        <time>2015-05-08T08:45:17.000Z</time>
      </trkpt>
      <trkpt lat="47.4839" lon="6.68246">
        <ele>396</ele>
        <time>2015-05-08T08:45:19.000Z</time>
      </trkpt>
      <trkpt lat="47.48389" lon="6.68243">
        <ele>396</ele>
        <time>2015-05-08T08:45:20.000Z</time>
      </trkpt>
      <trkpt lat="47.48387" lon="6.68238">
        <ele>397</ele>
        <time>2015-05-08T08:45:22.000Z</time>
      </trkpt>
      <trkpt lat="47.48386" lon="6.68236">
        <ele>397</ele>
        <time>2015-05-08T08:45:23.000Z</time>
      </trkpt>
      <trkpt lat="47.48385" lon="6.68231">
        <ele>397</ele>
        <time>2015-05-08T08:45:25.000Z</time>
      </trkpt>
      <trkpt lat="47.48384" lon="6.68228">
        <ele>397</ele>
        <time>2015-05-08T08:45:26.000Z</time>
      </trkpt>
      <trkpt lat="47.48382" lon="6.68224">
        <ele>398</ele>
        <time>2015-05-08T08:45:28.000Z</time>
      </trkpt>
      <trkpt lat="47.48381" lon="6.68222">
        <ele>398</ele>
        <time>2015-05-08T08:45:29.000Z</time>
      </trkpt>
      <trkpt lat="47.48378" lon="6.68217">
        <ele>398</ele>
        <time>2015-05-08T08:45:32.000Z</time>
      </trkpt>
      <trkpt lat="47.48378" lon="6.68215">
        <ele>398</ele>
        <time>2015-05-08T08:45:33.000Z</time>
      </trkpt>
      <trkpt lat="47.48376" lon="6.6821">
        <ele>399</ele>
        <time>2015-05-08T08:45:36.000Z</time>
      </trkpt>
      <trkpt lat="47.48375" lon="6.68209">
        <ele>399</ele>
        <time>2015-05-08T08:45:37.000Z</time>
      </trkpt>
      <trkpt lat="47.48372" lon="6.68205">
        <ele>399</ele>
        <time>2015-05-08T08:45:44.000Z</time>
      </trkpt>
      <trkpt lat="47.48372" lon="6.68204">
        <ele>399</ele>
        <time>2015-05-08T08:45:45.000Z</time>
      </trkpt>
      <trkpt lat="47.48371" lon="6.68198">
        <ele>399</ele>
        <time>2015-05-08T08:45:50.000Z</time>
      </trkpt>
      <trkpt lat="47.48371" lon="6.68197">
        <ele>399</ele>
        <time>2015-05-08T08:45:51.000Z</time>
      </trkpt>
      <trkpt lat="47.48372" lon="6.6819">
        <ele>399</ele>
        <time>2015-05-08T08:45:56.000Z</time>
      </trkpt>
      <trkpt lat="47.48372" lon="6.68189">
        <ele>400</ele>
        <time>2015-05-08T08:45:57.000Z</time>
      </trkpt>
      <trkpt lat="47.48372" lon="6.68184">
        <ele>400</ele>
        <time>2015-05-08T08:46:00.000Z</time>
      </trkpt>
      <trkpt lat="47.48372" lon="6.68182">
        <ele>400</ele>
        <time>2015-05-08T08:46:01.000Z</time>
      </trkpt>
      <trkpt lat="47.48372" lon="6.68177">
        <ele>400</ele>
        <time>2015-05-08T08:46:03.000Z</time>
      </trkpt>
      <trkpt lat="47.48372" lon="6.68174">
        <ele>400</ele>
        <time>2015-05-08T08:46:04.000Z</time>
      </trkpt>
      <trkpt lat="47.48373" lon="6.68168">
        <ele>400</ele>
        <time>2015-05-08T08:46:07.000Z</time>
      </trkpt>
      <trkpt lat="47.48374" lon="6.68167">
        <ele>400</ele>
        <time>2015-05-08T08:46:08.000Z</time>
      </trkpt>
      <trkpt lat="47.48374" lon="6.68162">
        <ele>404</ele>
        <time>2015-05-08T08:46:13.000Z</time>
      </trkpt>
      <trkpt lat="47.48375" lon="6.6816">
        <ele>404</ele>
        <time>2015-05-08T08:46:14.000Z</time>
      </trkpt>
      <trkpt lat="47.48375" lon="6.68155">
        <ele>404</ele>
        <time>2015-05-08T08:46:17.000Z</time>
      </trkpt>
      <trkpt lat="47.48375" lon="6.68153">
        <ele>405</ele>
        <time>2015-05-08T08:46:18.000Z</time>
      </trkpt>
      <trkpt lat="47.48375" lon="6.68147">
        <ele>405</ele>
        <time>2015-05-08T08:46:22.000Z</time>
      </trkpt>
      <trkpt lat="47.48375" lon="6.68145">
        <ele>405</ele>
        <time>2015-05-08T08:46:23.000Z</time>
      </trkpt>
      <trkpt lat="47.48376" lon="6.68139">
        <ele>405</ele>
        <time>2015-05-08T08:46:26.000Z</time>
      </trkpt>
      <trkpt lat="47.48377" lon="6.68138">
        <ele>405</ele>
        <time>2015-05-08T08:46:27.000Z</time>
      </trkpt>
      <trkpt lat="47.48378" lon="6.68132">
        <ele>405</ele>
        <time>2015-05-08T08:46:30.000Z</time>
      </trkpt>
      <trkpt lat="47.48379" lon="6.6813">
        <ele>405</ele>
        <time>2015-05-08T08:46:31.000Z</time>
      </trkpt>
      <trkpt lat="47.48379" lon="6.68123">
        <ele>406</ele>
        <time>2015-05-08T08:46:34.000Z</time>
      </trkpt>
      <trkpt lat="47.4838" lon="6.6812">
        <ele>406</ele>
        <time>2015-05-08T08:46:35.000Z</time>
      </trkpt>
      <trkpt lat="47.4838" lon="6.68114">
        <ele>406</ele>
        <time>2015-05-08T08:46:38.000Z</time>
      </trkpt>
      <trkpt lat="47.4838" lon="6.68112">
        <ele>406</ele>
        <time>2015-05-08T08:46:39.000Z</time>
      </trkpt>
      <trkpt lat="47.48381" lon="6.68107">
        <ele>407</ele>
        <time>2015-05-08T08:46:42.000Z</time>
      </trkpt>
      <trkpt lat="47.48381" lon="6.68106">
        <ele>407</ele>
        <time>2015-05-08T08:46:43.000Z</time>
      </trkpt>
      <trkpt lat="47.48382" lon="6.68099">
        <ele>407</ele>
        <time>2015-05-08T08:46:47.000Z</time>
      </trkpt>
      <trkpt lat="47.48382" lon="6.68098">
        <ele>407</ele>
        <time>2015-05-08T08:46:48.000Z</time>
      </trkpt>
      <trkpt lat="47.48382" lon="6.68093">
        <ele>407</ele>
        <time>2015-05-08T08:46:51.000Z</time>
      </trkpt>
      <trkpt lat="47.48382" lon="6.6809">
        <ele>407</ele>
        <time>2015-05-08T08:46:52.000Z</time>
      </trkpt>
      <trkpt lat="47.48383" lon="6.68084">
        <ele>407</ele>
        <time>2015-05-08T08:46:55.000Z</time>
      </trkpt>
      <trkpt lat="47.48383" lon="6.68083">
        <ele>407</ele>
        <time>2015-05-08T08:46:56.000Z</time>
      </trkpt>
      <trkpt lat="47.4838" lon="6.6808">
        <ele>414</ele>
        <time>2015-05-08T08:48:58.000Z</time>
      </trkpt>
      <trkpt lat="47.48379" lon="6.6808">
        <ele>414</ele>
        <time>2015-05-08T08:48:59.000Z</time>
      </trkpt>
      <trkpt lat="47.48375" lon="6.68078">
        <ele>414</ele>
        <time>2015-05-08T08:49:11.000Z</time>
      </trkpt>
      <trkpt lat="47.48374" lon="6.68078">
        <ele>414</ele>
        <time>2015-05-08T08:49:12.000Z</time>
      </trkpt>
      <trkpt lat="47.48378" lon="6.68076">
        <ele>414</ele>
        <time>2015-05-08T08:53:27.000Z</time>
      </trkpt>
      <trkpt lat="47.4838" lon="6.68076">
        <ele>414</ele>
        <time>2015-05-08T08:53:28.000Z</time>
      </trkpt>
      <trkpt lat="47.48383" lon="6.68076">
        <ele>414</ele>
        <time>2015-05-08T08:53:31.000Z</time>
      </trkpt>
      <trkpt lat="47.48385" lon="6.68076">
        <ele>414</ele>
        <time>2015-05-08T08:53:32.000Z</time>
      </trkpt>
      <trkpt lat="47.48388" lon="6.68074">
        <ele>413</ele>
        <time>2015-05-08T08:53:35.000Z</time>
      </trkpt>
      <trkpt lat="47.4839" lon="6.68072">
        <ele>413</ele>
        <time>2015-05-08T08:53:36.000Z</time>
      </trkpt>
      <trkpt lat="47.48394" lon="6.68069">
        <ele>413</ele>
        <time>2015-05-08T08:53:38.000Z</time>
      </trkpt>
      <trkpt lat="47.48396" lon="6.68066">
        <ele>413</ele>
        <time>2015-05-08T08:53:39.000Z</time>
      </trkpt>
      <trkpt lat="47.48397" lon="6.68063">
        <ele>413</ele>
        <time>2015-05-08T08:53:40.000Z</time>
      </trkpt>
      <trkpt lat="47.48398" lon="6.6806">
        <ele>414</ele>
        <time>2015-05-08T08:53:41.000Z</time>
      </trkpt>
      <trkpt lat="47.484" lon="6.68056">
        <ele>414</ele>
        <time>2015-05-08T08:53:42.000Z</time>
      </trkpt>
      <trkpt lat="47.48401" lon="6.68053">
        <ele>414</ele>
        <time>2015-05-08T08:53:43.000Z</time>
      </trkpt>
      <trkpt lat="47.48403" lon="6.68048">
        <ele>415</ele>
        <time>2015-05-08T08:53:45.000Z</time>
      </trkpt>
      <trkpt lat="47.48406" lon="6.68046">
        <ele>415</ele>
        <time>2015-05-08T08:53:46.000Z</time>
      </trkpt>
      <trkpt lat="47.48409" lon="6.68044">
        <ele>415</ele>
        <time>2015-05-08T08:53:47.000Z</time>
      </trkpt>
      <trkpt lat="47.48411" lon="6.68041">
        <ele>415</ele>
        <time>2015-05-08T08:53:48.000Z</time>
      </trkpt>
      <trkpt lat="47.48414" lon="6.68038">
        <ele>415</ele>
        <time>2015-05-08T08:53:49.000Z</time>
      </trkpt>
      <trkpt lat="47.48416" lon="6.68037">
        <ele>416</ele>
        <time>2015-05-08T08:53:50.000Z</time>
      </trkpt>
      <trkpt lat="47.48419" lon="6.68034">
        <ele>407</ele>
        <time>2015-05-08T08:53:52.000Z</time>
      </trkpt>
      <trkpt lat="47.48421" lon="6.68033">
        <ele>407</ele>
        <time>2015-05-08T08:53:53.000Z</time>
      </trkpt>
      <trkpt lat="47.48423" lon="6.68029">
        <ele>408</ele>
        <time>2015-05-08T08:53:56.000Z</time>
      </trkpt>
      <trkpt lat="47.48424" lon="6.68028">
        <ele>408</ele>
        <time>2015-05-08T08:53:57.000Z</time>
      </trkpt>
      <trkpt lat="47.48425" lon="6.68024">
        <ele>408</ele>
        <time>2015-05-08T08:53:59.000Z</time>
      </trkpt>
      <trkpt lat="47.48426" lon="6.68022">
        <ele>409</ele>
        <time>2015-05-08T08:54:00.000Z</time>
      </trkpt>
      <trkpt lat="47.48429" lon="6.68018">
        <ele>409</ele>
        <time>2015-05-08T08:54:02.000Z</time>
      </trkpt>
      <trkpt lat="47.48431" lon="6.68016">
        <ele>409</ele>
        <time>2015-05-08T08:54:03.000Z</time>
      </trkpt>
      <trkpt lat="47.48434" lon="6.68014">
        <ele>409</ele>
        <time>2015-05-08T08:54:05.000Z</time>
      </trkpt>
      <trkpt lat="47.48436" lon="6.68012">
        <ele>409</ele>
        <time>2015-05-08T08:54:06.000Z</time>
      </trkpt>
      <trkpt lat="47.48438" lon="6.68011">
        <ele>409</ele>
        <time>2015-05-08T08:54:07.000Z</time>
      </trkpt>
      <trkpt lat="47.4844" lon="6.68008">
        <ele>408</ele>
        <time>2015-05-08T08:54:08.000Z</time>
      </trkpt>
      <trkpt lat="47.48442" lon="6.68006">
        <ele>408</ele>
        <time>2015-05-08T08:54:09.000Z</time>
      </trkpt>
      <trkpt lat="47.48444" lon="6.68003">
        <ele>408</ele>
        <time>2015-05-08T08:54:10.000Z</time>
      </trkpt>
      <trkpt lat="47.48445" lon="6.68001">
        <ele>407</ele>
        <time>2015-05-08T08:54:11.000Z</time>
      </trkpt>
      <trkpt lat="47.48447" lon="6.67999">
        <ele>415</ele>
        <time>2015-05-08T08:54:12.000Z</time>
      </trkpt>
      <trkpt lat="47.48449" lon="6.67997">
        <ele>415</ele>
        <time>2015-05-08T08:54:13.000Z</time>
      </trkpt>
      <trkpt lat="47.48452" lon="6.67996">
        <ele>415</ele>
        <time>2015-05-08T08:54:14.000Z</time>
      </trkpt>
      <trkpt lat="47.48455" lon="6.67994">
        <ele>414</ele>
        <time>2015-05-08T08:54:16.000Z</time>
      </trkpt>
      <trkpt lat="47.48457" lon="6.67993">
        <ele>414</ele>
        <time>2015-05-08T08:54:17.000Z</time>
      </trkpt>
      <trkpt lat="47.4846" lon="6.67991">
        <ele>414</ele>
        <time>2015-05-08T08:54:19.000Z</time>
      </trkpt>
      <trkpt lat="47.48462" lon="6.6799">
        <ele>413</ele>
        <time>2015-05-08T08:54:20.000Z</time>
      </trkpt>
      <trkpt lat="47.48465" lon="6.67987">
        <ele>413</ele>
        <time>2015-05-08T08:54:23.000Z</time>
      </trkpt>
      <trkpt lat="47.48467" lon="6.67985">
        <ele>413</ele>
        <time>2015-05-08T08:54:24.000Z</time>
      </trkpt>
      <trkpt lat="47.4847" lon="6.67981">
        <ele>413</ele>
        <time>2015-05-08T08:54:26.000Z</time>
      </trkpt>
      <trkpt lat="47.48471" lon="6.67979">
        <ele>413</ele>
        <time>2015-05-08T08:54:27.000Z</time>
      </trkpt>
      <trkpt lat="47.48471" lon="6.67972">
        <ele>413</ele>
        <time>2015-05-08T08:54:31.000Z</time>
      </trkpt>
      <trkpt lat="47.48471" lon="6.67972">
        <ele>414</ele>
        <time>2015-05-08T08:54:32.000Z</time>
      </trkpt>
      <trkpt lat="47.48471" lon="6.67967">
        <ele>414</ele>
        <time>2015-05-08T08:54:39.000Z</time>
      </trkpt>
      <trkpt lat="47.48472" lon="6.67964">
        <ele>414</ele>
        <time>2015-05-08T08:54:40.000Z</time>
      </trkpt>
      <trkpt lat="47.48472" lon="6.67958">
        <ele>415</ele>
        <time>2015-05-08T08:54:53.000Z</time>
      </trkpt>
      <trkpt lat="47.48473" lon="6.67958">
        <ele>415</ele>
        <time>2015-05-08T08:54:54.000Z</time>
      </trkpt>
      <trkpt lat="47.48475" lon="6.67954">
        <ele>415</ele>
        <time>2015-05-08T08:55:15.000Z</time>
      </trkpt>
      <trkpt lat="47.48476" lon="6.67953">
        <ele>415</ele>
        <time>2015-05-08T08:55:16.000Z</time>
      </trkpt>
      <trkpt lat="47.48479" lon="6.6795">
        <ele>415</ele>
        <time>2015-05-08T08:55:19.000Z</time>
      </trkpt>
      <trkpt lat="47.4848" lon="6.6795">
        <ele>415</ele>
        <time>2015-05-08T08:55:20.000Z</time>
      </trkpt>
      <trkpt lat="47.48483" lon="6.6795">
        <ele>415</ele>
        <time>2015-05-08T08:55:35.000Z</time>
      </trkpt>
      <trkpt lat="47.48485" lon="6.6795">
        <ele>415</ele>
        <time>2015-05-08T08:55:36.000Z</time>
      </trkpt>
      <trkpt lat="47.48488" lon="6.67951">
        <ele>415</ele>
        <time>2015-05-08T08:55:38.000Z</time>
      </trkpt>
      <trkpt lat="47.48491" lon="6.6795">
        <ele>415</ele>
        <time>2015-05-08T08:55:39.000Z</time>
      </trkpt>
      <trkpt lat="47.48495" lon="6.67949">
        <ele>415</ele>
        <time>2015-05-08T08:55:41.000Z</time>
      </trkpt>
      <trkpt lat="47.48496" lon="6.67948">
        <ele>415</ele>
        <time>2015-05-08T08:55:42.000Z</time>
      </trkpt>
      <trkpt lat="47.48499" lon="6.67947">
        <ele>415</ele>
        <time>2015-05-08T08:55:44.000Z</time>
      </trkpt>
      <trkpt lat="47.48501" lon="6.67947">
        <ele>407</ele>
        <time>2015-05-08T08:55:45.000Z</time>
      </trkpt>
      <trkpt lat="47.48505" lon="6.67944">
        <ele>407</ele>
        <time>2015-05-08T08:55:51.000Z</time>
      </trkpt>
      <trkpt lat="47.48505" lon="6.67944">
        <ele>407</ele>
        <time>2015-05-08T08:55:52.000Z</time>
      </trkpt>
      <trkpt lat="47.4851" lon="6.67944">
        <ele>407</ele>
        <time>2015-05-08T08:55:56.000Z</time>
      </trkpt>
      <trkpt lat="47.48512" lon="6.67944">
        <ele>407</ele>
        <time>2015-05-08T08:55:57.000Z</time>
      </trkpt>
      <trkpt lat="47.48514" lon="6.67945">
        <ele>406</ele>
        <time>2015-05-08T08:55:58.000Z</time>
      </trkpt>
      <trkpt lat="47.48516" lon="6.67944">
        <ele>406</ele>
        <time>2015-05-08T08:55:59.000Z</time>
      </trkpt>
      <trkpt lat="47.48519" lon="6.67944">
        <ele>406</ele>
        <time>2015-05-08T08:56:00.000Z</time>
      </trkpt>
      <trkpt lat="47.48521" lon="6.67943">
        <ele>406</ele>
        <time>2015-05-08T08:56:01.000Z</time>
      </trkpt>
      <trkpt lat="47.48524" lon="6.67942">
        <ele>405</ele>
        <time>2015-05-08T08:56:02.000Z</time>
      </trkpt>
      <trkpt lat="47.48526" lon="6.67941">
        <ele>405</ele>
        <time>2015-05-08T08:56:03.000Z</time>
      </trkpt>
      <trkpt lat="47.48529" lon="6.67939">
        <ele>405</ele>
        <time>2015-05-08T08:56:04.000Z</time>
      </trkpt>
      <trkpt lat="47.4853" lon="6.67937">
        <ele>405</ele>
        <time>2015-05-08T08:56:05.000Z</time>
      </trkpt>
      <trkpt lat="47.48533" lon="6.67931">
        <ele>405</ele>
        <time>2015-05-08T08:56:07.000Z</time>
      </trkpt>
      <trkpt lat="47.48534" lon="6.67929">
        <ele>405</ele>
        <time>2015-05-08T08:56:08.000Z</time>
      </trkpt>
      <trkpt lat="47.48536" lon="6.67926">
        <ele>405</ele>
        <time>2015-05-08T08:56:10.000Z</time>
      </trkpt>
      <trkpt lat="47.48538" lon="6.67924">
        <ele>405</ele>
        <time>2015-05-08T08:56:11.000Z</time>
      </trkpt>
      <trkpt lat="47.48541" lon="6.6792">
        <ele>404</ele>
        <time>2015-05-08T08:56:13.000Z</time>
      </trkpt>
      <trkpt lat="47.48542" lon="6.67919">
        <ele>404</ele>
        <time>2015-05-08T08:56:14.000Z</time>
      </trkpt>
      <trkpt lat="47.48545" lon="6.67916">
        <ele>410</ele>
        <time>2015-05-08T08:56:16.000Z</time>
      </trkpt>
      <trkpt lat="47.48546" lon="6.67915">
        <ele>410</ele>
        <time>2015-05-08T08:56:17.000Z</time>
      </trkpt>
      <trkpt lat="47.4855" lon="6.67913">
        <ele>409</ele>
        <time>2015-05-08T08:56:19.000Z</time>
      </trkpt>
      <trkpt lat="47.48551" lon="6.67911">
        <ele>409</ele>
        <time>2015-05-08T08:56:20.000Z</time>
      </trkpt>
      <trkpt lat="47.48554" lon="6.67906">
        <ele>409</ele>
        <time>2015-05-08T08:56:22.000Z</time>
      </trkpt>
      <trkpt lat="47.48555" lon="6.67904">
        <ele>409</ele>
        <time>2015-05-08T08:56:23.000Z</time>
      </trkpt>
      <trkpt lat="47.48558" lon="6.67899">
        <ele>408</ele>
        <time>2015-05-08T08:56:26.000Z</time>
      </trkpt>
      <trkpt lat="47.48559" lon="6.67898">
        <ele>408</ele>
        <time>2015-05-08T08:56:27.000Z</time>
      </trkpt>
      <trkpt lat="47.48562" lon="6.67895">
        <ele>408</ele>
        <time>2015-05-08T08:56:29.000Z</time>
      </trkpt>
      <trkpt lat="47.48564" lon="6.67894">
        <ele>408</ele>
        <time>2015-05-08T08:56:30.000Z</time>
      </trkpt>
      <trkpt lat="47.48565" lon="6.67893">
        <ele>408</ele>
        <time>2015-05-08T08:56:31.000Z</time>
      </trkpt>
      <trkpt lat="47.48568" lon="6.67891">
        <ele>408</ele>
        <time>2015-05-08T08:56:32.000Z</time>
      </trkpt>
      <trkpt lat="47.4857" lon="6.67889">
        <ele>408</ele>
        <time>2015-05-08T08:56:33.000Z</time>
      </trkpt>
      <trkpt lat="47.48572" lon="6.67887">
        <ele>408</ele>
        <time>2015-05-08T08:56:34.000Z</time>
      </trkpt>
      <trkpt lat="47.48575" lon="6.67884">
        <ele>408</ele>
        <time>2015-05-08T08:56:36.000Z</time>
      </trkpt>
      <trkpt lat="47.48576" lon="6.67884">
        <ele>408</ele>
        <time>2015-05-08T08:56:37.000Z</time>
      </trkpt>
      <trkpt lat="47.48579" lon="6.67881">
        <ele>408</ele>
        <time>2015-05-08T08:56:40.000Z</time>
      </trkpt>
      <trkpt lat="47.4858" lon="6.6788">
        <ele>408</ele>
        <time>2015-05-08T08:56:41.000Z</time>
      </trkpt>
      <trkpt lat="47.48584" lon="6.67881">
        <ele>396</ele>
        <time>2015-05-08T08:56:48.000Z</time>
      </trkpt>
      <trkpt lat="47.48584" lon="6.6788">
        <ele>396</ele>
        <time>2015-05-08T08:56:49.000Z</time>
      </trkpt>
      <trkpt lat="47.48588" lon="6.67881">
        <ele>396</ele>
        <time>2015-05-08T08:57:29.000Z</time>
      </trkpt>
      <trkpt lat="47.48589" lon="6.67883">
        <ele>396</ele>
        <time>2015-05-08T08:57:30.000Z</time>
      </trkpt>
      <trkpt lat="47.48592" lon="6.67887">
        <ele>396</ele>
        <time>2015-05-08T08:57:32.000Z</time>
      </trkpt>
      <trkpt lat="47.48593" lon="6.67888">
        <ele>396</ele>
        <time>2015-05-08T08:57:33.000Z</time>
      </trkpt>
      <trkpt lat="47.48597" lon="6.67889">
        <ele>395</ele>
        <time>2015-05-08T08:57:35.000Z</time>
      </trkpt>
      <trkpt lat="47.486" lon="6.6789">
        <ele>395</ele>
        <time>2015-05-08T08:57:36.000Z</time>
      </trkpt>
      <trkpt lat="47.48603" lon="6.67891">
        <ele>395</ele>
        <time>2015-05-08T08:57:37.000Z</time>
      </trkpt>
      <trkpt lat="47.48607" lon="6.67892">
        <ele>394</ele>
        <time>2015-05-08T08:57:38.000Z</time>
      </trkpt>
      <trkpt lat="47.4861" lon="6.67894">
        <ele>394</ele>
        <time>2015-05-08T08:57:39.000Z</time>
      </trkpt>
      <trkpt lat="47.48613" lon="6.67895">
        <ele>394</ele>
        <time>2015-05-08T08:57:40.000Z</time>
      </trkpt>
      <trkpt lat="47.48615" lon="6.67897">
        <ele>393</ele>
        <time>2015-05-08T08:57:41.000Z</time>
      </trkpt>
      <trkpt lat="47.48618" lon="6.67897">
        <ele>393</ele>
        <time>2015-05-08T08:57:42.000Z</time>
      </trkpt>
      <trkpt lat="47.48622" lon="6.67898">
        <ele>392</ele>
        <time>2015-05-08T08:57:44.000Z</time>
      </trkpt>
      <trkpt lat="47.48623" lon="6.67898">
        <ele>392</ele>
        <time>2015-05-08T08:57:45.000Z</time>
      </trkpt>
      <trkpt lat="47.48627" lon="6.67898">
        <ele>392</ele>
        <time>2015-05-08T08:57:47.000Z</time>
      </trkpt>
      <trkpt lat="47.48629" lon="6.67898">
        <ele>391</ele>
        <time>2015-05-08T08:57:48.000Z</time>
      </trkpt>
      <trkpt lat="47.48631" lon="6.67899">
        <ele>391</ele>
        <time>2015-05-08T08:57:50.000Z</time>
      </trkpt>
      <trkpt lat="47.48633" lon="6.67898">
        <ele>391</ele>
        <time>2015-05-08T08:57:51.000Z</time>
      </trkpt>
      <trkpt lat="47.48635" lon="6.67892">
        <ele>391</ele>
        <time>2015-05-08T08:57:58.000Z</time>
      </trkpt>
      <trkpt lat="47.48635" lon="6.67891">
        <ele>391</ele>
        <time>2015-05-08T08:57:59.000Z</time>
      </trkpt>
      <trkpt lat="47.48639" lon="6.67889">
        <ele>390</ele>
        <time>2015-05-08T08:58:03.000Z</time>
      </trkpt>
      <trkpt lat="47.4864" lon="6.67888">
        <ele>390</ele>
        <time>2015-05-08T08:58:04.000Z</time>
      </trkpt>
      <trkpt lat="47.48644" lon="6.67886">
        <ele>390</ele>
        <time>2015-05-08T08:58:07.000Z</time>
      </trkpt>
      <trkpt lat="47.48645" lon="6.67886">
        <ele>390</ele>
        <time>2015-05-08T08:58:08.000Z</time>
      </trkpt>
      <trkpt lat="47.48649" lon="6.67883">
        <ele>390</ele>
        <time>2015-05-08T08:58:12.000Z</time>
      </trkpt>
      <trkpt lat="47.4865" lon="6.67882">
        <ele>390</ele>
        <time>2015-05-08T08:58:13.000Z</time>
      </trkpt>
      <trkpt lat="47.48653" lon="6.67878">
        <ele>390</ele>
        <time>2015-05-08T08:58:16.000Z</time>
      </trkpt>
      <trkpt lat="47.48654" lon="6.67877">
        <ele>390</ele>
        <time>2015-05-08T08:58:17.000Z</time>
      </trkpt>
      <trkpt lat="47.48657" lon="6.67875">
        <ele>390</ele>
        <time>2015-05-08T08:58:21.000Z</time>
      </trkpt>
      <trkpt lat="47.48658" lon="6.67874">
        <ele>390</ele>
        <time>2015-05-08T08:58:22.000Z</time>
      </trkpt>
      <trkpt lat="47.48661" lon="6.67872">
        <ele>390</ele>
        <time>2015-05-08T08:58:25.000Z</time>
      </trkpt>
      <trkpt lat="47.48663" lon="6.67871">
        <ele>390</ele>
        <time>2015-05-08T08:58:26.000Z</time>
      </trkpt>
      <trkpt lat="47.48665" lon="6.67867">
        <ele>390</ele>
        <time>2015-05-08T08:58:29.000Z</time>
      </trkpt>
      <trkpt lat="47.48666" lon="6.67866">
        <ele>390</ele>
        <time>2015-05-08T08:58:30.000Z</time>
      </trkpt>
      <trkpt lat="47.48669" lon="6.67862">
        <ele>383</ele>
        <time>2015-05-08T08:58:51.000Z</time>
      </trkpt>
      <trkpt lat="47.4867" lon="6.67861">
        <ele>383</ele>
        <time>2015-05-08T08:58:52.000Z</time>
      </trkpt>
      <trkpt lat="47.48672" lon="6.67857">
        <ele>383</ele>
        <time>2015-05-08T08:58:59.000Z</time>
      </trkpt>
      <trkpt lat="47.48673" lon="6.67855">
        <ele>384</ele>
        <time>2015-05-08T08:59:00.000Z</time>
      </trkpt>
      <trkpt lat="47.48676" lon="6.67851">
        <ele>384</ele>
        <time>2015-05-08T08:59:04.000Z</time>
      </trkpt>
      <trkpt lat="47.48676" lon="6.67851">
        <ele>384</ele>
        <time>2015-05-08T08:59:05.000Z</time>
      </trkpt>
      <trkpt lat="47.48679" lon="6.67846">
        <ele>385</ele>
        <time>2015-05-08T08:59:16.000Z</time>
      </trkpt>
      <trkpt lat="47.48679" lon="6.67845">
        <ele>385</ele>
        <time>2015-05-08T08:59:17.000Z</time>
      </trkpt>
      <trkpt lat="47.48682" lon="6.67842">
        <ele>384</ele>
        <time>2015-05-08T08:59:21.000Z</time>
      </trkpt>
      <trkpt lat="47.48684" lon="6.67841">
        <ele>384</ele>
        <time>2015-05-08T08:59:22.000Z</time>
      </trkpt>
      <trkpt lat="47.48687" lon="6.67846">
        <ele>383</ele>
        <time>2015-05-08T08:59:31.000Z</time>
      </trkpt>
      <trkpt lat="47.48689" lon="6.67845">
        <ele>383</ele>
        <time>2015-05-08T08:59:32.000Z</time>
      </trkpt>
      <trkpt lat="47.48691" lon="6.67841">
        <ele>383</ele>
        <time>2015-05-08T08:59:34.000Z</time>
      </trkpt>
      <trkpt lat="47.48692" lon="6.6784">
        <ele>383</ele>
        <time>2015-05-08T08:59:35.000Z</time>
      </trkpt>
      <trkpt lat="47.48693" lon="6.67834">
        <ele>383</ele>
        <time>2015-05-08T08:59:37.000Z</time>
      </trkpt>
      <trkpt lat="47.48693" lon="6.67833">
        <ele>387</ele>
        <time>2015-05-08T08:59:38.000Z</time>
      </trkpt>
      <trkpt lat="47.48693" lon="6.67828">
        <ele>387</ele>
        <time>2015-05-08T08:59:42.000Z</time>
      </trkpt>
      <trkpt lat="47.48695" lon="6.67826">
        <ele>387</ele>
        <time>2015-05-08T08:59:43.000Z</time>
      </trkpt>
      <trkpt lat="47.48697" lon="6.67821">
        <ele>387</ele>
        <time>2015-05-08T08:59:47.000Z</time>
      </trkpt>
      <trkpt lat="47.48698" lon="6.6782">
        <ele>387</ele>
        <time>2015-05-08T08:59:48.000Z</time>
      </trkpt>
      <trkpt lat="47.48699" lon="6.67814">
        <ele>387</ele>
        <time>2015-05-08T08:59:52.000Z</time>
      </trkpt>
      <trkpt lat="47.487" lon="6.67813">
        <ele>387</ele>
        <time>2015-05-08T08:59:53.000Z</time>
      </trkpt>
      <trkpt lat="47.48702" lon="6.67807">
        <ele>387</ele>
        <time>2015-05-08T08:59:57.000Z</time>
      </trkpt>
      <trkpt lat="47.48702" lon="6.67806">
        <ele>387</ele>
        <time>2015-05-08T08:59:58.000Z</time>
      </trkpt>
      <trkpt lat="47.48703" lon="6.678">
        <ele>387</ele>
        <time>2015-05-08T09:00:48.000Z</time>
      </trkpt>
      <trkpt lat="47.48703" lon="6.67798">
        <ele>387</ele>
        <time>2015-05-08T09:00:49.000Z</time>
      </trkpt>
      <trkpt lat="47.48703" lon="6.67793">
        <ele>388</ele>
        <time>2015-05-08T09:00:53.000Z</time>
      </trkpt>
      <trkpt lat="47.48704" lon="6.67792">
        <ele>388</ele>
        <time>2015-05-08T09:00:54.000Z</time>
      </trkpt>
      <trkpt lat="47.48701" lon="6.67796">
        <ele>388</ele>
        <time>2015-05-08T09:02:08.000Z</time>
      </trkpt>
      <trkpt lat="47.487" lon="6.67797">
        <ele>388</ele>
        <time>2015-05-08T09:02:09.000Z</time>
      </trkpt>
      <trkpt lat="47.48697" lon="6.67802">
        <ele>388</ele>
        <time>2015-05-08T09:02:15.000Z</time>
      </trkpt>
      <trkpt lat="47.48697" lon="6.67803">
        <ele>388</ele>
        <time>2015-05-08T09:02:16.000Z</time>
      </trkpt>
      <trkpt lat="47.48696" lon="6.67809">
        <ele>388</ele>
        <time>2015-05-08T09:02:20.000Z</time>
      </trkpt>
      <trkpt lat="47.48695" lon="6.67811">
        <ele>388</ele>
        <time>2015-05-08T09:02:21.000Z</time>
      </trkpt>
      <trkpt lat="47.48693" lon="6.67815">
        <ele>388</ele>
        <time>2015-05-08T09:02:24.000Z</time>
      </trkpt>
      <trkpt lat="47.48692" lon="6.67816">
        <ele>388</ele>
        <time>2015-05-08T09:02:25.000Z</time>
      </trkpt>
      <trkpt lat="47.48689" lon="6.67819">
        <ele>388</ele>
        <time>2015-05-08T09:02:29.000Z</time>
      </trkpt>
      <trkpt lat="47.48688" lon="6.6782">
        <ele>388</ele>
        <time>2015-05-08T09:02:30.000Z</time>
      </trkpt>
      <trkpt lat="47.48687" lon="6.67826">
        <ele>388</ele>
        <time>2015-05-08T09:02:43.000Z</time>
      </trkpt>
      <trkpt lat="47.48687" lon="6.67827">
        <ele>388</ele>
        <time>2015-05-08T09:02:44.000Z</time>
      </trkpt>
      <trkpt lat="47.48685" lon="6.67832">
        <ele>388</ele>
        <time>2015-05-08T09:03:03.000Z</time>
      </trkpt>
      <trkpt lat="47.48684" lon="6.67833">
        <ele>388</ele>
        <time>2015-05-08T09:03:04.000Z</time>
      </trkpt>
      <trkpt lat="47.4868" lon="6.67835">
        <ele>385</ele>
        <time>2015-05-08T09:03:08.000Z</time>
      </trkpt>
      <trkpt lat="47.48678" lon="6.67836">
        <ele>386</ele>
        <time>2015-05-08T09:03:09.000Z</time>
      </trkpt>
      <trkpt lat="47.48675" lon="6.6784">
        <ele>386</ele>
        <time>2015-05-08T09:03:18.000Z</time>
      </trkpt>
      <trkpt lat="47.48675" lon="6.67841">
        <ele>386</ele>
        <time>2015-05-08T09:03:19.000Z</time>
      </trkpt>
      <trkpt lat="47.48674" lon="6.67847">
        <ele>385</ele>
        <time>2015-05-08T09:03:23.000Z</time>
      </trkpt>
      <trkpt lat="47.48673" lon="6.67848">
        <ele>385</ele>
        <time>2015-05-08T09:03:24.000Z</time>
      </trkpt>
      <trkpt lat="47.4867" lon="6.67851">
        <ele>385</ele>
        <time>2015-05-08T09:03:27.000Z</time>
      </trkpt>
      <trkpt lat="47.48669" lon="6.67852">
        <ele>384</ele>
        <time>2015-05-08T09:03:28.000Z</time>
      </trkpt>
      <trkpt lat="47.48666" lon="6.67856">
        <ele>391</ele>
        <time>2015-05-08T09:03:33.000Z</time>
      </trkpt>
      <trkpt lat="47.48666" lon="6.67857">
        <ele>391</ele>
        <time>2015-05-08T09:03:34.000Z</time>
      </trkpt>
      <trkpt lat="47.48662" lon="6.6786">
        <ele>391</ele>
        <time>2015-05-08T09:03:43.000Z</time>
      </trkpt>
      <trkpt lat="47.48661" lon="6.6786">
        <ele>391</ele>
        <time>2015-05-08T09:03:44.000Z</time>
      </trkpt>
      <trkpt lat="47.48657" lon="6.67863">
        <ele>391</ele>
        <time>2015-05-08T09:03:49.000Z</time>
      </trkpt>
      <trkpt lat="47.48656" lon="6.67864">
        <ele>391</ele>
        <time>2015-05-08T09:03:50.000Z</time>
      </trkpt>
      <trkpt lat="47.48652" lon="6.67867">
        <ele>391</ele>
        <time>2015-05-08T09:03:55.000Z</time>
      </trkpt>
      <trkpt lat="47.48652" lon="6.67867">
        <ele>391</ele>
        <time>2015-05-08T09:03:56.000Z</time>
      </trkpt>
      <trkpt lat="47.48647" lon="6.67868">
        <ele>391</ele>
        <time>2015-05-08T09:04:03.000Z</time>
      </trkpt>
      <trkpt lat="47.48647" lon="6.67868">
        <ele>391</ele>
        <time>2015-05-08T09:04:04.000Z</time>
      </trkpt>
      <trkpt lat="47.48643" lon="6.6787">
        <ele>392</ele>
        <time>2015-05-08T09:04:11.000Z</time>
      </trkpt>
      <trkpt lat="47.48642" lon="6.6787">
        <ele>392</ele>
        <time>2015-05-08T09:04:12.000Z</time>
      </trkpt>
      <trkpt lat="47.48638" lon="6.6787">
        <ele>392</ele>
        <time>2015-05-08T09:04:21.000Z</time>
      </trkpt>
      <trkpt lat="47.48637" lon="6.67871">
        <ele>392</ele>
        <time>2015-05-08T09:04:22.000Z</time>
      </trkpt>
      <trkpt lat="47.48634" lon="6.67871">
        <ele>392</ele>
        <time>2015-05-08T09:04:25.000Z</time>
      </trkpt>
      <trkpt lat="47.48632" lon="6.6787">
        <ele>393</ele>
        <time>2015-05-08T09:04:26.000Z</time>
      </trkpt>
      <trkpt lat="47.48629" lon="6.6787">
        <ele>393</ele>
        <time>2015-05-08T09:04:28.000Z</time>
      </trkpt>
      <trkpt lat="47.48628" lon="6.6787">
        <ele>393</ele>
        <time>2015-05-08T09:04:29.000Z</time>
      </trkpt>
      <trkpt lat="47.48624" lon="6.67871">
        <ele>393</ele>
        <time>2015-05-08T09:04:33.000Z</time>
      </trkpt>
      <trkpt lat="47.48622" lon="6.67872">
        <ele>393</ele>
        <time>2015-05-08T09:04:34.000Z</time>
      </trkpt>
      <trkpt lat="47.48618" lon="6.67874">
        <ele>394</ele>
        <time>2015-05-08T09:04:40.000Z</time>
      </trkpt>
      <trkpt lat="47.48618" lon="6.67874">
        <ele>394</ele>
        <time>2015-05-08T09:04:41.000Z</time>
      </trkpt>
      <trkpt lat="47.48614" lon="6.67876">
        <ele>394</ele>
        <time>2015-05-08T09:05:21.000Z</time>
      </trkpt>
      <trkpt lat="47.48613" lon="6.67876">
        <ele>394</ele>
        <time>2015-05-08T09:05:22.000Z</time>
      </trkpt>
      <trkpt lat="47.4861" lon="6.67874">
        <ele>395</ele>
        <time>2015-05-08T09:05:52.999Z</time>
      </trkpt>
      <trkpt lat="47.48609" lon="6.67874">
        <ele>395</ele>
        <time>2015-05-08T09:05:54.000Z</time>
      </trkpt>
      <trkpt lat="47.48605" lon="6.67872">
        <ele>395</ele>
        <time>2015-05-08T09:06:17.000Z</time>
      </trkpt>
      <trkpt lat="47.48605" lon="6.6787">
        <ele>395</ele>
        <time>2015-05-08T09:06:18.000Z</time>
      </trkpt>
      <trkpt lat="47.48605" lon="6.67864">
        <ele>396</ele>
        <time>2015-05-08T09:06:28.000Z</time>
      </trkpt>
      <trkpt lat="47.48605" lon="6.67863">
        <ele>396</ele>
        <time>2015-05-08T09:06:29.000Z</time>
      </trkpt>
      <trkpt lat="47.48605" lon="6.67857">
        <ele>396</ele>
        <time>2015-05-08T09:06:46.000Z</time>
      </trkpt>
      <trkpt lat="47.48605" lon="6.67856">
        <ele>397</ele>
        <time>2015-05-08T09:06:47.000Z</time>
      </trkpt>
      <trkpt lat="47.48605" lon="6.6785">
        <ele>397</ele>
        <time>2015-05-08T09:06:50.000Z</time>
      </trkpt>
      <trkpt lat="47.48605" lon="6.67849">
        <ele>397</ele>
        <time>2015-05-08T09:06:51.000Z</time>
      </trkpt>
      <trkpt lat="47.48608" lon="6.67844">
        <ele>397</ele>
        <time>2015-05-08T09:07:03.000Z</time>
      </trkpt>
      <trkpt lat="47.48609" lon="6.67843">
        <ele>397</ele>
        <time>2015-05-08T09:07:04.000Z</time>
      </trkpt>
      <trkpt lat="47.48612" lon="6.6784">
        <ele>397</ele>
        <time>2015-05-08T09:07:06.000Z</time>
      </trkpt>
      <trkpt lat="47.48614" lon="6.67838">
        <ele>396</ele>
        <time>2015-05-08T09:07:07.000Z</time>
      </trkpt>
      <trkpt lat="47.48616" lon="6.67833">
        <ele>400</ele>
        <time>2015-05-08T09:07:09.000Z</time>
      </trkpt>
      <trkpt lat="47.48617" lon="6.67831">
        <ele>399</ele>
        <time>2015-05-08T09:07:10.000Z</time>
      </trkpt>
      <trkpt lat="47.48619" lon="6.67826">
        <ele>399</ele>
        <time>2015-05-08T09:07:12.000Z</time>
      </trkpt>
      <trkpt lat="47.4862" lon="6.67823">
        <ele>399</ele>
        <time>2015-05-08T09:07:13.000Z</time>
      </trkpt>
      <trkpt lat="47.48623" lon="6.67819">
        <ele>399</ele>
        <time>2015-05-08T09:07:15.000Z</time>
      </trkpt>
      <trkpt lat="47.48625" lon="6.67817">
        <ele>399</ele>
        <time>2015-05-08T09:07:16.000Z</time>
      </trkpt>
      <trkpt lat="47.48628" lon="6.67814">
        <ele>398</ele>
        <time>2015-05-08T09:07:18.000Z</time>
      </trkpt>
      <trkpt lat="47.4863" lon="6.67813">
        <ele>398</ele>
        <time>2015-05-08T09:07:19.000Z</time>
      </trkpt>
      <trkpt lat="47.48633" lon="6.67811">
        <ele>398</ele>
        <time>2015-05-08T09:07:21.000Z</time>
      </trkpt>
      <trkpt lat="47.48635" lon="6.6781">
        <ele>398</ele>
        <time>2015-05-08T09:07:22.000Z</time>
      </trkpt>
      <trkpt lat="47.48638" lon="6.67807">
        <ele>398</ele>
        <time>2015-05-08T09:07:24.000Z</time>
      </trkpt>
      <trkpt lat="47.4864" lon="6.67806">
        <ele>397</ele>
        <time>2015-05-08T09:07:25.000Z</time>
      </trkpt>
      <trkpt lat="47.48643" lon="6.67803">
        <ele>397</ele>
        <time>2015-05-08T09:07:27.000Z</time>
      </trkpt>
      <trkpt lat="47.48644" lon="6.67802">
        <ele>397</ele>
        <time>2015-05-08T09:07:28.000Z</time>
      </trkpt>
      <trkpt lat="47.48647" lon="6.67798">
        <ele>397</ele>
        <time>2015-05-08T09:07:31.000Z</time>
      </trkpt>
      <trkpt lat="47.48649" lon="6.67797">
        <ele>397</ele>
        <time>2015-05-08T09:07:32.000Z</time>
      </trkpt>
      <trkpt lat="47.48652" lon="6.67793">
        <ele>397</ele>
        <time>2015-05-08T09:07:35.000Z</time>
      </trkpt>
      <trkpt lat="47.48653" lon="6.67792">
        <ele>397</ele>
        <time>2015-05-08T09:07:36.000Z</time>
      </trkpt>
      <trkpt lat="47.48655" lon="6.67789">
        <ele>397</ele>
        <time>2015-05-08T09:07:38.000Z</time>
      </trkpt>
      <trkpt lat="47.48657" lon="6.67788">
        <ele>397</ele>
        <time>2015-05-08T09:07:39.000Z</time>
      </trkpt>
      <trkpt lat="47.48659" lon="6.67783">
        <ele>397</ele>
        <time>2015-05-08T09:07:42.000Z</time>
      </trkpt>
      <trkpt lat="47.4866" lon="6.67781">
        <ele>398</ele>
        <time>2015-05-08T09:07:43.000Z</time>
      </trkpt>
      <trkpt lat="47.48661" lon="6.67776">
        <ele>398</ele>
        <time>2015-05-08T09:07:46.000Z</time>
      </trkpt>
      <trkpt lat="47.48662" lon="6.67774">
        <ele>398</ele>
        <time>2015-05-08T09:07:47.000Z</time>
      </trkpt>
      <trkpt lat="47.48665" lon="6.6777">
        <ele>398</ele>
        <time>2015-05-08T09:07:50.000Z</time>
      </trkpt>
      <trkpt lat="47.48667" lon="6.67768">
        <ele>398</ele>
        <time>2015-05-08T09:07:51.000Z</time>
      </trkpt>
      <trkpt lat="47.4867" lon="6.67764">
        <ele>393</ele>
        <time>2015-05-08T09:07:53.000Z</time>
      </trkpt>
      <trkpt lat="47.48671" lon="6.67761">
        <ele>393</ele>
        <time>2015-05-08T09:07:54.000Z</time>
      </trkpt>
      <trkpt lat="47.48673" lon="6.67757">
        <ele>394</ele>
        <time>2015-05-08T09:07:56.000Z</time>
      </trkpt>
      <trkpt lat="47.48674" lon="6.67755">
        <ele>394</ele>
        <time>2015-05-08T09:07:57.000Z</time>
      </trkpt>
      <trkpt lat="47.48676" lon="6.6775">
        <ele>396</ele>
        <time>2015-05-08T09:07:59.000Z</time>
      </trkpt>
      <trkpt lat="47.48677" lon="6.67747">
        <ele>396</ele>
        <time>2015-05-08T09:08:00.000Z</time>
      </trkpt>
      <trkpt lat="47.48678" lon="6.67744">
        <ele>396</ele>
        <time>2015-05-08T09:08:01.000Z</time>
      </trkpt>
      <trkpt lat="47.48679" lon="6.67741">
        <ele>396</ele>
        <time>2015-05-08T09:08:02.000Z</time>
      </trkpt>
      <trkpt lat="47.4868" lon="6.67735">
        <ele>396</ele>
        <time>2015-05-08T09:08:04.000Z</time>
      </trkpt>
      <trkpt lat="47.4868" lon="6.67733">
        <ele>396</ele>
        <time>2015-05-08T09:08:05.000Z</time>
      </trkpt>
      <trkpt lat="47.4868" lon="6.67728">
        <ele>396</ele>
        <time>2015-05-08T09:08:07.000Z</time>
      </trkpt>
      <trkpt lat="47.48681" lon="6.67725">
        <ele>396</ele>
        <time>2015-05-08T09:08:08.000Z</time>
      </trkpt>
      <trkpt lat="47.48681" lon="6.6772">
        <ele>396</ele>
        <time>2015-05-08T09:08:11.000Z</time>
      </trkpt>
      <trkpt lat="47.4868" lon="6.67718">
        <ele>396</ele>
        <time>2015-05-08T09:08:12.000Z</time>
      </trkpt>
      <trkpt lat="47.48679" lon="6.67714">
        <ele>396</ele>
        <time>2015-05-08T09:08:22.000Z</time>
      </trkpt>
      <trkpt lat="47.48678" lon="6.67712">
        <ele>396</ele>
        <time>2015-05-08T09:08:23.000Z</time>
      </trkpt>
      <trkpt lat="47.48677" lon="6.67708">
        <ele>397</ele>
        <time>2015-05-08T09:08:26.000Z</time>
      </trkpt>
      <trkpt lat="47.48676" lon="6.67706">
        <ele>397</ele>
        <time>2015-05-08T09:08:27.000Z</time>
      </trkpt>
      <trkpt lat="47.48673" lon="6.67702">
        <ele>397</ele>
        <time>2015-05-08T09:08:30.000Z</time>
      </trkpt>
      <trkpt lat="47.48672" lon="6.677">
        <ele>397</ele>
        <time>2015-05-08T09:08:31.000Z</time>
      </trkpt>
      <trkpt lat="47.4867" lon="6.67696">
        <ele>398</ele>
        <time>2015-05-08T09:08:34.000Z</time>
      </trkpt>
      <trkpt lat="47.48669" lon="6.67695">
        <ele>398</ele>
        <time>2015-05-08T09:08:35.000Z</time>
      </trkpt>
      <trkpt lat="47.48666" lon="6.6769">
        <ele>402</ele>
        <time>2015-05-08T09:08:44.000Z</time>
      </trkpt>
      <trkpt lat="47.48666" lon="6.67689">
        <ele>402</ele>
        <time>2015-05-08T09:08:45.000Z</time>
      </trkpt>
      <trkpt lat="47.48663" lon="6.67685">
        <ele>403</ele>
        <time>2015-05-08T09:08:53.000Z</time>
      </trkpt>
      <trkpt lat="47.48663" lon="6.67683">
        <ele>403</ele>
        <time>2015-05-08T09:08:54.000Z</time>
      </trkpt>
      <trkpt lat="47.48662" lon="6.67678">
        <ele>403</ele>
        <time>2015-05-08T09:09:02.000Z</time>
      </trkpt>
      <trkpt lat="47.48662" lon="6.67677">
        <ele>403</ele>
        <time>2015-05-08T09:09:03.000Z</time>
      </trkpt>
      <trkpt lat="47.48664" lon="6.67672">
        <ele>403</ele>
        <time>2015-05-08T09:09:07.000Z</time>
      </trkpt>
      <trkpt lat="47.48665" lon="6.67671">
        <ele>403</ele>
        <time>2015-05-08T09:09:08.000Z</time>
      </trkpt>
      <trkpt lat="47.48665" lon="6.67665">
        <ele>403</ele>
        <time>2015-05-08T09:09:16.000Z</time>
      </trkpt>
      <trkpt lat="47.48665" lon="6.67664">
        <ele>404</ele>
        <time>2015-05-08T09:09:17.000Z</time>
      </trkpt>
      <trkpt lat="47.48663" lon="6.67658">
        <ele>404</ele>
        <time>2015-05-08T09:09:29.000Z</time>
      </trkpt>
      <trkpt lat="47.48663" lon="6.67657">
        <ele>404</ele>
        <time>2015-05-08T09:09:30.000Z</time>
      </trkpt>
      <trkpt lat="47.4866" lon="6.67653">
        <ele>405</ele>
        <time>2015-05-08T09:09:38.000Z</time>
      </trkpt>
      <trkpt lat="47.4866" lon="6.67652">
        <ele>405</ele>
        <time>2015-05-08T09:09:39.000Z</time>
      </trkpt>
      <trkpt lat="47.48659" lon="6.67646">
        <ele>405</ele>
        <time>2015-05-08T09:09:44.000Z</time>
      </trkpt>
      <trkpt lat="47.48659" lon="6.67645">
        <ele>405</ele>
        <time>2015-05-08T09:09:45.000Z</time>
      </trkpt>
      <trkpt lat="47.48658" lon="6.6764">
        <ele>406</ele>
        <time>2015-05-08T09:09:48.000Z</time>
      </trkpt>
      <trkpt lat="47.48658" lon="6.67638">
        <ele>406</ele>
        <time>2015-05-08T09:09:49.000Z</time>
      </trkpt>
      <trkpt lat="47.48658" lon="6.67633">
        <ele>406</ele>
        <time>2015-05-08T09:09:51.000Z</time>
      </trkpt>
      <trkpt lat="47.48657" lon="6.6763">
        <ele>406</ele>
        <time>2015-05-08T09:09:52.000Z</time>
      </trkpt>
      <trkpt lat="47.48655" lon="6.67626">
        <ele>406</ele>
        <time>2015-05-08T09:09:54.000Z</time>
      </trkpt>
      <trkpt lat="47.48655" lon="6.67623">
        <ele>406</ele>
        <time>2015-05-08T09:09:55.000Z</time>
      </trkpt>
      <trkpt lat="47.48654" lon="6.67619">
        <ele>407</ele>
        <time>2015-05-08T09:09:57.000Z</time>
      </trkpt>
      <trkpt lat="47.48654" lon="6.67616">
        <ele>407</ele>
        <time>2015-05-08T09:09:58.000Z</time>
      </trkpt>
      <trkpt lat="47.48653" lon="6.67611">
        <ele>407</ele>
        <time>2015-05-08T09:10:00.000Z</time>
      </trkpt>
      <trkpt lat="47.48653" lon="6.67609">
        <ele>407</ele>
        <time>2015-05-08T09:10:01.000Z</time>
      </trkpt>
      <trkpt lat="47.48653" lon="6.67604">
        <ele>407</ele>
        <time>2015-05-08T09:10:03.000Z</time>
      </trkpt>
      <trkpt lat="47.48652" lon="6.676">
        <ele>407</ele>
        <time>2015-05-08T09:10:04.000Z</time>
      </trkpt>
      <trkpt lat="47.48651" lon="6.67596">
        <ele>407</ele>
        <time>2015-05-08T09:10:05.000Z</time>
      </trkpt>
      <trkpt lat="47.48649" lon="6.67593">
        <ele>407</ele>
        <time>2015-05-08T09:10:06.000Z</time>
      </trkpt>
      <trkpt lat="47.48647" lon="6.6759">
        <ele>407</ele>
        <time>2015-05-08T09:10:07.000Z</time>
      </trkpt>
      <trkpt lat="47.48645" lon="6.67586">
        <ele>407</ele>
        <time>2015-05-08T09:10:08.000Z</time>
      </trkpt>
      <trkpt lat="47.48645" lon="6.67582">
        <ele>408</ele>
        <time>2015-05-08T09:10:09.000Z</time>
      </trkpt>
      <trkpt lat="47.48644" lon="6.67579">
        <ele>408</ele>
        <time>2015-05-08T09:10:10.000Z</time>
      </trkpt>
      <trkpt lat="47.48644" lon="6.67575">
        <ele>408</ele>
        <time>2015-05-08T09:10:11.000Z</time>
      </trkpt>
      <trkpt lat="47.48644" lon="6.6757">
        <ele>408</ele>
        <time>2015-05-08T09:10:12.000Z</time>
      </trkpt>
      <trkpt lat="47.48642" lon="6.67566">
        <ele>408</ele>
        <time>2015-05-08T09:10:13.000Z</time>
      </trkpt>
      <trkpt lat="47.4864" lon="6.67562">
        <ele>408</ele>
        <time>2015-05-08T09:10:14.000Z</time>
      </trkpt>
      <trkpt lat="47.48637" lon="6.67558">
        <ele>408</ele>
        <time>2015-05-08T09:10:15.000Z</time>
      </trkpt>
      <trkpt lat="47.48634" lon="6.67555">
        <ele>408</ele>
        <time>2015-05-08T09:10:16.000Z</time>
      </trkpt>
      <trkpt lat="47.48632" lon="6.67552">
        <ele>408</ele>
        <time>2015-05-08T09:10:17.000Z</time>
      </trkpt>
      <trkpt lat="47.4863" lon="6.6755">
        <ele>408</ele>
        <time>2015-05-08T09:10:18.000Z</time>
      </trkpt>
      <trkpt lat="47.48627" lon="6.67546">
        <ele>408</ele>
        <time>2015-05-08T09:10:21.000Z</time>
      </trkpt>
      <trkpt lat="47.48626" lon="6.67545">
        <ele>408</ele>
        <time>2015-05-08T09:10:22.000Z</time>
      </trkpt>
      <trkpt lat="47.48625" lon="6.6754">
        <ele>407</ele>
        <time>2015-05-08T09:10:24.000Z</time>
      </trkpt>
      <trkpt lat="47.48624" lon="6.67538">
        <ele>407</ele>
        <time>2015-05-08T09:10:25.000Z</time>
      </trkpt>
      <trkpt lat="47.48623" lon="6.67533">
        <ele>407</ele>
        <time>2015-05-08T09:10:27.000Z</time>
      </trkpt>
      <trkpt lat="47.48623" lon="6.67531">
        <ele>407</ele>
        <time>2015-05-08T09:10:28.000Z</time>
      </trkpt>
      <trkpt lat="47.48621" lon="6.67526">
        <ele>407</ele>
        <time>2015-05-08T09:10:30.000Z</time>
      </trkpt>
      <trkpt lat="47.4862" lon="6.67524">
        <ele>407</ele>
        <time>2015-05-08T09:10:31.000Z</time>
      </trkpt>
      <trkpt lat="47.48617" lon="6.67519">
        <ele>407</ele>
        <time>2015-05-08T09:10:33.000Z</time>
      </trkpt>
      <trkpt lat="47.48615" lon="6.67518">
        <ele>407</ele>
        <time>2015-05-08T09:10:34.000Z</time>
      </trkpt>
      <trkpt lat="47.48611" lon="6.67515">
        <ele>407</ele>
        <time>2015-05-08T09:10:36.000Z</time>
      </trkpt>
      <trkpt lat="47.48609" lon="6.67514">
        <ele>408</ele>
        <time>2015-05-08T09:10:37.000Z</time>
      </trkpt>
      <trkpt lat="47.48605" lon="6.67512">
        <ele>408</ele>
        <time>2015-05-08T09:10:39.000Z</time>
      </trkpt>
      <trkpt lat="47.48603" lon="6.67511">
        <ele>408</ele>
        <time>2015-05-08T09:10:40.000Z</time>
      </trkpt>
      <trkpt lat="47.48599" lon="6.6751">
        <ele>408</ele>
        <time>2015-05-08T09:10:42.000Z</time>
      </trkpt>
      <trkpt lat="47.48597" lon="6.67508">
        <ele>408</ele>
        <time>2015-05-08T09:10:43.000Z</time>
      </trkpt>
      <trkpt lat="47.48594" lon="6.67504">
        <ele>408</ele>
        <time>2015-05-08T09:10:46.000Z</time>
      </trkpt>
      <trkpt lat="47.48594" lon="6.67502">
        <ele>408</ele>
        <time>2015-05-08T09:10:47.000Z</time>
      </trkpt>
      <trkpt lat="47.48593" lon="6.67498">
        <ele>407</ele>
        <time>2015-05-08T09:10:49.000Z</time>
      </trkpt>
      <trkpt lat="47.48593" lon="6.67495">
        <ele>407</ele>
        <time>2015-05-08T09:10:50.000Z</time>
      </trkpt>
      <trkpt lat="47.48593" lon="6.6749">
        <ele>407</ele>
        <time>2015-05-08T09:10:52.000Z</time>
      </trkpt>
      <trkpt lat="47.48593" lon="6.67488">
        <ele>407</ele>
        <time>2015-05-08T09:10:53.000Z</time>
      </trkpt>
      <trkpt lat="47.48592" lon="6.67482">
        <ele>407</ele>
        <time>2015-05-08T09:10:56.000Z</time>
      </trkpt>
      <trkpt lat="47.48591" lon="6.67481">
        <ele>407</ele>
        <time>2015-05-08T09:10:57.000Z</time>
      </trkpt>
      <trkpt lat="47.4859" lon="6.67475">
        <ele>407</ele>
        <time>2015-05-08T09:12:18.999Z</time>
      </trkpt>
      <trkpt lat="47.48589" lon="6.6747">
        <ele>407</ele>
        <time>2015-05-08T09:12:20.000Z</time>
      </trkpt>
      <trkpt lat="47.48589" lon="6.67467">
        <ele>407</ele>
        <time>2015-05-08T09:12:21.000Z</time>
      </trkpt>
      <trkpt lat="47.48589" lon="6.67463">
        <ele>406</ele>
        <time>2015-05-08T09:12:21.999Z</time>
      </trkpt>
      <trkpt lat="47.48589" lon="6.6746">
        <ele>406</ele>
        <time>2015-05-08T09:12:23.000Z</time>
      </trkpt>
      <trkpt lat="47.48589" lon="6.67457">
        <ele>406</ele>
        <time>2015-05-08T09:12:24.000Z</time>
      </trkpt>
      <trkpt lat="47.4859" lon="6.67451">
        <ele>406</ele>
        <time>2015-05-08T09:12:26.000Z</time>
      </trkpt>
      <trkpt lat="47.48592" lon="6.67447">
        <ele>406</ele>
        <time>2015-05-08T09:12:27.000Z</time>
      </trkpt>
      <trkpt lat="47.48593" lon="6.67443">
        <ele>406</ele>
        <time>2015-05-08T09:12:28.000Z</time>
      </trkpt>
      <trkpt lat="47.48595" lon="6.67439">
        <ele>406</ele>
        <time>2015-05-08T09:12:29.000Z</time>
      </trkpt>
      <trkpt lat="47.48597" lon="6.67435">
        <ele>406</ele>
        <time>2015-05-08T09:12:30.000Z</time>
      </trkpt>
      <trkpt lat="47.48598" lon="6.67431">
        <ele>406</ele>
        <time>2015-05-08T09:12:31.000Z</time>
      </trkpt>
      <trkpt lat="47.48599" lon="6.67427">
        <ele>406</ele>
        <time>2015-05-08T09:12:32.000Z</time>
      </trkpt>
      <trkpt lat="47.486" lon="6.67423">
        <ele>406</ele>
        <time>2015-05-08T09:12:33.000Z</time>
      </trkpt>
      <trkpt lat="47.48601" lon="6.67419">
        <ele>406</ele>
        <time>2015-05-08T09:12:34.000Z</time>
      </trkpt>
      <trkpt lat="47.48602" lon="6.67414">
        <ele>405</ele>
        <time>2015-05-08T09:12:35.000Z</time>
      </trkpt>
      <trkpt lat="47.48603" lon="6.6741">
        <ele>405</ele>
        <time>2015-05-08T09:12:36.000Z</time>
      </trkpt>
      <trkpt lat="47.48604" lon="6.67405">
        <ele>405</ele>
        <time>2015-05-08T09:12:37.000Z</time>
      </trkpt>
      <trkpt lat="47.48604" lon="6.67401">
        <ele>405</ele>
        <time>2015-05-08T09:12:38.000Z</time>
      </trkpt>
      <trkpt lat="47.48605" lon="6.67397">
        <ele>405</ele>
        <time>2015-05-08T09:12:39.000Z</time>
      </trkpt>
      <trkpt lat="47.48605" lon="6.67392">
        <ele>405</ele>
        <time>2015-05-08T09:12:40.000Z</time>
      </trkpt>
      <trkpt lat="47.48605" lon="6.67387">
        <ele>405</ele>
        <time>2015-05-08T09:12:41.000Z</time>
      </trkpt>
      <trkpt lat="47.48606" lon="6.67383">
        <ele>405</ele>
        <time>2015-05-08T09:12:42.000Z</time>
      </trkpt>
      <trkpt lat="47.48606" lon="6.67378">
        <ele>405</ele>
        <time>2015-05-08T09:12:43.000Z</time>
      </trkpt>
      <trkpt lat="47.48606" lon="6.67373">
        <ele>405</ele>
        <time>2015-05-08T09:12:44.000Z</time>
      </trkpt>
      <trkpt lat="47.48606" lon="6.67369">
        <ele>405</ele>
        <time>2015-05-08T09:12:45.000Z</time>
      </trkpt>
      <trkpt lat="47.48606" lon="6.67364">
        <ele>405</ele>
        <time>2015-05-08T09:12:46.000Z</time>
      </trkpt>
      <trkpt lat="47.48606" lon="6.6736">
        <ele>405</ele>
        <time>2015-05-08T09:12:47.000Z</time>
      </trkpt>
      <trkpt lat="47.48607" lon="6.67355">
        <ele>405</ele>
        <time>2015-05-08T09:12:48.000Z</time>
      </trkpt>
      <trkpt lat="47.48607" lon="6.6735">
        <ele>405</ele>
        <time>2015-05-08T09:12:49.000Z</time>
      </trkpt>
      <trkpt lat="47.48607" lon="6.67345">
        <ele>405</ele>
        <time>2015-05-08T09:12:50.000Z</time>
      </trkpt>
      <trkpt lat="47.48608" lon="6.67341">
        <ele>405</ele>
        <time>2015-05-08T09:12:51.000Z</time>
      </trkpt>
      <trkpt lat="47.48608" lon="6.67336">
        <ele>405</ele>
        <time>2015-05-08T09:12:52.000Z</time>
      </trkpt>
      <trkpt lat="47.48609" lon="6.67332">
        <ele>405</ele>
        <time>2015-05-08T09:12:53.000Z</time>
      </trkpt>
      <trkpt lat="47.4861" lon="6.67328">
        <ele>405</ele>
        <time>2015-05-08T09:12:54.000Z</time>
      </trkpt>
      <trkpt lat="47.48611" lon="6.67325">
        <ele>405</ele>
        <time>2015-05-08T09:12:55.000Z</time>
      </trkpt>
      <trkpt lat="47.48611" lon="6.67321">
        <ele>405</ele>
        <time>2015-05-08T09:12:56.000Z</time>
      </trkpt>
      <trkpt lat="47.48612" lon="6.67318">
        <ele>405</ele>
        <time>2015-05-08T09:12:57.000Z</time>
      </trkpt>
      <trkpt lat="47.48613" lon="6.67314">
        <ele>405</ele>
        <time>2015-05-08T09:12:58.000Z</time>
      </trkpt>
      <trkpt lat="47.48613" lon="6.67311">
        <ele>405</ele>
        <time>2015-05-08T09:12:59.000Z</time>
      </trkpt>
      <trkpt lat="47.48613" lon="6.67307">
        <ele>405</ele>
        <time>2015-05-08T09:13:00.000Z</time>
      </trkpt>
      <trkpt lat="47.48614" lon="6.67304">
        <ele>405</ele>
        <time>2015-05-08T09:13:01.000Z</time>
      </trkpt>
      <trkpt lat="47.48613" lon="6.67297">
        <ele>405</ele>
        <time>2015-05-08T09:13:03.000Z</time>
      </trkpt>
      <trkpt lat="47.48613" lon="6.67294">
        <ele>405</ele>
        <time>2015-05-08T09:13:04.000Z</time>
      </trkpt>
      <trkpt lat="47.48614" lon="6.67287">
        <ele>405</ele>
        <time>2015-05-08T09:13:06.000Z</time>
      </trkpt>
      <trkpt lat="47.48615" lon="6.67285">
        <ele>405</ele>
        <time>2015-05-08T09:13:07.000Z</time>
      </trkpt>
      <trkpt lat="47.48616" lon="6.6728">
        <ele>405</ele>
        <time>2015-05-08T09:13:09.000Z</time>
      </trkpt>
      <trkpt lat="47.48617" lon="6.67277">
        <ele>405</ele>
        <time>2015-05-08T09:13:10.000Z</time>
      </trkpt>
      <trkpt lat="47.48616" lon="6.67271">
        <ele>405</ele>
        <time>2015-05-08T09:13:19.000Z</time>
      </trkpt>
      <trkpt lat="47.48615" lon="6.6727">
        <ele>405</ele>
        <time>2015-05-08T09:13:20.000Z</time>
      </trkpt>
      <trkpt lat="47.48613" lon="6.67264">
        <ele>405</ele>
        <time>2015-05-08T09:13:24.000Z</time>
      </trkpt>
      <trkpt lat="47.48614" lon="6.67263">
        <ele>405</ele>
        <time>2015-05-08T09:13:25.001Z</time>
      </trkpt>
      <trkpt lat="47.48613" lon="6.67257">
        <ele>405</ele>
        <time>2015-05-08T09:13:30.000Z</time>
      </trkpt>
      <trkpt lat="47.48613" lon="6.67256">
        <ele>405</ele>
        <time>2015-05-08T09:13:31.000Z</time>
      </trkpt>
      <trkpt lat="47.48612" lon="6.67251">
        <ele>405</ele>
        <time>2015-05-08T09:13:37.000Z</time>
      </trkpt>
      <trkpt lat="47.48612" lon="6.67249">
        <ele>405</ele>
        <time>2015-05-08T09:13:38.000Z</time>
      </trkpt>
      <trkpt lat="47.4861" lon="6.67243">
        <ele>405</ele>
        <time>2015-05-08T09:13:40.000Z</time>
      </trkpt>
      <trkpt lat="47.4861" lon="6.67239">
        <ele>405</ele>
        <time>2015-05-08T09:13:41.000Z</time>
      </trkpt>
      <trkpt lat="47.48609" lon="6.67236">
        <ele>405</ele>
        <time>2015-05-08T09:13:42.000Z</time>
      </trkpt>
      <trkpt lat="47.48609" lon="6.67232">
        <ele>405</ele>
        <time>2015-05-08T09:13:43.000Z</time>
      </trkpt>
      <trkpt lat="47.48608" lon="6.67227">
        <ele>405</ele>
        <time>2015-05-08T09:13:44.000Z</time>
      </trkpt>
      <trkpt lat="47.48606" lon="6.67223">
        <ele>405</ele>
        <time>2015-05-08T09:13:45.000Z</time>
      </trkpt>
      <trkpt lat="47.48605" lon="6.6722">
        <ele>405</ele>
        <time>2015-05-08T09:13:46.000Z</time>
      </trkpt>
      <trkpt lat="47.48604" lon="6.67216">
        <ele>405</ele>
        <time>2015-05-08T09:13:47.000Z</time>
      </trkpt>
      <trkpt lat="47.48603" lon="6.67213">
        <ele>405</ele>
        <time>2015-05-08T09:13:48.000Z</time>
      </trkpt>
      <trkpt lat="47.48602" lon="6.6721">
        <ele>405</ele>
        <time>2015-05-08T09:13:49.000Z</time>
      </trkpt>
      <trkpt lat="47.48601" lon="6.67204">
        <ele>405</ele>
        <time>2015-05-08T09:13:51.000Z</time>
      </trkpt>
      <trkpt lat="47.48601" lon="6.67201">
        <ele>405</ele>
        <time>2015-05-08T09:13:52.000Z</time>
      </trkpt>
      <trkpt lat="47.48599" lon="6.67197">
        <ele>405</ele>
        <time>2015-05-08T09:13:54.000Z</time>
      </trkpt>
      <trkpt lat="47.48598" lon="6.67194">
        <ele>405</ele>
        <time>2015-05-08T09:13:55.000Z</time>
      </trkpt>
      <trkpt lat="47.48595" lon="6.67188">
        <ele>405</ele>
        <time>2015-05-08T09:13:57.001Z</time>
      </trkpt>
      <trkpt lat="47.48595" lon="6.67185">
        <ele>405</ele>
        <time>2015-05-08T09:13:58.000Z</time>
      </trkpt>
      <trkpt lat="47.48593" lon="6.6718">
        <ele>405</ele>
        <time>2015-05-08T09:14:00.000Z</time>
      </trkpt>
      <trkpt lat="47.48593" lon="6.67177">
        <ele>405</ele>
        <time>2015-05-08T09:14:01.000Z</time>
      </trkpt>
      <trkpt lat="47.48591" lon="6.67173">
        <ele>406</ele>
        <time>2015-05-08T09:14:03.000Z</time>
      </trkpt>
      <trkpt lat="47.4859" lon="6.6717">
        <ele>406</ele>
        <time>2015-05-08T09:14:04.000Z</time>
      </trkpt>
      <trkpt lat="47.48588" lon="6.67166">
        <ele>406</ele>
        <time>2015-05-08T09:14:06.000Z</time>
      </trkpt>
      <trkpt lat="47.48586" lon="6.67165">
        <ele>406</ele>
        <time>2015-05-08T09:14:07.000Z</time>
      </trkpt>
      <trkpt lat="47.48582" lon="6.67164">
        <ele>406</ele>
        <time>2015-05-08T09:14:09.000Z</time>
      </trkpt>
      <trkpt lat="47.4858" lon="6.67165">
        <ele>406</ele>
        <time>2015-05-08T09:14:10.000Z</time>
      </trkpt>
      <trkpt lat="47.48576" lon="6.67164">
        <ele>406</ele>
        <time>2015-05-08T09:14:12.000Z</time>
      </trkpt>
      <trkpt lat="47.48575" lon="6.67164">
        <ele>406</ele>
        <time>2015-05-08T09:14:13.000Z</time>
      </trkpt>
      <trkpt lat="47.48571" lon="6.67167">
        <ele>406</ele>
        <time>2015-05-08T09:14:22.000Z</time>
      </trkpt>
      <trkpt lat="47.4857" lon="6.67168">
        <ele>406</ele>
        <time>2015-05-08T09:14:23.000Z</time>
      </trkpt>
      <trkpt lat="47.48567" lon="6.67171">
        <ele>407</ele>
        <time>2015-05-08T09:14:26.000Z</time>
      </trkpt>
      <trkpt lat="47.48566" lon="6.67172">
        <ele>407</ele>
        <time>2015-05-08T09:14:27.000Z</time>
      </trkpt>
      <trkpt lat="47.48561" lon="6.67173">
        <ele>407</ele>
        <time>2015-05-08T09:14:40.000Z</time>
      </trkpt>
      <trkpt lat="47.48561" lon="6.67174">
        <ele>407</ele>
        <time>2015-05-08T09:14:41.000Z</time>
      </trkpt>
      <trkpt lat="47.48558" lon="6.67177">
        <ele>407</ele>
        <time>2015-05-08T09:14:44.000Z</time>
      </trkpt>
      <trkpt lat="47.48556" lon="6.67177">
        <ele>407</ele>
        <time>2015-05-08T09:14:45.000Z</time>
      </trkpt>
      <trkpt lat="47.48559" lon="6.67173">
        <ele>407</ele>
        <time>2015-05-08T09:14:51.000Z</time>
      </trkpt>
      <trkpt lat="47.4856" lon="6.67172">
        <ele>407</ele>
        <time>2015-05-08T09:14:52.000Z</time>
      </trkpt>
      <trkpt lat="47.48561" lon="6.67167">
        <ele>407</ele>
        <time>2015-05-08T09:15:03.000Z</time>
      </trkpt>
      <trkpt lat="47.48563" lon="6.67164">
        <ele>406</ele>
        <time>2015-05-08T09:15:03.999Z</time>
      </trkpt>
      <trkpt lat="47.48564" lon="6.67158">
        <ele>406</ele>
        <time>2015-05-08T09:15:08.000Z</time>
      </trkpt>
      <trkpt lat="47.48565" lon="6.67157">
        <ele>406</ele>
        <time>2015-05-08T09:15:09.000Z</time>
      </trkpt>
      <trkpt lat="47.48568" lon="6.67155">
        <ele>406</ele>
        <time>2015-05-08T09:15:11.000Z</time>
      </trkpt>
      <trkpt lat="47.4857" lon="6.67154">
        <ele>406</ele>
        <time>2015-05-08T09:15:12.000Z</time>
      </trkpt>
      <trkpt lat="47.48573" lon="6.67153">
        <ele>406</ele>
        <time>2015-05-08T09:15:13.000Z</time>
      </trkpt>
      <trkpt lat="47.48575" lon="6.67152">
        <ele>406</ele>
        <time>2015-05-08T09:15:14.000Z</time>
      </trkpt>
      <trkpt lat="47.48577" lon="6.6715">
        <ele>406</ele>
        <time>2015-05-08T09:15:15.000Z</time>
      </trkpt>
      <trkpt lat="47.48579" lon="6.67149">
        <ele>406</ele>
        <time>2015-05-08T09:15:15.999Z</time>
      </trkpt>
      <trkpt lat="47.48582" lon="6.67146">
        <ele>406</ele>
        <time>2015-05-08T09:15:17.000Z</time>
      </trkpt>
      <trkpt lat="47.48584" lon="6.67144">
        <ele>404</ele>
        <time>2015-05-08T09:15:18.000Z</time>
      </trkpt>
      <trkpt lat="47.48586" lon="6.67141">
        <ele>404</ele>
        <time>2015-05-08T09:15:19.001Z</time>
      </trkpt>
      <trkpt lat="47.48589" lon="6.6714">
        <ele>404</ele>
        <time>2015-05-08T09:15:20.000Z</time>
      </trkpt>
      <trkpt lat="47.48592" lon="6.6714">
        <ele>404</ele>
        <time>2015-05-08T09:15:21.000Z</time>
      </trkpt>
      <trkpt lat="47.48594" lon="6.67139">
        <ele>404</ele>
        <time>2015-05-08T09:15:22.002Z</time>
      </trkpt>
      <trkpt lat="47.48597" lon="6.6714">
        <ele>404</ele>
        <time>2015-05-08T09:15:23.000Z</time>
      </trkpt>
      <trkpt lat="47.48601" lon="6.6714">
        <ele>404</ele>
        <time>2015-05-08T09:15:24.000Z</time>
      </trkpt>
      <trkpt lat="47.48604" lon="6.67139">
        <ele>404</ele>
        <time>2015-05-08T09:15:25.000Z</time>
      </trkpt>
      <trkpt lat="47.48607" lon="6.67137">
        <ele>404</ele>
        <time>2015-05-08T09:15:26.000Z</time>
      </trkpt>
      <trkpt lat="47.48609" lon="6.67135">
        <ele>404</ele>
        <time>2015-05-08T09:15:27.000Z</time>
      </trkpt>
      <trkpt lat="47.48612" lon="6.67133">
        <ele>404</ele>
        <time>2015-05-08T09:15:28.000Z</time>
      </trkpt>
      <trkpt lat="47.48615" lon="6.67131">
        <ele>404</ele>
        <time>2015-05-08T09:15:29.000Z</time>
      </trkpt>
      <trkpt lat="47.48619" lon="6.67128">
        <ele>404</ele>
        <time>2015-05-08T09:15:30.000Z</time>
      </trkpt>
      <trkpt lat="47.48623" lon="6.67126">
        <ele>404</ele>
        <time>2015-05-08T09:15:31.000Z</time>
      </trkpt>
      <trkpt lat="47.48627" lon="6.67124">
        <ele>403</ele>
        <time>2015-05-08T09:15:32.000Z</time>
      </trkpt>
      <trkpt lat="47.4863" lon="6.67121">
        <ele>403</ele>
        <time>2015-05-08T09:15:33.000Z</time>
      </trkpt>
      <trkpt lat="47.48634" lon="6.67119">
        <ele>403</ele>
        <time>2015-05-08T09:15:34.000Z</time>
      </trkpt>
      <trkpt lat="47.48637" lon="6.67118">
        <ele>403</ele>
        <time>2015-05-08T09:15:35.000Z</time>
      </trkpt>
      <trkpt lat="47.48641" lon="6.67116">
        <ele>403</ele>
        <time>2015-05-08T09:15:36.000Z</time>
      </trkpt>
      <trkpt lat="47.48645" lon="6.67114">
        <ele>403</ele>
        <time>2015-05-08T09:15:37.000Z</time>
      </trkpt>
      <trkpt lat="47.48648" lon="6.67112">
        <ele>403</ele>
        <time>2015-05-08T09:15:38.000Z</time>
      </trkpt>
      <trkpt lat="47.4865" lon="6.67111">
        <ele>403</ele>
        <time>2015-05-08T09:15:39.000Z</time>
      </trkpt>
      <trkpt lat="47.48653" lon="6.67109">
        <ele>403</ele>
        <time>2015-05-08T09:15:40.000Z</time>
      </trkpt>
      <trkpt lat="47.48656" lon="6.67109">
        <ele>403</ele>
        <time>2015-05-08T09:15:41.000Z</time>
      </trkpt>
      <trkpt lat="47.48659" lon="6.67109">
        <ele>403</ele>
        <time>2015-05-08T09:15:42.000Z</time>
      </trkpt>
      <trkpt lat="47.48661" lon="6.67109">
        <ele>403</ele>
        <time>2015-05-08T09:15:43.000Z</time>
      </trkpt>
      <trkpt lat="47.48664" lon="6.6711">
        <ele>403</ele>
        <time>2015-05-08T09:15:44.000Z</time>
      </trkpt>
      <trkpt lat="47.48668" lon="6.6711">
        <ele>401</ele>
        <time>2015-05-08T09:15:45.000Z</time>
      </trkpt>
      <trkpt lat="47.48671" lon="6.67111">
        <ele>401</ele>
        <time>2015-05-08T09:15:46.000Z</time>
      </trkpt>
      <trkpt lat="47.48681" lon="6.6711">
        <ele>401</ele>
        <time>2015-05-08T09:15:47.000Z</time>
      </trkpt>
      <trkpt lat="47.48688" lon="6.6711">
        <ele>401</ele>
        <time>2015-05-08T09:15:48.000Z</time>
      </trkpt>
      <trkpt lat="47.48694" lon="6.67109">
        <ele>401</ele>
        <time>2015-05-08T09:15:49.000Z</time>
      </trkpt>
      <trkpt lat="47.48699" lon="6.67108">
        <ele>401</ele>
        <time>2015-05-08T09:15:50.000Z</time>
      </trkpt>
      <trkpt lat="47.48703" lon="6.67107">
        <ele>401</ele>
        <time>2015-05-08T09:15:51.000Z</time>
      </trkpt>
      <trkpt lat="47.48708" lon="6.67106">
        <ele>401</ele>
        <time>2015-05-08T09:15:52.000Z</time>
      </trkpt>
      <trkpt lat="47.48713" lon="6.67105">
        <ele>401</ele>
        <time>2015-05-08T09:15:53.000Z</time>
      </trkpt>
      <trkpt lat="47.48718" lon="6.67104">
        <ele>400</ele>
        <time>2015-05-08T09:15:54.000Z</time>
      </trkpt>
      <trkpt lat="47.48723" lon="6.67101">
        <ele>400</ele>
        <time>2015-05-08T09:15:55.000Z</time>
      </trkpt>
      <trkpt lat="47.48728" lon="6.67099">
        <ele>400</ele>
        <time>2015-05-08T09:15:56.000Z</time>
      </trkpt>
      <trkpt lat="47.48734" lon="6.67097">
        <ele>400</ele>
        <time>2015-05-08T09:15:57.000Z</time>
      </trkpt>
      <trkpt lat="47.48738" lon="6.67095">
        <ele>400</ele>
        <time>2015-05-08T09:15:58.000Z</time>
      </trkpt>
      <trkpt lat="47.48743" lon="6.67093">
        <ele>400</ele>
        <time>2015-05-08T09:15:59.000Z</time>
      </trkpt>
      <trkpt lat="47.48749" lon="6.6709">
        <ele>399</ele>
        <time>2015-05-08T09:16:00.000Z</time>
      </trkpt>
      <trkpt lat="47.48756" lon="6.67085">
        <ele>398</ele>
        <time>2015-05-08T09:16:01.000Z</time>
      </trkpt>
      <trkpt lat="47.48763" lon="6.67083">
        <ele>398</ele>
        <time>2015-05-08T09:16:02.000Z</time>
      </trkpt>
      <trkpt lat="47.4877" lon="6.67079">
        <ele>397</ele>
        <time>2015-05-08T09:16:03.000Z</time>
      </trkpt>
      <trkpt lat="47.48776" lon="6.67076">
        <ele>397</ele>
        <time>2015-05-08T09:16:04.000Z</time>
      </trkpt>
      <trkpt lat="47.48781" lon="6.67073">
        <ele>397</ele>
        <time>2015-05-08T09:16:05.000Z</time>
      </trkpt>
      <trkpt lat="47.48788" lon="6.67067">
        <ele>396</ele>
        <time>2015-05-08T09:16:06.000Z</time>
      </trkpt>
      <trkpt lat="47.48794" lon="6.67064">
        <ele>396</ele>
        <time>2015-05-08T09:16:07.000Z</time>
      </trkpt>
      <trkpt lat="47.48799" lon="6.67061">
        <ele>396</ele>
        <time>2015-05-08T09:16:08.000Z</time>
      </trkpt>
      <trkpt lat="47.48804" lon="6.67058">
        <ele>396</ele>
        <time>2015-05-08T09:16:09.000Z</time>
      </trkpt>
      <trkpt lat="47.48809" lon="6.67054">
        <ele>396</ele>
        <time>2015-05-08T09:16:10.000Z</time>
      </trkpt>
      <trkpt lat="47.48812" lon="6.67052">
        <ele>396</ele>
        <time>2015-05-08T09:16:11.000Z</time>
      </trkpt>
      <trkpt lat="47.48815" lon="6.67049">
        <ele>396</ele>
        <time>2015-05-08T09:16:12.000Z</time>
      </trkpt>
      <trkpt lat="47.48819" lon="6.67046">
        <ele>396</ele>
        <time>2015-05-08T09:16:13.000Z</time>
      </trkpt>
      <trkpt lat="47.48821" lon="6.67037">
        <ele>396</ele>
        <time>2015-05-08T09:16:14.000Z</time>
      </trkpt>
      <trkpt lat="47.48823" lon="6.67034">
        <ele>396</ele>
        <time>2015-05-08T09:16:15.000Z</time>
      </trkpt>
      <trkpt lat="47.48824" lon="6.67031">
        <ele>396</ele>
        <time>2015-05-08T09:16:16.000Z</time>
      </trkpt>
      <trkpt lat="47.48825" lon="6.67029">
        <ele>396</ele>
        <time>2015-05-08T09:16:18.000Z</time>
      </trkpt>
      <trkpt lat="47.48827" lon="6.67024">
        <ele>396</ele>
        <time>2015-05-08T09:16:19.000Z</time>
      </trkpt>
      <trkpt lat="47.48831" lon="6.67019">
        <ele>395</ele>
        <time>2015-05-08T09:16:21.000Z</time>
      </trkpt>
      <trkpt lat="47.48832" lon="6.67017">
        <ele>395</ele>
        <time>2015-05-08T09:16:22.000Z</time>
      </trkpt>
      <trkpt lat="47.48835" lon="6.67013">
        <ele>393</ele>
        <time>2015-05-08T09:16:24.000Z</time>
      </trkpt>
      <trkpt lat="47.48837" lon="6.6701">
        <ele>393</ele>
        <time>2015-05-08T09:16:25.000Z</time>
      </trkpt>
      <trkpt lat="47.48838" lon="6.67006">
        <ele>394</ele>
        <time>2015-05-08T09:16:26.000Z</time>
      </trkpt>
      <trkpt lat="47.48839" lon="6.67001">
        <ele>394</ele>
        <time>2015-05-08T09:16:27.000Z</time>
      </trkpt>
      <trkpt lat="47.4884" lon="6.66995">
        <ele>394</ele>
        <time>2015-05-08T09:16:28.000Z</time>
      </trkpt>
      <trkpt lat="47.48841" lon="6.66989">
        <ele>394</ele>
        <time>2015-05-08T09:16:29.000Z</time>
      </trkpt>
      <trkpt lat="47.48842" lon="6.66984">
        <ele>393</ele>
        <time>2015-05-08T09:16:30.000Z</time>
      </trkpt>
      <trkpt lat="47.48843" lon="6.66979">
        <ele>393</ele>
        <time>2015-05-08T09:16:31.000Z</time>
      </trkpt>
      <trkpt lat="47.48844" lon="6.66975">
        <ele>393</ele>
        <time>2015-05-08T09:16:32.000Z</time>
      </trkpt>
      <trkpt lat="47.48845" lon="6.6697">
        <ele>393</ele>
        <time>2015-05-08T09:16:33.000Z</time>
      </trkpt>
      <trkpt lat="47.48846" lon="6.66965">
        <ele>393</ele>
        <time>2015-05-08T09:16:34.000Z</time>
      </trkpt>
      <trkpt lat="47.48847" lon="6.6696">
        <ele>393</ele>
        <time>2015-05-08T09:16:35.000Z</time>
      </trkpt>
      <trkpt lat="47.48848" lon="6.66955">
        <ele>393</ele>
        <time>2015-05-08T09:16:36.000Z</time>
      </trkpt>
      <trkpt lat="47.48848" lon="6.6695">
        <ele>393</ele>
        <time>2015-05-08T09:16:37.000Z</time>
      </trkpt>
      <trkpt lat="47.48848" lon="6.66945">
        <ele>393</ele>
        <time>2015-05-08T09:16:38.000Z</time>
      </trkpt>
      <trkpt lat="47.48847" lon="6.6694">
        <ele>393</ele>
        <time>2015-05-08T09:16:39.000Z</time>
      </trkpt>
      <trkpt lat="47.48846" lon="6.66935">
        <ele>393</ele>
        <time>2015-05-08T09:16:40.000Z</time>
      </trkpt>
      <trkpt lat="47.48844" lon="6.6693">
        <ele>393</ele>
        <time>2015-05-08T09:16:41.000Z</time>
      </trkpt>
      <trkpt lat="47.48843" lon="6.66925">
        <ele>394</ele>
        <time>2015-05-08T09:16:42.000Z</time>
      </trkpt>
      <trkpt lat="47.48841" lon="6.6692">
        <ele>394</ele>
        <time>2015-05-08T09:16:43.000Z</time>
      </trkpt>
      <trkpt lat="47.48839" lon="6.66915">
        <ele>394</ele>
        <time>2015-05-08T09:16:44.000Z</time>
      </trkpt>
      <trkpt lat="47.48838" lon="6.66911">
        <ele>394</ele>
        <time>2015-05-08T09:16:44.999Z</time>
      </trkpt>
      <trkpt lat="47.48836" lon="6.66907">
        <ele>393</ele>
        <time>2015-05-08T09:16:46.000Z</time>
      </trkpt>
      <trkpt lat="47.48835" lon="6.66903">
        <ele>393</ele>
        <time>2015-05-08T09:16:47.000Z</time>
      </trkpt>
      <trkpt lat="47.48832" lon="6.66899">
        <ele>394</ele>
        <time>2015-05-08T09:16:48.000Z</time>
      </trkpt>
      <trkpt lat="47.48829" lon="6.66895">
        <ele>394</ele>
        <time>2015-05-08T09:16:49.000Z</time>
      </trkpt>
      <trkpt lat="47.48826" lon="6.66892">
        <ele>394</ele>
        <time>2015-05-08T09:16:50.000Z</time>
      </trkpt>
      <trkpt lat="47.48823" lon="6.66889">
        <ele>394</ele>
        <time>2015-05-08T09:16:51.000Z</time>
      </trkpt>
      <trkpt lat="47.4882" lon="6.66887">
        <ele>394</ele>
        <time>2015-05-08T09:16:52.000Z</time>
      </trkpt>
      <trkpt lat="47.48817" lon="6.66885">
        <ele>394</ele>
        <time>2015-05-08T09:16:53.000Z</time>
      </trkpt>
      <trkpt lat="47.48815" lon="6.66883">
        <ele>394</ele>
        <time>2015-05-08T09:16:54.000Z</time>
      </trkpt>
      <trkpt lat="47.48812" lon="6.66881">
        <ele>394</ele>
        <time>2015-05-08T09:16:55.000Z</time>
      </trkpt>
      <trkpt lat="47.48809" lon="6.66879">
        <ele>394</ele>
        <time>2015-05-08T09:16:56.000Z</time>
      </trkpt>
      <trkpt lat="47.48807" lon="6.66877">
        <ele>394</ele>
        <time>2015-05-08T09:16:57.000Z</time>
      </trkpt>
      <trkpt lat="47.48805" lon="6.66876">
        <ele>394</ele>
        <time>2015-05-08T09:16:58.000Z</time>
      </trkpt>
      <trkpt lat="47.48802" lon="6.66875">
        <ele>394</ele>
        <time>2015-05-08T09:16:59.000Z</time>
      </trkpt>
      <trkpt lat="47.48799" lon="6.66874">
        <ele>394</ele>
        <time>2015-05-08T09:17:00.000Z</time>
      </trkpt>
      <trkpt lat="47.48797" lon="6.66872">
        <ele>394</ele>
        <time>2015-05-08T09:17:01.000Z</time>
      </trkpt>
      <trkpt lat="47.48794" lon="6.66871">
        <ele>394</ele>
        <time>2015-05-08T09:17:02.000Z</time>
      </trkpt>
      <trkpt lat="47.48791" lon="6.6687">
        <ele>394</ele>
        <time>2015-05-08T09:17:03.000Z</time>
      </trkpt>
      <trkpt lat="47.48789" lon="6.66869">
        <ele>394</ele>
        <time>2015-05-08T09:17:04.000Z</time>
      </trkpt>
      <trkpt lat="47.48787" lon="6.66868">
        <ele>394</ele>
        <time>2015-05-08T09:17:05.000Z</time>
      </trkpt>
      <trkpt lat="47.48785" lon="6.66866">
        <ele>394</ele>
        <time>2015-05-08T09:17:06.000Z</time>
      </trkpt>
      <trkpt lat="47.48783" lon="6.66863">
        <ele>394</ele>
        <time>2015-05-08T09:17:07.000Z</time>
      </trkpt>
      <trkpt lat="47.4878" lon="6.66859">
        <ele>394</ele>
        <time>2015-05-08T09:17:09.000Z</time>
      </trkpt>
      <trkpt lat="47.48779" lon="6.66857">
        <ele>394</ele>
        <time>2015-05-08T09:17:10.000Z</time>
      </trkpt>
      <trkpt lat="47.4878" lon="6.66852">
        <ele>393</ele>
        <time>2015-05-08T09:17:12.000Z</time>
      </trkpt>
      <trkpt lat="47.48781" lon="6.6685">
        <ele>393</ele>
        <time>2015-05-08T09:17:13.000Z</time>
      </trkpt>
      <trkpt lat="47.48782" lon="6.66846">
        <ele>393</ele>
        <time>2015-05-08T09:17:14.000Z</time>
      </trkpt>
      <trkpt lat="47.48784" lon="6.66841">
        <ele>393</ele>
        <time>2015-05-08T09:17:15.000Z</time>
      </trkpt>
      <trkpt lat="47.48786" lon="6.66836">
        <ele>393</ele>
        <time>2015-05-08T09:17:16.000Z</time>
      </trkpt>
      <trkpt lat="47.48789" lon="6.6683">
        <ele>391</ele>
        <time>2015-05-08T09:17:17.000Z</time>
      </trkpt>
      <trkpt lat="47.48791" lon="6.66825">
        <ele>391</ele>
        <time>2015-05-08T09:17:18.000Z</time>
      </trkpt>
      <trkpt lat="47.48794" lon="6.66819">
        <ele>391</ele>
        <time>2015-05-08T09:17:19.000Z</time>
      </trkpt>
      <trkpt lat="47.48796" lon="6.66813">
        <ele>391</ele>
        <time>2015-05-08T09:17:20.000Z</time>
      </trkpt>
      <trkpt lat="47.48798" lon="6.66808">
        <ele>391</ele>
        <time>2015-05-08T09:17:20.999Z</time>
      </trkpt>
      <trkpt lat="47.48805" lon="6.66803">
        <ele>391</ele>
        <time>2015-05-08T09:17:22.000Z</time>
      </trkpt>
      <trkpt lat="47.4881" lon="6.66799">
        <ele>391</ele>
        <time>2015-05-08T09:17:23.000Z</time>
      </trkpt>
      <trkpt lat="47.48814" lon="6.66796">
        <ele>391</ele>
        <time>2015-05-08T09:17:24.001Z</time>
      </trkpt>
      <trkpt lat="47.48817" lon="6.66801">
        <ele>391</ele>
        <time>2015-05-08T09:17:25.000Z</time>
      </trkpt>
      <trkpt lat="47.48822" lon="6.668">
        <ele>391</ele>
        <time>2015-05-08T09:17:26.000Z</time>
      </trkpt>
      <trkpt lat="47.48825" lon="6.66802">
        <ele>391</ele>
        <time>2015-05-08T09:17:27.000Z</time>
      </trkpt>
      <trkpt lat="47.48829" lon="6.66805">
        <ele>391</ele>
        <time>2015-05-08T09:17:28.000Z</time>
      </trkpt>
      <trkpt lat="47.48832" lon="6.66807">
        <ele>391</ele>
        <time>2015-05-08T09:17:29.000Z</time>
      </trkpt>
      <trkpt lat="47.48836" lon="6.6681">
        <ele>389</ele>
        <time>2015-05-08T09:17:30.000Z</time>
      </trkpt>
      <trkpt lat="47.48841" lon="6.66812">
        <ele>389</ele>
        <time>2015-05-08T09:17:31.000Z</time>
      </trkpt>
      <trkpt lat="47.48845" lon="6.66815">
        <ele>389</ele>
        <time>2015-05-08T09:17:31.999Z</time>
      </trkpt>
      <trkpt lat="47.4885" lon="6.66817">
        <ele>389</ele>
        <time>2015-05-08T09:17:33.000Z</time>
      </trkpt>
      <trkpt lat="47.48854" lon="6.66819">
        <ele>389</ele>
        <time>2015-05-08T09:17:34.000Z</time>
      </trkpt>
      <trkpt lat="47.48858" lon="6.66823">
        <ele>389</ele>
        <time>2015-05-08T09:17:35.000Z</time>
      </trkpt>
      <trkpt lat="47.48862" lon="6.66827">
        <ele>389</ele>
        <time>2015-05-08T09:17:36.000Z</time>
      </trkpt>
      <trkpt lat="47.48866" lon="6.66833">
        <ele>388</ele>
        <time>2015-05-08T09:17:37.000Z</time>
      </trkpt>
      <trkpt lat="47.4887" lon="6.66837">
        <ele>389</ele>
        <time>2015-05-08T09:17:38.000Z</time>
      </trkpt>
      <trkpt lat="47.48874" lon="6.66843">
        <ele>389</ele>
        <time>2015-05-08T09:17:39.000Z</time>
      </trkpt>
      <trkpt lat="47.48878" lon="6.66848">
        <ele>389</ele>
        <time>2015-05-08T09:17:40.000Z</time>
      </trkpt>
      <trkpt lat="47.48881" lon="6.66853">
        <ele>389</ele>
        <time>2015-05-08T09:17:41.000Z</time>
      </trkpt>
      <trkpt lat="47.48883" lon="6.66858">
        <ele>389</ele>
        <time>2015-05-08T09:17:42.000Z</time>
      </trkpt>
      <trkpt lat="47.48885" lon="6.66863">
        <ele>389</ele>
        <time>2015-05-08T09:17:43.000Z</time>
      </trkpt>
      <trkpt lat="47.48887" lon="6.66868">
        <ele>389</ele>
        <time>2015-05-08T09:17:44.000Z</time>
      </trkpt>
      <trkpt lat="47.4889" lon="6.66872">
        <ele>389</ele>
        <time>2015-05-08T09:17:45.001Z</time>
      </trkpt>
      <trkpt lat="47.48892" lon="6.66877">
        <ele>389</ele>
        <time>2015-05-08T09:17:46.000Z</time>
      </trkpt>
      <trkpt lat="47.48893" lon="6.66882">
        <ele>389</ele>
        <time>2015-05-08T09:17:47.000Z</time>
      </trkpt>
      <trkpt lat="47.48896" lon="6.66886">
        <ele>389</ele>
        <time>2015-05-08T09:17:48.000Z</time>
      </trkpt>
      <trkpt lat="47.48897" lon="6.66892">
        <ele>389</ele>
        <time>2015-05-08T09:17:49.000Z</time>
      </trkpt>
      <trkpt lat="47.48899" lon="6.66897">
        <ele>389</ele>
        <time>2015-05-08T09:17:50.000Z</time>
      </trkpt>
      <trkpt lat="47.489" lon="6.66903">
        <ele>389</ele>
        <time>2015-05-08T09:17:51.000Z</time>
      </trkpt>
      <trkpt lat="47.48901" lon="6.66909">
        <ele>389</ele>
        <time>2015-05-08T09:17:52.000Z</time>
      </trkpt>
      <trkpt lat="47.48903" lon="6.66914">
        <ele>389</ele>
        <time>2015-05-08T09:17:53.000Z</time>
      </trkpt>
      <trkpt lat="47.48904" lon="6.66919">
        <ele>389</ele>
        <time>2015-05-08T09:17:54.000Z</time>
      </trkpt>
      <trkpt lat="47.48905" lon="6.66924">
        <ele>390</ele>
        <time>2015-05-08T09:17:55.000Z</time>
      </trkpt>
      <trkpt lat="47.48905" lon="6.66929">
        <ele>390</ele>
        <time>2015-05-08T09:17:56.000Z</time>
      </trkpt>
      <trkpt lat="47.48905" lon="6.66935">
        <ele>390</ele>
        <time>2015-05-08T09:17:57.000Z</time>
      </trkpt>
      <trkpt lat="47.48904" lon="6.66941">
        <ele>390</ele>
        <time>2015-05-08T09:17:58.000Z</time>
      </trkpt>
      <trkpt lat="47.48903" lon="6.66947">
        <ele>390</ele>
        <time>2015-05-08T09:17:59.000Z</time>
      </trkpt>
      <trkpt lat="47.48904" lon="6.66954">
        <ele>390</ele>
        <time>2015-05-08T09:18:00.000Z</time>
      </trkpt>
      <trkpt lat="47.48905" lon="6.6696">
        <ele>390</ele>
        <time>2015-05-08T09:18:01.000Z</time>
      </trkpt>
      <trkpt lat="47.48904" lon="6.66965">
        <ele>390</ele>
        <time>2015-05-08T09:18:02.000Z</time>
      </trkpt>
      <trkpt lat="47.48904" lon="6.6697">
        <ele>390</ele>
        <time>2015-05-08T09:18:03.000Z</time>
      </trkpt>
      <trkpt lat="47.48903" lon="6.66975">
        <ele>390</ele>
        <time>2015-05-08T09:18:04.000Z</time>
      </trkpt>
      <trkpt lat="47.48902" lon="6.66981">
        <ele>390</ele>
        <time>2015-05-08T09:18:05.001Z</time>
      </trkpt>
      <trkpt lat="47.48902" lon="6.66984">
        <ele>390</ele>
        <time>2015-05-08T09:18:06.000Z</time>
      </trkpt>
      <trkpt lat="47.48902" lon="6.66988">
        <ele>390</ele>
        <time>2015-05-08T09:18:07.000Z</time>
      </trkpt>
      <trkpt lat="47.48903" lon="6.66992">
        <ele>390</ele>
        <time>2015-05-08T09:18:08.000Z</time>
      </trkpt>
      <trkpt lat="47.48903" lon="6.66996">
        <ele>390</ele>
        <time>2015-05-08T09:18:09.000Z</time>
      </trkpt>
      <trkpt lat="47.48905" lon="6.66999">
        <ele>389</ele>
        <time>2015-05-08T09:18:10.000Z</time>
      </trkpt>
      <trkpt lat="47.48909" lon="6.67001">
        <ele>389</ele>
        <time>2015-05-08T09:18:11.000Z</time>
      </trkpt>
      <trkpt lat="47.48913" lon="6.67002">
        <ele>388</ele>
        <time>2015-05-08T09:18:12.000Z</time>
      </trkpt>
      <trkpt lat="47.48921" lon="6.66999">
        <ele>387</ele>
        <time>2015-05-08T09:18:13.000Z</time>
      </trkpt>
      <trkpt lat="47.48927" lon="6.67">
        <ele>386</ele>
        <time>2015-05-08T09:18:14.000Z</time>
      </trkpt>
      <trkpt lat="47.48934" lon="6.67002">
        <ele>384</ele>
        <time>2015-05-08T09:18:15.000Z</time>
      </trkpt>
      <trkpt lat="47.48939" lon="6.67002">
        <ele>384</ele>
        <time>2015-05-08T09:18:16.000Z</time>
      </trkpt>
      <trkpt lat="47.48945" lon="6.67001">
        <ele>383</ele>
        <time>2015-05-08T09:18:17.000Z</time>
      </trkpt>
      <trkpt lat="47.48951" lon="6.66999">
        <ele>384</ele>
        <time>2015-05-08T09:18:18.000Z</time>
      </trkpt>
      <trkpt lat="47.48957" lon="6.66998">
        <ele>383</ele>
        <time>2015-05-08T09:18:19.000Z</time>
      </trkpt>
      <trkpt lat="47.48964" lon="6.66995">
        <ele>382</ele>
        <time>2015-05-08T09:18:20.000Z</time>
      </trkpt>
      <trkpt lat="47.4897" lon="6.66991">
        <ele>382</ele>
        <time>2015-05-08T09:18:21.000Z</time>
      </trkpt>
      <trkpt lat="47.48977" lon="6.66985">
        <ele>381</ele>
        <time>2015-05-08T09:18:22.000Z</time>
      </trkpt>
      <trkpt lat="47.48983" lon="6.6698">
        <ele>381</ele>
        <time>2015-05-08T09:18:23.000Z</time>
      </trkpt>
      <trkpt lat="47.48988" lon="6.6697">
        <ele>381</ele>
        <time>2015-05-08T09:18:24.000Z</time>
      </trkpt>
      <trkpt lat="47.48994" lon="6.66963">
        <ele>381</ele>
        <time>2015-05-08T09:18:25.000Z</time>
      </trkpt>
      <trkpt lat="47.48998" lon="6.66954">
        <ele>381</ele>
        <time>2015-05-08T09:18:26.000Z</time>
      </trkpt>
      <trkpt lat="47.49001" lon="6.66945">
        <ele>377</ele>
        <time>2015-05-08T09:18:27.000Z</time>
      </trkpt>
      <trkpt lat="47.49005" lon="6.66935">
        <ele>378</ele>
        <time>2015-05-08T09:18:28.000Z</time>
      </trkpt>
      <trkpt lat="47.49009" lon="6.66925">
        <ele>378</ele>
        <time>2015-05-08T09:18:29.000Z</time>
      </trkpt>
      <trkpt lat="47.49012" lon="6.66917">
        <ele>378</ele>
        <time>2015-05-08T09:18:30.000Z</time>
      </trkpt>
      <trkpt lat="47.49015" lon="6.66909">
        <ele>380</ele>
        <time>2015-05-08T09:18:31.000Z</time>
      </trkpt>
      <trkpt lat="47.49017" lon="6.66901">
        <ele>380</ele>
        <time>2015-05-08T09:18:32.000Z</time>
      </trkpt>
      <trkpt lat="47.4902" lon="6.66894">
        <ele>380</ele>
        <time>2015-05-08T09:18:33.000Z</time>
      </trkpt>
      <trkpt lat="47.49024" lon="6.66887">
        <ele>380</ele>
        <time>2015-05-08T09:18:34.000Z</time>
      </trkpt>
      <trkpt lat="47.49026" lon="6.66883">
        <ele>380</ele>
        <time>2015-05-08T09:18:35.000Z</time>
      </trkpt>
      <trkpt lat="47.4903" lon="6.6688">
        <ele>381</ele>
        <time>2015-05-08T09:18:36.000Z</time>
      </trkpt>
      <trkpt lat="47.49034" lon="6.66877">
        <ele>381</ele>
        <time>2015-05-08T09:18:37.000Z</time>
      </trkpt>
      <trkpt lat="47.49038" lon="6.66876">
        <ele>381</ele>
        <time>2015-05-08T09:18:38.000Z</time>
      </trkpt>
      <trkpt lat="47.49042" lon="6.66875">
        <ele>381</ele>
        <time>2015-05-08T09:18:39.000Z</time>
      </trkpt>
      <trkpt lat="47.49046" lon="6.66873">
        <ele>381</ele>
        <time>2015-05-08T09:18:40.000Z</time>
      </trkpt>
      <trkpt lat="47.4905" lon="6.66872">
        <ele>381</ele>
        <time>2015-05-08T09:18:41.000Z</time>
      </trkpt>
      <trkpt lat="47.49053" lon="6.6687">
        <ele>381</ele>
        <time>2015-05-08T09:18:42.000Z</time>
      </trkpt>
      <trkpt lat="47.49056" lon="6.66868">
        <ele>381</ele>
        <time>2015-05-08T09:18:43.000Z</time>
      </trkpt>
      <trkpt lat="47.4906" lon="6.66867">
        <ele>381</ele>
        <time>2015-05-08T09:18:44.000Z</time>
      </trkpt>
      <trkpt lat="47.49063" lon="6.66865">
        <ele>381</ele>
        <time>2015-05-08T09:18:45.000Z</time>
      </trkpt>
      <trkpt lat="47.49066" lon="6.66864">
        <ele>381</ele>
        <time>2015-05-08T09:18:46.000Z</time>
      </trkpt>
      <trkpt lat="47.49069" lon="6.66863">
        <ele>382</ele>
        <time>2015-05-08T09:18:47.000Z</time>
      </trkpt>
      <trkpt lat="47.49071" lon="6.66861">
        <ele>382</ele>
        <time>2015-05-08T09:18:48.000Z</time>
      </trkpt>
      <trkpt lat="47.49074" lon="6.6686">
        <ele>382</ele>
        <time>2015-05-08T09:18:49.000Z</time>
      </trkpt>
      <trkpt lat="47.49076" lon="6.66859">
        <ele>382</ele>
        <time>2015-05-08T09:18:50.000Z</time>
      </trkpt>
      <trkpt lat="47.49078" lon="6.66858">
        <ele>382</ele>
        <time>2015-05-08T09:18:51.000Z</time>
      </trkpt>
      <trkpt lat="47.49081" lon="6.66856">
        <ele>382</ele>
        <time>2015-05-08T09:18:52.000Z</time>
      </trkpt>
      <trkpt lat="47.49083" lon="6.66854">
        <ele>382</ele>
        <time>2015-05-08T09:18:53.000Z</time>
      </trkpt>
      <trkpt lat="47.49085" lon="6.66852">
        <ele>383</ele>
        <time>2015-05-08T09:18:54.000Z</time>
      </trkpt>
      <trkpt lat="47.49087" lon="6.6685">
        <ele>383</ele>
        <time>2015-05-08T09:18:55.000Z</time>
      </trkpt>
      <trkpt lat="47.49089" lon="6.66849">
        <ele>383</ele>
        <time>2015-05-08T09:18:56.000Z</time>
      </trkpt>
      <trkpt lat="47.49092" lon="6.66847">
        <ele>383</ele>
        <time>2015-05-08T09:18:57.000Z</time>
      </trkpt>
      <trkpt lat="47.49094" lon="6.66845">
        <ele>383</ele>
        <time>2015-05-08T09:18:58.000Z</time>
      </trkpt>
      <trkpt lat="47.49096" lon="6.66842">
        <ele>383</ele>
        <time>2015-05-08T09:18:59.000Z</time>
      </trkpt>
      <trkpt lat="47.49099" lon="6.66839">
        <ele>383</ele>
        <time>2015-05-08T09:19:00.000Z</time>
      </trkpt>
      <trkpt lat="47.49102" lon="6.66836">
        <ele>383</ele>
        <time>2015-05-08T09:19:01.000Z</time>
      </trkpt>
      <trkpt lat="47.49104" lon="6.66833">
        <ele>387</ele>
        <time>2015-05-08T09:19:01.999Z</time>
      </trkpt>
      <trkpt lat="47.49107" lon="6.66831">
        <ele>387</ele>
        <time>2015-05-08T09:19:02.999Z</time>
      </trkpt>
      <trkpt lat="47.49109" lon="6.66829">
        <ele>388</ele>
        <time>2015-05-08T09:19:04.000Z</time>
      </trkpt>
      <trkpt lat="47.49112" lon="6.66826">
        <ele>388</ele>
        <time>2015-05-08T09:19:06.000Z</time>
      </trkpt>
      <trkpt lat="47.49113" lon="6.66825">
        <ele>388</ele>
        <time>2015-05-08T09:19:07.000Z</time>
      </trkpt>
      <trkpt lat="47.49116" lon="6.6682">
        <ele>388</ele>
        <time>2015-05-08T09:19:09.000Z</time>
      </trkpt>
      <trkpt lat="47.49117" lon="6.66818">
        <ele>388</ele>
        <time>2015-05-08T09:19:10.000Z</time>
      </trkpt>
      <trkpt lat="47.4912" lon="6.66814">
        <ele>388</ele>
        <time>2015-05-08T09:19:11.000Z</time>
      </trkpt>
      <trkpt lat="47.49123" lon="6.66811">
        <ele>389</ele>
        <time>2015-05-08T09:19:12.000Z</time>
      </trkpt>
      <trkpt lat="47.49126" lon="6.66808">
        <ele>389</ele>
        <time>2015-05-08T09:19:13.000Z</time>
      </trkpt>
      <trkpt lat="47.49128" lon="6.66806">
        <ele>389</ele>
        <time>2015-05-08T09:19:14.000Z</time>
      </trkpt>
      <trkpt lat="47.4913" lon="6.66804">
        <ele>389</ele>
        <time>2015-05-08T09:19:15.000Z</time>
      </trkpt>
      <trkpt lat="47.49132" lon="6.66802">
        <ele>389</ele>
        <time>2015-05-08T09:19:16.001Z</time>
      </trkpt>
      <trkpt lat="47.49135" lon="6.66799">
        <ele>389</ele>
        <time>2015-05-08T09:19:18.000Z</time>
      </trkpt>
      <trkpt lat="47.49137" lon="6.66798">
        <ele>389</ele>
        <time>2015-05-08T09:19:19.000Z</time>
      </trkpt>
      <trkpt lat="47.4914" lon="6.66797">
        <ele>389</ele>
        <time>2015-05-08T09:19:20.000Z</time>
      </trkpt>
      <trkpt lat="47.49143" lon="6.66796">
        <ele>389</ele>
        <time>2015-05-08T09:19:21.000Z</time>
      </trkpt>
      <trkpt lat="47.49146" lon="6.66795">
        <ele>390</ele>
        <time>2015-05-08T09:19:22.000Z</time>
      </trkpt>
      <trkpt lat="47.49149" lon="6.66794">
        <ele>390</ele>
        <time>2015-05-08T09:19:22.999Z</time>
      </trkpt>
      <trkpt lat="47.49153" lon="6.66793">
        <ele>390</ele>
        <time>2015-05-08T09:19:24.000Z</time>
      </trkpt>
      <trkpt lat="47.49157" lon="6.66791">
        <ele>390</ele>
        <time>2015-05-08T09:19:25.000Z</time>
      </trkpt>
      <trkpt lat="47.49161" lon="6.66789">
        <ele>390</ele>
        <time>2015-05-08T09:19:26.000Z</time>
      </trkpt>
      <trkpt lat="47.49164" lon="6.66787">
        <ele>390</ele>
        <time>2015-05-08T09:19:27.000Z</time>
      </trkpt>
      <trkpt lat="47.49166" lon="6.66786">
        <ele>390</ele>
        <time>2015-05-08T09:19:28.000Z</time>
      </trkpt>
      <trkpt lat="47.49169" lon="6.66784">
        <ele>391</ele>
        <time>2015-05-08T09:19:29.000Z</time>
      </trkpt>
      <trkpt lat="47.49171" lon="6.66783">
        <ele>391</ele>
        <time>2015-05-08T09:19:30.000Z</time>
      </trkpt>
      <trkpt lat="47.49173" lon="6.66783">
        <ele>391</ele>
        <time>2015-05-08T09:19:31.000Z</time>
      </trkpt>
      <trkpt lat="47.49176" lon="6.66782">
        <ele>391</ele>
        <time>2015-05-08T09:19:32.000Z</time>
      </trkpt>
      <trkpt lat="47.49178" lon="6.66781">
        <ele>391</ele>
        <time>2015-05-08T09:19:33.000Z</time>
      </trkpt>
      <trkpt lat="47.49181" lon="6.66781">
        <ele>391</ele>
        <time>2015-05-08T09:19:34.000Z</time>
      </trkpt>
      <trkpt lat="47.49183" lon="6.6678">
        <ele>391</ele>
        <time>2015-05-08T09:19:35.000Z</time>
      </trkpt>
      <trkpt lat="47.49187" lon="6.66777">
        <ele>391</ele>
        <time>2015-05-08T09:19:37.000Z</time>
      </trkpt>
      <trkpt lat="47.49188" lon="6.66776">
        <ele>391</ele>
        <time>2015-05-08T09:19:38.000Z</time>
      </trkpt>
      <trkpt lat="47.49191" lon="6.66775">
        <ele>391</ele>
        <time>2015-05-08T09:19:39.000Z</time>
      </trkpt>
      <trkpt lat="47.49193" lon="6.66774">
        <ele>391</ele>
        <time>2015-05-08T09:19:40.000Z</time>
      </trkpt>
      <trkpt lat="47.49196" lon="6.66773">
        <ele>391</ele>
        <time>2015-05-08T09:19:41.000Z</time>
      </trkpt>
      <trkpt lat="47.49198" lon="6.66772">
        <ele>391</ele>
        <time>2015-05-08T09:19:42.000Z</time>
      </trkpt>
      <trkpt lat="47.49201" lon="6.66772">
        <ele>391</ele>
        <time>2015-05-08T09:19:44.000Z</time>
      </trkpt>
      <trkpt lat="47.49203" lon="6.66771">
        <ele>391</ele>
        <time>2015-05-08T09:19:45.000Z</time>
      </trkpt>
      <trkpt lat="47.49206" lon="6.6677">
        <ele>391</ele>
        <time>2015-05-08T09:19:46.000Z</time>
      </trkpt>
      <trkpt lat="47.49208" lon="6.66769">
        <ele>391</ele>
        <time>2015-05-08T09:19:47.000Z</time>
      </trkpt>
      <trkpt lat="47.49212" lon="6.66768">
        <ele>391</ele>
        <time>2015-05-08T09:19:48.000Z</time>
      </trkpt>
      <trkpt lat="47.49215" lon="6.66767">
        <ele>392</ele>
        <time>2015-05-08T09:19:49.000Z</time>
      </trkpt>
      <trkpt lat="47.49218" lon="6.66766">
        <ele>392</ele>
        <time>2015-05-08T09:19:50.000Z</time>
      </trkpt>
      <trkpt lat="47.49221" lon="6.66765">
        <ele>392</ele>
        <time>2015-05-08T09:19:51.000Z</time>
      </trkpt>
      <trkpt lat="47.49224" lon="6.66764">
        <ele>392</ele>
        <time>2015-05-08T09:19:52.000Z</time>
      </trkpt>
      <trkpt lat="47.49227" lon="6.66762">
        <ele>392</ele>
        <time>2015-05-08T09:19:53.000Z</time>
      </trkpt>
      <trkpt lat="47.4923" lon="6.6676">
        <ele>392</ele>
        <time>2015-05-08T09:19:54.000Z</time>
      </trkpt>
      <trkpt lat="47.49232" lon="6.66759">
        <ele>393</ele>
        <time>2015-05-08T09:19:55.000Z</time>
      </trkpt>
      <trkpt lat="47.49235" lon="6.66756">
        <ele>393</ele>
        <time>2015-05-08T09:19:56.000Z</time>
      </trkpt>
      <trkpt lat="47.49238" lon="6.66755">
        <ele>393</ele>
        <time>2015-05-08T09:19:57.000Z</time>
      </trkpt>
      <trkpt lat="47.4924" lon="6.66753">
        <ele>393</ele>
        <time>2015-05-08T09:19:58.000Z</time>
      </trkpt>
      <trkpt lat="47.49242" lon="6.66752">
        <ele>394</ele>
        <time>2015-05-08T09:19:59.000Z</time>
      </trkpt>
      <trkpt lat="47.49245" lon="6.6675">
        <ele>396</ele>
        <time>2015-05-08T09:20:00.000Z</time>
      </trkpt>
      <trkpt lat="47.49247" lon="6.66748">
        <ele>396</ele>
        <time>2015-05-08T09:20:01.000Z</time>
      </trkpt>
      <trkpt lat="47.4925" lon="6.66747">
        <ele>395</ele>
        <time>2015-05-08T09:20:02.000Z</time>
      </trkpt>
      <trkpt lat="47.49252" lon="6.66745">
        <ele>396</ele>
        <time>2015-05-08T09:20:03.000Z</time>
      </trkpt>
      <trkpt lat="47.49254" lon="6.66744">
        <ele>396</ele>
        <time>2015-05-08T09:20:04.000Z</time>
      </trkpt>
      <trkpt lat="47.49256" lon="6.66742">
        <ele>397</ele>
        <time>2015-05-08T09:20:05.000Z</time>
      </trkpt>
      <trkpt lat="47.49258" lon="6.66741">
        <ele>397</ele>
        <time>2015-05-08T09:20:06.000Z</time>
      </trkpt>
      <trkpt lat="47.49261" lon="6.66739">
        <ele>397</ele>
        <time>2015-05-08T09:20:07.000Z</time>
      </trkpt>
      <trkpt lat="47.49263" lon="6.66737">
        <ele>397</ele>
        <time>2015-05-08T09:20:08.000Z</time>
      </trkpt>
      <trkpt lat="47.49265" lon="6.66735">
        <ele>398</ele>
        <time>2015-05-08T09:20:09.000Z</time>
      </trkpt>
      <trkpt lat="47.49267" lon="6.66733">
        <ele>398</ele>
        <time>2015-05-08T09:20:10.000Z</time>
      </trkpt>
      <trkpt lat="47.49269" lon="6.66732">
        <ele>398</ele>
        <time>2015-05-08T09:20:11.000Z</time>
      </trkpt>
      <trkpt lat="47.49273" lon="6.66729">
        <ele>398</ele>
        <time>2015-05-08T09:20:13.000Z</time>
      </trkpt>
      <trkpt lat="47.49274" lon="6.66729">
        <ele>398</ele>
        <time>2015-05-08T09:20:14.000Z</time>
      </trkpt>
      <trkpt lat="47.49278" lon="6.66728">
        <ele>399</ele>
        <time>2015-05-08T09:20:16.000Z</time>
      </trkpt>
      <trkpt lat="47.4928" lon="6.66727">
        <ele>399</ele>
        <time>2015-05-08T09:20:17.000Z</time>
      </trkpt>
      <trkpt lat="47.49282" lon="6.66726">
        <ele>399</ele>
        <time>2015-05-08T09:20:18.000Z</time>
      </trkpt>
      <trkpt lat="47.49284" lon="6.66724">
        <ele>399</ele>
        <time>2015-05-08T09:20:19.000Z</time>
      </trkpt>
      <trkpt lat="47.49287" lon="6.66723">
        <ele>399</ele>
        <time>2015-05-08T09:20:20.000Z</time>
      </trkpt>
      <trkpt lat="47.49289" lon="6.66722">
        <ele>399</ele>
        <time>2015-05-08T09:20:21.000Z</time>
      </trkpt>
      <trkpt lat="47.49292" lon="6.66721">
        <ele>399</ele>
        <time>2015-05-08T09:20:22.000Z</time>
      </trkpt>
      <trkpt lat="47.49294" lon="6.6672">
        <ele>399</ele>
        <time>2015-05-08T09:20:23.000Z</time>
      </trkpt>
      <trkpt lat="47.49297" lon="6.66719">
        <ele>399</ele>
        <time>2015-05-08T09:20:24.000Z</time>
      </trkpt>
      <trkpt lat="47.49299" lon="6.66718">
        <ele>399</ele>
        <time>2015-05-08T09:20:25.000Z</time>
      </trkpt>
      <trkpt lat="47.49302" lon="6.66716">
        <ele>399</ele>
        <time>2015-05-08T09:20:27.001Z</time>
      </trkpt>
      <trkpt lat="47.49305" lon="6.66716">
        <ele>399</ele>
        <time>2015-05-08T09:20:28.000Z</time>
      </trkpt>
      <trkpt lat="47.49307" lon="6.66716">
        <ele>399</ele>
        <time>2015-05-08T09:20:29.000Z</time>
      </trkpt>
      <trkpt lat="47.4931" lon="6.66716">
        <ele>399</ele>
        <time>2015-05-08T09:20:30.000Z</time>
      </trkpt>
      <trkpt lat="47.49312" lon="6.66716">
        <ele>399</ele>
        <time>2015-05-08T09:20:31.000Z</time>
      </trkpt>
      <trkpt lat="47.49315" lon="6.66716">
        <ele>399</ele>
        <time>2015-05-08T09:20:32.000Z</time>
      </trkpt>
      <trkpt lat="47.49318" lon="6.66715">
        <ele>399</ele>
        <time>2015-05-08T09:20:33.000Z</time>
      </trkpt>
      <trkpt lat="47.4932" lon="6.66714">
        <ele>399</ele>
        <time>2015-05-08T09:20:34.000Z</time>
      </trkpt>
      <trkpt lat="47.49323" lon="6.66713">
        <ele>399</ele>
        <time>2015-05-08T09:20:35.000Z</time>
      </trkpt>
      <trkpt lat="47.49325" lon="6.66712">
        <ele>400</ele>
        <time>2015-05-08T09:20:36.000Z</time>
      </trkpt>
      <trkpt lat="47.49328" lon="6.6671">
        <ele>400</ele>
        <time>2015-05-08T09:20:37.000Z</time>
      </trkpt>
      <trkpt lat="47.49331" lon="6.66707">
        <ele>400</ele>
        <time>2015-05-08T09:20:38.000Z</time>
      </trkpt>
      <trkpt lat="47.49333" lon="6.66703">
        <ele>400</ele>
        <time>2015-05-08T09:20:39.000Z</time>
      </trkpt>
      <trkpt lat="47.49335" lon="6.667">
        <ele>399</ele>
        <time>2015-05-08T09:20:40.000Z</time>
      </trkpt>
      <trkpt lat="47.49337" lon="6.66696">
        <ele>399</ele>
        <time>2015-05-08T09:20:41.000Z</time>
      </trkpt>
      <trkpt lat="47.4934" lon="6.66694">
        <ele>400</ele>
        <time>2015-05-08T09:20:42.000Z</time>
      </trkpt>
      <trkpt lat="47.49344" lon="6.66692">
        <ele>400</ele>
        <time>2015-05-08T09:20:43.000Z</time>
      </trkpt>
      <trkpt lat="47.49348" lon="6.66691">
        <ele>400</ele>
        <time>2015-05-08T09:20:44.000Z</time>
      </trkpt>
      <trkpt lat="47.49352" lon="6.6669">
        <ele>399</ele>
        <time>2015-05-08T09:20:45.000Z</time>
      </trkpt>
      <trkpt lat="47.49356" lon="6.66689">
        <ele>399</ele>
        <time>2015-05-08T09:20:46.000Z</time>
      </trkpt>
      <trkpt lat="47.49363" lon="6.66686">
        <ele>399</ele>
        <time>2015-05-08T09:20:47.000Z</time>
      </trkpt>
      <trkpt lat="47.49367" lon="6.66684">
        <ele>399</ele>
        <time>2015-05-08T09:20:47.999Z</time>
      </trkpt>
      <trkpt lat="47.49372" lon="6.66678">
        <ele>399</ele>
        <time>2015-05-08T09:20:49.000Z</time>
      </trkpt>
      <trkpt lat="47.49376" lon="6.66675">
        <ele>399</ele>
        <time>2015-05-08T09:20:50.000Z</time>
      </trkpt>
      <trkpt lat="47.4938" lon="6.66671">
        <ele>399</ele>
        <time>2015-05-08T09:20:51.000Z</time>
      </trkpt>
      <trkpt lat="47.49384" lon="6.66667">
        <ele>398</ele>
        <time>2015-05-08T09:20:51.999Z</time>
      </trkpt>
      <trkpt lat="47.49388" lon="6.66661">
        <ele>403</ele>
        <time>2015-05-08T09:20:53.000Z</time>
      </trkpt>
      <trkpt lat="47.49393" lon="6.66656">
        <ele>402</ele>
        <time>2015-05-08T09:20:54.000Z</time>
      </trkpt>
      <trkpt lat="47.49397" lon="6.66652">
        <ele>402</ele>
        <time>2015-05-08T09:20:55.000Z</time>
      </trkpt>
      <trkpt lat="47.494" lon="6.66647">
        <ele>402</ele>
        <time>2015-05-08T09:20:56.000Z</time>
      </trkpt>
      <trkpt lat="47.49404" lon="6.66643">
        <ele>402</ele>
        <time>2015-05-08T09:20:57.000Z</time>
      </trkpt>
      <trkpt lat="47.49408" lon="6.6664">
        <ele>403</ele>
        <time>2015-05-08T09:20:58.000Z</time>
      </trkpt>
      <trkpt lat="47.49412" lon="6.66636">
        <ele>403</ele>
        <time>2015-05-08T09:20:59.000Z</time>
      </trkpt>
      <trkpt lat="47.49416" lon="6.66629">
        <ele>403</ele>
        <time>2015-05-08T09:21:00.000Z</time>
      </trkpt>
      <trkpt lat="47.49421" lon="6.66625">
        <ele>400</ele>
        <time>2015-05-08T09:21:01.000Z</time>
      </trkpt>
      <trkpt lat="47.49425" lon="6.66618">
        <ele>401</ele>
        <time>2015-05-08T09:21:02.000Z</time>
      </trkpt>
      <trkpt lat="47.4943" lon="6.66612">
        <ele>401</ele>
        <time>2015-05-08T09:21:03.000Z</time>
      </trkpt>
      <trkpt lat="47.49432" lon="6.66612">
        <ele>401</ele>
        <time>2015-05-08T09:21:04.000Z</time>
      </trkpt>
      <trkpt lat="47.49434" lon="6.66609">
        <ele>401</ele>
        <time>2015-05-08T09:21:05.000Z</time>
      </trkpt>
      <trkpt lat="47.49438" lon="6.66609">
        <ele>401</ele>
        <time>2015-05-08T09:21:07.000Z</time>
      </trkpt>
      <trkpt lat="47.4944" lon="6.66611">
        <ele>401</ele>
        <time>2015-05-08T09:21:08.000Z</time>
      </trkpt>
      <trkpt lat="47.49442" lon="6.66615">
        <ele>400</ele>
        <time>2015-05-08T09:21:10.000Z</time>
      </trkpt>
      <trkpt lat="47.49444" lon="6.6662">
        <ele>400</ele>
        <time>2015-05-08T09:21:11.000Z</time>
      </trkpt>
      <trkpt lat="47.49446" lon="6.66622">
        <ele>400</ele>
        <time>2015-05-08T09:21:12.000Z</time>
      </trkpt>
      <trkpt lat="47.49448" lon="6.66625">
        <ele>400</ele>
        <time>2015-05-08T09:21:13.000Z</time>
      </trkpt>
      <trkpt lat="47.4945" lon="6.66629">
        <ele>400</ele>
        <time>2015-05-08T09:21:15.000Z</time>
      </trkpt>
      <trkpt lat="47.49451" lon="6.66631">
        <ele>399</ele>
        <time>2015-05-08T09:21:16.000Z</time>
      </trkpt>
      <trkpt lat="47.49452" lon="6.66634">
        <ele>399</ele>
        <time>2015-05-08T09:21:18.000Z</time>
      </trkpt>
      <trkpt lat="47.49454" lon="6.66637">
        <ele>399</ele>
        <time>2015-05-08T09:21:19.000Z</time>
      </trkpt>
      <trkpt lat="47.49456" lon="6.66641">
        <ele>399</ele>
        <time>2015-05-08T09:21:20.000Z</time>
      </trkpt>
      <trkpt lat="47.49457" lon="6.66645">
        <ele>399</ele>
        <time>2015-05-08T09:21:20.999Z</time>
      </trkpt>
      <trkpt lat="47.4946" lon="6.66651">
        <ele>398</ele>
        <time>2015-05-08T09:21:22.000Z</time>
      </trkpt>
      <trkpt lat="47.49463" lon="6.66658">
        <ele>398</ele>
        <time>2015-05-08T09:21:23.000Z</time>
      </trkpt>
      <trkpt lat="47.49464" lon="6.66674">
        <ele>393</ele>
        <time>2015-05-08T09:21:24.000Z</time>
      </trkpt>
      <trkpt lat="47.49466" lon="6.6668">
        <ele>393</ele>
        <time>2015-05-08T09:21:25.000Z</time>
      </trkpt>
      <trkpt lat="47.49467" lon="6.66687">
        <ele>393</ele>
        <time>2015-05-08T09:21:26.000Z</time>
      </trkpt>
      <trkpt lat="47.49469" lon="6.66693">
        <ele>393</ele>
        <time>2015-05-08T09:21:27.000Z</time>
      </trkpt>
      <trkpt lat="47.49469" lon="6.66703">
        <ele>392</ele>
        <time>2015-05-08T09:21:28.000Z</time>
      </trkpt>
      <trkpt lat="47.49472" lon="6.66709">
        <ele>392</ele>
        <time>2015-05-08T09:21:29.000Z</time>
      </trkpt>
      <trkpt lat="47.49473" lon="6.66716">
        <ele>391</ele>
        <time>2015-05-08T09:21:30.000Z</time>
      </trkpt>
      <trkpt lat="47.49475" lon="6.66724">
        <ele>391</ele>
        <time>2015-05-08T09:21:31.000Z</time>
      </trkpt>
      <trkpt lat="47.49478" lon="6.66731">
        <ele>390</ele>
        <time>2015-05-08T09:21:32.000Z</time>
      </trkpt>
      <trkpt lat="47.49482" lon="6.66739">
        <ele>390</ele>
        <time>2015-05-08T09:21:33.000Z</time>
      </trkpt>
      <trkpt lat="47.49484" lon="6.66748">
        <ele>389</ele>
        <time>2015-05-08T09:21:34.000Z</time>
      </trkpt>
      <trkpt lat="47.49486" lon="6.66758">
        <ele>386</ele>
        <time>2015-05-08T09:21:35.000Z</time>
      </trkpt>
      <trkpt lat="47.49489" lon="6.66768">
        <ele>385</ele>
        <time>2015-05-08T09:21:36.000Z</time>
      </trkpt>
      <trkpt lat="47.49492" lon="6.66777">
        <ele>385</ele>
        <time>2015-05-08T09:21:37.000Z</time>
      </trkpt>
      <trkpt lat="47.49496" lon="6.66786">
        <ele>385</ele>
        <time>2015-05-08T09:21:38.000Z</time>
      </trkpt>
      <trkpt lat="47.495" lon="6.66795">
        <ele>384</ele>
        <time>2015-05-08T09:21:39.000Z</time>
      </trkpt>
      <trkpt lat="47.49502" lon="6.66804">
        <ele>381</ele>
        <time>2015-05-08T09:21:40.000Z</time>
      </trkpt>
      <trkpt lat="47.49505" lon="6.66813">
        <ele>381</ele>
        <time>2015-05-08T09:21:41.000Z</time>
      </trkpt>
      <trkpt lat="47.49508" lon="6.6682">
        <ele>381</ele>
        <time>2015-05-08T09:21:42.000Z</time>
      </trkpt>
      <trkpt lat="47.49511" lon="6.66828">
        <ele>380</ele>
        <time>2015-05-08T09:21:43.000Z</time>
      </trkpt>
      <trkpt lat="47.49515" lon="6.66835">
        <ele>377</ele>
        <time>2015-05-08T09:21:44.000Z</time>
      </trkpt>
      <trkpt lat="47.49519" lon="6.66843">
        <ele>377</ele>
        <time>2015-05-08T09:21:45.000Z</time>
      </trkpt>
      <trkpt lat="47.49523" lon="6.66851">
        <ele>376</ele>
        <time>2015-05-08T09:21:46.000Z</time>
      </trkpt>
      <trkpt lat="47.49526" lon="6.66861">
        <ele>375</ele>
        <time>2015-05-08T09:21:47.000Z</time>
      </trkpt>
      <trkpt lat="47.4953" lon="6.6687">
        <ele>374</ele>
        <time>2015-05-08T09:21:48.000Z</time>
      </trkpt>
      <trkpt lat="47.49534" lon="6.66881">
        <ele>374</ele>
        <time>2015-05-08T09:21:49.000Z</time>
      </trkpt>
      <trkpt lat="47.49537" lon="6.66893">
        <ele>373</ele>
        <time>2015-05-08T09:21:50.000Z</time>
      </trkpt>
      <trkpt lat="47.49542" lon="6.66902">
        <ele>373</ele>
        <time>2015-05-08T09:21:51.000Z</time>
      </trkpt>
      <trkpt lat="47.49545" lon="6.66913">
        <ele>373</ele>
        <time>2015-05-08T09:21:52.000Z</time>
      </trkpt>
      <trkpt lat="47.49549" lon="6.66923">
        <ele>368</ele>
        <time>2015-05-08T09:21:53.000Z</time>
      </trkpt>
      <trkpt lat="47.49552" lon="6.66933">
        <ele>368</ele>
        <time>2015-05-08T09:21:54.000Z</time>
      </trkpt>
      <trkpt lat="47.49552" lon="6.66946">
        <ele>368</ele>
        <time>2015-05-08T09:21:55.000Z</time>
      </trkpt>
      <trkpt lat="47.49553" lon="6.66957">
        <ele>367</ele>
        <time>2015-05-08T09:21:56.000Z</time>
      </trkpt>
      <trkpt lat="47.49555" lon="6.66969">
        <ele>367</ele>
        <time>2015-05-08T09:21:57.000Z</time>
      </trkpt>
      <trkpt lat="47.49556" lon="6.66982">
        <ele>367</ele>
        <time>2015-05-08T09:21:58.000Z</time>
      </trkpt>
      <trkpt lat="47.49558" lon="6.66994">
        <ele>366</ele>
        <time>2015-05-08T09:21:59.000Z</time>
      </trkpt>
      <trkpt lat="47.49562" lon="6.67006">
        <ele>362</ele>
        <time>2015-05-08T09:22:00.000Z</time>
      </trkpt>
      <trkpt lat="47.49567" lon="6.67018">
        <ele>362</ele>
        <time>2015-05-08T09:22:01.000Z</time>
      </trkpt>
      <trkpt lat="47.49573" lon="6.67026">
        <ele>361</ele>
        <time>2015-05-08T09:22:02.000Z</time>
      </trkpt>
      <trkpt lat="47.4958" lon="6.67036">
        <ele>360</ele>
        <time>2015-05-08T09:22:03.000Z</time>
      </trkpt>
      <trkpt lat="47.49587" lon="6.67041">
        <ele>359</ele>
        <time>2015-05-08T09:22:04.000Z</time>
      </trkpt>
      <trkpt lat="47.49594" lon="6.67046">
        <ele>358</ele>
        <time>2015-05-08T09:22:05.000Z</time>
      </trkpt>
      <trkpt lat="47.49602" lon="6.67051">
        <ele>357</ele>
        <time>2015-05-08T09:22:06.000Z</time>
      </trkpt>
      <trkpt lat="47.49609" lon="6.67056">
        <ele>357</ele>
        <time>2015-05-08T09:22:07.000Z</time>
      </trkpt>
      <trkpt lat="47.49616" lon="6.67061">
        <ele>356</ele>
        <time>2015-05-08T09:22:08.000Z</time>
      </trkpt>
      <trkpt lat="47.49623" lon="6.67069">
        <ele>356</ele>
        <time>2015-05-08T09:22:09.000Z</time>
      </trkpt>
      <trkpt lat="47.4963" lon="6.67074">
        <ele>355</ele>
        <time>2015-05-08T09:22:10.000Z</time>
      </trkpt>
      <trkpt lat="47.49637" lon="6.67078">
        <ele>355</ele>
        <time>2015-05-08T09:22:11.000Z</time>
      </trkpt>
      <trkpt lat="47.49645" lon="6.67083">
        <ele>354</ele>
        <time>2015-05-08T09:22:12.000Z</time>
      </trkpt>
      <trkpt lat="47.49653" lon="6.67087">
        <ele>350</ele>
        <time>2015-05-08T09:22:13.000Z</time>
      </trkpt>
      <trkpt lat="47.49661" lon="6.6709">
        <ele>349</ele>
        <time>2015-05-08T09:22:14.000Z</time>
      </trkpt>
      <trkpt lat="47.49668" lon="6.67092">
        <ele>349</ele>
        <time>2015-05-08T09:22:15.000Z</time>
      </trkpt>
      <trkpt lat="47.49676" lon="6.67094">
        <ele>349</ele>
        <time>2015-05-08T09:22:16.000Z</time>
      </trkpt>
      <trkpt lat="47.49683" lon="6.67095">
        <ele>349</ele>
        <time>2015-05-08T09:22:17.000Z</time>
      </trkpt>
      <trkpt lat="47.4969" lon="6.67096">
        <ele>349</ele>
        <time>2015-05-08T09:22:18.000Z</time>
      </trkpt>
      <trkpt lat="47.49693" lon="6.67096">
        <ele>349</ele>
        <time>2015-05-08T09:22:19.000Z</time>
      </trkpt>
      <trkpt lat="47.49696" lon="6.67098">
        <ele>350</ele>
        <time>2015-05-08T09:22:20.000Z</time>
      </trkpt>
      <trkpt lat="47.49699" lon="6.67102">
        <ele>350</ele>
        <time>2015-05-08T09:22:22.000Z</time>
      </trkpt>
      <trkpt lat="47.497" lon="6.67106">
        <ele>350</ele>
        <time>2015-05-08T09:22:23.000Z</time>
      </trkpt>
      <trkpt lat="47.49704" lon="6.67107">
        <ele>350</ele>
        <time>2015-05-08T09:22:25.000Z</time>
      </trkpt>
      <trkpt lat="47.49705" lon="6.67108">
        <ele>350</ele>
        <time>2015-05-08T09:22:26.000Z</time>
      </trkpt>
      <trkpt lat="47.49708" lon="6.6711">
        <ele>350</ele>
        <time>2015-05-08T09:22:30.000Z</time>
      </trkpt>
      <trkpt lat="47.4971" lon="6.67112">
        <ele>350</ele>
        <time>2015-05-08T09:22:31.000Z</time>
      </trkpt>
      <trkpt lat="47.49713" lon="6.67115">
        <ele>350</ele>
        <time>2015-05-08T09:22:32.000Z</time>
      </trkpt>
      <trkpt lat="47.49715" lon="6.67119">
        <ele>350</ele>
        <time>2015-05-08T09:22:33.000Z</time>
      </trkpt>
      <trkpt lat="47.49718" lon="6.67123">
        <ele>350</ele>
        <time>2015-05-08T09:22:34.000Z</time>
      </trkpt>
      <trkpt lat="47.4972" lon="6.67127">
        <ele>350</ele>
        <time>2015-05-08T09:22:35.000Z</time>
      </trkpt>
      <trkpt lat="47.49722" lon="6.67132">
        <ele>350</ele>
        <time>2015-05-08T09:22:36.000Z</time>
      </trkpt>
      <trkpt lat="47.49725" lon="6.67137">
        <ele>350</ele>
        <time>2015-05-08T09:22:37.000Z</time>
      </trkpt>
      <trkpt lat="47.49727" lon="6.67142">
        <ele>350</ele>
        <time>2015-05-08T09:22:38.000Z</time>
      </trkpt>
      <trkpt lat="47.4973" lon="6.67149">
        <ele>350</ele>
        <time>2015-05-08T09:22:39.000Z</time>
      </trkpt>
      <trkpt lat="47.49734" lon="6.67163">
        <ele>350</ele>
        <time>2015-05-08T09:22:40.000Z</time>
      </trkpt>
      <trkpt lat="47.49737" lon="6.6717">
        <ele>351</ele>
        <time>2015-05-08T09:22:41.000Z</time>
      </trkpt>
      <trkpt lat="47.49739" lon="6.67183">
        <ele>351</ele>
        <time>2015-05-08T09:22:42.000Z</time>
      </trkpt>
      <trkpt lat="47.49741" lon="6.67192">
        <ele>351</ele>
        <time>2015-05-08T09:22:43.000Z</time>
      </trkpt>
      <trkpt lat="47.49743" lon="6.672">
        <ele>352</ele>
        <time>2015-05-08T09:22:44.000Z</time>
      </trkpt>
      <trkpt lat="47.49746" lon="6.67207">
        <ele>352</ele>
        <time>2015-05-08T09:22:45.000Z</time>
      </trkpt>
      <trkpt lat="47.49748" lon="6.67214">
        <ele>352</ele>
        <time>2015-05-08T09:22:46.000Z</time>
      </trkpt>
      <trkpt lat="47.4975" lon="6.67221">
        <ele>352</ele>
        <time>2015-05-08T09:22:47.000Z</time>
      </trkpt>
      <trkpt lat="47.49752" lon="6.67226">
        <ele>353</ele>
        <time>2015-05-08T09:22:48.000Z</time>
      </trkpt>
      <trkpt lat="47.49753" lon="6.67231">
        <ele>353</ele>
        <time>2015-05-08T09:22:49.000Z</time>
      </trkpt>
      <trkpt lat="47.49756" lon="6.67233">
        <ele>353</ele>
        <time>2015-05-08T09:22:51.000Z</time>
      </trkpt>
      <trkpt lat="47.49758" lon="6.67233">
        <ele>353</ele>
        <time>2015-05-08T09:22:52.000Z</time>
      </trkpt>
      <trkpt lat="47.49761" lon="6.67234">
        <ele>353</ele>
        <time>2015-05-08T09:22:54.000Z</time>
      </trkpt>
      <trkpt lat="47.49763" lon="6.67235">
        <ele>354</ele>
        <time>2015-05-08T09:22:55.000Z</time>
      </trkpt>
      <trkpt lat="47.49763" lon="6.6723">
        <ele>354</ele>
        <time>2015-05-08T09:22:56.000Z</time>
      </trkpt>
      <trkpt lat="47.49765" lon="6.67229">
        <ele>354</ele>
        <time>2015-05-08T09:22:57.000Z</time>
      </trkpt>
      <trkpt lat="47.49769" lon="6.67226">
        <ele>354</ele>
        <time>2015-05-08T09:22:59.000Z</time>
      </trkpt>
      <trkpt lat="47.49771" lon="6.67225">
        <ele>354</ele>
        <time>2015-05-08T09:23:00.000Z</time>
      </trkpt>
      <trkpt lat="47.49773" lon="6.67223">
        <ele>354</ele>
        <time>2015-05-08T09:23:01.000Z</time>
      </trkpt>
      <trkpt lat="47.49775" lon="6.67221">
        <ele>354</ele>
        <time>2015-05-08T09:23:02.000Z</time>
      </trkpt>
      <trkpt lat="47.49777" lon="6.6722">
        <ele>354</ele>
        <time>2015-05-08T09:23:03.000Z</time>
      </trkpt>
      <trkpt lat="47.49779" lon="6.67218">
        <ele>354</ele>
        <time>2015-05-08T09:23:04.000Z</time>
      </trkpt>
      <trkpt lat="47.49782" lon="6.67215">
        <ele>354</ele>
        <time>2015-05-08T09:23:06.000Z</time>
      </trkpt>
      <trkpt lat="47.49784" lon="6.67214">
        <ele>354</ele>
        <time>2015-05-08T09:23:07.000Z</time>
      </trkpt>
      <trkpt lat="47.49787" lon="6.67211">
        <ele>354</ele>
        <time>2015-05-08T09:23:10.000Z</time>
      </trkpt>
      <trkpt lat="47.49788" lon="6.6721">
        <ele>354</ele>
        <time>2015-05-08T09:23:11.000Z</time>
      </trkpt>
      <trkpt lat="47.49792" lon="6.67207">
        <ele>354</ele>
        <time>2015-05-08T09:23:14.000Z</time>
      </trkpt>
      <trkpt lat="47.49792" lon="6.67206">
        <ele>354</ele>
        <time>2015-05-08T09:23:15.000Z</time>
      </trkpt>
      <trkpt lat="47.49795" lon="6.67204">
        <ele>354</ele>
        <time>2015-05-08T09:23:17.000Z</time>
      </trkpt>
      <trkpt lat="47.49797" lon="6.67202">
        <ele>354</ele>
        <time>2015-05-08T09:23:18.000Z</time>
      </trkpt>
      <trkpt lat="47.498" lon="6.67197">
        <ele>354</ele>
        <time>2015-05-08T09:23:20.000Z</time>
      </trkpt>
      <trkpt lat="47.49801" lon="6.67195">
        <ele>354</ele>
        <time>2015-05-08T09:23:21.000Z</time>
      </trkpt>
      <trkpt lat="47.49804" lon="6.67191">
        <ele>354</ele>
        <time>2015-05-08T09:23:23.000Z</time>
      </trkpt>
      <trkpt lat="47.49806" lon="6.67189">
        <ele>354</ele>
        <time>2015-05-08T09:23:24.000Z</time>
      </trkpt>
      <trkpt lat="47.49809" lon="6.67187">
        <ele>354</ele>
        <time>2015-05-08T09:23:25.000Z</time>
      </trkpt>
      <trkpt lat="47.49811" lon="6.67184">
        <ele>354</ele>
        <time>2015-05-08T09:23:26.000Z</time>
      </trkpt>
      <trkpt lat="47.49813" lon="6.67181">
        <ele>354</ele>
        <time>2015-05-08T09:23:27.000Z</time>
      </trkpt>
      <trkpt lat="47.49816" lon="6.67178">
        <ele>354</ele>
        <time>2015-05-08T09:23:28.000Z</time>
      </trkpt>
      <trkpt lat="47.49819" lon="6.67175">
        <ele>354</ele>
        <time>2015-05-08T09:23:29.000Z</time>
      </trkpt>
      <trkpt lat="47.49821" lon="6.67172">
        <ele>355</ele>
        <time>2015-05-08T09:23:30.000Z</time>
      </trkpt>
      <trkpt lat="47.49824" lon="6.67169">
        <ele>355</ele>
        <time>2015-05-08T09:23:31.000Z</time>
      </trkpt>
      <trkpt lat="47.49827" lon="6.67166">
        <ele>354</ele>
        <time>2015-05-08T09:23:32.000Z</time>
      </trkpt>
      <trkpt lat="47.4983" lon="6.67163">
        <ele>354</ele>
        <time>2015-05-08T09:23:33.000Z</time>
      </trkpt>
      <trkpt lat="47.49832" lon="6.6716">
        <ele>354</ele>
        <time>2015-05-08T09:23:34.000Z</time>
      </trkpt>
      <trkpt lat="47.49835" lon="6.67158">
        <ele>356</ele>
        <time>2015-05-08T09:23:35.000Z</time>
      </trkpt>
      <trkpt lat="47.49837" lon="6.67155">
        <ele>356</ele>
        <time>2015-05-08T09:23:36.000Z</time>
      </trkpt>
      <trkpt lat="47.4984" lon="6.67153">
        <ele>357</ele>
        <time>2015-05-08T09:23:37.000Z</time>
      </trkpt>
      <trkpt lat="47.49842" lon="6.6715">
        <ele>357</ele>
        <time>2015-05-08T09:23:38.000Z</time>
      </trkpt>
      <trkpt lat="47.49844" lon="6.67147">
        <ele>357</ele>
        <time>2015-05-08T09:23:39.000Z</time>
      </trkpt>
      <trkpt lat="47.49845" lon="6.67144">
        <ele>357</ele>
        <time>2015-05-08T09:23:40.000Z</time>
      </trkpt>
      <trkpt lat="47.49846" lon="6.67141">
        <ele>357</ele>
        <time>2015-05-08T09:23:41.000Z</time>
      </trkpt>
      <trkpt lat="47.49847" lon="6.67138">
        <ele>358</ele>
        <time>2015-05-08T09:23:42.000Z</time>
      </trkpt>
      <trkpt lat="47.49849" lon="6.67135">
        <ele>358</ele>
        <time>2015-05-08T09:23:43.000Z</time>
      </trkpt>
      <trkpt lat="47.49851" lon="6.67131">
        <ele>358</ele>
        <time>2015-05-08T09:23:44.000Z</time>
      </trkpt>
      <trkpt lat="47.49854" lon="6.67126">
        <ele>358</ele>
        <time>2015-05-08T09:23:45.000Z</time>
      </trkpt>
      <trkpt lat="47.49856" lon="6.67122">
        <ele>358</ele>
        <time>2015-05-08T09:23:46.000Z</time>
      </trkpt>
      <trkpt lat="47.49858" lon="6.67119">
        <ele>358</ele>
        <time>2015-05-08T09:23:46.998Z</time>
      </trkpt>
      <trkpt lat="47.49862" lon="6.67114">
        <ele>358</ele>
        <time>2015-05-08T09:23:48.000Z</time>
      </trkpt>
      <trkpt lat="47.49864" lon="6.67111">
        <ele>358</ele>
        <time>2015-05-08T09:23:49.000Z</time>
      </trkpt>
      <trkpt lat="47.49866" lon="6.67108">
        <ele>358</ele>
        <time>2015-05-08T09:23:50.000Z</time>
      </trkpt>
      <trkpt lat="47.49867" lon="6.67104">
        <ele>358</ele>
        <time>2015-05-08T09:23:51.000Z</time>
      </trkpt>
      <trkpt lat="47.49868" lon="6.67101">
        <ele>358</ele>
        <time>2015-05-08T09:23:52.000Z</time>
      </trkpt>
      <trkpt lat="47.49869" lon="6.67098">
        <ele>358</ele>
        <time>2015-05-08T09:23:53.000Z</time>
      </trkpt>
      <trkpt lat="47.4987" lon="6.67095">
        <ele>358</ele>
        <time>2015-05-08T09:23:54.000Z</time>
      </trkpt>
      <trkpt lat="47.49872" lon="6.67091">
        <ele>358</ele>
        <time>2015-05-08T09:23:55.000Z</time>
      </trkpt>
      <trkpt lat="47.49873" lon="6.67087">
        <ele>358</ele>
        <time>2015-05-08T09:23:56.000Z</time>
      </trkpt>
      <trkpt lat="47.49874" lon="6.67083">
        <ele>357</ele>
        <time>2015-05-08T09:23:57.000Z</time>
      </trkpt>
      <trkpt lat="47.49875" lon="6.67077">
        <ele>357</ele>
        <time>2015-05-08T09:23:58.000Z</time>
      </trkpt>
      <trkpt lat="47.49876" lon="6.67071">
        <ele>357</ele>
        <time>2015-05-08T09:23:59.000Z</time>
      </trkpt>
      <trkpt lat="47.49876" lon="6.67064">
        <ele>357</ele>
        <time>2015-05-08T09:24:00.000Z</time>
      </trkpt>
      <trkpt lat="47.49877" lon="6.67058">
        <ele>357</ele>
        <time>2015-05-08T09:24:01.000Z</time>
      </trkpt>
      <trkpt lat="47.49878" lon="6.67053">
        <ele>357</ele>
        <time>2015-05-08T09:24:02.000Z</time>
      </trkpt>
      <trkpt lat="47.4988" lon="6.67047">
        <ele>357</ele>
        <time>2015-05-08T09:24:03.000Z</time>
      </trkpt>
      <trkpt lat="47.49881" lon="6.67041">
        <ele>357</ele>
        <time>2015-05-08T09:24:04.000Z</time>
      </trkpt>
      <trkpt lat="47.49883" lon="6.67036">
        <ele>357</ele>
        <time>2015-05-08T09:24:05.000Z</time>
      </trkpt>
      <trkpt lat="47.49884" lon="6.67032">
        <ele>357</ele>
        <time>2015-05-08T09:24:06.000Z</time>
      </trkpt>
      <trkpt lat="47.49885" lon="6.67027">
        <ele>357</ele>
        <time>2015-05-08T09:24:07.000Z</time>
      </trkpt>
      <trkpt lat="47.49886" lon="6.67023">
        <ele>357</ele>
        <time>2015-05-08T09:24:08.000Z</time>
      </trkpt>
      <trkpt lat="47.49887" lon="6.67019">
        <ele>357</ele>
        <time>2015-05-08T09:24:09.000Z</time>
      </trkpt>
      <trkpt lat="47.49888" lon="6.67015">
        <ele>357</ele>
        <time>2015-05-08T09:24:10.000Z</time>
      </trkpt>
      <trkpt lat="47.4989" lon="6.67009">
        <ele>357</ele>
        <time>2015-05-08T09:24:11.000Z</time>
      </trkpt>
      <trkpt lat="47.49892" lon="6.67003">
        <ele>357</ele>
        <time>2015-05-08T09:24:12.000Z</time>
      </trkpt>
      <trkpt lat="47.49894" lon="6.66997">
        <ele>357</ele>
        <time>2015-05-08T09:24:13.000Z</time>
      </trkpt>
      <trkpt lat="47.49896" lon="6.66991">
        <ele>357</ele>
        <time>2015-05-08T09:24:14.000Z</time>
      </trkpt>
      <trkpt lat="47.49898" lon="6.66985">
        <ele>357</ele>
        <time>2015-05-08T09:24:15.000Z</time>
      </trkpt>
      <trkpt lat="47.499" lon="6.66979">
        <ele>357</ele>
        <time>2015-05-08T09:24:16.000Z</time>
      </trkpt>
      <trkpt lat="47.49902" lon="6.66975">
        <ele>357</ele>
        <time>2015-05-08T09:24:17.000Z</time>
      </trkpt>
      <trkpt lat="47.49903" lon="6.66971">
        <ele>357</ele>
        <time>2015-05-08T09:24:18.000Z</time>
      </trkpt>
      <trkpt lat="47.49905" lon="6.66967">
        <ele>357</ele>
        <time>2015-05-08T09:24:19.000Z</time>
      </trkpt>
      <trkpt lat="47.49906" lon="6.66962">
        <ele>357</ele>
        <time>2015-05-08T09:24:20.000Z</time>
      </trkpt>
      <trkpt lat="47.49908" lon="6.66957">
        <ele>357</ele>
        <time>2015-05-08T09:24:21.000Z</time>
      </trkpt>
      <trkpt lat="47.4991" lon="6.66953">
        <ele>357</ele>
        <time>2015-05-08T09:24:22.000Z</time>
      </trkpt>
      <trkpt lat="47.49911" lon="6.66948">
        <ele>357</ele>
        <time>2015-05-08T09:24:23.000Z</time>
      </trkpt>
      <trkpt lat="47.49913" lon="6.66945">
        <ele>357</ele>
        <time>2015-05-08T09:24:24.000Z</time>
      </trkpt>
      <trkpt lat="47.49915" lon="6.66941">
        <ele>357</ele>
        <time>2015-05-08T09:24:25.000Z</time>
      </trkpt>
      <trkpt lat="47.49916" lon="6.66939">
        <ele>357</ele>
        <time>2015-05-08T09:24:26.000Z</time>
      </trkpt>
      <trkpt lat="47.49918" lon="6.66934">
        <ele>359</ele>
        <time>2015-05-08T09:24:28.000Z</time>
      </trkpt>
      <trkpt lat="47.4992" lon="6.66932">
        <ele>359</ele>
        <time>2015-05-08T09:24:29.000Z</time>
      </trkpt>
      <trkpt lat="47.49922" lon="6.6693">
        <ele>359</ele>
        <time>2015-05-08T09:24:30.000Z</time>
      </trkpt>
      <trkpt lat="47.49924" lon="6.66927">
        <ele>359</ele>
        <time>2015-05-08T09:24:31.000Z</time>
      </trkpt>
      <trkpt lat="47.49927" lon="6.66925">
        <ele>359</ele>
        <time>2015-05-08T09:24:32.000Z</time>
      </trkpt>
      <trkpt lat="47.49929" lon="6.66922">
        <ele>359</ele>
        <time>2015-05-08T09:24:33.000Z</time>
      </trkpt>
      <trkpt lat="47.49931" lon="6.66918">
        <ele>359</ele>
        <time>2015-05-08T09:24:34.000Z</time>
      </trkpt>
      <trkpt lat="47.49933" lon="6.66915">
        <ele>358</ele>
        <time>2015-05-08T09:24:35.000Z</time>
      </trkpt>
      <trkpt lat="47.49935" lon="6.66912">
        <ele>358</ele>
        <time>2015-05-08T09:24:36.000Z</time>
      </trkpt>
      <trkpt lat="47.49936" lon="6.66909">
        <ele>358</ele>
        <time>2015-05-08T09:24:37.000Z</time>
      </trkpt>
      <trkpt lat="47.49938" lon="6.66905">
        <ele>358</ele>
        <time>2015-05-08T09:24:38.000Z</time>
      </trkpt>
      <trkpt lat="47.49939" lon="6.66902">
        <ele>358</ele>
        <time>2015-05-08T09:24:39.000Z</time>
      </trkpt>
      <trkpt lat="47.49941" lon="6.66899">
        <ele>358</ele>
        <time>2015-05-08T09:24:40.000Z</time>
      </trkpt>
      <trkpt lat="47.49943" lon="6.66897">
        <ele>358</ele>
        <time>2015-05-08T09:24:41.000Z</time>
      </trkpt>
      <trkpt lat="47.49946" lon="6.66895">
        <ele>358</ele>
        <time>2015-05-08T09:24:43.000Z</time>
      </trkpt>
      <trkpt lat="47.49948" lon="6.66894">
        <ele>358</ele>
        <time>2015-05-08T09:24:44.000Z</time>
      </trkpt>
      <trkpt lat="47.49951" lon="6.66892">
        <ele>358</ele>
        <time>2015-05-08T09:24:46.000Z</time>
      </trkpt>
      <trkpt lat="47.49953" lon="6.66892">
        <ele>358</ele>
        <time>2015-05-08T09:24:47.000Z</time>
      </trkpt>
      <trkpt lat="47.49956" lon="6.66892">
        <ele>358</ele>
        <time>2015-05-08T09:24:49.000Z</time>
      </trkpt>
      <trkpt lat="47.49958" lon="6.66893">
        <ele>358</ele>
        <time>2015-05-08T09:24:50.000Z</time>
      </trkpt>
      <trkpt lat="47.49961" lon="6.66897">
        <ele>358</ele>
        <time>2015-05-08T09:24:52.000Z</time>
      </trkpt>
      <trkpt lat="47.49963" lon="6.66899">
        <ele>359</ele>
        <time>2015-05-08T09:24:53.000Z</time>
      </trkpt>
      <trkpt lat="47.49966" lon="6.66901">
        <ele>359</ele>
        <time>2015-05-08T09:24:55.000Z</time>
      </trkpt>
      <trkpt lat="47.49967" lon="6.66903">
        <ele>359</ele>
        <time>2015-05-08T09:24:56.000Z</time>
      </trkpt>
      <trkpt lat="47.4997" lon="6.66905">
        <ele>359</ele>
        <time>2015-05-08T09:24:58.000Z</time>
      </trkpt>
      <trkpt lat="47.49972" lon="6.66906">
        <ele>359</ele>
        <time>2015-05-08T09:24:59.000Z</time>
      </trkpt>
      <trkpt lat="47.49976" lon="6.66908">
        <ele>359</ele>
        <time>2015-05-08T09:25:01.000Z</time>
      </trkpt>
      <trkpt lat="47.49978" lon="6.66909">
        <ele>359</ele>
        <time>2015-05-08T09:25:02.000Z</time>
      </trkpt>
      <trkpt lat="47.4998" lon="6.66911">
        <ele>359</ele>
        <time>2015-05-08T09:25:03.000Z</time>
      </trkpt>
      <trkpt lat="47.49982" lon="6.66912">
        <ele>359</ele>
        <time>2015-05-08T09:25:04.000Z</time>
      </trkpt>
      <trkpt lat="47.49986" lon="6.6691">
        <ele>359</ele>
        <time>2015-05-08T09:25:06.000Z</time>
      </trkpt>
      <trkpt lat="47.49988" lon="6.66907">
        <ele>359</ele>
        <time>2015-05-08T09:25:07.000Z</time>
      </trkpt>
      <trkpt lat="47.4999" lon="6.66904">
        <ele>359</ele>
        <time>2015-05-08T09:25:08.000Z</time>
      </trkpt>
      <trkpt lat="47.49992" lon="6.66899">
        <ele>359</ele>
        <time>2015-05-08T09:25:09.000Z</time>
      </trkpt>
      <trkpt lat="47.49996" lon="6.66895">
        <ele>359</ele>
        <time>2015-05-08T09:25:10.000Z</time>
      </trkpt>
      <trkpt lat="47.5" lon="6.66891">
        <ele>359</ele>
        <time>2015-05-08T09:25:11.000Z</time>
      </trkpt>
      <trkpt lat="47.50004" lon="6.66887">
        <ele>361</ele>
        <time>2015-05-08T09:25:12.000Z</time>
      </trkpt>
      <trkpt lat="47.50007" lon="6.66883">
        <ele>361</ele>
        <time>2015-05-08T09:25:13.000Z</time>
      </trkpt>
      <trkpt lat="47.5001" lon="6.6688">
        <ele>361</ele>
        <time>2015-05-08T09:25:14.000Z</time>
      </trkpt>
      <trkpt lat="47.50013" lon="6.66878">
        <ele>361</ele>
        <time>2015-05-08T09:25:15.000Z</time>
      </trkpt>
      <trkpt lat="47.50016" lon="6.66876">
        <ele>361</ele>
        <time>2015-05-08T09:25:16.000Z</time>
      </trkpt>
      <trkpt lat="47.50018" lon="6.66875">
        <ele>361</ele>
        <time>2015-05-08T09:25:17.000Z</time>
      </trkpt>
      <trkpt lat="47.5002" lon="6.66874">
        <ele>362</ele>
        <time>2015-05-08T09:25:18.000Z</time>
      </trkpt>
      <trkpt lat="47.50022" lon="6.66873">
        <ele>362</ele>
        <time>2015-05-08T09:25:19.000Z</time>
      </trkpt>
      <trkpt lat="47.50024" lon="6.66871">
        <ele>362</ele>
        <time>2015-05-08T09:25:20.000Z</time>
      </trkpt>
      <trkpt lat="47.50027" lon="6.66868">
        <ele>362</ele>
        <time>2015-05-08T09:25:21.000Z</time>
      </trkpt>
      <trkpt lat="47.50029" lon="6.66866">
        <ele>362</ele>
        <time>2015-05-08T09:25:22.000Z</time>
      </trkpt>
      <trkpt lat="47.50032" lon="6.66864">
        <ele>362</ele>
        <time>2015-05-08T09:25:23.000Z</time>
      </trkpt>
      <trkpt lat="47.50035" lon="6.66862">
        <ele>362</ele>
        <time>2015-05-08T09:25:24.000Z</time>
      </trkpt>
      <trkpt lat="47.50038" lon="6.66861">
        <ele>362</ele>
        <time>2015-05-08T09:25:25.000Z</time>
      </trkpt>
      <trkpt lat="47.50042" lon="6.6686">
        <ele>362</ele>
        <time>2015-05-08T09:25:26.000Z</time>
      </trkpt>
      <trkpt lat="47.50045" lon="6.66859">
        <ele>362</ele>
        <time>2015-05-08T09:25:27.000Z</time>
      </trkpt>
      <trkpt lat="47.50048" lon="6.66857">
        <ele>362</ele>
        <time>2015-05-08T09:25:28.000Z</time>
      </trkpt>
      <trkpt lat="47.50051" lon="6.66854">
        <ele>362</ele>
        <time>2015-05-08T09:25:29.000Z</time>
      </trkpt>
      <trkpt lat="47.50054" lon="6.66851">
        <ele>362</ele>
        <time>2015-05-08T09:25:30.000Z</time>
      </trkpt>
      <trkpt lat="47.50057" lon="6.66848">
        <ele>362</ele>
        <time>2015-05-08T09:25:31.000Z</time>
      </trkpt>
      <trkpt lat="47.5006" lon="6.66844">
        <ele>363</ele>
        <time>2015-05-08T09:25:32.000Z</time>
      </trkpt>
      <trkpt lat="47.50062" lon="6.66841">
        <ele>363</ele>
        <time>2015-05-08T09:25:33.000Z</time>
      </trkpt>
      <trkpt lat="47.50065" lon="6.66838">
        <ele>363</ele>
        <time>2015-05-08T09:25:34.000Z</time>
      </trkpt>
      <trkpt lat="47.50067" lon="6.66833">
        <ele>363</ele>
        <time>2015-05-08T09:25:35.000Z</time>
      </trkpt>
      <trkpt lat="47.5007" lon="6.66829">
        <ele>362</ele>
        <time>2015-05-08T09:25:36.000Z</time>
      </trkpt>
      <trkpt lat="47.50074" lon="6.66824">
        <ele>362</ele>
        <time>2015-05-08T09:25:37.000Z</time>
      </trkpt>
      <trkpt lat="47.50077" lon="6.66818">
        <ele>362</ele>
        <time>2015-05-08T09:25:38.000Z</time>
      </trkpt>
      <trkpt lat="47.50081" lon="6.66812">
        <ele>361</ele>
        <time>2015-05-08T09:25:39.000Z</time>
      </trkpt>
      <trkpt lat="47.50085" lon="6.66806">
        <ele>363</ele>
        <time>2015-05-08T09:25:40.000Z</time>
      </trkpt>
      <trkpt lat="47.50088" lon="6.66801">
        <ele>362</ele>
        <time>2015-05-08T09:25:41.000Z</time>
      </trkpt>
      <trkpt lat="47.50091" lon="6.66797">
        <ele>362</ele>
        <time>2015-05-08T09:25:42.000Z</time>
      </trkpt>
      <trkpt lat="47.50095" lon="6.66793">
        <ele>362</ele>
        <time>2015-05-08T09:25:43.000Z</time>
      </trkpt>
      <trkpt lat="47.50098" lon="6.6679">
        <ele>362</ele>
        <time>2015-05-08T09:25:44.000Z</time>
      </trkpt>
      <trkpt lat="47.50101" lon="6.66787">
        <ele>362</ele>
        <time>2015-05-08T09:25:45.000Z</time>
      </trkpt>
      <trkpt lat="47.50104" lon="6.66785">
        <ele>362</ele>
        <time>2015-05-08T09:25:46.000Z</time>
      </trkpt>
      <trkpt lat="47.50108" lon="6.66782">
        <ele>362</ele>
        <time>2015-05-08T09:25:47.000Z</time>
      </trkpt>
      <trkpt lat="47.50113" lon="6.66779">
        <ele>362</ele>
        <time>2015-05-08T09:25:48.000Z</time>
      </trkpt>
      <trkpt lat="47.50117" lon="6.66774">
        <ele>362</ele>
        <time>2015-05-08T09:25:49.000Z</time>
      </trkpt>
      <trkpt lat="47.50122" lon="6.6677">
        <ele>362</ele>
        <time>2015-05-08T09:25:50.000Z</time>
      </trkpt>
      <trkpt lat="47.50126" lon="6.66766">
        <ele>362</ele>
        <time>2015-05-08T09:25:51.000Z</time>
      </trkpt>
      <trkpt lat="47.5013" lon="6.66761">
        <ele>362</ele>
        <time>2015-05-08T09:25:52.000Z</time>
      </trkpt>
      <trkpt lat="47.50134" lon="6.66758">
        <ele>362</ele>
        <time>2015-05-08T09:25:53.000Z</time>
      </trkpt>
      <trkpt lat="47.50136" lon="6.66755">
        <ele>362</ele>
        <time>2015-05-08T09:25:54.000Z</time>
      </trkpt>
      <trkpt lat="47.50139" lon="6.66752">
        <ele>362</ele>
        <time>2015-05-08T09:25:55.000Z</time>
      </trkpt>
      <trkpt lat="47.50142" lon="6.66749">
        <ele>359</ele>
        <time>2015-05-08T09:25:56.000Z</time>
      </trkpt>
      <trkpt lat="47.50144" lon="6.66746">
        <ele>359</ele>
        <time>2015-05-08T09:25:57.000Z</time>
      </trkpt>
      <trkpt lat="47.50147" lon="6.66743">
        <ele>359</ele>
        <time>2015-05-08T09:25:58.000Z</time>
      </trkpt>
      <trkpt lat="47.50151" lon="6.6674">
        <ele>359</ele>
        <time>2015-05-08T09:25:59.000Z</time>
      </trkpt>
      <trkpt lat="47.50154" lon="6.66736">
        <ele>359</ele>
        <time>2015-05-08T09:26:00.000Z</time>
      </trkpt>
      <trkpt lat="47.50158" lon="6.66732">
        <ele>359</ele>
        <time>2015-05-08T09:26:01.000Z</time>
      </trkpt>
      <trkpt lat="47.50161" lon="6.66728">
        <ele>359</ele>
        <time>2015-05-08T09:26:02.000Z</time>
      </trkpt>
      <trkpt lat="47.50165" lon="6.66725">
        <ele>359</ele>
        <time>2015-05-08T09:26:03.000Z</time>
      </trkpt>
      <trkpt lat="47.50168" lon="6.66723">
        <ele>360</ele>
        <time>2015-05-08T09:26:04.000Z</time>
      </trkpt>
      <trkpt lat="47.50172" lon="6.66721">
        <ele>360</ele>
        <time>2015-05-08T09:26:05.000Z</time>
      </trkpt>
      <trkpt lat="47.50175" lon="6.6672">
        <ele>360</ele>
        <time>2015-05-08T09:26:06.000Z</time>
      </trkpt>
      <trkpt lat="47.50179" lon="6.66718">
        <ele>360</ele>
        <time>2015-05-08T09:26:07.000Z</time>
      </trkpt>
      <trkpt lat="47.50183" lon="6.66716">
        <ele>360</ele>
        <time>2015-05-08T09:26:08.000Z</time>
      </trkpt>
      <trkpt lat="47.50186" lon="6.66715">
        <ele>360</ele>
        <time>2015-05-08T09:26:09.000Z</time>
      </trkpt>
      <trkpt lat="47.5019" lon="6.66713">
        <ele>359</ele>
        <time>2015-05-08T09:26:10.000Z</time>
      </trkpt>
      <trkpt lat="47.50194" lon="6.6671">
        <ele>359</ele>
        <time>2015-05-08T09:26:11.000Z</time>
      </trkpt>
      <trkpt lat="47.50197" lon="6.66708">
        <ele>359</ele>
        <time>2015-05-08T09:26:12.000Z</time>
      </trkpt>
      <trkpt lat="47.50201" lon="6.66705">
        <ele>359</ele>
        <time>2015-05-08T09:26:13.000Z</time>
      </trkpt>
      <trkpt lat="47.50205" lon="6.66701">
        <ele>359</ele>
        <time>2015-05-08T09:26:14.000Z</time>
      </trkpt>
      <trkpt lat="47.50209" lon="6.66699">
        <ele>359</ele>
        <time>2015-05-08T09:26:15.000Z</time>
      </trkpt>
      <trkpt lat="47.50212" lon="6.66695">
        <ele>359</ele>
        <time>2015-05-08T09:26:16.000Z</time>
      </trkpt>
      <trkpt lat="47.50216" lon="6.66692">
        <ele>359</ele>
        <time>2015-05-08T09:26:17.000Z</time>
      </trkpt>
      <trkpt lat="47.5022" lon="6.66689">
        <ele>359</ele>
        <time>2015-05-08T09:26:18.000Z</time>
      </trkpt>
      <trkpt lat="47.50224" lon="6.66686">
        <ele>359</ele>
        <time>2015-05-08T09:26:19.000Z</time>
      </trkpt>
      <trkpt lat="47.50228" lon="6.66683">
        <ele>359</ele>
        <time>2015-05-08T09:26:20.000Z</time>
      </trkpt>
      <trkpt lat="47.50233" lon="6.6668">
        <ele>359</ele>
        <time>2015-05-08T09:26:21.000Z</time>
      </trkpt>
      <trkpt lat="47.50238" lon="6.66677">
        <ele>359</ele>
        <time>2015-05-08T09:26:22.000Z</time>
      </trkpt>
      <trkpt lat="47.50244" lon="6.66674">
        <ele>359</ele>
        <time>2015-05-08T09:26:23.000Z</time>
      </trkpt>
      <trkpt lat="47.50249" lon="6.6667">
        <ele>359</ele>
        <time>2015-05-08T09:26:24.000Z</time>
      </trkpt>
      <trkpt lat="47.50255" lon="6.66665">
        <ele>359</ele>
        <time>2015-05-08T09:26:25.000Z</time>
      </trkpt>
      <trkpt lat="47.50267" lon="6.66641">
        <ele>358</ele>
        <time>2015-05-08T09:26:26.000Z</time>
      </trkpt>
      <trkpt lat="47.50273" lon="6.6663">
        <ele>357</ele>
        <time>2015-05-08T09:26:27.000Z</time>
      </trkpt>
      <trkpt lat="47.50277" lon="6.66621">
        <ele>357</ele>
        <time>2015-05-08T09:26:28.000Z</time>
      </trkpt>
      <trkpt lat="47.5028" lon="6.66612">
        <ele>357</ele>
        <time>2015-05-08T09:26:29.000Z</time>
      </trkpt>
      <trkpt lat="47.50283" lon="6.66614">
        <ele>357</ele>
        <time>2015-05-08T09:26:31.000Z</time>
      </trkpt>
      <trkpt lat="47.50283" lon="6.66616">
        <ele>357</ele>
        <time>2015-05-08T09:26:32.000Z</time>
      </trkpt>
      <trkpt lat="47.50287" lon="6.6662">
        <ele>357</ele>
        <time>2015-05-08T09:26:36.000Z</time>
      </trkpt>
      <trkpt lat="47.50287" lon="6.66621">
        <ele>357</ele>
        <time>2015-05-08T09:26:37.000Z</time>
      </trkpt>
      <trkpt lat="47.5029" lon="6.66624">
        <ele>357</ele>
        <time>2015-05-08T09:26:41.000Z</time>
      </trkpt>
      <trkpt lat="47.50291" lon="6.66625">
        <ele>357</ele>
        <time>2015-05-08T09:26:42.000Z</time>
      </trkpt>
      <trkpt lat="47.50294" lon="6.66629">
        <ele>357</ele>
        <time>2015-05-08T09:26:46.000Z</time>
      </trkpt>
      <trkpt lat="47.50294" lon="6.6663">
        <ele>357</ele>
        <time>2015-05-08T09:26:47.000Z</time>
      </trkpt>
      <trkpt lat="47.50296" lon="6.66634">
        <ele>357</ele>
        <time>2015-05-08T09:26:52.000Z</time>
      </trkpt>
      <trkpt lat="47.50297" lon="6.66636">
        <ele>357</ele>
        <time>2015-05-08T09:26:53.000Z</time>
      </trkpt>
      <trkpt lat="47.50299" lon="6.66639">
        <ele>357</ele>
        <time>2015-05-08T09:26:55.000Z</time>
      </trkpt>
      <trkpt lat="47.503" lon="6.66641">
        <ele>358</ele>
        <time>2015-05-08T09:26:56.000Z</time>
      </trkpt>
      <trkpt lat="47.50302" lon="6.66644">
        <ele>358</ele>
        <time>2015-05-08T09:26:57.000Z</time>
      </trkpt>
      <trkpt lat="47.50303" lon="6.66646">
        <ele>358</ele>
        <time>2015-05-08T09:26:58.000Z</time>
      </trkpt>
      <trkpt lat="47.50305" lon="6.66649">
        <ele>358</ele>
        <time>2015-05-08T09:26:59.000Z</time>
      </trkpt>
      <trkpt lat="47.50307" lon="6.66652">
        <ele>358</ele>
        <time>2015-05-08T09:27:00.000Z</time>
      </trkpt>
      <trkpt lat="47.50309" lon="6.66655">
        <ele>358</ele>
        <time>2015-05-08T09:27:01.000Z</time>
      </trkpt>
      <trkpt lat="47.5031" lon="6.66658">
        <ele>358</ele>
        <time>2015-05-08T09:27:02.000Z</time>
      </trkpt>
      <trkpt lat="47.50312" lon="6.66661">
        <ele>358</ele>
        <time>2015-05-08T09:27:03.000Z</time>
      </trkpt>
      <trkpt lat="47.50314" lon="6.66664">
        <ele>358</ele>
        <time>2015-05-08T09:27:04.000Z</time>
      </trkpt>
      <trkpt lat="47.50315" lon="6.66667">
        <ele>359</ele>
        <time>2015-05-08T09:27:05.000Z</time>
      </trkpt>
      <trkpt lat="47.50317" lon="6.6667">
        <ele>359</ele>
        <time>2015-05-08T09:27:06.000Z</time>
      </trkpt>
      <trkpt lat="47.50319" lon="6.66673">
        <ele>359</ele>
        <time>2015-05-08T09:27:07.000Z</time>
      </trkpt>
      <trkpt lat="47.50321" lon="6.66677">
        <ele>359</ele>
        <time>2015-05-08T09:27:08.000Z</time>
      </trkpt>
      <trkpt lat="47.50322" lon="6.6668">
        <ele>359</ele>
        <time>2015-05-08T09:27:09.000Z</time>
      </trkpt>
      <trkpt lat="47.50324" lon="6.66684">
        <ele>359</ele>
        <time>2015-05-08T09:27:10.000Z</time>
      </trkpt>
      <trkpt lat="47.50326" lon="6.66688">
        <ele>359</ele>
        <time>2015-05-08T09:27:11.000Z</time>
      </trkpt>
      <trkpt lat="47.50327" lon="6.66692">
        <ele>359</ele>
        <time>2015-05-08T09:27:12.000Z</time>
      </trkpt>
      <trkpt lat="47.50329" lon="6.66696">
        <ele>359</ele>
        <time>2015-05-08T09:27:13.000Z</time>
      </trkpt>
      <trkpt lat="47.50331" lon="6.667">
        <ele>359</ele>
        <time>2015-05-08T09:27:14.000Z</time>
      </trkpt>
      <trkpt lat="47.50332" lon="6.66705">
        <ele>359</ele>
        <time>2015-05-08T09:27:15.000Z</time>
      </trkpt>
      <trkpt lat="47.50334" lon="6.66709">
        <ele>358</ele>
        <time>2015-05-08T09:27:16.000Z</time>
      </trkpt>
      <trkpt lat="47.50336" lon="6.66714">
        <ele>358</ele>
        <time>2015-05-08T09:27:17.000Z</time>
      </trkpt>
      <trkpt lat="47.50339" lon="6.66717">
        <ele>358</ele>
        <time>2015-05-08T09:27:18.000Z</time>
      </trkpt>
      <trkpt lat="47.50342" lon="6.66719">
        <ele>358</ele>
        <time>2015-05-08T09:27:19.000Z</time>
      </trkpt>
      <trkpt lat="47.50346" lon="6.66719">
        <ele>358</ele>
        <time>2015-05-08T09:27:20.000Z</time>
      </trkpt>
      <trkpt lat="47.50349" lon="6.66718">
        <ele>358</ele>
        <time>2015-05-08T09:27:21.000Z</time>
      </trkpt>
      <trkpt lat="47.50351" lon="6.66715">
        <ele>358</ele>
        <time>2015-05-08T09:27:22.000Z</time>
      </trkpt>
      <trkpt lat="47.50353" lon="6.66712">
        <ele>358</ele>
        <time>2015-05-08T09:27:23.000Z</time>
      </trkpt>
      <trkpt lat="47.50354" lon="6.66708">
        <ele>358</ele>
        <time>2015-05-08T09:27:24.000Z</time>
      </trkpt>
      <trkpt lat="47.50355" lon="6.66704">
        <ele>358</ele>
        <time>2015-05-08T09:27:25.000Z</time>
      </trkpt>
      <trkpt lat="47.50355" lon="6.667">
        <ele>358</ele>
        <time>2015-05-08T09:27:26.000Z</time>
      </trkpt>
      <trkpt lat="47.50356" lon="6.66695">
        <ele>358</ele>
        <time>2015-05-08T09:27:28.000Z</time>
      </trkpt>
      <trkpt lat="47.50357" lon="6.66694">
        <ele>358</ele>
        <time>2015-05-08T09:27:29.000Z</time>
      </trkpt>
      <trkpt lat="47.5036" lon="6.66692">
        <ele>358</ele>
        <time>2015-05-08T09:27:33.000Z</time>
      </trkpt>
      <trkpt lat="47.50362" lon="6.66692">
        <ele>358</ele>
        <time>2015-05-08T09:27:34.000Z</time>
      </trkpt>
      <trkpt lat="47.50365" lon="6.66689">
        <ele>358</ele>
        <time>2015-05-08T09:27:36.000Z</time>
      </trkpt>
      <trkpt lat="47.50366" lon="6.66688">
        <ele>358</ele>
        <time>2015-05-08T09:27:37.000Z</time>
      </trkpt>
      <trkpt lat="47.50369" lon="6.66685">
        <ele>358</ele>
        <time>2015-05-08T09:27:39.000Z</time>
      </trkpt>
      <trkpt lat="47.5037" lon="6.66684">
        <ele>358</ele>
        <time>2015-05-08T09:27:40.000Z</time>
      </trkpt>
      <trkpt lat="47.50374" lon="6.66681">
        <ele>358</ele>
        <time>2015-05-08T09:27:43.000Z</time>
      </trkpt>
      <trkpt lat="47.50375" lon="6.66681">
        <ele>358</ele>
        <time>2015-05-08T09:27:44.000Z</time>
      </trkpt>
      <trkpt lat="47.50378" lon="6.66677">
        <ele>358</ele>
        <time>2015-05-08T09:27:49.000Z</time>
      </trkpt>
      <trkpt lat="47.50379" lon="6.66676">
        <ele>358</ele>
        <time>2015-05-08T09:27:50.000Z</time>
      </trkpt>
      <trkpt lat="47.50382" lon="6.66674">
        <ele>358</ele>
        <time>2015-05-08T09:27:54.000Z</time>
      </trkpt>
      <trkpt lat="47.50383" lon="6.66673">
        <ele>358</ele>
        <time>2015-05-08T09:27:55.000Z</time>
      </trkpt>
      <trkpt lat="47.50386" lon="6.66672">
        <ele>359</ele>
        <time>2015-05-08T09:27:58.000Z</time>
      </trkpt>
      <trkpt lat="47.50387" lon="6.66672">
        <ele>359</ele>
        <time>2015-05-08T09:27:59.000Z</time>
      </trkpt>
      <trkpt lat="47.5039" lon="6.66671">
        <ele>359</ele>
        <time>2015-05-08T09:28:02.000Z</time>
      </trkpt>
      <trkpt lat="47.50392" lon="6.6667">
        <ele>359</ele>
        <time>2015-05-08T09:28:03.000Z</time>
      </trkpt>
      <trkpt lat="47.50396" lon="6.66667">
        <ele>359</ele>
        <time>2015-05-08T09:28:06.000Z</time>
      </trkpt>
      <trkpt lat="47.50397" lon="6.66667">
        <ele>360</ele>
        <time>2015-05-08T09:28:07.000Z</time>
      </trkpt>
      <trkpt lat="47.50399" lon="6.66665">
        <ele>360</ele>
        <time>2015-05-08T09:28:09.000Z</time>
      </trkpt>
      <trkpt lat="47.50401" lon="6.66665">
        <ele>360</ele>
        <time>2015-05-08T09:28:10.000Z</time>
      </trkpt>
      <trkpt lat="47.50405" lon="6.66663">
        <ele>360</ele>
        <time>2015-05-08T09:28:13.000Z</time>
      </trkpt>
      <trkpt lat="47.50407" lon="6.66663">
        <ele>360</ele>
        <time>2015-05-08T09:28:14.000Z</time>
      </trkpt>
      <trkpt lat="47.50409" lon="6.6666">
        <ele>360</ele>
        <time>2015-05-08T09:28:16.000Z</time>
      </trkpt>
      <trkpt lat="47.50411" lon="6.66659">
        <ele>360</ele>
        <time>2015-05-08T09:28:17.000Z</time>
      </trkpt>
      <trkpt lat="47.50414" lon="6.66656">
        <ele>361</ele>
        <time>2015-05-08T09:28:20.000Z</time>
      </trkpt>
      <trkpt lat="47.50415" lon="6.66654">
        <ele>361</ele>
        <time>2015-05-08T09:28:21.000Z</time>
      </trkpt>
      <trkpt lat="47.50417" lon="6.66651">
        <ele>363</ele>
        <time>2015-05-08T09:28:23.000Z</time>
      </trkpt>
      <trkpt lat="47.50418" lon="6.6665">
        <ele>363</ele>
        <time>2015-05-08T09:28:24.000Z</time>
      </trkpt>
      <trkpt lat="47.50422" lon="6.66647">
        <ele>363</ele>
        <time>2015-05-08T09:28:27.000Z</time>
      </trkpt>
      <trkpt lat="47.50423" lon="6.66646">
        <ele>363</ele>
        <time>2015-05-08T09:28:28.000Z</time>
      </trkpt>
      <trkpt lat="47.50426" lon="6.66642">
        <ele>364</ele>
        <time>2015-05-08T09:28:31.000Z</time>
      </trkpt>
      <trkpt lat="47.50427" lon="6.66641">
        <ele>364</ele>
        <time>2015-05-08T09:28:32.000Z</time>
      </trkpt>
      <trkpt lat="47.50429" lon="6.66636">
        <ele>364</ele>
        <time>2015-05-08T09:28:35.000Z</time>
      </trkpt>
      <trkpt lat="47.50431" lon="6.66635">
        <ele>364</ele>
        <time>2015-05-08T09:28:36.000Z</time>
      </trkpt>
      <trkpt lat="47.50434" lon="6.66634">
        <ele>364</ele>
        <time>2015-05-08T09:28:38.000Z</time>
      </trkpt>
      <trkpt lat="47.50435" lon="6.66632">
        <ele>365</ele>
        <time>2015-05-08T09:28:39.000Z</time>
      </trkpt>
      <trkpt lat="47.50439" lon="6.6663">
        <ele>365</ele>
        <time>2015-05-08T09:28:42.000Z</time>
      </trkpt>
      <trkpt lat="47.5044" lon="6.66629">
        <ele>365</ele>
        <time>2015-05-08T09:28:43.000Z</time>
      </trkpt>
      <trkpt lat="47.50443" lon="6.66627">
        <ele>365</ele>
        <time>2015-05-08T09:28:45.000Z</time>
      </trkpt>
      <trkpt lat="47.50445" lon="6.66626">
        <ele>365</ele>
        <time>2015-05-08T09:28:46.000Z</time>
      </trkpt>
      <trkpt lat="47.50448" lon="6.66624">
        <ele>365</ele>
        <time>2015-05-08T09:28:48.000Z</time>
      </trkpt>
      <trkpt lat="47.5045" lon="6.66623">
        <ele>365</ele>
        <time>2015-05-08T09:28:49.000Z</time>
      </trkpt>
      <trkpt lat="47.50454" lon="6.66622">
        <ele>366</ele>
        <time>2015-05-08T09:28:52.000Z</time>
      </trkpt>
      <trkpt lat="47.50455" lon="6.66622">
        <ele>366</ele>
        <time>2015-05-08T09:28:53.000Z</time>
      </trkpt>
      <trkpt lat="47.50458" lon="6.66622">
        <ele>366</ele>
        <time>2015-05-08T09:28:55.000Z</time>
      </trkpt>
      <trkpt lat="47.5046" lon="6.66621">
        <ele>366</ele>
        <time>2015-05-08T09:28:56.000Z</time>
      </trkpt>
      <trkpt lat="47.50463" lon="6.66619">
        <ele>366</ele>
        <time>2015-05-08T09:28:58.000Z</time>
      </trkpt>
      <trkpt lat="47.50465" lon="6.66618">
        <ele>366</ele>
        <time>2015-05-08T09:28:59.000Z</time>
      </trkpt>
      <trkpt lat="47.50468" lon="6.66616">
        <ele>366</ele>
        <time>2015-05-08T09:29:01.000Z</time>
      </trkpt>
      <trkpt lat="47.50469" lon="6.66616">
        <ele>366</ele>
        <time>2015-05-08T09:29:02.000Z</time>
      </trkpt>
      <trkpt lat="47.50473" lon="6.66614">
        <ele>367</ele>
        <time>2015-05-08T09:29:05.000Z</time>
      </trkpt>
      <trkpt lat="47.50475" lon="6.66614">
        <ele>367</ele>
        <time>2015-05-08T09:29:06.000Z</time>
      </trkpt>
      <trkpt lat="47.50477" lon="6.6661">
        <ele>367</ele>
        <time>2015-05-08T09:29:09.000Z</time>
      </trkpt>
      <trkpt lat="47.50478" lon="6.66609">
        <ele>367</ele>
        <time>2015-05-08T09:29:10.000Z</time>
      </trkpt>
      <trkpt lat="47.5048" lon="6.66605">
        <ele>368</ele>
        <time>2015-05-08T09:29:12.000Z</time>
      </trkpt>
      <trkpt lat="47.50481" lon="6.66603">
        <ele>368</ele>
        <time>2015-05-08T09:29:13.000Z</time>
      </trkpt>
      <trkpt lat="47.50483" lon="6.666">
        <ele>369</ele>
        <time>2015-05-08T09:29:15.000Z</time>
      </trkpt>
      <trkpt lat="47.50485" lon="6.66597">
        <ele>369</ele>
        <time>2015-05-08T09:29:16.000Z</time>
      </trkpt>
      <trkpt lat="47.50487" lon="6.66594">
        <ele>370</ele>
        <time>2015-05-08T09:29:18.000Z</time>
      </trkpt>
      <trkpt lat="47.50489" lon="6.66592">
        <ele>370</ele>
        <time>2015-05-08T09:29:19.000Z</time>
      </trkpt>
      <trkpt lat="47.50491" lon="6.6659">
        <ele>371</ele>
        <time>2015-05-08T09:29:20.000Z</time>
      </trkpt>
      <trkpt lat="47.50493" lon="6.66589">
        <ele>371</ele>
        <time>2015-05-08T09:29:21.000Z</time>
      </trkpt>
      <trkpt lat="47.50496" lon="6.66586">
        <ele>373</ele>
        <time>2015-05-08T09:29:25.000Z</time>
      </trkpt>
      <trkpt lat="47.50497" lon="6.66586">
        <ele>373</ele>
        <time>2015-05-08T09:29:26.000Z</time>
      </trkpt>
      <trkpt lat="47.505" lon="6.66584">
        <ele>374</ele>
        <time>2015-05-08T09:29:28.000Z</time>
      </trkpt>
      <trkpt lat="47.50501" lon="6.66583">
        <ele>374</ele>
        <time>2015-05-08T09:29:29.000Z</time>
      </trkpt>
      <trkpt lat="47.50504" lon="6.66579">
        <ele>375</ele>
        <time>2015-05-08T09:29:32.000Z</time>
      </trkpt>
      <trkpt lat="47.50505" lon="6.66578">
        <ele>375</ele>
        <time>2015-05-08T09:29:33.000Z</time>
      </trkpt>
      <trkpt lat="47.50509" lon="6.66576">
        <ele>376</ele>
        <time>2015-05-08T09:29:35.000Z</time>
      </trkpt>
      <trkpt lat="47.50511" lon="6.66575">
        <ele>376</ele>
        <time>2015-05-08T09:29:36.000Z</time>
      </trkpt>
      <trkpt lat="47.50515" lon="6.66573">
        <ele>376</ele>
        <time>2015-05-08T09:29:38.000Z</time>
      </trkpt>
      <trkpt lat="47.50517" lon="6.66572">
        <ele>376</ele>
        <time>2015-05-08T09:29:39.000Z</time>
      </trkpt>
      <trkpt lat="47.50521" lon="6.66572">
        <ele>377</ele>
        <time>2015-05-08T09:29:42.000Z</time>
      </trkpt>
      <trkpt lat="47.50522" lon="6.66572">
        <ele>377</ele>
        <time>2015-05-08T09:29:43.000Z</time>
      </trkpt>
      <trkpt lat="47.50525" lon="6.66571">
        <ele>377</ele>
        <time>2015-05-08T09:29:45.000Z</time>
      </trkpt>
      <trkpt lat="47.50526" lon="6.6657">
        <ele>377</ele>
        <time>2015-05-08T09:29:46.000Z</time>
      </trkpt>
      <trkpt lat="47.5053" lon="6.66569">
        <ele>377</ele>
        <time>2015-05-08T09:29:49.000Z</time>
      </trkpt>
      <trkpt lat="47.50532" lon="6.66568">
        <ele>377</ele>
        <time>2015-05-08T09:29:50.000Z</time>
      </trkpt>
      <trkpt lat="47.50534" lon="6.66566">
        <ele>377</ele>
        <time>2015-05-08T09:29:51.000Z</time>
      </trkpt>
      <trkpt lat="47.50536" lon="6.66564">
        <ele>377</ele>
        <time>2015-05-08T09:29:52.000Z</time>
      </trkpt>
      <trkpt lat="47.50539" lon="6.66562">
        <ele>377</ele>
        <time>2015-05-08T09:29:55.000Z</time>
      </trkpt>
      <trkpt lat="47.5054" lon="6.66561">
        <ele>377</ele>
        <time>2015-05-08T09:29:56.000Z</time>
      </trkpt>
      <trkpt lat="47.50544" lon="6.66561">
        <ele>377</ele>
        <time>2015-05-08T09:29:59.000Z</time>
      </trkpt>
      <trkpt lat="47.50545" lon="6.6656">
        <ele>377</ele>
        <time>2015-05-08T09:30:00.000Z</time>
      </trkpt>
      <trkpt lat="47.50548" lon="6.66559">
        <ele>377</ele>
        <time>2015-05-08T09:30:02.000Z</time>
      </trkpt>
      <trkpt lat="47.5055" lon="6.66559">
        <ele>377</ele>
        <time>2015-05-08T09:30:03.000Z</time>
      </trkpt>
      <trkpt lat="47.50553" lon="6.66558">
        <ele>377</ele>
        <time>2015-05-08T09:30:05.000Z</time>
      </trkpt>
      <trkpt lat="47.50554" lon="6.66558">
        <ele>377</ele>
        <time>2015-05-08T09:30:06.000Z</time>
      </trkpt>
      <trkpt lat="47.50557" lon="6.66555">
        <ele>377</ele>
        <time>2015-05-08T09:30:09.000Z</time>
      </trkpt>
      <trkpt lat="47.50559" lon="6.66553">
        <ele>377</ele>
        <time>2015-05-08T09:30:10.000Z</time>
      </trkpt>
      <trkpt lat="47.50561" lon="6.66551">
        <ele>378</ele>
        <time>2015-05-08T09:30:12.000Z</time>
      </trkpt>
      <trkpt lat="47.50563" lon="6.66549">
        <ele>378</ele>
        <time>2015-05-08T09:30:13.000Z</time>
      </trkpt>
      <trkpt lat="47.50566" lon="6.66546">
        <ele>378</ele>
        <time>2015-05-08T09:30:15.000Z</time>
      </trkpt>
      <trkpt lat="47.50567" lon="6.66545">
        <ele>378</ele>
        <time>2015-05-08T09:30:16.000Z</time>
      </trkpt>
      <trkpt lat="47.50571" lon="6.66542">
        <ele>379</ele>
        <time>2015-05-08T09:30:19.000Z</time>
      </trkpt>
      <trkpt lat="47.50572" lon="6.66542">
        <ele>379</ele>
        <time>2015-05-08T09:30:20.000Z</time>
      </trkpt>
      <trkpt lat="47.50576" lon="6.66541">
        <ele>379</ele>
        <time>2015-05-08T09:30:23.000Z</time>
      </trkpt>
      <trkpt lat="47.50578" lon="6.6654">
        <ele>379</ele>
        <time>2015-05-08T09:30:24.000Z</time>
      </trkpt>
      <trkpt lat="47.50581" lon="6.66538">
        <ele>379</ele>
        <time>2015-05-08T09:30:27.000Z</time>
      </trkpt>
      <trkpt lat="47.50582" lon="6.66537">
        <ele>379</ele>
        <time>2015-05-08T09:30:28.000Z</time>
      </trkpt>
      <trkpt lat="47.50585" lon="6.66534">
        <ele>380</ele>
        <time>2015-05-08T09:30:31.000Z</time>
      </trkpt>
      <trkpt lat="47.50586" lon="6.66533">
        <ele>380</ele>
        <time>2015-05-08T09:30:32.000Z</time>
      </trkpt>
      <trkpt lat="47.50588" lon="6.66532">
        <ele>380</ele>
        <time>2015-05-08T09:30:33.000Z</time>
      </trkpt>
      <trkpt lat="47.5059" lon="6.6653">
        <ele>380</ele>
        <time>2015-05-08T09:30:34.000Z</time>
      </trkpt>
      <trkpt lat="47.50593" lon="6.66526">
        <ele>381</ele>
        <time>2015-05-08T09:30:41.000Z</time>
      </trkpt>
      <trkpt lat="47.50593" lon="6.66526">
        <ele>381</ele>
        <time>2015-05-08T09:30:42.000Z</time>
      </trkpt>
      <trkpt lat="47.50596" lon="6.66521">
        <ele>381</ele>
        <time>2015-05-08T09:30:47.000Z</time>
      </trkpt>
      <trkpt lat="47.50596" lon="6.66519">
        <ele>382</ele>
        <time>2015-05-08T09:30:48.000Z</time>
      </trkpt>
      <trkpt lat="47.50598" lon="6.66516">
        <ele>382</ele>
        <time>2015-05-08T09:30:50.000Z</time>
      </trkpt>
      <trkpt lat="47.506" lon="6.66514">
        <ele>382</ele>
        <time>2015-05-08T09:30:51.000Z</time>
      </trkpt>
      <trkpt lat="47.50603" lon="6.66511">
        <ele>382</ele>
        <time>2015-05-08T09:30:54.000Z</time>
      </trkpt>
      <trkpt lat="47.50604" lon="6.6651">
        <ele>382</ele>
        <time>2015-05-08T09:30:55.000Z</time>
      </trkpt>
      <trkpt lat="47.50607" lon="6.66507">
        <ele>382</ele>
        <time>2015-05-08T09:30:57.000Z</time>
      </trkpt>
      <trkpt lat="47.50608" lon="6.66506">
        <ele>382</ele>
        <time>2015-05-08T09:30:58.000Z</time>
      </trkpt>
      <trkpt lat="47.50612" lon="6.66502">
        <ele>382</ele>
        <time>2015-05-08T09:31:01.000Z</time>
      </trkpt>
      <trkpt lat="47.50613" lon="6.665">
        <ele>382</ele>
        <time>2015-05-08T09:31:02.000Z</time>
      </trkpt>
      <trkpt lat="47.50617" lon="6.66497">
        <ele>390</ele>
        <time>2015-05-08T09:31:05.000Z</time>
      </trkpt>
      <trkpt lat="47.50618" lon="6.66496">
        <ele>391</ele>
        <time>2015-05-08T09:31:06.000Z</time>
      </trkpt>
      <trkpt lat="47.50622" lon="6.66493">
        <ele>391</ele>
        <time>2015-05-08T09:31:09.000Z</time>
      </trkpt>
      <trkpt lat="47.50623" lon="6.66492">
        <ele>391</ele>
        <time>2015-05-08T09:31:10.000Z</time>
      </trkpt>
      <trkpt lat="47.50626" lon="6.6649">
        <ele>391</ele>
        <time>2015-05-08T09:31:12.000Z</time>
      </trkpt>
      <trkpt lat="47.50627" lon="6.66489">
        <ele>391</ele>
        <time>2015-05-08T09:31:13.000Z</time>
      </trkpt>
      <trkpt lat="47.5063" lon="6.66486">
        <ele>391</ele>
        <time>2015-05-08T09:31:15.000Z</time>
      </trkpt>
      <trkpt lat="47.50632" lon="6.66485">
        <ele>391</ele>
        <time>2015-05-08T09:31:16.000Z</time>
      </trkpt>
      <trkpt lat="47.50636" lon="6.66485">
        <ele>391</ele>
        <time>2015-05-08T09:31:20.000Z</time>
      </trkpt>
      <trkpt lat="47.50637" lon="6.66486">
        <ele>391</ele>
        <time>2015-05-08T09:31:21.000Z</time>
      </trkpt>
      <trkpt lat="47.5064" lon="6.66484">
        <ele>391</ele>
        <time>2015-05-08T09:31:24.000Z</time>
      </trkpt>
      <trkpt lat="47.50642" lon="6.66483">
        <ele>391</ele>
        <time>2015-05-08T09:31:25.000Z</time>
      </trkpt>
      <trkpt lat="47.50644" lon="6.66479">
        <ele>391</ele>
        <time>2015-05-08T09:31:28.000Z</time>
      </trkpt>
      <trkpt lat="47.50645" lon="6.66478">
        <ele>391</ele>
        <time>2015-05-08T09:31:29.000Z</time>
      </trkpt>
      <trkpt lat="47.50648" lon="6.66474">
        <ele>392</ele>
        <time>2015-05-08T09:31:31.000Z</time>
      </trkpt>
      <trkpt lat="47.5065" lon="6.66472">
        <ele>392</ele>
        <time>2015-05-08T09:31:32.000Z</time>
      </trkpt>
      <trkpt lat="47.50652" lon="6.66469">
        <ele>392</ele>
        <time>2015-05-08T09:31:34.000Z</time>
      </trkpt>
      <trkpt lat="47.50653" lon="6.66467">
        <ele>392</ele>
        <time>2015-05-08T09:31:35.000Z</time>
      </trkpt>
      <trkpt lat="47.50656" lon="6.66462">
        <ele>393</ele>
        <time>2015-05-08T09:31:38.000Z</time>
      </trkpt>
      <trkpt lat="47.50657" lon="6.6646">
        <ele>393</ele>
        <time>2015-05-08T09:31:39.000Z</time>
      </trkpt>
      <trkpt lat="47.5066" lon="6.66456">
        <ele>394</ele>
        <time>2015-05-08T09:31:42.000Z</time>
      </trkpt>
      <trkpt lat="47.50661" lon="6.66455">
        <ele>394</ele>
        <time>2015-05-08T09:31:43.000Z</time>
      </trkpt>
      <trkpt lat="47.50664" lon="6.66452">
        <ele>394</ele>
        <time>2015-05-08T09:31:45.000Z</time>
      </trkpt>
      <trkpt lat="47.50666" lon="6.66452">
        <ele>394</ele>
        <time>2015-05-08T09:31:46.000Z</time>
      </trkpt>
      <trkpt lat="47.50669" lon="6.66449">
        <ele>396</ele>
        <time>2015-05-08T09:31:48.000Z</time>
      </trkpt>
      <trkpt lat="47.5067" lon="6.66448">
        <ele>396</ele>
        <time>2015-05-08T09:31:49.000Z</time>
      </trkpt>
      <trkpt lat="47.50672" lon="6.66445">
        <ele>397</ele>
        <time>2015-05-08T09:31:51.000Z</time>
      </trkpt>
      <trkpt lat="47.50674" lon="6.66444">
        <ele>397</ele>
        <time>2015-05-08T09:31:52.000Z</time>
      </trkpt>
      <trkpt lat="47.50677" lon="6.66442">
        <ele>397</ele>
        <time>2015-05-08T09:31:55.000Z</time>
      </trkpt>
      <trkpt lat="47.50679" lon="6.66441">
        <ele>397</ele>
        <time>2015-05-08T09:31:56.000Z</time>
      </trkpt>
      <trkpt lat="47.50682" lon="6.66437">
        <ele>398</ele>
        <time>2015-05-08T09:31:59.000Z</time>
      </trkpt>
      <trkpt lat="47.50683" lon="6.66436">
        <ele>398</ele>
        <time>2015-05-08T09:32:00.000Z</time>
      </trkpt>
      <trkpt lat="47.50686" lon="6.66433">
        <ele>398</ele>
        <time>2015-05-08T09:32:02.000Z</time>
      </trkpt>
      <trkpt lat="47.50688" lon="6.66432">
        <ele>398</ele>
        <time>2015-05-08T09:32:03.000Z</time>
      </trkpt>
      <trkpt lat="47.50691" lon="6.66429">
        <ele>398</ele>
        <time>2015-05-08T09:32:06.000Z</time>
      </trkpt>
      <trkpt lat="47.50692" lon="6.66428">
        <ele>398</ele>
        <time>2015-05-08T09:32:07.000Z</time>
      </trkpt>
      <trkpt lat="47.50695" lon="6.66427">
        <ele>398</ele>
        <time>2015-05-08T09:32:09.000Z</time>
      </trkpt>
      <trkpt lat="47.50697" lon="6.66426">
        <ele>398</ele>
        <time>2015-05-08T09:32:10.000Z</time>
      </trkpt>
      <trkpt lat="47.507" lon="6.66425">
        <ele>398</ele>
        <time>2015-05-08T09:32:11.999Z</time>
      </trkpt>
      <trkpt lat="47.50702" lon="6.66425">
        <ele>398</ele>
        <time>2015-05-08T09:32:13.000Z</time>
      </trkpt>
      <trkpt lat="47.50705" lon="6.66422">
        <ele>398</ele>
        <time>2015-05-08T09:32:16.000Z</time>
      </trkpt>
      <trkpt lat="47.50707" lon="6.66421">
        <ele>398</ele>
        <time>2015-05-08T09:32:17.000Z</time>
      </trkpt>
      <trkpt lat="47.5071" lon="6.6642">
        <ele>398</ele>
        <time>2015-05-08T09:32:19.000Z</time>
      </trkpt>
      <trkpt lat="47.50712" lon="6.6642">
        <ele>398</ele>
        <time>2015-05-08T09:32:20.000Z</time>
      </trkpt>
      <trkpt lat="47.50716" lon="6.66418">
        <ele>399</ele>
        <time>2015-05-08T09:32:23.000Z</time>
      </trkpt>
      <trkpt lat="47.50717" lon="6.66418">
        <ele>399</ele>
        <time>2015-05-08T09:32:24.000Z</time>
      </trkpt>
      <trkpt lat="47.5072" lon="6.66415">
        <ele>406</ele>
        <time>2015-05-08T09:32:26.000Z</time>
      </trkpt>
      <trkpt lat="47.50722" lon="6.66414">
        <ele>406</ele>
        <time>2015-05-08T09:32:27.000Z</time>
      </trkpt>
      <trkpt lat="47.50725" lon="6.6641">
        <ele>407</ele>
        <time>2015-05-08T09:32:30.000Z</time>
      </trkpt>
      <trkpt lat="47.50726" lon="6.66408">
        <ele>407</ele>
        <time>2015-05-08T09:32:31.000Z</time>
      </trkpt>
      <trkpt lat="47.50729" lon="6.66404">
        <ele>407</ele>
        <time>2015-05-08T09:32:34.000Z</time>
      </trkpt>
      <trkpt lat="47.5073" lon="6.66403">
        <ele>407</ele>
        <time>2015-05-08T09:32:35.000Z</time>
      </trkpt>
      <trkpt lat="47.50732" lon="6.66401">
        <ele>407</ele>
        <time>2015-05-08T09:32:36.000Z</time>
      </trkpt>
      <trkpt lat="47.50734" lon="6.66398">
        <ele>407</ele>
        <time>2015-05-08T09:32:37.000Z</time>
      </trkpt>
      <trkpt lat="47.50737" lon="6.66395">
        <ele>407</ele>
        <time>2015-05-08T09:32:39.000Z</time>
      </trkpt>
      <trkpt lat="47.50738" lon="6.66393">
        <ele>407</ele>
        <time>2015-05-08T09:32:40.000Z</time>
      </trkpt>
      <trkpt lat="47.50741" lon="6.66389">
        <ele>407</ele>
        <time>2015-05-08T09:32:44.000Z</time>
      </trkpt>
      <trkpt lat="47.50742" lon="6.66388">
        <ele>408</ele>
        <time>2015-05-08T09:32:45.000Z</time>
      </trkpt>
      <trkpt lat="47.50746" lon="6.66384">
        <ele>408</ele>
        <time>2015-05-08T09:32:48.000Z</time>
      </trkpt>
      <trkpt lat="47.50747" lon="6.66383">
        <ele>408</ele>
        <time>2015-05-08T09:32:49.000Z</time>
      </trkpt>
      <trkpt lat="47.5075" lon="6.66379">
        <ele>407</ele>
        <time>2015-05-08T09:32:53.000Z</time>
      </trkpt>
      <trkpt lat="47.50752" lon="6.66378">
        <ele>407</ele>
        <time>2015-05-08T09:32:54.000Z</time>
      </trkpt>
      <trkpt lat="47.50756" lon="6.66376">
        <ele>407</ele>
        <time>2015-05-08T09:32:57.000Z</time>
      </trkpt>
      <trkpt lat="47.50757" lon="6.66375">
        <ele>407</ele>
        <time>2015-05-08T09:32:58.000Z</time>
      </trkpt>
      <trkpt lat="47.50761" lon="6.66372">
        <ele>407</ele>
        <time>2015-05-08T09:33:01.000Z</time>
      </trkpt>
      <trkpt lat="47.50762" lon="6.66371">
        <ele>407</ele>
        <time>2015-05-08T09:33:02.000Z</time>
      </trkpt>
      <trkpt lat="47.50765" lon="6.66368">
        <ele>407</ele>
        <time>2015-05-08T09:33:06.000Z</time>
      </trkpt>
      <trkpt lat="47.50766" lon="6.66368">
        <ele>407</ele>
        <time>2015-05-08T09:33:07.000Z</time>
      </trkpt>
      <trkpt lat="47.5077" lon="6.66366">
        <ele>407</ele>
        <time>2015-05-08T09:33:10.000Z</time>
      </trkpt>
      <trkpt lat="47.50771" lon="6.66365">
        <ele>407</ele>
        <time>2015-05-08T09:33:11.000Z</time>
      </trkpt>
      <trkpt lat="47.50775" lon="6.66363">
        <ele>407</ele>
        <time>2015-05-08T09:33:13.000Z</time>
      </trkpt>
      <trkpt lat="47.50776" lon="6.66362">
        <ele>408</ele>
        <time>2015-05-08T09:33:14.000Z</time>
      </trkpt>
      <trkpt lat="47.50779" lon="6.66359">
        <ele>408</ele>
        <time>2015-05-08T09:33:17.000Z</time>
      </trkpt>
      <trkpt lat="47.50781" lon="6.66358">
        <ele>408</ele>
        <time>2015-05-08T09:33:18.000Z</time>
      </trkpt>
      <trkpt lat="47.50784" lon="6.66357">
        <ele>407</ele>
        <time>2015-05-08T09:33:21.000Z</time>
      </trkpt>
      <trkpt lat="47.50786" lon="6.66356">
        <ele>407</ele>
        <time>2015-05-08T09:33:22.000Z</time>
      </trkpt>
      <trkpt lat="47.50789" lon="6.66354">
        <ele>407</ele>
        <time>2015-05-08T09:33:24.000Z</time>
      </trkpt>
      <trkpt lat="47.5079" lon="6.66353">
        <ele>407</ele>
        <time>2015-05-08T09:33:25.000Z</time>
      </trkpt>
      <trkpt lat="47.50793" lon="6.6635">
        <ele>408</ele>
        <time>2015-05-08T09:33:28.000Z</time>
      </trkpt>
      <trkpt lat="47.50794" lon="6.66349">
        <ele>408</ele>
        <time>2015-05-08T09:33:29.000Z</time>
      </trkpt>
      <trkpt lat="47.50797" lon="6.66346">
        <ele>408</ele>
        <time>2015-05-08T09:33:32.000Z</time>
      </trkpt>
      <trkpt lat="47.50799" lon="6.66344">
        <ele>408</ele>
        <time>2015-05-08T09:33:33.000Z</time>
      </trkpt>
      <trkpt lat="47.50802" lon="6.66341">
        <ele>408</ele>
        <time>2015-05-08T09:33:36.000Z</time>
      </trkpt>
      <trkpt lat="47.50803" lon="6.6634">
        <ele>408</ele>
        <time>2015-05-08T09:33:37.000Z</time>
      </trkpt>
      <trkpt lat="47.50806" lon="6.66336">
        <ele>408</ele>
        <time>2015-05-08T09:33:40.000Z</time>
      </trkpt>
      <trkpt lat="47.50807" lon="6.66334">
        <ele>408</ele>
        <time>2015-05-08T09:33:41.000Z</time>
      </trkpt>
      <trkpt lat="47.5081" lon="6.66331">
        <ele>412</ele>
        <time>2015-05-08T09:33:43.000Z</time>
      </trkpt>
      <trkpt lat="47.50812" lon="6.66328">
        <ele>412</ele>
        <time>2015-05-08T09:33:44.000Z</time>
      </trkpt>
      <trkpt lat="47.50814" lon="6.66326">
        <ele>412</ele>
        <time>2015-05-08T09:33:45.000Z</time>
      </trkpt>
      <trkpt lat="47.50817" lon="6.66323">
        <ele>412</ele>
        <time>2015-05-08T09:33:46.000Z</time>
      </trkpt>
      <trkpt lat="47.50819" lon="6.66321">
        <ele>412</ele>
        <time>2015-05-08T09:33:47.000Z</time>
      </trkpt>
      <trkpt lat="47.50821" lon="6.6632">
        <ele>412</ele>
        <time>2015-05-08T09:33:48.000Z</time>
      </trkpt>
      <trkpt lat="47.50824" lon="6.66316">
        <ele>412</ele>
        <time>2015-05-08T09:33:50.000Z</time>
      </trkpt>
      <trkpt lat="47.50826" lon="6.66314">
        <ele>412</ele>
        <time>2015-05-08T09:33:51.000Z</time>
      </trkpt>
      <trkpt lat="47.50828" lon="6.66309">
        <ele>413</ele>
        <time>2015-05-08T09:33:53.000Z</time>
      </trkpt>
      <trkpt lat="47.50829" lon="6.66306">
        <ele>413</ele>
        <time>2015-05-08T09:33:54.000Z</time>
      </trkpt>
      <trkpt lat="47.50831" lon="6.66302">
        <ele>413</ele>
        <time>2015-05-08T09:33:55.000Z</time>
      </trkpt>
      <trkpt lat="47.50833" lon="6.66299">
        <ele>413</ele>
        <time>2015-05-08T09:33:56.000Z</time>
      </trkpt>
      <trkpt lat="47.50835" lon="6.66296">
        <ele>414</ele>
        <time>2015-05-08T09:33:57.000Z</time>
      </trkpt>
      <trkpt lat="47.50838" lon="6.66293">
        <ele>414</ele>
        <time>2015-05-08T09:33:58.000Z</time>
      </trkpt>
      <trkpt lat="47.5084" lon="6.66291">
        <ele>414</ele>
        <time>2015-05-08T09:33:59.000Z</time>
      </trkpt>
      <trkpt lat="47.50843" lon="6.66289">
        <ele>414</ele>
        <time>2015-05-08T09:34:00.000Z</time>
      </trkpt>
      <trkpt lat="47.50846" lon="6.66286">
        <ele>414</ele>
        <time>2015-05-08T09:34:02.000Z</time>
      </trkpt>
      <trkpt lat="47.50847" lon="6.66284">
        <ele>414</ele>
        <time>2015-05-08T09:34:03.000Z</time>
      </trkpt>
      <trkpt lat="47.50849" lon="6.66282">
        <ele>415</ele>
        <time>2015-05-08T09:34:05.000Z</time>
      </trkpt>
      <trkpt lat="47.50851" lon="6.6628">
        <ele>415</ele>
        <time>2015-05-08T09:34:06.000Z</time>
      </trkpt>
      <trkpt lat="47.50853" lon="6.66278">
        <ele>415</ele>
        <time>2015-05-08T09:34:07.000Z</time>
      </trkpt>
      <trkpt lat="47.50855" lon="6.66275">
        <ele>415</ele>
        <time>2015-05-08T09:34:08.000Z</time>
      </trkpt>
      <trkpt lat="47.50857" lon="6.66271">
        <ele>415</ele>
        <time>2015-05-08T09:34:10.000Z</time>
      </trkpt>
      <trkpt lat="47.50858" lon="6.6627">
        <ele>415</ele>
        <time>2015-05-08T09:34:11.000Z</time>
      </trkpt>
      <trkpt lat="47.50862" lon="6.66267">
        <ele>415</ele>
        <time>2015-05-08T09:34:15.000Z</time>
      </trkpt>
      <trkpt lat="47.50863" lon="6.66265">
        <ele>416</ele>
        <time>2015-05-08T09:34:16.000Z</time>
      </trkpt>
      <trkpt lat="47.50866" lon="6.6626">
        <ele>416</ele>
        <time>2015-05-08T09:34:19.000Z</time>
      </trkpt>
      <trkpt lat="47.50866" lon="6.66259">
        <ele>416</ele>
        <time>2015-05-08T09:34:20.000Z</time>
      </trkpt>
      <trkpt lat="47.50868" lon="6.66256">
        <ele>416</ele>
        <time>2015-05-08T09:34:22.000Z</time>
      </trkpt>
      <trkpt lat="47.5087" lon="6.66254">
        <ele>416</ele>
        <time>2015-05-08T09:34:23.000Z</time>
      </trkpt>
      <trkpt lat="47.50873" lon="6.66251">
        <ele>416</ele>
        <time>2015-05-08T09:34:25.000Z</time>
      </trkpt>
      <trkpt lat="47.50875" lon="6.6625">
        <ele>422</ele>
        <time>2015-05-08T09:34:26.000Z</time>
      </trkpt>
      <trkpt lat="47.50878" lon="6.66247">
        <ele>422</ele>
        <time>2015-05-08T09:34:28.000Z</time>
      </trkpt>
      <trkpt lat="47.5088" lon="6.66247">
        <ele>422</ele>
        <time>2015-05-08T09:34:29.000Z</time>
      </trkpt>
      <trkpt lat="47.50883" lon="6.66246">
        <ele>423</ele>
        <time>2015-05-08T09:34:31.000Z</time>
      </trkpt>
      <trkpt lat="47.50885" lon="6.66246">
        <ele>423</ele>
        <time>2015-05-08T09:34:32.000Z</time>
      </trkpt>
      <trkpt lat="47.50889" lon="6.66244">
        <ele>423</ele>
        <time>2015-05-08T09:34:35.000Z</time>
      </trkpt>
      <trkpt lat="47.50891" lon="6.66243">
        <ele>423</ele>
        <time>2015-05-08T09:34:36.000Z</time>
      </trkpt>
      <trkpt lat="47.50894" lon="6.66242">
        <ele>423</ele>
        <time>2015-05-08T09:34:39.000Z</time>
      </trkpt>
      <trkpt lat="47.50895" lon="6.66241">
        <ele>423</ele>
        <time>2015-05-08T09:34:40.000Z</time>
      </trkpt>
      <trkpt lat="47.50898" lon="6.66239">
        <ele>424</ele>
        <time>2015-05-08T09:34:42.000Z</time>
      </trkpt>
      <trkpt lat="47.50899" lon="6.66238">
        <ele>424</ele>
        <time>2015-05-08T09:34:43.000Z</time>
      </trkpt>
      <trkpt lat="47.50903" lon="6.66237">
        <ele>424</ele>
        <time>2015-05-08T09:34:46.000Z</time>
      </trkpt>
      <trkpt lat="47.50905" lon="6.66237">
        <ele>424</ele>
        <time>2015-05-08T09:34:47.000Z</time>
      </trkpt>
      <trkpt lat="47.50908" lon="6.66237">
        <ele>424</ele>
        <time>2015-05-08T09:34:49.000Z</time>
      </trkpt>
      <trkpt lat="47.5091" lon="6.66237">
        <ele>424</ele>
        <time>2015-05-08T09:34:50.000Z</time>
      </trkpt>
      <trkpt lat="47.50913" lon="6.66237">
        <ele>424</ele>
        <time>2015-05-08T09:34:52.000Z</time>
      </trkpt>
      <trkpt lat="47.50914" lon="6.66237">
        <ele>424</ele>
        <time>2015-05-08T09:34:53.000Z</time>
      </trkpt>
      <trkpt lat="47.50918" lon="6.66236">
        <ele>425</ele>
        <time>2015-05-08T09:34:55.000Z</time>
      </trkpt>
      <trkpt lat="47.5092" lon="6.66236">
        <ele>425</ele>
        <time>2015-05-08T09:34:56.000Z</time>
      </trkpt>
      <trkpt lat="47.50923" lon="6.66234">
        <ele>426</ele>
        <time>2015-05-08T09:34:58.000Z</time>
      </trkpt>
      <trkpt lat="47.50925" lon="6.66234">
        <ele>426</ele>
        <time>2015-05-08T09:34:58.998Z</time>
      </trkpt>
      <trkpt lat="47.50928" lon="6.66234">
        <ele>426</ele>
        <time>2015-05-08T09:35:00.000Z</time>
      </trkpt>
      <trkpt lat="47.50929" lon="6.66233">
        <ele>425</ele>
        <time>2015-05-08T09:35:01.000Z</time>
      </trkpt>
      <trkpt lat="47.50932" lon="6.66233">
        <ele>425</ele>
        <time>2015-05-08T09:35:02.000Z</time>
      </trkpt>
      <trkpt lat="47.50934" lon="6.66232">
        <ele>425</ele>
        <time>2015-05-08T09:35:03.000Z</time>
      </trkpt>
      <trkpt lat="47.50937" lon="6.66231">
        <ele>425</ele>
        <time>2015-05-08T09:35:04.000Z</time>
      </trkpt>
      <trkpt lat="47.50939" lon="6.66231">
        <ele>425</ele>
        <time>2015-05-08T09:35:05.000Z</time>
      </trkpt>
      <trkpt lat="47.50943" lon="6.66229">
        <ele>425</ele>
        <time>2015-05-08T09:35:07.000Z</time>
      </trkpt>
      <trkpt lat="47.50945" lon="6.66228">
        <ele>425</ele>
        <time>2015-05-08T09:35:08.000Z</time>
      </trkpt>
      <trkpt lat="47.50947" lon="6.66227">
        <ele>425</ele>
        <time>2015-05-08T09:35:09.000Z</time>
      </trkpt>
      <trkpt lat="47.5095" lon="6.66226">
        <ele>425</ele>
        <time>2015-05-08T09:35:10.000Z</time>
      </trkpt>
      <trkpt lat="47.50953" lon="6.66226">
        <ele>425</ele>
        <time>2015-05-08T09:35:12.000Z</time>
      </trkpt>
      <trkpt lat="47.50955" lon="6.66227">
        <ele>425</ele>
        <time>2015-05-08T09:35:13.000Z</time>
      </trkpt>
      <trkpt lat="47.50958" lon="6.66228">
        <ele>425</ele>
        <time>2015-05-08T09:35:15.000Z</time>
      </trkpt>
      <trkpt lat="47.5096" lon="6.66228">
        <ele>425</ele>
        <time>2015-05-08T09:35:16.000Z</time>
      </trkpt>
      <trkpt lat="47.50963" lon="6.66228">
        <ele>425</ele>
        <time>2015-05-08T09:35:18.000Z</time>
      </trkpt>
      <trkpt lat="47.50965" lon="6.66227">
        <ele>425</ele>
        <time>2015-05-08T09:35:19.000Z</time>
      </trkpt>
      <trkpt lat="47.50969" lon="6.66225">
        <ele>424</ele>
        <time>2015-05-08T09:35:21.000Z</time>
      </trkpt>
      <trkpt lat="47.50971" lon="6.66223">
        <ele>425</ele>
        <time>2015-05-08T09:35:22.000Z</time>
      </trkpt>
      <trkpt lat="47.50973" lon="6.6622">
        <ele>425</ele>
        <time>2015-05-08T09:35:23.000Z</time>
      </trkpt>
      <trkpt lat="47.50975" lon="6.66217">
        <ele>425</ele>
        <time>2015-05-08T09:35:24.000Z</time>
      </trkpt>
      <trkpt lat="47.50978" lon="6.66214">
        <ele>425</ele>
        <time>2015-05-08T09:35:25.000Z</time>
      </trkpt>
      <trkpt lat="47.5098" lon="6.6621">
        <ele>426</ele>
        <time>2015-05-08T09:35:26.000Z</time>
      </trkpt>
      <trkpt lat="47.50982" lon="6.66207">
        <ele>426</ele>
        <time>2015-05-08T09:35:27.000Z</time>
      </trkpt>
      <trkpt lat="47.50984" lon="6.66203">
        <ele>426</ele>
        <time>2015-05-08T09:35:28.000Z</time>
      </trkpt>
      <trkpt lat="47.50985" lon="6.662">
        <ele>427</ele>
        <time>2015-05-08T09:35:29.000Z</time>
      </trkpt>
      <trkpt lat="47.50986" lon="6.66197">
        <ele>427</ele>
        <time>2015-05-08T09:35:30.000Z</time>
      </trkpt>
      <trkpt lat="47.50989" lon="6.66192">
        <ele>428</ele>
        <time>2015-05-08T09:35:32.000Z</time>
      </trkpt>
      <trkpt lat="47.5099" lon="6.6619">
        <ele>428</ele>
        <time>2015-05-08T09:35:33.000Z</time>
      </trkpt>
      <trkpt lat="47.50993" lon="6.66186">
        <ele>429</ele>
        <time>2015-05-08T09:35:36.000Z</time>
      </trkpt>
      <trkpt lat="47.50994" lon="6.66185">
        <ele>429</ele>
        <time>2015-05-08T09:35:37.000Z</time>
      </trkpt>
      <trkpt lat="47.50996" lon="6.6618">
        <ele>430</ele>
        <time>2015-05-08T09:35:40.000Z</time>
      </trkpt>
      <trkpt lat="47.50997" lon="6.66178">
        <ele>431</ele>
        <time>2015-05-08T09:35:41.000Z</time>
      </trkpt>
      <trkpt lat="47.50999" lon="6.66175">
        <ele>432</ele>
        <time>2015-05-08T09:35:42.000Z</time>
      </trkpt>
      <trkpt lat="47.51" lon="6.66171">
        <ele>431</ele>
        <time>2015-05-08T09:35:43.000Z</time>
      </trkpt>
      <trkpt lat="47.51002" lon="6.66168">
        <ele>433</ele>
        <time>2015-05-08T09:35:44.000Z</time>
      </trkpt>
      <trkpt lat="47.51004" lon="6.66164">
        <ele>434</ele>
        <time>2015-05-08T09:35:45.000Z</time>
      </trkpt>
      <trkpt lat="47.51005" lon="6.6616">
        <ele>433</ele>
        <time>2015-05-08T09:35:46.000Z</time>
      </trkpt>
      <trkpt lat="47.51006" lon="6.66156">
        <ele>433</ele>
        <time>2015-05-08T09:35:47.000Z</time>
      </trkpt>
      <trkpt lat="47.51007" lon="6.66151">
        <ele>433</ele>
        <time>2015-05-08T09:35:48.000Z</time>
      </trkpt>
      <trkpt lat="47.51007" lon="6.66148">
        <ele>433</ele>
        <time>2015-05-08T09:35:49.000Z</time>
      </trkpt>
      <trkpt lat="47.51008" lon="6.66141">
        <ele>433</ele>
        <time>2015-05-08T09:35:51.000Z</time>
      </trkpt>
      <trkpt lat="47.51008" lon="6.66139">
        <ele>433</ele>
        <time>2015-05-08T09:35:52.000Z</time>
      </trkpt>
      <trkpt lat="47.51009" lon="6.66134">
        <ele>433</ele>
        <time>2015-05-08T09:35:54.000Z</time>
      </trkpt>
      <trkpt lat="47.51009" lon="6.66132">
        <ele>433</ele>
        <time>2015-05-08T09:35:55.000Z</time>
      </trkpt>
      <trkpt lat="47.51009" lon="6.66127">
        <ele>433</ele>
        <time>2015-05-08T09:35:58.000Z</time>
      </trkpt>
      <trkpt lat="47.51009" lon="6.66125">
        <ele>433</ele>
        <time>2015-05-08T09:35:59.000Z</time>
      </trkpt>
      <trkpt lat="47.51009" lon="6.66119">
        <ele>434</ele>
        <time>2015-05-08T09:36:02.000Z</time>
      </trkpt>
      <trkpt lat="47.51009" lon="6.66116">
        <ele>434</ele>
        <time>2015-05-08T09:36:03.000Z</time>
      </trkpt>
      <trkpt lat="47.51008" lon="6.66112">
        <ele>434</ele>
        <time>2015-05-08T09:36:04.000Z</time>
      </trkpt>
      <trkpt lat="47.51007" lon="6.66108">
        <ele>435</ele>
        <time>2015-05-08T09:36:05.000Z</time>
      </trkpt>
      <trkpt lat="47.51006" lon="6.66104">
        <ele>435</ele>
        <time>2015-05-08T09:36:06.000Z</time>
      </trkpt>
      <trkpt lat="47.51005" lon="6.661">
        <ele>436</ele>
        <time>2015-05-08T09:36:07.000Z</time>
      </trkpt>
      <trkpt lat="47.51005" lon="6.66096">
        <ele>437</ele>
        <time>2015-05-08T09:36:08.000Z</time>
      </trkpt>
      <trkpt lat="47.51004" lon="6.66093">
        <ele>437</ele>
        <time>2015-05-08T09:36:09.000Z</time>
      </trkpt>
      <trkpt lat="47.51005" lon="6.66087">
        <ele>438</ele>
        <time>2015-05-08T09:36:11.000Z</time>
      </trkpt>
      <trkpt lat="47.51005" lon="6.66083">
        <ele>439</ele>
        <time>2015-05-08T09:36:12.000Z</time>
      </trkpt>
      <trkpt lat="47.51006" lon="6.66077">
        <ele>439</ele>
        <time>2015-05-08T09:36:14.000Z</time>
      </trkpt>
      <trkpt lat="47.51006" lon="6.66074">
        <ele>439</ele>
        <time>2015-05-08T09:36:15.000Z</time>
      </trkpt>
      <trkpt lat="47.51007" lon="6.66071">
        <ele>439</ele>
        <time>2015-05-08T09:36:16.000Z</time>
      </trkpt>
      <trkpt lat="47.51009" lon="6.66068">
        <ele>438</ele>
        <time>2015-05-08T09:36:17.000Z</time>
      </trkpt>
      <trkpt lat="47.5101" lon="6.66065">
        <ele>438</ele>
        <time>2015-05-08T09:36:18.000Z</time>
      </trkpt>
      <trkpt lat="47.51012" lon="6.66062">
        <ele>438</ele>
        <time>2015-05-08T09:36:19.000Z</time>
      </trkpt>
      <trkpt lat="47.51014" lon="6.66056">
        <ele>438</ele>
        <time>2015-05-08T09:36:21.000Z</time>
      </trkpt>
      <trkpt lat="47.51014" lon="6.66054">
        <ele>438</ele>
        <time>2015-05-08T09:36:22.000Z</time>
      </trkpt>
      <trkpt lat="47.51015" lon="6.66048">
        <ele>438</ele>
        <time>2015-05-08T09:36:24.000Z</time>
      </trkpt>
      <trkpt lat="47.51016" lon="6.66045">
        <ele>438</ele>
        <time>2015-05-08T09:36:25.000Z</time>
      </trkpt>
      <trkpt lat="47.51016" lon="6.66042">
        <ele>438</ele>
        <time>2015-05-08T09:36:26.000Z</time>
      </trkpt>
      <trkpt lat="47.51016" lon="6.66039">
        <ele>438</ele>
        <time>2015-05-08T09:36:27.000Z</time>
      </trkpt>
      <trkpt lat="47.51017" lon="6.66034">
        <ele>438</ele>
        <time>2015-05-08T09:36:28.000Z</time>
      </trkpt>
      <trkpt lat="47.51018" lon="6.6603">
        <ele>438</ele>
        <time>2015-05-08T09:36:29.000Z</time>
      </trkpt>
      <trkpt lat="47.51019" lon="6.66025">
        <ele>438</ele>
        <time>2015-05-08T09:36:30.000Z</time>
      </trkpt>
      <trkpt lat="47.5102" lon="6.6602">
        <ele>438</ele>
        <time>2015-05-08T09:36:31.000Z</time>
      </trkpt>
      <trkpt lat="47.51022" lon="6.66015">
        <ele>438</ele>
        <time>2015-05-08T09:36:32.000Z</time>
      </trkpt>
      <trkpt lat="47.51023" lon="6.6601">
        <ele>438</ele>
        <time>2015-05-08T09:36:33.000Z</time>
      </trkpt>
      <trkpt lat="47.51024" lon="6.66006">
        <ele>438</ele>
        <time>2015-05-08T09:36:34.000Z</time>
      </trkpt>
      <trkpt lat="47.51025" lon="6.66001">
        <ele>438</ele>
        <time>2015-05-08T09:36:35.000Z</time>
      </trkpt>
      <trkpt lat="47.51026" lon="6.65997">
        <ele>439</ele>
        <time>2015-05-08T09:36:36.000Z</time>
      </trkpt>
      <trkpt lat="47.51027" lon="6.65993">
        <ele>439</ele>
        <time>2015-05-08T09:36:37.000Z</time>
      </trkpt>
      <trkpt lat="47.51028" lon="6.65988">
        <ele>438</ele>
        <time>2015-05-08T09:36:39.000Z</time>
      </trkpt>
      <trkpt lat="47.51029" lon="6.65985">
        <ele>438</ele>
        <time>2015-05-08T09:36:40.000Z</time>
      </trkpt>
      <trkpt lat="47.51029" lon="6.65981">
        <ele>438</ele>
        <time>2015-05-08T09:36:41.000Z</time>
      </trkpt>
      <trkpt lat="47.5103" lon="6.65978">
        <ele>438</ele>
        <time>2015-05-08T09:36:42.000Z</time>
      </trkpt>
      <trkpt lat="47.51031" lon="6.65974">
        <ele>438</ele>
        <time>2015-05-08T09:36:43.000Z</time>
      </trkpt>
      <trkpt lat="47.51032" lon="6.6597">
        <ele>438</ele>
        <time>2015-05-08T09:36:44.000Z</time>
      </trkpt>
      <trkpt lat="47.51034" lon="6.65965">
        <ele>438</ele>
        <time>2015-05-08T09:36:46.000Z</time>
      </trkpt>
      <trkpt lat="47.51035" lon="6.65962">
        <ele>438</ele>
        <time>2015-05-08T09:36:47.000Z</time>
      </trkpt>
      <trkpt lat="47.51037" lon="6.65958">
        <ele>438</ele>
        <time>2015-05-08T09:36:49.000Z</time>
      </trkpt>
      <trkpt lat="47.51037" lon="6.65956">
        <ele>438</ele>
        <time>2015-05-08T09:36:50.000Z</time>
      </trkpt>
      <trkpt lat="47.51039" lon="6.65951">
        <ele>438</ele>
        <time>2015-05-08T09:36:53.000Z</time>
      </trkpt>
      <trkpt lat="47.51039" lon="6.65949">
        <ele>438</ele>
        <time>2015-05-08T09:36:54.000Z</time>
      </trkpt>
      <trkpt lat="47.51042" lon="6.65945">
        <ele>438</ele>
        <time>2015-05-08T09:36:56.000Z</time>
      </trkpt>
      <trkpt lat="47.51043" lon="6.65943">
        <ele>438</ele>
        <time>2015-05-08T09:36:57.000Z</time>
      </trkpt>
      <trkpt lat="47.51045" lon="6.65938">
        <ele>438</ele>
        <time>2015-05-08T09:36:59.000Z</time>
      </trkpt>
      <trkpt lat="47.51047" lon="6.65934">
        <ele>438</ele>
        <time>2015-05-08T09:37:00.000Z</time>
      </trkpt>
      <trkpt lat="47.51049" lon="6.65931">
        <ele>438</ele>
        <time>2015-05-08T09:37:01.000Z</time>
      </trkpt>
      <trkpt lat="47.51051" lon="6.65929">
        <ele>438</ele>
        <time>2015-05-08T09:37:02.000Z</time>
      </trkpt>
      <trkpt lat="47.51054" lon="6.65926">
        <ele>438</ele>
        <time>2015-05-08T09:37:04.000Z</time>
      </trkpt>
      <trkpt lat="47.51055" lon="6.65924">
        <ele>438</ele>
        <time>2015-05-08T09:37:05.000Z</time>
      </trkpt>
      <trkpt lat="47.51057" lon="6.65921">
        <ele>438</ele>
        <time>2015-05-08T09:37:07.000Z</time>
      </trkpt>
      <trkpt lat="47.51058" lon="6.65919">
        <ele>438</ele>
        <time>2015-05-08T09:37:08.000Z</time>
      </trkpt>
      <trkpt lat="47.5106" lon="6.65915">
        <ele>438</ele>
        <time>2015-05-08T09:37:10.000Z</time>
      </trkpt>
      <trkpt lat="47.51061" lon="6.65913">
        <ele>438</ele>
        <time>2015-05-08T09:37:11.000Z</time>
      </trkpt>
      <trkpt lat="47.51062" lon="6.6591">
        <ele>438</ele>
        <time>2015-05-08T09:37:12.000Z</time>
      </trkpt>
      <trkpt lat="47.51064" lon="6.65906">
        <ele>438</ele>
        <time>2015-05-08T09:37:13.000Z</time>
      </trkpt>
      <trkpt lat="47.51065" lon="6.65902">
        <ele>439</ele>
        <time>2015-05-08T09:37:14.000Z</time>
      </trkpt>
      <trkpt lat="47.51067" lon="6.65898">
        <ele>439</ele>
        <time>2015-05-08T09:37:15.000Z</time>
      </trkpt>
      <trkpt lat="47.51068" lon="6.65893">
        <ele>439</ele>
        <time>2015-05-08T09:37:16.000Z</time>
      </trkpt>
      <trkpt lat="47.5107" lon="6.65887">
        <ele>439</ele>
        <time>2015-05-08T09:37:17.000Z</time>
      </trkpt>
      <trkpt lat="47.51071" lon="6.65882">
        <ele>439</ele>
        <time>2015-05-08T09:37:18.000Z</time>
      </trkpt>
      <trkpt lat="47.51073" lon="6.65877">
        <ele>439</ele>
        <time>2015-05-08T09:37:19.000Z</time>
      </trkpt>
      <trkpt lat="47.51074" lon="6.65873">
        <ele>439</ele>
        <time>2015-05-08T09:37:20.000Z</time>
      </trkpt>
      <trkpt lat="47.51076" lon="6.65868">
        <ele>440</ele>
        <time>2015-05-08T09:37:21.000Z</time>
      </trkpt>
      <trkpt lat="47.51077" lon="6.65864">
        <ele>440</ele>
        <time>2015-05-08T09:37:22.000Z</time>
      </trkpt>
      <trkpt lat="47.51079" lon="6.65858">
        <ele>440</ele>
        <time>2015-05-08T09:37:23.000Z</time>
      </trkpt>
      <trkpt lat="47.51081" lon="6.65852">
        <ele>440</ele>
        <time>2015-05-08T09:37:24.000Z</time>
      </trkpt>
      <trkpt lat="47.51082" lon="6.65847">
        <ele>440</ele>
        <time>2015-05-08T09:37:25.000Z</time>
      </trkpt>
      <trkpt lat="47.51084" lon="6.65841">
        <ele>437</ele>
        <time>2015-05-08T09:37:26.000Z</time>
      </trkpt>
      <trkpt lat="47.51086" lon="6.65836">
        <ele>439</ele>
        <time>2015-05-08T09:37:27.000Z</time>
      </trkpt>
      <trkpt lat="47.51088" lon="6.65831">
        <ele>439</ele>
        <time>2015-05-08T09:37:28.000Z</time>
      </trkpt>
      <trkpt lat="47.5109" lon="6.65826">
        <ele>437</ele>
        <time>2015-05-08T09:37:29.000Z</time>
      </trkpt>
      <trkpt lat="47.51091" lon="6.65821">
        <ele>436</ele>
        <time>2015-05-08T09:37:30.000Z</time>
      </trkpt>
      <trkpt lat="47.51093" lon="6.65815">
        <ele>435</ele>
        <time>2015-05-08T09:37:31.000Z</time>
      </trkpt>
      <trkpt lat="47.51094" lon="6.65808">
        <ele>434</ele>
        <time>2015-05-08T09:37:32.000Z</time>
      </trkpt>
      <trkpt lat="47.51096" lon="6.65802">
        <ele>433</ele>
        <time>2015-05-08T09:37:33.000Z</time>
      </trkpt>
      <trkpt lat="47.51097" lon="6.65796">
        <ele>433</ele>
        <time>2015-05-08T09:37:34.000Z</time>
      </trkpt>
      <trkpt lat="47.51098" lon="6.6579">
        <ele>433</ele>
        <time>2015-05-08T09:37:35.000Z</time>
      </trkpt>
      <trkpt lat="47.51099" lon="6.65784">
        <ele>433</ele>
        <time>2015-05-08T09:37:36.000Z</time>
      </trkpt>
      <trkpt lat="47.511" lon="6.65778">
        <ele>433</ele>
        <time>2015-05-08T09:37:37.000Z</time>
      </trkpt>
      <trkpt lat="47.51101" lon="6.65773">
        <ele>433</ele>
        <time>2015-05-08T09:37:38.000Z</time>
      </trkpt>
      <trkpt lat="47.51102" lon="6.65767">
        <ele>433</ele>
        <time>2015-05-08T09:37:39.000Z</time>
      </trkpt>
      <trkpt lat="47.51103" lon="6.6576">
        <ele>433</ele>
        <time>2015-05-08T09:37:40.000Z</time>
      </trkpt>
      <trkpt lat="47.51104" lon="6.65754">
        <ele>434</ele>
        <time>2015-05-08T09:37:41.000Z</time>
      </trkpt>
      <trkpt lat="47.51106" lon="6.65747">
        <ele>433</ele>
        <time>2015-05-08T09:37:42.000Z</time>
      </trkpt>
      <trkpt lat="47.5111" lon="6.65725">
        <ele>432</ele>
        <time>2015-05-08T09:37:43.000Z</time>
      </trkpt>
      <trkpt lat="47.51109" lon="6.65713">
        <ele>431</ele>
        <time>2015-05-08T09:37:44.000Z</time>
      </trkpt>
      <trkpt lat="47.51111" lon="6.65703">
        <ele>431</ele>
        <time>2015-05-08T09:37:45.000Z</time>
      </trkpt>
      <trkpt lat="47.51111" lon="6.65696">
        <ele>431</ele>
        <time>2015-05-08T09:37:46.000Z</time>
      </trkpt>
      <trkpt lat="47.51112" lon="6.6569">
        <ele>431</ele>
        <time>2015-05-08T09:37:47.000Z</time>
      </trkpt>
      <trkpt lat="47.51113" lon="6.65681">
        <ele>431</ele>
        <time>2015-05-08T09:37:48.000Z</time>
      </trkpt>
      <trkpt lat="47.51115" lon="6.65667">
        <ele>431</ele>
        <time>2015-05-08T09:37:49.000Z</time>
      </trkpt>
      <trkpt lat="47.51115" lon="6.65656">
        <ele>430</ele>
        <time>2015-05-08T09:37:50.000Z</time>
      </trkpt>
      <trkpt lat="47.51118" lon="6.65646">
        <ele>429</ele>
        <time>2015-05-08T09:37:51.000Z</time>
      </trkpt>
      <trkpt lat="47.51122" lon="6.65633">
        <ele>428</ele>
        <time>2015-05-08T09:37:52.000Z</time>
      </trkpt>
      <trkpt lat="47.51124" lon="6.65625">
        <ele>428</ele>
        <time>2015-05-08T09:37:53.000Z</time>
      </trkpt>
      <trkpt lat="47.51127" lon="6.65615">
        <ele>428</ele>
        <time>2015-05-08T09:37:54.000Z</time>
      </trkpt>
      <trkpt lat="47.51131" lon="6.65606">
        <ele>427</ele>
        <time>2015-05-08T09:37:55.000Z</time>
      </trkpt>
      <trkpt lat="47.51133" lon="6.65592">
        <ele>427</ele>
        <time>2015-05-08T09:37:56.000Z</time>
      </trkpt>
      <trkpt lat="47.51135" lon="6.65578">
        <ele>425</ele>
        <time>2015-05-08T09:37:57.000Z</time>
      </trkpt>
      <trkpt lat="47.51136" lon="6.65563">
        <ele>425</ele>
        <time>2015-05-08T09:37:58.000Z</time>
      </trkpt>
      <trkpt lat="47.51138" lon="6.6555">
        <ele>424</ele>
        <time>2015-05-08T09:37:59.000Z</time>
      </trkpt>
      <trkpt lat="47.5114" lon="6.65534">
        <ele>424</ele>
        <time>2015-05-08T09:38:00.000Z</time>
      </trkpt>
      <trkpt lat="47.51144" lon="6.65521">
        <ele>424</ele>
        <time>2015-05-08T09:38:01.000Z</time>
      </trkpt>
      <trkpt lat="47.51147" lon="6.65511">
        <ele>423</ele>
        <time>2015-05-08T09:38:02.000Z</time>
      </trkpt>
      <trkpt lat="47.5115" lon="6.655">
        <ele>421</ele>
        <time>2015-05-08T09:38:03.000Z</time>
      </trkpt>
      <trkpt lat="47.51152" lon="6.65492">
        <ele>421</ele>
        <time>2015-05-08T09:38:04.000Z</time>
      </trkpt>
      <trkpt lat="47.51154" lon="6.65484">
        <ele>421</ele>
        <time>2015-05-08T09:38:05.000Z</time>
      </trkpt>
      <trkpt lat="47.51156" lon="6.6548">
        <ele>421</ele>
        <time>2015-05-08T09:38:06.000Z</time>
      </trkpt>
      <trkpt lat="47.51159" lon="6.65478">
        <ele>421</ele>
        <time>2015-05-08T09:38:07.000Z</time>
      </trkpt>
      <trkpt lat="47.51162" lon="6.65481">
        <ele>421</ele>
        <time>2015-05-08T09:38:08.000Z</time>
      </trkpt>
      <trkpt lat="47.51167" lon="6.65482">
        <ele>417</ele>
        <time>2015-05-08T09:38:09.000Z</time>
      </trkpt>
      <trkpt lat="47.51178" lon="6.65482">
        <ele>416</ele>
        <time>2015-05-08T09:38:10.000Z</time>
      </trkpt>
      <trkpt lat="47.51183" lon="6.6548">
        <ele>416</ele>
        <time>2015-05-08T09:38:11.000Z</time>
      </trkpt>
      <trkpt lat="47.5119" lon="6.65475">
        <ele>415</ele>
        <time>2015-05-08T09:38:12.000Z</time>
      </trkpt>
      <trkpt lat="47.51196" lon="6.65472">
        <ele>414</ele>
        <time>2015-05-08T09:38:13.000Z</time>
      </trkpt>
      <trkpt lat="47.512" lon="6.65471">
        <ele>414</ele>
        <time>2015-05-08T09:38:14.000Z</time>
      </trkpt>
      <trkpt lat="47.51205" lon="6.65468">
        <ele>413</ele>
        <time>2015-05-08T09:38:15.000Z</time>
      </trkpt>
      <trkpt lat="47.51209" lon="6.65462">
        <ele>413</ele>
        <time>2015-05-08T09:38:16.000Z</time>
      </trkpt>
      <trkpt lat="47.51213" lon="6.65448">
        <ele>413</ele>
        <time>2015-05-08T09:38:17.000Z</time>
      </trkpt>
      <trkpt lat="47.51217" lon="6.65436">
        <ele>412</ele>
        <time>2015-05-08T09:38:18.000Z</time>
      </trkpt>
      <trkpt lat="47.51222" lon="6.65424">
        <ele>412</ele>
        <time>2015-05-08T09:38:19.000Z</time>
      </trkpt>
      <trkpt lat="47.51228" lon="6.65414">
        <ele>410</ele>
        <time>2015-05-08T09:38:20.000Z</time>
      </trkpt>
      <trkpt lat="47.51233" lon="6.65405">
        <ele>410</ele>
        <time>2015-05-08T09:38:21.000Z</time>
      </trkpt>
      <trkpt lat="47.51239" lon="6.65396">
        <ele>410</ele>
        <time>2015-05-08T09:38:22.000Z</time>
      </trkpt>
      <trkpt lat="47.51243" lon="6.65387">
        <ele>410</ele>
        <time>2015-05-08T09:38:23.000Z</time>
      </trkpt>
      <trkpt lat="47.51248" lon="6.65378">
        <ele>410</ele>
        <time>2015-05-08T09:38:24.000Z</time>
      </trkpt>
      <trkpt lat="47.51248" lon="6.65369">
        <ele>410</ele>
        <time>2015-05-08T09:38:25.000Z</time>
      </trkpt>
      <trkpt lat="47.51249" lon="6.65362">
        <ele>410</ele>
        <time>2015-05-08T09:38:26.000Z</time>
      </trkpt>
      <trkpt lat="47.51251" lon="6.65355">
        <ele>405</ele>
        <time>2015-05-08T09:38:27.000Z</time>
      </trkpt>
      <trkpt lat="47.51254" lon="6.65347">
        <ele>405</ele>
        <time>2015-05-08T09:38:28.000Z</time>
      </trkpt>
      <trkpt lat="47.51258" lon="6.65339">
        <ele>406</ele>
        <time>2015-05-08T09:38:29.000Z</time>
      </trkpt>
      <trkpt lat="47.51262" lon="6.65333">
        <ele>405</ele>
        <time>2015-05-08T09:38:30.000Z</time>
      </trkpt>
      <trkpt lat="47.51266" lon="6.65328">
        <ele>404</ele>
        <time>2015-05-08T09:38:31.000Z</time>
      </trkpt>
      <trkpt lat="47.5127" lon="6.65321">
        <ele>403</ele>
        <time>2015-05-08T09:38:32.000Z</time>
      </trkpt>
      <trkpt lat="47.51276" lon="6.65303">
        <ele>402</ele>
        <time>2015-05-08T09:38:33.000Z</time>
      </trkpt>
      <trkpt lat="47.51279" lon="6.65292">
        <ele>402</ele>
        <time>2015-05-08T09:38:34.000Z</time>
      </trkpt>
      <trkpt lat="47.51282" lon="6.65281">
        <ele>401</ele>
        <time>2015-05-08T09:38:35.000Z</time>
      </trkpt>
      <trkpt lat="47.51287" lon="6.6527">
        <ele>401</ele>
        <time>2015-05-08T09:38:36.000Z</time>
      </trkpt>
      <trkpt lat="47.5129" lon="6.65259">
        <ele>401</ele>
        <time>2015-05-08T09:38:37.000Z</time>
      </trkpt>
      <trkpt lat="47.51296" lon="6.65248">
        <ele>398</ele>
        <time>2015-05-08T09:38:38.000Z</time>
      </trkpt>
      <trkpt lat="47.51302" lon="6.65241">
        <ele>397</ele>
        <time>2015-05-08T09:38:39.000Z</time>
      </trkpt>
      <trkpt lat="47.51306" lon="6.65231">
        <ele>397</ele>
        <time>2015-05-08T09:38:40.000Z</time>
      </trkpt>
      <trkpt lat="47.51312" lon="6.65223">
        <ele>396</ele>
        <time>2015-05-08T09:38:41.000Z</time>
      </trkpt>
      <trkpt lat="47.51319" lon="6.65215">
        <ele>396</ele>
        <time>2015-05-08T09:38:42.000Z</time>
      </trkpt>
      <trkpt lat="47.51325" lon="6.65208">
        <ele>396</ele>
        <time>2015-05-08T09:38:43.000Z</time>
      </trkpt>
      <trkpt lat="47.51333" lon="6.65201">
        <ele>390</ele>
        <time>2015-05-08T09:38:44.000Z</time>
      </trkpt>
      <trkpt lat="47.51339" lon="6.65195">
        <ele>389</ele>
        <time>2015-05-08T09:38:45.000Z</time>
      </trkpt>
      <trkpt lat="47.51347" lon="6.65187">
        <ele>389</ele>
        <time>2015-05-08T09:38:46.000Z</time>
      </trkpt>
      <trkpt lat="47.51354" lon="6.6518">
        <ele>389</ele>
        <time>2015-05-08T09:38:47.000Z</time>
      </trkpt>
      <trkpt lat="47.51361" lon="6.65171">
        <ele>388</ele>
        <time>2015-05-08T09:38:48.000Z</time>
      </trkpt>
      <trkpt lat="47.51366" lon="6.65165">
        <ele>385</ele>
        <time>2015-05-08T09:38:49.000Z</time>
      </trkpt>
      <trkpt lat="47.5137" lon="6.65162">
        <ele>385</ele>
        <time>2015-05-08T09:38:50.000Z</time>
      </trkpt>
      <trkpt lat="47.51375" lon="6.65162">
        <ele>384</ele>
        <time>2015-05-08T09:38:51.000Z</time>
      </trkpt>
      <trkpt lat="47.5138" lon="6.65155">
        <ele>383</ele>
        <time>2015-05-08T09:38:52.000Z</time>
      </trkpt>
      <trkpt lat="47.51384" lon="6.65149">
        <ele>383</ele>
        <time>2015-05-08T09:38:53.000Z</time>
      </trkpt>
      <trkpt lat="47.51388" lon="6.65145">
        <ele>383</ele>
        <time>2015-05-08T09:38:53.998Z</time>
      </trkpt>
      <trkpt lat="47.51397" lon="6.65138">
        <ele>382</ele>
        <time>2015-05-08T09:38:55.000Z</time>
      </trkpt>
      <trkpt lat="47.51403" lon="6.65134">
        <ele>382</ele>
        <time>2015-05-08T09:38:56.000Z</time>
      </trkpt>
      <trkpt lat="47.51408" lon="6.65132">
        <ele>382</ele>
        <time>2015-05-08T09:38:57.000Z</time>
      </trkpt>
      <trkpt lat="47.51412" lon="6.65131">
        <ele>381</ele>
        <time>2015-05-08T09:38:58.000Z</time>
      </trkpt>
      <trkpt lat="47.51415" lon="6.65132">
        <ele>381</ele>
        <time>2015-05-08T09:38:59.000Z</time>
      </trkpt>
      <trkpt lat="47.51418" lon="6.65132">
        <ele>374</ele>
        <time>2015-05-08T09:39:00.000Z</time>
      </trkpt>
      <trkpt lat="47.51421" lon="6.65135">
        <ele>374</ele>
        <time>2015-05-08T09:39:01.000Z</time>
      </trkpt>
      <trkpt lat="47.51424" lon="6.65135">
        <ele>374</ele>
        <time>2015-05-08T09:39:02.000Z</time>
      </trkpt>
      <trkpt lat="47.51427" lon="6.65135">
        <ele>374</ele>
        <time>2015-05-08T09:39:03.000Z</time>
      </trkpt>
      <trkpt lat="47.5143" lon="6.65136">
        <ele>374</ele>
        <time>2015-05-08T09:39:04.000Z</time>
      </trkpt>
      <trkpt lat="47.51434" lon="6.65139">
        <ele>374</ele>
        <time>2015-05-08T09:39:05.000Z</time>
      </trkpt>
      <trkpt lat="47.51436" lon="6.65142">
        <ele>374</ele>
        <time>2015-05-08T09:39:06.000Z</time>
      </trkpt>
      <trkpt lat="47.51439" lon="6.65143">
        <ele>374</ele>
        <time>2015-05-08T09:39:07.000Z</time>
      </trkpt>
      <trkpt lat="47.51442" lon="6.65146">
        <ele>374</ele>
        <time>2015-05-08T09:39:08.000Z</time>
      </trkpt>
      <trkpt lat="47.51444" lon="6.65149">
        <ele>373</ele>
        <time>2015-05-08T09:39:09.000Z</time>
      </trkpt>
      <trkpt lat="47.51447" lon="6.65152">
        <ele>373</ele>
        <time>2015-05-08T09:39:10.000Z</time>
      </trkpt>
      <trkpt lat="47.51449" lon="6.65155">
        <ele>373</ele>
        <time>2015-05-08T09:39:11.000Z</time>
      </trkpt>
      <trkpt lat="47.51452" lon="6.65158">
        <ele>373</ele>
        <time>2015-05-08T09:39:12.000Z</time>
      </trkpt>
      <trkpt lat="47.51455" lon="6.65161">
        <ele>372</ele>
        <time>2015-05-08T09:39:13.000Z</time>
      </trkpt>
      <trkpt lat="47.51459" lon="6.65164">
        <ele>372</ele>
        <time>2015-05-08T09:39:14.000Z</time>
      </trkpt>
      <trkpt lat="47.51462" lon="6.65167">
        <ele>374</ele>
        <time>2015-05-08T09:39:15.000Z</time>
      </trkpt>
      <trkpt lat="47.51467" lon="6.65169">
        <ele>373</ele>
        <time>2015-05-08T09:39:16.000Z</time>
      </trkpt>
      <trkpt lat="47.51473" lon="6.65171">
        <ele>372</ele>
        <time>2015-05-08T09:39:17.000Z</time>
      </trkpt>
      <trkpt lat="47.51477" lon="6.65174">
        <ele>372</ele>
        <time>2015-05-08T09:39:18.000Z</time>
      </trkpt>
      <trkpt lat="47.51482" lon="6.65178">
        <ele>371</ele>
        <time>2015-05-08T09:39:19.000Z</time>
      </trkpt>
      <trkpt lat="47.51486" lon="6.65183">
        <ele>371</ele>
        <time>2015-05-08T09:39:20.000Z</time>
      </trkpt>
      <trkpt lat="47.51491" lon="6.65187">
        <ele>371</ele>
        <time>2015-05-08T09:39:21.000Z</time>
      </trkpt>
      <trkpt lat="47.51494" lon="6.65192">
        <ele>371</ele>
        <time>2015-05-08T09:39:22.000Z</time>
      </trkpt>
      <trkpt lat="47.51499" lon="6.65196">
        <ele>371</ele>
        <time>2015-05-08T09:39:23.000Z</time>
      </trkpt>
      <trkpt lat="47.51503" lon="6.65201">
        <ele>366</ele>
        <time>2015-05-08T09:39:24.000Z</time>
      </trkpt>
      <trkpt lat="47.51507" lon="6.65207">
        <ele>366</ele>
        <time>2015-05-08T09:39:25.000Z</time>
      </trkpt>
      <trkpt lat="47.5151" lon="6.65212">
        <ele>366</ele>
        <time>2015-05-08T09:39:26.000Z</time>
      </trkpt>
      <trkpt lat="47.51514" lon="6.65215">
        <ele>366</ele>
        <time>2015-05-08T09:39:27.000Z</time>
      </trkpt>
      <trkpt lat="47.51518" lon="6.65219">
        <ele>366</ele>
        <time>2015-05-08T09:39:28.000Z</time>
      </trkpt>
      <trkpt lat="47.51521" lon="6.65224">
        <ele>366</ele>
        <time>2015-05-08T09:39:29.000Z</time>
      </trkpt>
      <trkpt lat="47.51524" lon="6.65229">
        <ele>366</ele>
        <time>2015-05-08T09:39:30.000Z</time>
      </trkpt>
      <trkpt lat="47.51527" lon="6.65233">
        <ele>366</ele>
        <time>2015-05-08T09:39:31.000Z</time>
      </trkpt>
      <trkpt lat="47.5153" lon="6.65238">
        <ele>366</ele>
        <time>2015-05-08T09:39:32.000Z</time>
      </trkpt>
      <trkpt lat="47.51533" lon="6.65242">
        <ele>366</ele>
        <time>2015-05-08T09:39:33.000Z</time>
      </trkpt>
      <trkpt lat="47.51535" lon="6.65247">
        <ele>365</ele>
        <time>2015-05-08T09:39:34.000Z</time>
      </trkpt>
      <trkpt lat="47.51537" lon="6.65251">
        <ele>367</ele>
        <time>2015-05-08T09:39:35.000Z</time>
      </trkpt>
      <trkpt lat="47.51539" lon="6.65256">
        <ele>367</ele>
        <time>2015-05-08T09:39:36.000Z</time>
      </trkpt>
      <trkpt lat="47.51542" lon="6.6526">
        <ele>367</ele>
        <time>2015-05-08T09:39:37.000Z</time>
      </trkpt>
      <trkpt lat="47.51544" lon="6.65263">
        <ele>366</ele>
        <time>2015-05-08T09:39:38.000Z</time>
      </trkpt>
      <trkpt lat="47.51547" lon="6.65267">
        <ele>366</ele>
        <time>2015-05-08T09:39:39.000Z</time>
      </trkpt>
      <trkpt lat="47.5155" lon="6.65271">
        <ele>366</ele>
        <time>2015-05-08T09:39:40.000Z</time>
      </trkpt>
      <trkpt lat="47.51553" lon="6.65274">
        <ele>366</ele>
        <time>2015-05-08T09:39:41.000Z</time>
      </trkpt>
      <trkpt lat="47.51556" lon="6.65278">
        <ele>366</ele>
        <time>2015-05-08T09:39:42.000Z</time>
      </trkpt>
      <trkpt lat="47.51559" lon="6.65282">
        <ele>366</ele>
        <time>2015-05-08T09:39:43.000Z</time>
      </trkpt>
      <trkpt lat="47.51562" lon="6.65287">
        <ele>366</ele>
        <time>2015-05-08T09:39:44.000Z</time>
      </trkpt>
      <trkpt lat="47.51565" lon="6.65292">
        <ele>366</ele>
        <time>2015-05-08T09:39:45.000Z</time>
      </trkpt>
      <trkpt lat="47.51568" lon="6.65296">
        <ele>366</ele>
        <time>2015-05-08T09:39:46.000Z</time>
      </trkpt>
      <trkpt lat="47.51572" lon="6.653">
        <ele>366</ele>
        <time>2015-05-08T09:39:47.000Z</time>
      </trkpt>
      <trkpt lat="47.51576" lon="6.65304">
        <ele>366</ele>
        <time>2015-05-08T09:39:48.000Z</time>
      </trkpt>
      <trkpt lat="47.51579" lon="6.65307">
        <ele>366</ele>
        <time>2015-05-08T09:39:49.000Z</time>
      </trkpt>
      <trkpt lat="47.51582" lon="6.6531">
        <ele>366</ele>
        <time>2015-05-08T09:39:50.000Z</time>
      </trkpt>
      <trkpt lat="47.51585" lon="6.65314">
        <ele>363</ele>
        <time>2015-05-08T09:39:51.000Z</time>
      </trkpt>
      <trkpt lat="47.5159" lon="6.6532">
        <ele>363</ele>
        <time>2015-05-08T09:39:52.000Z</time>
      </trkpt>
      <trkpt lat="47.51595" lon="6.65326">
        <ele>363</ele>
        <time>2015-05-08T09:39:53.000Z</time>
      </trkpt>
      <trkpt lat="47.516" lon="6.65331">
        <ele>363</ele>
        <time>2015-05-08T09:39:54.000Z</time>
      </trkpt>
      <trkpt lat="47.51605" lon="6.65337">
        <ele>364</ele>
        <time>2015-05-08T09:39:55.000Z</time>
      </trkpt>
      <trkpt lat="47.5161" lon="6.65343">
        <ele>364</ele>
        <time>2015-05-08T09:39:56.000Z</time>
      </trkpt>
      <trkpt lat="47.51614" lon="6.65349">
        <ele>364</ele>
        <time>2015-05-08T09:39:57.000Z</time>
      </trkpt>
      <trkpt lat="47.51619" lon="6.65353">
        <ele>364</ele>
        <time>2015-05-08T09:39:58.000Z</time>
      </trkpt>
      <trkpt lat="47.51623" lon="6.65358">
        <ele>364</ele>
        <time>2015-05-08T09:39:59.000Z</time>
      </trkpt>
      <trkpt lat="47.51628" lon="6.65363">
        <ele>364</ele>
        <time>2015-05-08T09:40:00.000Z</time>
      </trkpt>
      <trkpt lat="47.51632" lon="6.65368">
        <ele>364</ele>
        <time>2015-05-08T09:40:01.000Z</time>
      </trkpt>
      <trkpt lat="47.51636" lon="6.65373">
        <ele>364</ele>
        <time>2015-05-08T09:40:02.000Z</time>
      </trkpt>
      <trkpt lat="47.5164" lon="6.65378">
        <ele>364</ele>
        <time>2015-05-08T09:40:03.000Z</time>
      </trkpt>
      <trkpt lat="47.51644" lon="6.65385">
        <ele>364</ele>
        <time>2015-05-08T09:40:04.000Z</time>
      </trkpt>
      <trkpt lat="47.51648" lon="6.65389">
        <ele>364</ele>
        <time>2015-05-08T09:40:05.000Z</time>
      </trkpt>
      <trkpt lat="47.51652" lon="6.65393">
        <ele>363</ele>
        <time>2015-05-08T09:40:06.000Z</time>
      </trkpt>
      <trkpt lat="47.51656" lon="6.65398">
        <ele>363</ele>
        <time>2015-05-08T09:40:07.000Z</time>
      </trkpt>
      <trkpt lat="47.51659" lon="6.65403">
        <ele>363</ele>
        <time>2015-05-08T09:40:08.000Z</time>
      </trkpt>
      <trkpt lat="47.51663" lon="6.65408">
        <ele>363</ele>
        <time>2015-05-08T09:40:09.000Z</time>
      </trkpt>
      <trkpt lat="47.51667" lon="6.65412">
        <ele>363</ele>
        <time>2015-05-08T09:40:10.000Z</time>
      </trkpt>
      <trkpt lat="47.51671" lon="6.65417">
        <ele>363</ele>
        <time>2015-05-08T09:40:11.000Z</time>
      </trkpt>
      <trkpt lat="47.51675" lon="6.65422">
        <ele>363</ele>
        <time>2015-05-08T09:40:12.000Z</time>
      </trkpt>
      <trkpt lat="47.51679" lon="6.65427">
        <ele>363</ele>
        <time>2015-05-08T09:40:13.000Z</time>
      </trkpt>
      <trkpt lat="47.51683" lon="6.65432">
        <ele>363</ele>
        <time>2015-05-08T09:40:14.000Z</time>
      </trkpt>
      <trkpt lat="47.51688" lon="6.65437">
        <ele>363</ele>
        <time>2015-05-08T09:40:15.000Z</time>
      </trkpt>
      <trkpt lat="47.51692" lon="6.65442">
        <ele>362</ele>
        <time>2015-05-08T09:40:16.000Z</time>
      </trkpt>
      <trkpt lat="47.51696" lon="6.65447">
        <ele>362</ele>
        <time>2015-05-08T09:40:17.000Z</time>
      </trkpt>
      <trkpt lat="47.51699" lon="6.65452">
        <ele>362</ele>
        <time>2015-05-08T09:40:18.000Z</time>
      </trkpt>
      <trkpt lat="47.51703" lon="6.65457">
        <ele>362</ele>
        <time>2015-05-08T09:40:19.000Z</time>
      </trkpt>
      <trkpt lat="47.51707" lon="6.65462">
        <ele>362</ele>
        <time>2015-05-08T09:40:20.000Z</time>
      </trkpt>
      <trkpt lat="47.5171" lon="6.65466">
        <ele>362</ele>
        <time>2015-05-08T09:40:21.000Z</time>
      </trkpt>
      <trkpt lat="47.51713" lon="6.65471">
        <ele>362</ele>
        <time>2015-05-08T09:40:22.000Z</time>
      </trkpt>
      <trkpt lat="47.51715" lon="6.65477">
        <ele>362</ele>
        <time>2015-05-08T09:40:23.000Z</time>
      </trkpt>
      <trkpt lat="47.51713" lon="6.65483">
        <ele>362</ele>
        <time>2015-05-08T09:40:24.000Z</time>
      </trkpt>
      <trkpt lat="47.51712" lon="6.65486">
        <ele>362</ele>
        <time>2015-05-08T09:40:25.000Z</time>
      </trkpt>
      <trkpt lat="47.5171" lon="6.65489">
        <ele>362</ele>
        <time>2015-05-08T09:40:26.000Z</time>
      </trkpt>
      <trkpt lat="47.51707" lon="6.65493">
        <ele>362</ele>
        <time>2015-05-08T09:40:27.000Z</time>
      </trkpt>
      <trkpt lat="47.51705" lon="6.65496">
        <ele>363</ele>
        <time>2015-05-08T09:40:28.000Z</time>
      </trkpt>
      <trkpt lat="47.51702" lon="6.655">
        <ele>363</ele>
        <time>2015-05-08T09:40:29.000Z</time>
      </trkpt>
      <trkpt lat="47.517" lon="6.65504">
        <ele>363</ele>
        <time>2015-05-08T09:40:30.000Z</time>
      </trkpt>
      <trkpt lat="47.51698" lon="6.65507">
        <ele>363</ele>
        <time>2015-05-08T09:40:31.000Z</time>
      </trkpt>
      <trkpt lat="47.51695" lon="6.65511">
        <ele>363</ele>
        <time>2015-05-08T09:40:32.000Z</time>
      </trkpt>
      <trkpt lat="47.51693" lon="6.65515">
        <ele>363</ele>
        <time>2015-05-08T09:40:33.000Z</time>
      </trkpt>
      <trkpt lat="47.51691" lon="6.65519">
        <ele>363</ele>
        <time>2015-05-08T09:40:34.000Z</time>
      </trkpt>
      <trkpt lat="47.51689" lon="6.65522">
        <ele>363</ele>
        <time>2015-05-08T09:40:35.000Z</time>
      </trkpt>
      <trkpt lat="47.51686" lon="6.65526">
        <ele>363</ele>
        <time>2015-05-08T09:40:36.000Z</time>
      </trkpt>
      <trkpt lat="47.51684" lon="6.6553">
        <ele>363</ele>
        <time>2015-05-08T09:40:37.000Z</time>
      </trkpt>
      <trkpt lat="47.51682" lon="6.65534">
        <ele>363</ele>
        <time>2015-05-08T09:40:38.000Z</time>
      </trkpt>
      <trkpt lat="47.51681" lon="6.65538">
        <ele>363</ele>
        <time>2015-05-08T09:40:39.000Z</time>
      </trkpt>
      <trkpt lat="47.51679" lon="6.65542">
        <ele>363</ele>
        <time>2015-05-08T09:40:40.000Z</time>
      </trkpt>
      <trkpt lat="47.51678" lon="6.65546">
        <ele>363</ele>
        <time>2015-05-08T09:40:41.000Z</time>
      </trkpt>
      <trkpt lat="47.51676" lon="6.65549">
        <ele>363</ele>
        <time>2015-05-08T09:40:42.000Z</time>
      </trkpt>
      <trkpt lat="47.51675" lon="6.65552">
        <ele>363</ele>
        <time>2015-05-08T09:40:43.000Z</time>
      </trkpt>
      <trkpt lat="47.51674" lon="6.65555">
        <ele>363</ele>
        <time>2015-05-08T09:40:44.000Z</time>
      </trkpt>
      <trkpt lat="47.51673" lon="6.65558">
        <ele>363</ele>
        <time>2015-05-08T09:40:45.000Z</time>
      </trkpt>
      <trkpt lat="47.51672" lon="6.65562">
        <ele>363</ele>
        <time>2015-05-08T09:40:46.000Z</time>
      </trkpt>
      <trkpt lat="47.51671" lon="6.65566">
        <ele>363</ele>
        <time>2015-05-08T09:40:47.000Z</time>
      </trkpt>
      <trkpt lat="47.5167" lon="6.6557">
        <ele>363</ele>
        <time>2015-05-08T09:40:48.000Z</time>
      </trkpt>
      <trkpt lat="47.51669" lon="6.65574">
        <ele>363</ele>
        <time>2015-05-08T09:40:49.000Z</time>
      </trkpt>
      <trkpt lat="47.51668" lon="6.65578">
        <ele>363</ele>
        <time>2015-05-08T09:40:50.000Z</time>
      </trkpt>
      <trkpt lat="47.51667" lon="6.65583">
        <ele>363</ele>
        <time>2015-05-08T09:40:51.000Z</time>
      </trkpt>
      <trkpt lat="47.51666" lon="6.65587">
        <ele>363</ele>
        <time>2015-05-08T09:40:52.000Z</time>
      </trkpt>
      <trkpt lat="47.51665" lon="6.65592">
        <ele>363</ele>
        <time>2015-05-08T09:40:53.000Z</time>
      </trkpt>
      <trkpt lat="47.51664" lon="6.65597">
        <ele>363</ele>
        <time>2015-05-08T09:40:54.000Z</time>
      </trkpt>
      <trkpt lat="47.51663" lon="6.65602">
        <ele>364</ele>
        <time>2015-05-08T09:40:55.000Z</time>
      </trkpt>
      <trkpt lat="47.51662" lon="6.65607">
        <ele>364</ele>
        <time>2015-05-08T09:40:56.000Z</time>
      </trkpt>
      <trkpt lat="47.51661" lon="6.65612">
        <ele>364</ele>
        <time>2015-05-08T09:40:57.000Z</time>
      </trkpt>
      <trkpt lat="47.5166" lon="6.65618">
        <ele>364</ele>
        <time>2015-05-08T09:40:58.000Z</time>
      </trkpt>
      <trkpt lat="47.51659" lon="6.65623">
        <ele>364</ele>
        <time>2015-05-08T09:40:59.000Z</time>
      </trkpt>
      <trkpt lat="47.51659" lon="6.65629">
        <ele>364</ele>
        <time>2015-05-08T09:41:00.000Z</time>
      </trkpt>
      <trkpt lat="47.51658" lon="6.65634">
        <ele>364</ele>
        <time>2015-05-08T09:41:01.000Z</time>
      </trkpt>
      <trkpt lat="47.51657" lon="6.6564">
        <ele>364</ele>
        <time>2015-05-08T09:41:02.000Z</time>
      </trkpt>
      <trkpt lat="47.51656" lon="6.65645">
        <ele>364</ele>
        <time>2015-05-08T09:41:03.000Z</time>
      </trkpt>
      <trkpt lat="47.51655" lon="6.6565">
        <ele>364</ele>
        <time>2015-05-08T09:41:04.000Z</time>
      </trkpt>
      <trkpt lat="47.51654" lon="6.65655">
        <ele>364</ele>
        <time>2015-05-08T09:41:05.000Z</time>
      </trkpt>
      <trkpt lat="47.51653" lon="6.6566">
        <ele>364</ele>
        <time>2015-05-08T09:41:06.000Z</time>
      </trkpt>
      <trkpt lat="47.51651" lon="6.65665">
        <ele>364</ele>
        <time>2015-05-08T09:41:07.000Z</time>
      </trkpt>
      <trkpt lat="47.5165" lon="6.6567">
        <ele>364</ele>
        <time>2015-05-08T09:41:08.000Z</time>
      </trkpt>
      <trkpt lat="47.51649" lon="6.65676">
        <ele>365</ele>
        <time>2015-05-08T09:41:09.000Z</time>
      </trkpt>
      <trkpt lat="47.51648" lon="6.65681">
        <ele>365</ele>
        <time>2015-05-08T09:41:10.000Z</time>
      </trkpt>
      <trkpt lat="47.51648" lon="6.65686">
        <ele>365</ele>
        <time>2015-05-08T09:41:11.000Z</time>
      </trkpt>
      <trkpt lat="47.51647" lon="6.65691">
        <ele>365</ele>
        <time>2015-05-08T09:41:12.000Z</time>
      </trkpt>
      <trkpt lat="47.51646" lon="6.65696">
        <ele>365</ele>
        <time>2015-05-08T09:41:13.000Z</time>
      </trkpt>
      <trkpt lat="47.51645" lon="6.65701">
        <ele>365</ele>
        <time>2015-05-08T09:41:14.000Z</time>
      </trkpt>
      <trkpt lat="47.51644" lon="6.65706">
        <ele>365</ele>
        <time>2015-05-08T09:41:15.000Z</time>
      </trkpt>
      <trkpt lat="47.51644" lon="6.65712">
        <ele>365</ele>
        <time>2015-05-08T09:41:16.000Z</time>
      </trkpt>
      <trkpt lat="47.51643" lon="6.65717">
        <ele>366</ele>
        <time>2015-05-08T09:41:17.000Z</time>
      </trkpt>
      <trkpt lat="47.51642" lon="6.65722">
        <ele>366</ele>
        <time>2015-05-08T09:41:18.000Z</time>
      </trkpt>
      <trkpt lat="47.51642" lon="6.65727">
        <ele>366</ele>
        <time>2015-05-08T09:41:19.000Z</time>
      </trkpt>
      <trkpt lat="47.51641" lon="6.65732">
        <ele>366</ele>
        <time>2015-05-08T09:41:20.000Z</time>
      </trkpt>
      <trkpt lat="47.5164" lon="6.65737">
        <ele>366</ele>
        <time>2015-05-08T09:41:21.000Z</time>
      </trkpt>
      <trkpt lat="47.5164" lon="6.65742">
        <ele>366</ele>
        <time>2015-05-08T09:41:22.000Z</time>
      </trkpt>
      <trkpt lat="47.51639" lon="6.65747">
        <ele>366</ele>
        <time>2015-05-08T09:41:23.000Z</time>
      </trkpt>
      <trkpt lat="47.51639" lon="6.65752">
        <ele>368</ele>
        <time>2015-05-08T09:41:24.000Z</time>
      </trkpt>
      <trkpt lat="47.51639" lon="6.65757">
        <ele>368</ele>
        <time>2015-05-08T09:41:25.000Z</time>
      </trkpt>
      <trkpt lat="47.51638" lon="6.65762">
        <ele>368</ele>
        <time>2015-05-08T09:41:26.000Z</time>
      </trkpt>
      <trkpt lat="47.51638" lon="6.65768">
        <ele>368</ele>
        <time>2015-05-08T09:41:27.000Z</time>
      </trkpt>
      <trkpt lat="47.51638" lon="6.65774">
        <ele>368</ele>
        <time>2015-05-08T09:41:28.000Z</time>
      </trkpt>
      <trkpt lat="47.51637" lon="6.65779">
        <ele>368</ele>
        <time>2015-05-08T09:41:29.000Z</time>
      </trkpt>
      <trkpt lat="47.51637" lon="6.65784">
        <ele>369</ele>
        <time>2015-05-08T09:41:30.000Z</time>
      </trkpt>
      <trkpt lat="47.51637" lon="6.65789">
        <ele>369</ele>
        <time>2015-05-08T09:41:31.000Z</time>
      </trkpt>
      <trkpt lat="47.51636" lon="6.65794">
        <ele>369</ele>
        <time>2015-05-08T09:41:32.000Z</time>
      </trkpt>
      <trkpt lat="47.51636" lon="6.65799">
        <ele>369</ele>
        <time>2015-05-08T09:41:33.000Z</time>
      </trkpt>
      <trkpt lat="47.51637" lon="6.65803">
        <ele>369</ele>
        <time>2015-05-08T09:41:34.000Z</time>
      </trkpt>
      <trkpt lat="47.51636" lon="6.65808">
        <ele>369</ele>
        <time>2015-05-08T09:41:35.000Z</time>
      </trkpt>
      <trkpt lat="47.51636" lon="6.65813">
        <ele>369</ele>
        <time>2015-05-08T09:41:36.000Z</time>
      </trkpt>
      <trkpt lat="47.51636" lon="6.65818">
        <ele>369</ele>
        <time>2015-05-08T09:41:37.000Z</time>
      </trkpt>
      <trkpt lat="47.51636" lon="6.65822">
        <ele>369</ele>
        <time>2015-05-08T09:41:38.000Z</time>
      </trkpt>
      <trkpt lat="47.51636" lon="6.65826">
        <ele>369</ele>
        <time>2015-05-08T09:41:39.000Z</time>
      </trkpt>
      <trkpt lat="47.51635" lon="6.65831">
        <ele>369</ele>
        <time>2015-05-08T09:41:40.000Z</time>
      </trkpt>
      <trkpt lat="47.51635" lon="6.65835">
        <ele>370</ele>
        <time>2015-05-08T09:41:41.000Z</time>
      </trkpt>
      <trkpt lat="47.51634" lon="6.6584">
        <ele>371</ele>
        <time>2015-05-08T09:41:42.000Z</time>
      </trkpt>
      <trkpt lat="47.51633" lon="6.65844">
        <ele>371</ele>
        <time>2015-05-08T09:41:43.000Z</time>
      </trkpt>
      <trkpt lat="47.51632" lon="6.65849">
        <ele>371</ele>
        <time>2015-05-08T09:41:44.000Z</time>
      </trkpt>
      <trkpt lat="47.51631" lon="6.65853">
        <ele>371</ele>
        <time>2015-05-08T09:41:45.000Z</time>
      </trkpt>
      <trkpt lat="47.5163" lon="6.65857">
        <ele>371</ele>
        <time>2015-05-08T09:41:46.000Z</time>
      </trkpt>
      <trkpt lat="47.51629" lon="6.65862">
        <ele>371</ele>
        <time>2015-05-08T09:41:47.000Z</time>
      </trkpt>
      <trkpt lat="47.51627" lon="6.65866">
        <ele>371</ele>
        <time>2015-05-08T09:41:48.000Z</time>
      </trkpt>
      <trkpt lat="47.51626" lon="6.65871">
        <ele>371</ele>
        <time>2015-05-08T09:41:49.000Z</time>
      </trkpt>
      <trkpt lat="47.51624" lon="6.65875">
        <ele>371</ele>
        <time>2015-05-08T09:41:50.000Z</time>
      </trkpt>
      <trkpt lat="47.51623" lon="6.65881">
        <ele>371</ele>
        <time>2015-05-08T09:41:51.000Z</time>
      </trkpt>
      <trkpt lat="47.51621" lon="6.65886">
        <ele>371</ele>
        <time>2015-05-08T09:41:52.000Z</time>
      </trkpt>
      <trkpt lat="47.5162" lon="6.65892">
        <ele>371</ele>
        <time>2015-05-08T09:41:53.000Z</time>
      </trkpt>
      <trkpt lat="47.51619" lon="6.65897">
        <ele>371</ele>
        <time>2015-05-08T09:41:54.000Z</time>
      </trkpt>
      <trkpt lat="47.51617" lon="6.65903">
        <ele>371</ele>
        <time>2015-05-08T09:41:55.000Z</time>
      </trkpt>
      <trkpt lat="47.51616" lon="6.65909">
        <ele>371</ele>
        <time>2015-05-08T09:41:56.000Z</time>
      </trkpt>
      <trkpt lat="47.51614" lon="6.65915">
        <ele>371</ele>
        <time>2015-05-08T09:41:57.000Z</time>
      </trkpt>
      <trkpt lat="47.51613" lon="6.65921">
        <ele>371</ele>
        <time>2015-05-08T09:41:58.000Z</time>
      </trkpt>
      <trkpt lat="47.51612" lon="6.65927">
        <ele>371</ele>
        <time>2015-05-08T09:41:59.000Z</time>
      </trkpt>
      <trkpt lat="47.5161" lon="6.65934">
        <ele>371</ele>
        <time>2015-05-08T09:42:00.000Z</time>
      </trkpt>
      <trkpt lat="47.51609" lon="6.6594">
        <ele>371</ele>
        <time>2015-05-08T09:42:01.000Z</time>
      </trkpt>
      <trkpt lat="47.51608" lon="6.65945">
        <ele>371</ele>
        <time>2015-05-08T09:42:02.000Z</time>
      </trkpt>
      <trkpt lat="47.51607" lon="6.65951">
        <ele>371</ele>
        <time>2015-05-08T09:42:03.000Z</time>
      </trkpt>
      <trkpt lat="47.51606" lon="6.65957">
        <ele>371</ele>
        <time>2015-05-08T09:42:04.000Z</time>
      </trkpt>
      <trkpt lat="47.51605" lon="6.65962">
        <ele>371</ele>
        <time>2015-05-08T09:42:05.000Z</time>
      </trkpt>
      <trkpt lat="47.51604" lon="6.65967">
        <ele>371</ele>
        <time>2015-05-08T09:42:06.000Z</time>
      </trkpt>
      <trkpt lat="47.51604" lon="6.65973">
        <ele>371</ele>
        <time>2015-05-08T09:42:07.000Z</time>
      </trkpt>
      <trkpt lat="47.51604" lon="6.65978">
        <ele>371</ele>
        <time>2015-05-08T09:42:08.000Z</time>
      </trkpt>
      <trkpt lat="47.51604" lon="6.65983">
        <ele>371</ele>
        <time>2015-05-08T09:42:09.000Z</time>
      </trkpt>
      <trkpt lat="47.51604" lon="6.65988">
        <ele>371</ele>
        <time>2015-05-08T09:42:10.000Z</time>
      </trkpt>
      <trkpt lat="47.51605" lon="6.65993">
        <ele>371</ele>
        <time>2015-05-08T09:42:11.000Z</time>
      </trkpt>
      <trkpt lat="47.51606" lon="6.65999">
        <ele>371</ele>
        <time>2015-05-08T09:42:12.000Z</time>
      </trkpt>
      <trkpt lat="47.51608" lon="6.66005">
        <ele>371</ele>
        <time>2015-05-08T09:42:13.000Z</time>
      </trkpt>
      <trkpt lat="47.5161" lon="6.66011">
        <ele>371</ele>
        <time>2015-05-08T09:42:14.000Z</time>
      </trkpt>
      <trkpt lat="47.51613" lon="6.66016">
        <ele>371</ele>
        <time>2015-05-08T09:42:15.000Z</time>
      </trkpt>
      <trkpt lat="47.51617" lon="6.66021">
        <ele>370</ele>
        <time>2015-05-08T09:42:16.000Z</time>
      </trkpt>
      <trkpt lat="47.5162" lon="6.66025">
        <ele>370</ele>
        <time>2015-05-08T09:42:17.000Z</time>
      </trkpt>
      <trkpt lat="47.51624" lon="6.66029">
        <ele>370</ele>
        <time>2015-05-08T09:42:18.000Z</time>
      </trkpt>
      <trkpt lat="47.51628" lon="6.66033">
        <ele>370</ele>
        <time>2015-05-08T09:42:19.000Z</time>
      </trkpt>
      <trkpt lat="47.51632" lon="6.66037">
        <ele>370</ele>
        <time>2015-05-08T09:42:20.000Z</time>
      </trkpt>
      <trkpt lat="47.51636" lon="6.6604">
        <ele>370</ele>
        <time>2015-05-08T09:42:21.000Z</time>
      </trkpt>
      <trkpt lat="47.51639" lon="6.66044">
        <ele>370</ele>
        <time>2015-05-08T09:42:22.000Z</time>
      </trkpt>
      <trkpt lat="47.51642" lon="6.66047">
        <ele>370</ele>
        <time>2015-05-08T09:42:23.000Z</time>
      </trkpt>
      <trkpt lat="47.51645" lon="6.66051">
        <ele>370</ele>
        <time>2015-05-08T09:42:24.000Z</time>
      </trkpt>
      <trkpt lat="47.51648" lon="6.66055">
        <ele>370</ele>
        <time>2015-05-08T09:42:25.000Z</time>
      </trkpt>
      <trkpt lat="47.51651" lon="6.66059">
        <ele>370</ele>
        <time>2015-05-08T09:42:26.000Z</time>
      </trkpt>
      <trkpt lat="47.51654" lon="6.66062">
        <ele>370</ele>
        <time>2015-05-08T09:42:27.000Z</time>
      </trkpt>
      <trkpt lat="47.51657" lon="6.66066">
        <ele>370</ele>
        <time>2015-05-08T09:42:28.000Z</time>
      </trkpt>
      <trkpt lat="47.5166" lon="6.6607">
        <ele>370</ele>
        <time>2015-05-08T09:42:29.000Z</time>
      </trkpt>
      <trkpt lat="47.51663" lon="6.66073">
        <ele>370</ele>
        <time>2015-05-08T09:42:30.000Z</time>
      </trkpt>
      <trkpt lat="47.51665" lon="6.66077">
        <ele>370</ele>
        <time>2015-05-08T09:42:31.000Z</time>
      </trkpt>
      <trkpt lat="47.51668" lon="6.6608">
        <ele>370</ele>
        <time>2015-05-08T09:42:32.000Z</time>
      </trkpt>
      <trkpt lat="47.51671" lon="6.66084">
        <ele>370</ele>
        <time>2015-05-08T09:42:33.000Z</time>
      </trkpt>
      <trkpt lat="47.51674" lon="6.66087">
        <ele>370</ele>
        <time>2015-05-08T09:42:34.000Z</time>
      </trkpt>
      <trkpt lat="47.51677" lon="6.6609">
        <ele>370</ele>
        <time>2015-05-08T09:42:35.000Z</time>
      </trkpt>
      <trkpt lat="47.5168" lon="6.66092">
        <ele>370</ele>
        <time>2015-05-08T09:42:36.000Z</time>
      </trkpt>
      <trkpt lat="47.51683" lon="6.66095">
        <ele>370</ele>
        <time>2015-05-08T09:42:37.000Z</time>
      </trkpt>
      <trkpt lat="47.51686" lon="6.66098">
        <ele>370</ele>
        <time>2015-05-08T09:42:38.000Z</time>
      </trkpt>
      <trkpt lat="47.51688" lon="6.66101">
        <ele>370</ele>
        <time>2015-05-08T09:42:39.000Z</time>
      </trkpt>
      <trkpt lat="47.51691" lon="6.66105">
        <ele>370</ele>
        <time>2015-05-08T09:42:40.000Z</time>
      </trkpt>
      <trkpt lat="47.51693" lon="6.66109">
        <ele>370</ele>
        <time>2015-05-08T09:42:41.000Z</time>
      </trkpt>
      <trkpt lat="47.51695" lon="6.66112">
        <ele>370</ele>
        <time>2015-05-08T09:42:42.000Z</time>
      </trkpt>
      <trkpt lat="47.51698" lon="6.66116">
        <ele>370</ele>
        <time>2015-05-08T09:42:43.000Z</time>
      </trkpt>
      <trkpt lat="47.517" lon="6.66121">
        <ele>370</ele>
        <time>2015-05-08T09:42:44.000Z</time>
      </trkpt>
      <trkpt lat="47.51703" lon="6.66126">
        <ele>370</ele>
        <time>2015-05-08T09:42:45.000Z</time>
      </trkpt>
      <trkpt lat="47.51706" lon="6.66131">
        <ele>370</ele>
        <time>2015-05-08T09:42:46.000Z</time>
      </trkpt>
      <trkpt lat="47.51708" lon="6.66136">
        <ele>370</ele>
        <time>2015-05-08T09:42:47.000Z</time>
      </trkpt>
      <trkpt lat="47.51711" lon="6.66141">
        <ele>370</ele>
        <time>2015-05-08T09:42:48.000Z</time>
      </trkpt>
      <trkpt lat="47.51713" lon="6.66145">
        <ele>370</ele>
        <time>2015-05-08T09:42:49.000Z</time>
      </trkpt>
      <trkpt lat="47.51716" lon="6.66149">
        <ele>370</ele>
        <time>2015-05-08T09:42:50.000Z</time>
      </trkpt>
      <trkpt lat="47.51718" lon="6.66153">
        <ele>371</ele>
        <time>2015-05-08T09:42:51.000Z</time>
      </trkpt>
      <trkpt lat="47.51721" lon="6.66157">
        <ele>371</ele>
        <time>2015-05-08T09:42:52.000Z</time>
      </trkpt>
      <trkpt lat="47.51723" lon="6.66161">
        <ele>371</ele>
        <time>2015-05-08T09:42:53.000Z</time>
      </trkpt>
      <trkpt lat="47.51726" lon="6.66165">
        <ele>371</ele>
        <time>2015-05-08T09:42:54.000Z</time>
      </trkpt>
      <trkpt lat="47.51729" lon="6.66169">
        <ele>370</ele>
        <time>2015-05-08T09:42:55.000Z</time>
      </trkpt>
      <trkpt lat="47.51732" lon="6.66173">
        <ele>370</ele>
        <time>2015-05-08T09:42:56.000Z</time>
      </trkpt>
      <trkpt lat="47.51735" lon="6.66178">
        <ele>370</ele>
        <time>2015-05-08T09:42:57.000Z</time>
      </trkpt>
      <trkpt lat="47.51737" lon="6.66182">
        <ele>370</ele>
        <time>2015-05-08T09:42:58.000Z</time>
      </trkpt>
      <trkpt lat="47.5174" lon="6.66187">
        <ele>370</ele>
        <time>2015-05-08T09:42:59.000Z</time>
      </trkpt>
      <trkpt lat="47.51743" lon="6.66191">
        <ele>370</ele>
        <time>2015-05-08T09:43:00.000Z</time>
      </trkpt>
      <trkpt lat="47.51746" lon="6.66196">
        <ele>370</ele>
        <time>2015-05-08T09:43:01.000Z</time>
      </trkpt>
      <trkpt lat="47.51748" lon="6.66199">
        <ele>370</ele>
        <time>2015-05-08T09:43:02.000Z</time>
      </trkpt>
      <trkpt lat="47.51751" lon="6.66203">
        <ele>370</ele>
        <time>2015-05-08T09:43:03.000Z</time>
      </trkpt>
      <trkpt lat="47.51754" lon="6.66207">
        <ele>370</ele>
        <time>2015-05-08T09:43:04.000Z</time>
      </trkpt>
      <trkpt lat="47.51756" lon="6.6621">
        <ele>370</ele>
        <time>2015-05-08T09:43:05.000Z</time>
      </trkpt>
      <trkpt lat="47.51759" lon="6.66214">
        <ele>370</ele>
        <time>2015-05-08T09:43:06.000Z</time>
      </trkpt>
      <trkpt lat="47.51762" lon="6.66218">
        <ele>370</ele>
        <time>2015-05-08T09:43:07.000Z</time>
      </trkpt>
      <trkpt lat="47.51765" lon="6.66222">
        <ele>370</ele>
        <time>2015-05-08T09:43:08.000Z</time>
      </trkpt>
      <trkpt lat="47.51767" lon="6.66226">
        <ele>370</ele>
        <time>2015-05-08T09:43:09.000Z</time>
      </trkpt>
      <trkpt lat="47.51769" lon="6.6623">
        <ele>370</ele>
        <time>2015-05-08T09:43:10.000Z</time>
      </trkpt>
      <trkpt lat="47.51772" lon="6.66233">
        <ele>370</ele>
        <time>2015-05-08T09:43:11.000Z</time>
      </trkpt>
      <trkpt lat="47.51774" lon="6.66237">
        <ele>370</ele>
        <time>2015-05-08T09:43:12.000Z</time>
      </trkpt>
      <trkpt lat="47.51776" lon="6.66241">
        <ele>370</ele>
        <time>2015-05-08T09:43:13.000Z</time>
      </trkpt>
      <trkpt lat="47.51779" lon="6.66244">
        <ele>370</ele>
        <time>2015-05-08T09:43:14.000Z</time>
      </trkpt>
      <trkpt lat="47.51781" lon="6.66248">
        <ele>370</ele>
        <time>2015-05-08T09:43:15.000Z</time>
      </trkpt>
      <trkpt lat="47.51783" lon="6.66251">
        <ele>370</ele>
        <time>2015-05-08T09:43:16.000Z</time>
      </trkpt>
      <trkpt lat="47.51785" lon="6.66254">
        <ele>370</ele>
        <time>2015-05-08T09:43:17.000Z</time>
      </trkpt>
      <trkpt lat="47.51787" lon="6.66258">
        <ele>370</ele>
        <time>2015-05-08T09:43:18.000Z</time>
      </trkpt>
      <trkpt lat="47.51789" lon="6.66261">
        <ele>370</ele>
        <time>2015-05-08T09:43:19.000Z</time>
      </trkpt>
      <trkpt lat="47.5179" lon="6.66266">
        <ele>370</ele>
        <time>2015-05-08T09:43:20.000Z</time>
      </trkpt>
      <trkpt lat="47.51792" lon="6.6627">
        <ele>370</ele>
        <time>2015-05-08T09:43:21.000Z</time>
      </trkpt>
      <trkpt lat="47.51794" lon="6.66274">
        <ele>370</ele>
        <time>2015-05-08T09:43:22.000Z</time>
      </trkpt>
      <trkpt lat="47.51796" lon="6.66278">
        <ele>370</ele>
        <time>2015-05-08T09:43:23.000Z</time>
      </trkpt>
      <trkpt lat="47.51798" lon="6.66281">
        <ele>370</ele>
        <time>2015-05-08T09:43:24.000Z</time>
      </trkpt>
      <trkpt lat="47.51801" lon="6.66285">
        <ele>370</ele>
        <time>2015-05-08T09:43:26.000Z</time>
      </trkpt>
      <trkpt lat="47.51802" lon="6.66287">
        <ele>370</ele>
        <time>2015-05-08T09:43:27.000Z</time>
      </trkpt>
      <trkpt lat="47.51805" lon="6.6629">
        <ele>370</ele>
        <time>2015-05-08T09:43:32.000Z</time>
      </trkpt>
      <trkpt lat="47.51806" lon="6.66291">
        <ele>370</ele>
        <time>2015-05-08T09:43:33.000Z</time>
      </trkpt>
      <trkpt lat="47.51809" lon="6.66291">
        <ele>370</ele>
        <time>2015-05-08T09:43:35.000Z</time>
      </trkpt>
      <trkpt lat="47.51811" lon="6.6629">
        <ele>370</ele>
        <time>2015-05-08T09:43:36.000Z</time>
      </trkpt>
      <trkpt lat="47.51814" lon="6.66287">
        <ele>370</ele>
        <time>2015-05-08T09:43:40.000Z</time>
      </trkpt>
      <trkpt lat="47.51815" lon="6.66286">
        <ele>370</ele>
        <time>2015-05-08T09:43:41.000Z</time>
      </trkpt>
      <trkpt lat="47.51818" lon="6.66282">
        <ele>370</ele>
        <time>2015-05-08T09:43:46.000Z</time>
      </trkpt>
      <trkpt lat="47.51819" lon="6.66281">
        <ele>370</ele>
        <time>2015-05-08T09:43:47.000Z</time>
      </trkpt>
      <trkpt lat="47.51821" lon="6.66279">
        <ele>370</ele>
        <time>2015-05-08T09:44:43.000Z</time>
      </trkpt>
      <trkpt lat="47.51823" lon="6.66276">
        <ele>370</ele>
        <time>2015-05-08T09:44:44.000Z</time>
      </trkpt>
      <trkpt lat="47.51826" lon="6.66273">
        <ele>370</ele>
        <time>2015-05-08T09:44:45.000Z</time>
      </trkpt>
      <trkpt lat="47.51828" lon="6.66269">
        <ele>370</ele>
        <time>2015-05-08T09:44:45.998Z</time>
      </trkpt>
      <trkpt lat="47.51829" lon="6.66267">
        <ele>371</ele>
        <time>2015-05-08T09:44:47.000Z</time>
      </trkpt>
      <trkpt lat="47.51832" lon="6.66263">
        <ele>371</ele>
        <time>2015-05-08T09:44:48.000Z</time>
      </trkpt>
      <trkpt lat="47.51835" lon="6.66259">
        <ele>371</ele>
        <time>2015-05-08T09:44:49.000Z</time>
      </trkpt>
      <trkpt lat="47.51837" lon="6.66254">
        <ele>371</ele>
        <time>2015-05-08T09:44:50.000Z</time>
      </trkpt>
      <trkpt lat="47.5184" lon="6.6625">
        <ele>371</ele>
        <time>2015-05-08T09:44:51.000Z</time>
      </trkpt>
      <trkpt lat="47.51843" lon="6.66246">
        <ele>371</ele>
        <time>2015-05-08T09:44:52.000Z</time>
      </trkpt>
      <trkpt lat="47.51846" lon="6.66242">
        <ele>371</ele>
        <time>2015-05-08T09:44:53.000Z</time>
      </trkpt>
      <trkpt lat="47.51849" lon="6.66238">
        <ele>371</ele>
        <time>2015-05-08T09:44:54.000Z</time>
      </trkpt>
      <trkpt lat="47.51853" lon="6.66233">
        <ele>371</ele>
        <time>2015-05-08T09:44:55.000Z</time>
      </trkpt>
      <trkpt lat="47.51857" lon="6.66226">
        <ele>371</ele>
        <time>2015-05-08T09:44:56.000Z</time>
      </trkpt>
      <trkpt lat="47.5186" lon="6.66221">
        <ele>371</ele>
        <time>2015-05-08T09:44:57.000Z</time>
      </trkpt>
      <trkpt lat="47.51863" lon="6.66215">
        <ele>371</ele>
        <time>2015-05-08T09:44:58.000Z</time>
      </trkpt>
      <trkpt lat="47.51865" lon="6.6621">
        <ele>371</ele>
        <time>2015-05-08T09:44:59.000Z</time>
      </trkpt>
      <trkpt lat="47.51869" lon="6.66204">
        <ele>371</ele>
        <time>2015-05-08T09:45:00.000Z</time>
      </trkpt>
      <trkpt lat="47.51872" lon="6.66198">
        <ele>371</ele>
        <time>2015-05-08T09:45:01.000Z</time>
      </trkpt>
      <trkpt lat="47.51876" lon="6.66194">
        <ele>372</ele>
        <time>2015-05-08T09:45:02.000Z</time>
      </trkpt>
      <trkpt lat="47.51879" lon="6.66189">
        <ele>372</ele>
        <time>2015-05-08T09:45:03.000Z</time>
      </trkpt>
      <trkpt lat="47.51882" lon="6.66183">
        <ele>372</ele>
        <time>2015-05-08T09:45:04.000Z</time>
      </trkpt>
      <trkpt lat="47.51885" lon="6.66179">
        <ele>372</ele>
        <time>2015-05-08T09:45:05.000Z</time>
      </trkpt>
      <trkpt lat="47.51889" lon="6.66174">
        <ele>372</ele>
        <time>2015-05-08T09:45:06.000Z</time>
      </trkpt>
      <trkpt lat="47.51893" lon="6.66169">
        <ele>372</ele>
        <time>2015-05-08T09:45:07.000Z</time>
      </trkpt>
      <trkpt lat="47.51896" lon="6.66164">
        <ele>372</ele>
        <time>2015-05-08T09:45:08.000Z</time>
      </trkpt>
      <trkpt lat="47.51899" lon="6.66158">
        <ele>372</ele>
        <time>2015-05-08T09:45:09.000Z</time>
      </trkpt>
      <trkpt lat="47.51903" lon="6.66154">
        <ele>372</ele>
        <time>2015-05-08T09:45:10.000Z</time>
      </trkpt>
      <trkpt lat="47.51907" lon="6.6615">
        <ele>372</ele>
        <time>2015-05-08T09:45:11.000Z</time>
      </trkpt>
      <trkpt lat="47.5191" lon="6.66144">
        <ele>372</ele>
        <time>2015-05-08T09:45:12.000Z</time>
      </trkpt>
      <trkpt lat="47.51913" lon="6.66138">
        <ele>372</ele>
        <time>2015-05-08T09:45:13.000Z</time>
      </trkpt>
      <trkpt lat="47.51916" lon="6.66135">
        <ele>372</ele>
        <time>2015-05-08T09:45:14.000Z</time>
      </trkpt>
      <trkpt lat="47.5192" lon="6.66129">
        <ele>374</ele>
        <time>2015-05-08T09:45:15.000Z</time>
      </trkpt>
      <trkpt lat="47.51924" lon="6.66124">
        <ele>374</ele>
        <time>2015-05-08T09:45:16.000Z</time>
      </trkpt>
      <trkpt lat="47.51927" lon="6.66119">
        <ele>374</ele>
        <time>2015-05-08T09:45:17.000Z</time>
      </trkpt>
      <trkpt lat="47.51931" lon="6.66114">
        <ele>374</ele>
        <time>2015-05-08T09:45:18.000Z</time>
      </trkpt>
      <trkpt lat="47.51934" lon="6.66111">
        <ele>374</ele>
        <time>2015-05-08T09:45:19.000Z</time>
      </trkpt>
      <trkpt lat="47.51938" lon="6.66105">
        <ele>374</ele>
        <time>2015-05-08T09:45:20.000Z</time>
      </trkpt>
      <trkpt lat="47.51941" lon="6.66102">
        <ele>374</ele>
        <time>2015-05-08T09:45:21.000Z</time>
      </trkpt>
      <trkpt lat="47.51944" lon="6.66098">
        <ele>374</ele>
        <time>2015-05-08T09:45:22.000Z</time>
      </trkpt>
      <trkpt lat="47.51948" lon="6.66094">
        <ele>374</ele>
        <time>2015-05-08T09:45:23.000Z</time>
      </trkpt>
      <trkpt lat="47.51951" lon="6.66089">
        <ele>374</ele>
        <time>2015-05-08T09:45:24.000Z</time>
      </trkpt>
      <trkpt lat="47.51955" lon="6.66085">
        <ele>374</ele>
        <time>2015-05-08T09:45:25.000Z</time>
      </trkpt>
      <trkpt lat="47.51957" lon="6.66083">
        <ele>374</ele>
        <time>2015-05-08T09:45:26.000Z</time>
      </trkpt>
      <trkpt lat="47.5196" lon="6.66081">
        <ele>374</ele>
        <time>2015-05-08T09:45:27.000Z</time>
      </trkpt>
      <trkpt lat="47.51964" lon="6.66077">
        <ele>374</ele>
        <time>2015-05-08T09:45:28.000Z</time>
      </trkpt>
      <trkpt lat="47.51967" lon="6.66074">
        <ele>374</ele>
        <time>2015-05-08T09:45:29.000Z</time>
      </trkpt>
      <trkpt lat="47.51971" lon="6.66069">
        <ele>374</ele>
        <time>2015-05-08T09:45:30.000Z</time>
      </trkpt>
      <trkpt lat="47.51975" lon="6.66067">
        <ele>375</ele>
        <time>2015-05-08T09:45:31.000Z</time>
      </trkpt>
      <trkpt lat="47.51978" lon="6.66067">
        <ele>375</ele>
        <time>2015-05-08T09:45:32.000Z</time>
      </trkpt>
      <trkpt lat="47.51983" lon="6.66066">
        <ele>375</ele>
        <time>2015-05-08T09:45:33.000Z</time>
      </trkpt>
      <trkpt lat="47.51986" lon="6.66068">
        <ele>375</ele>
        <time>2015-05-08T09:45:34.000Z</time>
      </trkpt>
      <trkpt lat="47.5199" lon="6.66068">
        <ele>375</ele>
        <time>2015-05-08T09:45:35.000Z</time>
      </trkpt>
      <trkpt lat="47.51994" lon="6.66069">
        <ele>375</ele>
        <time>2015-05-08T09:45:35.999Z</time>
      </trkpt>
      <trkpt lat="47.51999" lon="6.66074">
        <ele>375</ele>
        <time>2015-05-08T09:45:37.000Z</time>
      </trkpt>
      <trkpt lat="47.52004" lon="6.66076">
        <ele>376</ele>
        <time>2015-05-08T09:45:38.000Z</time>
      </trkpt>
      <trkpt lat="47.52009" lon="6.6608">
        <ele>376</ele>
        <time>2015-05-08T09:45:39.000Z</time>
      </trkpt>
      <trkpt lat="47.52012" lon="6.66083">
        <ele>376</ele>
        <time>2015-05-08T09:45:40.000Z</time>
      </trkpt>
      <trkpt lat="47.52017" lon="6.66084">
        <ele>377</ele>
        <time>2015-05-08T09:45:41.000Z</time>
      </trkpt>
      <trkpt lat="47.52022" lon="6.66084">
        <ele>377</ele>
        <time>2015-05-08T09:45:42.000Z</time>
      </trkpt>
      <trkpt lat="47.52027" lon="6.66081">
        <ele>376</ele>
        <time>2015-05-08T09:45:43.000Z</time>
      </trkpt>
      <trkpt lat="47.52032" lon="6.6608">
        <ele>376</ele>
        <time>2015-05-08T09:45:44.000Z</time>
      </trkpt>
      <trkpt lat="47.52035" lon="6.66081">
        <ele>376</ele>
        <time>2015-05-08T09:45:45.000Z</time>
      </trkpt>
      <trkpt lat="47.5204" lon="6.66079">
        <ele>376</ele>
        <time>2015-05-08T09:45:46.000Z</time>
      </trkpt>
      <trkpt lat="47.52045" lon="6.66077">
        <ele>376</ele>
        <time>2015-05-08T09:45:47.000Z</time>
      </trkpt>
      <trkpt lat="47.5205" lon="6.66075">
        <ele>376</ele>
        <time>2015-05-08T09:45:47.998Z</time>
      </trkpt>
      <trkpt lat="47.52054" lon="6.66077">
        <ele>376</ele>
        <time>2015-05-08T09:45:49.000Z</time>
      </trkpt>
      <trkpt lat="47.52059" lon="6.66075">
        <ele>376</ele>
        <time>2015-05-08T09:45:50.000Z</time>
      </trkpt>
      <trkpt lat="47.52064" lon="6.66074">
        <ele>377</ele>
        <time>2015-05-08T09:45:51.000Z</time>
      </trkpt>
      <trkpt lat="47.52068" lon="6.66072">
        <ele>377</ele>
        <time>2015-05-08T09:45:52.000Z</time>
      </trkpt>
      <trkpt lat="47.52072" lon="6.66073">
        <ele>377</ele>
        <time>2015-05-08T09:45:53.000Z</time>
      </trkpt>
      <trkpt lat="47.52076" lon="6.66074">
        <ele>377</ele>
        <time>2015-05-08T09:45:54.000Z</time>
      </trkpt>
      <trkpt lat="47.5208" lon="6.66079">
        <ele>377</ele>
        <time>2015-05-08T09:45:55.000Z</time>
      </trkpt>
      <trkpt lat="47.52083" lon="6.66084">
        <ele>378</ele>
        <time>2015-05-08T09:45:56.000Z</time>
      </trkpt>
      <trkpt lat="47.52085" lon="6.6609">
        <ele>378</ele>
        <time>2015-05-08T09:45:57.000Z</time>
      </trkpt>
      <trkpt lat="47.52087" lon="6.66095">
        <ele>378</ele>
        <time>2015-05-08T09:45:58.000Z</time>
      </trkpt>
      <trkpt lat="47.52086" lon="6.661">
        <ele>377</ele>
        <time>2015-05-08T09:45:59.000Z</time>
      </trkpt>
      <trkpt lat="47.52087" lon="6.66106">
        <ele>377</ele>
        <time>2015-05-08T09:46:00.000Z</time>
      </trkpt>
      <trkpt lat="47.52088" lon="6.66112">
        <ele>377</ele>
        <time>2015-05-08T09:46:01.000Z</time>
      </trkpt>
      <trkpt lat="47.52089" lon="6.66117">
        <ele>377</ele>
        <time>2015-05-08T09:46:02.000Z</time>
      </trkpt>
      <trkpt lat="47.52091" lon="6.66123">
        <ele>377</ele>
        <time>2015-05-08T09:46:03.000Z</time>
      </trkpt>
      <trkpt lat="47.52092" lon="6.66129">
        <ele>377</ele>
        <time>2015-05-08T09:46:04.000Z</time>
      </trkpt>
      <trkpt lat="47.52093" lon="6.66134">
        <ele>377</ele>
        <time>2015-05-08T09:46:05.000Z</time>
      </trkpt>
      <trkpt lat="47.52094" lon="6.6614">
        <ele>377</ele>
        <time>2015-05-08T09:46:06.000Z</time>
      </trkpt>
      <trkpt lat="47.52095" lon="6.66146">
        <ele>377</ele>
        <time>2015-05-08T09:46:07.000Z</time>
      </trkpt>
      <trkpt lat="47.52095" lon="6.66154">
        <ele>378</ele>
        <time>2015-05-08T09:46:08.000Z</time>
      </trkpt>
      <trkpt lat="47.52097" lon="6.66161">
        <ele>378</ele>
        <time>2015-05-08T09:46:09.000Z</time>
      </trkpt>
      <trkpt lat="47.52098" lon="6.66166">
        <ele>378</ele>
        <time>2015-05-08T09:46:10.000Z</time>
      </trkpt>
      <trkpt lat="47.521" lon="6.66171">
        <ele>378</ele>
        <time>2015-05-08T09:46:11.000Z</time>
      </trkpt>
      <trkpt lat="47.52103" lon="6.66177">
        <ele>378</ele>
        <time>2015-05-08T09:46:12.000Z</time>
      </trkpt>
      <trkpt lat="47.52105" lon="6.66182">
        <ele>378</ele>
        <time>2015-05-08T09:46:13.000Z</time>
      </trkpt>
      <trkpt lat="47.52107" lon="6.66187">
        <ele>378</ele>
        <time>2015-05-08T09:46:14.000Z</time>
      </trkpt>
      <trkpt lat="47.52109" lon="6.66194">
        <ele>378</ele>
        <time>2015-05-08T09:46:15.000Z</time>
      </trkpt>
      <trkpt lat="47.52112" lon="6.662">
        <ele>378</ele>
        <time>2015-05-08T09:46:16.000Z</time>
      </trkpt>
      <trkpt lat="47.52114" lon="6.66205">
        <ele>378</ele>
        <time>2015-05-08T09:46:17.000Z</time>
      </trkpt>
      <trkpt lat="47.52116" lon="6.6621">
        <ele>378</ele>
        <time>2015-05-08T09:46:18.000Z</time>
      </trkpt>
      <trkpt lat="47.52119" lon="6.66216">
        <ele>378</ele>
        <time>2015-05-08T09:46:19.000Z</time>
      </trkpt>
      <trkpt lat="47.52121" lon="6.66223">
        <ele>378</ele>
        <time>2015-05-08T09:46:20.000Z</time>
      </trkpt>
      <trkpt lat="47.52124" lon="6.66229">
        <ele>378</ele>
        <time>2015-05-08T09:46:21.000Z</time>
      </trkpt>
      <trkpt lat="47.52127" lon="6.66234">
        <ele>378</ele>
        <time>2015-05-08T09:46:22.000Z</time>
      </trkpt>
      <trkpt lat="47.5213" lon="6.66239">
        <ele>378</ele>
        <time>2015-05-08T09:46:23.000Z</time>
      </trkpt>
      <trkpt lat="47.52134" lon="6.66244">
        <ele>378</ele>
        <time>2015-05-08T09:46:24.000Z</time>
      </trkpt>
      <trkpt lat="47.52136" lon="6.66249">
        <ele>378</ele>
        <time>2015-05-08T09:46:25.000Z</time>
      </trkpt>
      <trkpt lat="47.52138" lon="6.66255">
        <ele>378</ele>
        <time>2015-05-08T09:46:26.000Z</time>
      </trkpt>
      <trkpt lat="47.5214" lon="6.66261">
        <ele>378</ele>
        <time>2015-05-08T09:46:26.998Z</time>
      </trkpt>
      <trkpt lat="47.52139" lon="6.66265">
        <ele>378</ele>
        <time>2015-05-08T09:46:28.000Z</time>
      </trkpt>
      <trkpt lat="47.52134" lon="6.66272">
        <ele>378</ele>
        <time>2015-05-08T09:46:29.000Z</time>
      </trkpt>
      <trkpt lat="47.52131" lon="6.66277">
        <ele>378</ele>
        <time>2015-05-08T09:46:30.000Z</time>
      </trkpt>
      <trkpt lat="47.52127" lon="6.66282">
        <ele>378</ele>
        <time>2015-05-08T09:46:31.000Z</time>
      </trkpt>
      <trkpt lat="47.52123" lon="6.66287">
        <ele>378</ele>
        <time>2015-05-08T09:46:32.000Z</time>
      </trkpt>
      <trkpt lat="47.5212" lon="6.66295">
        <ele>378</ele>
        <time>2015-05-08T09:46:33.000Z</time>
      </trkpt>
      <trkpt lat="47.52117" lon="6.66301">
        <ele>378</ele>
        <time>2015-05-08T09:46:34.000Z</time>
      </trkpt>
      <trkpt lat="47.52114" lon="6.66307">
        <ele>378</ele>
        <time>2015-05-08T09:46:35.000Z</time>
      </trkpt>
      <trkpt lat="47.5211" lon="6.66313">
        <ele>378</ele>
        <time>2015-05-08T09:46:36.000Z</time>
      </trkpt>
      <trkpt lat="47.52108" lon="6.6632">
        <ele>377</ele>
        <time>2015-05-08T09:46:37.000Z</time>
      </trkpt>
      <trkpt lat="47.52106" lon="6.66327">
        <ele>377</ele>
        <time>2015-05-08T09:46:38.000Z</time>
      </trkpt>
      <trkpt lat="47.52106" lon="6.66333">
        <ele>377</ele>
        <time>2015-05-08T09:46:39.000Z</time>
      </trkpt>
      <trkpt lat="47.52106" lon="6.66341">
        <ele>377</ele>
        <time>2015-05-08T09:46:40.000Z</time>
      </trkpt>
      <trkpt lat="47.52105" lon="6.66347">
        <ele>377</ele>
        <time>2015-05-08T09:46:41.000Z</time>
      </trkpt>
      <trkpt lat="47.52106" lon="6.66353">
        <ele>377</ele>
        <time>2015-05-08T09:46:42.000Z</time>
      </trkpt>
      <trkpt lat="47.52106" lon="6.66362">
        <ele>377</ele>
        <time>2015-05-08T09:46:43.000Z</time>
      </trkpt>
      <trkpt lat="47.52106" lon="6.6637">
        <ele>377</ele>
        <time>2015-05-08T09:46:44.000Z</time>
      </trkpt>
      <trkpt lat="47.5211" lon="6.66376">
        <ele>377</ele>
        <time>2015-05-08T09:46:45.000Z</time>
      </trkpt>
      <trkpt lat="47.5211" lon="6.66383">
        <ele>377</ele>
        <time>2015-05-08T09:46:46.000Z</time>
      </trkpt>
      <trkpt lat="47.5211" lon="6.66389">
        <ele>377</ele>
        <time>2015-05-08T09:46:47.000Z</time>
      </trkpt>
      <trkpt lat="47.52112" lon="6.66396">
        <ele>377</ele>
        <time>2015-05-08T09:46:48.000Z</time>
      </trkpt>
      <trkpt lat="47.52112" lon="6.664">
        <ele>377</ele>
        <time>2015-05-08T09:46:49.000Z</time>
      </trkpt>
      <trkpt lat="47.52112" lon="6.66409">
        <ele>377</ele>
        <time>2015-05-08T09:46:50.000Z</time>
      </trkpt>
      <trkpt lat="47.52113" lon="6.66416">
        <ele>377</ele>
        <time>2015-05-08T09:46:51.000Z</time>
      </trkpt>
      <trkpt lat="47.52114" lon="6.66424">
        <ele>377</ele>
        <time>2015-05-08T09:46:52.000Z</time>
      </trkpt>
      <trkpt lat="47.52114" lon="6.66431">
        <ele>377</ele>
        <time>2015-05-08T09:46:53.000Z</time>
      </trkpt>
      <trkpt lat="47.52114" lon="6.66438">
        <ele>377</ele>
        <time>2015-05-08T09:46:54.000Z</time>
      </trkpt>
      <trkpt lat="47.52115" lon="6.66444">
        <ele>378</ele>
        <time>2015-05-08T09:46:55.000Z</time>
      </trkpt>
      <trkpt lat="47.52114" lon="6.66452">
        <ele>378</ele>
        <time>2015-05-08T09:46:56.000Z</time>
      </trkpt>
      <trkpt lat="47.52115" lon="6.66459">
        <ele>378</ele>
        <time>2015-05-08T09:46:57.000Z</time>
      </trkpt>
      <trkpt lat="47.52115" lon="6.66467">
        <ele>378</ele>
        <time>2015-05-08T09:46:58.000Z</time>
      </trkpt>
      <trkpt lat="47.52114" lon="6.66474">
        <ele>378</ele>
        <time>2015-05-08T09:46:59.000Z</time>
      </trkpt>
      <trkpt lat="47.52114" lon="6.66482">
        <ele>378</ele>
        <time>2015-05-08T09:47:00.000Z</time>
      </trkpt>
      <trkpt lat="47.52114" lon="6.66488">
        <ele>378</ele>
        <time>2015-05-08T09:47:01.000Z</time>
      </trkpt>
      <trkpt lat="47.52113" lon="6.66496">
        <ele>378</ele>
        <time>2015-05-08T09:47:02.000Z</time>
      </trkpt>
      <trkpt lat="47.52113" lon="6.66504">
        <ele>378</ele>
        <time>2015-05-08T09:47:02.998Z</time>
      </trkpt>
      <trkpt lat="47.52112" lon="6.6651">
        <ele>378</ele>
        <time>2015-05-08T09:47:04.000Z</time>
      </trkpt>
      <trkpt lat="47.52112" lon="6.66517">
        <ele>378</ele>
        <time>2015-05-08T09:47:05.000Z</time>
      </trkpt>
      <trkpt lat="47.52111" lon="6.66524">
        <ele>378</ele>
        <time>2015-05-08T09:47:06.000Z</time>
      </trkpt>
      <trkpt lat="47.5211" lon="6.6653">
        <ele>378</ele>
        <time>2015-05-08T09:47:07.000Z</time>
      </trkpt>
      <trkpt lat="47.5211" lon="6.66537">
        <ele>378</ele>
        <time>2015-05-08T09:47:08.000Z</time>
      </trkpt>
      <trkpt lat="47.52109" lon="6.66543">
        <ele>378</ele>
        <time>2015-05-08T09:47:09.000Z</time>
      </trkpt>
      <trkpt lat="47.52109" lon="6.66551">
        <ele>378</ele>
        <time>2015-05-08T09:47:10.000Z</time>
      </trkpt>
      <trkpt lat="47.52108" lon="6.66558">
        <ele>378</ele>
        <time>2015-05-08T09:47:11.000Z</time>
      </trkpt>
      <trkpt lat="47.52108" lon="6.66564">
        <ele>378</ele>
        <time>2015-05-08T09:47:12.000Z</time>
      </trkpt>
      <trkpt lat="47.52108" lon="6.66571">
        <ele>377</ele>
        <time>2015-05-08T09:47:13.000Z</time>
      </trkpt>
      <trkpt lat="47.52108" lon="6.66579">
        <ele>377</ele>
        <time>2015-05-08T09:47:14.000Z</time>
      </trkpt>
      <trkpt lat="47.52107" lon="6.66584">
        <ele>377</ele>
        <time>2015-05-08T09:47:15.000Z</time>
      </trkpt>
      <trkpt lat="47.52107" lon="6.66592">
        <ele>377</ele>
        <time>2015-05-08T09:47:16.000Z</time>
      </trkpt>
      <trkpt lat="47.52108" lon="6.66599">
        <ele>378</ele>
        <time>2015-05-08T09:47:17.000Z</time>
      </trkpt>
      <trkpt lat="47.52108" lon="6.66606">
        <ele>378</ele>
        <time>2015-05-08T09:47:18.000Z</time>
      </trkpt>
      <trkpt lat="47.52108" lon="6.66612">
        <ele>378</ele>
        <time>2015-05-08T09:47:19.000Z</time>
      </trkpt>
      <trkpt lat="47.52108" lon="6.66619">
        <ele>378</ele>
        <time>2015-05-08T09:47:20.000Z</time>
      </trkpt>
      <trkpt lat="47.52109" lon="6.66626">
        <ele>378</ele>
        <time>2015-05-08T09:47:21.000Z</time>
      </trkpt>
      <trkpt lat="47.52108" lon="6.66633">
        <ele>378</ele>
        <time>2015-05-08T09:47:22.000Z</time>
      </trkpt>
      <trkpt lat="47.52108" lon="6.6664">
        <ele>378</ele>
        <time>2015-05-08T09:47:23.000Z</time>
      </trkpt>
      <trkpt lat="47.52108" lon="6.66648">
        <ele>378</ele>
        <time>2015-05-08T09:47:24.000Z</time>
      </trkpt>
      <trkpt lat="47.52108" lon="6.66656">
        <ele>378</ele>
        <time>2015-05-08T09:47:25.000Z</time>
      </trkpt>
      <trkpt lat="47.52108" lon="6.66661">
        <ele>378</ele>
        <time>2015-05-08T09:47:26.000Z</time>
      </trkpt>
      <trkpt lat="47.52108" lon="6.66669">
        <ele>377</ele>
        <time>2015-05-08T09:47:27.000Z</time>
      </trkpt>
      <trkpt lat="47.52108" lon="6.66676">
        <ele>377</ele>
        <time>2015-05-08T09:47:28.000Z</time>
      </trkpt>
      <trkpt lat="47.52107" lon="6.66684">
        <ele>377</ele>
        <time>2015-05-08T09:47:29.000Z</time>
      </trkpt>
      <trkpt lat="47.52107" lon="6.66692">
        <ele>377</ele>
        <time>2015-05-08T09:47:30.000Z</time>
      </trkpt>
      <trkpt lat="47.52108" lon="6.66701">
        <ele>377</ele>
        <time>2015-05-08T09:47:31.000Z</time>
      </trkpt>
      <trkpt lat="47.52106" lon="6.66707">
        <ele>377</ele>
        <time>2015-05-08T09:47:32.000Z</time>
      </trkpt>
      <trkpt lat="47.52105" lon="6.66713">
        <ele>377</ele>
        <time>2015-05-08T09:47:33.000Z</time>
      </trkpt>
      <trkpt lat="47.52104" lon="6.66722">
        <ele>377</ele>
        <time>2015-05-08T09:47:34.000Z</time>
      </trkpt>
      <trkpt lat="47.52104" lon="6.6673">
        <ele>377</ele>
        <time>2015-05-08T09:47:35.000Z</time>
      </trkpt>
      <trkpt lat="47.52104" lon="6.66738">
        <ele>377</ele>
        <time>2015-05-08T09:47:36.000Z</time>
      </trkpt>
      <trkpt lat="47.52105" lon="6.66749">
        <ele>377</ele>
        <time>2015-05-08T09:47:37.000Z</time>
      </trkpt>
      <trkpt lat="47.52103" lon="6.66758">
        <ele>377</ele>
        <time>2015-05-08T09:47:38.000Z</time>
      </trkpt>
      <trkpt lat="47.52103" lon="6.66767">
        <ele>377</ele>
        <time>2015-05-08T09:47:39.000Z</time>
      </trkpt>
      <trkpt lat="47.52104" lon="6.66778">
        <ele>377</ele>
        <time>2015-05-08T09:47:40.000Z</time>
      </trkpt>
      <trkpt lat="47.52104" lon="6.66786">
        <ele>377</ele>
        <time>2015-05-08T09:47:41.000Z</time>
      </trkpt>
      <trkpt lat="47.52104" lon="6.66794">
        <ele>377</ele>
        <time>2015-05-08T09:47:42.000Z</time>
      </trkpt>
      <trkpt lat="47.52104" lon="6.66803">
        <ele>377</ele>
        <time>2015-05-08T09:47:43.000Z</time>
      </trkpt>
      <trkpt lat="47.52105" lon="6.66813">
        <ele>377</ele>
        <time>2015-05-08T09:47:44.000Z</time>
      </trkpt>
      <trkpt lat="47.52105" lon="6.66821">
        <ele>376</ele>
        <time>2015-05-08T09:47:45.000Z</time>
      </trkpt>
      <trkpt lat="47.52106" lon="6.6683">
        <ele>376</ele>
        <time>2015-05-08T09:47:46.000Z</time>
      </trkpt>
      <trkpt lat="47.52106" lon="6.66839">
        <ele>376</ele>
        <time>2015-05-08T09:47:47.000Z</time>
      </trkpt>
      <trkpt lat="47.52107" lon="6.66849">
        <ele>376</ele>
        <time>2015-05-08T09:47:48.000Z</time>
      </trkpt>
      <trkpt lat="47.52107" lon="6.66859">
        <ele>376</ele>
        <time>2015-05-08T09:47:49.000Z</time>
      </trkpt>
      <trkpt lat="47.52107" lon="6.66869">
        <ele>376</ele>
        <time>2015-05-08T09:47:50.000Z</time>
      </trkpt>
      <trkpt lat="47.52108" lon="6.66879">
        <ele>376</ele>
        <time>2015-05-08T09:47:51.000Z</time>
      </trkpt>
      <trkpt lat="47.52108" lon="6.66888">
        <ele>376</ele>
        <time>2015-05-08T09:47:52.000Z</time>
      </trkpt>
      <trkpt lat="47.52109" lon="6.66897">
        <ele>376</ele>
        <time>2015-05-08T09:47:53.000Z</time>
      </trkpt>
      <trkpt lat="47.5211" lon="6.66906">
        <ele>376</ele>
        <time>2015-05-08T09:47:54.000Z</time>
      </trkpt>
      <trkpt lat="47.5211" lon="6.66916">
        <ele>376</ele>
        <time>2015-05-08T09:47:55.000Z</time>
      </trkpt>
      <trkpt lat="47.52111" lon="6.66926">
        <ele>375</ele>
        <time>2015-05-08T09:47:56.000Z</time>
      </trkpt>
      <trkpt lat="47.52111" lon="6.66937">
        <ele>375</ele>
        <time>2015-05-08T09:47:57.000Z</time>
      </trkpt>
      <trkpt lat="47.52112" lon="6.66948">
        <ele>375</ele>
        <time>2015-05-08T09:47:58.000Z</time>
      </trkpt>
      <trkpt lat="47.52112" lon="6.66958">
        <ele>375</ele>
        <time>2015-05-08T09:47:59.000Z</time>
      </trkpt>
      <trkpt lat="47.52113" lon="6.66969">
        <ele>375</ele>
        <time>2015-05-08T09:48:00.000Z</time>
      </trkpt>
      <trkpt lat="47.52114" lon="6.66979">
        <ele>375</ele>
        <time>2015-05-08T09:48:01.000Z</time>
      </trkpt>
      <trkpt lat="47.52116" lon="6.66988">
        <ele>375</ele>
        <time>2015-05-08T09:48:02.000Z</time>
      </trkpt>
      <trkpt lat="47.52117" lon="6.66998">
        <ele>375</ele>
        <time>2015-05-08T09:48:03.000Z</time>
      </trkpt>
      <trkpt lat="47.52119" lon="6.67007">
        <ele>374</ele>
        <time>2015-05-08T09:48:04.000Z</time>
      </trkpt>
      <trkpt lat="47.52121" lon="6.67017">
        <ele>374</ele>
        <time>2015-05-08T09:48:05.000Z</time>
      </trkpt>
      <trkpt lat="47.52123" lon="6.67026">
        <ele>374</ele>
        <time>2015-05-08T09:48:06.000Z</time>
      </trkpt>
      <trkpt lat="47.52125" lon="6.67036">
        <ele>374</ele>
        <time>2015-05-08T09:48:06.999Z</time>
      </trkpt>
      <trkpt lat="47.52128" lon="6.67046">
        <ele>374</ele>
        <time>2015-05-08T09:48:08.000Z</time>
      </trkpt>
      <trkpt lat="47.5213" lon="6.67056">
        <ele>374</ele>
        <time>2015-05-08T09:48:09.000Z</time>
      </trkpt>
      <trkpt lat="47.52131" lon="6.67065">
        <ele>374</ele>
        <time>2015-05-08T09:48:10.000Z</time>
      </trkpt>
      <trkpt lat="47.52134" lon="6.67075">
        <ele>373</ele>
        <time>2015-05-08T09:48:11.000Z</time>
      </trkpt>
      <trkpt lat="47.52136" lon="6.67085">
        <ele>373</ele>
        <time>2015-05-08T09:48:12.000Z</time>
      </trkpt>
      <trkpt lat="47.52138" lon="6.67094">
        <ele>373</ele>
        <time>2015-05-08T09:48:13.000Z</time>
      </trkpt>
      <trkpt lat="47.52139" lon="6.67104">
        <ele>372</ele>
        <time>2015-05-08T09:48:14.000Z</time>
      </trkpt>
      <trkpt lat="47.52141" lon="6.67113">
        <ele>372</ele>
        <time>2015-05-08T09:48:15.000Z</time>
      </trkpt>
      <trkpt lat="47.52144" lon="6.67123">
        <ele>372</ele>
        <time>2015-05-08T09:48:16.000Z</time>
      </trkpt>
      <trkpt lat="47.52146" lon="6.67132">
        <ele>372</ele>
        <time>2015-05-08T09:48:17.000Z</time>
      </trkpt>
      <trkpt lat="47.52147" lon="6.67141">
        <ele>372</ele>
        <time>2015-05-08T09:48:18.000Z</time>
      </trkpt>
      <trkpt lat="47.52149" lon="6.67151">
        <ele>372</ele>
        <time>2015-05-08T09:48:19.000Z</time>
      </trkpt>
      <trkpt lat="47.52151" lon="6.6716">
        <ele>372</ele>
        <time>2015-05-08T09:48:20.000Z</time>
      </trkpt>
      <trkpt lat="47.52153" lon="6.67169">
        <ele>372</ele>
        <time>2015-05-08T09:48:21.000Z</time>
      </trkpt>
      <trkpt lat="47.52154" lon="6.67178">
        <ele>372</ele>
        <time>2015-05-08T09:48:22.000Z</time>
      </trkpt>
      <trkpt lat="47.52156" lon="6.67187">
        <ele>372</ele>
        <time>2015-05-08T09:48:23.000Z</time>
      </trkpt>
      <trkpt lat="47.52158" lon="6.67196">
        <ele>372</ele>
        <time>2015-05-08T09:48:24.000Z</time>
      </trkpt>
      <trkpt lat="47.52159" lon="6.67206">
        <ele>372</ele>
        <time>2015-05-08T09:48:25.000Z</time>
      </trkpt>
      <trkpt lat="47.5216" lon="6.67215">
        <ele>372</ele>
        <time>2015-05-08T09:48:26.000Z</time>
      </trkpt>
      <trkpt lat="47.52162" lon="6.67224">
        <ele>372</ele>
        <time>2015-05-08T09:48:27.000Z</time>
      </trkpt>
      <trkpt lat="47.52163" lon="6.67233">
        <ele>372</ele>
        <time>2015-05-08T09:48:28.000Z</time>
      </trkpt>
      <trkpt lat="47.52165" lon="6.67242">
        <ele>372</ele>
        <time>2015-05-08T09:48:29.000Z</time>
      </trkpt>
      <trkpt lat="47.52166" lon="6.6725">
        <ele>372</ele>
        <time>2015-05-08T09:48:30.000Z</time>
      </trkpt>
      <trkpt lat="47.52167" lon="6.67259">
        <ele>372</ele>
        <time>2015-05-08T09:48:31.000Z</time>
      </trkpt>
      <trkpt lat="47.52168" lon="6.67268">
        <ele>372</ele>
        <time>2015-05-08T09:48:32.000Z</time>
      </trkpt>
      <trkpt lat="47.5217" lon="6.67276">
        <ele>372</ele>
        <time>2015-05-08T09:48:33.000Z</time>
      </trkpt>
      <trkpt lat="47.52171" lon="6.67284">
        <ele>372</ele>
        <time>2015-05-08T09:48:34.000Z</time>
      </trkpt>
      <trkpt lat="47.52171" lon="6.67293">
        <ele>372</ele>
        <time>2015-05-08T09:48:35.000Z</time>
      </trkpt>
      <trkpt lat="47.52171" lon="6.67303">
        <ele>372</ele>
        <time>2015-05-08T09:48:36.000Z</time>
      </trkpt>
      <trkpt lat="47.52172" lon="6.67311">
        <ele>372</ele>
        <time>2015-05-08T09:48:37.000Z</time>
      </trkpt>
      <trkpt lat="47.52173" lon="6.67321">
        <ele>372</ele>
        <time>2015-05-08T09:48:38.000Z</time>
      </trkpt>
      <trkpt lat="47.52173" lon="6.6733">
        <ele>372</ele>
        <time>2015-05-08T09:48:39.000Z</time>
      </trkpt>
      <trkpt lat="47.52173" lon="6.67341">
        <ele>372</ele>
        <time>2015-05-08T09:48:40.000Z</time>
      </trkpt>
      <trkpt lat="47.52174" lon="6.67351">
        <ele>372</ele>
        <time>2015-05-08T09:48:41.000Z</time>
      </trkpt>
      <trkpt lat="47.52176" lon="6.6736">
        <ele>372</ele>
        <time>2015-05-08T09:48:42.000Z</time>
      </trkpt>
      <trkpt lat="47.52178" lon="6.67369">
        <ele>372</ele>
        <time>2015-05-08T09:48:43.000Z</time>
      </trkpt>
      <trkpt lat="47.52181" lon="6.67379">
        <ele>372</ele>
        <time>2015-05-08T09:48:44.000Z</time>
      </trkpt>
      <trkpt lat="47.52184" lon="6.67388">
        <ele>372</ele>
        <time>2015-05-08T09:48:45.000Z</time>
      </trkpt>
      <trkpt lat="47.52187" lon="6.67397">
        <ele>372</ele>
        <time>2015-05-08T09:48:46.000Z</time>
      </trkpt>
      <trkpt lat="47.52189" lon="6.67405">
        <ele>372</ele>
        <time>2015-05-08T09:48:47.000Z</time>
      </trkpt>
      <trkpt lat="47.52192" lon="6.67414">
        <ele>371</ele>
        <time>2015-05-08T09:48:48.000Z</time>
      </trkpt>
      <trkpt lat="47.52195" lon="6.67421">
        <ele>371</ele>
        <time>2015-05-08T09:48:49.000Z</time>
      </trkpt>
      <trkpt lat="47.52197" lon="6.67429">
        <ele>371</ele>
        <time>2015-05-08T09:48:50.000Z</time>
      </trkpt>
      <trkpt lat="47.522" lon="6.67436">
        <ele>371</ele>
        <time>2015-05-08T09:48:51.000Z</time>
      </trkpt>
      <trkpt lat="47.52202" lon="6.67444">
        <ele>371</ele>
        <time>2015-05-08T09:48:52.000Z</time>
      </trkpt>
      <trkpt lat="47.52204" lon="6.67452">
        <ele>371</ele>
        <time>2015-05-08T09:48:53.000Z</time>
      </trkpt>
      <trkpt lat="47.52205" lon="6.67459">
        <ele>371</ele>
        <time>2015-05-08T09:48:54.000Z</time>
      </trkpt>
      <trkpt lat="47.52207" lon="6.67467">
        <ele>371</ele>
        <time>2015-05-08T09:48:55.000Z</time>
      </trkpt>
      <trkpt lat="47.52208" lon="6.67475">
        <ele>371</ele>
        <time>2015-05-08T09:48:56.000Z</time>
      </trkpt>
      <trkpt lat="47.52208" lon="6.67484">
        <ele>371</ele>
        <time>2015-05-08T09:48:57.000Z</time>
      </trkpt>
      <trkpt lat="47.52209" lon="6.67492">
        <ele>372</ele>
        <time>2015-05-08T09:48:58.000Z</time>
      </trkpt>
      <trkpt lat="47.52208" lon="6.675">
        <ele>371</ele>
        <time>2015-05-08T09:48:59.000Z</time>
      </trkpt>
      <trkpt lat="47.52207" lon="6.67509">
        <ele>371</ele>
        <time>2015-05-08T09:49:00.000Z</time>
      </trkpt>
      <trkpt lat="47.52207" lon="6.67518">
        <ele>371</ele>
        <time>2015-05-08T09:49:01.000Z</time>
      </trkpt>
      <trkpt lat="47.52206" lon="6.67526">
        <ele>371</ele>
        <time>2015-05-08T09:49:02.000Z</time>
      </trkpt>
      <trkpt lat="47.52206" lon="6.67534">
        <ele>371</ele>
        <time>2015-05-08T09:49:03.000Z</time>
      </trkpt>
      <trkpt lat="47.52206" lon="6.67544">
        <ele>371</ele>
        <time>2015-05-08T09:49:04.000Z</time>
      </trkpt>
      <trkpt lat="47.52206" lon="6.67553">
        <ele>371</ele>
        <time>2015-05-08T09:49:05.000Z</time>
      </trkpt>
      <trkpt lat="47.52206" lon="6.67561">
        <ele>371</ele>
        <time>2015-05-08T09:49:06.000Z</time>
      </trkpt>
      <trkpt lat="47.52205" lon="6.67571">
        <ele>371</ele>
        <time>2015-05-08T09:49:07.000Z</time>
      </trkpt>
      <trkpt lat="47.52206" lon="6.6758">
        <ele>370</ele>
        <time>2015-05-08T09:49:08.000Z</time>
      </trkpt>
      <trkpt lat="47.52205" lon="6.6759">
        <ele>369</ele>
        <time>2015-05-08T09:49:09.000Z</time>
      </trkpt>
      <trkpt lat="47.52205" lon="6.67599">
        <ele>369</ele>
        <time>2015-05-08T09:49:10.000Z</time>
      </trkpt>
      <trkpt lat="47.52205" lon="6.67608">
        <ele>369</ele>
        <time>2015-05-08T09:49:11.000Z</time>
      </trkpt>
      <trkpt lat="47.52204" lon="6.67617">
        <ele>369</ele>
        <time>2015-05-08T09:49:12.000Z</time>
      </trkpt>
      <trkpt lat="47.52204" lon="6.67627">
        <ele>369</ele>
        <time>2015-05-08T09:49:13.000Z</time>
      </trkpt>
      <trkpt lat="47.52204" lon="6.67636">
        <ele>369</ele>
        <time>2015-05-08T09:49:14.000Z</time>
      </trkpt>
      <trkpt lat="47.52203" lon="6.67646">
        <ele>368</ele>
        <time>2015-05-08T09:49:15.000Z</time>
      </trkpt>
      <trkpt lat="47.52204" lon="6.67657">
        <ele>368</ele>
        <time>2015-05-08T09:49:16.000Z</time>
      </trkpt>
      <trkpt lat="47.52203" lon="6.67667">
        <ele>367</ele>
        <time>2015-05-08T09:49:17.000Z</time>
      </trkpt>
      <trkpt lat="47.52203" lon="6.67678">
        <ele>367</ele>
        <time>2015-05-08T09:49:18.000Z</time>
      </trkpt>
      <trkpt lat="47.52203" lon="6.67688">
        <ele>367</ele>
        <time>2015-05-08T09:49:19.000Z</time>
      </trkpt>
      <trkpt lat="47.52202" lon="6.67699">
        <ele>367</ele>
        <time>2015-05-08T09:49:20.000Z</time>
      </trkpt>
      <trkpt lat="47.52201" lon="6.6771">
        <ele>367</ele>
        <time>2015-05-08T09:49:21.000Z</time>
      </trkpt>
      <trkpt lat="47.522" lon="6.6772">
        <ele>367</ele>
        <time>2015-05-08T09:49:22.000Z</time>
      </trkpt>
      <trkpt lat="47.522" lon="6.67731">
        <ele>367</ele>
        <time>2015-05-08T09:49:23.000Z</time>
      </trkpt>
      <trkpt lat="47.52199" lon="6.67742">
        <ele>367</ele>
        <time>2015-05-08T09:49:24.000Z</time>
      </trkpt>
      <trkpt lat="47.52199" lon="6.67753">
        <ele>366</ele>
        <time>2015-05-08T09:49:25.000Z</time>
      </trkpt>
      <trkpt lat="47.52198" lon="6.67764">
        <ele>366</ele>
        <time>2015-05-08T09:49:26.000Z</time>
      </trkpt>
      <trkpt lat="47.52198" lon="6.67773">
        <ele>366</ele>
        <time>2015-05-08T09:49:27.000Z</time>
      </trkpt>
      <trkpt lat="47.52197" lon="6.67785">
        <ele>366</ele>
        <time>2015-05-08T09:49:28.000Z</time>
      </trkpt>
      <trkpt lat="47.52196" lon="6.67797">
        <ele>366</ele>
        <time>2015-05-08T09:49:29.000Z</time>
      </trkpt>
      <trkpt lat="47.52195" lon="6.67807">
        <ele>366</ele>
        <time>2015-05-08T09:49:30.000Z</time>
      </trkpt>
      <trkpt lat="47.52194" lon="6.67818">
        <ele>366</ele>
        <time>2015-05-08T09:49:31.000Z</time>
      </trkpt>
      <trkpt lat="47.52194" lon="6.67829">
        <ele>365</ele>
        <time>2015-05-08T09:49:32.000Z</time>
      </trkpt>
      <trkpt lat="47.52193" lon="6.67838">
        <ele>365</ele>
        <time>2015-05-08T09:49:33.000Z</time>
      </trkpt>
      <trkpt lat="47.52192" lon="6.67848">
        <ele>365</ele>
        <time>2015-05-08T09:49:34.000Z</time>
      </trkpt>
      <trkpt lat="47.52191" lon="6.67858">
        <ele>365</ele>
        <time>2015-05-08T09:49:35.000Z</time>
      </trkpt>
      <trkpt lat="47.5219" lon="6.67869">
        <ele>365</ele>
        <time>2015-05-08T09:49:36.000Z</time>
      </trkpt>
      <trkpt lat="47.52189" lon="6.6788">
        <ele>364</ele>
        <time>2015-05-08T09:49:37.000Z</time>
      </trkpt>
      <trkpt lat="47.52189" lon="6.67889">
        <ele>364</ele>
        <time>2015-05-08T09:49:38.000Z</time>
      </trkpt>
      <trkpt lat="47.52188" lon="6.67899">
        <ele>364</ele>
        <time>2015-05-08T09:49:39.000Z</time>
      </trkpt>
      <trkpt lat="47.52187" lon="6.6791">
        <ele>364</ele>
        <time>2015-05-08T09:49:40.000Z</time>
      </trkpt>
      <trkpt lat="47.52186" lon="6.67921">
        <ele>364</ele>
        <time>2015-05-08T09:49:41.000Z</time>
      </trkpt>
      <trkpt lat="47.52185" lon="6.67931">
        <ele>364</ele>
        <time>2015-05-08T09:49:42.000Z</time>
      </trkpt>
      <trkpt lat="47.52185" lon="6.67941">
        <ele>364</ele>
        <time>2015-05-08T09:49:43.000Z</time>
      </trkpt>
      <trkpt lat="47.52184" lon="6.67952">
        <ele>364</ele>
        <time>2015-05-08T09:49:44.000Z</time>
      </trkpt>
      <trkpt lat="47.52184" lon="6.67962">
        <ele>363</ele>
        <time>2015-05-08T09:49:45.000Z</time>
      </trkpt>
      <trkpt lat="47.52183" lon="6.67972">
        <ele>363</ele>
        <time>2015-05-08T09:49:46.000Z</time>
      </trkpt>
      <trkpt lat="47.52183" lon="6.67983">
        <ele>363</ele>
        <time>2015-05-08T09:49:47.000Z</time>
      </trkpt>
      <trkpt lat="47.52182" lon="6.67994">
        <ele>363</ele>
        <time>2015-05-08T09:49:48.000Z</time>
      </trkpt>
      <trkpt lat="47.52181" lon="6.68004">
        <ele>363</ele>
        <time>2015-05-08T09:49:49.000Z</time>
      </trkpt>
      <trkpt lat="47.5218" lon="6.68013">
        <ele>363</ele>
        <time>2015-05-08T09:49:50.000Z</time>
      </trkpt>
      <trkpt lat="47.5218" lon="6.68024">
        <ele>363</ele>
        <time>2015-05-08T09:49:51.000Z</time>
      </trkpt>
      <trkpt lat="47.52178" lon="6.68034">
        <ele>363</ele>
        <time>2015-05-08T09:49:52.000Z</time>
      </trkpt>
      <trkpt lat="47.52177" lon="6.68045">
        <ele>362</ele>
        <time>2015-05-08T09:49:53.000Z</time>
      </trkpt>
      <trkpt lat="47.52176" lon="6.68055">
        <ele>362</ele>
        <time>2015-05-08T09:49:54.000Z</time>
      </trkpt>
      <trkpt lat="47.52176" lon="6.68065">
        <ele>362</ele>
        <time>2015-05-08T09:49:55.000Z</time>
      </trkpt>
      <trkpt lat="47.52174" lon="6.68077">
        <ele>362</ele>
        <time>2015-05-08T09:49:56.000Z</time>
      </trkpt>
      <trkpt lat="47.52173" lon="6.68087">
        <ele>362</ele>
        <time>2015-05-08T09:49:57.000Z</time>
      </trkpt>
      <trkpt lat="47.52171" lon="6.68099">
        <ele>362</ele>
        <time>2015-05-08T09:49:58.000Z</time>
      </trkpt>
      <trkpt lat="47.5217" lon="6.68108">
        <ele>361</ele>
        <time>2015-05-08T09:49:59.000Z</time>
      </trkpt>
      <trkpt lat="47.52168" lon="6.68118">
        <ele>361</ele>
        <time>2015-05-08T09:50:00.000Z</time>
      </trkpt>
      <trkpt lat="47.52166" lon="6.68127">
        <ele>361</ele>
        <time>2015-05-08T09:50:01.000Z</time>
      </trkpt>
      <trkpt lat="47.52163" lon="6.68136">
        <ele>361</ele>
        <time>2015-05-08T09:50:02.000Z</time>
      </trkpt>
      <trkpt lat="47.5216" lon="6.68146">
        <ele>361</ele>
        <time>2015-05-08T09:50:03.000Z</time>
      </trkpt>
      <trkpt lat="47.52159" lon="6.68156">
        <ele>361</ele>
        <time>2015-05-08T09:50:04.000Z</time>
      </trkpt>
      <trkpt lat="47.52159" lon="6.68167">
        <ele>360</ele>
        <time>2015-05-08T09:50:05.000Z</time>
      </trkpt>
      <trkpt lat="47.5216" lon="6.68177">
        <ele>360</ele>
        <time>2015-05-08T09:50:06.000Z</time>
      </trkpt>
      <trkpt lat="47.52161" lon="6.68189">
        <ele>360</ele>
        <time>2015-05-08T09:50:07.000Z</time>
      </trkpt>
      <trkpt lat="47.52161" lon="6.68199">
        <ele>360</ele>
        <time>2015-05-08T09:50:08.000Z</time>
      </trkpt>
      <trkpt lat="47.52162" lon="6.6821">
        <ele>360</ele>
        <time>2015-05-08T09:50:09.000Z</time>
      </trkpt>
      <trkpt lat="47.52163" lon="6.68221">
        <ele>360</ele>
        <time>2015-05-08T09:50:10.000Z</time>
      </trkpt>
      <trkpt lat="47.52165" lon="6.68232">
        <ele>360</ele>
        <time>2015-05-08T09:50:11.000Z</time>
      </trkpt>
      <trkpt lat="47.52168" lon="6.68244">
        <ele>359</ele>
        <time>2015-05-08T09:50:12.000Z</time>
      </trkpt>
      <trkpt lat="47.52172" lon="6.68253">
        <ele>359</ele>
        <time>2015-05-08T09:50:13.000Z</time>
      </trkpt>
      <trkpt lat="47.52175" lon="6.68265">
        <ele>359</ele>
        <time>2015-05-08T09:50:14.000Z</time>
      </trkpt>
      <trkpt lat="47.52177" lon="6.68275">
        <ele>359</ele>
        <time>2015-05-08T09:50:15.000Z</time>
      </trkpt>
      <trkpt lat="47.52179" lon="6.68285">
        <ele>359</ele>
        <time>2015-05-08T09:50:16.000Z</time>
      </trkpt>
      <trkpt lat="47.52182" lon="6.68294">
        <ele>359</ele>
        <time>2015-05-08T09:50:17.000Z</time>
      </trkpt>
      <trkpt lat="47.52184" lon="6.68302">
        <ele>359</ele>
        <time>2015-05-08T09:50:18.000Z</time>
      </trkpt>
      <trkpt lat="47.52186" lon="6.68311">
        <ele>359</ele>
        <time>2015-05-08T09:50:19.000Z</time>
      </trkpt>
      <trkpt lat="47.52188" lon="6.68318">
        <ele>359</ele>
        <time>2015-05-08T09:50:20.000Z</time>
      </trkpt>
      <trkpt lat="47.52189" lon="6.68326">
        <ele>359</ele>
        <time>2015-05-08T09:50:21.000Z</time>
      </trkpt>
      <trkpt lat="47.5219" lon="6.68333">
        <ele>359</ele>
        <time>2015-05-08T09:50:22.000Z</time>
      </trkpt>
      <trkpt lat="47.52192" lon="6.68339">
        <ele>359</ele>
        <time>2015-05-08T09:50:23.000Z</time>
      </trkpt>
      <trkpt lat="47.52194" lon="6.68346">
        <ele>359</ele>
        <time>2015-05-08T09:50:24.000Z</time>
      </trkpt>
      <trkpt lat="47.52195" lon="6.68353">
        <ele>359</ele>
        <time>2015-05-08T09:50:25.000Z</time>
      </trkpt>
      <trkpt lat="47.52197" lon="6.68359">
        <ele>359</ele>
        <time>2015-05-08T09:50:26.000Z</time>
      </trkpt>
      <trkpt lat="47.52198" lon="6.68365">
        <ele>359</ele>
        <time>2015-05-08T09:50:27.000Z</time>
      </trkpt>
      <trkpt lat="47.52199" lon="6.68372">
        <ele>359</ele>
        <time>2015-05-08T09:50:28.000Z</time>
      </trkpt>
      <trkpt lat="47.522" lon="6.6838">
        <ele>359</ele>
        <time>2015-05-08T09:50:29.000Z</time>
      </trkpt>
      <trkpt lat="47.52202" lon="6.68387">
        <ele>359</ele>
        <time>2015-05-08T09:50:30.000Z</time>
      </trkpt>
      <trkpt lat="47.52203" lon="6.68394">
        <ele>359</ele>
        <time>2015-05-08T09:50:31.000Z</time>
      </trkpt>
      <trkpt lat="47.52204" lon="6.68401">
        <ele>359</ele>
        <time>2015-05-08T09:50:32.000Z</time>
      </trkpt>
      <trkpt lat="47.52205" lon="6.6841">
        <ele>359</ele>
        <time>2015-05-08T09:50:33.000Z</time>
      </trkpt>
      <trkpt lat="47.52207" lon="6.68418">
        <ele>358</ele>
        <time>2015-05-08T09:50:34.000Z</time>
      </trkpt>
      <trkpt lat="47.52208" lon="6.68426">
        <ele>358</ele>
        <time>2015-05-08T09:50:35.000Z</time>
      </trkpt>
      <trkpt lat="47.5221" lon="6.68435">
        <ele>359</ele>
        <time>2015-05-08T09:50:36.000Z</time>
      </trkpt>
      <trkpt lat="47.52211" lon="6.68443">
        <ele>359</ele>
        <time>2015-05-08T09:50:37.000Z</time>
      </trkpt>
      <trkpt lat="47.52213" lon="6.68452">
        <ele>359</ele>
        <time>2015-05-08T09:50:38.000Z</time>
      </trkpt>
      <trkpt lat="47.52215" lon="6.68462">
        <ele>359</ele>
        <time>2015-05-08T09:50:39.000Z</time>
      </trkpt>
      <trkpt lat="47.52217" lon="6.6847">
        <ele>359</ele>
        <time>2015-05-08T09:50:40.000Z</time>
      </trkpt>
      <trkpt lat="47.52219" lon="6.68478">
        <ele>359</ele>
        <time>2015-05-08T09:50:41.000Z</time>
      </trkpt>
      <trkpt lat="47.5222" lon="6.68485">
        <ele>359</ele>
        <time>2015-05-08T09:50:42.000Z</time>
      </trkpt>
      <trkpt lat="47.52222" lon="6.68493">
        <ele>359</ele>
        <time>2015-05-08T09:50:43.000Z</time>
      </trkpt>
      <trkpt lat="47.52225" lon="6.685">
        <ele>359</ele>
        <time>2015-05-08T09:50:44.000Z</time>
      </trkpt>
      <trkpt lat="47.52226" lon="6.68506">
        <ele>360</ele>
        <time>2015-05-08T09:50:45.000Z</time>
      </trkpt>
      <trkpt lat="47.52228" lon="6.68512">
        <ele>360</ele>
        <time>2015-05-08T09:50:46.000Z</time>
      </trkpt>
      <trkpt lat="47.5223" lon="6.68518">
        <ele>360</ele>
        <time>2015-05-08T09:50:47.000Z</time>
      </trkpt>
      <trkpt lat="47.52232" lon="6.68524">
        <ele>360</ele>
        <time>2015-05-08T09:50:48.000Z</time>
      </trkpt>
      <trkpt lat="47.52235" lon="6.68531">
        <ele>360</ele>
        <time>2015-05-08T09:50:49.000Z</time>
      </trkpt>
      <trkpt lat="47.52237" lon="6.68537">
        <ele>360</ele>
        <time>2015-05-08T09:50:50.000Z</time>
      </trkpt>
      <trkpt lat="47.5224" lon="6.68542">
        <ele>360</ele>
        <time>2015-05-08T09:50:51.000Z</time>
      </trkpt>
      <trkpt lat="47.52243" lon="6.68548">
        <ele>361</ele>
        <time>2015-05-08T09:50:52.000Z</time>
      </trkpt>
      <trkpt lat="47.52246" lon="6.68554">
        <ele>361</ele>
        <time>2015-05-08T09:50:53.000Z</time>
      </trkpt>
      <trkpt lat="47.52249" lon="6.68558">
        <ele>361</ele>
        <time>2015-05-08T09:50:54.000Z</time>
      </trkpt>
      <trkpt lat="47.52253" lon="6.68562">
        <ele>364</ele>
        <time>2015-05-08T09:50:55.000Z</time>
      </trkpt>
      <trkpt lat="47.52257" lon="6.68566">
        <ele>364</ele>
        <time>2015-05-08T09:50:56.000Z</time>
      </trkpt>
      <trkpt lat="47.5226" lon="6.68569">
        <ele>364</ele>
        <time>2015-05-08T09:50:57.000Z</time>
      </trkpt>
      <trkpt lat="47.52265" lon="6.68568">
        <ele>364</ele>
        <time>2015-05-08T09:50:58.000Z</time>
      </trkpt>
      <trkpt lat="47.52268" lon="6.68571">
        <ele>365</ele>
        <time>2015-05-08T09:50:59.000Z</time>
      </trkpt>
      <trkpt lat="47.52271" lon="6.68572">
        <ele>365</ele>
        <time>2015-05-08T09:51:00.000Z</time>
      </trkpt>
      <trkpt lat="47.52273" lon="6.68573">
        <ele>365</ele>
        <time>2015-05-08T09:51:01.000Z</time>
      </trkpt>
      <trkpt lat="47.52276" lon="6.68573">
        <ele>365</ele>
        <time>2015-05-08T09:51:02.000Z</time>
      </trkpt>
      <trkpt lat="47.52279" lon="6.68572">
        <ele>365</ele>
        <time>2015-05-08T09:51:03.000Z</time>
      </trkpt>
      <trkpt lat="47.52283" lon="6.68572">
        <ele>366</ele>
        <time>2015-05-08T09:51:04.000Z</time>
      </trkpt>
      <trkpt lat="47.52286" lon="6.68572">
        <ele>366</ele>
        <time>2015-05-08T09:51:05.000Z</time>
      </trkpt>
      <trkpt lat="47.52288" lon="6.68571">
        <ele>366</ele>
        <time>2015-05-08T09:51:06.000Z</time>
      </trkpt>
      <trkpt lat="47.52292" lon="6.68571">
        <ele>366</ele>
        <time>2015-05-08T09:51:08.000Z</time>
      </trkpt>
      <trkpt lat="47.52294" lon="6.68573">
        <ele>366</ele>
        <time>2015-05-08T09:51:09.000Z</time>
      </trkpt>
      <trkpt lat="47.52297" lon="6.68576">
        <ele>367</ele>
        <time>2015-05-08T09:51:11.000Z</time>
      </trkpt>
      <trkpt lat="47.52298" lon="6.68577">
        <ele>367</ele>
        <time>2015-05-08T09:51:12.000Z</time>
      </trkpt>
      <trkpt lat="47.52301" lon="6.68576">
        <ele>367</ele>
        <time>2015-05-08T09:51:14.000Z</time>
      </trkpt>
      <trkpt lat="47.52303" lon="6.68576">
        <ele>367</ele>
        <time>2015-05-08T09:51:15.000Z</time>
      </trkpt>
      <trkpt lat="47.52307" lon="6.68575">
        <ele>367</ele>
        <time>2015-05-08T09:51:17.000Z</time>
      </trkpt>
      <trkpt lat="47.5231" lon="6.68575">
        <ele>368</ele>
        <time>2015-05-08T09:51:18.000Z</time>
      </trkpt>
      <trkpt lat="47.52313" lon="6.68574">
        <ele>368</ele>
        <time>2015-05-08T09:51:19.000Z</time>
      </trkpt>
      <trkpt lat="47.52316" lon="6.68574">
        <ele>368</ele>
        <time>2015-05-08T09:51:20.000Z</time>
      </trkpt>
      <trkpt lat="47.52319" lon="6.68574">
        <ele>369</ele>
        <time>2015-05-08T09:51:21.000Z</time>
      </trkpt>
      <trkpt lat="47.52321" lon="6.68573">
        <ele>369</ele>
        <time>2015-05-08T09:51:22.000Z</time>
      </trkpt>
      <trkpt lat="47.52324" lon="6.68573">
        <ele>369</ele>
        <time>2015-05-08T09:51:23.000Z</time>
      </trkpt>
      <trkpt lat="47.52327" lon="6.68572">
        <ele>369</ele>
        <time>2015-05-08T09:51:24.000Z</time>
      </trkpt>
      <trkpt lat="47.52329" lon="6.68572">
        <ele>369</ele>
        <time>2015-05-08T09:51:25.000Z</time>
      </trkpt>
      <trkpt lat="47.52332" lon="6.68571">
        <ele>370</ele>
        <time>2015-05-08T09:51:26.000Z</time>
      </trkpt>
      <trkpt lat="47.52334" lon="6.68571">
        <ele>372</ele>
        <time>2015-05-08T09:51:27.000Z</time>
      </trkpt>
      <trkpt lat="47.52336" lon="6.68571">
        <ele>372</ele>
        <time>2015-05-08T09:51:28.000Z</time>
      </trkpt>
      <trkpt lat="47.5234" lon="6.68571">
        <ele>372</ele>
        <time>2015-05-08T09:51:30.000Z</time>
      </trkpt>
      <trkpt lat="47.52342" lon="6.68571">
        <ele>372</ele>
        <time>2015-05-08T09:51:31.000Z</time>
      </trkpt>
      <trkpt lat="47.52346" lon="6.68572">
        <ele>372</ele>
        <time>2015-05-08T09:51:33.000Z</time>
      </trkpt>
      <trkpt lat="47.52348" lon="6.68573">
        <ele>372</ele>
        <time>2015-05-08T09:51:34.000Z</time>
      </trkpt>
      <trkpt lat="47.52351" lon="6.68574">
        <ele>372</ele>
        <time>2015-05-08T09:51:35.000Z</time>
      </trkpt>
      <trkpt lat="47.52354" lon="6.68576">
        <ele>372</ele>
        <time>2015-05-08T09:51:36.000Z</time>
      </trkpt>
      <trkpt lat="47.52356" lon="6.68579">
        <ele>372</ele>
        <time>2015-05-08T09:51:37.000Z</time>
      </trkpt>
      <trkpt lat="47.52358" lon="6.68581">
        <ele>372</ele>
        <time>2015-05-08T09:51:38.000Z</time>
      </trkpt>
      <trkpt lat="47.5236" lon="6.68583">
        <ele>372</ele>
        <time>2015-05-08T09:51:39.000Z</time>
      </trkpt>
      <trkpt lat="47.52361" lon="6.68586">
        <ele>372</ele>
        <time>2015-05-08T09:51:40.000Z</time>
      </trkpt>
      <trkpt lat="47.52363" lon="6.68588">
        <ele>372</ele>
        <time>2015-05-08T09:51:41.000Z</time>
      </trkpt>
      <trkpt lat="47.52365" lon="6.68591">
        <ele>373</ele>
        <time>2015-05-08T09:51:42.000Z</time>
      </trkpt>
      <trkpt lat="47.52365" lon="6.68595">
        <ele>373</ele>
        <time>2015-05-08T09:51:43.000Z</time>
      </trkpt>
      <trkpt lat="47.52365" lon="6.68598">
        <ele>372</ele>
        <time>2015-05-08T09:51:44.000Z</time>
      </trkpt>
      <trkpt lat="47.52363" lon="6.68604">
        <ele>372</ele>
        <time>2015-05-08T09:51:46.000Z</time>
      </trkpt>
      <trkpt lat="47.52362" lon="6.68606">
        <ele>372</ele>
        <time>2015-05-08T09:51:47.000Z</time>
      </trkpt>
      <trkpt lat="47.52362" lon="6.6861">
        <ele>372</ele>
        <time>2015-05-08T09:51:48.000Z</time>
      </trkpt>
      <trkpt lat="47.52361" lon="6.68614">
        <ele>372</ele>
        <time>2015-05-08T09:51:49.000Z</time>
      </trkpt>
      <trkpt lat="47.52359" lon="6.68619">
        <ele>372</ele>
        <time>2015-05-08T09:51:51.000Z</time>
      </trkpt>
      <trkpt lat="47.52357" lon="6.68623">
        <ele>372</ele>
        <time>2015-05-08T09:51:52.000Z</time>
      </trkpt>
      <trkpt lat="47.52356" lon="6.68626">
        <ele>372</ele>
        <time>2015-05-08T09:51:53.000Z</time>
      </trkpt>
      <trkpt lat="47.52354" lon="6.68631">
        <ele>372</ele>
        <time>2015-05-08T09:51:54.000Z</time>
      </trkpt>
      <trkpt lat="47.52352" lon="6.68635">
        <ele>372</ele>
        <time>2015-05-08T09:51:55.000Z</time>
      </trkpt>
      <trkpt lat="47.5235" lon="6.68639">
        <ele>372</ele>
        <time>2015-05-08T09:51:56.000Z</time>
      </trkpt>
      <trkpt lat="47.52349" lon="6.68643">
        <ele>372</ele>
        <time>2015-05-08T09:51:57.000Z</time>
      </trkpt>
      <trkpt lat="47.52348" lon="6.68647">
        <ele>372</ele>
        <time>2015-05-08T09:51:58.000Z</time>
      </trkpt>
      <trkpt lat="47.52346" lon="6.68652">
        <ele>372</ele>
        <time>2015-05-08T09:51:59.000Z</time>
      </trkpt>
      <trkpt lat="47.52345" lon="6.68657">
        <ele>372</ele>
        <time>2015-05-08T09:52:00.000Z</time>
      </trkpt>
      <trkpt lat="47.52343" lon="6.68663">
        <ele>372</ele>
        <time>2015-05-08T09:52:01.000Z</time>
      </trkpt>
      <trkpt lat="47.52342" lon="6.68668">
        <ele>371</ele>
        <time>2015-05-08T09:52:02.000Z</time>
      </trkpt>
      <trkpt lat="47.52342" lon="6.68675">
        <ele>371</ele>
        <time>2015-05-08T09:52:03.000Z</time>
      </trkpt>
      <trkpt lat="47.52342" lon="6.68681">
        <ele>371</ele>
        <time>2015-05-08T09:52:04.000Z</time>
      </trkpt>
      <trkpt lat="47.52343" lon="6.68687">
        <ele>371</ele>
        <time>2015-05-08T09:52:05.000Z</time>
      </trkpt>
      <trkpt lat="47.52345" lon="6.68693">
        <ele>371</ele>
        <time>2015-05-08T09:52:06.000Z</time>
      </trkpt>
      <trkpt lat="47.52346" lon="6.68699">
        <ele>371</ele>
        <time>2015-05-08T09:52:07.000Z</time>
      </trkpt>
      <trkpt lat="47.52349" lon="6.68705">
        <ele>371</ele>
        <time>2015-05-08T09:52:08.000Z</time>
      </trkpt>
      <trkpt lat="47.52351" lon="6.68711">
        <ele>371</ele>
        <time>2015-05-08T09:52:09.000Z</time>
      </trkpt>
      <trkpt lat="47.52353" lon="6.68716">
        <ele>371</ele>
        <time>2015-05-08T09:52:10.000Z</time>
      </trkpt>
      <trkpt lat="47.52356" lon="6.68722">
        <ele>371</ele>
        <time>2015-05-08T09:52:11.000Z</time>
      </trkpt>
      <trkpt lat="47.52358" lon="6.68727">
        <ele>371</ele>
        <time>2015-05-08T09:52:12.000Z</time>
      </trkpt>
      <trkpt lat="47.52361" lon="6.68732">
        <ele>371</ele>
        <time>2015-05-08T09:52:13.000Z</time>
      </trkpt>
      <trkpt lat="47.52362" lon="6.68738">
        <ele>371</ele>
        <time>2015-05-08T09:52:14.000Z</time>
      </trkpt>
      <trkpt lat="47.52365" lon="6.68746">
        <ele>371</ele>
        <time>2015-05-08T09:52:15.000Z</time>
      </trkpt>
      <trkpt lat="47.52367" lon="6.68752">
        <ele>371</ele>
        <time>2015-05-08T09:52:16.000Z</time>
      </trkpt>
      <trkpt lat="47.52369" lon="6.68759">
        <ele>371</ele>
        <time>2015-05-08T09:52:17.000Z</time>
      </trkpt>
      <trkpt lat="47.52371" lon="6.68765">
        <ele>371</ele>
        <time>2015-05-08T09:52:18.000Z</time>
      </trkpt>
      <trkpt lat="47.52372" lon="6.68772">
        <ele>371</ele>
        <time>2015-05-08T09:52:19.000Z</time>
      </trkpt>
      <trkpt lat="47.52374" lon="6.68778">
        <ele>371</ele>
        <time>2015-05-08T09:52:20.000Z</time>
      </trkpt>
      <trkpt lat="47.52376" lon="6.68784">
        <ele>371</ele>
        <time>2015-05-08T09:52:21.000Z</time>
      </trkpt>
      <trkpt lat="47.52378" lon="6.68791">
        <ele>371</ele>
        <time>2015-05-08T09:52:22.000Z</time>
      </trkpt>
      <trkpt lat="47.52381" lon="6.68797">
        <ele>371</ele>
        <time>2015-05-08T09:52:23.000Z</time>
      </trkpt>
      <trkpt lat="47.52383" lon="6.68804">
        <ele>371</ele>
        <time>2015-05-08T09:52:24.000Z</time>
      </trkpt>
      <trkpt lat="47.52385" lon="6.68811">
        <ele>371</ele>
        <time>2015-05-08T09:52:25.000Z</time>
      </trkpt>
      <trkpt lat="47.52388" lon="6.68817">
        <ele>371</ele>
        <time>2015-05-08T09:52:26.000Z</time>
      </trkpt>
      <trkpt lat="47.52392" lon="6.68825">
        <ele>371</ele>
        <time>2015-05-08T09:52:27.000Z</time>
      </trkpt>
      <trkpt lat="47.52396" lon="6.68832">
        <ele>370</ele>
        <time>2015-05-08T09:52:28.000Z</time>
      </trkpt>
      <trkpt lat="47.524" lon="6.68838">
        <ele>370</ele>
        <time>2015-05-08T09:52:29.000Z</time>
      </trkpt>
      <trkpt lat="47.52404" lon="6.68845">
        <ele>370</ele>
        <time>2015-05-08T09:52:30.000Z</time>
      </trkpt>
      <trkpt lat="47.52407" lon="6.68854">
        <ele>370</ele>
        <time>2015-05-08T09:52:31.000Z</time>
      </trkpt>
      <trkpt lat="47.52412" lon="6.68862">
        <ele>369</ele>
        <time>2015-05-08T09:52:32.000Z</time>
      </trkpt>
      <trkpt lat="47.52415" lon="6.68869">
        <ele>369</ele>
        <time>2015-05-08T09:52:33.000Z</time>
      </trkpt>
      <trkpt lat="47.52418" lon="6.68876">
        <ele>368</ele>
        <time>2015-05-08T09:52:34.000Z</time>
      </trkpt>
      <trkpt lat="47.52423" lon="6.68883">
        <ele>368</ele>
        <time>2015-05-08T09:52:35.000Z</time>
      </trkpt>
      <trkpt lat="47.52427" lon="6.6889">
        <ele>368</ele>
        <time>2015-05-08T09:52:36.000Z</time>
      </trkpt>
      <trkpt lat="47.52431" lon="6.68897">
        <ele>368</ele>
        <time>2015-05-08T09:52:37.000Z</time>
      </trkpt>
      <trkpt lat="47.52436" lon="6.68904">
        <ele>368</ele>
        <time>2015-05-08T09:52:38.000Z</time>
      </trkpt>
      <trkpt lat="47.5244" lon="6.68912">
        <ele>368</ele>
        <time>2015-05-08T09:52:39.000Z</time>
      </trkpt>
      <trkpt lat="47.52444" lon="6.68918">
        <ele>366</ele>
        <time>2015-05-08T09:52:40.000Z</time>
      </trkpt>
      <trkpt lat="47.52448" lon="6.68925">
        <ele>366</ele>
        <time>2015-05-08T09:52:41.000Z</time>
      </trkpt>
      <trkpt lat="47.52452" lon="6.68932">
        <ele>366</ele>
        <time>2015-05-08T09:52:42.000Z</time>
      </trkpt>
      <trkpt lat="47.52457" lon="6.6894">
        <ele>366</ele>
        <time>2015-05-08T09:52:43.000Z</time>
      </trkpt>
      <trkpt lat="47.52463" lon="6.68947">
        <ele>365</ele>
        <time>2015-05-08T09:52:44.000Z</time>
      </trkpt>
      <trkpt lat="47.52469" lon="6.68956">
        <ele>365</ele>
        <time>2015-05-08T09:52:45.000Z</time>
      </trkpt>
      <trkpt lat="47.52473" lon="6.68962">
        <ele>365</ele>
        <time>2015-05-08T09:52:45.998Z</time>
      </trkpt>
      <trkpt lat="47.52479" lon="6.68971">
        <ele>365</ele>
        <time>2015-05-08T09:52:47.000Z</time>
      </trkpt>
      <trkpt lat="47.52485" lon="6.68978">
        <ele>364</ele>
        <time>2015-05-08T09:52:48.000Z</time>
      </trkpt>
      <trkpt lat="47.5249" lon="6.68984">
        <ele>364</ele>
        <time>2015-05-08T09:52:49.000Z</time>
      </trkpt>
      <trkpt lat="47.52495" lon="6.6899">
        <ele>364</ele>
        <time>2015-05-08T09:52:50.000Z</time>
      </trkpt>
      <trkpt lat="47.525" lon="6.68996">
        <ele>363</ele>
        <time>2015-05-08T09:52:51.000Z</time>
      </trkpt>
      <trkpt lat="47.52506" lon="6.69003">
        <ele>363</ele>
        <time>2015-05-08T09:52:52.000Z</time>
      </trkpt>
      <trkpt lat="47.52511" lon="6.6901">
        <ele>362</ele>
        <time>2015-05-08T09:52:53.000Z</time>
      </trkpt>
      <trkpt lat="47.52516" lon="6.69016">
        <ele>362</ele>
        <time>2015-05-08T09:52:54.000Z</time>
      </trkpt>
      <trkpt lat="47.52522" lon="6.69024">
        <ele>362</ele>
        <time>2015-05-08T09:52:55.000Z</time>
      </trkpt>
      <trkpt lat="47.52527" lon="6.69033">
        <ele>361</ele>
        <time>2015-05-08T09:52:56.000Z</time>
      </trkpt>
      <trkpt lat="47.52533" lon="6.69042">
        <ele>361</ele>
        <time>2015-05-08T09:52:57.000Z</time>
      </trkpt>
      <trkpt lat="47.52539" lon="6.6905">
        <ele>361</ele>
        <time>2015-05-08T09:52:58.000Z</time>
      </trkpt>
      <trkpt lat="47.52544" lon="6.69058">
        <ele>361</ele>
        <time>2015-05-08T09:52:59.000Z</time>
      </trkpt>
      <trkpt lat="47.5255" lon="6.69067">
        <ele>361</ele>
        <time>2015-05-08T09:53:00.000Z</time>
      </trkpt>
      <trkpt lat="47.52556" lon="6.69075">
        <ele>360</ele>
        <time>2015-05-08T09:53:01.000Z</time>
      </trkpt>
      <trkpt lat="47.5256" lon="6.69086">
        <ele>359</ele>
        <time>2015-05-08T09:53:02.000Z</time>
      </trkpt>
      <trkpt lat="47.52565" lon="6.69095">
        <ele>359</ele>
        <time>2015-05-08T09:53:03.000Z</time>
      </trkpt>
      <trkpt lat="47.52568" lon="6.69106">
        <ele>358</ele>
        <time>2015-05-08T09:53:04.000Z</time>
      </trkpt>
      <trkpt lat="47.52571" lon="6.69118">
        <ele>358</ele>
        <time>2015-05-08T09:53:05.000Z</time>
      </trkpt>
      <trkpt lat="47.52574" lon="6.69128">
        <ele>358</ele>
        <time>2015-05-08T09:53:06.000Z</time>
      </trkpt>
      <trkpt lat="47.52576" lon="6.69139">
        <ele>358</ele>
        <time>2015-05-08T09:53:07.000Z</time>
      </trkpt>
      <trkpt lat="47.52578" lon="6.69151">
        <ele>357</ele>
        <time>2015-05-08T09:53:08.000Z</time>
      </trkpt>
      <trkpt lat="47.5258" lon="6.69161">
        <ele>357</ele>
        <time>2015-05-08T09:53:09.000Z</time>
      </trkpt>
      <trkpt lat="47.52582" lon="6.69172">
        <ele>356</ele>
        <time>2015-05-08T09:53:10.000Z</time>
      </trkpt>
      <trkpt lat="47.52584" lon="6.69182">
        <ele>356</ele>
        <time>2015-05-08T09:53:11.000Z</time>
      </trkpt>
      <trkpt lat="47.52585" lon="6.69193">
        <ele>355</ele>
        <time>2015-05-08T09:53:12.000Z</time>
      </trkpt>
      <trkpt lat="47.52587" lon="6.69202">
        <ele>355</ele>
        <time>2015-05-08T09:53:13.000Z</time>
      </trkpt>
      <trkpt lat="47.52588" lon="6.69212">
        <ele>355</ele>
        <time>2015-05-08T09:53:14.000Z</time>
      </trkpt>
      <trkpt lat="47.52589" lon="6.69222">
        <ele>355</ele>
        <time>2015-05-08T09:53:15.000Z</time>
      </trkpt>
      <trkpt lat="47.5259" lon="6.69232">
        <ele>355</ele>
        <time>2015-05-08T09:53:16.000Z</time>
      </trkpt>
      <trkpt lat="47.52591" lon="6.69242">
        <ele>354</ele>
        <time>2015-05-08T09:53:17.000Z</time>
      </trkpt>
      <trkpt lat="47.52592" lon="6.69251">
        <ele>353</ele>
        <time>2015-05-08T09:53:18.000Z</time>
      </trkpt>
      <trkpt lat="47.52593" lon="6.69261">
        <ele>353</ele>
        <time>2015-05-08T09:53:19.000Z</time>
      </trkpt>
      <trkpt lat="47.52595" lon="6.69271">
        <ele>353</ele>
        <time>2015-05-08T09:53:20.000Z</time>
      </trkpt>
      <trkpt lat="47.52596" lon="6.69281">
        <ele>353</ele>
        <time>2015-05-08T09:53:21.000Z</time>
      </trkpt>
      <trkpt lat="47.52597" lon="6.69291">
        <ele>352</ele>
        <time>2015-05-08T09:53:22.000Z</time>
      </trkpt>
      <trkpt lat="47.52597" lon="6.69302">
        <ele>352</ele>
        <time>2015-05-08T09:53:23.000Z</time>
      </trkpt>
      <trkpt lat="47.52597" lon="6.69313">
        <ele>352</ele>
        <time>2015-05-08T09:53:24.000Z</time>
      </trkpt>
      <trkpt lat="47.52596" lon="6.69324">
        <ele>352</ele>
        <time>2015-05-08T09:53:25.000Z</time>
      </trkpt>
      <trkpt lat="47.52595" lon="6.69336">
        <ele>350</ele>
        <time>2015-05-08T09:53:26.000Z</time>
      </trkpt>
      <trkpt lat="47.52593" lon="6.69347">
        <ele>350</ele>
        <time>2015-05-08T09:53:27.000Z</time>
      </trkpt>
      <trkpt lat="47.52592" lon="6.69357">
        <ele>350</ele>
        <time>2015-05-08T09:53:28.000Z</time>
      </trkpt>
      <trkpt lat="47.52591" lon="6.69368">
        <ele>350</ele>
        <time>2015-05-08T09:53:29.000Z</time>
      </trkpt>
      <trkpt lat="47.52591" lon="6.69378">
        <ele>349</ele>
        <time>2015-05-08T09:53:30.000Z</time>
      </trkpt>
      <trkpt lat="47.52591" lon="6.6939">
        <ele>349</ele>
        <time>2015-05-08T09:53:31.000Z</time>
      </trkpt>
      <trkpt lat="47.52592" lon="6.69402">
        <ele>349</ele>
        <time>2015-05-08T09:53:32.000Z</time>
      </trkpt>
      <trkpt lat="47.52593" lon="6.69414">
        <ele>348</ele>
        <time>2015-05-08T09:53:33.000Z</time>
      </trkpt>
      <trkpt lat="47.52593" lon="6.69424">
        <ele>348</ele>
        <time>2015-05-08T09:53:34.000Z</time>
      </trkpt>
      <trkpt lat="47.52595" lon="6.69435">
        <ele>347</ele>
        <time>2015-05-08T09:53:35.000Z</time>
      </trkpt>
      <trkpt lat="47.52596" lon="6.69445">
        <ele>347</ele>
        <time>2015-05-08T09:53:36.000Z</time>
      </trkpt>
      <trkpt lat="47.52597" lon="6.69454">
        <ele>347</ele>
        <time>2015-05-08T09:53:37.000Z</time>
      </trkpt>
      <trkpt lat="47.52597" lon="6.69461">
        <ele>347</ele>
        <time>2015-05-08T09:53:38.000Z</time>
      </trkpt>
      <trkpt lat="47.52597" lon="6.69463">
        <ele>347</ele>
        <time>2015-05-08T09:53:39.000Z</time>
      </trkpt>
      <trkpt lat="47.52599" lon="6.69467">
        <ele>347</ele>
        <time>2015-05-08T09:53:40.000Z</time>
      </trkpt>
      <trkpt lat="47.52601" lon="6.6947">
        <ele>347</ele>
        <time>2015-05-08T09:53:41.000Z</time>
      </trkpt>
      <trkpt lat="47.52603" lon="6.69472">
        <ele>347</ele>
        <time>2015-05-08T09:53:42.000Z</time>
      </trkpt>
      <trkpt lat="47.52607" lon="6.69475">
        <ele>347</ele>
        <time>2015-05-08T09:53:43.000Z</time>
      </trkpt>
      <trkpt lat="47.52612" lon="6.69479">
        <ele>347</ele>
        <time>2015-05-08T09:53:44.000Z</time>
      </trkpt>
      <trkpt lat="47.52617" lon="6.69481">
        <ele>347</ele>
        <time>2015-05-08T09:53:45.000Z</time>
      </trkpt>
      <trkpt lat="47.52621" lon="6.69483">
        <ele>347</ele>
        <time>2015-05-08T09:53:46.000Z</time>
      </trkpt>
      <trkpt lat="47.52626" lon="6.69485">
        <ele>347</ele>
        <time>2015-05-08T09:53:47.000Z</time>
      </trkpt>
      <trkpt lat="47.52628" lon="6.69491">
        <ele>347</ele>
        <time>2015-05-08T09:53:48.000Z</time>
      </trkpt>
      <trkpt lat="47.5263" lon="6.69497">
        <ele>347</ele>
        <time>2015-05-08T09:53:49.000Z</time>
      </trkpt>
      <trkpt lat="47.52628" lon="6.69506">
        <ele>345</ele>
        <time>2015-05-08T09:53:50.000Z</time>
      </trkpt>
      <trkpt lat="47.52627" lon="6.69514">
        <ele>345</ele>
        <time>2015-05-08T09:53:51.000Z</time>
      </trkpt>
      <trkpt lat="47.52625" lon="6.69521">
        <ele>345</ele>
        <time>2015-05-08T09:53:52.000Z</time>
      </trkpt>
      <trkpt lat="47.52625" lon="6.69529">
        <ele>345</ele>
        <time>2015-05-08T09:53:53.000Z</time>
      </trkpt>
      <trkpt lat="47.52626" lon="6.69537">
        <ele>345</ele>
        <time>2015-05-08T09:53:54.000Z</time>
      </trkpt>
      <trkpt lat="47.52622" lon="6.69547">
        <ele>345</ele>
        <time>2015-05-08T09:53:55.000Z</time>
      </trkpt>
      <trkpt lat="47.52621" lon="6.69556">
        <ele>345</ele>
        <time>2015-05-08T09:53:56.000Z</time>
      </trkpt>
      <trkpt lat="47.52621" lon="6.69563">
        <ele>345</ele>
        <time>2015-05-08T09:53:57.000Z</time>
      </trkpt>
      <trkpt lat="47.5262" lon="6.69571">
        <ele>345</ele>
        <time>2015-05-08T09:53:58.000Z</time>
      </trkpt>
      <trkpt lat="47.5262" lon="6.69581">
        <ele>345</ele>
        <time>2015-05-08T09:53:59.000Z</time>
      </trkpt>
      <trkpt lat="47.52619" lon="6.6959">
        <ele>345</ele>
        <time>2015-05-08T09:54:00.000Z</time>
      </trkpt>
      <trkpt lat="47.52619" lon="6.69599">
        <ele>345</ele>
        <time>2015-05-08T09:54:01.000Z</time>
      </trkpt>
      <trkpt lat="47.5262" lon="6.69607">
        <ele>345</ele>
        <time>2015-05-08T09:54:02.000Z</time>
      </trkpt>
      <trkpt lat="47.5262" lon="6.69614">
        <ele>346</ele>
        <time>2015-05-08T09:54:03.000Z</time>
      </trkpt>
      <trkpt lat="47.52622" lon="6.69622">
        <ele>346</ele>
        <time>2015-05-08T09:54:04.000Z</time>
      </trkpt>
      <trkpt lat="47.52624" lon="6.69629">
        <ele>346</ele>
        <time>2015-05-08T09:54:05.000Z</time>
      </trkpt>
      <trkpt lat="47.52623" lon="6.69638">
        <ele>346</ele>
        <time>2015-05-08T09:54:06.000Z</time>
      </trkpt>
      <trkpt lat="47.52622" lon="6.69644">
        <ele>346</ele>
        <time>2015-05-08T09:54:07.000Z</time>
      </trkpt>
      <trkpt lat="47.52622" lon="6.69652">
        <ele>346</ele>
        <time>2015-05-08T09:54:08.000Z</time>
      </trkpt>
      <trkpt lat="47.5262" lon="6.69659">
        <ele>346</ele>
        <time>2015-05-08T09:54:09.000Z</time>
      </trkpt>
      <trkpt lat="47.52619" lon="6.69666">
        <ele>346</ele>
        <time>2015-05-08T09:54:10.000Z</time>
      </trkpt>
      <trkpt lat="47.52618" lon="6.69674">
        <ele>349</ele>
        <time>2015-05-08T09:54:11.000Z</time>
      </trkpt>
      <trkpt lat="47.52617" lon="6.6968">
        <ele>349</ele>
        <time>2015-05-08T09:54:12.000Z</time>
      </trkpt>
      <trkpt lat="47.52616" lon="6.69686">
        <ele>349</ele>
        <time>2015-05-08T09:54:13.000Z</time>
      </trkpt>
      <trkpt lat="47.52612" lon="6.69693">
        <ele>349</ele>
        <time>2015-05-08T09:54:14.000Z</time>
      </trkpt>
      <trkpt lat="47.5261" lon="6.697">
        <ele>349</ele>
        <time>2015-05-08T09:54:15.000Z</time>
      </trkpt>
      <trkpt lat="47.52605" lon="6.69705">
        <ele>350</ele>
        <time>2015-05-08T09:54:16.000Z</time>
      </trkpt>
      <trkpt lat="47.526" lon="6.6971">
        <ele>350</ele>
        <time>2015-05-08T09:54:17.000Z</time>
      </trkpt>
      <trkpt lat="47.52595" lon="6.69712">
        <ele>350</ele>
        <time>2015-05-08T09:54:18.000Z</time>
      </trkpt>
      <trkpt lat="47.52589" lon="6.69714">
        <ele>350</ele>
        <time>2015-05-08T09:54:19.000Z</time>
      </trkpt>
      <trkpt lat="47.52583" lon="6.69714">
        <ele>350</ele>
        <time>2015-05-08T09:54:20.000Z</time>
      </trkpt>
      <trkpt lat="47.52578" lon="6.69713">
        <ele>351</ele>
        <time>2015-05-08T09:54:21.000Z</time>
      </trkpt>
      <trkpt lat="47.52572" lon="6.6971">
        <ele>351</ele>
        <time>2015-05-08T09:54:22.000Z</time>
      </trkpt>
      <trkpt lat="47.52566" lon="6.69709">
        <ele>351</ele>
        <time>2015-05-08T09:54:23.000Z</time>
      </trkpt>
      <trkpt lat="47.5256" lon="6.69707">
        <ele>351</ele>
        <time>2015-05-08T09:54:24.000Z</time>
      </trkpt>
      <trkpt lat="47.52554" lon="6.69707">
        <ele>352</ele>
        <time>2015-05-08T09:54:25.000Z</time>
      </trkpt>
      <trkpt lat="47.52548" lon="6.69706">
        <ele>352</ele>
        <time>2015-05-08T09:54:26.000Z</time>
      </trkpt>
      <trkpt lat="47.52544" lon="6.69707">
        <ele>352</ele>
        <time>2015-05-08T09:54:27.000Z</time>
      </trkpt>
      <trkpt lat="47.52537" lon="6.69704">
        <ele>352</ele>
        <time>2015-05-08T09:54:28.000Z</time>
      </trkpt>
      <trkpt lat="47.52532" lon="6.69702">
        <ele>352</ele>
        <time>2015-05-08T09:54:29.000Z</time>
      </trkpt>
      <trkpt lat="47.52527" lon="6.69699">
        <ele>352</ele>
        <time>2015-05-08T09:54:30.000Z</time>
      </trkpt>
      <trkpt lat="47.5252" lon="6.69697">
        <ele>352</ele>
        <time>2015-05-08T09:54:31.000Z</time>
      </trkpt>
      <trkpt lat="47.52515" lon="6.69701">
        <ele>352</ele>
        <time>2015-05-08T09:54:32.000Z</time>
      </trkpt>
      <trkpt lat="47.52508" lon="6.69698">
        <ele>352</ele>
        <time>2015-05-08T09:54:33.000Z</time>
      </trkpt>
      <trkpt lat="47.52502" lon="6.69697">
        <ele>352</ele>
        <time>2015-05-08T09:54:34.000Z</time>
      </trkpt>
      <trkpt lat="47.52496" lon="6.69696">
        <ele>353</ele>
        <time>2015-05-08T09:54:35.000Z</time>
      </trkpt>
      <trkpt lat="47.52489" lon="6.69695">
        <ele>353</ele>
        <time>2015-05-08T09:54:36.000Z</time>
      </trkpt>
      <trkpt lat="47.52482" lon="6.69695">
        <ele>353</ele>
        <time>2015-05-08T09:54:37.000Z</time>
      </trkpt>
      <trkpt lat="47.52476" lon="6.69696">
        <ele>353</ele>
        <time>2015-05-08T09:54:38.000Z</time>
      </trkpt>
      <trkpt lat="47.5247" lon="6.69698">
        <ele>354</ele>
        <time>2015-05-08T09:54:39.000Z</time>
      </trkpt>
      <trkpt lat="47.52464" lon="6.69699">
        <ele>354</ele>
        <time>2015-05-08T09:54:40.000Z</time>
      </trkpt>
      <trkpt lat="47.52458" lon="6.697">
        <ele>354</ele>
        <time>2015-05-08T09:54:41.000Z</time>
      </trkpt>
      <trkpt lat="47.52452" lon="6.69701">
        <ele>354</ele>
        <time>2015-05-08T09:54:42.000Z</time>
      </trkpt>
      <trkpt lat="47.52446" lon="6.69703">
        <ele>354</ele>
        <time>2015-05-08T09:54:43.000Z</time>
      </trkpt>
      <trkpt lat="47.52439" lon="6.69705">
        <ele>354</ele>
        <time>2015-05-08T09:54:44.000Z</time>
      </trkpt>
      <trkpt lat="47.52433" lon="6.69707">
        <ele>354</ele>
        <time>2015-05-08T09:54:45.000Z</time>
      </trkpt>
      <trkpt lat="47.52427" lon="6.69708">
        <ele>354</ele>
        <time>2015-05-08T09:54:46.000Z</time>
      </trkpt>
      <trkpt lat="47.52421" lon="6.69709">
        <ele>355</ele>
        <time>2015-05-08T09:54:47.000Z</time>
      </trkpt>
      <trkpt lat="47.52415" lon="6.69708">
        <ele>354</ele>
        <time>2015-05-08T09:54:48.000Z</time>
      </trkpt>
      <trkpt lat="47.5241" lon="6.69712">
        <ele>354</ele>
        <time>2015-05-08T09:54:49.000Z</time>
      </trkpt>
      <trkpt lat="47.52405" lon="6.69715">
        <ele>355</ele>
        <time>2015-05-08T09:54:50.000Z</time>
      </trkpt>
      <trkpt lat="47.524" lon="6.69718">
        <ele>355</ele>
        <time>2015-05-08T09:54:51.000Z</time>
      </trkpt>
      <trkpt lat="47.52394" lon="6.69718">
        <ele>355</ele>
        <time>2015-05-08T09:54:52.000Z</time>
      </trkpt>
      <trkpt lat="47.52389" lon="6.6972">
        <ele>355</ele>
        <time>2015-05-08T09:54:53.000Z</time>
      </trkpt>
      <trkpt lat="47.52383" lon="6.69723">
        <ele>355</ele>
        <time>2015-05-08T09:54:54.000Z</time>
      </trkpt>
      <trkpt lat="47.52378" lon="6.69726">
        <ele>355</ele>
        <time>2015-05-08T09:54:55.000Z</time>
      </trkpt>
      <trkpt lat="47.52372" lon="6.6973">
        <ele>355</ele>
        <time>2015-05-08T09:54:56.000Z</time>
      </trkpt>
      <trkpt lat="47.52368" lon="6.69735">
        <ele>355</ele>
        <time>2015-05-08T09:54:57.000Z</time>
      </trkpt>
      <trkpt lat="47.52364" lon="6.69739">
        <ele>356</ele>
        <time>2015-05-08T09:54:58.000Z</time>
      </trkpt>
      <trkpt lat="47.52361" lon="6.69745">
        <ele>356</ele>
        <time>2015-05-08T09:54:59.000Z</time>
      </trkpt>
      <trkpt lat="47.52356" lon="6.69748">
        <ele>356</ele>
        <time>2015-05-08T09:55:00.000Z</time>
      </trkpt>
      <trkpt lat="47.52351" lon="6.69753">
        <ele>360</ele>
        <time>2015-05-08T09:55:01.000Z</time>
      </trkpt>
      <trkpt lat="47.52347" lon="6.69757">
        <ele>360</ele>
        <time>2015-05-08T09:55:02.000Z</time>
      </trkpt>
      <trkpt lat="47.52343" lon="6.69762">
        <ele>360</ele>
        <time>2015-05-08T09:55:03.000Z</time>
      </trkpt>
      <trkpt lat="47.52339" lon="6.69768">
        <ele>360</ele>
        <time>2015-05-08T09:55:04.000Z</time>
      </trkpt>
      <trkpt lat="47.52335" lon="6.69774">
        <ele>360</ele>
        <time>2015-05-08T09:55:05.000Z</time>
      </trkpt>
      <trkpt lat="47.52332" lon="6.69777">
        <ele>357</ele>
        <time>2015-05-08T09:55:06.000Z</time>
      </trkpt>
      <trkpt lat="47.52328" lon="6.69781">
        <ele>357</ele>
        <time>2015-05-08T09:55:07.000Z</time>
      </trkpt>
      <trkpt lat="47.52324" lon="6.69786">
        <ele>357</ele>
        <time>2015-05-08T09:55:08.000Z</time>
      </trkpt>
      <trkpt lat="47.52322" lon="6.69792">
        <ele>357</ele>
        <time>2015-05-08T09:55:09.000Z</time>
      </trkpt>
      <trkpt lat="47.52317" lon="6.69798">
        <ele>357</ele>
        <time>2015-05-08T09:55:10.000Z</time>
      </trkpt>
      <trkpt lat="47.52313" lon="6.69804">
        <ele>357</ele>
        <time>2015-05-08T09:55:11.000Z</time>
      </trkpt>
      <trkpt lat="47.5231" lon="6.69811">
        <ele>357</ele>
        <time>2015-05-08T09:55:12.000Z</time>
      </trkpt>
      <trkpt lat="47.52306" lon="6.69818">
        <ele>357</ele>
        <time>2015-05-08T09:55:13.000Z</time>
      </trkpt>
      <trkpt lat="47.52302" lon="6.69826">
        <ele>357</ele>
        <time>2015-05-08T09:55:14.000Z</time>
      </trkpt>
      <trkpt lat="47.52299" lon="6.69834">
        <ele>357</ele>
        <time>2015-05-08T09:55:15.000Z</time>
      </trkpt>
      <trkpt lat="47.52295" lon="6.69841">
        <ele>357</ele>
        <time>2015-05-08T09:55:16.000Z</time>
      </trkpt>
      <trkpt lat="47.52292" lon="6.6985">
        <ele>356</ele>
        <time>2015-05-08T09:55:17.000Z</time>
      </trkpt>
      <trkpt lat="47.52288" lon="6.69858">
        <ele>356</ele>
        <time>2015-05-08T09:55:18.000Z</time>
      </trkpt>
      <trkpt lat="47.52285" lon="6.69869">
        <ele>356</ele>
        <time>2015-05-08T09:55:19.000Z</time>
      </trkpt>
      <trkpt lat="47.5228" lon="6.69877">
        <ele>356</ele>
        <time>2015-05-08T09:55:20.000Z</time>
      </trkpt>
      <trkpt lat="47.52277" lon="6.69885">
        <ele>355</ele>
        <time>2015-05-08T09:55:21.000Z</time>
      </trkpt>
      <trkpt lat="47.52273" lon="6.69895">
        <ele>355</ele>
        <time>2015-05-08T09:55:22.000Z</time>
      </trkpt>
      <trkpt lat="47.52271" lon="6.69904">
        <ele>354</ele>
        <time>2015-05-08T09:55:23.000Z</time>
      </trkpt>
      <trkpt lat="47.52267" lon="6.69914">
        <ele>354</ele>
        <time>2015-05-08T09:55:24.000Z</time>
      </trkpt>
      <trkpt lat="47.52263" lon="6.6992">
        <ele>353</ele>
        <time>2015-05-08T09:55:25.000Z</time>
      </trkpt>
      <trkpt lat="47.5226" lon="6.6993">
        <ele>353</ele>
        <time>2015-05-08T09:55:26.000Z</time>
      </trkpt>
      <trkpt lat="47.52257" lon="6.69942">
        <ele>353</ele>
        <time>2015-05-08T09:55:27.000Z</time>
      </trkpt>
      <trkpt lat="47.52253" lon="6.69951">
        <ele>353</ele>
        <time>2015-05-08T09:55:28.000Z</time>
      </trkpt>
      <trkpt lat="47.52249" lon="6.6996">
        <ele>348</ele>
        <time>2015-05-08T09:55:29.000Z</time>
      </trkpt>
      <trkpt lat="47.52245" lon="6.69971">
        <ele>348</ele>
        <time>2015-05-08T09:55:30.000Z</time>
      </trkpt>
      <trkpt lat="47.52242" lon="6.69981">
        <ele>348</ele>
        <time>2015-05-08T09:55:31.000Z</time>
      </trkpt>
      <trkpt lat="47.52238" lon="6.69992">
        <ele>348</ele>
        <time>2015-05-08T09:55:32.000Z</time>
      </trkpt>
      <trkpt lat="47.52235" lon="6.70002">
        <ele>347</ele>
        <time>2015-05-08T09:55:33.000Z</time>
      </trkpt>
      <trkpt lat="47.52232" lon="6.70011">
        <ele>347</ele>
        <time>2015-05-08T09:55:34.000Z</time>
      </trkpt>
      <trkpt lat="47.52228" lon="6.70021">
        <ele>347</ele>
        <time>2015-05-08T09:55:35.000Z</time>
      </trkpt>
      <trkpt lat="47.52225" lon="6.7003">
        <ele>346</ele>
        <time>2015-05-08T09:55:36.000Z</time>
      </trkpt>
      <trkpt lat="47.52223" lon="6.70037">
        <ele>346</ele>
        <time>2015-05-08T09:55:37.000Z</time>
      </trkpt>
      <trkpt lat="47.52221" lon="6.70047">
        <ele>346</ele>
        <time>2015-05-08T09:55:38.000Z</time>
      </trkpt>
      <trkpt lat="47.52218" lon="6.70059">
        <ele>346</ele>
        <time>2015-05-08T09:55:39.000Z</time>
      </trkpt>
      <trkpt lat="47.52216" lon="6.7007">
        <ele>346</ele>
        <time>2015-05-08T09:55:40.000Z</time>
      </trkpt>
      <trkpt lat="47.52214" lon="6.70077">
        <ele>346</ele>
        <time>2015-05-08T09:55:41.000Z</time>
      </trkpt>
      <trkpt lat="47.52211" lon="6.70087">
        <ele>345</ele>
        <time>2015-05-08T09:55:42.000Z</time>
      </trkpt>
      <trkpt lat="47.52208" lon="6.70095">
        <ele>345</ele>
        <time>2015-05-08T09:55:43.000Z</time>
      </trkpt>
      <trkpt lat="47.52206" lon="6.70104">
        <ele>345</ele>
        <time>2015-05-08T09:55:44.000Z</time>
      </trkpt>
      <trkpt lat="47.52203" lon="6.70112">
        <ele>345</ele>
        <time>2015-05-08T09:55:45.000Z</time>
      </trkpt>
      <trkpt lat="47.522" lon="6.70121">
        <ele>345</ele>
        <time>2015-05-08T09:55:46.000Z</time>
      </trkpt>
      <trkpt lat="47.52199" lon="6.70125">
        <ele>345</ele>
        <time>2015-05-08T09:55:47.000Z</time>
      </trkpt>
      <trkpt lat="47.52197" lon="6.70132">
        <ele>346</ele>
        <time>2015-05-08T09:55:48.000Z</time>
      </trkpt>
      <trkpt lat="47.52195" lon="6.70138">
        <ele>346</ele>
        <time>2015-05-08T09:55:49.000Z</time>
      </trkpt>
      <trkpt lat="47.52194" lon="6.70145">
        <ele>346</ele>
        <time>2015-05-08T09:55:50.000Z</time>
      </trkpt>
      <trkpt lat="47.52193" lon="6.7015">
        <ele>346</ele>
        <time>2015-05-08T09:55:51.000Z</time>
      </trkpt>
      <trkpt lat="47.5219" lon="6.70158">
        <ele>346</ele>
        <time>2015-05-08T09:55:52.000Z</time>
      </trkpt>
      <trkpt lat="47.52188" lon="6.70167">
        <ele>347</ele>
        <time>2015-05-08T09:55:53.000Z</time>
      </trkpt>
      <trkpt lat="47.52187" lon="6.70173">
        <ele>348</ele>
        <time>2015-05-08T09:55:54.000Z</time>
      </trkpt>
      <trkpt lat="47.52185" lon="6.70178">
        <ele>348</ele>
        <time>2015-05-08T09:55:55.000Z</time>
      </trkpt>
      <trkpt lat="47.52183" lon="6.70181">
        <ele>348</ele>
        <time>2015-05-08T09:55:56.000Z</time>
      </trkpt>
      <trkpt lat="47.52182" lon="6.70185">
        <ele>348</ele>
        <time>2015-05-08T09:55:57.000Z</time>
      </trkpt>
      <trkpt lat="47.5218" lon="6.70189">
        <ele>348</ele>
        <time>2015-05-08T09:55:58.000Z</time>
      </trkpt>
      <trkpt lat="47.52178" lon="6.70194">
        <ele>348</ele>
        <time>2015-05-08T09:55:59.000Z</time>
      </trkpt>
      <trkpt lat="47.52177" lon="6.70199">
        <ele>348</ele>
        <time>2015-05-08T09:56:00.000Z</time>
      </trkpt>
      <trkpt lat="47.52175" lon="6.70204">
        <ele>348</ele>
        <time>2015-05-08T09:56:01.000Z</time>
      </trkpt>
      <trkpt lat="47.52174" lon="6.7021">
        <ele>348</ele>
        <time>2015-05-08T09:56:02.000Z</time>
      </trkpt>
      <trkpt lat="47.52173" lon="6.70215">
        <ele>349</ele>
        <time>2015-05-08T09:56:03.000Z</time>
      </trkpt>
      <trkpt lat="47.52171" lon="6.7022">
        <ele>349</ele>
        <time>2015-05-08T09:56:04.000Z</time>
      </trkpt>
      <trkpt lat="47.5217" lon="6.70225">
        <ele>349</ele>
        <time>2015-05-08T09:56:05.000Z</time>
      </trkpt>
      <trkpt lat="47.52168" lon="6.7023">
        <ele>350</ele>
        <time>2015-05-08T09:56:06.000Z</time>
      </trkpt>
      <trkpt lat="47.52167" lon="6.70235">
        <ele>353</ele>
        <time>2015-05-08T09:56:07.000Z</time>
      </trkpt>
      <trkpt lat="47.52165" lon="6.70241">
        <ele>353</ele>
        <time>2015-05-08T09:56:08.000Z</time>
      </trkpt>
      <trkpt lat="47.52164" lon="6.70246">
        <ele>353</ele>
        <time>2015-05-08T09:56:09.000Z</time>
      </trkpt>
      <trkpt lat="47.52163" lon="6.70251">
        <ele>354</ele>
        <time>2015-05-08T09:56:10.000Z</time>
      </trkpt>
      <trkpt lat="47.52162" lon="6.70256">
        <ele>354</ele>
        <time>2015-05-08T09:56:11.000Z</time>
      </trkpt>
      <trkpt lat="47.52161" lon="6.7026">
        <ele>354</ele>
        <time>2015-05-08T09:56:12.000Z</time>
      </trkpt>
      <trkpt lat="47.5216" lon="6.70264">
        <ele>354</ele>
        <time>2015-05-08T09:56:13.000Z</time>
      </trkpt>
      <trkpt lat="47.52159" lon="6.70269">
        <ele>355</ele>
        <time>2015-05-08T09:56:14.000Z</time>
      </trkpt>
      <trkpt lat="47.52157" lon="6.70274">
        <ele>355</ele>
        <time>2015-05-08T09:56:15.000Z</time>
      </trkpt>
      <trkpt lat="47.52156" lon="6.7028">
        <ele>355</ele>
        <time>2015-05-08T09:56:16.000Z</time>
      </trkpt>
      <trkpt lat="47.52155" lon="6.70285">
        <ele>355</ele>
        <time>2015-05-08T09:56:17.000Z</time>
      </trkpt>
      <trkpt lat="47.52154" lon="6.70289">
        <ele>355</ele>
        <time>2015-05-08T09:56:18.000Z</time>
      </trkpt>
      <trkpt lat="47.52153" lon="6.70293">
        <ele>355</ele>
        <time>2015-05-08T09:56:19.000Z</time>
      </trkpt>
      <trkpt lat="47.52151" lon="6.70298">
        <ele>355</ele>
        <time>2015-05-08T09:56:20.000Z</time>
      </trkpt>
      <trkpt lat="47.5215" lon="6.70303">
        <ele>355</ele>
        <time>2015-05-08T09:56:21.000Z</time>
      </trkpt>
      <trkpt lat="47.52148" lon="6.70307">
        <ele>355</ele>
        <time>2015-05-08T09:56:22.000Z</time>
      </trkpt>
      <trkpt lat="47.52146" lon="6.70312">
        <ele>355</ele>
        <time>2015-05-08T09:56:23.000Z</time>
      </trkpt>
      <trkpt lat="47.52144" lon="6.70317">
        <ele>355</ele>
        <time>2015-05-08T09:56:24.000Z</time>
      </trkpt>
      <trkpt lat="47.52142" lon="6.70321">
        <ele>355</ele>
        <time>2015-05-08T09:56:25.000Z</time>
      </trkpt>
      <trkpt lat="47.5214" lon="6.70326">
        <ele>355</ele>
        <time>2015-05-08T09:56:26.000Z</time>
      </trkpt>
      <trkpt lat="47.52138" lon="6.70331">
        <ele>355</ele>
        <time>2015-05-08T09:56:27.000Z</time>
      </trkpt>
      <trkpt lat="47.52137" lon="6.70336">
        <ele>356</ele>
        <time>2015-05-08T09:56:28.000Z</time>
      </trkpt>
      <trkpt lat="47.52135" lon="6.7034">
        <ele>356</ele>
        <time>2015-05-08T09:56:29.000Z</time>
      </trkpt>
      <trkpt lat="47.52133" lon="6.70345">
        <ele>356</ele>
        <time>2015-05-08T09:56:30.000Z</time>
      </trkpt>
      <trkpt lat="47.52132" lon="6.7035">
        <ele>356</ele>
        <time>2015-05-08T09:56:31.000Z</time>
      </trkpt>
      <trkpt lat="47.5213" lon="6.70355">
        <ele>356</ele>
        <time>2015-05-08T09:56:32.000Z</time>
      </trkpt>
      <trkpt lat="47.52128" lon="6.70361">
        <ele>357</ele>
        <time>2015-05-08T09:56:33.000Z</time>
      </trkpt>
      <trkpt lat="47.52126" lon="6.70367">
        <ele>357</ele>
        <time>2015-05-08T09:56:34.000Z</time>
      </trkpt>
      <trkpt lat="47.52124" lon="6.70373">
        <ele>357</ele>
        <time>2015-05-08T09:56:35.000Z</time>
      </trkpt>
      <trkpt lat="47.52122" lon="6.7038">
        <ele>357</ele>
        <time>2015-05-08T09:56:36.000Z</time>
      </trkpt>
      <trkpt lat="47.5212" lon="6.70385">
        <ele>357</ele>
        <time>2015-05-08T09:56:37.000Z</time>
      </trkpt>
      <trkpt lat="47.52118" lon="6.70391">
        <ele>357</ele>
        <time>2015-05-08T09:56:38.000Z</time>
      </trkpt>
      <trkpt lat="47.52117" lon="6.70397">
        <ele>358</ele>
        <time>2015-05-08T09:56:39.000Z</time>
      </trkpt>
      <trkpt lat="47.52115" lon="6.70402">
        <ele>358</ele>
        <time>2015-05-08T09:56:40.000Z</time>
      </trkpt>
      <trkpt lat="47.52114" lon="6.70408">
        <ele>358</ele>
        <time>2015-05-08T09:56:41.000Z</time>
      </trkpt>
      <trkpt lat="47.52112" lon="6.70413">
        <ele>358</ele>
        <time>2015-05-08T09:56:42.000Z</time>
      </trkpt>
      <trkpt lat="47.5211" lon="6.70419">
        <ele>358</ele>
        <time>2015-05-08T09:56:43.000Z</time>
      </trkpt>
      <trkpt lat="47.52108" lon="6.70424">
        <ele>358</ele>
        <time>2015-05-08T09:56:44.000Z</time>
      </trkpt>
      <trkpt lat="47.52106" lon="6.70429">
        <ele>358</ele>
        <time>2015-05-08T09:56:45.000Z</time>
      </trkpt>
      <trkpt lat="47.52104" lon="6.70435">
        <ele>358</ele>
        <time>2015-05-08T09:56:46.000Z</time>
      </trkpt>
      <trkpt lat="47.52103" lon="6.7044">
        <ele>358</ele>
        <time>2015-05-08T09:56:47.000Z</time>
      </trkpt>
      <trkpt lat="47.52102" lon="6.70446">
        <ele>357</ele>
        <time>2015-05-08T09:56:48.000Z</time>
      </trkpt>
      <trkpt lat="47.521" lon="6.70453">
        <ele>357</ele>
        <time>2015-05-08T09:56:49.000Z</time>
      </trkpt>
      <trkpt lat="47.52098" lon="6.70458">
        <ele>357</ele>
        <time>2015-05-08T09:56:50.000Z</time>
      </trkpt>
      <trkpt lat="47.52097" lon="6.70464">
        <ele>357</ele>
        <time>2015-05-08T09:56:51.000Z</time>
      </trkpt>
      <trkpt lat="47.52095" lon="6.70469">
        <ele>357</ele>
        <time>2015-05-08T09:56:52.000Z</time>
      </trkpt>
      <trkpt lat="47.52093" lon="6.70474">
        <ele>357</ele>
        <time>2015-05-08T09:56:53.000Z</time>
      </trkpt>
      <trkpt lat="47.52091" lon="6.70479">
        <ele>357</ele>
        <time>2015-05-08T09:56:54.000Z</time>
      </trkpt>
      <trkpt lat="47.5209" lon="6.70484">
        <ele>358</ele>
        <time>2015-05-08T09:56:55.000Z</time>
      </trkpt>
      <trkpt lat="47.52088" lon="6.7049">
        <ele>358</ele>
        <time>2015-05-08T09:56:56.000Z</time>
      </trkpt>
      <trkpt lat="47.52086" lon="6.70494">
        <ele>359</ele>
        <time>2015-05-08T09:56:57.000Z</time>
      </trkpt>
      <trkpt lat="47.52084" lon="6.70498">
        <ele>360</ele>
        <time>2015-05-08T09:56:58.000Z</time>
      </trkpt>
      <trkpt lat="47.52082" lon="6.70502">
        <ele>360</ele>
        <time>2015-05-08T09:56:59.000Z</time>
      </trkpt>
      <trkpt lat="47.52081" lon="6.70506">
        <ele>360</ele>
        <time>2015-05-08T09:57:00.000Z</time>
      </trkpt>
      <trkpt lat="47.52079" lon="6.70511">
        <ele>360</ele>
        <time>2015-05-08T09:57:01.000Z</time>
      </trkpt>
      <trkpt lat="47.52078" lon="6.70517">
        <ele>359</ele>
        <time>2015-05-08T09:57:02.000Z</time>
      </trkpt>
      <trkpt lat="47.52076" lon="6.70523">
        <ele>359</ele>
        <time>2015-05-08T09:57:03.000Z</time>
      </trkpt>
      <trkpt lat="47.52075" lon="6.7053">
        <ele>359</ele>
        <time>2015-05-08T09:57:04.000Z</time>
      </trkpt>
      <trkpt lat="47.52073" lon="6.70535">
        <ele>359</ele>
        <time>2015-05-08T09:57:05.000Z</time>
      </trkpt>
      <trkpt lat="47.52071" lon="6.70541">
        <ele>358</ele>
        <time>2015-05-08T09:57:06.000Z</time>
      </trkpt>
      <trkpt lat="47.5207" lon="6.70547">
        <ele>358</ele>
        <time>2015-05-08T09:57:07.000Z</time>
      </trkpt>
      <trkpt lat="47.52067" lon="6.70563">
        <ele>357</ele>
        <time>2015-05-08T09:57:08.000Z</time>
      </trkpt>
      <trkpt lat="47.52063" lon="6.7057">
        <ele>357</ele>
        <time>2015-05-08T09:57:09.000Z</time>
      </trkpt>
      <trkpt lat="47.52061" lon="6.70576">
        <ele>357</ele>
        <time>2015-05-08T09:57:10.000Z</time>
      </trkpt>
      <trkpt lat="47.5206" lon="6.7058">
        <ele>357</ele>
        <time>2015-05-08T09:57:11.000Z</time>
      </trkpt>
      <trkpt lat="47.52058" lon="6.70584">
        <ele>355</ele>
        <time>2015-05-08T09:57:12.000Z</time>
      </trkpt>
      <trkpt lat="47.52055" lon="6.70589">
        <ele>355</ele>
        <time>2015-05-08T09:57:13.000Z</time>
      </trkpt>
      <trkpt lat="47.52054" lon="6.70598">
        <ele>355</ele>
        <time>2015-05-08T09:57:14.000Z</time>
      </trkpt>
      <trkpt lat="47.52051" lon="6.70601">
        <ele>356</ele>
        <time>2015-05-08T09:57:15.000Z</time>
      </trkpt>
      <trkpt lat="47.52048" lon="6.70605">
        <ele>356</ele>
        <time>2015-05-08T09:57:16.000Z</time>
      </trkpt>
      <trkpt lat="47.52046" lon="6.7061">
        <ele>356</ele>
        <time>2015-05-08T09:57:17.000Z</time>
      </trkpt>
      <trkpt lat="47.52044" lon="6.70614">
        <ele>356</ele>
        <time>2015-05-08T09:57:18.000Z</time>
      </trkpt>
      <trkpt lat="47.52042" lon="6.70619">
        <ele>356</ele>
        <time>2015-05-08T09:57:19.000Z</time>
      </trkpt>
      <trkpt lat="47.52041" lon="6.70623">
        <ele>356</ele>
        <time>2015-05-08T09:57:20.000Z</time>
      </trkpt>
      <trkpt lat="47.52039" lon="6.70629">
        <ele>355</ele>
        <time>2015-05-08T09:57:21.000Z</time>
      </trkpt>
      <trkpt lat="47.52038" lon="6.70634">
        <ele>355</ele>
        <time>2015-05-08T09:57:22.000Z</time>
      </trkpt>
      <trkpt lat="47.52037" lon="6.7064">
        <ele>355</ele>
        <time>2015-05-08T09:57:23.000Z</time>
      </trkpt>
      <trkpt lat="47.52035" lon="6.70647">
        <ele>355</ele>
        <time>2015-05-08T09:57:24.000Z</time>
      </trkpt>
      <trkpt lat="47.52033" lon="6.70653">
        <ele>355</ele>
        <time>2015-05-08T09:57:25.000Z</time>
      </trkpt>
      <trkpt lat="47.52032" lon="6.70659">
        <ele>355</ele>
        <time>2015-05-08T09:57:26.000Z</time>
      </trkpt>
      <trkpt lat="47.52031" lon="6.70666">
        <ele>355</ele>
        <time>2015-05-08T09:57:27.000Z</time>
      </trkpt>
      <trkpt lat="47.5203" lon="6.70672">
        <ele>354</ele>
        <time>2015-05-08T09:57:28.000Z</time>
      </trkpt>
      <trkpt lat="47.52029" lon="6.70678">
        <ele>354</ele>
        <time>2015-05-08T09:57:29.000Z</time>
      </trkpt>
      <trkpt lat="47.52027" lon="6.70685">
        <ele>354</ele>
        <time>2015-05-08T09:57:30.000Z</time>
      </trkpt>
      <trkpt lat="47.52026" lon="6.70691">
        <ele>354</ele>
        <time>2015-05-08T09:57:31.000Z</time>
      </trkpt>
      <trkpt lat="47.52024" lon="6.70698">
        <ele>354</ele>
        <time>2015-05-08T09:57:32.000Z</time>
      </trkpt>
      <trkpt lat="47.52022" lon="6.70704">
        <ele>355</ele>
        <time>2015-05-08T09:57:33.000Z</time>
      </trkpt>
      <trkpt lat="47.52021" lon="6.7071">
        <ele>355</ele>
        <time>2015-05-08T09:57:34.000Z</time>
      </trkpt>
      <trkpt lat="47.5202" lon="6.70717">
        <ele>355</ele>
        <time>2015-05-08T09:57:35.000Z</time>
      </trkpt>
      <trkpt lat="47.52019" lon="6.70724">
        <ele>355</ele>
        <time>2015-05-08T09:57:36.000Z</time>
      </trkpt>
      <trkpt lat="47.52018" lon="6.7073">
        <ele>355</ele>
        <time>2015-05-08T09:57:37.000Z</time>
      </trkpt>
      <trkpt lat="47.52016" lon="6.70736">
        <ele>355</ele>
        <time>2015-05-08T09:57:38.000Z</time>
      </trkpt>
      <trkpt lat="47.52014" lon="6.70747">
        <ele>355</ele>
        <time>2015-05-08T09:57:39.000Z</time>
      </trkpt>
      <trkpt lat="47.52012" lon="6.70753">
        <ele>356</ele>
        <time>2015-05-08T09:57:40.000Z</time>
      </trkpt>
      <trkpt lat="47.5201" lon="6.70759">
        <ele>356</ele>
        <time>2015-05-08T09:57:41.000Z</time>
      </trkpt>
      <trkpt lat="47.52008" lon="6.70764">
        <ele>356</ele>
        <time>2015-05-08T09:57:42.000Z</time>
      </trkpt>
      <trkpt lat="47.52007" lon="6.70771">
        <ele>356</ele>
        <time>2015-05-08T09:57:43.000Z</time>
      </trkpt>
      <trkpt lat="47.52005" lon="6.70776">
        <ele>356</ele>
        <time>2015-05-08T09:57:44.000Z</time>
      </trkpt>
      <trkpt lat="47.52003" lon="6.70781">
        <ele>356</ele>
        <time>2015-05-08T09:57:45.000Z</time>
      </trkpt>
      <trkpt lat="47.52001" lon="6.70784">
        <ele>357</ele>
        <time>2015-05-08T09:57:46.000Z</time>
      </trkpt>
      <trkpt lat="47.51999" lon="6.70791">
        <ele>358</ele>
        <time>2015-05-08T09:57:47.000Z</time>
      </trkpt>
      <trkpt lat="47.51997" lon="6.70796">
        <ele>358</ele>
        <time>2015-05-08T09:57:48.000Z</time>
      </trkpt>
      <trkpt lat="47.51995" lon="6.70801">
        <ele>359</ele>
        <time>2015-05-08T09:57:49.000Z</time>
      </trkpt>
      <trkpt lat="47.51993" lon="6.70807">
        <ele>359</ele>
        <time>2015-05-08T09:57:50.000Z</time>
      </trkpt>
      <trkpt lat="47.51992" lon="6.70812">
        <ele>359</ele>
        <time>2015-05-08T09:57:51.000Z</time>
      </trkpt>
      <trkpt lat="47.5199" lon="6.70816">
        <ele>359</ele>
        <time>2015-05-08T09:57:52.000Z</time>
      </trkpt>
      <trkpt lat="47.51988" lon="6.7082">
        <ele>359</ele>
        <time>2015-05-08T09:57:53.000Z</time>
      </trkpt>
      <trkpt lat="47.51987" lon="6.70824">
        <ele>359</ele>
        <time>2015-05-08T09:57:54.000Z</time>
      </trkpt>
      <trkpt lat="47.51985" lon="6.70828">
        <ele>359</ele>
        <time>2015-05-08T09:57:55.000Z</time>
      </trkpt>
      <trkpt lat="47.51983" lon="6.70833">
        <ele>359</ele>
        <time>2015-05-08T09:57:56.000Z</time>
      </trkpt>
      <trkpt lat="47.51981" lon="6.70838">
        <ele>361</ele>
        <time>2015-05-08T09:57:57.000Z</time>
      </trkpt>
      <trkpt lat="47.51979" lon="6.70843">
        <ele>362</ele>
        <time>2015-05-08T09:57:58.000Z</time>
      </trkpt>
      <trkpt lat="47.51977" lon="6.70848">
        <ele>362</ele>
        <time>2015-05-08T09:57:59.000Z</time>
      </trkpt>
      <trkpt lat="47.51975" lon="6.70852">
        <ele>362</ele>
        <time>2015-05-08T09:58:00.000Z</time>
      </trkpt>
      <trkpt lat="47.51975" lon="6.70857">
        <ele>362</ele>
        <time>2015-05-08T09:58:01.000Z</time>
      </trkpt>
      <trkpt lat="47.51975" lon="6.70862">
        <ele>363</ele>
        <time>2015-05-08T09:58:02.000Z</time>
      </trkpt>
      <trkpt lat="47.51975" lon="6.70867">
        <ele>363</ele>
        <time>2015-05-08T09:58:03.000Z</time>
      </trkpt>
      <trkpt lat="47.51976" lon="6.70872">
        <ele>363</ele>
        <time>2015-05-08T09:58:04.000Z</time>
      </trkpt>
      <trkpt lat="47.51977" lon="6.70877">
        <ele>363</ele>
        <time>2015-05-08T09:58:05.000Z</time>
      </trkpt>
      <trkpt lat="47.51979" lon="6.70881">
        <ele>363</ele>
        <time>2015-05-08T09:58:06.000Z</time>
      </trkpt>
      <trkpt lat="47.5198" lon="6.70886">
        <ele>363</ele>
        <time>2015-05-08T09:58:07.000Z</time>
      </trkpt>
      <trkpt lat="47.51983" lon="6.70892">
        <ele>363</ele>
        <time>2015-05-08T09:58:08.000Z</time>
      </trkpt>
      <trkpt lat="47.51985" lon="6.70897">
        <ele>363</ele>
        <time>2015-05-08T09:58:09.000Z</time>
      </trkpt>
      <trkpt lat="47.51988" lon="6.70902">
        <ele>363</ele>
        <time>2015-05-08T09:58:10.000Z</time>
      </trkpt>
      <trkpt lat="47.51991" lon="6.70907">
        <ele>362</ele>
        <time>2015-05-08T09:58:11.000Z</time>
      </trkpt>
      <trkpt lat="47.51994" lon="6.70913">
        <ele>362</ele>
        <time>2015-05-08T09:58:12.000Z</time>
      </trkpt>
      <trkpt lat="47.51997" lon="6.70917">
        <ele>362</ele>
        <time>2015-05-08T09:58:13.000Z</time>
      </trkpt>
      <trkpt lat="47.52" lon="6.70922">
        <ele>362</ele>
        <time>2015-05-08T09:58:14.000Z</time>
      </trkpt>
      <trkpt lat="47.52003" lon="6.70926">
        <ele>362</ele>
        <time>2015-05-08T09:58:15.000Z</time>
      </trkpt>
      <trkpt lat="47.52006" lon="6.70931">
        <ele>363</ele>
        <time>2015-05-08T09:58:16.000Z</time>
      </trkpt>
      <trkpt lat="47.52008" lon="6.70936">
        <ele>363</ele>
        <time>2015-05-08T09:58:17.000Z</time>
      </trkpt>
      <trkpt lat="47.5201" lon="6.7094">
        <ele>364</ele>
        <time>2015-05-08T09:58:18.000Z</time>
      </trkpt>
      <trkpt lat="47.52013" lon="6.70944">
        <ele>364</ele>
        <time>2015-05-08T09:58:19.000Z</time>
      </trkpt>
      <trkpt lat="47.52015" lon="6.70948">
        <ele>364</ele>
        <time>2015-05-08T09:58:20.000Z</time>
      </trkpt>
      <trkpt lat="47.52018" lon="6.70952">
        <ele>365</ele>
        <time>2015-05-08T09:58:21.000Z</time>
      </trkpt>
      <trkpt lat="47.52021" lon="6.70955">
        <ele>365</ele>
        <time>2015-05-08T09:58:22.000Z</time>
      </trkpt>
      <trkpt lat="47.52024" lon="6.70958">
        <ele>365</ele>
        <time>2015-05-08T09:58:23.000Z</time>
      </trkpt>
      <trkpt lat="47.52027" lon="6.70961">
        <ele>365</ele>
        <time>2015-05-08T09:58:24.000Z</time>
      </trkpt>
      <trkpt lat="47.5203" lon="6.70964">
        <ele>365</ele>
        <time>2015-05-08T09:58:25.000Z</time>
      </trkpt>
      <trkpt lat="47.52032" lon="6.70966">
        <ele>365</ele>
        <time>2015-05-08T09:58:26.000Z</time>
      </trkpt>
      <trkpt lat="47.52034" lon="6.70968">
        <ele>365</ele>
        <time>2015-05-08T09:58:27.000Z</time>
      </trkpt>
      <trkpt lat="47.52036" lon="6.7097">
        <ele>365</ele>
        <time>2015-05-08T09:58:28.000Z</time>
      </trkpt>
      <trkpt lat="47.52038" lon="6.70975">
        <ele>365</ele>
        <time>2015-05-08T09:58:31.000Z</time>
      </trkpt>
      <trkpt lat="47.52038" lon="6.70976">
        <ele>366</ele>
        <time>2015-05-08T09:58:32.000Z</time>
      </trkpt>
      <trkpt lat="47.52037" lon="6.70982">
        <ele>366</ele>
        <time>2015-05-08T09:58:35.000Z</time>
      </trkpt>
      <trkpt lat="47.52038" lon="6.70985">
        <ele>366</ele>
        <time>2015-05-08T09:58:36.000Z</time>
      </trkpt>
      <trkpt lat="47.5204" lon="6.7099">
        <ele>366</ele>
        <time>2015-05-08T09:58:38.000Z</time>
      </trkpt>
      <trkpt lat="47.5204" lon="6.70992">
        <ele>366</ele>
        <time>2015-05-08T09:58:39.000Z</time>
      </trkpt>
      <trkpt lat="47.52037" lon="6.70997">
        <ele>367</ele>
        <time>2015-05-08T09:58:41.000Z</time>
      </trkpt>
      <trkpt lat="47.52035" lon="6.70997">
        <ele>367</ele>
        <time>2015-05-08T09:58:42.000Z</time>
      </trkpt>
      <trkpt lat="47.52032" lon="6.70995">
        <ele>367</ele>
        <time>2015-05-08T09:58:43.000Z</time>
      </trkpt>
      <trkpt lat="47.52029" lon="6.70992">
        <ele>367</ele>
        <time>2015-05-08T09:58:44.000Z</time>
      </trkpt>
      <trkpt lat="47.52027" lon="6.7099">
        <ele>367</ele>
        <time>2015-05-08T09:58:45.000Z</time>
      </trkpt>
      <trkpt lat="47.52024" lon="6.70987">
        <ele>367</ele>
        <time>2015-05-08T09:58:46.000Z</time>
      </trkpt>
      <trkpt lat="47.52021" lon="6.70984">
        <ele>367</ele>
        <time>2015-05-08T09:58:47.000Z</time>
      </trkpt>
      <trkpt lat="47.52018" lon="6.70981">
        <ele>367</ele>
        <time>2015-05-08T09:58:48.000Z</time>
      </trkpt>
      <trkpt lat="47.52015" lon="6.70978">
        <ele>367</ele>
        <time>2015-05-08T09:58:49.000Z</time>
      </trkpt>
      <trkpt lat="47.52012" lon="6.70977">
        <ele>367</ele>
        <time>2015-05-08T09:58:50.000Z</time>
      </trkpt>
      <trkpt lat="47.52009" lon="6.70975">
        <ele>367</ele>
        <time>2015-05-08T09:58:51.000Z</time>
      </trkpt>
      <trkpt lat="47.52006" lon="6.70974">
        <ele>367</ele>
        <time>2015-05-08T09:58:52.000Z</time>
      </trkpt>
      <trkpt lat="47.52003" lon="6.70973">
        <ele>367</ele>
        <time>2015-05-08T09:58:53.000Z</time>
      </trkpt>
      <trkpt lat="47.52" lon="6.70972">
        <ele>367</ele>
        <time>2015-05-08T09:58:54.000Z</time>
      </trkpt>
      <trkpt lat="47.51998" lon="6.70972">
        <ele>373</ele>
        <time>2015-05-08T09:58:55.000Z</time>
      </trkpt>
      <trkpt lat="47.51995" lon="6.70971">
        <ele>373</ele>
        <time>2015-05-08T09:58:56.000Z</time>
      </trkpt>
      <trkpt lat="47.51992" lon="6.70971">
        <ele>373</ele>
        <time>2015-05-08T09:58:57.000Z</time>
      </trkpt>
      <trkpt lat="47.5199" lon="6.7097">
        <ele>373</ele>
        <time>2015-05-08T09:58:58.000Z</time>
      </trkpt>
      <trkpt lat="47.51986" lon="6.7097">
        <ele>373</ele>
        <time>2015-05-08T09:59:00.000Z</time>
      </trkpt>
      <trkpt lat="47.51984" lon="6.7097">
        <ele>373</ele>
        <time>2015-05-08T09:59:01.000Z</time>
      </trkpt>
      <trkpt lat="47.51982" lon="6.7097">
        <ele>373</ele>
        <time>2015-05-08T09:59:02.000Z</time>
      </trkpt>
      <trkpt lat="47.51979" lon="6.7097">
        <ele>373</ele>
        <time>2015-05-08T09:59:03.000Z</time>
      </trkpt>
      <trkpt lat="47.51977" lon="6.70971">
        <ele>373</ele>
        <time>2015-05-08T09:59:04.000Z</time>
      </trkpt>
      <trkpt lat="47.51974" lon="6.70971">
        <ele>374</ele>
        <time>2015-05-08T09:59:05.000Z</time>
      </trkpt>
      <trkpt lat="47.51972" lon="6.70971">
        <ele>374</ele>
        <time>2015-05-08T09:59:06.000Z</time>
      </trkpt>
      <trkpt lat="47.5197" lon="6.70972">
        <ele>374</ele>
        <time>2015-05-08T09:59:07.000Z</time>
      </trkpt>
      <trkpt lat="47.51967" lon="6.70973">
        <ele>374</ele>
        <time>2015-05-08T09:59:08.000Z</time>
      </trkpt>
      <trkpt lat="47.51965" lon="6.70975">
        <ele>374</ele>
        <time>2015-05-08T09:59:09.000Z</time>
      </trkpt>
      <trkpt lat="47.51961" lon="6.70977">
        <ele>375</ele>
        <time>2015-05-08T09:59:11.000Z</time>
      </trkpt>
      <trkpt lat="47.51959" lon="6.70978">
        <ele>375</ele>
        <time>2015-05-08T09:59:12.000Z</time>
      </trkpt>
      <trkpt lat="47.51956" lon="6.7098">
        <ele>376</ele>
        <time>2015-05-08T09:59:14.000Z</time>
      </trkpt>
      <trkpt lat="47.51955" lon="6.70981">
        <ele>376</ele>
        <time>2015-05-08T09:59:15.000Z</time>
      </trkpt>
      <trkpt lat="47.51951" lon="6.70982">
        <ele>376</ele>
        <time>2015-05-08T09:59:19.000Z</time>
      </trkpt>
      <trkpt lat="47.51949" lon="6.70982">
        <ele>376</ele>
        <time>2015-05-08T09:59:20.000Z</time>
      </trkpt>
      <trkpt lat="47.51945" lon="6.70982">
        <ele>377</ele>
        <time>2015-05-08T09:59:25.000Z</time>
      </trkpt>
      <trkpt lat="47.51944" lon="6.70982">
        <ele>377</ele>
        <time>2015-05-08T09:59:26.000Z</time>
      </trkpt>
      <trkpt lat="47.5194" lon="6.70981">
        <ele>378</ele>
        <time>2015-05-08T09:59:29.000Z</time>
      </trkpt>
      <trkpt lat="47.51939" lon="6.70981">
        <ele>378</ele>
        <time>2015-05-08T09:59:30.000Z</time>
      </trkpt>
      <trkpt lat="47.51934" lon="6.7098">
        <ele>378</ele>
        <time>2015-05-08T09:59:33.000Z</time>
      </trkpt>
      <trkpt lat="47.51933" lon="6.7098">
        <ele>378</ele>
        <time>2015-05-08T09:59:34.000Z</time>
      </trkpt>
      <trkpt lat="47.51929" lon="6.70979">
        <ele>379</ele>
        <time>2015-05-08T09:59:39.000Z</time>
      </trkpt>
      <trkpt lat="47.51928" lon="6.70979">
        <ele>379</ele>
        <time>2015-05-08T09:59:40.000Z</time>
      </trkpt>
      <trkpt lat="47.51924" lon="6.70979">
        <ele>379</ele>
        <time>2015-05-08T09:59:43.000Z</time>
      </trkpt>
      <trkpt lat="47.51923" lon="6.70979">
        <ele>379</ele>
        <time>2015-05-08T09:59:44.000Z</time>
      </trkpt>
      <trkpt lat="47.5192" lon="6.70979">
        <ele>380</ele>
        <time>2015-05-08T09:59:46.000Z</time>
      </trkpt>
      <trkpt lat="47.51917" lon="6.70979">
        <ele>380</ele>
        <time>2015-05-08T09:59:47.000Z</time>
      </trkpt>
      <trkpt lat="47.51913" lon="6.70979">
        <ele>385</ele>
        <time>2015-05-08T09:59:49.000Z</time>
      </trkpt>
      <trkpt lat="47.51911" lon="6.70979">
        <ele>385</ele>
        <time>2015-05-08T09:59:50.000Z</time>
      </trkpt>
      <trkpt lat="47.51908" lon="6.70978">
        <ele>385</ele>
        <time>2015-05-08T09:59:51.000Z</time>
      </trkpt>
      <trkpt lat="47.51906" lon="6.70978">
        <ele>385</ele>
        <time>2015-05-08T09:59:52.000Z</time>
      </trkpt>
      <trkpt lat="47.51903" lon="6.70977">
        <ele>385</ele>
        <time>2015-05-08T09:59:53.000Z</time>
      </trkpt>
      <trkpt lat="47.51901" lon="6.70976">
        <ele>385</ele>
        <time>2015-05-08T09:59:54.000Z</time>
      </trkpt>
      <trkpt lat="47.51897" lon="6.70975">
        <ele>385</ele>
        <time>2015-05-08T09:59:56.000Z</time>
      </trkpt>
      <trkpt lat="47.51895" lon="6.70975">
        <ele>385</ele>
        <time>2015-05-08T09:59:57.000Z</time>
      </trkpt>
      <trkpt lat="47.5189" lon="6.70975">
        <ele>385</ele>
        <time>2015-05-08T09:59:59.000Z</time>
      </trkpt>
      <trkpt lat="47.51888" lon="6.70976">
        <ele>385</ele>
        <time>2015-05-08T10:00:00.000Z</time>
      </trkpt>
      <trkpt lat="47.51884" lon="6.70976">
        <ele>385</ele>
        <time>2015-05-08T10:00:02.000Z</time>
      </trkpt>
      <trkpt lat="47.51882" lon="6.70976">
        <ele>386</ele>
        <time>2015-05-08T10:00:03.000Z</time>
      </trkpt>
      <trkpt lat="47.51878" lon="6.70977">
        <ele>386</ele>
        <time>2015-05-08T10:00:06.000Z</time>
      </trkpt>
      <trkpt lat="47.51877" lon="6.70978">
        <ele>386</ele>
        <time>2015-05-08T10:00:07.000Z</time>
      </trkpt>
      <trkpt lat="47.51874" lon="6.70981">
        <ele>386</ele>
        <time>2015-05-08T10:00:11.000Z</time>
      </trkpt>
      <trkpt lat="47.51873" lon="6.70982">
        <ele>386</ele>
        <time>2015-05-08T10:00:12.000Z</time>
      </trkpt>
      <trkpt lat="47.5187" lon="6.70984">
        <ele>387</ele>
        <time>2015-05-08T10:00:14.000Z</time>
      </trkpt>
      <trkpt lat="47.51868" lon="6.70985">
        <ele>387</ele>
        <time>2015-05-08T10:00:15.000Z</time>
      </trkpt>
      <trkpt lat="47.51864" lon="6.70986">
        <ele>387</ele>
        <time>2015-05-08T10:00:17.000Z</time>
      </trkpt>
      <trkpt lat="47.51862" lon="6.70987">
        <ele>388</ele>
        <time>2015-05-08T10:00:18.000Z</time>
      </trkpt>
      <trkpt lat="47.51859" lon="6.7099">
        <ele>388</ele>
        <time>2015-05-08T10:00:20.000Z</time>
      </trkpt>
      <trkpt lat="47.51857" lon="6.70991">
        <ele>388</ele>
        <time>2015-05-08T10:00:21.000Z</time>
      </trkpt>
      <trkpt lat="47.51853" lon="6.70992">
        <ele>389</ele>
        <time>2015-05-08T10:00:23.000Z</time>
      </trkpt>
      <trkpt lat="47.51852" lon="6.70992">
        <ele>389</ele>
        <time>2015-05-08T10:00:24.000Z</time>
      </trkpt>
      <trkpt lat="47.51848" lon="6.70993">
        <ele>390</ele>
        <time>2015-05-08T10:00:26.000Z</time>
      </trkpt>
      <trkpt lat="47.51846" lon="6.70994">
        <ele>390</ele>
        <time>2015-05-08T10:00:27.000Z</time>
      </trkpt>
      <trkpt lat="47.51843" lon="6.70995">
        <ele>391</ele>
        <time>2015-05-08T10:00:29.000Z</time>
      </trkpt>
      <trkpt lat="47.51841" lon="6.70996">
        <ele>391</ele>
        <time>2015-05-08T10:00:30.000Z</time>
      </trkpt>
      <trkpt lat="47.51837" lon="6.70995">
        <ele>392</ele>
        <time>2015-05-08T10:00:33.000Z</time>
      </trkpt>
      <trkpt lat="47.51836" lon="6.70996">
        <ele>392</ele>
        <time>2015-05-08T10:00:34.000Z</time>
      </trkpt>
      <trkpt lat="47.51833" lon="6.70996">
        <ele>394</ele>
        <time>2015-05-08T10:00:36.000Z</time>
      </trkpt>
      <trkpt lat="47.51831" lon="6.70996">
        <ele>394</ele>
        <time>2015-05-08T10:00:37.000Z</time>
      </trkpt>
      <trkpt lat="47.51827" lon="6.70995">
        <ele>393</ele>
        <time>2015-05-08T10:00:40.000Z</time>
      </trkpt>
      <trkpt lat="47.51826" lon="6.70995">
        <ele>393</ele>
        <time>2015-05-08T10:00:41.000Z</time>
      </trkpt>
      <trkpt lat="47.51823" lon="6.70997">
        <ele>393</ele>
        <time>2015-05-08T10:00:44.000Z</time>
      </trkpt>
      <trkpt lat="47.51821" lon="6.70997">
        <ele>393</ele>
        <time>2015-05-08T10:00:45.000Z</time>
      </trkpt>
      <trkpt lat="47.51818" lon="6.70998">
        <ele>393</ele>
        <time>2015-05-08T10:00:47.000Z</time>
      </trkpt>
      <trkpt lat="47.51815" lon="6.70998">
        <ele>393</ele>
        <time>2015-05-08T10:00:48.000Z</time>
      </trkpt>
      <trkpt lat="47.51812" lon="6.70998">
        <ele>393</ele>
        <time>2015-05-08T10:00:49.000Z</time>
      </trkpt>
      <trkpt lat="47.5181" lon="6.70998">
        <ele>393</ele>
        <time>2015-05-08T10:00:50.000Z</time>
      </trkpt>
      <trkpt lat="47.51806" lon="6.71">
        <ele>393</ele>
        <time>2015-05-08T10:00:52.000Z</time>
      </trkpt>
      <trkpt lat="47.51805" lon="6.71001">
        <ele>397</ele>
        <time>2015-05-08T10:00:53.000Z</time>
      </trkpt>
      <trkpt lat="47.51802" lon="6.71004">
        <ele>398</ele>
        <time>2015-05-08T10:00:56.000Z</time>
      </trkpt>
      <trkpt lat="47.518" lon="6.71005">
        <ele>398</ele>
        <time>2015-05-08T10:00:57.000Z</time>
      </trkpt>
      <trkpt lat="47.51797" lon="6.71006">
        <ele>398</ele>
        <time>2015-05-08T10:00:59.000Z</time>
      </trkpt>
      <trkpt lat="47.51795" lon="6.71006">
        <ele>398</ele>
        <time>2015-05-08T10:01:00.000Z</time>
      </trkpt>
      <trkpt lat="47.51791" lon="6.71007">
        <ele>398</ele>
        <time>2015-05-08T10:01:02.000Z</time>
      </trkpt>
      <trkpt lat="47.5179" lon="6.71008">
        <ele>398</ele>
        <time>2015-05-08T10:01:03.000Z</time>
      </trkpt>
      <trkpt lat="47.51785" lon="6.71008">
        <ele>398</ele>
        <time>2015-05-08T10:01:06.000Z</time>
      </trkpt>
      <trkpt lat="47.51784" lon="6.71008">
        <ele>398</ele>
        <time>2015-05-08T10:01:07.000Z</time>
      </trkpt>
      <trkpt lat="47.5178" lon="6.71006">
        <ele>398</ele>
        <time>2015-05-08T10:01:10.000Z</time>
      </trkpt>
      <trkpt lat="47.51779" lon="6.71006">
        <ele>398</ele>
        <time>2015-05-08T10:01:11.000Z</time>
      </trkpt>
      <trkpt lat="47.51776" lon="6.71005">
        <ele>398</ele>
        <time>2015-05-08T10:01:13.000Z</time>
      </trkpt>
      <trkpt lat="47.51774" lon="6.71005">
        <ele>398</ele>
        <time>2015-05-08T10:01:14.000Z</time>
      </trkpt>
      <trkpt lat="47.5177" lon="6.71004">
        <ele>398</ele>
        <time>2015-05-08T10:01:16.000Z</time>
      </trkpt>
      <trkpt lat="47.51768" lon="6.71004">
        <ele>398</ele>
        <time>2015-05-08T10:01:17.000Z</time>
      </trkpt>
      <trkpt lat="47.51765" lon="6.71004">
        <ele>398</ele>
        <time>2015-05-08T10:01:18.000Z</time>
      </trkpt>
      <trkpt lat="47.51763" lon="6.71005">
        <ele>397</ele>
        <time>2015-05-08T10:01:19.000Z</time>
      </trkpt>
      <trkpt lat="47.5176" lon="6.71005">
        <ele>397</ele>
        <time>2015-05-08T10:01:20.000Z</time>
      </trkpt>
      <trkpt lat="47.51757" lon="6.71006">
        <ele>397</ele>
        <time>2015-05-08T10:01:21.000Z</time>
      </trkpt>
      <trkpt lat="47.51755" lon="6.71006">
        <ele>397</ele>
        <time>2015-05-08T10:01:22.000Z</time>
      </trkpt>
      <trkpt lat="47.51752" lon="6.71006">
        <ele>397</ele>
        <time>2015-05-08T10:01:23.000Z</time>
      </trkpt>
      <trkpt lat="47.5175" lon="6.71006">
        <ele>399</ele>
        <time>2015-05-08T10:01:24.000Z</time>
      </trkpt>
      <trkpt lat="47.51748" lon="6.71006">
        <ele>399</ele>
        <time>2015-05-08T10:01:25.000Z</time>
      </trkpt>
      <trkpt lat="47.51745" lon="6.71006">
        <ele>400</ele>
        <time>2015-05-08T10:01:26.000Z</time>
      </trkpt>
      <trkpt lat="47.51743" lon="6.71007">
        <ele>400</ele>
        <time>2015-05-08T10:01:27.000Z</time>
      </trkpt>
      <trkpt lat="47.5174" lon="6.71008">
        <ele>401</ele>
        <time>2015-05-08T10:01:28.000Z</time>
      </trkpt>
      <trkpt lat="47.51738" lon="6.71009">
        <ele>402</ele>
        <time>2015-05-08T10:01:29.000Z</time>
      </trkpt>
      <trkpt lat="47.51735" lon="6.71011">
        <ele>403</ele>
        <time>2015-05-08T10:01:31.000Z</time>
      </trkpt>
      <trkpt lat="47.51733" lon="6.71011">
        <ele>403</ele>
        <time>2015-05-08T10:01:32.000Z</time>
      </trkpt>
      <trkpt lat="47.51729" lon="6.71013">
        <ele>404</ele>
        <time>2015-05-08T10:01:35.000Z</time>
      </trkpt>
      <trkpt lat="47.51727" lon="6.71014">
        <ele>405</ele>
        <time>2015-05-08T10:01:36.000Z</time>
      </trkpt>
      <trkpt lat="47.51724" lon="6.71014">
        <ele>405</ele>
        <time>2015-05-08T10:01:38.000Z</time>
      </trkpt>
      <trkpt lat="47.51722" lon="6.71014">
        <ele>406</ele>
        <time>2015-05-08T10:01:39.000Z</time>
      </trkpt>
      <trkpt lat="47.5172" lon="6.71014">
        <ele>406</ele>
        <time>2015-05-08T10:01:40.000Z</time>
      </trkpt>
      <trkpt lat="47.51717" lon="6.71014">
        <ele>406</ele>
        <time>2015-05-08T10:01:41.000Z</time>
      </trkpt>
      <trkpt lat="47.51715" lon="6.71014">
        <ele>407</ele>
        <time>2015-05-08T10:01:42.000Z</time>
      </trkpt>
      <trkpt lat="47.51712" lon="6.71014">
        <ele>407</ele>
        <time>2015-05-08T10:01:43.000Z</time>
      </trkpt>
      <trkpt lat="47.5171" lon="6.71014">
        <ele>407</ele>
        <time>2015-05-08T10:01:44.000Z</time>
      </trkpt>
      <trkpt lat="47.51707" lon="6.71014">
        <ele>408</ele>
        <time>2015-05-08T10:01:45.000Z</time>
      </trkpt>
      <trkpt lat="47.51703" lon="6.71012">
        <ele>408</ele>
        <time>2015-05-08T10:01:47.000Z</time>
      </trkpt>
      <trkpt lat="47.51701" lon="6.71012">
        <ele>408</ele>
        <time>2015-05-08T10:01:48.000Z</time>
      </trkpt>
      <trkpt lat="47.51698" lon="6.71011">
        <ele>409</ele>
        <time>2015-05-08T10:01:50.000Z</time>
      </trkpt>
      <trkpt lat="47.51696" lon="6.71011">
        <ele>409</ele>
        <time>2015-05-08T10:01:51.000Z</time>
      </trkpt>
      <trkpt lat="47.51691" lon="6.71011">
        <ele>409</ele>
        <time>2015-05-08T10:01:54.000Z</time>
      </trkpt>
      <trkpt lat="47.5169" lon="6.7101">
        <ele>410</ele>
        <time>2015-05-08T10:01:55.000Z</time>
      </trkpt>
      <trkpt lat="47.51687" lon="6.71009">
        <ele>410</ele>
        <time>2015-05-08T10:01:57.000Z</time>
      </trkpt>
      <trkpt lat="47.51685" lon="6.71008">
        <ele>410</ele>
        <time>2015-05-08T10:01:58.000Z</time>
      </trkpt>
      <trkpt lat="47.5168" lon="6.71008">
        <ele>410</ele>
        <time>2015-05-08T10:02:02.000Z</time>
      </trkpt>
      <trkpt lat="47.51679" lon="6.71008">
        <ele>411</ele>
        <time>2015-05-08T10:02:03.000Z</time>
      </trkpt>
      <trkpt lat="47.51675" lon="6.71006">
        <ele>411</ele>
        <time>2015-05-08T10:02:05.000Z</time>
      </trkpt>
      <trkpt lat="47.51673" lon="6.71005">
        <ele>411</ele>
        <time>2015-05-08T10:02:06.000Z</time>
      </trkpt>
      <trkpt lat="47.5167" lon="6.71004">
        <ele>411</ele>
        <time>2015-05-08T10:02:07.000Z</time>
      </trkpt>
      <trkpt lat="47.51667" lon="6.71003">
        <ele>414</ele>
        <time>2015-05-08T10:02:08.000Z</time>
      </trkpt>
      <trkpt lat="47.51663" lon="6.71002">
        <ele>414</ele>
        <time>2015-05-08T10:02:09.000Z</time>
      </trkpt>
      <trkpt lat="47.51661" lon="6.71">
        <ele>415</ele>
        <time>2015-05-08T10:02:10.000Z</time>
      </trkpt>
      <trkpt lat="47.51658" lon="6.70999">
        <ele>414</ele>
        <time>2015-05-08T10:02:11.000Z</time>
      </trkpt>
      <trkpt lat="47.51655" lon="6.70997">
        <ele>414</ele>
        <time>2015-05-08T10:02:12.000Z</time>
      </trkpt>
      <trkpt lat="47.51652" lon="6.70996">
        <ele>415</ele>
        <time>2015-05-08T10:02:13.000Z</time>
      </trkpt>
      <trkpt lat="47.51649" lon="6.70995">
        <ele>415</ele>
        <time>2015-05-08T10:02:14.000Z</time>
      </trkpt>
      <trkpt lat="47.51645" lon="6.70992">
        <ele>416</ele>
        <time>2015-05-08T10:02:16.000Z</time>
      </trkpt>
      <trkpt lat="47.51644" lon="6.70991">
        <ele>416</ele>
        <time>2015-05-08T10:02:17.000Z</time>
      </trkpt>
      <trkpt lat="47.5164" lon="6.70988">
        <ele>417</ele>
        <time>2015-05-08T10:02:20.000Z</time>
      </trkpt>
      <trkpt lat="47.5164" lon="6.70987">
        <ele>417</ele>
        <time>2015-05-08T10:02:21.000Z</time>
      </trkpt>
      <trkpt lat="47.51636" lon="6.70986">
        <ele>417</ele>
        <time>2015-05-08T10:02:24.000Z</time>
      </trkpt>
      <trkpt lat="47.51635" lon="6.70986">
        <ele>417</ele>
        <time>2015-05-08T10:02:25.000Z</time>
      </trkpt>
      <trkpt lat="47.51631" lon="6.70985">
        <ele>418</ele>
        <time>2015-05-08T10:02:28.000Z</time>
      </trkpt>
      <trkpt lat="47.51629" lon="6.70985">
        <ele>418</ele>
        <time>2015-05-08T10:02:29.000Z</time>
      </trkpt>
      <trkpt lat="47.51627" lon="6.70984">
        <ele>418</ele>
        <time>2015-05-08T10:02:30.000Z</time>
      </trkpt>
      <trkpt lat="47.51624" lon="6.70983">
        <ele>419</ele>
        <time>2015-05-08T10:02:31.000Z</time>
      </trkpt>
      <trkpt lat="47.51622" lon="6.70982">
        <ele>419</ele>
        <time>2015-05-08T10:02:32.000Z</time>
      </trkpt>
      <trkpt lat="47.5162" lon="6.70981">
        <ele>419</ele>
        <time>2015-05-08T10:02:33.000Z</time>
      </trkpt>
      <trkpt lat="47.51617" lon="6.70979">
        <ele>420</ele>
        <time>2015-05-08T10:02:35.000Z</time>
      </trkpt>
      <trkpt lat="47.51615" lon="6.70978">
        <ele>420</ele>
        <time>2015-05-08T10:02:36.000Z</time>
      </trkpt>
      <trkpt lat="47.51612" lon="6.70974">
        <ele>420</ele>
        <time>2015-05-08T10:02:39.000Z</time>
      </trkpt>
      <trkpt lat="47.51611" lon="6.70973">
        <ele>420</ele>
        <time>2015-05-08T10:02:40.000Z</time>
      </trkpt>
      <trkpt lat="47.51608" lon="6.70971">
        <ele>420</ele>
        <time>2015-05-08T10:02:43.000Z</time>
      </trkpt>
      <trkpt lat="47.51606" lon="6.70971">
        <ele>420</ele>
        <time>2015-05-08T10:02:44.000Z</time>
      </trkpt>
      <trkpt lat="47.51602" lon="6.70967">
        <ele>420</ele>
        <time>2015-05-08T10:02:47.000Z</time>
      </trkpt>
      <trkpt lat="47.51601" lon="6.70966">
        <ele>420</ele>
        <time>2015-05-08T10:02:48.000Z</time>
      </trkpt>
      <trkpt lat="47.51598" lon="6.70964">
        <ele>421</ele>
        <time>2015-05-08T10:02:51.000Z</time>
      </trkpt>
      <trkpt lat="47.51597" lon="6.70963">
        <ele>421</ele>
        <time>2015-05-08T10:02:52.000Z</time>
      </trkpt>
      <trkpt lat="47.51593" lon="6.70962">
        <ele>421</ele>
        <time>2015-05-08T10:02:54.000Z</time>
      </trkpt>
      <trkpt lat="47.51591" lon="6.70962">
        <ele>421</ele>
        <time>2015-05-08T10:02:55.000Z</time>
      </trkpt>
      <trkpt lat="47.51589" lon="6.70961">
        <ele>421</ele>
        <time>2015-05-08T10:02:56.000Z</time>
      </trkpt>
      <trkpt lat="47.51587" lon="6.70959">
        <ele>421</ele>
        <time>2015-05-08T10:02:57.000Z</time>
      </trkpt>
      <trkpt lat="47.51583" lon="6.70956">
        <ele>430</ele>
        <time>2015-05-08T10:02:59.000Z</time>
      </trkpt>
      <trkpt lat="47.51582" lon="6.70954">
        <ele>430</ele>
        <time>2015-05-08T10:03:00.000Z</time>
      </trkpt>
      <trkpt lat="47.51579" lon="6.70953">
        <ele>430</ele>
        <time>2015-05-08T10:03:02.000Z</time>
      </trkpt>
      <trkpt lat="47.51577" lon="6.70952">
        <ele>430</ele>
        <time>2015-05-08T10:03:03.000Z</time>
      </trkpt>
      <trkpt lat="47.51574" lon="6.70951">
        <ele>430</ele>
        <time>2015-05-08T10:03:05.000Z</time>
      </trkpt>
      <trkpt lat="47.51572" lon="6.70951">
        <ele>430</ele>
        <time>2015-05-08T10:03:06.000Z</time>
      </trkpt>
      <trkpt lat="47.51568" lon="6.70951">
        <ele>430</ele>
        <time>2015-05-08T10:03:08.000Z</time>
      </trkpt>
      <trkpt lat="47.51567" lon="6.7095">
        <ele>430</ele>
        <time>2015-05-08T10:03:09.000Z</time>
      </trkpt>
      <trkpt lat="47.51563" lon="6.7095">
        <ele>430</ele>
        <time>2015-05-08T10:03:12.000Z</time>
      </trkpt>
      <trkpt lat="47.51561" lon="6.70949">
        <ele>430</ele>
        <time>2015-05-08T10:03:13.000Z</time>
      </trkpt>
      <trkpt lat="47.51558" lon="6.70948">
        <ele>430</ele>
        <time>2015-05-08T10:03:15.000Z</time>
      </trkpt>
      <trkpt lat="47.51557" lon="6.70948">
        <ele>431</ele>
        <time>2015-05-08T10:03:16.000Z</time>
      </trkpt>
      <trkpt lat="47.51554" lon="6.70945">
        <ele>431</ele>
        <time>2015-05-08T10:03:18.000Z</time>
      </trkpt>
      <trkpt lat="47.51553" lon="6.70944">
        <ele>431</ele>
        <time>2015-05-08T10:03:19.000Z</time>
      </trkpt>
      <trkpt lat="47.51548" lon="6.70941">
        <ele>431</ele>
        <time>2015-05-08T10:03:22.000Z</time>
      </trkpt>
      <trkpt lat="47.51548" lon="6.70942">
        <ele>431</ele>
        <time>2015-05-08T10:03:23.000Z</time>
      </trkpt>
      <trkpt lat="47.51544" lon="6.70941">
        <ele>431</ele>
        <time>2015-05-08T10:03:27.000Z</time>
      </trkpt>
      <trkpt lat="47.51542" lon="6.70941">
        <ele>431</ele>
        <time>2015-05-08T10:03:28.000Z</time>
      </trkpt>
      <trkpt lat="47.51539" lon="6.70938">
        <ele>431</ele>
        <time>2015-05-08T10:03:32.000Z</time>
      </trkpt>
      <trkpt lat="47.51538" lon="6.70937">
        <ele>432</ele>
        <time>2015-05-08T10:03:33.000Z</time>
      </trkpt>
      <trkpt lat="47.51535" lon="6.70935">
        <ele>432</ele>
        <time>2015-05-08T10:03:35.000Z</time>
      </trkpt>
      <trkpt lat="47.51533" lon="6.70935">
        <ele>432</ele>
        <time>2015-05-08T10:03:36.000Z</time>
      </trkpt>
      <trkpt lat="47.51529" lon="6.70934">
        <ele>432</ele>
        <time>2015-05-08T10:03:38.000Z</time>
      </trkpt>
      <trkpt lat="47.51527" lon="6.70933">
        <ele>432</ele>
        <time>2015-05-08T10:03:39.000Z</time>
      </trkpt>
      <trkpt lat="47.51524" lon="6.70933">
        <ele>433</ele>
        <time>2015-05-08T10:03:40.000Z</time>
      </trkpt>
      <trkpt lat="47.51522" lon="6.70933">
        <ele>433</ele>
        <time>2015-05-08T10:03:41.000Z</time>
      </trkpt>
      <trkpt lat="47.51519" lon="6.70933">
        <ele>433</ele>
        <time>2015-05-08T10:03:42.000Z</time>
      </trkpt>
      <trkpt lat="47.51517" lon="6.70932">
        <ele>433</ele>
        <time>2015-05-08T10:03:43.000Z</time>
      </trkpt>
      <trkpt lat="47.51514" lon="6.70931">
        <ele>433</ele>
        <time>2015-05-08T10:03:44.000Z</time>
      </trkpt>
      <trkpt lat="47.51511" lon="6.70931">
        <ele>433</ele>
        <time>2015-05-08T10:03:45.000Z</time>
      </trkpt>
      <trkpt lat="47.51508" lon="6.70931">
        <ele>433</ele>
        <time>2015-05-08T10:03:46.000Z</time>
      </trkpt>
      <trkpt lat="47.51505" lon="6.70931">
        <ele>433</ele>
        <time>2015-05-08T10:03:47.000Z</time>
      </trkpt>
      <trkpt lat="47.51502" lon="6.70931">
        <ele>434</ele>
        <time>2015-05-08T10:03:48.000Z</time>
      </trkpt>
      <trkpt lat="47.51498" lon="6.7093">
        <ele>438</ele>
        <time>2015-05-08T10:03:49.000Z</time>
      </trkpt>
      <trkpt lat="47.51495" lon="6.70929">
        <ele>438</ele>
        <time>2015-05-08T10:03:50.000Z</time>
      </trkpt>
      <trkpt lat="47.51492" lon="6.70928">
        <ele>439</ele>
        <time>2015-05-08T10:03:51.000Z</time>
      </trkpt>
      <trkpt lat="47.51489" lon="6.70928">
        <ele>439</ele>
        <time>2015-05-08T10:03:52.000Z</time>
      </trkpt>
      <trkpt lat="47.51487" lon="6.70927">
        <ele>439</ele>
        <time>2015-05-08T10:03:53.000Z</time>
      </trkpt>
      <trkpt lat="47.51484" lon="6.70926">
        <ele>440</ele>
        <time>2015-05-08T10:03:54.000Z</time>
      </trkpt>
      <trkpt lat="47.51481" lon="6.70925">
        <ele>440</ele>
        <time>2015-05-08T10:03:55.000Z</time>
      </trkpt>
      <trkpt lat="47.51477" lon="6.70923">
        <ele>441</ele>
        <time>2015-05-08T10:03:57.000Z</time>
      </trkpt>
      <trkpt lat="47.51475" lon="6.70922">
        <ele>441</ele>
        <time>2015-05-08T10:03:58.000Z</time>
      </trkpt>
      <trkpt lat="47.5147" lon="6.70921">
        <ele>442</ele>
        <time>2015-05-08T10:04:02.000Z</time>
      </trkpt>
      <trkpt lat="47.5147" lon="6.7092">
        <ele>442</ele>
        <time>2015-05-08T10:04:03.000Z</time>
      </trkpt>
      <trkpt lat="47.51466" lon="6.70918">
        <ele>442</ele>
        <time>2015-05-08T10:04:06.000Z</time>
      </trkpt>
      <trkpt lat="47.51465" lon="6.70917">
        <ele>442</ele>
        <time>2015-05-08T10:04:07.000Z</time>
      </trkpt>
      <trkpt lat="47.51462" lon="6.70916">
        <ele>438</ele>
        <time>2015-05-08T10:04:09.000Z</time>
      </trkpt>
      <trkpt lat="47.5146" lon="6.70915">
        <ele>438</ele>
        <time>2015-05-08T10:04:10.000Z</time>
      </trkpt>
      <trkpt lat="47.51456" lon="6.70914">
        <ele>439</ele>
        <time>2015-05-08T10:04:12.000Z</time>
      </trkpt>
      <trkpt lat="47.51453" lon="6.70914">
        <ele>439</ele>
        <time>2015-05-08T10:04:13.000Z</time>
      </trkpt>
      <trkpt lat="47.5145" lon="6.70913">
        <ele>440</ele>
        <time>2015-05-08T10:04:15.000Z</time>
      </trkpt>
      <trkpt lat="47.51448" lon="6.70912">
        <ele>440</ele>
        <time>2015-05-08T10:04:16.000Z</time>
      </trkpt>
      <trkpt lat="47.51446" lon="6.70909">
        <ele>440</ele>
        <time>2015-05-08T10:04:18.000Z</time>
      </trkpt>
      <trkpt lat="47.51444" lon="6.70908">
        <ele>440</ele>
        <time>2015-05-08T10:04:19.000Z</time>
      </trkpt>
      <trkpt lat="47.5144" lon="6.70906">
        <ele>441</ele>
        <time>2015-05-08T10:04:21.000Z</time>
      </trkpt>
      <trkpt lat="47.51438" lon="6.70905">
        <ele>441</ele>
        <time>2015-05-08T10:04:22.000Z</time>
      </trkpt>
      <trkpt lat="47.51436" lon="6.70905">
        <ele>442</ele>
        <time>2015-05-08T10:04:23.000Z</time>
      </trkpt>
      <trkpt lat="47.51433" lon="6.70904">
        <ele>442</ele>
        <time>2015-05-08T10:04:24.001Z</time>
      </trkpt>
      <trkpt lat="47.51431" lon="6.70904">
        <ele>442</ele>
        <time>2015-05-08T10:04:25.000Z</time>
      </trkpt>
      <trkpt lat="47.51428" lon="6.70903">
        <ele>443</ele>
        <time>2015-05-08T10:04:26.000Z</time>
      </trkpt>
      <trkpt lat="47.51426" lon="6.70903">
        <ele>443</ele>
        <time>2015-05-08T10:04:27.000Z</time>
      </trkpt>
      <trkpt lat="47.51423" lon="6.70903">
        <ele>444</ele>
        <time>2015-05-08T10:04:28.000Z</time>
      </trkpt>
      <trkpt lat="47.51421" lon="6.70903">
        <ele>444</ele>
        <time>2015-05-08T10:04:29.001Z</time>
      </trkpt>
      <trkpt lat="47.51418" lon="6.70903">
        <ele>444</ele>
        <time>2015-05-08T10:04:30.001Z</time>
      </trkpt>
      <trkpt lat="47.51414" lon="6.70902">
        <ele>449</ele>
        <time>2015-05-08T10:04:33.000Z</time>
      </trkpt>
      <trkpt lat="47.51413" lon="6.70902">
        <ele>449</ele>
        <time>2015-05-08T10:04:34.000Z</time>
      </trkpt>
      <trkpt lat="47.51409" lon="6.70901">
        <ele>449</ele>
        <time>2015-05-08T10:04:38.000Z</time>
      </trkpt>
      <trkpt lat="47.51408" lon="6.709">
        <ele>449</ele>
        <time>2015-05-08T10:04:39.000Z</time>
      </trkpt>
      <trkpt lat="47.51405" lon="6.70899">
        <ele>449</ele>
        <time>2015-05-08T10:04:41.000Z</time>
      </trkpt>
      <trkpt lat="47.51403" lon="6.70899">
        <ele>449</ele>
        <time>2015-05-08T10:04:42.000Z</time>
      </trkpt>
      <trkpt lat="47.51399" lon="6.70897">
        <ele>449</ele>
        <time>2015-05-08T10:04:44.000Z</time>
      </trkpt>
      <trkpt lat="47.51398" lon="6.70896">
        <ele>449</ele>
        <time>2015-05-08T10:04:45.000Z</time>
      </trkpt>
      <trkpt lat="47.51394" lon="6.70894">
        <ele>450</ele>
        <time>2015-05-08T10:04:47.000Z</time>
      </trkpt>
      <trkpt lat="47.51392" lon="6.70894">
        <ele>450</ele>
        <time>2015-05-08T10:04:48.000Z</time>
      </trkpt>
      <trkpt lat="47.51388" lon="6.70891">
        <ele>450</ele>
        <time>2015-05-08T10:04:51.000Z</time>
      </trkpt>
      <trkpt lat="47.51386" lon="6.70891">
        <ele>450</ele>
        <time>2015-05-08T10:04:52.000Z</time>
      </trkpt>
      <trkpt lat="47.51383" lon="6.70889">
        <ele>450</ele>
        <time>2015-05-08T10:04:54.000Z</time>
      </trkpt>
      <trkpt lat="47.51382" lon="6.70889">
        <ele>450</ele>
        <time>2015-05-08T10:04:55.000Z</time>
      </trkpt>
      <trkpt lat="47.51378" lon="6.70887">
        <ele>450</ele>
        <time>2015-05-08T10:04:57.000Z</time>
      </trkpt>
      <trkpt lat="47.51376" lon="6.70886">
        <ele>450</ele>
        <time>2015-05-08T10:04:58.000Z</time>
      </trkpt>
      <trkpt lat="47.51373" lon="6.70885">
        <ele>450</ele>
        <time>2015-05-08T10:04:59.000Z</time>
      </trkpt>
      <trkpt lat="47.5137" lon="6.70885">
        <ele>451</ele>
        <time>2015-05-08T10:05:00.000Z</time>
      </trkpt>
      <trkpt lat="47.51367" lon="6.70884">
        <ele>451</ele>
        <time>2015-05-08T10:05:01.000Z</time>
      </trkpt>
      <trkpt lat="47.51363" lon="6.70883">
        <ele>451</ele>
        <time>2015-05-08T10:05:02.000Z</time>
      </trkpt>
      <trkpt lat="47.5136" lon="6.70881">
        <ele>451</ele>
        <time>2015-05-08T10:05:03.000Z</time>
      </trkpt>
      <trkpt lat="47.51358" lon="6.7088">
        <ele>451</ele>
        <time>2015-05-08T10:05:04.000Z</time>
      </trkpt>
      <trkpt lat="47.51355" lon="6.70879">
        <ele>451</ele>
        <time>2015-05-08T10:05:05.000Z</time>
      </trkpt>
      <trkpt lat="47.51353" lon="6.70879">
        <ele>451</ele>
        <time>2015-05-08T10:05:06.000Z</time>
      </trkpt>
      <trkpt lat="47.51351" lon="6.70879">
        <ele>452</ele>
        <time>2015-05-08T10:05:07.000Z</time>
      </trkpt>
      <trkpt lat="47.51348" lon="6.70878">
        <ele>452</ele>
        <time>2015-05-08T10:05:08.000Z</time>
      </trkpt>
      <trkpt lat="47.51345" lon="6.70877">
        <ele>452</ele>
        <time>2015-05-08T10:05:10.000Z</time>
      </trkpt>
      <trkpt lat="47.51343" lon="6.70876">
        <ele>452</ele>
        <time>2015-05-08T10:05:11.000Z</time>
      </trkpt>
      <trkpt lat="47.51338" lon="6.70876">
        <ele>452</ele>
        <time>2015-05-08T10:05:13.000Z</time>
      </trkpt>
      <trkpt lat="47.51336" lon="6.70876">
        <ele>452</ele>
        <time>2015-05-08T10:05:14.000Z</time>
      </trkpt>
      <trkpt lat="47.51333" lon="6.70877">
        <ele>454</ele>
        <time>2015-05-08T10:05:16.000Z</time>
      </trkpt>
      <trkpt lat="47.51331" lon="6.70878">
        <ele>454</ele>
        <time>2015-05-08T10:05:17.000Z</time>
      </trkpt>
      <trkpt lat="47.51327" lon="6.70878">
        <ele>454</ele>
        <time>2015-05-08T10:05:19.000Z</time>
      </trkpt>
      <trkpt lat="47.51325" lon="6.70879">
        <ele>454</ele>
        <time>2015-05-08T10:05:20.000Z</time>
      </trkpt>
      <trkpt lat="47.51321" lon="6.70879">
        <ele>454</ele>
        <time>2015-05-08T10:05:21.000Z</time>
      </trkpt>
      <trkpt lat="47.51318" lon="6.70879">
        <ele>453</ele>
        <time>2015-05-08T10:05:22.000Z</time>
      </trkpt>
      <trkpt lat="47.51315" lon="6.70878">
        <ele>453</ele>
        <time>2015-05-08T10:05:23.000Z</time>
      </trkpt>
      <trkpt lat="47.51311" lon="6.70878">
        <ele>453</ele>
        <time>2015-05-08T10:05:24.000Z</time>
      </trkpt>
      <trkpt lat="47.51308" lon="6.70879">
        <ele>453</ele>
        <time>2015-05-08T10:05:25.000Z</time>
      </trkpt>
      <trkpt lat="47.51305" lon="6.7088">
        <ele>453</ele>
        <time>2015-05-08T10:05:26.000Z</time>
      </trkpt>
      <trkpt lat="47.51302" lon="6.70881">
        <ele>453</ele>
        <time>2015-05-08T10:05:27.000Z</time>
      </trkpt>
      <trkpt lat="47.51299" lon="6.70881">
        <ele>453</ele>
        <time>2015-05-08T10:05:28.000Z</time>
      </trkpt>
      <trkpt lat="47.51296" lon="6.70882">
        <ele>453</ele>
        <time>2015-05-08T10:05:29.000Z</time>
      </trkpt>
      <trkpt lat="47.51293" lon="6.70883">
        <ele>453</ele>
        <time>2015-05-08T10:05:30.000Z</time>
      </trkpt>
      <trkpt lat="47.5129" lon="6.70884">
        <ele>453</ele>
        <time>2015-05-08T10:05:31.000Z</time>
      </trkpt>
      <trkpt lat="47.51287" lon="6.70885">
        <ele>453</ele>
        <time>2015-05-08T10:05:32.000Z</time>
      </trkpt>
      <trkpt lat="47.51284" lon="6.70887">
        <ele>452</ele>
        <time>2015-05-08T10:05:33.000Z</time>
      </trkpt>
      <trkpt lat="47.51281" lon="6.70888">
        <ele>452</ele>
        <time>2015-05-08T10:05:34.000Z</time>
      </trkpt>
      <trkpt lat="47.51279" lon="6.7089">
        <ele>452</ele>
        <time>2015-05-08T10:05:35.000Z</time>
      </trkpt>
      <trkpt lat="47.51276" lon="6.70892">
        <ele>452</ele>
        <time>2015-05-08T10:05:36.000Z</time>
      </trkpt>
      <trkpt lat="47.51273" lon="6.70893">
        <ele>452</ele>
        <time>2015-05-08T10:05:37.000Z</time>
      </trkpt>
      <trkpt lat="47.51271" lon="6.70894">
        <ele>452</ele>
        <time>2015-05-08T10:05:38.000Z</time>
      </trkpt>
      <trkpt lat="47.51269" lon="6.709">
        <ele>452</ele>
        <time>2015-05-08T10:05:42.000Z</time>
      </trkpt>
      <trkpt lat="47.51269" lon="6.70902">
        <ele>452</ele>
        <time>2015-05-08T10:05:43.000Z</time>
      </trkpt>
      <trkpt lat="47.51269" lon="6.70907">
        <ele>452</ele>
        <time>2015-05-08T10:05:45.000Z</time>
      </trkpt>
      <trkpt lat="47.51268" lon="6.70909">
        <ele>452</ele>
        <time>2015-05-08T10:05:46.000Z</time>
      </trkpt>
      <trkpt lat="47.51266" lon="6.70913">
        <ele>452</ele>
        <time>2015-05-08T10:05:48.000Z</time>
      </trkpt>
      <trkpt lat="47.51266" lon="6.70916">
        <ele>452</ele>
        <time>2015-05-08T10:05:49.000Z</time>
      </trkpt>
      <trkpt lat="47.51265" lon="6.7092">
        <ele>453</ele>
        <time>2015-05-08T10:05:51.000Z</time>
      </trkpt>
      <trkpt lat="47.51265" lon="6.70922">
        <ele>453</ele>
        <time>2015-05-08T10:05:52.000Z</time>
      </trkpt>
      <trkpt lat="47.51263" lon="6.70928">
        <ele>453</ele>
        <time>2015-05-08T10:05:55.000Z</time>
      </trkpt>
      <trkpt lat="47.51262" lon="6.7093">
        <ele>453</ele>
        <time>2015-05-08T10:05:56.000Z</time>
      </trkpt>
      <trkpt lat="47.51261" lon="6.70934">
        <ele>453</ele>
        <time>2015-05-08T10:05:57.000Z</time>
      </trkpt>
      <trkpt lat="47.5126" lon="6.70938">
        <ele>453</ele>
        <time>2015-05-08T10:05:58.000Z</time>
      </trkpt>
      <trkpt lat="47.5126" lon="6.70942">
        <ele>454</ele>
        <time>2015-05-08T10:05:59.000Z</time>
      </trkpt>
      <trkpt lat="47.51259" lon="6.70946">
        <ele>454</ele>
        <time>2015-05-08T10:06:00.000Z</time>
      </trkpt>
      <trkpt lat="47.51259" lon="6.70951">
        <ele>454</ele>
        <time>2015-05-08T10:06:01.000Z</time>
      </trkpt>
      <trkpt lat="47.51259" lon="6.70955">
        <ele>454</ele>
        <time>2015-05-08T10:06:02.000Z</time>
      </trkpt>
      <trkpt lat="47.5126" lon="6.7096">
        <ele>454</ele>
        <time>2015-05-08T10:06:03.000Z</time>
      </trkpt>
      <trkpt lat="47.5126" lon="6.70964">
        <ele>454</ele>
        <time>2015-05-08T10:06:04.000Z</time>
      </trkpt>
      <trkpt lat="47.5126" lon="6.70967">
        <ele>454</ele>
        <time>2015-05-08T10:06:05.000Z</time>
      </trkpt>
      <trkpt lat="47.5126" lon="6.70971">
        <ele>454</ele>
        <time>2015-05-08T10:06:06.000Z</time>
      </trkpt>
      <trkpt lat="47.5126" lon="6.70974">
        <ele>454</ele>
        <time>2015-05-08T10:06:07.000Z</time>
      </trkpt>
      <trkpt lat="47.51259" lon="6.70978">
        <ele>454</ele>
        <time>2015-05-08T10:06:08.000Z</time>
      </trkpt>
      <trkpt lat="47.51258" lon="6.70981">
        <ele>454</ele>
        <time>2015-05-08T10:06:09.000Z</time>
      </trkpt>
      <trkpt lat="47.51257" lon="6.70985">
        <ele>454</ele>
        <time>2015-05-08T10:06:10.000Z</time>
      </trkpt>
      <trkpt lat="47.51256" lon="6.7099">
        <ele>454</ele>
        <time>2015-05-08T10:06:11.000Z</time>
      </trkpt>
      <trkpt lat="47.51255" lon="6.70994">
        <ele>454</ele>
        <time>2015-05-08T10:06:12.000Z</time>
      </trkpt>
      <trkpt lat="47.51254" lon="6.70999">
        <ele>453</ele>
        <time>2015-05-08T10:06:13.000Z</time>
      </trkpt>
      <trkpt lat="47.51253" lon="6.71004">
        <ele>454</ele>
        <time>2015-05-08T10:06:14.000Z</time>
      </trkpt>
      <trkpt lat="47.51251" lon="6.71009">
        <ele>454</ele>
        <time>2015-05-08T10:06:15.000Z</time>
      </trkpt>
      <trkpt lat="47.5125" lon="6.71015">
        <ele>455</ele>
        <time>2015-05-08T10:06:16.000Z</time>
      </trkpt>
      <trkpt lat="47.51249" lon="6.71021">
        <ele>448</ele>
        <time>2015-05-08T10:06:17.000Z</time>
      </trkpt>
      <trkpt lat="47.51248" lon="6.71028">
        <ele>447</ele>
        <time>2015-05-08T10:06:18.000Z</time>
      </trkpt>
      <trkpt lat="47.51246" lon="6.71034">
        <ele>447</ele>
        <time>2015-05-08T10:06:19.000Z</time>
      </trkpt>
      <trkpt lat="47.51245" lon="6.7104">
        <ele>447</ele>
        <time>2015-05-08T10:06:20.000Z</time>
      </trkpt>
      <trkpt lat="47.51244" lon="6.71047">
        <ele>447</ele>
        <time>2015-05-08T10:06:21.000Z</time>
      </trkpt>
      <trkpt lat="47.51244" lon="6.71054">
        <ele>448</ele>
        <time>2015-05-08T10:06:22.000Z</time>
      </trkpt>
      <trkpt lat="47.51243" lon="6.71061">
        <ele>448</ele>
        <time>2015-05-08T10:06:23.000Z</time>
      </trkpt>
      <trkpt lat="47.51242" lon="6.71069">
        <ele>450</ele>
        <time>2015-05-08T10:06:24.000Z</time>
      </trkpt>
      <trkpt lat="47.51242" lon="6.71077">
        <ele>452</ele>
        <time>2015-05-08T10:06:25.000Z</time>
      </trkpt>
      <trkpt lat="47.51242" lon="6.71085">
        <ele>453</ele>
        <time>2015-05-08T10:06:26.000Z</time>
      </trkpt>
      <trkpt lat="47.51242" lon="6.71094">
        <ele>451</ele>
        <time>2015-05-08T10:06:27.000Z</time>
      </trkpt>
      <trkpt lat="47.51242" lon="6.71103">
        <ele>450</ele>
        <time>2015-05-08T10:06:28.000Z</time>
      </trkpt>
      <trkpt lat="47.51242" lon="6.71111">
        <ele>449</ele>
        <time>2015-05-08T10:06:29.000Z</time>
      </trkpt>
      <trkpt lat="47.51241" lon="6.71118">
        <ele>448</ele>
        <time>2015-05-08T10:06:30.000Z</time>
      </trkpt>
      <trkpt lat="47.51241" lon="6.71125">
        <ele>448</ele>
        <time>2015-05-08T10:06:31.000Z</time>
      </trkpt>
      <trkpt lat="47.5124" lon="6.71133">
        <ele>448</ele>
        <time>2015-05-08T10:06:32.000Z</time>
      </trkpt>
      <trkpt lat="47.5124" lon="6.7114">
        <ele>449</ele>
        <time>2015-05-08T10:06:33.000Z</time>
      </trkpt>
      <trkpt lat="47.51239" lon="6.71147">
        <ele>449</ele>
        <time>2015-05-08T10:06:34.000Z</time>
      </trkpt>
      <trkpt lat="47.51239" lon="6.71154">
        <ele>450</ele>
        <time>2015-05-08T10:06:35.000Z</time>
      </trkpt>
      <trkpt lat="47.51238" lon="6.7116">
        <ele>451</ele>
        <time>2015-05-08T10:06:36.000Z</time>
      </trkpt>
      <trkpt lat="47.51237" lon="6.71167">
        <ele>451</ele>
        <time>2015-05-08T10:06:37.000Z</time>
      </trkpt>
      <trkpt lat="47.51236" lon="6.71173">
        <ele>451</ele>
        <time>2015-05-08T10:06:38.000Z</time>
      </trkpt>
      <trkpt lat="47.51236" lon="6.71182">
        <ele>450</ele>
        <time>2015-05-08T10:06:39.000Z</time>
      </trkpt>
      <trkpt lat="47.51235" lon="6.7119">
        <ele>450</ele>
        <time>2015-05-08T10:06:40.000Z</time>
      </trkpt>
      <trkpt lat="47.51235" lon="6.71199">
        <ele>449</ele>
        <time>2015-05-08T10:06:41.000Z</time>
      </trkpt>
      <trkpt lat="47.51234" lon="6.71207">
        <ele>449</ele>
        <time>2015-05-08T10:06:42.000Z</time>
      </trkpt>
      <trkpt lat="47.51233" lon="6.71215">
        <ele>449</ele>
        <time>2015-05-08T10:06:43.000Z</time>
      </trkpt>
      <trkpt lat="47.51232" lon="6.71222">
        <ele>450</ele>
        <time>2015-05-08T10:06:44.000Z</time>
      </trkpt>
      <trkpt lat="47.51231" lon="6.71229">
        <ele>450</ele>
        <time>2015-05-08T10:06:45.000Z</time>
      </trkpt>
      <trkpt lat="47.51229" lon="6.71235">
        <ele>450</ele>
        <time>2015-05-08T10:06:46.000Z</time>
      </trkpt>
      <trkpt lat="47.51228" lon="6.7124">
        <ele>450</ele>
        <time>2015-05-08T10:06:47.000Z</time>
      </trkpt>
      <trkpt lat="47.51227" lon="6.71245">
        <ele>450</ele>
        <time>2015-05-08T10:06:48.000Z</time>
      </trkpt>
      <trkpt lat="47.51226" lon="6.7125">
        <ele>450</ele>
        <time>2015-05-08T10:06:49.000Z</time>
      </trkpt>
      <trkpt lat="47.51225" lon="6.71255">
        <ele>451</ele>
        <time>2015-05-08T10:06:50.000Z</time>
      </trkpt>
      <trkpt lat="47.51224" lon="6.71261">
        <ele>451</ele>
        <time>2015-05-08T10:06:51.000Z</time>
      </trkpt>
      <trkpt lat="47.51223" lon="6.71266">
        <ele>451</ele>
        <time>2015-05-08T10:06:52.000Z</time>
      </trkpt>
      <trkpt lat="47.51222" lon="6.71272">
        <ele>450</ele>
        <time>2015-05-08T10:06:53.000Z</time>
      </trkpt>
      <trkpt lat="47.51221" lon="6.71278">
        <ele>450</ele>
        <time>2015-05-08T10:06:54.000Z</time>
      </trkpt>
      <trkpt lat="47.5122" lon="6.71285">
        <ele>450</ele>
        <time>2015-05-08T10:06:55.000Z</time>
      </trkpt>
      <trkpt lat="47.51219" lon="6.71292">
        <ele>450</ele>
        <time>2015-05-08T10:06:56.000Z</time>
      </trkpt>
      <trkpt lat="47.51218" lon="6.71298">
        <ele>450</ele>
        <time>2015-05-08T10:06:57.000Z</time>
      </trkpt>
      <trkpt lat="47.51218" lon="6.71304">
        <ele>450</ele>
        <time>2015-05-08T10:06:58.000Z</time>
      </trkpt>
      <trkpt lat="47.51217" lon="6.7131">
        <ele>450</ele>
        <time>2015-05-08T10:06:59.000Z</time>
      </trkpt>
      <trkpt lat="47.51216" lon="6.71315">
        <ele>450</ele>
        <time>2015-05-08T10:07:00.000Z</time>
      </trkpt>
      <trkpt lat="47.51215" lon="6.7132">
        <ele>450</ele>
        <time>2015-05-08T10:07:01.000Z</time>
      </trkpt>
      <trkpt lat="47.51215" lon="6.71325">
        <ele>450</ele>
        <time>2015-05-08T10:07:02.000Z</time>
      </trkpt>
      <trkpt lat="47.51214" lon="6.7133">
        <ele>450</ele>
        <time>2015-05-08T10:07:03.000Z</time>
      </trkpt>
      <trkpt lat="47.51214" lon="6.71335">
        <ele>450</ele>
        <time>2015-05-08T10:07:04.000Z</time>
      </trkpt>
      <trkpt lat="47.51214" lon="6.7134">
        <ele>450</ele>
        <time>2015-05-08T10:07:05.000Z</time>
      </trkpt>
      <trkpt lat="47.51215" lon="6.71343">
        <ele>451</ele>
        <time>2015-05-08T10:07:06.000Z</time>
      </trkpt>
      <trkpt lat="47.51215" lon="6.71348">
        <ele>451</ele>
        <time>2015-05-08T10:07:07.000Z</time>
      </trkpt>
      <trkpt lat="47.51216" lon="6.71353">
        <ele>451</ele>
        <time>2015-05-08T10:07:08.000Z</time>
      </trkpt>
      <trkpt lat="47.51217" lon="6.71359">
        <ele>451</ele>
        <time>2015-05-08T10:07:09.000Z</time>
      </trkpt>
      <trkpt lat="47.51217" lon="6.71365">
        <ele>451</ele>
        <time>2015-05-08T10:07:10.000Z</time>
      </trkpt>
      <trkpt lat="47.51216" lon="6.7137">
        <ele>451</ele>
        <time>2015-05-08T10:07:11.000Z</time>
      </trkpt>
      <trkpt lat="47.51215" lon="6.71374">
        <ele>450</ele>
        <time>2015-05-08T10:07:12.000Z</time>
      </trkpt>
      <trkpt lat="47.51215" lon="6.71379">
        <ele>450</ele>
        <time>2015-05-08T10:07:13.000Z</time>
      </trkpt>
      <trkpt lat="47.51215" lon="6.71384">
        <ele>450</ele>
        <time>2015-05-08T10:07:14.000Z</time>
      </trkpt>
      <trkpt lat="47.51215" lon="6.7139">
        <ele>451</ele>
        <time>2015-05-08T10:07:15.000Z</time>
      </trkpt>
      <trkpt lat="47.51216" lon="6.71397">
        <ele>451</ele>
        <time>2015-05-08T10:07:16.000Z</time>
      </trkpt>
      <trkpt lat="47.51217" lon="6.71404">
        <ele>451</ele>
        <time>2015-05-08T10:07:17.000Z</time>
      </trkpt>
      <trkpt lat="47.51219" lon="6.71411">
        <ele>451</ele>
        <time>2015-05-08T10:07:18.000Z</time>
      </trkpt>
      <trkpt lat="47.5122" lon="6.71417">
        <ele>452</ele>
        <time>2015-05-08T10:07:19.000Z</time>
      </trkpt>
      <trkpt lat="47.5122" lon="6.71423">
        <ele>452</ele>
        <time>2015-05-08T10:07:20.000Z</time>
      </trkpt>
      <trkpt lat="47.5122" lon="6.71428">
        <ele>452</ele>
        <time>2015-05-08T10:07:21.000Z</time>
      </trkpt>
      <trkpt lat="47.5122" lon="6.71433">
        <ele>452</ele>
        <time>2015-05-08T10:07:22.000Z</time>
      </trkpt>
      <trkpt lat="47.51219" lon="6.71437">
        <ele>452</ele>
        <time>2015-05-08T10:07:23.000Z</time>
      </trkpt>
      <trkpt lat="47.51218" lon="6.71441">
        <ele>452</ele>
        <time>2015-05-08T10:07:24.000Z</time>
      </trkpt>
      <trkpt lat="47.51217" lon="6.71445">
        <ele>452</ele>
        <time>2015-05-08T10:07:25.000Z</time>
      </trkpt>
      <trkpt lat="47.51216" lon="6.71449">
        <ele>452</ele>
        <time>2015-05-08T10:07:26.000Z</time>
      </trkpt>
      <trkpt lat="47.51215" lon="6.71453">
        <ele>452</ele>
        <time>2015-05-08T10:07:27.000Z</time>
      </trkpt>
      <trkpt lat="47.51213" lon="6.71456">
        <ele>452</ele>
        <time>2015-05-08T10:07:28.000Z</time>
      </trkpt>
      <trkpt lat="47.51212" lon="6.7146">
        <ele>452</ele>
        <time>2015-05-08T10:07:29.000Z</time>
      </trkpt>
      <trkpt lat="47.5121" lon="6.71463">
        <ele>452</ele>
        <time>2015-05-08T10:07:30.000Z</time>
      </trkpt>
      <trkpt lat="47.51209" lon="6.71467">
        <ele>452</ele>
        <time>2015-05-08T10:07:31.000Z</time>
      </trkpt>
      <trkpt lat="47.51207" lon="6.71471">
        <ele>452</ele>
        <time>2015-05-08T10:07:32.000Z</time>
      </trkpt>
      <trkpt lat="47.51206" lon="6.71477">
        <ele>452</ele>
        <time>2015-05-08T10:07:33.000Z</time>
      </trkpt>
      <trkpt lat="47.51205" lon="6.71483">
        <ele>452</ele>
        <time>2015-05-08T10:07:34.000Z</time>
      </trkpt>
      <trkpt lat="47.51204" lon="6.71489">
        <ele>452</ele>
        <time>2015-05-08T10:07:35.000Z</time>
      </trkpt>
      <trkpt lat="47.51203" lon="6.71495">
        <ele>452</ele>
        <time>2015-05-08T10:07:36.000Z</time>
      </trkpt>
      <trkpt lat="47.51202" lon="6.715">
        <ele>453</ele>
        <time>2015-05-08T10:07:37.000Z</time>
      </trkpt>
      <trkpt lat="47.51202" lon="6.71505">
        <ele>453</ele>
        <time>2015-05-08T10:07:38.000Z</time>
      </trkpt>
      <trkpt lat="47.51201" lon="6.71511">
        <ele>453</ele>
        <time>2015-05-08T10:07:39.000Z</time>
      </trkpt>
      <trkpt lat="47.512" lon="6.71518">
        <ele>453</ele>
        <time>2015-05-08T10:07:40.000Z</time>
      </trkpt>
      <trkpt lat="47.51199" lon="6.71524">
        <ele>453</ele>
        <time>2015-05-08T10:07:41.000Z</time>
      </trkpt>
      <trkpt lat="47.51197" lon="6.7153">
        <ele>453</ele>
        <time>2015-05-08T10:07:42.000Z</time>
      </trkpt>
      <trkpt lat="47.51195" lon="6.71536">
        <ele>453</ele>
        <time>2015-05-08T10:07:43.000Z</time>
      </trkpt>
      <trkpt lat="47.51194" lon="6.71541">
        <ele>453</ele>
        <time>2015-05-08T10:07:44.000Z</time>
      </trkpt>
      <trkpt lat="47.51193" lon="6.71546">
        <ele>453</ele>
        <time>2015-05-08T10:07:45.000Z</time>
      </trkpt>
      <trkpt lat="47.51193" lon="6.7155">
        <ele>453</ele>
        <time>2015-05-08T10:07:46.000Z</time>
      </trkpt>
      <trkpt lat="47.51192" lon="6.71555">
        <ele>453</ele>
        <time>2015-05-08T10:07:47.000Z</time>
      </trkpt>
      <trkpt lat="47.51192" lon="6.7156">
        <ele>453</ele>
        <time>2015-05-08T10:07:48.000Z</time>
      </trkpt>
      <trkpt lat="47.51192" lon="6.71566">
        <ele>453</ele>
        <time>2015-05-08T10:07:49.000Z</time>
      </trkpt>
      <trkpt lat="47.51192" lon="6.71572">
        <ele>453</ele>
        <time>2015-05-08T10:07:50.000Z</time>
      </trkpt>
      <trkpt lat="47.51192" lon="6.71578">
        <ele>453</ele>
        <time>2015-05-08T10:07:51.000Z</time>
      </trkpt>
      <trkpt lat="47.51191" lon="6.71584">
        <ele>453</ele>
        <time>2015-05-08T10:07:52.000Z</time>
      </trkpt>
      <trkpt lat="47.51191" lon="6.71589">
        <ele>453</ele>
        <time>2015-05-08T10:07:53.000Z</time>
      </trkpt>
      <trkpt lat="47.5119" lon="6.71593">
        <ele>453</ele>
        <time>2015-05-08T10:07:54.000Z</time>
      </trkpt>
      <trkpt lat="47.51189" lon="6.71598">
        <ele>453</ele>
        <time>2015-05-08T10:07:55.000Z</time>
      </trkpt>
      <trkpt lat="47.51188" lon="6.71602">
        <ele>453</ele>
        <time>2015-05-08T10:07:56.000Z</time>
      </trkpt>
      <trkpt lat="47.51187" lon="6.71607">
        <ele>453</ele>
        <time>2015-05-08T10:07:57.000Z</time>
      </trkpt>
      <trkpt lat="47.51187" lon="6.71611">
        <ele>453</ele>
        <time>2015-05-08T10:07:58.000Z</time>
      </trkpt>
      <trkpt lat="47.51187" lon="6.71616">
        <ele>453</ele>
        <time>2015-05-08T10:07:59.000Z</time>
      </trkpt>
      <trkpt lat="47.51187" lon="6.71621">
        <ele>453</ele>
        <time>2015-05-08T10:08:00.000Z</time>
      </trkpt>
      <trkpt lat="47.51187" lon="6.71626">
        <ele>453</ele>
        <time>2015-05-08T10:08:01.000Z</time>
      </trkpt>
      <trkpt lat="47.51188" lon="6.7163">
        <ele>453</ele>
        <time>2015-05-08T10:08:02.000Z</time>
      </trkpt>
      <trkpt lat="47.51189" lon="6.71635">
        <ele>453</ele>
        <time>2015-05-08T10:08:03.000Z</time>
      </trkpt>
      <trkpt lat="47.5119" lon="6.7164">
        <ele>453</ele>
        <time>2015-05-08T10:08:04.000Z</time>
      </trkpt>
      <trkpt lat="47.51192" lon="6.71644">
        <ele>453</ele>
        <time>2015-05-08T10:08:05.000Z</time>
      </trkpt>
      <trkpt lat="47.51192" lon="6.71648">
        <ele>453</ele>
        <time>2015-05-08T10:08:06.000Z</time>
      </trkpt>
      <trkpt lat="47.51191" lon="6.71652">
        <ele>453</ele>
        <time>2015-05-08T10:08:07.000Z</time>
      </trkpt>
      <trkpt lat="47.5119" lon="6.71656">
        <ele>453</ele>
        <time>2015-05-08T10:08:08.000Z</time>
      </trkpt>
      <trkpt lat="47.51189" lon="6.7166">
        <ele>453</ele>
        <time>2015-05-08T10:08:09.000Z</time>
      </trkpt>
      <trkpt lat="47.51189" lon="6.71664">
        <ele>453</ele>
        <time>2015-05-08T10:08:10.000Z</time>
      </trkpt>
      <trkpt lat="47.51188" lon="6.71669">
        <ele>453</ele>
        <time>2015-05-08T10:08:11.000Z</time>
      </trkpt>
      <trkpt lat="47.51187" lon="6.71674">
        <ele>453</ele>
        <time>2015-05-08T10:08:12.000Z</time>
      </trkpt>
      <trkpt lat="47.51187" lon="6.71679">
        <ele>453</ele>
        <time>2015-05-08T10:08:13.000Z</time>
      </trkpt>
      <trkpt lat="47.51186" lon="6.71684">
        <ele>453</ele>
        <time>2015-05-08T10:08:14.000Z</time>
      </trkpt>
      <trkpt lat="47.51186" lon="6.71689">
        <ele>453</ele>
        <time>2015-05-08T10:08:15.000Z</time>
      </trkpt>
      <trkpt lat="47.51185" lon="6.71693">
        <ele>453</ele>
        <time>2015-05-08T10:08:16.000Z</time>
      </trkpt>
      <trkpt lat="47.51186" lon="6.71696">
        <ele>453</ele>
        <time>2015-05-08T10:08:17.000Z</time>
      </trkpt>
      <trkpt lat="47.51186" lon="6.71701">
        <ele>453</ele>
        <time>2015-05-08T10:08:18.000Z</time>
      </trkpt>
      <trkpt lat="47.51188" lon="6.71705">
        <ele>453</ele>
        <time>2015-05-08T10:08:19.000Z</time>
      </trkpt>
      <trkpt lat="47.51189" lon="6.71709">
        <ele>453</ele>
        <time>2015-05-08T10:08:20.000Z</time>
      </trkpt>
      <trkpt lat="47.5119" lon="6.71713">
        <ele>453</ele>
        <time>2015-05-08T10:08:21.000Z</time>
      </trkpt>
      <trkpt lat="47.51191" lon="6.71717">
        <ele>453</ele>
        <time>2015-05-08T10:08:22.000Z</time>
      </trkpt>
      <trkpt lat="47.51192" lon="6.71721">
        <ele>453</ele>
        <time>2015-05-08T10:08:23.000Z</time>
      </trkpt>
      <trkpt lat="47.51192" lon="6.71726">
        <ele>453</ele>
        <time>2015-05-08T10:08:24.000Z</time>
      </trkpt>
      <trkpt lat="47.51192" lon="6.71731">
        <ele>453</ele>
        <time>2015-05-08T10:08:25.000Z</time>
      </trkpt>
      <trkpt lat="47.51192" lon="6.71737">
        <ele>453</ele>
        <time>2015-05-08T10:08:26.000Z</time>
      </trkpt>
      <trkpt lat="47.51192" lon="6.71744">
        <ele>453</ele>
        <time>2015-05-08T10:08:27.000Z</time>
      </trkpt>
      <trkpt lat="47.51193" lon="6.71751">
        <ele>452</ele>
        <time>2015-05-08T10:08:28.000Z</time>
      </trkpt>
      <trkpt lat="47.51194" lon="6.71758">
        <ele>452</ele>
        <time>2015-05-08T10:08:29.000Z</time>
      </trkpt>
      <trkpt lat="47.51196" lon="6.71766">
        <ele>452</ele>
        <time>2015-05-08T10:08:30.000Z</time>
      </trkpt>
      <trkpt lat="47.51198" lon="6.71773">
        <ele>452</ele>
        <time>2015-05-08T10:08:31.000Z</time>
      </trkpt>
      <trkpt lat="47.512" lon="6.71781">
        <ele>452</ele>
        <time>2015-05-08T10:08:32.000Z</time>
      </trkpt>
      <trkpt lat="47.51202" lon="6.71789">
        <ele>452</ele>
        <time>2015-05-08T10:08:33.000Z</time>
      </trkpt>
      <trkpt lat="47.51203" lon="6.71796">
        <ele>452</ele>
        <time>2015-05-08T10:08:34.000Z</time>
      </trkpt>
      <trkpt lat="47.51204" lon="6.71804">
        <ele>452</ele>
        <time>2015-05-08T10:08:35.000Z</time>
      </trkpt>
      <trkpt lat="47.51205" lon="6.71812">
        <ele>452</ele>
        <time>2015-05-08T10:08:36.000Z</time>
      </trkpt>
      <trkpt lat="47.51206" lon="6.71817">
        <ele>452</ele>
        <time>2015-05-08T10:08:36.998Z</time>
      </trkpt>
      <trkpt lat="47.51206" lon="6.71829">
        <ele>452</ele>
        <time>2015-05-08T10:08:38.000Z</time>
      </trkpt>
      <trkpt lat="47.51207" lon="6.71837">
        <ele>450</ele>
        <time>2015-05-08T10:08:39.000Z</time>
      </trkpt>
      <trkpt lat="47.51207" lon="6.71845">
        <ele>450</ele>
        <time>2015-05-08T10:08:40.000Z</time>
      </trkpt>
      <trkpt lat="47.51207" lon="6.71853">
        <ele>450</ele>
        <time>2015-05-08T10:08:41.000Z</time>
      </trkpt>
      <trkpt lat="47.51208" lon="6.7186">
        <ele>450</ele>
        <time>2015-05-08T10:08:42.000Z</time>
      </trkpt>
      <trkpt lat="47.51208" lon="6.71868">
        <ele>450</ele>
        <time>2015-05-08T10:08:43.000Z</time>
      </trkpt>
      <trkpt lat="47.51208" lon="6.71875">
        <ele>450</ele>
        <time>2015-05-08T10:08:44.000Z</time>
      </trkpt>
      <trkpt lat="47.51209" lon="6.71881">
        <ele>450</ele>
        <time>2015-05-08T10:08:45.000Z</time>
      </trkpt>
      <trkpt lat="47.51209" lon="6.71888">
        <ele>450</ele>
        <time>2015-05-08T10:08:46.000Z</time>
      </trkpt>
      <trkpt lat="47.5121" lon="6.71897">
        <ele>450</ele>
        <time>2015-05-08T10:08:47.000Z</time>
      </trkpt>
      <trkpt lat="47.51212" lon="6.71906">
        <ele>450</ele>
        <time>2015-05-08T10:08:48.000Z</time>
      </trkpt>
      <trkpt lat="47.51213" lon="6.71914">
        <ele>450</ele>
        <time>2015-05-08T10:08:49.000Z</time>
      </trkpt>
      <trkpt lat="47.51214" lon="6.71921">
        <ele>449</ele>
        <time>2015-05-08T10:08:50.000Z</time>
      </trkpt>
      <trkpt lat="47.51215" lon="6.71928">
        <ele>449</ele>
        <time>2015-05-08T10:08:51.000Z</time>
      </trkpt>
      <trkpt lat="47.51215" lon="6.71935">
        <ele>449</ele>
        <time>2015-05-08T10:08:52.000Z</time>
      </trkpt>
      <trkpt lat="47.51214" lon="6.71941">
        <ele>449</ele>
        <time>2015-05-08T10:08:53.000Z</time>
      </trkpt>
      <trkpt lat="47.51213" lon="6.71951">
        <ele>449</ele>
        <time>2015-05-08T10:08:54.000Z</time>
      </trkpt>
      <trkpt lat="47.51214" lon="6.71985">
        <ele>448</ele>
        <time>2015-05-08T10:08:55.000Z</time>
      </trkpt>
      <trkpt lat="47.51214" lon="6.71994">
        <ele>448</ele>
        <time>2015-05-08T10:08:56.000Z</time>
      </trkpt>
      <trkpt lat="47.51213" lon="6.72003">
        <ele>447</ele>
        <time>2015-05-08T10:08:57.000Z</time>
      </trkpt>
      <trkpt lat="47.51213" lon="6.72008">
        <ele>447</ele>
        <time>2015-05-08T10:08:58.000Z</time>
      </trkpt>
      <trkpt lat="47.51212" lon="6.72012">
        <ele>447</ele>
        <time>2015-05-08T10:08:59.000Z</time>
      </trkpt>
      <trkpt lat="47.51214" lon="6.72025">
        <ele>447</ele>
        <time>2015-05-08T10:09:00.000Z</time>
      </trkpt>
      <trkpt lat="47.51215" lon="6.72033">
        <ele>447</ele>
        <time>2015-05-08T10:09:01.000Z</time>
      </trkpt>
      <trkpt lat="47.51215" lon="6.72039">
        <ele>447</ele>
        <time>2015-05-08T10:09:02.000Z</time>
      </trkpt>
      <trkpt lat="47.51215" lon="6.72048">
        <ele>447</ele>
        <time>2015-05-08T10:09:03.000Z</time>
      </trkpt>
      <trkpt lat="47.51215" lon="6.72058">
        <ele>447</ele>
        <time>2015-05-08T10:09:04.000Z</time>
      </trkpt>
      <trkpt lat="47.51216" lon="6.72067">
        <ele>447</ele>
        <time>2015-05-08T10:09:05.000Z</time>
      </trkpt>
      <trkpt lat="47.51217" lon="6.72073">
        <ele>447</ele>
        <time>2015-05-08T10:09:06.000Z</time>
      </trkpt>
      <trkpt lat="47.51218" lon="6.7208">
        <ele>447</ele>
        <time>2015-05-08T10:09:07.000Z</time>
      </trkpt>
      <trkpt lat="47.51218" lon="6.72087">
        <ele>446</ele>
        <time>2015-05-08T10:09:08.000Z</time>
      </trkpt>
      <trkpt lat="47.51218" lon="6.72093">
        <ele>446</ele>
        <time>2015-05-08T10:09:09.000Z</time>
      </trkpt>
      <trkpt lat="47.51218" lon="6.72099">
        <ele>446</ele>
        <time>2015-05-08T10:09:10.000Z</time>
      </trkpt>
      <trkpt lat="47.51217" lon="6.72106">
        <ele>445</ele>
        <time>2015-05-08T10:09:11.000Z</time>
      </trkpt>
      <trkpt lat="47.51217" lon="6.72114">
        <ele>445</ele>
        <time>2015-05-08T10:09:12.000Z</time>
      </trkpt>
      <trkpt lat="47.51217" lon="6.72122">
        <ele>445</ele>
        <time>2015-05-08T10:09:13.000Z</time>
      </trkpt>
      <trkpt lat="47.51217" lon="6.7213">
        <ele>445</ele>
        <time>2015-05-08T10:09:14.000Z</time>
      </trkpt>
      <trkpt lat="47.51216" lon="6.72136">
        <ele>445</ele>
        <time>2015-05-08T10:09:15.000Z</time>
      </trkpt>
      <trkpt lat="47.51216" lon="6.72142">
        <ele>444</ele>
        <time>2015-05-08T10:09:16.000Z</time>
      </trkpt>
      <trkpt lat="47.51216" lon="6.72147">
        <ele>444</ele>
        <time>2015-05-08T10:09:17.000Z</time>
      </trkpt>
      <trkpt lat="47.51217" lon="6.72153">
        <ele>444</ele>
        <time>2015-05-08T10:09:18.000Z</time>
      </trkpt>
      <trkpt lat="47.51218" lon="6.72158">
        <ele>444</ele>
        <time>2015-05-08T10:09:19.000Z</time>
      </trkpt>
      <trkpt lat="47.5122" lon="6.72163">
        <ele>444</ele>
        <time>2015-05-08T10:09:20.000Z</time>
      </trkpt>
      <trkpt lat="47.51222" lon="6.72167">
        <ele>443</ele>
        <time>2015-05-08T10:09:21.000Z</time>
      </trkpt>
      <trkpt lat="47.51224" lon="6.7217">
        <ele>443</ele>
        <time>2015-05-08T10:09:22.000Z</time>
      </trkpt>
      <trkpt lat="47.51225" lon="6.72175">
        <ele>443</ele>
        <time>2015-05-08T10:09:23.000Z</time>
      </trkpt>
      <trkpt lat="47.51226" lon="6.7218">
        <ele>443</ele>
        <time>2015-05-08T10:09:24.000Z</time>
      </trkpt>
      <trkpt lat="47.51226" lon="6.72184">
        <ele>442</ele>
        <time>2015-05-08T10:09:25.000Z</time>
      </trkpt>
      <trkpt lat="47.51226" lon="6.72189">
        <ele>442</ele>
        <time>2015-05-08T10:09:26.000Z</time>
      </trkpt>
      <trkpt lat="47.51225" lon="6.72193">
        <ele>442</ele>
        <time>2015-05-08T10:09:27.000Z</time>
      </trkpt>
      <trkpt lat="47.51224" lon="6.72197">
        <ele>442</ele>
        <time>2015-05-08T10:09:28.000Z</time>
      </trkpt>
      <trkpt lat="47.51224" lon="6.722">
        <ele>442</ele>
        <time>2015-05-08T10:09:28.980Z</time>
      </trkpt>
      <trkpt lat="47.51223" lon="6.72204">
        <ele>442</ele>
        <time>2015-05-08T10:09:30.000Z</time>
      </trkpt>
      <trkpt lat="47.51222" lon="6.72209">
        <ele>442</ele>
        <time>2015-05-08T10:09:31.000Z</time>
      </trkpt>
      <trkpt lat="47.51221" lon="6.72213">
        <ele>441</ele>
        <time>2015-05-08T10:09:32.000Z</time>
      </trkpt>
      <trkpt lat="47.5122" lon="6.72217">
        <ele>441</ele>
        <time>2015-05-08T10:09:33.000Z</time>
      </trkpt>
      <trkpt lat="47.51218" lon="6.72221">
        <ele>441</ele>
        <time>2015-05-08T10:09:34.000Z</time>
      </trkpt>
      <trkpt lat="47.51217" lon="6.72225">
        <ele>441</ele>
        <time>2015-05-08T10:09:35.000Z</time>
      </trkpt>
      <trkpt lat="47.51216" lon="6.72228">
        <ele>441</ele>
        <time>2015-05-08T10:09:36.000Z</time>
      </trkpt>
      <trkpt lat="47.51215" lon="6.72232">
        <ele>441</ele>
        <time>2015-05-08T10:09:37.000Z</time>
      </trkpt>
      <trkpt lat="47.51214" lon="6.72237">
        <ele>441</ele>
        <time>2015-05-08T10:09:38.000Z</time>
      </trkpt>
      <trkpt lat="47.51213" lon="6.72241">
        <ele>441</ele>
        <time>2015-05-08T10:09:39.000Z</time>
      </trkpt>
      <trkpt lat="47.51213" lon="6.72245">
        <ele>441</ele>
        <time>2015-05-08T10:09:40.000Z</time>
      </trkpt>
      <trkpt lat="47.51212" lon="6.7225">
        <ele>441</ele>
        <time>2015-05-08T10:09:41.000Z</time>
      </trkpt>
      <trkpt lat="47.51212" lon="6.72254">
        <ele>440</ele>
        <time>2015-05-08T10:09:42.000Z</time>
      </trkpt>
      <trkpt lat="47.51211" lon="6.72259">
        <ele>440</ele>
        <time>2015-05-08T10:09:43.000Z</time>
      </trkpt>
      <trkpt lat="47.51211" lon="6.72264">
        <ele>441</ele>
        <time>2015-05-08T10:09:44.000Z</time>
      </trkpt>
      <trkpt lat="47.5121" lon="6.7227">
        <ele>441</ele>
        <time>2015-05-08T10:09:45.000Z</time>
      </trkpt>
      <trkpt lat="47.51209" lon="6.72276">
        <ele>441</ele>
        <time>2015-05-08T10:09:46.000Z</time>
      </trkpt>
      <trkpt lat="47.51208" lon="6.72283">
        <ele>441</ele>
        <time>2015-05-08T10:09:47.000Z</time>
      </trkpt>
      <trkpt lat="47.51208" lon="6.7229">
        <ele>441</ele>
        <time>2015-05-08T10:09:48.000Z</time>
      </trkpt>
      <trkpt lat="47.51207" lon="6.72296">
        <ele>441</ele>
        <time>2015-05-08T10:09:49.000Z</time>
      </trkpt>
      <trkpt lat="47.51206" lon="6.72303">
        <ele>441</ele>
        <time>2015-05-08T10:09:50.000Z</time>
      </trkpt>
      <trkpt lat="47.51206" lon="6.72311">
        <ele>441</ele>
        <time>2015-05-08T10:09:51.000Z</time>
      </trkpt>
      <trkpt lat="47.51205" lon="6.72318">
        <ele>441</ele>
        <time>2015-05-08T10:09:52.000Z</time>
      </trkpt>
      <trkpt lat="47.51203" lon="6.72325">
        <ele>441</ele>
        <time>2015-05-08T10:09:53.000Z</time>
      </trkpt>
      <trkpt lat="47.51201" lon="6.72333">
        <ele>441</ele>
        <time>2015-05-08T10:09:54.000Z</time>
      </trkpt>
      <trkpt lat="47.51199" lon="6.7234">
        <ele>441</ele>
        <time>2015-05-08T10:09:55.000Z</time>
      </trkpt>
      <trkpt lat="47.51196" lon="6.72347">
        <ele>441</ele>
        <time>2015-05-08T10:09:56.000Z</time>
      </trkpt>
      <trkpt lat="47.51193" lon="6.72353">
        <ele>441</ele>
        <time>2015-05-08T10:09:57.000Z</time>
      </trkpt>
      <trkpt lat="47.51191" lon="6.72361">
        <ele>441</ele>
        <time>2015-05-08T10:09:58.000Z</time>
      </trkpt>
      <trkpt lat="47.5119" lon="6.72392">
        <ele>441</ele>
        <time>2015-05-08T10:09:59.000Z</time>
      </trkpt>
      <trkpt lat="47.51188" lon="6.72398">
        <ele>441</ele>
        <time>2015-05-08T10:10:00.000Z</time>
      </trkpt>
      <trkpt lat="47.51186" lon="6.72406">
        <ele>441</ele>
        <time>2015-05-08T10:10:01.000Z</time>
      </trkpt>
      <trkpt lat="47.51185" lon="6.72413">
        <ele>440</ele>
        <time>2015-05-08T10:10:02.000Z</time>
      </trkpt>
      <trkpt lat="47.51184" lon="6.7242">
        <ele>439</ele>
        <time>2015-05-08T10:10:03.000Z</time>
      </trkpt>
      <trkpt lat="47.51182" lon="6.72428">
        <ele>438</ele>
        <time>2015-05-08T10:10:04.000Z</time>
      </trkpt>
      <trkpt lat="47.51181" lon="6.72436">
        <ele>438</ele>
        <time>2015-05-08T10:10:05.000Z</time>
      </trkpt>
      <trkpt lat="47.5118" lon="6.72442">
        <ele>438</ele>
        <time>2015-05-08T10:10:06.000Z</time>
      </trkpt>
      <trkpt lat="47.51178" lon="6.72449">
        <ele>438</ele>
        <time>2015-05-08T10:10:07.000Z</time>
      </trkpt>
      <trkpt lat="47.51177" lon="6.72455">
        <ele>438</ele>
        <time>2015-05-08T10:10:08.000Z</time>
      </trkpt>
      <trkpt lat="47.51175" lon="6.72461">
        <ele>437</ele>
        <time>2015-05-08T10:10:09.000Z</time>
      </trkpt>
      <trkpt lat="47.51173" lon="6.72467">
        <ele>437</ele>
        <time>2015-05-08T10:10:10.000Z</time>
      </trkpt>
      <trkpt lat="47.51171" lon="6.72473">
        <ele>436</ele>
        <time>2015-05-08T10:10:11.000Z</time>
      </trkpt>
      <trkpt lat="47.51169" lon="6.72479">
        <ele>436</ele>
        <time>2015-05-08T10:10:12.000Z</time>
      </trkpt>
      <trkpt lat="47.51167" lon="6.72485">
        <ele>436</ele>
        <time>2015-05-08T10:10:13.000Z</time>
      </trkpt>
      <trkpt lat="47.51166" lon="6.7249">
        <ele>434</ele>
        <time>2015-05-08T10:10:14.000Z</time>
      </trkpt>
      <trkpt lat="47.51165" lon="6.72496">
        <ele>434</ele>
        <time>2015-05-08T10:10:15.000Z</time>
      </trkpt>
      <trkpt lat="47.51165" lon="6.725">
        <ele>434</ele>
        <time>2015-05-08T10:10:16.000Z</time>
      </trkpt>
      <trkpt lat="47.51166" lon="6.72503">
        <ele>434</ele>
        <time>2015-05-08T10:10:17.000Z</time>
      </trkpt>
      <trkpt lat="47.51168" lon="6.72506">
        <ele>433</ele>
        <time>2015-05-08T10:10:18.000Z</time>
      </trkpt>
      <trkpt lat="47.51169" lon="6.72512">
        <ele>433</ele>
        <time>2015-05-08T10:10:22.000Z</time>
      </trkpt>
      <trkpt lat="47.51169" lon="6.72513">
        <ele>433</ele>
        <time>2015-05-08T10:10:23.000Z</time>
      </trkpt>
      <trkpt lat="47.51168" lon="6.72519">
        <ele>432</ele>
        <time>2015-05-08T10:10:28.000Z</time>
      </trkpt>
      <trkpt lat="47.51167" lon="6.7252">
        <ele>432</ele>
        <time>2015-05-08T10:10:29.000Z</time>
      </trkpt>
      <trkpt lat="47.51165" lon="6.72526">
        <ele>432</ele>
        <time>2015-05-08T10:10:38.000Z</time>
      </trkpt>
      <trkpt lat="47.51164" lon="6.72526">
        <ele>432</ele>
        <time>2015-05-08T10:10:39.000Z</time>
      </trkpt>
      <trkpt lat="47.5116" lon="6.72529">
        <ele>431</ele>
        <time>2015-05-08T10:10:41.000Z</time>
      </trkpt>
      <trkpt lat="47.51158" lon="6.72531">
        <ele>431</ele>
        <time>2015-05-08T10:10:42.000Z</time>
      </trkpt>
      <trkpt lat="47.51156" lon="6.72534">
        <ele>431</ele>
        <time>2015-05-08T10:10:43.000Z</time>
      </trkpt>
      <trkpt lat="47.51153" lon="6.72538">
        <ele>431</ele>
        <time>2015-05-08T10:10:44.000Z</time>
      </trkpt>
      <trkpt lat="47.5115" lon="6.72542">
        <ele>431</ele>
        <time>2015-05-08T10:10:45.000Z</time>
      </trkpt>
      <trkpt lat="47.51147" lon="6.72547">
        <ele>430</ele>
        <time>2015-05-08T10:10:46.000Z</time>
      </trkpt>
      <trkpt lat="47.51144" lon="6.72552">
        <ele>430</ele>
        <time>2015-05-08T10:10:47.000Z</time>
      </trkpt>
      <trkpt lat="47.51141" lon="6.72555">
        <ele>430</ele>
        <time>2015-05-08T10:10:48.000Z</time>
      </trkpt>
      <trkpt lat="47.51137" lon="6.72559">
        <ele>430</ele>
        <time>2015-05-08T10:10:49.000Z</time>
      </trkpt>
      <trkpt lat="47.51133" lon="6.72562">
        <ele>430</ele>
        <time>2015-05-08T10:10:50.000Z</time>
      </trkpt>
      <trkpt lat="47.51129" lon="6.72565">
        <ele>430</ele>
        <time>2015-05-08T10:10:51.000Z</time>
      </trkpt>
      <trkpt lat="47.51124" lon="6.72569">
        <ele>430</ele>
        <time>2015-05-08T10:10:52.000Z</time>
      </trkpt>
      <trkpt lat="47.51119" lon="6.72573">
        <ele>430</ele>
        <time>2015-05-08T10:10:53.000Z</time>
      </trkpt>
      <trkpt lat="47.51107" lon="6.72585">
        <ele>427</ele>
        <time>2015-05-08T10:10:54.000Z</time>
      </trkpt>
      <trkpt lat="47.51104" lon="6.72587">
        <ele>427</ele>
        <time>2015-05-08T10:10:55.000Z</time>
      </trkpt>
      <trkpt lat="47.51101" lon="6.72592">
        <ele>427</ele>
        <time>2015-05-08T10:10:56.000Z</time>
      </trkpt>
      <trkpt lat="47.51097" lon="6.72593">
        <ele>427</ele>
        <time>2015-05-08T10:10:57.000Z</time>
      </trkpt>
      <trkpt lat="47.51092" lon="6.72596">
        <ele>427</ele>
        <time>2015-05-08T10:10:58.000Z</time>
      </trkpt>
      <trkpt lat="47.51089" lon="6.72599">
        <ele>427</ele>
        <time>2015-05-08T10:10:59.000Z</time>
      </trkpt>
      <trkpt lat="47.51084" lon="6.72602">
        <ele>427</ele>
        <time>2015-05-08T10:11:00.000Z</time>
      </trkpt>
      <trkpt lat="47.51078" lon="6.72604">
        <ele>427</ele>
        <time>2015-05-08T10:11:01.000Z</time>
      </trkpt>
      <trkpt lat="47.51072" lon="6.72608">
        <ele>426</ele>
        <time>2015-05-08T10:11:02.000Z</time>
      </trkpt>
      <trkpt lat="47.51068" lon="6.72611">
        <ele>426</ele>
        <time>2015-05-08T10:11:03.000Z</time>
      </trkpt>
      <trkpt lat="47.51064" lon="6.72613">
        <ele>426</ele>
        <time>2015-05-08T10:11:04.000Z</time>
      </trkpt>
      <trkpt lat="47.51059" lon="6.72615">
        <ele>426</ele>
        <time>2015-05-08T10:11:05.000Z</time>
      </trkpt>
      <trkpt lat="47.51055" lon="6.72619">
        <ele>426</ele>
        <time>2015-05-08T10:11:06.000Z</time>
      </trkpt>
      <trkpt lat="47.51051" lon="6.72623">
        <ele>426</ele>
        <time>2015-05-08T10:11:07.000Z</time>
      </trkpt>
      <trkpt lat="47.51047" lon="6.72627">
        <ele>426</ele>
        <time>2015-05-08T10:11:08.000Z</time>
      </trkpt>
      <trkpt lat="47.51043" lon="6.72631">
        <ele>426</ele>
        <time>2015-05-08T10:11:09.000Z</time>
      </trkpt>
      <trkpt lat="47.5104" lon="6.72634">
        <ele>426</ele>
        <time>2015-05-08T10:11:10.000Z</time>
      </trkpt>
      <trkpt lat="47.51036" lon="6.72637">
        <ele>426</ele>
        <time>2015-05-08T10:11:11.000Z</time>
      </trkpt>
      <trkpt lat="47.51034" lon="6.7264">
        <ele>426</ele>
        <time>2015-05-08T10:11:12.000Z</time>
      </trkpt>
      <trkpt lat="47.51032" lon="6.72643">
        <ele>426</ele>
        <time>2015-05-08T10:11:13.000Z</time>
      </trkpt>
      <trkpt lat="47.5103" lon="6.72645">
        <ele>426</ele>
        <time>2015-05-08T10:11:14.000Z</time>
      </trkpt>
      <trkpt lat="47.51026" lon="6.72647">
        <ele>426</ele>
        <time>2015-05-08T10:11:15.000Z</time>
      </trkpt>
      <trkpt lat="47.51022" lon="6.7265">
        <ele>426</ele>
        <time>2015-05-08T10:11:16.000Z</time>
      </trkpt>
      <trkpt lat="47.51018" lon="6.72652">
        <ele>426</ele>
        <time>2015-05-08T10:11:17.000Z</time>
      </trkpt>
      <trkpt lat="47.51013" lon="6.72655">
        <ele>427</ele>
        <time>2015-05-08T10:11:18.000Z</time>
      </trkpt>
      <trkpt lat="47.51009" lon="6.72658">
        <ele>427</ele>
        <time>2015-05-08T10:11:19.000Z</time>
      </trkpt>
      <trkpt lat="47.51005" lon="6.72661">
        <ele>427</ele>
        <time>2015-05-08T10:11:20.000Z</time>
      </trkpt>
      <trkpt lat="47.51001" lon="6.72664">
        <ele>428</ele>
        <time>2015-05-08T10:11:21.000Z</time>
      </trkpt>
      <trkpt lat="47.50998" lon="6.72667">
        <ele>428</ele>
        <time>2015-05-08T10:11:22.000Z</time>
      </trkpt>
      <trkpt lat="47.50994" lon="6.7267">
        <ele>428</ele>
        <time>2015-05-08T10:11:23.000Z</time>
      </trkpt>
      <trkpt lat="47.50989" lon="6.72674">
        <ele>428</ele>
        <time>2015-05-08T10:11:24.000Z</time>
      </trkpt>
      <trkpt lat="47.50985" lon="6.72677">
        <ele>428</ele>
        <time>2015-05-08T10:11:25.000Z</time>
      </trkpt>
      <trkpt lat="47.50982" lon="6.72681">
        <ele>428</ele>
        <time>2015-05-08T10:11:26.000Z</time>
      </trkpt>
      <trkpt lat="47.50979" lon="6.72684">
        <ele>428</ele>
        <time>2015-05-08T10:11:27.000Z</time>
      </trkpt>
      <trkpt lat="47.50977" lon="6.72687">
        <ele>428</ele>
        <time>2015-05-08T10:11:28.000Z</time>
      </trkpt>
      <trkpt lat="47.50975" lon="6.72689">
        <ele>428</ele>
        <time>2015-05-08T10:11:29.000Z</time>
      </trkpt>
      <trkpt lat="47.50973" lon="6.72691">
        <ele>428</ele>
        <time>2015-05-08T10:11:30.000Z</time>
      </trkpt>
      <trkpt lat="47.50971" lon="6.72693">
        <ele>428</ele>
        <time>2015-05-08T10:11:31.000Z</time>
      </trkpt>
      <trkpt lat="47.50969" lon="6.72695">
        <ele>428</ele>
        <time>2015-05-08T10:11:32.000Z</time>
      </trkpt>
      <trkpt lat="47.50966" lon="6.72698">
        <ele>428</ele>
        <time>2015-05-08T10:11:33.000Z</time>
      </trkpt>
      <trkpt lat="47.50964" lon="6.727">
        <ele>428</ele>
        <time>2015-05-08T10:11:34.000Z</time>
      </trkpt>
      <trkpt lat="47.50961" lon="6.72703">
        <ele>428</ele>
        <time>2015-05-08T10:11:35.000Z</time>
      </trkpt>
      <trkpt lat="47.50958" lon="6.72705">
        <ele>429</ele>
        <time>2015-05-08T10:11:36.000Z</time>
      </trkpt>
      <trkpt lat="47.50955" lon="6.72708">
        <ele>429</ele>
        <time>2015-05-08T10:11:37.000Z</time>
      </trkpt>
      <trkpt lat="47.50952" lon="6.72712">
        <ele>429</ele>
        <time>2015-05-08T10:11:38.000Z</time>
      </trkpt>
      <trkpt lat="47.50949" lon="6.72716">
        <ele>429</ele>
        <time>2015-05-08T10:11:39.000Z</time>
      </trkpt>
      <trkpt lat="47.50946" lon="6.72721">
        <ele>429</ele>
        <time>2015-05-08T10:11:40.000Z</time>
      </trkpt>
      <trkpt lat="47.50944" lon="6.72726">
        <ele>429</ele>
        <time>2015-05-08T10:11:41.000Z</time>
      </trkpt>
      <trkpt lat="47.50943" lon="6.7273">
        <ele>429</ele>
        <time>2015-05-08T10:11:42.000Z</time>
      </trkpt>
      <trkpt lat="47.50942" lon="6.72735">
        <ele>429</ele>
        <time>2015-05-08T10:11:43.000Z</time>
      </trkpt>
      <trkpt lat="47.50941" lon="6.72739">
        <ele>429</ele>
        <time>2015-05-08T10:11:44.000Z</time>
      </trkpt>
      <trkpt lat="47.5094" lon="6.72743">
        <ele>429</ele>
        <time>2015-05-08T10:11:45.000Z</time>
      </trkpt>
      <trkpt lat="47.50939" lon="6.72746">
        <ele>430</ele>
        <time>2015-05-08T10:11:46.000Z</time>
      </trkpt>
      <trkpt lat="47.50937" lon="6.72749">
        <ele>430</ele>
        <time>2015-05-08T10:11:47.000Z</time>
      </trkpt>
      <trkpt lat="47.50935" lon="6.72753">
        <ele>429</ele>
        <time>2015-05-08T10:11:48.000Z</time>
      </trkpt>
      <trkpt lat="47.50934" lon="6.72756">
        <ele>429</ele>
        <time>2015-05-08T10:11:49.000Z</time>
      </trkpt>
      <trkpt lat="47.50932" lon="6.72759">
        <ele>429</ele>
        <time>2015-05-08T10:11:50.000Z</time>
      </trkpt>
      <trkpt lat="47.5093" lon="6.72762">
        <ele>429</ele>
        <time>2015-05-08T10:11:51.000Z</time>
      </trkpt>
      <trkpt lat="47.50929" lon="6.72766">
        <ele>429</ele>
        <time>2015-05-08T10:11:52.000Z</time>
      </trkpt>
      <trkpt lat="47.50927" lon="6.7277">
        <ele>429</ele>
        <time>2015-05-08T10:11:53.000Z</time>
      </trkpt>
      <trkpt lat="47.50926" lon="6.72774">
        <ele>429</ele>
        <time>2015-05-08T10:11:54.000Z</time>
      </trkpt>
      <trkpt lat="47.50924" lon="6.72779">
        <ele>429</ele>
        <time>2015-05-08T10:11:55.000Z</time>
      </trkpt>
      <trkpt lat="47.50921" lon="6.72783">
        <ele>429</ele>
        <time>2015-05-08T10:11:56.000Z</time>
      </trkpt>
      <trkpt lat="47.50919" lon="6.72788">
        <ele>429</ele>
        <time>2015-05-08T10:11:57.000Z</time>
      </trkpt>
      <trkpt lat="47.50917" lon="6.72792">
        <ele>429</ele>
        <time>2015-05-08T10:11:58.000Z</time>
      </trkpt>
      <trkpt lat="47.50915" lon="6.72797">
        <ele>430</ele>
        <time>2015-05-08T10:11:59.000Z</time>
      </trkpt>
      <trkpt lat="47.50913" lon="6.72802">
        <ele>430</ele>
        <time>2015-05-08T10:12:00.000Z</time>
      </trkpt>
      <trkpt lat="47.50911" lon="6.72807">
        <ele>430</ele>
        <time>2015-05-08T10:12:01.000Z</time>
      </trkpt>
      <trkpt lat="47.50909" lon="6.72813">
        <ele>430</ele>
        <time>2015-05-08T10:12:02.000Z</time>
      </trkpt>
      <trkpt lat="47.50907" lon="6.72819">
        <ele>431</ele>
        <time>2015-05-08T10:12:03.000Z</time>
      </trkpt>
      <trkpt lat="47.50905" lon="6.72825">
        <ele>431</ele>
        <time>2015-05-08T10:12:04.000Z</time>
      </trkpt>
      <trkpt lat="47.50904" lon="6.72829">
        <ele>431</ele>
        <time>2015-05-08T10:12:05.000Z</time>
      </trkpt>
      <trkpt lat="47.50903" lon="6.72832">
        <ele>431</ele>
        <time>2015-05-08T10:12:06.000Z</time>
      </trkpt>
      <trkpt lat="47.50902" lon="6.72836">
        <ele>431</ele>
        <time>2015-05-08T10:12:07.000Z</time>
      </trkpt>
      <trkpt lat="47.50901" lon="6.72841">
        <ele>431</ele>
        <time>2015-05-08T10:12:08.000Z</time>
      </trkpt>
      <trkpt lat="47.50899" lon="6.72845">
        <ele>431</ele>
        <time>2015-05-08T10:12:09.000Z</time>
      </trkpt>
      <trkpt lat="47.50898" lon="6.72849">
        <ele>431</ele>
        <time>2015-05-08T10:12:10.000Z</time>
      </trkpt>
      <trkpt lat="47.50897" lon="6.72853">
        <ele>431</ele>
        <time>2015-05-08T10:12:11.000Z</time>
      </trkpt>
      <trkpt lat="47.50895" lon="6.72857">
        <ele>431</ele>
        <time>2015-05-08T10:12:12.000Z</time>
      </trkpt>
      <trkpt lat="47.50894" lon="6.72861">
        <ele>431</ele>
        <time>2015-05-08T10:12:13.000Z</time>
      </trkpt>
      <trkpt lat="47.50894" lon="6.72865">
        <ele>431</ele>
        <time>2015-05-08T10:12:14.000Z</time>
      </trkpt>
      <trkpt lat="47.50893" lon="6.7287">
        <ele>431</ele>
        <time>2015-05-08T10:12:15.000Z</time>
      </trkpt>
      <trkpt lat="47.50891" lon="6.72876">
        <ele>431</ele>
        <time>2015-05-08T10:12:16.000Z</time>
      </trkpt>
      <trkpt lat="47.5089" lon="6.72881">
        <ele>431</ele>
        <time>2015-05-08T10:12:17.000Z</time>
      </trkpt>
      <trkpt lat="47.50888" lon="6.72886">
        <ele>431</ele>
        <time>2015-05-08T10:12:18.000Z</time>
      </trkpt>
      <trkpt lat="47.50886" lon="6.7289">
        <ele>431</ele>
        <time>2015-05-08T10:12:19.000Z</time>
      </trkpt>
      <trkpt lat="47.50884" lon="6.72895">
        <ele>431</ele>
        <time>2015-05-08T10:12:20.000Z</time>
      </trkpt>
      <trkpt lat="47.50882" lon="6.729">
        <ele>431</ele>
        <time>2015-05-08T10:12:21.000Z</time>
      </trkpt>
      <trkpt lat="47.50879" lon="6.72904">
        <ele>431</ele>
        <time>2015-05-08T10:12:22.000Z</time>
      </trkpt>
      <trkpt lat="47.50876" lon="6.7291">
        <ele>431</ele>
        <time>2015-05-08T10:12:23.000Z</time>
      </trkpt>
      <trkpt lat="47.50874" lon="6.72915">
        <ele>432</ele>
        <time>2015-05-08T10:12:24.000Z</time>
      </trkpt>
      <trkpt lat="47.50871" lon="6.72921">
        <ele>432</ele>
        <time>2015-05-08T10:12:25.000Z</time>
      </trkpt>
      <trkpt lat="47.50869" lon="6.72927">
        <ele>432</ele>
        <time>2015-05-08T10:12:26.000Z</time>
      </trkpt>
      <trkpt lat="47.50867" lon="6.72933">
        <ele>432</ele>
        <time>2015-05-08T10:12:27.000Z</time>
      </trkpt>
      <trkpt lat="47.50865" lon="6.7294">
        <ele>432</ele>
        <time>2015-05-08T10:12:28.000Z</time>
      </trkpt>
      <trkpt lat="47.50863" lon="6.72947">
        <ele>432</ele>
        <time>2015-05-08T10:12:29.000Z</time>
      </trkpt>
      <trkpt lat="47.50861" lon="6.72954">
        <ele>432</ele>
        <time>2015-05-08T10:12:30.000Z</time>
      </trkpt>
      <trkpt lat="47.50859" lon="6.72961">
        <ele>432</ele>
        <time>2015-05-08T10:12:31.000Z</time>
      </trkpt>
      <trkpt lat="47.50856" lon="6.7297">
        <ele>432</ele>
        <time>2015-05-08T10:12:32.000Z</time>
      </trkpt>
      <trkpt lat="47.50855" lon="6.72977">
        <ele>432</ele>
        <time>2015-05-08T10:12:33.000Z</time>
      </trkpt>
      <trkpt lat="47.50853" lon="6.72985">
        <ele>432</ele>
        <time>2015-05-08T10:12:34.000Z</time>
      </trkpt>
      <trkpt lat="47.50851" lon="6.72993">
        <ele>432</ele>
        <time>2015-05-08T10:12:35.000Z</time>
      </trkpt>
      <trkpt lat="47.5085" lon="6.73002">
        <ele>432</ele>
        <time>2015-05-08T10:12:36.000Z</time>
      </trkpt>
      <trkpt lat="47.50848" lon="6.73011">
        <ele>432</ele>
        <time>2015-05-08T10:12:37.000Z</time>
      </trkpt>
      <trkpt lat="47.50847" lon="6.7302">
        <ele>432</ele>
        <time>2015-05-08T10:12:38.000Z</time>
      </trkpt>
      <trkpt lat="47.50846" lon="6.7303">
        <ele>432</ele>
        <time>2015-05-08T10:12:39.000Z</time>
      </trkpt>
      <trkpt lat="47.50845" lon="6.73039">
        <ele>432</ele>
        <time>2015-05-08T10:12:40.000Z</time>
      </trkpt>
      <trkpt lat="47.50843" lon="6.73047">
        <ele>432</ele>
        <time>2015-05-08T10:12:41.000Z</time>
      </trkpt>
      <trkpt lat="47.50842" lon="6.73053">
        <ele>432</ele>
        <time>2015-05-08T10:12:42.000Z</time>
      </trkpt>
      <trkpt lat="47.5084" lon="6.73058">
        <ele>432</ele>
        <time>2015-05-08T10:12:43.000Z</time>
      </trkpt>
      <trkpt lat="47.50839" lon="6.73064">
        <ele>432</ele>
        <time>2015-05-08T10:12:44.000Z</time>
      </trkpt>
      <trkpt lat="47.50837" lon="6.7307">
        <ele>433</ele>
        <time>2015-05-08T10:12:45.000Z</time>
      </trkpt>
      <trkpt lat="47.50836" lon="6.73075">
        <ele>433</ele>
        <time>2015-05-08T10:12:46.000Z</time>
      </trkpt>
      <trkpt lat="47.50834" lon="6.73082">
        <ele>434</ele>
        <time>2015-05-08T10:12:47.000Z</time>
      </trkpt>
      <trkpt lat="47.50833" lon="6.7309">
        <ele>432</ele>
        <time>2015-05-08T10:12:48.000Z</time>
      </trkpt>
      <trkpt lat="47.50831" lon="6.73097">
        <ele>431</ele>
        <time>2015-05-08T10:12:49.000Z</time>
      </trkpt>
      <trkpt lat="47.5083" lon="6.73102">
        <ele>430</ele>
        <time>2015-05-08T10:12:50.000Z</time>
      </trkpt>
      <trkpt lat="47.50828" lon="6.73111">
        <ele>429</ele>
        <time>2015-05-08T10:12:51.000Z</time>
      </trkpt>
      <trkpt lat="47.50825" lon="6.73118">
        <ele>428</ele>
        <time>2015-05-08T10:12:52.000Z</time>
      </trkpt>
      <trkpt lat="47.50822" lon="6.73124">
        <ele>428</ele>
        <time>2015-05-08T10:12:53.000Z</time>
      </trkpt>
      <trkpt lat="47.50814" lon="6.7314">
        <ele>427</ele>
        <time>2015-05-08T10:12:54.000Z</time>
      </trkpt>
      <trkpt lat="47.50806" lon="6.73149">
        <ele>426</ele>
        <time>2015-05-08T10:12:55.000Z</time>
      </trkpt>
      <trkpt lat="47.508" lon="6.73158">
        <ele>426</ele>
        <time>2015-05-08T10:12:56.000Z</time>
      </trkpt>
      <trkpt lat="47.50798" lon="6.73177">
        <ele>421</ele>
        <time>2015-05-08T10:12:57.000Z</time>
      </trkpt>
      <trkpt lat="47.50792" lon="6.73188">
        <ele>421</ele>
        <time>2015-05-08T10:12:58.000Z</time>
      </trkpt>
      <trkpt lat="47.50787" lon="6.732">
        <ele>420</ele>
        <time>2015-05-08T10:12:59.000Z</time>
      </trkpt>
      <trkpt lat="47.50781" lon="6.7321">
        <ele>420</ele>
        <time>2015-05-08T10:13:00.000Z</time>
      </trkpt>
      <trkpt lat="47.50776" lon="6.7323">
        <ele>419</ele>
        <time>2015-05-08T10:13:01.000Z</time>
      </trkpt>
      <trkpt lat="47.50772" lon="6.73242">
        <ele>418</ele>
        <time>2015-05-08T10:13:02.000Z</time>
      </trkpt>
      <trkpt lat="47.50767" lon="6.7325">
        <ele>418</ele>
        <time>2015-05-08T10:13:03.000Z</time>
      </trkpt>
      <trkpt lat="47.50762" lon="6.73257">
        <ele>413</ele>
        <time>2015-05-08T10:13:04.000Z</time>
      </trkpt>
      <trkpt lat="47.50756" lon="6.73266">
        <ele>412</ele>
        <time>2015-05-08T10:13:05.000Z</time>
      </trkpt>
      <trkpt lat="47.50752" lon="6.73276">
        <ele>411</ele>
        <time>2015-05-08T10:13:06.000Z</time>
      </trkpt>
      <trkpt lat="47.50747" lon="6.73285">
        <ele>408</ele>
        <time>2015-05-08T10:13:07.000Z</time>
      </trkpt>
      <trkpt lat="47.5074" lon="6.73292">
        <ele>407</ele>
        <time>2015-05-08T10:13:08.000Z</time>
      </trkpt>
      <trkpt lat="47.50736" lon="6.73298">
        <ele>407</ele>
        <time>2015-05-08T10:13:09.000Z</time>
      </trkpt>
      <trkpt lat="47.50731" lon="6.73308">
        <ele>406</ele>
        <time>2015-05-08T10:13:10.000Z</time>
      </trkpt>
      <trkpt lat="47.50728" lon="6.73317">
        <ele>406</ele>
        <time>2015-05-08T10:13:11.000Z</time>
      </trkpt>
      <trkpt lat="47.50723" lon="6.73325">
        <ele>405</ele>
        <time>2015-05-08T10:13:12.000Z</time>
      </trkpt>
      <trkpt lat="47.50718" lon="6.73332">
        <ele>405</ele>
        <time>2015-05-08T10:13:13.000Z</time>
      </trkpt>
      <trkpt lat="47.50714" lon="6.73335">
        <ele>400</ele>
        <time>2015-05-08T10:13:14.000Z</time>
      </trkpt>
      <trkpt lat="47.50708" lon="6.73339">
        <ele>399</ele>
        <time>2015-05-08T10:13:15.000Z</time>
      </trkpt>
      <trkpt lat="47.50701" lon="6.73345">
        <ele>399</ele>
        <time>2015-05-08T10:13:16.000Z</time>
      </trkpt>
      <trkpt lat="47.507" lon="6.73355">
        <ele>398</ele>
        <time>2015-05-08T10:13:17.000Z</time>
      </trkpt>
      <trkpt lat="47.50697" lon="6.73364">
        <ele>398</ele>
        <time>2015-05-08T10:13:18.000Z</time>
      </trkpt>
      <trkpt lat="47.50694" lon="6.73369">
        <ele>398</ele>
        <time>2015-05-08T10:13:19.000Z</time>
      </trkpt>
      <trkpt lat="47.50692" lon="6.73378">
        <ele>397</ele>
        <time>2015-05-08T10:13:20.000Z</time>
      </trkpt>
      <trkpt lat="47.50691" lon="6.73387">
        <ele>397</ele>
        <time>2015-05-08T10:13:21.000Z</time>
      </trkpt>
      <trkpt lat="47.50688" lon="6.73394">
        <ele>397</ele>
        <time>2015-05-08T10:13:22.000Z</time>
      </trkpt>
      <trkpt lat="47.50683" lon="6.734">
        <ele>397</ele>
        <time>2015-05-08T10:13:23.000Z</time>
      </trkpt>
      <trkpt lat="47.50677" lon="6.73408">
        <ele>397</ele>
        <time>2015-05-08T10:13:24.000Z</time>
      </trkpt>
      <trkpt lat="47.50672" lon="6.73419">
        <ele>395</ele>
        <time>2015-05-08T10:13:25.000Z</time>
      </trkpt>
      <trkpt lat="47.50668" lon="6.73429">
        <ele>393</ele>
        <time>2015-05-08T10:13:26.000Z</time>
      </trkpt>
      <trkpt lat="47.50664" lon="6.73435">
        <ele>390</ele>
        <time>2015-05-08T10:13:27.000Z</time>
      </trkpt>
      <trkpt lat="47.50661" lon="6.73441">
        <ele>389</ele>
        <time>2015-05-08T10:13:28.000Z</time>
      </trkpt>
      <trkpt lat="47.50657" lon="6.73447">
        <ele>388</ele>
        <time>2015-05-08T10:13:29.000Z</time>
      </trkpt>
      <trkpt lat="47.50654" lon="6.73455">
        <ele>387</ele>
        <time>2015-05-08T10:13:30.000Z</time>
      </trkpt>
      <trkpt lat="47.50652" lon="6.73461">
        <ele>386</ele>
        <time>2015-05-08T10:13:31.000Z</time>
      </trkpt>
      <trkpt lat="47.50649" lon="6.73467">
        <ele>386</ele>
        <time>2015-05-08T10:13:32.000Z</time>
      </trkpt>
      <trkpt lat="47.50646" lon="6.7347">
        <ele>385</ele>
        <time>2015-05-08T10:13:33.000Z</time>
      </trkpt>
      <trkpt lat="47.50644" lon="6.73475">
        <ele>385</ele>
        <time>2015-05-08T10:13:34.000Z</time>
      </trkpt>
      <trkpt lat="47.50641" lon="6.73482">
        <ele>385</ele>
        <time>2015-05-08T10:13:35.000Z</time>
      </trkpt>
      <trkpt lat="47.50641" lon="6.73489">
        <ele>385</ele>
        <time>2015-05-08T10:13:36.000Z</time>
      </trkpt>
      <trkpt lat="47.50639" lon="6.73496">
        <ele>384</ele>
        <time>2015-05-08T10:13:37.000Z</time>
      </trkpt>
      <trkpt lat="47.50637" lon="6.73502">
        <ele>381</ele>
        <time>2015-05-08T10:13:38.000Z</time>
      </trkpt>
      <trkpt lat="47.50635" lon="6.73506">
        <ele>380</ele>
        <time>2015-05-08T10:13:39.000Z</time>
      </trkpt>
      <trkpt lat="47.50632" lon="6.7351">
        <ele>380</ele>
        <time>2015-05-08T10:13:40.000Z</time>
      </trkpt>
      <trkpt lat="47.5063" lon="6.73512">
        <ele>380</ele>
        <time>2015-05-08T10:13:41.000Z</time>
      </trkpt>
      <trkpt lat="47.50628" lon="6.73514">
        <ele>380</ele>
        <time>2015-05-08T10:13:42.000Z</time>
      </trkpt>
      <trkpt lat="47.50625" lon="6.73515">
        <ele>379</ele>
        <time>2015-05-08T10:13:43.000Z</time>
      </trkpt>
      <trkpt lat="47.50622" lon="6.73517">
        <ele>379</ele>
        <time>2015-05-08T10:13:44.000Z</time>
      </trkpt>
      <trkpt lat="47.50619" lon="6.73518">
        <ele>379</ele>
        <time>2015-05-08T10:13:45.000Z</time>
      </trkpt>
      <trkpt lat="47.50616" lon="6.73521">
        <ele>379</ele>
        <time>2015-05-08T10:13:46.000Z</time>
      </trkpt>
      <trkpt lat="47.50617" lon="6.73527">
        <ele>379</ele>
        <time>2015-05-08T10:13:47.000Z</time>
      </trkpt>
      <trkpt lat="47.5062" lon="6.73532">
        <ele>379</ele>
        <time>2015-05-08T10:13:48.000Z</time>
      </trkpt>
      <trkpt lat="47.5062" lon="6.73534">
        <ele>379</ele>
        <time>2015-05-08T10:13:48.999Z</time>
      </trkpt>
      <trkpt lat="47.50628" lon="6.73541">
        <ele>379</ele>
        <time>2015-05-08T10:13:50.000Z</time>
      </trkpt>
      <trkpt lat="47.50631" lon="6.73544">
        <ele>379</ele>
        <time>2015-05-08T10:13:51.000Z</time>
      </trkpt>
      <trkpt lat="47.50635" lon="6.73549">
        <ele>378</ele>
        <time>2015-05-08T10:13:52.000Z</time>
      </trkpt>
      <trkpt lat="47.50637" lon="6.73554">
        <ele>378</ele>
        <time>2015-05-08T10:13:53.000Z</time>
      </trkpt>
      <trkpt lat="47.5064" lon="6.73559">
        <ele>378</ele>
        <time>2015-05-08T10:13:54.000Z</time>
      </trkpt>
      <trkpt lat="47.50648" lon="6.73575">
        <ele>376</ele>
        <time>2015-05-08T10:13:55.000Z</time>
      </trkpt>
      <trkpt lat="47.50651" lon="6.73581">
        <ele>375</ele>
        <time>2015-05-08T10:13:56.000Z</time>
      </trkpt>
      <trkpt lat="47.50654" lon="6.73588">
        <ele>372</ele>
        <time>2015-05-08T10:13:57.000Z</time>
      </trkpt>
      <trkpt lat="47.50656" lon="6.73595">
        <ele>372</ele>
        <time>2015-05-08T10:13:58.000Z</time>
      </trkpt>
      <trkpt lat="47.50658" lon="6.73603">
        <ele>372</ele>
        <time>2015-05-08T10:13:59.000Z</time>
      </trkpt>
      <trkpt lat="47.50658" lon="6.7361">
        <ele>372</ele>
        <time>2015-05-08T10:14:00.000Z</time>
      </trkpt>
      <trkpt lat="47.5066" lon="6.73616">
        <ele>372</ele>
        <time>2015-05-08T10:14:01.000Z</time>
      </trkpt>
      <trkpt lat="47.5066" lon="6.73622">
        <ele>372</ele>
        <time>2015-05-08T10:14:02.000Z</time>
      </trkpt>
      <trkpt lat="47.5066" lon="6.73626">
        <ele>371</ele>
        <time>2015-05-08T10:14:03.000Z</time>
      </trkpt>
      <trkpt lat="47.5066" lon="6.73632">
        <ele>371</ele>
        <time>2015-05-08T10:14:04.000Z</time>
      </trkpt>
      <trkpt lat="47.5066" lon="6.73639">
        <ele>370</ele>
        <time>2015-05-08T10:14:05.000Z</time>
      </trkpt>
      <trkpt lat="47.50656" lon="6.7365">
        <ele>369</ele>
        <time>2015-05-08T10:14:06.000Z</time>
      </trkpt>
      <trkpt lat="47.50655" lon="6.73662">
        <ele>367</ele>
        <time>2015-05-08T10:14:07.000Z</time>
      </trkpt>
      <trkpt lat="47.50657" lon="6.73671">
        <ele>366</ele>
        <time>2015-05-08T10:14:08.000Z</time>
      </trkpt>
      <trkpt lat="47.50658" lon="6.73679">
        <ele>366</ele>
        <time>2015-05-08T10:14:09.000Z</time>
      </trkpt>
      <trkpt lat="47.50657" lon="6.73686">
        <ele>367</ele>
        <time>2015-05-08T10:14:10.000Z</time>
      </trkpt>
      <trkpt lat="47.50658" lon="6.73695">
        <ele>368</ele>
        <time>2015-05-08T10:14:11.000Z</time>
      </trkpt>
      <trkpt lat="47.50657" lon="6.73703">
        <ele>368</ele>
        <time>2015-05-08T10:14:12.000Z</time>
      </trkpt>
      <trkpt lat="47.50658" lon="6.73712">
        <ele>368</ele>
        <time>2015-05-08T10:14:13.000Z</time>
      </trkpt>
      <trkpt lat="47.50658" lon="6.73719">
        <ele>368</ele>
        <time>2015-05-08T10:14:14.000Z</time>
      </trkpt>
      <trkpt lat="47.50657" lon="6.73729">
        <ele>368</ele>
        <time>2015-05-08T10:14:15.000Z</time>
      </trkpt>
      <trkpt lat="47.50657" lon="6.73737">
        <ele>367</ele>
        <time>2015-05-08T10:14:16.000Z</time>
      </trkpt>
      <trkpt lat="47.50657" lon="6.73744">
        <ele>365</ele>
        <time>2015-05-08T10:14:17.000Z</time>
      </trkpt>
      <trkpt lat="47.50658" lon="6.73752">
        <ele>365</ele>
        <time>2015-05-08T10:14:18.000Z</time>
      </trkpt>
      <trkpt lat="47.50659" lon="6.73759">
        <ele>365</ele>
        <time>2015-05-08T10:14:19.000Z</time>
      </trkpt>
      <trkpt lat="47.50657" lon="6.73768">
        <ele>367</ele>
        <time>2015-05-08T10:14:20.000Z</time>
      </trkpt>
      <trkpt lat="47.50657" lon="6.73778">
        <ele>367</ele>
        <time>2015-05-08T10:14:21.000Z</time>
      </trkpt>
      <trkpt lat="47.50658" lon="6.73785">
        <ele>368</ele>
        <time>2015-05-08T10:14:22.000Z</time>
      </trkpt>
      <trkpt lat="47.50658" lon="6.73794">
        <ele>368</ele>
        <time>2015-05-08T10:14:23.000Z</time>
      </trkpt>
      <trkpt lat="47.50657" lon="6.73803">
        <ele>367</ele>
        <time>2015-05-08T10:14:24.000Z</time>
      </trkpt>
      <trkpt lat="47.50657" lon="6.73811">
        <ele>367</ele>
        <time>2015-05-08T10:14:25.000Z</time>
      </trkpt>
      <trkpt lat="47.50656" lon="6.73818">
        <ele>366</ele>
        <time>2015-05-08T10:14:26.000Z</time>
      </trkpt>
      <trkpt lat="47.50655" lon="6.73826">
        <ele>365</ele>
        <time>2015-05-08T10:14:27.000Z</time>
      </trkpt>
      <trkpt lat="47.50654" lon="6.73835">
        <ele>363</ele>
        <time>2015-05-08T10:14:28.000Z</time>
      </trkpt>
      <trkpt lat="47.50654" lon="6.73843">
        <ele>364</ele>
        <time>2015-05-08T10:14:29.000Z</time>
      </trkpt>
      <trkpt lat="47.50652" lon="6.7385">
        <ele>364</ele>
        <time>2015-05-08T10:14:30.000Z</time>
      </trkpt>
      <trkpt lat="47.50651" lon="6.73856">
        <ele>365</ele>
        <time>2015-05-08T10:14:31.000Z</time>
      </trkpt>
      <trkpt lat="47.50649" lon="6.73862">
        <ele>365</ele>
        <time>2015-05-08T10:14:32.000Z</time>
      </trkpt>
      <trkpt lat="47.50647" lon="6.73868">
        <ele>365</ele>
        <time>2015-05-08T10:14:33.000Z</time>
      </trkpt>
      <trkpt lat="47.50644" lon="6.73876">
        <ele>365</ele>
        <time>2015-05-08T10:14:34.000Z</time>
      </trkpt>
      <trkpt lat="47.50642" lon="6.73882">
        <ele>365</ele>
        <time>2015-05-08T10:14:35.000Z</time>
      </trkpt>
      <trkpt lat="47.50638" lon="6.73888">
        <ele>365</ele>
        <time>2015-05-08T10:14:36.000Z</time>
      </trkpt>
      <trkpt lat="47.50635" lon="6.73893">
        <ele>365</ele>
        <time>2015-05-08T10:14:37.000Z</time>
      </trkpt>
      <trkpt lat="47.50631" lon="6.73896">
        <ele>366</ele>
        <time>2015-05-08T10:14:38.000Z</time>
      </trkpt>
      <trkpt lat="47.50626" lon="6.73905">
        <ele>366</ele>
        <time>2015-05-08T10:14:39.000Z</time>
      </trkpt>
      <trkpt lat="47.50622" lon="6.73912">
        <ele>367</ele>
        <time>2015-05-08T10:14:40.000Z</time>
      </trkpt>
      <trkpt lat="47.50618" lon="6.7392">
        <ele>363</ele>
        <time>2015-05-08T10:14:41.000Z</time>
      </trkpt>
      <trkpt lat="47.50614" lon="6.73926">
        <ele>363</ele>
        <time>2015-05-08T10:14:42.000Z</time>
      </trkpt>
      <trkpt lat="47.50611" lon="6.73934">
        <ele>363</ele>
        <time>2015-05-08T10:14:43.000Z</time>
      </trkpt>
      <trkpt lat="47.50606" lon="6.73942">
        <ele>363</ele>
        <time>2015-05-08T10:14:44.000Z</time>
      </trkpt>
      <trkpt lat="47.50603" lon="6.73949">
        <ele>363</ele>
        <time>2015-05-08T10:14:45.000Z</time>
      </trkpt>
      <trkpt lat="47.506" lon="6.73956">
        <ele>362</ele>
        <time>2015-05-08T10:14:46.000Z</time>
      </trkpt>
      <trkpt lat="47.50597" lon="6.73966">
        <ele>362</ele>
        <time>2015-05-08T10:14:47.000Z</time>
      </trkpt>
      <trkpt lat="47.50593" lon="6.73975">
        <ele>362</ele>
        <time>2015-05-08T10:14:48.000Z</time>
      </trkpt>
      <trkpt lat="47.50589" lon="6.73984">
        <ele>362</ele>
        <time>2015-05-08T10:14:49.000Z</time>
      </trkpt>
      <trkpt lat="47.50586" lon="6.73992">
        <ele>362</ele>
        <time>2015-05-08T10:14:50.000Z</time>
      </trkpt>
      <trkpt lat="47.50583" lon="6.74001">
        <ele>363</ele>
        <time>2015-05-08T10:14:51.000Z</time>
      </trkpt>
      <trkpt lat="47.50579" lon="6.74007">
        <ele>365</ele>
        <time>2015-05-08T10:14:52.000Z</time>
      </trkpt>
      <trkpt lat="47.50575" lon="6.74013">
        <ele>365</ele>
        <time>2015-05-08T10:14:53.000Z</time>
      </trkpt>
      <trkpt lat="47.50572" lon="6.74018">
        <ele>366</ele>
        <time>2015-05-08T10:14:54.000Z</time>
      </trkpt>
      <trkpt lat="47.50568" lon="6.74024">
        <ele>367</ele>
        <time>2015-05-08T10:14:55.000Z</time>
      </trkpt>
      <trkpt lat="47.50564" lon="6.74031">
        <ele>367</ele>
        <time>2015-05-08T10:14:56.000Z</time>
      </trkpt>
      <trkpt lat="47.50561" lon="6.74039">
        <ele>367</ele>
        <time>2015-05-08T10:14:57.000Z</time>
      </trkpt>
      <trkpt lat="47.50559" lon="6.74045">
        <ele>367</ele>
        <time>2015-05-08T10:14:58.000Z</time>
      </trkpt>
      <trkpt lat="47.50556" lon="6.74053">
        <ele>366</ele>
        <time>2015-05-08T10:14:59.000Z</time>
      </trkpt>
      <trkpt lat="47.50552" lon="6.74059">
        <ele>366</ele>
        <time>2015-05-08T10:15:00.000Z</time>
      </trkpt>
      <trkpt lat="47.50548" lon="6.74063">
        <ele>367</ele>
        <time>2015-05-08T10:15:01.000Z</time>
      </trkpt>
      <trkpt lat="47.50545" lon="6.7407">
        <ele>367</ele>
        <time>2015-05-08T10:15:02.000Z</time>
      </trkpt>
      <trkpt lat="47.50542" lon="6.74077">
        <ele>367</ele>
        <time>2015-05-08T10:15:03.000Z</time>
      </trkpt>
      <trkpt lat="47.50538" lon="6.74085">
        <ele>364</ele>
        <time>2015-05-08T10:15:04.000Z</time>
      </trkpt>
      <trkpt lat="47.50532" lon="6.74091">
        <ele>365</ele>
        <time>2015-05-08T10:15:05.000Z</time>
      </trkpt>
      <trkpt lat="47.5053" lon="6.74096">
        <ele>365</ele>
        <time>2015-05-08T10:15:06.000Z</time>
      </trkpt>
      <trkpt lat="47.50526" lon="6.74097">
        <ele>365</ele>
        <time>2015-05-08T10:15:07.000Z</time>
      </trkpt>
      <trkpt lat="47.50522" lon="6.74101">
        <ele>366</ele>
        <time>2015-05-08T10:15:08.000Z</time>
      </trkpt>
      <trkpt lat="47.50517" lon="6.7411">
        <ele>366</ele>
        <time>2015-05-08T10:15:09.000Z</time>
      </trkpt>
      <trkpt lat="47.50514" lon="6.74117">
        <ele>366</ele>
        <time>2015-05-08T10:15:10.000Z</time>
      </trkpt>
      <trkpt lat="47.50511" lon="6.74122">
        <ele>366</ele>
        <time>2015-05-08T10:15:11.000Z</time>
      </trkpt>
      <trkpt lat="47.50508" lon="6.74123">
        <ele>366</ele>
        <time>2015-05-08T10:15:12.000Z</time>
      </trkpt>
      <trkpt lat="47.50505" lon="6.74125">
        <ele>366</ele>
        <time>2015-05-08T10:15:13.000Z</time>
      </trkpt>
      <trkpt lat="47.50502" lon="6.74131">
        <ele>366</ele>
        <time>2015-05-08T10:15:14.000Z</time>
      </trkpt>
      <trkpt lat="47.505" lon="6.74139">
        <ele>376</ele>
        <time>2015-05-08T10:15:15.000Z</time>
      </trkpt>
      <trkpt lat="47.50498" lon="6.74149">
        <ele>375</ele>
        <time>2015-05-08T10:15:16.000Z</time>
      </trkpt>
      <trkpt lat="47.50495" lon="6.74153">
        <ele>374</ele>
        <time>2015-05-08T10:15:17.000Z</time>
      </trkpt>
      <trkpt lat="47.50494" lon="6.74161">
        <ele>373</ele>
        <time>2015-05-08T10:15:18.000Z</time>
      </trkpt>
      <trkpt lat="47.50491" lon="6.74169">
        <ele>372</ele>
        <time>2015-05-08T10:15:19.000Z</time>
      </trkpt>
      <trkpt lat="47.50489" lon="6.74173">
        <ele>373</ele>
        <time>2015-05-08T10:15:20.000Z</time>
      </trkpt>
      <trkpt lat="47.50487" lon="6.74176">
        <ele>373</ele>
        <time>2015-05-08T10:15:21.000Z</time>
      </trkpt>
      <trkpt lat="47.50485" lon="6.74179">
        <ele>373</ele>
        <time>2015-05-08T10:15:22.000Z</time>
      </trkpt>
      <trkpt lat="47.50483" lon="6.74183">
        <ele>373</ele>
        <time>2015-05-08T10:15:23.000Z</time>
      </trkpt>
      <trkpt lat="47.50482" lon="6.74186">
        <ele>374</ele>
        <time>2015-05-08T10:15:24.000Z</time>
      </trkpt>
      <trkpt lat="47.5048" lon="6.7419">
        <ele>374</ele>
        <time>2015-05-08T10:15:25.000Z</time>
      </trkpt>
      <trkpt lat="47.50478" lon="6.74194">
        <ele>374</ele>
        <time>2015-05-08T10:15:26.000Z</time>
      </trkpt>
      <trkpt lat="47.50477" lon="6.74198">
        <ele>374</ele>
        <time>2015-05-08T10:15:27.000Z</time>
      </trkpt>
      <trkpt lat="47.50475" lon="6.74202">
        <ele>374</ele>
        <time>2015-05-08T10:15:28.000Z</time>
      </trkpt>
      <trkpt lat="47.50473" lon="6.74206">
        <ele>374</ele>
        <time>2015-05-08T10:15:29.000Z</time>
      </trkpt>
      <trkpt lat="47.50471" lon="6.7421">
        <ele>374</ele>
        <time>2015-05-08T10:15:30.000Z</time>
      </trkpt>
      <trkpt lat="47.50469" lon="6.74214">
        <ele>374</ele>
        <time>2015-05-08T10:15:31.000Z</time>
      </trkpt>
      <trkpt lat="47.50467" lon="6.74219">
        <ele>374</ele>
        <time>2015-05-08T10:15:32.000Z</time>
      </trkpt>
      <trkpt lat="47.50465" lon="6.74224">
        <ele>374</ele>
        <time>2015-05-08T10:15:33.000Z</time>
      </trkpt>
      <trkpt lat="47.50462" lon="6.74228">
        <ele>374</ele>
        <time>2015-05-08T10:15:34.000Z</time>
      </trkpt>
      <trkpt lat="47.50459" lon="6.74233">
        <ele>374</ele>
        <time>2015-05-08T10:15:35.000Z</time>
      </trkpt>
      <trkpt lat="47.50457" lon="6.74238">
        <ele>375</ele>
        <time>2015-05-08T10:15:36.000Z</time>
      </trkpt>
      <trkpt lat="47.50454" lon="6.74244">
        <ele>375</ele>
        <time>2015-05-08T10:15:37.000Z</time>
      </trkpt>
      <trkpt lat="47.50451" lon="6.7425">
        <ele>375</ele>
        <time>2015-05-08T10:15:38.000Z</time>
      </trkpt>
      <trkpt lat="47.50447" lon="6.74256">
        <ele>372</ele>
        <time>2015-05-08T10:15:39.000Z</time>
      </trkpt>
      <trkpt lat="47.50443" lon="6.74262">
        <ele>372</ele>
        <time>2015-05-08T10:15:40.000Z</time>
      </trkpt>
      <trkpt lat="47.5044" lon="6.74269">
        <ele>372</ele>
        <time>2015-05-08T10:15:41.000Z</time>
      </trkpt>
      <trkpt lat="47.50436" lon="6.74275">
        <ele>372</ele>
        <time>2015-05-08T10:15:42.000Z</time>
      </trkpt>
      <trkpt lat="47.50432" lon="6.74281">
        <ele>372</ele>
        <time>2015-05-08T10:15:43.000Z</time>
      </trkpt>
      <trkpt lat="47.50428" lon="6.74286">
        <ele>372</ele>
        <time>2015-05-08T10:15:44.000Z</time>
      </trkpt>
      <trkpt lat="47.50425" lon="6.74292">
        <ele>371</ele>
        <time>2015-05-08T10:15:45.000Z</time>
      </trkpt>
      <trkpt lat="47.50422" lon="6.74297">
        <ele>371</ele>
        <time>2015-05-08T10:15:46.000Z</time>
      </trkpt>
      <trkpt lat="47.50419" lon="6.74302">
        <ele>371</ele>
        <time>2015-05-08T10:15:47.000Z</time>
      </trkpt>
      <trkpt lat="47.50416" lon="6.74307">
        <ele>374</ele>
        <time>2015-05-08T10:15:48.000Z</time>
      </trkpt>
      <trkpt lat="47.50414" lon="6.74312">
        <ele>373</ele>
        <time>2015-05-08T10:15:49.000Z</time>
      </trkpt>
      <trkpt lat="47.50411" lon="6.74316">
        <ele>373</ele>
        <time>2015-05-08T10:15:50.000Z</time>
      </trkpt>
      <trkpt lat="47.50409" lon="6.7432">
        <ele>373</ele>
        <time>2015-05-08T10:15:51.000Z</time>
      </trkpt>
      <trkpt lat="47.50406" lon="6.74324">
        <ele>372</ele>
        <time>2015-05-08T10:15:52.000Z</time>
      </trkpt>
      <trkpt lat="47.50404" lon="6.74328">
        <ele>372</ele>
        <time>2015-05-08T10:15:53.000Z</time>
      </trkpt>
      <trkpt lat="47.50402" lon="6.74332">
        <ele>372</ele>
        <time>2015-05-08T10:15:54.000Z</time>
      </trkpt>
      <trkpt lat="47.504" lon="6.74336">
        <ele>367</ele>
        <time>2015-05-08T10:15:55.000Z</time>
      </trkpt>
      <trkpt lat="47.50398" lon="6.74339">
        <ele>367</ele>
        <time>2015-05-08T10:15:56.000Z</time>
      </trkpt>
      <trkpt lat="47.50395" lon="6.74344">
        <ele>366</ele>
        <time>2015-05-08T10:15:57.000Z</time>
      </trkpt>
      <trkpt lat="47.50393" lon="6.74348">
        <ele>366</ele>
        <time>2015-05-08T10:15:58.000Z</time>
      </trkpt>
      <trkpt lat="47.50392" lon="6.74354">
        <ele>365</ele>
        <time>2015-05-08T10:15:59.000Z</time>
      </trkpt>
      <trkpt lat="47.50391" lon="6.7436">
        <ele>365</ele>
        <time>2015-05-08T10:16:00.000Z</time>
      </trkpt>
      <trkpt lat="47.50391" lon="6.74366">
        <ele>364</ele>
        <time>2015-05-08T10:16:01.000Z</time>
      </trkpt>
      <trkpt lat="47.5039" lon="6.74372">
        <ele>364</ele>
        <time>2015-05-08T10:16:02.000Z</time>
      </trkpt>
      <trkpt lat="47.50388" lon="6.74379">
        <ele>363</ele>
        <time>2015-05-08T10:16:03.000Z</time>
      </trkpt>
      <trkpt lat="47.50387" lon="6.74394">
        <ele>362</ele>
        <time>2015-05-08T10:16:04.000Z</time>
      </trkpt>
      <trkpt lat="47.50388" lon="6.74411">
        <ele>361</ele>
        <time>2015-05-08T10:16:05.000Z</time>
      </trkpt>
      <trkpt lat="47.50386" lon="6.74418">
        <ele>357</ele>
        <time>2015-05-08T10:16:06.000Z</time>
      </trkpt>
      <trkpt lat="47.50383" lon="6.74425">
        <ele>356</ele>
        <time>2015-05-08T10:16:07.000Z</time>
      </trkpt>
      <trkpt lat="47.50381" lon="6.74435">
        <ele>356</ele>
        <time>2015-05-08T10:16:08.000Z</time>
      </trkpt>
      <trkpt lat="47.50378" lon="6.74443">
        <ele>356</ele>
        <time>2015-05-08T10:16:09.000Z</time>
      </trkpt>
      <trkpt lat="47.50375" lon="6.74451">
        <ele>355</ele>
        <time>2015-05-08T10:16:10.000Z</time>
      </trkpt>
      <trkpt lat="47.50373" lon="6.74458">
        <ele>355</ele>
        <time>2015-05-08T10:16:11.000Z</time>
      </trkpt>
      <trkpt lat="47.5037" lon="6.74464">
        <ele>355</ele>
        <time>2015-05-08T10:16:12.000Z</time>
      </trkpt>
      <trkpt lat="47.50367" lon="6.74468">
        <ele>355</ele>
        <time>2015-05-08T10:16:13.000Z</time>
      </trkpt>
      <trkpt lat="47.50366" lon="6.74474">
        <ele>355</ele>
        <time>2015-05-08T10:16:14.000Z</time>
      </trkpt>
      <trkpt lat="47.50366" lon="6.74481">
        <ele>354</ele>
        <time>2015-05-08T10:16:15.000Z</time>
      </trkpt>
      <trkpt lat="47.50368" lon="6.74488">
        <ele>354</ele>
        <time>2015-05-08T10:16:16.000Z</time>
      </trkpt>
      <trkpt lat="47.50371" lon="6.74495">
        <ele>354</ele>
        <time>2015-05-08T10:16:17.000Z</time>
      </trkpt>
      <trkpt lat="47.50373" lon="6.745">
        <ele>353</ele>
        <time>2015-05-08T10:16:18.000Z</time>
      </trkpt>
      <trkpt lat="47.50375" lon="6.74506">
        <ele>353</ele>
        <time>2015-05-08T10:16:19.000Z</time>
      </trkpt>
      <trkpt lat="47.50377" lon="6.74514">
        <ele>353</ele>
        <time>2015-05-08T10:16:20.000Z</time>
      </trkpt>
      <trkpt lat="47.50379" lon="6.7452">
        <ele>353</ele>
        <time>2015-05-08T10:16:21.000Z</time>
      </trkpt>
      <trkpt lat="47.5038" lon="6.74527">
        <ele>353</ele>
        <time>2015-05-08T10:16:22.000Z</time>
      </trkpt>
      <trkpt lat="47.50382" lon="6.74533">
        <ele>353</ele>
        <time>2015-05-08T10:16:23.000Z</time>
      </trkpt>
      <trkpt lat="47.50382" lon="6.74542">
        <ele>353</ele>
        <time>2015-05-08T10:16:24.000Z</time>
      </trkpt>
      <trkpt lat="47.50384" lon="6.7455">
        <ele>353</ele>
        <time>2015-05-08T10:16:25.000Z</time>
      </trkpt>
      <trkpt lat="47.50385" lon="6.74557">
        <ele>353</ele>
        <time>2015-05-08T10:16:26.000Z</time>
      </trkpt>
      <trkpt lat="47.50386" lon="6.74564">
        <ele>353</ele>
        <time>2015-05-08T10:16:27.000Z</time>
      </trkpt>
      <trkpt lat="47.50388" lon="6.74571">
        <ele>353</ele>
        <time>2015-05-08T10:16:28.000Z</time>
      </trkpt>
      <trkpt lat="47.50389" lon="6.74577">
        <ele>353</ele>
        <time>2015-05-08T10:16:29.000Z</time>
      </trkpt>
      <trkpt lat="47.5039" lon="6.74584">
        <ele>352</ele>
        <time>2015-05-08T10:16:30.000Z</time>
      </trkpt>
      <trkpt lat="47.5039" lon="6.74591">
        <ele>352</ele>
        <time>2015-05-08T10:16:31.000Z</time>
      </trkpt>
      <trkpt lat="47.50391" lon="6.746">
        <ele>352</ele>
        <time>2015-05-08T10:16:32.000Z</time>
      </trkpt>
      <trkpt lat="47.50393" lon="6.74608">
        <ele>352</ele>
        <time>2015-05-08T10:16:33.000Z</time>
      </trkpt>
      <trkpt lat="47.50394" lon="6.74616">
        <ele>352</ele>
        <time>2015-05-08T10:16:33.999Z</time>
      </trkpt>
      <trkpt lat="47.50395" lon="6.74625">
        <ele>352</ele>
        <time>2015-05-08T10:16:35.000Z</time>
      </trkpt>
      <trkpt lat="47.50397" lon="6.74633">
        <ele>352</ele>
        <time>2015-05-08T10:16:36.000Z</time>
      </trkpt>
      <trkpt lat="47.50398" lon="6.7464">
        <ele>352</ele>
        <time>2015-05-08T10:16:37.000Z</time>
      </trkpt>
      <trkpt lat="47.50399" lon="6.74648">
        <ele>352</ele>
        <time>2015-05-08T10:16:38.000Z</time>
      </trkpt>
      <trkpt lat="47.504" lon="6.74656">
        <ele>352</ele>
        <time>2015-05-08T10:16:39.000Z</time>
      </trkpt>
      <trkpt lat="47.50401" lon="6.74663">
        <ele>353</ele>
        <time>2015-05-08T10:16:40.000Z</time>
      </trkpt>
      <trkpt lat="47.504" lon="6.74672">
        <ele>352</ele>
        <time>2015-05-08T10:16:41.000Z</time>
      </trkpt>
      <trkpt lat="47.504" lon="6.74679">
        <ele>352</ele>
        <time>2015-05-08T10:16:42.000Z</time>
      </trkpt>
      <trkpt lat="47.50398" lon="6.74688">
        <ele>352</ele>
        <time>2015-05-08T10:16:43.000Z</time>
      </trkpt>
      <trkpt lat="47.50397" lon="6.74694">
        <ele>352</ele>
        <time>2015-05-08T10:16:44.000Z</time>
      </trkpt>
      <trkpt lat="47.50395" lon="6.74702">
        <ele>352</ele>
        <time>2015-05-08T10:16:45.000Z</time>
      </trkpt>
      <trkpt lat="47.50392" lon="6.74707">
        <ele>351</ele>
        <time>2015-05-08T10:16:46.000Z</time>
      </trkpt>
      <trkpt lat="47.5039" lon="6.74713">
        <ele>351</ele>
        <time>2015-05-08T10:16:47.000Z</time>
      </trkpt>
      <trkpt lat="47.5039" lon="6.74717">
        <ele>351</ele>
        <time>2015-05-08T10:16:48.000Z</time>
      </trkpt>
      <trkpt lat="47.50391" lon="6.7472">
        <ele>351</ele>
        <time>2015-05-08T10:16:49.000Z</time>
      </trkpt>
      <trkpt lat="47.50395" lon="6.74722">
        <ele>352</ele>
        <time>2015-05-08T10:16:51.000Z</time>
      </trkpt>
      <trkpt lat="47.50395" lon="6.74727">
        <ele>352</ele>
        <time>2015-05-08T10:16:52.000Z</time>
      </trkpt>
      <trkpt lat="47.50397" lon="6.74729">
        <ele>352</ele>
        <time>2015-05-08T10:16:53.000Z</time>
      </trkpt>
      <trkpt lat="47.50399" lon="6.7473">
        <ele>352</ele>
        <time>2015-05-08T10:16:54.000Z</time>
      </trkpt>
      <trkpt lat="47.50401" lon="6.74732">
        <ele>352</ele>
        <time>2015-05-08T10:16:55.000Z</time>
      </trkpt>
      <trkpt lat="47.50403" lon="6.74734">
        <ele>352</ele>
        <time>2015-05-08T10:16:56.000Z</time>
      </trkpt>
      <trkpt lat="47.50405" lon="6.74737">
        <ele>352</ele>
        <time>2015-05-08T10:16:57.000Z</time>
      </trkpt>
      <trkpt lat="47.50407" lon="6.7474">
        <ele>353</ele>
        <time>2015-05-08T10:16:58.000Z</time>
      </trkpt>
      <trkpt lat="47.50408" lon="6.74743">
        <ele>353</ele>
        <time>2015-05-08T10:16:59.000Z</time>
      </trkpt>
      <trkpt lat="47.50409" lon="6.74748">
        <ele>353</ele>
        <time>2015-05-08T10:17:00.000Z</time>
      </trkpt>
      <trkpt lat="47.5041" lon="6.74753">
        <ele>353</ele>
        <time>2015-05-08T10:17:01.000Z</time>
      </trkpt>
      <trkpt lat="47.50411" lon="6.74758">
        <ele>353</ele>
        <time>2015-05-08T10:17:02.000Z</time>
      </trkpt>
      <trkpt lat="47.50413" lon="6.74763">
        <ele>352</ele>
        <time>2015-05-08T10:17:03.000Z</time>
      </trkpt>
      <trkpt lat="47.50417" lon="6.74771">
        <ele>352</ele>
        <time>2015-05-08T10:17:04.000Z</time>
      </trkpt>
      <trkpt lat="47.50419" lon="6.74778">
        <ele>352</ele>
        <time>2015-05-08T10:17:05.000Z</time>
      </trkpt>
      <trkpt lat="47.50421" lon="6.74784">
        <ele>352</ele>
        <time>2015-05-08T10:17:06.000Z</time>
      </trkpt>
      <trkpt lat="47.50424" lon="6.7479">
        <ele>352</ele>
        <time>2015-05-08T10:17:07.000Z</time>
      </trkpt>
      <trkpt lat="47.50427" lon="6.74796">
        <ele>352</ele>
        <time>2015-05-08T10:17:08.000Z</time>
      </trkpt>
      <trkpt lat="47.5043" lon="6.74802">
        <ele>351</ele>
        <time>2015-05-08T10:17:09.000Z</time>
      </trkpt>
      <trkpt lat="47.50433" lon="6.74807">
        <ele>351</ele>
        <time>2015-05-08T10:17:10.000Z</time>
      </trkpt>
      <trkpt lat="47.50436" lon="6.74812">
        <ele>351</ele>
        <time>2015-05-08T10:17:11.000Z</time>
      </trkpt>
      <trkpt lat="47.5044" lon="6.74818">
        <ele>351</ele>
        <time>2015-05-08T10:17:12.000Z</time>
      </trkpt>
      <trkpt lat="47.50444" lon="6.74822">
        <ele>351</ele>
        <time>2015-05-08T10:17:13.000Z</time>
      </trkpt>
      <trkpt lat="47.50448" lon="6.74826">
        <ele>351</ele>
        <time>2015-05-08T10:17:14.000Z</time>
      </trkpt>
      <trkpt lat="47.50454" lon="6.74831">
        <ele>351</ele>
        <time>2015-05-08T10:17:15.000Z</time>
      </trkpt>
      <trkpt lat="47.50459" lon="6.74835">
        <ele>349</ele>
        <time>2015-05-08T10:17:16.000Z</time>
      </trkpt>
      <trkpt lat="47.50464" lon="6.74839">
        <ele>349</ele>
        <time>2015-05-08T10:17:17.000Z</time>
      </trkpt>
      <trkpt lat="47.5047" lon="6.74844">
        <ele>348</ele>
        <time>2015-05-08T10:17:18.000Z</time>
      </trkpt>
      <trkpt lat="47.50476" lon="6.74848">
        <ele>348</ele>
        <time>2015-05-08T10:17:19.000Z</time>
      </trkpt>
      <trkpt lat="47.50483" lon="6.74853">
        <ele>348</ele>
        <time>2015-05-08T10:17:20.000Z</time>
      </trkpt>
      <trkpt lat="47.50489" lon="6.74859">
        <ele>348</ele>
        <time>2015-05-08T10:17:21.000Z</time>
      </trkpt>
      <trkpt lat="47.50493" lon="6.74868">
        <ele>348</ele>
        <time>2015-05-08T10:17:22.000Z</time>
      </trkpt>
      <trkpt lat="47.50499" lon="6.74876">
        <ele>348</ele>
        <time>2015-05-08T10:17:23.000Z</time>
      </trkpt>
      <trkpt lat="47.50504" lon="6.74885">
        <ele>342</ele>
        <time>2015-05-08T10:17:24.000Z</time>
      </trkpt>
      <trkpt lat="47.50509" lon="6.74897">
        <ele>342</ele>
        <time>2015-05-08T10:17:25.000Z</time>
      </trkpt>
      <trkpt lat="47.50514" lon="6.74908">
        <ele>342</ele>
        <time>2015-05-08T10:17:26.000Z</time>
      </trkpt>
      <trkpt lat="47.50519" lon="6.74919">
        <ele>340</ele>
        <time>2015-05-08T10:17:27.000Z</time>
      </trkpt>
      <trkpt lat="47.50521" lon="6.74931">
        <ele>339</ele>
        <time>2015-05-08T10:17:28.000Z</time>
      </trkpt>
      <trkpt lat="47.50524" lon="6.74942">
        <ele>338</ele>
        <time>2015-05-08T10:17:29.000Z</time>
      </trkpt>
      <trkpt lat="47.50525" lon="6.74954">
        <ele>338</ele>
        <time>2015-05-08T10:17:30.000Z</time>
      </trkpt>
      <trkpt lat="47.50521" lon="6.74968">
        <ele>337</ele>
        <time>2015-05-08T10:17:31.000Z</time>
      </trkpt>
      <trkpt lat="47.50516" lon="6.74985">
        <ele>337</ele>
        <time>2015-05-08T10:17:32.000Z</time>
      </trkpt>
      <trkpt lat="47.50514" lon="6.74999">
        <ele>337</ele>
        <time>2015-05-08T10:17:33.000Z</time>
      </trkpt>
      <trkpt lat="47.50512" lon="6.75012">
        <ele>336</ele>
        <time>2015-05-08T10:17:34.000Z</time>
      </trkpt>
      <trkpt lat="47.5051" lon="6.75026">
        <ele>335</ele>
        <time>2015-05-08T10:17:35.000Z</time>
      </trkpt>
      <trkpt lat="47.50509" lon="6.7504">
        <ele>335</ele>
        <time>2015-05-08T10:17:36.000Z</time>
      </trkpt>
      <trkpt lat="47.50509" lon="6.75054">
        <ele>335</ele>
        <time>2015-05-08T10:17:37.000Z</time>
      </trkpt>
      <trkpt lat="47.50509" lon="6.75067">
        <ele>334</ele>
        <time>2015-05-08T10:17:38.000Z</time>
      </trkpt>
      <trkpt lat="47.50508" lon="6.75078">
        <ele>334</ele>
        <time>2015-05-08T10:17:39.000Z</time>
      </trkpt>
      <trkpt lat="47.50508" lon="6.75091">
        <ele>333</ele>
        <time>2015-05-08T10:17:40.000Z</time>
      </trkpt>
      <trkpt lat="47.5051" lon="6.75101">
        <ele>332</ele>
        <time>2015-05-08T10:17:41.000Z</time>
      </trkpt>
      <trkpt lat="47.5051" lon="6.75112">
        <ele>332</ele>
        <time>2015-05-08T10:17:42.000Z</time>
      </trkpt>
      <trkpt lat="47.50511" lon="6.75123">
        <ele>331</ele>
        <time>2015-05-08T10:17:43.000Z</time>
      </trkpt>
      <trkpt lat="47.5051" lon="6.75134">
        <ele>331</ele>
        <time>2015-05-08T10:17:44.000Z</time>
      </trkpt>
      <trkpt lat="47.50507" lon="6.75141">
        <ele>330</ele>
        <time>2015-05-08T10:17:45.000Z</time>
      </trkpt>
      <trkpt lat="47.50504" lon="6.75146">
        <ele>330</ele>
        <time>2015-05-08T10:17:46.000Z</time>
      </trkpt>
      <trkpt lat="47.50499" lon="6.75151">
        <ele>331</ele>
        <time>2015-05-08T10:17:47.000Z</time>
      </trkpt>
      <trkpt lat="47.50492" lon="6.75152">
        <ele>331</ele>
        <time>2015-05-08T10:17:48.000Z</time>
      </trkpt>
      <trkpt lat="47.50487" lon="6.75154">
        <ele>332</ele>
        <time>2015-05-08T10:17:49.000Z</time>
      </trkpt>
      <trkpt lat="47.50483" lon="6.75157">
        <ele>332</ele>
        <time>2015-05-08T10:17:51.000Z</time>
      </trkpt>
      <trkpt lat="47.50482" lon="6.75159">
        <ele>332</ele>
        <time>2015-05-08T10:17:52.000Z</time>
      </trkpt>
      <trkpt lat="47.5048" lon="6.75165">
        <ele>332</ele>
        <time>2015-05-08T10:17:54.000Z</time>
      </trkpt>
      <trkpt lat="47.5048" lon="6.75172">
        <ele>328</ele>
        <time>2015-05-08T10:17:55.000Z</time>
      </trkpt>
      <trkpt lat="47.5048" lon="6.75178">
        <ele>328</ele>
        <time>2015-05-08T10:17:56.000Z</time>
      </trkpt>
      <trkpt lat="47.5048" lon="6.75188">
        <ele>327</ele>
        <time>2015-05-08T10:17:57.000Z</time>
      </trkpt>
      <trkpt lat="47.5048" lon="6.75195">
        <ele>327</ele>
        <time>2015-05-08T10:17:58.000Z</time>
      </trkpt>
      <trkpt lat="47.50481" lon="6.75203">
        <ele>327</ele>
        <time>2015-05-08T10:17:59.000Z</time>
      </trkpt>
      <trkpt lat="47.50482" lon="6.75212">
        <ele>327</ele>
        <time>2015-05-08T10:18:00.000Z</time>
      </trkpt>
      <trkpt lat="47.50483" lon="6.75219">
        <ele>327</ele>
        <time>2015-05-08T10:18:01.000Z</time>
      </trkpt>
      <trkpt lat="47.50484" lon="6.75226">
        <ele>326</ele>
        <time>2015-05-08T10:18:02.000Z</time>
      </trkpt>
      <trkpt lat="47.50486" lon="6.75235">
        <ele>326</ele>
        <time>2015-05-08T10:18:03.000Z</time>
      </trkpt>
      <trkpt lat="47.50486" lon="6.75243">
        <ele>326</ele>
        <time>2015-05-08T10:18:04.000Z</time>
      </trkpt>
      <trkpt lat="47.50487" lon="6.7525">
        <ele>326</ele>
        <time>2015-05-08T10:18:05.000Z</time>
      </trkpt>
      <trkpt lat="47.50488" lon="6.75257">
        <ele>325</ele>
        <time>2015-05-08T10:18:06.000Z</time>
      </trkpt>
      <trkpt lat="47.50488" lon="6.75265">
        <ele>325</ele>
        <time>2015-05-08T10:18:07.000Z</time>
      </trkpt>
      <trkpt lat="47.5049" lon="6.75272">
        <ele>325</ele>
        <time>2015-05-08T10:18:08.000Z</time>
      </trkpt>
      <trkpt lat="47.50491" lon="6.75279">
        <ele>325</ele>
        <time>2015-05-08T10:18:09.000Z</time>
      </trkpt>
      <trkpt lat="47.50492" lon="6.75287">
        <ele>325</ele>
        <time>2015-05-08T10:18:10.000Z</time>
      </trkpt>
      <trkpt lat="47.50493" lon="6.75293">
        <ele>325</ele>
        <time>2015-05-08T10:18:11.000Z</time>
      </trkpt>
      <trkpt lat="47.50494" lon="6.75299">
        <ele>325</ele>
        <time>2015-05-08T10:18:12.000Z</time>
      </trkpt>
      <trkpt lat="47.50495" lon="6.75305">
        <ele>325</ele>
        <time>2015-05-08T10:18:13.000Z</time>
      </trkpt>
      <trkpt lat="47.50495" lon="6.7531">
        <ele>325</ele>
        <time>2015-05-08T10:18:14.000Z</time>
      </trkpt>
      <trkpt lat="47.50497" lon="6.75315">
        <ele>326</ele>
        <time>2015-05-08T10:18:15.000Z</time>
      </trkpt>
      <trkpt lat="47.50498" lon="6.75321">
        <ele>326</ele>
        <time>2015-05-08T10:18:16.000Z</time>
      </trkpt>
      <trkpt lat="47.50499" lon="6.75327">
        <ele>326</ele>
        <time>2015-05-08T10:18:17.000Z</time>
      </trkpt>
      <trkpt lat="47.505" lon="6.75333">
        <ele>326</ele>
        <time>2015-05-08T10:18:18.000Z</time>
      </trkpt>
      <trkpt lat="47.50501" lon="6.75339">
        <ele>327</ele>
        <time>2015-05-08T10:18:19.000Z</time>
      </trkpt>
      <trkpt lat="47.50503" lon="6.75345">
        <ele>328</ele>
        <time>2015-05-08T10:18:20.000Z</time>
      </trkpt>
      <trkpt lat="47.50505" lon="6.7535">
        <ele>329</ele>
        <time>2015-05-08T10:18:21.000Z</time>
      </trkpt>
      <trkpt lat="47.50507" lon="6.75355">
        <ele>329</ele>
        <time>2015-05-08T10:18:22.000Z</time>
      </trkpt>
      <trkpt lat="47.50509" lon="6.75359">
        <ele>330</ele>
        <time>2015-05-08T10:18:23.000Z</time>
      </trkpt>
      <trkpt lat="47.50511" lon="6.75363">
        <ele>330</ele>
        <time>2015-05-08T10:18:24.000Z</time>
      </trkpt>
      <trkpt lat="47.50519" lon="6.75363">
        <ele>330</ele>
        <time>2015-05-08T10:18:25.000Z</time>
      </trkpt>
      <trkpt lat="47.50523" lon="6.75365">
        <ele>330</ele>
        <time>2015-05-08T10:18:26.000Z</time>
      </trkpt>
      <trkpt lat="47.50526" lon="6.75368">
        <ele>331</ele>
        <time>2015-05-08T10:18:27.000Z</time>
      </trkpt>
      <trkpt lat="47.5053" lon="6.75372">
        <ele>331</ele>
        <time>2015-05-08T10:18:28.000Z</time>
      </trkpt>
      <trkpt lat="47.50534" lon="6.75374">
        <ele>331</ele>
        <time>2015-05-08T10:18:29.000Z</time>
      </trkpt>
      <trkpt lat="47.50538" lon="6.75377">
        <ele>331</ele>
        <time>2015-05-08T10:18:30.000Z</time>
      </trkpt>
      <trkpt lat="47.50542" lon="6.7538">
        <ele>331</ele>
        <time>2015-05-08T10:18:31.000Z</time>
      </trkpt>
      <trkpt lat="47.50546" lon="6.75382">
        <ele>331</ele>
        <time>2015-05-08T10:18:32.000Z</time>
      </trkpt>
      <trkpt lat="47.50551" lon="6.75384">
        <ele>332</ele>
        <time>2015-05-08T10:18:33.000Z</time>
      </trkpt>
      <trkpt lat="47.50555" lon="6.75387">
        <ele>332</ele>
        <time>2015-05-08T10:18:34.000Z</time>
      </trkpt>
      <trkpt lat="47.5056" lon="6.75388">
        <ele>332</ele>
        <time>2015-05-08T10:18:35.000Z</time>
      </trkpt>
      <trkpt lat="47.50564" lon="6.7539">
        <ele>332</ele>
        <time>2015-05-08T10:18:36.000Z</time>
      </trkpt>
      <trkpt lat="47.50569" lon="6.75389">
        <ele>332</ele>
        <time>2015-05-08T10:18:37.000Z</time>
      </trkpt>
      <trkpt lat="47.50574" lon="6.75389">
        <ele>332</ele>
        <time>2015-05-08T10:18:38.000Z</time>
      </trkpt>
      <trkpt lat="47.50577" lon="6.75391">
        <ele>332</ele>
        <time>2015-05-08T10:18:39.000Z</time>
      </trkpt>
      <trkpt lat="47.50581" lon="6.75391">
        <ele>332</ele>
        <time>2015-05-08T10:18:40.000Z</time>
      </trkpt>
      <trkpt lat="47.50585" lon="6.75389">
        <ele>332</ele>
        <time>2015-05-08T10:18:41.000Z</time>
      </trkpt>
      <trkpt lat="47.5059" lon="6.75388">
        <ele>332</ele>
        <time>2015-05-08T10:18:42.000Z</time>
      </trkpt>
      <trkpt lat="47.50594" lon="6.7539">
        <ele>332</ele>
        <time>2015-05-08T10:18:43.000Z</time>
      </trkpt>
      <trkpt lat="47.50598" lon="6.75392">
        <ele>332</ele>
        <time>2015-05-08T10:18:44.000Z</time>
      </trkpt>
      <trkpt lat="47.50602" lon="6.75391">
        <ele>332</ele>
        <time>2015-05-08T10:18:45.000Z</time>
      </trkpt>
      <trkpt lat="47.50606" lon="6.75392">
        <ele>332</ele>
        <time>2015-05-08T10:18:46.000Z</time>
      </trkpt>
      <trkpt lat="47.5061" lon="6.75392">
        <ele>332</ele>
        <time>2015-05-08T10:18:47.000Z</time>
      </trkpt>
      <trkpt lat="47.50614" lon="6.75393">
        <ele>332</ele>
        <time>2015-05-08T10:18:48.000Z</time>
      </trkpt>
      <trkpt lat="47.50616" lon="6.75395">
        <ele>332</ele>
        <time>2015-05-08T10:18:49.000Z</time>
      </trkpt>
      <trkpt lat="47.50619" lon="6.75397">
        <ele>332</ele>
        <time>2015-05-08T10:18:50.000Z</time>
      </trkpt>
      <trkpt lat="47.50623" lon="6.75397">
        <ele>332</ele>
        <time>2015-05-08T10:18:51.000Z</time>
      </trkpt>
      <trkpt lat="47.50626" lon="6.75399">
        <ele>332</ele>
        <time>2015-05-08T10:18:52.000Z</time>
      </trkpt>
      <trkpt lat="47.50629" lon="6.754">
        <ele>332</ele>
        <time>2015-05-08T10:18:53.000Z</time>
      </trkpt>
      <trkpt lat="47.50632" lon="6.75401">
        <ele>332</ele>
        <time>2015-05-08T10:18:54.000Z</time>
      </trkpt>
      <trkpt lat="47.50635" lon="6.75403">
        <ele>332</ele>
        <time>2015-05-08T10:18:55.000Z</time>
      </trkpt>
      <trkpt lat="47.50638" lon="6.75404">
        <ele>332</ele>
        <time>2015-05-08T10:18:56.000Z</time>
      </trkpt>
      <trkpt lat="47.50641" lon="6.75404">
        <ele>332</ele>
        <time>2015-05-08T10:18:57.000Z</time>
      </trkpt>
      <trkpt lat="47.50643" lon="6.75405">
        <ele>332</ele>
        <time>2015-05-08T10:18:58.000Z</time>
      </trkpt>
      <trkpt lat="47.50646" lon="6.75405">
        <ele>332</ele>
        <time>2015-05-08T10:18:59.000Z</time>
      </trkpt>
      <trkpt lat="47.5065" lon="6.75406">
        <ele>332</ele>
        <time>2015-05-08T10:19:00.000Z</time>
      </trkpt>
      <trkpt lat="47.50653" lon="6.75407">
        <ele>332</ele>
        <time>2015-05-08T10:19:01.000Z</time>
      </trkpt>
      <trkpt lat="47.50656" lon="6.75408">
        <ele>333</ele>
        <time>2015-05-08T10:19:02.000Z</time>
      </trkpt>
      <trkpt lat="47.50659" lon="6.75409">
        <ele>333</ele>
        <time>2015-05-08T10:19:03.000Z</time>
      </trkpt>
      <trkpt lat="47.50662" lon="6.75411">
        <ele>333</ele>
        <time>2015-05-08T10:19:04.000Z</time>
      </trkpt>
      <trkpt lat="47.50665" lon="6.75412">
        <ele>333</ele>
        <time>2015-05-08T10:19:05.000Z</time>
      </trkpt>
      <trkpt lat="47.50667" lon="6.75416">
        <ele>334</ele>
        <time>2015-05-08T10:19:06.000Z</time>
      </trkpt>
      <trkpt lat="47.50669" lon="6.7542">
        <ele>335</ele>
        <time>2015-05-08T10:19:07.000Z</time>
      </trkpt>
      <trkpt lat="47.50671" lon="6.75424">
        <ele>336</ele>
        <time>2015-05-08T10:19:08.000Z</time>
      </trkpt>
      <trkpt lat="47.50672" lon="6.75428">
        <ele>336</ele>
        <time>2015-05-08T10:19:09.000Z</time>
      </trkpt>
      <trkpt lat="47.50674" lon="6.75431">
        <ele>337</ele>
        <time>2015-05-08T10:19:10.000Z</time>
      </trkpt>
      <trkpt lat="47.50676" lon="6.75434">
        <ele>337</ele>
        <time>2015-05-08T10:19:11.000Z</time>
      </trkpt>
      <trkpt lat="47.50678" lon="6.75437">
        <ele>338</ele>
        <time>2015-05-08T10:19:12.000Z</time>
      </trkpt>
      <trkpt lat="47.50679" lon="6.75439">
        <ele>338</ele>
        <time>2015-05-08T10:19:13.000Z</time>
      </trkpt>
      <trkpt lat="47.50681" lon="6.75442">
        <ele>338</ele>
        <time>2015-05-08T10:19:14.000Z</time>
      </trkpt>
      <trkpt lat="47.50682" lon="6.75445">
        <ele>338</ele>
        <time>2015-05-08T10:19:15.000Z</time>
      </trkpt>
      <trkpt lat="47.50683" lon="6.75448">
        <ele>339</ele>
        <time>2015-05-08T10:19:16.000Z</time>
      </trkpt>
      <trkpt lat="47.50685" lon="6.75451">
        <ele>339</ele>
        <time>2015-05-08T10:19:17.000Z</time>
      </trkpt>
      <trkpt lat="47.50686" lon="6.75454">
        <ele>339</ele>
        <time>2015-05-08T10:19:18.000Z</time>
      </trkpt>
      <trkpt lat="47.50687" lon="6.75457">
        <ele>339</ele>
        <time>2015-05-08T10:19:19.000Z</time>
      </trkpt>
      <trkpt lat="47.50688" lon="6.75461">
        <ele>340</ele>
        <time>2015-05-08T10:19:20.000Z</time>
      </trkpt>
      <trkpt lat="47.50688" lon="6.75464">
        <ele>340</ele>
        <time>2015-05-08T10:19:21.000Z</time>
      </trkpt>
      <trkpt lat="47.50689" lon="6.75468">
        <ele>340</ele>
        <time>2015-05-08T10:19:22.000Z</time>
      </trkpt>
      <trkpt lat="47.5069" lon="6.75471">
        <ele>340</ele>
        <time>2015-05-08T10:19:23.000Z</time>
      </trkpt>
      <trkpt lat="47.50692" lon="6.75474">
        <ele>340</ele>
        <time>2015-05-08T10:19:24.000Z</time>
      </trkpt>
      <trkpt lat="47.50693" lon="6.75477">
        <ele>341</ele>
        <time>2015-05-08T10:19:25.000Z</time>
      </trkpt>
      <trkpt lat="47.50694" lon="6.7548">
        <ele>341</ele>
        <time>2015-05-08T10:19:26.000Z</time>
      </trkpt>
      <trkpt lat="47.50695" lon="6.75483">
        <ele>341</ele>
        <time>2015-05-08T10:19:27.000Z</time>
      </trkpt>
      <trkpt lat="47.50697" lon="6.75486">
        <ele>341</ele>
        <time>2015-05-08T10:19:28.000Z</time>
      </trkpt>
      <trkpt lat="47.50698" lon="6.75489">
        <ele>341</ele>
        <time>2015-05-08T10:19:29.000Z</time>
      </trkpt>
      <trkpt lat="47.50699" lon="6.75492">
        <ele>341</ele>
        <time>2015-05-08T10:19:30.000Z</time>
      </trkpt>
      <trkpt lat="47.50701" lon="6.75496">
        <ele>341</ele>
        <time>2015-05-08T10:19:31.000Z</time>
      </trkpt>
      <trkpt lat="47.50702" lon="6.75499">
        <ele>341</ele>
        <time>2015-05-08T10:19:32.000Z</time>
      </trkpt>
      <trkpt lat="47.50704" lon="6.75503">
        <ele>346</ele>
        <time>2015-05-08T10:19:33.000Z</time>
      </trkpt>
      <trkpt lat="47.50705" lon="6.75506">
        <ele>346</ele>
        <time>2015-05-08T10:19:34.000Z</time>
      </trkpt>
      <trkpt lat="47.50706" lon="6.7551">
        <ele>346</ele>
        <time>2015-05-08T10:19:35.000Z</time>
      </trkpt>
      <trkpt lat="47.50708" lon="6.75514">
        <ele>346</ele>
        <time>2015-05-08T10:19:36.000Z</time>
      </trkpt>
      <trkpt lat="47.50709" lon="6.75517">
        <ele>347</ele>
        <time>2015-05-08T10:19:37.000Z</time>
      </trkpt>
      <trkpt lat="47.5071" lon="6.7552">
        <ele>347</ele>
        <time>2015-05-08T10:19:38.000Z</time>
      </trkpt>
      <trkpt lat="47.5071" lon="6.75524">
        <ele>347</ele>
        <time>2015-05-08T10:19:39.000Z</time>
      </trkpt>
      <trkpt lat="47.50711" lon="6.75527">
        <ele>347</ele>
        <time>2015-05-08T10:19:40.000Z</time>
      </trkpt>
      <trkpt lat="47.50712" lon="6.75531">
        <ele>347</ele>
        <time>2015-05-08T10:19:41.000Z</time>
      </trkpt>
      <trkpt lat="47.50713" lon="6.75535">
        <ele>347</ele>
        <time>2015-05-08T10:19:42.000Z</time>
      </trkpt>
      <trkpt lat="47.50714" lon="6.75539">
        <ele>347</ele>
        <time>2015-05-08T10:19:43.000Z</time>
      </trkpt>
      <trkpt lat="47.50715" lon="6.75542">
        <ele>348</ele>
        <time>2015-05-08T10:19:44.000Z</time>
      </trkpt>
      <trkpt lat="47.50716" lon="6.75545">
        <ele>348</ele>
        <time>2015-05-08T10:19:45.000Z</time>
      </trkpt>
      <trkpt lat="47.50717" lon="6.75548">
        <ele>348</ele>
        <time>2015-05-08T10:19:46.000Z</time>
      </trkpt>
      <trkpt lat="47.50717" lon="6.75552">
        <ele>348</ele>
        <time>2015-05-08T10:19:47.000Z</time>
      </trkpt>
      <trkpt lat="47.50718" lon="6.75556">
        <ele>348</ele>
        <time>2015-05-08T10:19:48.000Z</time>
      </trkpt>
      <trkpt lat="47.50719" lon="6.7556">
        <ele>348</ele>
        <time>2015-05-08T10:19:49.000Z</time>
      </trkpt>
      <trkpt lat="47.5072" lon="6.75564">
        <ele>348</ele>
        <time>2015-05-08T10:19:50.000Z</time>
      </trkpt>
      <trkpt lat="47.50721" lon="6.75567">
        <ele>349</ele>
        <time>2015-05-08T10:19:51.000Z</time>
      </trkpt>
      <trkpt lat="47.50721" lon="6.7557">
        <ele>349</ele>
        <time>2015-05-08T10:19:52.000Z</time>
      </trkpt>
      <trkpt lat="47.50722" lon="6.75576">
        <ele>349</ele>
        <time>2015-05-08T10:19:54.000Z</time>
      </trkpt>
      <trkpt lat="47.50722" lon="6.7558">
        <ele>349</ele>
        <time>2015-05-08T10:19:55.000Z</time>
      </trkpt>
      <trkpt lat="47.50723" lon="6.75583">
        <ele>349</ele>
        <time>2015-05-08T10:19:56.000Z</time>
      </trkpt>
      <trkpt lat="47.50724" lon="6.75586">
        <ele>353</ele>
        <time>2015-05-08T10:19:57.000Z</time>
      </trkpt>
      <trkpt lat="47.50725" lon="6.75592">
        <ele>354</ele>
        <time>2015-05-08T10:20:00.000Z</time>
      </trkpt>
      <trkpt lat="47.50724" lon="6.75593">
        <ele>354</ele>
        <time>2015-05-08T10:20:01.000Z</time>
      </trkpt>
      <trkpt lat="47.50722" lon="6.75599">
        <ele>354</ele>
        <time>2015-05-08T10:20:04.000Z</time>
      </trkpt>
      <trkpt lat="47.50722" lon="6.75602">
        <ele>354</ele>
        <time>2015-05-08T10:20:05.000Z</time>
      </trkpt>
      <trkpt lat="47.50722" lon="6.75606">
        <ele>354</ele>
        <time>2015-05-08T10:20:06.000Z</time>
      </trkpt>
      <trkpt lat="47.50722" lon="6.75609">
        <ele>354</ele>
        <time>2015-05-08T10:20:07.000Z</time>
      </trkpt>
      <trkpt lat="47.50722" lon="6.75613">
        <ele>355</ele>
        <time>2015-05-08T10:20:08.000Z</time>
      </trkpt>
      <trkpt lat="47.50723" lon="6.75617">
        <ele>355</ele>
        <time>2015-05-08T10:20:09.000Z</time>
      </trkpt>
      <trkpt lat="47.50723" lon="6.7562">
        <ele>355</ele>
        <time>2015-05-08T10:20:10.000Z</time>
      </trkpt>
      <trkpt lat="47.50724" lon="6.75624">
        <ele>355</ele>
        <time>2015-05-08T10:20:11.000Z</time>
      </trkpt>
      <trkpt lat="47.50724" lon="6.75628">
        <ele>355</ele>
        <time>2015-05-08T10:20:12.000Z</time>
      </trkpt>
      <trkpt lat="47.50724" lon="6.75632">
        <ele>355</ele>
        <time>2015-05-08T10:20:13.000Z</time>
      </trkpt>
      <trkpt lat="47.50724" lon="6.75636">
        <ele>356</ele>
        <time>2015-05-08T10:20:14.000Z</time>
      </trkpt>
      <trkpt lat="47.50724" lon="6.7564">
        <ele>356</ele>
        <time>2015-05-08T10:20:15.000Z</time>
      </trkpt>
      <trkpt lat="47.50725" lon="6.75646">
        <ele>356</ele>
        <time>2015-05-08T10:20:17.000Z</time>
      </trkpt>
      <trkpt lat="47.50725" lon="6.75649">
        <ele>356</ele>
        <time>2015-05-08T10:20:18.000Z</time>
      </trkpt>
      <trkpt lat="47.50726" lon="6.75655">
        <ele>356</ele>
        <time>2015-05-08T10:20:20.000Z</time>
      </trkpt>
      <trkpt lat="47.50726" lon="6.75658">
        <ele>357</ele>
        <time>2015-05-08T10:20:21.000Z</time>
      </trkpt>
      <trkpt lat="47.50726" lon="6.75664">
        <ele>357</ele>
        <time>2015-05-08T10:20:23.000Z</time>
      </trkpt>
      <trkpt lat="47.50725" lon="6.75667">
        <ele>361</ele>
        <time>2015-05-08T10:20:24.000Z</time>
      </trkpt>
      <trkpt lat="47.50725" lon="6.75671">
        <ele>362</ele>
        <time>2015-05-08T10:20:25.000Z</time>
      </trkpt>
      <trkpt lat="47.50724" lon="6.75674">
        <ele>362</ele>
        <time>2015-05-08T10:20:26.000Z</time>
      </trkpt>
      <trkpt lat="47.50724" lon="6.7568">
        <ele>362</ele>
        <time>2015-05-08T10:20:28.000Z</time>
      </trkpt>
      <trkpt lat="47.50723" lon="6.75683">
        <ele>362</ele>
        <time>2015-05-08T10:20:29.000Z</time>
      </trkpt>
      <trkpt lat="47.50723" lon="6.75688">
        <ele>362</ele>
        <time>2015-05-08T10:20:31.000Z</time>
      </trkpt>
      <trkpt lat="47.50722" lon="6.75691">
        <ele>363</ele>
        <time>2015-05-08T10:20:32.000Z</time>
      </trkpt>
      <trkpt lat="47.50722" lon="6.75697">
        <ele>363</ele>
        <time>2015-05-08T10:20:34.000Z</time>
      </trkpt>
      <trkpt lat="47.50721" lon="6.757">
        <ele>363</ele>
        <time>2015-05-08T10:20:35.000Z</time>
      </trkpt>
      <trkpt lat="47.5072" lon="6.75706">
        <ele>363</ele>
        <time>2015-05-08T10:20:37.000Z</time>
      </trkpt>
      <trkpt lat="47.50719" lon="6.75709">
        <ele>364</ele>
        <time>2015-05-08T10:20:38.000Z</time>
      </trkpt>
      <trkpt lat="47.5072" lon="6.75715">
        <ele>364</ele>
        <time>2015-05-08T10:20:40.000Z</time>
      </trkpt>
      <trkpt lat="47.50721" lon="6.75717">
        <ele>364</ele>
        <time>2015-05-08T10:20:41.000Z</time>
      </trkpt>
      <trkpt lat="47.50722" lon="6.75722">
        <ele>364</ele>
        <time>2015-05-08T10:20:43.000Z</time>
      </trkpt>
      <trkpt lat="47.50722" lon="6.75725">
        <ele>364</ele>
        <time>2015-05-08T10:20:44.000Z</time>
      </trkpt>
      <trkpt lat="47.50721" lon="6.75731">
        <ele>364</ele>
        <time>2015-05-08T10:20:46.000Z</time>
      </trkpt>
      <trkpt lat="47.50721" lon="6.75735">
        <ele>365</ele>
        <time>2015-05-08T10:20:47.000Z</time>
      </trkpt>
      <trkpt lat="47.50722" lon="6.75739">
        <ele>365</ele>
        <time>2015-05-08T10:20:48.000Z</time>
      </trkpt>
      <trkpt lat="47.50722" lon="6.75743">
        <ele>365</ele>
        <time>2015-05-08T10:20:49.000Z</time>
      </trkpt>
      <trkpt lat="47.50722" lon="6.75747">
        <ele>365</ele>
        <time>2015-05-08T10:20:50.000Z</time>
      </trkpt>
      <trkpt lat="47.50722" lon="6.75751">
        <ele>369</ele>
        <time>2015-05-08T10:20:51.000Z</time>
      </trkpt>
      <trkpt lat="47.50722" lon="6.75754">
        <ele>369</ele>
        <time>2015-05-08T10:20:52.000Z</time>
      </trkpt>
      <trkpt lat="47.50723" lon="6.75757">
        <ele>369</ele>
        <time>2015-05-08T10:20:53.000Z</time>
      </trkpt>
      <trkpt lat="47.50723" lon="6.75764">
        <ele>370</ele>
        <time>2015-05-08T10:20:55.000Z</time>
      </trkpt>
      <trkpt lat="47.50724" lon="6.75767">
        <ele>370</ele>
        <time>2015-05-08T10:20:56.000Z</time>
      </trkpt>
      <trkpt lat="47.50724" lon="6.75773">
        <ele>370</ele>
        <time>2015-05-08T10:20:58.000Z</time>
      </trkpt>
      <trkpt lat="47.50724" lon="6.75776">
        <ele>370</ele>
        <time>2015-05-08T10:20:59.000Z</time>
      </trkpt>
      <trkpt lat="47.50723" lon="6.75783">
        <ele>371</ele>
        <time>2015-05-08T10:21:01.000Z</time>
      </trkpt>
      <trkpt lat="47.50722" lon="6.75786">
        <ele>371</ele>
        <time>2015-05-08T10:21:02.000Z</time>
      </trkpt>
      <trkpt lat="47.50723" lon="6.75789">
        <ele>371</ele>
        <time>2015-05-08T10:21:03.000Z</time>
      </trkpt>
      <trkpt lat="47.50724" lon="6.75793">
        <ele>371</ele>
        <time>2015-05-08T10:21:04.000Z</time>
      </trkpt>
      <trkpt lat="47.50725" lon="6.75799">
        <ele>372</ele>
        <time>2015-05-08T10:21:06.000Z</time>
      </trkpt>
      <trkpt lat="47.50726" lon="6.75802">
        <ele>372</ele>
        <time>2015-05-08T10:21:07.000Z</time>
      </trkpt>
      <trkpt lat="47.50725" lon="6.75806">
        <ele>372</ele>
        <time>2015-05-08T10:21:08.000Z</time>
      </trkpt>
      <trkpt lat="47.50724" lon="6.75809">
        <ele>372</ele>
        <time>2015-05-08T10:21:09.000Z</time>
      </trkpt>
      <trkpt lat="47.50722" lon="6.75813">
        <ele>372</ele>
        <time>2015-05-08T10:21:10.000Z</time>
      </trkpt>
      <trkpt lat="47.50721" lon="6.75816">
        <ele>372</ele>
        <time>2015-05-08T10:21:11.000Z</time>
      </trkpt>
      <trkpt lat="47.5072" lon="6.75822">
        <ele>373</ele>
        <time>2015-05-08T10:21:13.000Z</time>
      </trkpt>
      <trkpt lat="47.50719" lon="6.75825">
        <ele>373</ele>
        <time>2015-05-08T10:21:14.000Z</time>
      </trkpt>
      <trkpt lat="47.50719" lon="6.7583">
        <ele>373</ele>
        <time>2015-05-08T10:21:16.000Z</time>
      </trkpt>
      <trkpt lat="47.50719" lon="6.75833">
        <ele>373</ele>
        <time>2015-05-08T10:21:17.000Z</time>
      </trkpt>
      <trkpt lat="47.50719" lon="6.75838">
        <ele>376</ele>
        <time>2015-05-08T10:21:19.000Z</time>
      </trkpt>
      <trkpt lat="47.5072" lon="6.75841">
        <ele>376</ele>
        <time>2015-05-08T10:21:20.000Z</time>
      </trkpt>
      <trkpt lat="47.50721" lon="6.75846">
        <ele>376</ele>
        <time>2015-05-08T10:21:22.000Z</time>
      </trkpt>
      <trkpt lat="47.50721" lon="6.75849">
        <ele>377</ele>
        <time>2015-05-08T10:21:23.000Z</time>
      </trkpt>
      <trkpt lat="47.50722" lon="6.75854">
        <ele>377</ele>
        <time>2015-05-08T10:21:25.000Z</time>
      </trkpt>
      <trkpt lat="47.50723" lon="6.75858">
        <ele>377</ele>
        <time>2015-05-08T10:21:26.000Z</time>
      </trkpt>
      <trkpt lat="47.50723" lon="6.75862">
        <ele>377</ele>
        <time>2015-05-08T10:21:27.000Z</time>
      </trkpt>
      <trkpt lat="47.50724" lon="6.75866">
        <ele>377</ele>
        <time>2015-05-08T10:21:28.000Z</time>
      </trkpt>
      <trkpt lat="47.50725" lon="6.75871">
        <ele>377</ele>
        <time>2015-05-08T10:21:29.000Z</time>
      </trkpt>
      <trkpt lat="47.50726" lon="6.75875">
        <ele>377</ele>
        <time>2015-05-08T10:21:30.000Z</time>
      </trkpt>
      <trkpt lat="47.50727" lon="6.75878">
        <ele>377</ele>
        <time>2015-05-08T10:21:31.000Z</time>
      </trkpt>
      <trkpt lat="47.50728" lon="6.75882">
        <ele>378</ele>
        <time>2015-05-08T10:21:32.000Z</time>
      </trkpt>
      <trkpt lat="47.50728" lon="6.75888">
        <ele>378</ele>
        <time>2015-05-08T10:21:34.000Z</time>
      </trkpt>
      <trkpt lat="47.50728" lon="6.7589">
        <ele>378</ele>
        <time>2015-05-08T10:21:35.000Z</time>
      </trkpt>
      <trkpt lat="47.50729" lon="6.75896">
        <ele>378</ele>
        <time>2015-05-08T10:21:38.000Z</time>
      </trkpt>
      <trkpt lat="47.50729" lon="6.75898">
        <ele>378</ele>
        <time>2015-05-08T10:21:39.000Z</time>
      </trkpt>
      <trkpt lat="47.50728" lon="6.75903">
        <ele>378</ele>
        <time>2015-05-08T10:21:41.000Z</time>
      </trkpt>
      <trkpt lat="47.50728" lon="6.75905">
        <ele>378</ele>
        <time>2015-05-08T10:21:42.000Z</time>
      </trkpt>
      <trkpt lat="47.50728" lon="6.75911">
        <ele>378</ele>
        <time>2015-05-08T10:21:44.000Z</time>
      </trkpt>
      <trkpt lat="47.50728" lon="6.75914">
        <ele>378</ele>
        <time>2015-05-08T10:21:45.000Z</time>
      </trkpt>
      <trkpt lat="47.50727" lon="6.75918">
        <ele>381</ele>
        <time>2015-05-08T10:21:46.000Z</time>
      </trkpt>
      <trkpt lat="47.50726" lon="6.75921">
        <ele>381</ele>
        <time>2015-05-08T10:21:47.000Z</time>
      </trkpt>
      <trkpt lat="47.50725" lon="6.75925">
        <ele>381</ele>
        <time>2015-05-08T10:21:48.000Z</time>
      </trkpt>
      <trkpt lat="47.50725" lon="6.75928">
        <ele>381</ele>
        <time>2015-05-08T10:21:49.000Z</time>
      </trkpt>
      <trkpt lat="47.50725" lon="6.75934">
        <ele>382</ele>
        <time>2015-05-08T10:21:51.000Z</time>
      </trkpt>
      <trkpt lat="47.50724" lon="6.75937">
        <ele>382</ele>
        <time>2015-05-08T10:21:52.000Z</time>
      </trkpt>
      <trkpt lat="47.50724" lon="6.75943">
        <ele>382</ele>
        <time>2015-05-08T10:21:54.000Z</time>
      </trkpt>
      <trkpt lat="47.50723" lon="6.75946">
        <ele>382</ele>
        <time>2015-05-08T10:21:55.000Z</time>
      </trkpt>
      <trkpt lat="47.50723" lon="6.7595">
        <ele>382</ele>
        <time>2015-05-08T10:21:56.000Z</time>
      </trkpt>
      <trkpt lat="47.50722" lon="6.75954">
        <ele>382</ele>
        <time>2015-05-08T10:21:57.000Z</time>
      </trkpt>
      <trkpt lat="47.50721" lon="6.75958">
        <ele>382</ele>
        <time>2015-05-08T10:21:58.000Z</time>
      </trkpt>
      <trkpt lat="47.50721" lon="6.75962">
        <ele>383</ele>
        <time>2015-05-08T10:21:59.000Z</time>
      </trkpt>
      <trkpt lat="47.50721" lon="6.75966">
        <ele>383</ele>
        <time>2015-05-08T10:22:00.000Z</time>
      </trkpt>
      <trkpt lat="47.5072" lon="6.75971">
        <ele>383</ele>
        <time>2015-05-08T10:22:01.000Z</time>
      </trkpt>
      <trkpt lat="47.5072" lon="6.75975">
        <ele>383</ele>
        <time>2015-05-08T10:22:02.000Z</time>
      </trkpt>
      <trkpt lat="47.50721" lon="6.75979">
        <ele>383</ele>
        <time>2015-05-08T10:22:03.000Z</time>
      </trkpt>
      <trkpt lat="47.50722" lon="6.75983">
        <ele>383</ele>
        <time>2015-05-08T10:22:04.000Z</time>
      </trkpt>
      <trkpt lat="47.50722" lon="6.75986">
        <ele>383</ele>
        <time>2015-05-08T10:22:05.000Z</time>
      </trkpt>
      <trkpt lat="47.50723" lon="6.7599">
        <ele>383</ele>
        <time>2015-05-08T10:22:06.000Z</time>
      </trkpt>
      <trkpt lat="47.50724" lon="6.75994">
        <ele>383</ele>
        <time>2015-05-08T10:22:07.000Z</time>
      </trkpt>
      <trkpt lat="47.50724" lon="6.75998">
        <ele>383</ele>
        <time>2015-05-08T10:22:08.000Z</time>
      </trkpt>
      <trkpt lat="47.50725" lon="6.76003">
        <ele>385</ele>
        <time>2015-05-08T10:22:09.000Z</time>
      </trkpt>
      <trkpt lat="47.50724" lon="6.76007">
        <ele>385</ele>
        <time>2015-05-08T10:22:10.000Z</time>
      </trkpt>
      <trkpt lat="47.50724" lon="6.76012">
        <ele>385</ele>
        <time>2015-05-08T10:22:11.000Z</time>
      </trkpt>
      <trkpt lat="47.50724" lon="6.76018">
        <ele>385</ele>
        <time>2015-05-08T10:22:12.000Z</time>
      </trkpt>
      <trkpt lat="47.50724" lon="6.76024">
        <ele>385</ele>
        <time>2015-05-08T10:22:13.000Z</time>
      </trkpt>
      <trkpt lat="47.50724" lon="6.76029">
        <ele>386</ele>
        <time>2015-05-08T10:22:14.000Z</time>
      </trkpt>
      <trkpt lat="47.50724" lon="6.76034">
        <ele>386</ele>
        <time>2015-05-08T10:22:15.000Z</time>
      </trkpt>
      <trkpt lat="47.50724" lon="6.76038">
        <ele>386</ele>
        <time>2015-05-08T10:22:16.000Z</time>
      </trkpt>
      <trkpt lat="47.50724" lon="6.76042">
        <ele>386</ele>
        <time>2015-05-08T10:22:17.000Z</time>
      </trkpt>
      <trkpt lat="47.50724" lon="6.76046">
        <ele>386</ele>
        <time>2015-05-08T10:22:18.000Z</time>
      </trkpt>
      <trkpt lat="47.50723" lon="6.76049">
        <ele>386</ele>
        <time>2015-05-08T10:22:19.000Z</time>
      </trkpt>
      <trkpt lat="47.50722" lon="6.76053">
        <ele>386</ele>
        <time>2015-05-08T10:22:20.000Z</time>
      </trkpt>
      <trkpt lat="47.50721" lon="6.76056">
        <ele>386</ele>
        <time>2015-05-08T10:22:21.000Z</time>
      </trkpt>
      <trkpt lat="47.5072" lon="6.7606">
        <ele>386</ele>
        <time>2015-05-08T10:22:22.000Z</time>
      </trkpt>
      <trkpt lat="47.5072" lon="6.76063">
        <ele>386</ele>
        <time>2015-05-08T10:22:23.000Z</time>
      </trkpt>
      <trkpt lat="47.5072" lon="6.76067">
        <ele>386</ele>
        <time>2015-05-08T10:22:24.000Z</time>
      </trkpt>
      <trkpt lat="47.50719" lon="6.7607">
        <ele>386</ele>
        <time>2015-05-08T10:22:25.000Z</time>
      </trkpt>
      <trkpt lat="47.50719" lon="6.76074">
        <ele>386</ele>
        <time>2015-05-08T10:22:26.000Z</time>
      </trkpt>
      <trkpt lat="47.50719" lon="6.76078">
        <ele>386</ele>
        <time>2015-05-08T10:22:27.000Z</time>
      </trkpt>
      <trkpt lat="47.50719" lon="6.76083">
        <ele>386</ele>
        <time>2015-05-08T10:22:28.000Z</time>
      </trkpt>
      <trkpt lat="47.50718" lon="6.76088">
        <ele>388</ele>
        <time>2015-05-08T10:22:29.000Z</time>
      </trkpt>
      <trkpt lat="47.50718" lon="6.76093">
        <ele>388</ele>
        <time>2015-05-08T10:22:30.000Z</time>
      </trkpt>
      <trkpt lat="47.50718" lon="6.76099">
        <ele>388</ele>
        <time>2015-05-08T10:22:31.000Z</time>
      </trkpt>
      <trkpt lat="47.50717" lon="6.76105">
        <ele>388</ele>
        <time>2015-05-08T10:22:32.000Z</time>
      </trkpt>
      <trkpt lat="47.50717" lon="6.7611">
        <ele>389</ele>
        <time>2015-05-08T10:22:33.000Z</time>
      </trkpt>
      <trkpt lat="47.50717" lon="6.76115">
        <ele>389</ele>
        <time>2015-05-08T10:22:34.000Z</time>
      </trkpt>
      <trkpt lat="47.50717" lon="6.76121">
        <ele>389</ele>
        <time>2015-05-08T10:22:35.000Z</time>
      </trkpt>
      <trkpt lat="47.50717" lon="6.76127">
        <ele>389</ele>
        <time>2015-05-08T10:22:36.000Z</time>
      </trkpt>
      <trkpt lat="47.50717" lon="6.76133">
        <ele>389</ele>
        <time>2015-05-08T10:22:37.000Z</time>
      </trkpt>
      <trkpt lat="47.50717" lon="6.76139">
        <ele>389</ele>
        <time>2015-05-08T10:22:38.000Z</time>
      </trkpt>
      <trkpt lat="47.50717" lon="6.76145">
        <ele>389</ele>
        <time>2015-05-08T10:22:39.000Z</time>
      </trkpt>
      <trkpt lat="47.50717" lon="6.76151">
        <ele>389</ele>
        <time>2015-05-08T10:22:40.000Z</time>
      </trkpt>
      <trkpt lat="47.50717" lon="6.76156">
        <ele>389</ele>
        <time>2015-05-08T10:22:41.000Z</time>
      </trkpt>
      <trkpt lat="47.50717" lon="6.76162">
        <ele>389</ele>
        <time>2015-05-08T10:22:42.000Z</time>
      </trkpt>
      <trkpt lat="47.50717" lon="6.76167">
        <ele>389</ele>
        <time>2015-05-08T10:22:43.000Z</time>
      </trkpt>
      <trkpt lat="47.50717" lon="6.76173">
        <ele>389</ele>
        <time>2015-05-08T10:22:44.000Z</time>
      </trkpt>
      <trkpt lat="47.50717" lon="6.76179">
        <ele>389</ele>
        <time>2015-05-08T10:22:45.000Z</time>
      </trkpt>
      <trkpt lat="47.50717" lon="6.76184">
        <ele>389</ele>
        <time>2015-05-08T10:22:46.000Z</time>
      </trkpt>
      <trkpt lat="47.50718" lon="6.76189">
        <ele>389</ele>
        <time>2015-05-08T10:22:47.000Z</time>
      </trkpt>
      <trkpt lat="47.50719" lon="6.76194">
        <ele>388</ele>
        <time>2015-05-08T10:22:48.000Z</time>
      </trkpt>
      <trkpt lat="47.5072" lon="6.76199">
        <ele>388</ele>
        <time>2015-05-08T10:22:49.000Z</time>
      </trkpt>
      <trkpt lat="47.50721" lon="6.76204">
        <ele>388</ele>
        <time>2015-05-08T10:22:50.000Z</time>
      </trkpt>
      <trkpt lat="47.50722" lon="6.76209">
        <ele>388</ele>
        <time>2015-05-08T10:22:51.000Z</time>
      </trkpt>
      <trkpt lat="47.50723" lon="6.76215">
        <ele>388</ele>
        <time>2015-05-08T10:22:52.000Z</time>
      </trkpt>
      <trkpt lat="47.50724" lon="6.7622">
        <ele>388</ele>
        <time>2015-05-08T10:22:53.000Z</time>
      </trkpt>
      <trkpt lat="47.50726" lon="6.76225">
        <ele>388</ele>
        <time>2015-05-08T10:22:54.000Z</time>
      </trkpt>
      <trkpt lat="47.50727" lon="6.7623">
        <ele>387</ele>
        <time>2015-05-08T10:22:55.000Z</time>
      </trkpt>
      <trkpt lat="47.50728" lon="6.76234">
        <ele>387</ele>
        <time>2015-05-08T10:22:56.000Z</time>
      </trkpt>
      <trkpt lat="47.50729" lon="6.76238">
        <ele>387</ele>
        <time>2015-05-08T10:22:57.000Z</time>
      </trkpt>
      <trkpt lat="47.5073" lon="6.76242">
        <ele>387</ele>
        <time>2015-05-08T10:22:58.000Z</time>
      </trkpt>
      <trkpt lat="47.50731" lon="6.76247">
        <ele>387</ele>
        <time>2015-05-08T10:22:59.000Z</time>
      </trkpt>
      <trkpt lat="47.50732" lon="6.76252">
        <ele>385</ele>
        <time>2015-05-08T10:23:00.000Z</time>
      </trkpt>
      <trkpt lat="47.50732" lon="6.76257">
        <ele>385</ele>
        <time>2015-05-08T10:23:01.000Z</time>
      </trkpt>
      <trkpt lat="47.50733" lon="6.76261">
        <ele>385</ele>
        <time>2015-05-08T10:23:02.000Z</time>
      </trkpt>
      <trkpt lat="47.50734" lon="6.76266">
        <ele>385</ele>
        <time>2015-05-08T10:23:03.000Z</time>
      </trkpt>
      <trkpt lat="47.50736" lon="6.76271">
        <ele>385</ele>
        <time>2015-05-08T10:23:04.000Z</time>
      </trkpt>
      <trkpt lat="47.50738" lon="6.76275">
        <ele>385</ele>
        <time>2015-05-08T10:23:05.000Z</time>
      </trkpt>
      <trkpt lat="47.5074" lon="6.76278">
        <ele>385</ele>
        <time>2015-05-08T10:23:06.000Z</time>
      </trkpt>
      <trkpt lat="47.50742" lon="6.76282">
        <ele>385</ele>
        <time>2015-05-08T10:23:07.000Z</time>
      </trkpt>
      <trkpt lat="47.50744" lon="6.76285">
        <ele>385</ele>
        <time>2015-05-08T10:23:08.000Z</time>
      </trkpt>
      <trkpt lat="47.50745" lon="6.76289">
        <ele>385</ele>
        <time>2015-05-08T10:23:09.000Z</time>
      </trkpt>
      <trkpt lat="47.50747" lon="6.76293">
        <ele>385</ele>
        <time>2015-05-08T10:23:10.000Z</time>
      </trkpt>
      <trkpt lat="47.50749" lon="6.76297">
        <ele>385</ele>
        <time>2015-05-08T10:23:11.000Z</time>
      </trkpt>
      <trkpt lat="47.5075" lon="6.76301">
        <ele>385</ele>
        <time>2015-05-08T10:23:12.000Z</time>
      </trkpt>
      <trkpt lat="47.50752" lon="6.76305">
        <ele>385</ele>
        <time>2015-05-08T10:23:13.000Z</time>
      </trkpt>
      <trkpt lat="47.50753" lon="6.76309">
        <ele>385</ele>
        <time>2015-05-08T10:23:14.000Z</time>
      </trkpt>
      <trkpt lat="47.50755" lon="6.76313">
        <ele>385</ele>
        <time>2015-05-08T10:23:15.000Z</time>
      </trkpt>
      <trkpt lat="47.50756" lon="6.76317">
        <ele>384</ele>
        <time>2015-05-08T10:23:16.000Z</time>
      </trkpt>
      <trkpt lat="47.50757" lon="6.7632">
        <ele>384</ele>
        <time>2015-05-08T10:23:17.000Z</time>
      </trkpt>
      <trkpt lat="47.50759" lon="6.76323">
        <ele>384</ele>
        <time>2015-05-08T10:23:18.000Z</time>
      </trkpt>
      <trkpt lat="47.5076" lon="6.76327">
        <ele>384</ele>
        <time>2015-05-08T10:23:19.000Z</time>
      </trkpt>
      <trkpt lat="47.50761" lon="6.7633">
        <ele>384</ele>
        <time>2015-05-08T10:23:20.000Z</time>
      </trkpt>
      <trkpt lat="47.50762" lon="6.76333">
        <ele>384</ele>
        <time>2015-05-08T10:23:21.000Z</time>
      </trkpt>
      <trkpt lat="47.50763" lon="6.76337">
        <ele>384</ele>
        <time>2015-05-08T10:23:22.000Z</time>
      </trkpt>
      <trkpt lat="47.50764" lon="6.76339">
        <ele>385</ele>
        <time>2015-05-08T10:23:23.000Z</time>
      </trkpt>
      <trkpt lat="47.50765" lon="6.76342">
        <ele>385</ele>
        <time>2015-05-08T10:23:24.000Z</time>
      </trkpt>
      <trkpt lat="47.50766" lon="6.76345">
        <ele>385</ele>
        <time>2015-05-08T10:23:25.000Z</time>
      </trkpt>
      <trkpt lat="47.50767" lon="6.76348">
        <ele>386</ele>
        <time>2015-05-08T10:23:26.000Z</time>
      </trkpt>
      <trkpt lat="47.50768" lon="6.76352">
        <ele>386</ele>
        <time>2015-05-08T10:23:27.000Z</time>
      </trkpt>
      <trkpt lat="47.50769" lon="6.76355">
        <ele>386</ele>
        <time>2015-05-08T10:23:28.000Z</time>
      </trkpt>
      <trkpt lat="47.5077" lon="6.76358">
        <ele>386</ele>
        <time>2015-05-08T10:23:29.000Z</time>
      </trkpt>
      <trkpt lat="47.50771" lon="6.76362">
        <ele>387</ele>
        <time>2015-05-08T10:23:30.000Z</time>
      </trkpt>
      <trkpt lat="47.50773" lon="6.76366">
        <ele>387</ele>
        <time>2015-05-08T10:23:31.000Z</time>
      </trkpt>
      <trkpt lat="47.50775" lon="6.76369">
        <ele>387</ele>
        <time>2015-05-08T10:23:32.000Z</time>
      </trkpt>
      <trkpt lat="47.50776" lon="6.76373">
        <ele>387</ele>
        <time>2015-05-08T10:23:33.000Z</time>
      </trkpt>
      <trkpt lat="47.50778" lon="6.76376">
        <ele>387</ele>
        <time>2015-05-08T10:23:34.000Z</time>
      </trkpt>
      <trkpt lat="47.50779" lon="6.76379">
        <ele>388</ele>
        <time>2015-05-08T10:23:35.000Z</time>
      </trkpt>
      <trkpt lat="47.5078" lon="6.76383">
        <ele>388</ele>
        <time>2015-05-08T10:23:36.000Z</time>
      </trkpt>
      <trkpt lat="47.50781" lon="6.76387">
        <ele>388</ele>
        <time>2015-05-08T10:23:37.000Z</time>
      </trkpt>
      <trkpt lat="47.50783" lon="6.76391">
        <ele>388</ele>
        <time>2015-05-08T10:23:38.000Z</time>
      </trkpt>
      <trkpt lat="47.50784" lon="6.76395">
        <ele>388</ele>
        <time>2015-05-08T10:23:39.000Z</time>
      </trkpt>
      <trkpt lat="47.50785" lon="6.76399">
        <ele>388</ele>
        <time>2015-05-08T10:23:40.000Z</time>
      </trkpt>
      <trkpt lat="47.50786" lon="6.76403">
        <ele>388</ele>
        <time>2015-05-08T10:23:41.000Z</time>
      </trkpt>
      <trkpt lat="47.50786" lon="6.76406">
        <ele>388</ele>
        <time>2015-05-08T10:23:42.000Z</time>
      </trkpt>
      <trkpt lat="47.50787" lon="6.76409">
        <ele>388</ele>
        <time>2015-05-08T10:23:43.000Z</time>
      </trkpt>
      <trkpt lat="47.50787" lon="6.76413">
        <ele>388</ele>
        <time>2015-05-08T10:23:44.000Z</time>
      </trkpt>
      <trkpt lat="47.50788" lon="6.76416">
        <ele>389</ele>
        <time>2015-05-08T10:23:45.000Z</time>
      </trkpt>
      <trkpt lat="47.50789" lon="6.7642">
        <ele>391</ele>
        <time>2015-05-08T10:23:46.000Z</time>
      </trkpt>
      <trkpt lat="47.50789" lon="6.76423">
        <ele>391</ele>
        <time>2015-05-08T10:23:47.000Z</time>
      </trkpt>
      <trkpt lat="47.5079" lon="6.76426">
        <ele>391</ele>
        <time>2015-05-08T10:23:48.000Z</time>
      </trkpt>
      <trkpt lat="47.5079" lon="6.7643">
        <ele>391</ele>
        <time>2015-05-08T10:23:49.000Z</time>
      </trkpt>
      <trkpt lat="47.50792" lon="6.76433">
        <ele>391</ele>
        <time>2015-05-08T10:23:50.000Z</time>
      </trkpt>
      <trkpt lat="47.50793" lon="6.76436">
        <ele>391</ele>
        <time>2015-05-08T10:23:51.000Z</time>
      </trkpt>
      <trkpt lat="47.50794" lon="6.7644">
        <ele>391</ele>
        <time>2015-05-08T10:23:52.000Z</time>
      </trkpt>
      <trkpt lat="47.50795" lon="6.76443">
        <ele>391</ele>
        <time>2015-05-08T10:23:53.000Z</time>
      </trkpt>
      <trkpt lat="47.50795" lon="6.76446">
        <ele>391</ele>
        <time>2015-05-08T10:23:54.000Z</time>
      </trkpt>
      <trkpt lat="47.50796" lon="6.7645">
        <ele>391</ele>
        <time>2015-05-08T10:23:55.000Z</time>
      </trkpt>
      <trkpt lat="47.50796" lon="6.76454">
        <ele>391</ele>
        <time>2015-05-08T10:23:56.000Z</time>
      </trkpt>
      <trkpt lat="47.50796" lon="6.76457">
        <ele>391</ele>
        <time>2015-05-08T10:23:57.000Z</time>
      </trkpt>
      <trkpt lat="47.50796" lon="6.76461">
        <ele>391</ele>
        <time>2015-05-08T10:23:58.000Z</time>
      </trkpt>
      <trkpt lat="47.50797" lon="6.76464">
        <ele>391</ele>
        <time>2015-05-08T10:23:59.000Z</time>
      </trkpt>
      <trkpt lat="47.50797" lon="6.76468">
        <ele>391</ele>
        <time>2015-05-08T10:24:00.000Z</time>
      </trkpt>
      <trkpt lat="47.50797" lon="6.76472">
        <ele>391</ele>
        <time>2015-05-08T10:24:01.000Z</time>
      </trkpt>
      <trkpt lat="47.50796" lon="6.76476">
        <ele>391</ele>
        <time>2015-05-08T10:24:02.000Z</time>
      </trkpt>
      <trkpt lat="47.50796" lon="6.76479">
        <ele>392</ele>
        <time>2015-05-08T10:24:03.000Z</time>
      </trkpt>
      <trkpt lat="47.50795" lon="6.76483">
        <ele>392</ele>
        <time>2015-05-08T10:24:04.000Z</time>
      </trkpt>
      <trkpt lat="47.50794" lon="6.76486">
        <ele>392</ele>
        <time>2015-05-08T10:24:05.000Z</time>
      </trkpt>
      <trkpt lat="47.50793" lon="6.76489">
        <ele>392</ele>
        <time>2015-05-08T10:24:06.000Z</time>
      </trkpt>
      <trkpt lat="47.50793" lon="6.76493">
        <ele>392</ele>
        <time>2015-05-08T10:24:07.000Z</time>
      </trkpt>
      <trkpt lat="47.50792" lon="6.76497">
        <ele>392</ele>
        <time>2015-05-08T10:24:08.000Z</time>
      </trkpt>
      <trkpt lat="47.50792" lon="6.765">
        <ele>392</ele>
        <time>2015-05-08T10:24:09.000Z</time>
      </trkpt>
      <trkpt lat="47.50793" lon="6.76505">
        <ele>392</ele>
        <time>2015-05-08T10:24:11.000Z</time>
      </trkpt>
      <trkpt lat="47.50794" lon="6.76509">
        <ele>392</ele>
        <time>2015-05-08T10:24:12.000Z</time>
      </trkpt>
      <trkpt lat="47.50796" lon="6.76514">
        <ele>392</ele>
        <time>2015-05-08T10:24:13.000Z</time>
      </trkpt>
      <trkpt lat="47.50798" lon="6.76518">
        <ele>392</ele>
        <time>2015-05-08T10:24:14.000Z</time>
      </trkpt>
      <trkpt lat="47.508" lon="6.76523">
        <ele>392</ele>
        <time>2015-05-08T10:24:15.000Z</time>
      </trkpt>
      <trkpt lat="47.50801" lon="6.76528">
        <ele>392</ele>
        <time>2015-05-08T10:24:16.000Z</time>
      </trkpt>
      <trkpt lat="47.50802" lon="6.76533">
        <ele>392</ele>
        <time>2015-05-08T10:24:17.000Z</time>
      </trkpt>
      <trkpt lat="47.50803" lon="6.76538">
        <ele>392</ele>
        <time>2015-05-08T10:24:18.000Z</time>
      </trkpt>
      <trkpt lat="47.50804" lon="6.76543">
        <ele>392</ele>
        <time>2015-05-08T10:24:19.000Z</time>
      </trkpt>
      <trkpt lat="47.50806" lon="6.76549">
        <ele>392</ele>
        <time>2015-05-08T10:24:20.000Z</time>
      </trkpt>
      <trkpt lat="47.50807" lon="6.76555">
        <ele>392</ele>
        <time>2015-05-08T10:24:21.000Z</time>
      </trkpt>
      <trkpt lat="47.50808" lon="6.76561">
        <ele>391</ele>
        <time>2015-05-08T10:24:22.000Z</time>
      </trkpt>
      <trkpt lat="47.5081" lon="6.76568">
        <ele>391</ele>
        <time>2015-05-08T10:24:23.000Z</time>
      </trkpt>
      <trkpt lat="47.50812" lon="6.76579">
        <ele>391</ele>
        <time>2015-05-08T10:24:24.000Z</time>
      </trkpt>
      <trkpt lat="47.50814" lon="6.76585">
        <ele>390</ele>
        <time>2015-05-08T10:24:25.000Z</time>
      </trkpt>
      <trkpt lat="47.50817" lon="6.76591">
        <ele>390</ele>
        <time>2015-05-08T10:24:26.000Z</time>
      </trkpt>
      <trkpt lat="47.50818" lon="6.766">
        <ele>390</ele>
        <time>2015-05-08T10:24:27.000Z</time>
      </trkpt>
      <trkpt lat="47.5082" lon="6.76607">
        <ele>390</ele>
        <time>2015-05-08T10:24:28.000Z</time>
      </trkpt>
      <trkpt lat="47.50823" lon="6.76614">
        <ele>390</ele>
        <time>2015-05-08T10:24:29.000Z</time>
      </trkpt>
      <trkpt lat="47.50826" lon="6.76622">
        <ele>390</ele>
        <time>2015-05-08T10:24:30.000Z</time>
      </trkpt>
      <trkpt lat="47.50829" lon="6.76629">
        <ele>390</ele>
        <time>2015-05-08T10:24:31.000Z</time>
      </trkpt>
      <trkpt lat="47.50832" lon="6.76637">
        <ele>390</ele>
        <time>2015-05-08T10:24:32.000Z</time>
      </trkpt>
      <trkpt lat="47.50835" lon="6.76645">
        <ele>387</ele>
        <time>2015-05-08T10:24:33.000Z</time>
      </trkpt>
      <trkpt lat="47.50838" lon="6.76654">
        <ele>388</ele>
        <time>2015-05-08T10:24:34.000Z</time>
      </trkpt>
      <trkpt lat="47.50842" lon="6.76663">
        <ele>388</ele>
        <time>2015-05-08T10:24:35.000Z</time>
      </trkpt>
      <trkpt lat="47.50844" lon="6.76672">
        <ele>387</ele>
        <time>2015-05-08T10:24:36.000Z</time>
      </trkpt>
      <trkpt lat="47.50848" lon="6.76682">
        <ele>386</ele>
        <time>2015-05-08T10:24:37.000Z</time>
      </trkpt>
      <trkpt lat="47.50851" lon="6.7669">
        <ele>385</ele>
        <time>2015-05-08T10:24:38.000Z</time>
      </trkpt>
      <trkpt lat="47.50854" lon="6.76699">
        <ele>384</ele>
        <time>2015-05-08T10:24:39.000Z</time>
      </trkpt>
      <trkpt lat="47.50858" lon="6.76709">
        <ele>384</ele>
        <time>2015-05-08T10:24:40.000Z</time>
      </trkpt>
      <trkpt lat="47.50862" lon="6.76717">
        <ele>384</ele>
        <time>2015-05-08T10:24:41.000Z</time>
      </trkpt>
      <trkpt lat="47.50866" lon="6.76728">
        <ele>384</ele>
        <time>2015-05-08T10:24:42.000Z</time>
      </trkpt>
      <trkpt lat="47.50869" lon="6.76738">
        <ele>383</ele>
        <time>2015-05-08T10:24:43.000Z</time>
      </trkpt>
      <trkpt lat="47.50873" lon="6.76748">
        <ele>383</ele>
        <time>2015-05-08T10:24:44.000Z</time>
      </trkpt>
      <trkpt lat="47.50877" lon="6.76758">
        <ele>382</ele>
        <time>2015-05-08T10:24:45.000Z</time>
      </trkpt>
      <trkpt lat="47.50881" lon="6.76768">
        <ele>381</ele>
        <time>2015-05-08T10:24:46.000Z</time>
      </trkpt>
      <trkpt lat="47.50885" lon="6.76778">
        <ele>381</ele>
        <time>2015-05-08T10:24:47.000Z</time>
      </trkpt>
      <trkpt lat="47.5089" lon="6.76788">
        <ele>381</ele>
        <time>2015-05-08T10:24:48.000Z</time>
      </trkpt>
      <trkpt lat="47.50895" lon="6.76797">
        <ele>381</ele>
        <time>2015-05-08T10:24:49.000Z</time>
      </trkpt>
      <trkpt lat="47.50898" lon="6.76807">
        <ele>381</ele>
        <time>2015-05-08T10:24:50.000Z</time>
      </trkpt>
      <trkpt lat="47.50902" lon="6.76817">
        <ele>381</ele>
        <time>2015-05-08T10:24:51.000Z</time>
      </trkpt>
      <trkpt lat="47.50907" lon="6.76827">
        <ele>381</ele>
        <time>2015-05-08T10:24:52.000Z</time>
      </trkpt>
      <trkpt lat="47.50911" lon="6.76837">
        <ele>380</ele>
        <time>2015-05-08T10:24:53.000Z</time>
      </trkpt>
      <trkpt lat="47.50916" lon="6.76848">
        <ele>380</ele>
        <time>2015-05-08T10:24:54.000Z</time>
      </trkpt>
      <trkpt lat="47.5092" lon="6.76857">
        <ele>379</ele>
        <time>2015-05-08T10:24:55.000Z</time>
      </trkpt>
      <trkpt lat="47.50926" lon="6.76866">
        <ele>378</ele>
        <time>2015-05-08T10:24:56.000Z</time>
      </trkpt>
      <trkpt lat="47.50931" lon="6.76874">
        <ele>378</ele>
        <time>2015-05-08T10:24:57.000Z</time>
      </trkpt>
      <trkpt lat="47.50937" lon="6.76882">
        <ele>378</ele>
        <time>2015-05-08T10:24:58.000Z</time>
      </trkpt>
      <trkpt lat="47.50944" lon="6.76889">
        <ele>378</ele>
        <time>2015-05-08T10:24:59.000Z</time>
      </trkpt>
      <trkpt lat="47.5095" lon="6.76896">
        <ele>378</ele>
        <time>2015-05-08T10:25:00.000Z</time>
      </trkpt>
      <trkpt lat="47.50955" lon="6.76903">
        <ele>377</ele>
        <time>2015-05-08T10:25:01.000Z</time>
      </trkpt>
      <trkpt lat="47.5096" lon="6.76911">
        <ele>377</ele>
        <time>2015-05-08T10:25:02.000Z</time>
      </trkpt>
      <trkpt lat="47.50965" lon="6.7692">
        <ele>374</ele>
        <time>2015-05-08T10:25:03.000Z</time>
      </trkpt>
      <trkpt lat="47.50969" lon="6.7693">
        <ele>374</ele>
        <time>2015-05-08T10:25:04.000Z</time>
      </trkpt>
      <trkpt lat="47.50975" lon="6.76937">
        <ele>374</ele>
        <time>2015-05-08T10:25:05.000Z</time>
      </trkpt>
      <trkpt lat="47.50981" lon="6.76941">
        <ele>374</ele>
        <time>2015-05-08T10:25:06.000Z</time>
      </trkpt>
      <trkpt lat="47.50987" lon="6.76943">
        <ele>374</ele>
        <time>2015-05-08T10:25:07.000Z</time>
      </trkpt>
      <trkpt lat="47.50996" lon="6.76942">
        <ele>374</ele>
        <time>2015-05-08T10:25:08.000Z</time>
      </trkpt>
      <trkpt lat="47.51003" lon="6.76942">
        <ele>375</ele>
        <time>2015-05-08T10:25:09.000Z</time>
      </trkpt>
      <trkpt lat="47.5101" lon="6.76944">
        <ele>375</ele>
        <time>2015-05-08T10:25:10.000Z</time>
      </trkpt>
      <trkpt lat="47.51017" lon="6.76947">
        <ele>375</ele>
        <time>2015-05-08T10:25:11.000Z</time>
      </trkpt>
      <trkpt lat="47.51024" lon="6.76951">
        <ele>375</ele>
        <time>2015-05-08T10:25:12.000Z</time>
      </trkpt>
      <trkpt lat="47.5103" lon="6.76956">
        <ele>375</ele>
        <time>2015-05-08T10:25:13.000Z</time>
      </trkpt>
      <trkpt lat="47.51036" lon="6.76961">
        <ele>375</ele>
        <time>2015-05-08T10:25:14.000Z</time>
      </trkpt>
      <trkpt lat="47.51041" lon="6.76966">
        <ele>375</ele>
        <time>2015-05-08T10:25:15.000Z</time>
      </trkpt>
      <trkpt lat="47.51048" lon="6.76971">
        <ele>375</ele>
        <time>2015-05-08T10:25:16.000Z</time>
      </trkpt>
      <trkpt lat="47.51053" lon="6.76977">
        <ele>375</ele>
        <time>2015-05-08T10:25:17.000Z</time>
      </trkpt>
      <trkpt lat="47.51058" lon="6.76981">
        <ele>375</ele>
        <time>2015-05-08T10:25:18.000Z</time>
      </trkpt>
      <trkpt lat="47.51064" lon="6.76988">
        <ele>375</ele>
        <time>2015-05-08T10:25:19.000Z</time>
      </trkpt>
      <trkpt lat="47.51069" lon="6.76993">
        <ele>375</ele>
        <time>2015-05-08T10:25:20.000Z</time>
      </trkpt>
      <trkpt lat="47.51075" lon="6.76998">
        <ele>375</ele>
        <time>2015-05-08T10:25:21.000Z</time>
      </trkpt>
      <trkpt lat="47.5108" lon="6.77002">
        <ele>374</ele>
        <time>2015-05-08T10:25:22.000Z</time>
      </trkpt>
      <trkpt lat="47.51085" lon="6.77007">
        <ele>375</ele>
        <time>2015-05-08T10:25:23.000Z</time>
      </trkpt>
      <trkpt lat="47.51089" lon="6.77013">
        <ele>375</ele>
        <time>2015-05-08T10:25:24.000Z</time>
      </trkpt>
      <trkpt lat="47.51094" lon="6.77018">
        <ele>375</ele>
        <time>2015-05-08T10:25:25.000Z</time>
      </trkpt>
      <trkpt lat="47.51099" lon="6.77022">
        <ele>375</ele>
        <time>2015-05-08T10:25:26.000Z</time>
      </trkpt>
      <trkpt lat="47.51105" lon="6.77026">
        <ele>375</ele>
        <time>2015-05-08T10:25:27.000Z</time>
      </trkpt>
      <trkpt lat="47.5111" lon="6.7703">
        <ele>375</ele>
        <time>2015-05-08T10:25:28.000Z</time>
      </trkpt>
      <trkpt lat="47.51114" lon="6.77034">
        <ele>375</ele>
        <time>2015-05-08T10:25:29.000Z</time>
      </trkpt>
      <trkpt lat="47.51118" lon="6.77038">
        <ele>375</ele>
        <time>2015-05-08T10:25:30.000Z</time>
      </trkpt>
      <trkpt lat="47.51123" lon="6.77042">
        <ele>375</ele>
        <time>2015-05-08T10:25:31.000Z</time>
      </trkpt>
      <trkpt lat="47.51128" lon="6.77046">
        <ele>375</ele>
        <time>2015-05-08T10:25:32.000Z</time>
      </trkpt>
      <trkpt lat="47.51132" lon="6.77049">
        <ele>375</ele>
        <time>2015-05-08T10:25:33.000Z</time>
      </trkpt>
      <trkpt lat="47.51136" lon="6.77052">
        <ele>376</ele>
        <time>2015-05-08T10:25:34.000Z</time>
      </trkpt>
      <trkpt lat="47.51139" lon="6.77056">
        <ele>376</ele>
        <time>2015-05-08T10:25:35.000Z</time>
      </trkpt>
      <trkpt lat="47.51144" lon="6.7706">
        <ele>376</ele>
        <time>2015-05-08T10:25:36.000Z</time>
      </trkpt>
      <trkpt lat="47.51149" lon="6.77062">
        <ele>376</ele>
        <time>2015-05-08T10:25:37.000Z</time>
      </trkpt>
      <trkpt lat="47.51153" lon="6.77066">
        <ele>376</ele>
        <time>2015-05-08T10:25:38.000Z</time>
      </trkpt>
      <trkpt lat="47.51157" lon="6.77071">
        <ele>377</ele>
        <time>2015-05-08T10:25:39.000Z</time>
      </trkpt>
      <trkpt lat="47.51161" lon="6.77077">
        <ele>377</ele>
        <time>2015-05-08T10:25:40.000Z</time>
      </trkpt>
      <trkpt lat="47.51164" lon="6.77082">
        <ele>378</ele>
        <time>2015-05-08T10:25:41.000Z</time>
      </trkpt>
      <trkpt lat="47.51167" lon="6.77087">
        <ele>378</ele>
        <time>2015-05-08T10:25:42.000Z</time>
      </trkpt>
      <trkpt lat="47.51171" lon="6.77093">
        <ele>378</ele>
        <time>2015-05-08T10:25:43.000Z</time>
      </trkpt>
      <trkpt lat="47.51174" lon="6.77098">
        <ele>378</ele>
        <time>2015-05-08T10:25:44.000Z</time>
      </trkpt>
      <trkpt lat="47.51176" lon="6.77104">
        <ele>378</ele>
        <time>2015-05-08T10:25:45.000Z</time>
      </trkpt>
      <trkpt lat="47.51179" lon="6.77109">
        <ele>378</ele>
        <time>2015-05-08T10:25:46.000Z</time>
      </trkpt>
      <trkpt lat="47.51182" lon="6.77113">
        <ele>378</ele>
        <time>2015-05-08T10:25:47.000Z</time>
      </trkpt>
      <trkpt lat="47.51186" lon="6.77119">
        <ele>378</ele>
        <time>2015-05-08T10:25:48.000Z</time>
      </trkpt>
      <trkpt lat="47.51189" lon="6.77125">
        <ele>378</ele>
        <time>2015-05-08T10:25:49.000Z</time>
      </trkpt>
      <trkpt lat="47.51192" lon="6.77129">
        <ele>378</ele>
        <time>2015-05-08T10:25:50.000Z</time>
      </trkpt>
      <trkpt lat="47.51195" lon="6.77134">
        <ele>378</ele>
        <time>2015-05-08T10:25:51.000Z</time>
      </trkpt>
      <trkpt lat="47.51198" lon="6.77139">
        <ele>378</ele>
        <time>2015-05-08T10:25:52.000Z</time>
      </trkpt>
      <trkpt lat="47.512" lon="6.77144">
        <ele>378</ele>
        <time>2015-05-08T10:25:53.000Z</time>
      </trkpt>
      <trkpt lat="47.51203" lon="6.77148">
        <ele>378</ele>
        <time>2015-05-08T10:25:54.000Z</time>
      </trkpt>
      <trkpt lat="47.51206" lon="6.77152">
        <ele>378</ele>
        <time>2015-05-08T10:25:55.000Z</time>
      </trkpt>
      <trkpt lat="47.51209" lon="6.77157">
        <ele>378</ele>
        <time>2015-05-08T10:25:56.000Z</time>
      </trkpt>
      <trkpt lat="47.5121" lon="6.77162">
        <ele>378</ele>
        <time>2015-05-08T10:25:57.000Z</time>
      </trkpt>
      <trkpt lat="47.51213" lon="6.77167">
        <ele>376</ele>
        <time>2015-05-08T10:25:58.000Z</time>
      </trkpt>
      <trkpt lat="47.51216" lon="6.77172">
        <ele>376</ele>
        <time>2015-05-08T10:25:59.000Z</time>
      </trkpt>
      <trkpt lat="47.51218" lon="6.77176">
        <ele>376</ele>
        <time>2015-05-08T10:26:00.000Z</time>
      </trkpt>
      <trkpt lat="47.5122" lon="6.7718">
        <ele>376</ele>
        <time>2015-05-08T10:26:01.000Z</time>
      </trkpt>
      <trkpt lat="47.51223" lon="6.77184">
        <ele>376</ele>
        <time>2015-05-08T10:26:02.000Z</time>
      </trkpt>
      <trkpt lat="47.51226" lon="6.77189">
        <ele>376</ele>
        <time>2015-05-08T10:26:03.000Z</time>
      </trkpt>
      <trkpt lat="47.51228" lon="6.77193">
        <ele>376</ele>
        <time>2015-05-08T10:26:04.000Z</time>
      </trkpt>
      <trkpt lat="47.5123" lon="6.77198">
        <ele>376</ele>
        <time>2015-05-08T10:26:05.000Z</time>
      </trkpt>
      <trkpt lat="47.51231" lon="6.77202">
        <ele>376</ele>
        <time>2015-05-08T10:26:06.000Z</time>
      </trkpt>
      <trkpt lat="47.51234" lon="6.77208">
        <ele>376</ele>
        <time>2015-05-08T10:26:07.000Z</time>
      </trkpt>
      <trkpt lat="47.51236" lon="6.77211">
        <ele>376</ele>
        <time>2015-05-08T10:26:08.000Z</time>
      </trkpt>
      <trkpt lat="47.51238" lon="6.77215">
        <ele>376</ele>
        <time>2015-05-08T10:26:09.000Z</time>
      </trkpt>
      <trkpt lat="47.5124" lon="6.7722">
        <ele>376</ele>
        <time>2015-05-08T10:26:10.000Z</time>
      </trkpt>
      <trkpt lat="47.51242" lon="6.77226">
        <ele>376</ele>
        <time>2015-05-08T10:26:11.000Z</time>
      </trkpt>
      <trkpt lat="47.51245" lon="6.77231">
        <ele>377</ele>
        <time>2015-05-08T10:26:12.000Z</time>
      </trkpt>
      <trkpt lat="47.51247" lon="6.77236">
        <ele>377</ele>
        <time>2015-05-08T10:26:13.000Z</time>
      </trkpt>
      <trkpt lat="47.51251" lon="6.7724">
        <ele>379</ele>
        <time>2015-05-08T10:26:14.000Z</time>
      </trkpt>
      <trkpt lat="47.51254" lon="6.77243">
        <ele>379</ele>
        <time>2015-05-08T10:26:15.000Z</time>
      </trkpt>
      <trkpt lat="47.51257" lon="6.77246">
        <ele>379</ele>
        <time>2015-05-08T10:26:16.000Z</time>
      </trkpt>
      <trkpt lat="47.5126" lon="6.77251">
        <ele>378</ele>
        <time>2015-05-08T10:26:17.000Z</time>
      </trkpt>
      <trkpt lat="47.51263" lon="6.77255">
        <ele>378</ele>
        <time>2015-05-08T10:26:18.000Z</time>
      </trkpt>
      <trkpt lat="47.51267" lon="6.77259">
        <ele>378</ele>
        <time>2015-05-08T10:26:19.000Z</time>
      </trkpt>
      <trkpt lat="47.51271" lon="6.77262">
        <ele>377</ele>
        <time>2015-05-08T10:26:20.000Z</time>
      </trkpt>
      <trkpt lat="47.51276" lon="6.77264">
        <ele>377</ele>
        <time>2015-05-08T10:26:21.000Z</time>
      </trkpt>
      <trkpt lat="47.5128" lon="6.77268">
        <ele>377</ele>
        <time>2015-05-08T10:26:22.000Z</time>
      </trkpt>
      <trkpt lat="47.51285" lon="6.7727">
        <ele>377</ele>
        <time>2015-05-08T10:26:23.000Z</time>
      </trkpt>
      <trkpt lat="47.51289" lon="6.77273">
        <ele>377</ele>
        <time>2015-05-08T10:26:24.000Z</time>
      </trkpt>
      <trkpt lat="47.51293" lon="6.77276">
        <ele>377</ele>
        <time>2015-05-08T10:26:25.000Z</time>
      </trkpt>
      <trkpt lat="47.51298" lon="6.77278">
        <ele>377</ele>
        <time>2015-05-08T10:26:26.000Z</time>
      </trkpt>
      <trkpt lat="47.51303" lon="6.77281">
        <ele>377</ele>
        <time>2015-05-08T10:26:27.000Z</time>
      </trkpt>
      <trkpt lat="47.51308" lon="6.77283">
        <ele>377</ele>
        <time>2015-05-08T10:26:28.000Z</time>
      </trkpt>
      <trkpt lat="47.51313" lon="6.77285">
        <ele>377</ele>
        <time>2015-05-08T10:26:29.000Z</time>
      </trkpt>
      <trkpt lat="47.51319" lon="6.77288">
        <ele>377</ele>
        <time>2015-05-08T10:26:30.000Z</time>
      </trkpt>
      <trkpt lat="47.51325" lon="6.77288">
        <ele>378</ele>
        <time>2015-05-08T10:26:31.000Z</time>
      </trkpt>
      <trkpt lat="47.51332" lon="6.77287">
        <ele>378</ele>
        <time>2015-05-08T10:26:32.000Z</time>
      </trkpt>
      <trkpt lat="47.51338" lon="6.77285">
        <ele>378</ele>
        <time>2015-05-08T10:26:33.000Z</time>
      </trkpt>
      <trkpt lat="47.51345" lon="6.77281">
        <ele>378</ele>
        <time>2015-05-08T10:26:34.000Z</time>
      </trkpt>
      <trkpt lat="47.51351" lon="6.77276">
        <ele>378</ele>
        <time>2015-05-08T10:26:35.000Z</time>
      </trkpt>
      <trkpt lat="47.51358" lon="6.7727">
        <ele>378</ele>
        <time>2015-05-08T10:26:36.000Z</time>
      </trkpt>
      <trkpt lat="47.51365" lon="6.77264">
        <ele>378</ele>
        <time>2015-05-08T10:26:37.000Z</time>
      </trkpt>
      <trkpt lat="47.51372" lon="6.77258">
        <ele>378</ele>
        <time>2015-05-08T10:26:38.000Z</time>
      </trkpt>
      <trkpt lat="47.5138" lon="6.77254">
        <ele>377</ele>
        <time>2015-05-08T10:26:39.000Z</time>
      </trkpt>
      <trkpt lat="47.51389" lon="6.77249">
        <ele>376</ele>
        <time>2015-05-08T10:26:40.000Z</time>
      </trkpt>
      <trkpt lat="47.51397" lon="6.77243">
        <ele>376</ele>
        <time>2015-05-08T10:26:41.000Z</time>
      </trkpt>
      <trkpt lat="47.51405" lon="6.77239">
        <ele>376</ele>
        <time>2015-05-08T10:26:42.000Z</time>
      </trkpt>
      <trkpt lat="47.51414" lon="6.77234">
        <ele>376</ele>
        <time>2015-05-08T10:26:43.000Z</time>
      </trkpt>
      <trkpt lat="47.51422" lon="6.77229">
        <ele>375</ele>
        <time>2015-05-08T10:26:44.000Z</time>
      </trkpt>
      <trkpt lat="47.51431" lon="6.77225">
        <ele>375</ele>
        <time>2015-05-08T10:26:45.000Z</time>
      </trkpt>
      <trkpt lat="47.51439" lon="6.77221">
        <ele>375</ele>
        <time>2015-05-08T10:26:46.000Z</time>
      </trkpt>
      <trkpt lat="47.51447" lon="6.77217">
        <ele>375</ele>
        <time>2015-05-08T10:26:47.000Z</time>
      </trkpt>
      <trkpt lat="47.51455" lon="6.77213">
        <ele>375</ele>
        <time>2015-05-08T10:26:48.000Z</time>
      </trkpt>
      <trkpt lat="47.51462" lon="6.7721">
        <ele>375</ele>
        <time>2015-05-08T10:26:49.000Z</time>
      </trkpt>
      <trkpt lat="47.51469" lon="6.77207">
        <ele>375</ele>
        <time>2015-05-08T10:26:50.000Z</time>
      </trkpt>
      <trkpt lat="47.51475" lon="6.77204">
        <ele>375</ele>
        <time>2015-05-08T10:26:51.000Z</time>
      </trkpt>
      <trkpt lat="47.5148" lon="6.77203">
        <ele>375</ele>
        <time>2015-05-08T10:26:52.000Z</time>
      </trkpt>
      <trkpt lat="47.51485" lon="6.77204">
        <ele>375</ele>
        <time>2015-05-08T10:26:53.000Z</time>
      </trkpt>
      <trkpt lat="47.51487" lon="6.7721">
        <ele>375</ele>
        <time>2015-05-08T10:26:54.000Z</time>
      </trkpt>
      <trkpt lat="47.51487" lon="6.77217">
        <ele>375</ele>
        <time>2015-05-08T10:26:55.000Z</time>
      </trkpt>
      <trkpt lat="47.51487" lon="6.77224">
        <ele>375</ele>
        <time>2015-05-08T10:26:56.000Z</time>
      </trkpt>
      <trkpt lat="47.51488" lon="6.77231">
        <ele>375</ele>
        <time>2015-05-08T10:26:57.000Z</time>
      </trkpt>
      <trkpt lat="47.51488" lon="6.77238">
        <ele>375</ele>
        <time>2015-05-08T10:26:58.000Z</time>
      </trkpt>
      <trkpt lat="47.51488" lon="6.77245">
        <ele>376</ele>
        <time>2015-05-08T10:26:59.000Z</time>
      </trkpt>
      <trkpt lat="47.51489" lon="6.77251">
        <ele>376</ele>
        <time>2015-05-08T10:27:00.000Z</time>
      </trkpt>
      <trkpt lat="47.51488" lon="6.77258">
        <ele>376</ele>
        <time>2015-05-08T10:27:01.000Z</time>
      </trkpt>
      <trkpt lat="47.5149" lon="6.77263">
        <ele>376</ele>
        <time>2015-05-08T10:27:02.000Z</time>
      </trkpt>
      <trkpt lat="47.51491" lon="6.77268">
        <ele>376</ele>
        <time>2015-05-08T10:27:03.000Z</time>
      </trkpt>
      <trkpt lat="47.51496" lon="6.77267">
        <ele>376</ele>
        <time>2015-05-08T10:27:04.000Z</time>
      </trkpt>
      <trkpt lat="47.515" lon="6.77267">
        <ele>377</ele>
        <time>2015-05-08T10:27:05.000Z</time>
      </trkpt>
      <trkpt lat="47.51504" lon="6.77267">
        <ele>377</ele>
        <time>2015-05-08T10:27:06.000Z</time>
      </trkpt>
      <trkpt lat="47.51507" lon="6.77262">
        <ele>377</ele>
        <time>2015-05-08T10:27:07.000Z</time>
      </trkpt>
      <trkpt lat="47.51511" lon="6.7726">
        <ele>377</ele>
        <time>2015-05-08T10:27:08.000Z</time>
      </trkpt>
      <trkpt lat="47.51515" lon="6.77257">
        <ele>377</ele>
        <time>2015-05-08T10:27:09.000Z</time>
      </trkpt>
      <trkpt lat="47.51519" lon="6.77255">
        <ele>377</ele>
        <time>2015-05-08T10:27:10.000Z</time>
      </trkpt>
      <trkpt lat="47.51523" lon="6.77252">
        <ele>377</ele>
        <time>2015-05-08T10:27:11.000Z</time>
      </trkpt>
      <trkpt lat="47.51527" lon="6.7725">
        <ele>378</ele>
        <time>2015-05-08T10:27:12.000Z</time>
      </trkpt>
      <trkpt lat="47.51531" lon="6.77248">
        <ele>377</ele>
        <time>2015-05-08T10:27:13.000Z</time>
      </trkpt>
      <trkpt lat="47.51535" lon="6.77246">
        <ele>377</ele>
        <time>2015-05-08T10:27:14.000Z</time>
      </trkpt>
      <trkpt lat="47.51539" lon="6.77244">
        <ele>377</ele>
        <time>2015-05-08T10:27:15.000Z</time>
      </trkpt>
      <trkpt lat="47.51543" lon="6.77241">
        <ele>377</ele>
        <time>2015-05-08T10:27:16.000Z</time>
      </trkpt>
      <trkpt lat="47.51547" lon="6.77239">
        <ele>377</ele>
        <time>2015-05-08T10:27:17.000Z</time>
      </trkpt>
      <trkpt lat="47.5155" lon="6.77238">
        <ele>377</ele>
        <time>2015-05-08T10:27:18.000Z</time>
      </trkpt>
      <trkpt lat="47.51554" lon="6.77236">
        <ele>377</ele>
        <time>2015-05-08T10:27:19.000Z</time>
      </trkpt>
      <trkpt lat="47.51557" lon="6.77235">
        <ele>377</ele>
        <time>2015-05-08T10:27:20.000Z</time>
      </trkpt>
      <trkpt lat="47.51561" lon="6.77235">
        <ele>377</ele>
        <time>2015-05-08T10:27:21.000Z</time>
      </trkpt>
      <trkpt lat="47.51564" lon="6.77233">
        <ele>377</ele>
        <time>2015-05-08T10:27:22.000Z</time>
      </trkpt>
      <trkpt lat="47.51567" lon="6.77231">
        <ele>377</ele>
        <time>2015-05-08T10:27:23.000Z</time>
      </trkpt>
      <trkpt lat="47.5157" lon="6.77229">
        <ele>377</ele>
        <time>2015-05-08T10:27:24.000Z</time>
      </trkpt>
      <trkpt lat="47.51572" lon="6.77227">
        <ele>377</ele>
        <time>2015-05-08T10:27:25.000Z</time>
      </trkpt>
      <trkpt lat="47.51575" lon="6.77225">
        <ele>377</ele>
        <time>2015-05-08T10:27:26.000Z</time>
      </trkpt>
      <trkpt lat="47.51578" lon="6.77223">
        <ele>377</ele>
        <time>2015-05-08T10:27:27.000Z</time>
      </trkpt>
      <trkpt lat="47.51582" lon="6.7722">
        <ele>377</ele>
        <time>2015-05-08T10:27:28.000Z</time>
      </trkpt>
      <trkpt lat="47.51585" lon="6.77217">
        <ele>379</ele>
        <time>2015-05-08T10:27:29.000Z</time>
      </trkpt>
      <trkpt lat="47.51588" lon="6.77213">
        <ele>379</ele>
        <time>2015-05-08T10:27:30.000Z</time>
      </trkpt>
      <trkpt lat="47.51592" lon="6.7721">
        <ele>379</ele>
        <time>2015-05-08T10:27:31.000Z</time>
      </trkpt>
      <trkpt lat="47.51595" lon="6.77206">
        <ele>379</ele>
        <time>2015-05-08T10:27:32.000Z</time>
      </trkpt>
      <trkpt lat="47.51598" lon="6.77202">
        <ele>379</ele>
        <time>2015-05-08T10:27:33.000Z</time>
      </trkpt>
      <trkpt lat="47.51602" lon="6.77199">
        <ele>379</ele>
        <time>2015-05-08T10:27:34.000Z</time>
      </trkpt>
      <trkpt lat="47.51605" lon="6.77197">
        <ele>379</ele>
        <time>2015-05-08T10:27:35.000Z</time>
      </trkpt>
      <trkpt lat="47.51609" lon="6.77195">
        <ele>379</ele>
        <time>2015-05-08T10:27:36.000Z</time>
      </trkpt>
      <trkpt lat="47.51612" lon="6.77193">
        <ele>379</ele>
        <time>2015-05-08T10:27:37.000Z</time>
      </trkpt>
      <trkpt lat="47.51616" lon="6.77191">
        <ele>380</ele>
        <time>2015-05-08T10:27:38.000Z</time>
      </trkpt>
      <trkpt lat="47.51619" lon="6.7719">
        <ele>380</ele>
        <time>2015-05-08T10:27:39.000Z</time>
      </trkpt>
      <trkpt lat="47.51623" lon="6.77188">
        <ele>380</ele>
        <time>2015-05-08T10:27:40.000Z</time>
      </trkpt>
      <trkpt lat="47.51626" lon="6.77187">
        <ele>380</ele>
        <time>2015-05-08T10:27:41.000Z</time>
      </trkpt>
      <trkpt lat="47.51629" lon="6.77186">
        <ele>380</ele>
        <time>2015-05-08T10:27:42.000Z</time>
      </trkpt>
      <trkpt lat="47.51632" lon="6.77184">
        <ele>380</ele>
        <time>2015-05-08T10:27:43.000Z</time>
      </trkpt>
      <trkpt lat="47.51635" lon="6.77183">
        <ele>380</ele>
        <time>2015-05-08T10:27:44.000Z</time>
      </trkpt>
      <trkpt lat="47.51638" lon="6.77181">
        <ele>380</ele>
        <time>2015-05-08T10:27:45.000Z</time>
      </trkpt>
      <trkpt lat="47.51641" lon="6.7718">
        <ele>380</ele>
        <time>2015-05-08T10:27:46.000Z</time>
      </trkpt>
      <trkpt lat="47.51643" lon="6.77179">
        <ele>380</ele>
        <time>2015-05-08T10:27:47.000Z</time>
      </trkpt>
      <trkpt lat="47.51646" lon="6.77178">
        <ele>380</ele>
        <time>2015-05-08T10:27:48.000Z</time>
      </trkpt>
      <trkpt lat="47.51649" lon="6.77177">
        <ele>380</ele>
        <time>2015-05-08T10:27:49.000Z</time>
      </trkpt>
      <trkpt lat="47.51652" lon="6.77175">
        <ele>380</ele>
        <time>2015-05-08T10:27:50.000Z</time>
      </trkpt>
      <trkpt lat="47.51654" lon="6.77173">
        <ele>381</ele>
        <time>2015-05-08T10:27:51.000Z</time>
      </trkpt>
      <trkpt lat="47.51657" lon="6.77171">
        <ele>381</ele>
        <time>2015-05-08T10:27:52.000Z</time>
      </trkpt>
      <trkpt lat="47.5166" lon="6.77169">
        <ele>381</ele>
        <time>2015-05-08T10:27:53.000Z</time>
      </trkpt>
      <trkpt lat="47.51663" lon="6.77167">
        <ele>381</ele>
        <time>2015-05-08T10:27:54.000Z</time>
      </trkpt>
      <trkpt lat="47.51667" lon="6.77165">
        <ele>381</ele>
        <time>2015-05-08T10:27:55.000Z</time>
      </trkpt>
      <trkpt lat="47.5167" lon="6.77163">
        <ele>381</ele>
        <time>2015-05-08T10:27:56.000Z</time>
      </trkpt>
      <trkpt lat="47.51673" lon="6.77161">
        <ele>380</ele>
        <time>2015-05-08T10:27:57.000Z</time>
      </trkpt>
      <trkpt lat="47.51677" lon="6.7716">
        <ele>380</ele>
        <time>2015-05-08T10:27:58.000Z</time>
      </trkpt>
      <trkpt lat="47.5168" lon="6.77159">
        <ele>380</ele>
        <time>2015-05-08T10:27:59.000Z</time>
      </trkpt>
      <trkpt lat="47.51684" lon="6.77159">
        <ele>380</ele>
        <time>2015-05-08T10:28:00.000Z</time>
      </trkpt>
      <trkpt lat="47.51687" lon="6.77158">
        <ele>380</ele>
        <time>2015-05-08T10:28:01.000Z</time>
      </trkpt>
      <trkpt lat="47.5169" lon="6.77158">
        <ele>379</ele>
        <time>2015-05-08T10:28:02.000Z</time>
      </trkpt>
      <trkpt lat="47.51693" lon="6.77158">
        <ele>379</ele>
        <time>2015-05-08T10:28:03.000Z</time>
      </trkpt>
      <trkpt lat="47.51697" lon="6.77158">
        <ele>379</ele>
        <time>2015-05-08T10:28:04.000Z</time>
      </trkpt>
      <trkpt lat="47.517" lon="6.77159">
        <ele>379</ele>
        <time>2015-05-08T10:28:05.000Z</time>
      </trkpt>
      <trkpt lat="47.51704" lon="6.77159">
        <ele>379</ele>
        <time>2015-05-08T10:28:06.000Z</time>
      </trkpt>
      <trkpt lat="47.51708" lon="6.77159">
        <ele>379</ele>
        <time>2015-05-08T10:28:07.000Z</time>
      </trkpt>
      <trkpt lat="47.51713" lon="6.77159">
        <ele>379</ele>
        <time>2015-05-08T10:28:08.000Z</time>
      </trkpt>
      <trkpt lat="47.51718" lon="6.77159">
        <ele>379</ele>
        <time>2015-05-08T10:28:09.000Z</time>
      </trkpt>
      <trkpt lat="47.51723" lon="6.77159">
        <ele>379</ele>
        <time>2015-05-08T10:28:10.000Z</time>
      </trkpt>
      <trkpt lat="47.51728" lon="6.77159">
        <ele>379</ele>
        <time>2015-05-08T10:28:11.000Z</time>
      </trkpt>
      <trkpt lat="47.51733" lon="6.77159">
        <ele>379</ele>
        <time>2015-05-08T10:28:12.000Z</time>
      </trkpt>
      <trkpt lat="47.51738" lon="6.77159">
        <ele>379</ele>
        <time>2015-05-08T10:28:13.000Z</time>
      </trkpt>
      <trkpt lat="47.51743" lon="6.77159">
        <ele>379</ele>
        <time>2015-05-08T10:28:14.000Z</time>
      </trkpt>
      <trkpt lat="47.51748" lon="6.77159">
        <ele>379</ele>
        <time>2015-05-08T10:28:15.000Z</time>
      </trkpt>
      <trkpt lat="47.51753" lon="6.77159">
        <ele>378</ele>
        <time>2015-05-08T10:28:16.000Z</time>
      </trkpt>
      <trkpt lat="47.51759" lon="6.7716">
        <ele>378</ele>
        <time>2015-05-08T10:28:17.000Z</time>
      </trkpt>
      <trkpt lat="47.51764" lon="6.77161">
        <ele>378</ele>
        <time>2015-05-08T10:28:18.000Z</time>
      </trkpt>
      <trkpt lat="47.5177" lon="6.77162">
        <ele>378</ele>
        <time>2015-05-08T10:28:19.000Z</time>
      </trkpt>
      <trkpt lat="47.51774" lon="6.77165">
        <ele>378</ele>
        <time>2015-05-08T10:28:20.000Z</time>
      </trkpt>
      <trkpt lat="47.51779" lon="6.77169">
        <ele>380</ele>
        <time>2015-05-08T10:28:21.000Z</time>
      </trkpt>
      <trkpt lat="47.51783" lon="6.77173">
        <ele>380</ele>
        <time>2015-05-08T10:28:22.000Z</time>
      </trkpt>
      <trkpt lat="47.51787" lon="6.77177">
        <ele>380</ele>
        <time>2015-05-08T10:28:23.000Z</time>
      </trkpt>
      <trkpt lat="47.51791" lon="6.7718">
        <ele>380</ele>
        <time>2015-05-08T10:28:24.000Z</time>
      </trkpt>
      <trkpt lat="47.51795" lon="6.77183">
        <ele>380</ele>
        <time>2015-05-08T10:28:25.000Z</time>
      </trkpt>
      <trkpt lat="47.51799" lon="6.77185">
        <ele>380</ele>
        <time>2015-05-08T10:28:26.000Z</time>
      </trkpt>
      <trkpt lat="47.51804" lon="6.77189">
        <ele>380</ele>
        <time>2015-05-08T10:28:27.000Z</time>
      </trkpt>
      <trkpt lat="47.51809" lon="6.77193">
        <ele>380</ele>
        <time>2015-05-08T10:28:28.000Z</time>
      </trkpt>
      <trkpt lat="47.51813" lon="6.77198">
        <ele>380</ele>
        <time>2015-05-08T10:28:29.000Z</time>
      </trkpt>
      <trkpt lat="47.51817" lon="6.77201">
        <ele>380</ele>
        <time>2015-05-08T10:28:30.000Z</time>
      </trkpt>
      <trkpt lat="47.51821" lon="6.77204">
        <ele>380</ele>
        <time>2015-05-08T10:28:31.000Z</time>
      </trkpt>
      <trkpt lat="47.51826" lon="6.77208">
        <ele>380</ele>
        <time>2015-05-08T10:28:32.000Z</time>
      </trkpt>
      <trkpt lat="47.51828" lon="6.7721">
        <ele>380</ele>
        <time>2015-05-08T10:28:33.000Z</time>
      </trkpt>
      <trkpt lat="47.51831" lon="6.77214">
        <ele>381</ele>
        <time>2015-05-08T10:28:34.000Z</time>
      </trkpt>
      <trkpt lat="47.51833" lon="6.77218">
        <ele>381</ele>
        <time>2015-05-08T10:28:35.000Z</time>
      </trkpt>
      <trkpt lat="47.51836" lon="6.7722">
        <ele>380</ele>
        <time>2015-05-08T10:28:36.000Z</time>
      </trkpt>
      <trkpt lat="47.51839" lon="6.77223">
        <ele>380</ele>
        <time>2015-05-08T10:28:37.000Z</time>
      </trkpt>
      <trkpt lat="47.51843" lon="6.77225">
        <ele>380</ele>
        <time>2015-05-08T10:28:38.000Z</time>
      </trkpt>
      <trkpt lat="47.51845" lon="6.77228">
        <ele>380</ele>
        <time>2015-05-08T10:28:39.000Z</time>
      </trkpt>
      <trkpt lat="47.51848" lon="6.77231">
        <ele>380</ele>
        <time>2015-05-08T10:28:40.000Z</time>
      </trkpt>
      <trkpt lat="47.51851" lon="6.77235">
        <ele>380</ele>
        <time>2015-05-08T10:28:41.000Z</time>
      </trkpt>
      <trkpt lat="47.51853" lon="6.77238">
        <ele>380</ele>
        <time>2015-05-08T10:28:42.000Z</time>
      </trkpt>
      <trkpt lat="47.51857" lon="6.77241">
        <ele>380</ele>
        <time>2015-05-08T10:28:43.000Z</time>
      </trkpt>
      <trkpt lat="47.5186" lon="6.77244">
        <ele>380</ele>
        <time>2015-05-08T10:28:44.000Z</time>
      </trkpt>
      <trkpt lat="47.51863" lon="6.77246">
        <ele>380</ele>
        <time>2015-05-08T10:28:45.000Z</time>
      </trkpt>
      <trkpt lat="47.51867" lon="6.77249">
        <ele>380</ele>
        <time>2015-05-08T10:28:46.000Z</time>
      </trkpt>
      <trkpt lat="47.5187" lon="6.77252">
        <ele>382</ele>
        <time>2015-05-08T10:28:47.000Z</time>
      </trkpt>
      <trkpt lat="47.51874" lon="6.77255">
        <ele>382</ele>
        <time>2015-05-08T10:28:48.000Z</time>
      </trkpt>
      <trkpt lat="47.51877" lon="6.77257">
        <ele>382</ele>
        <time>2015-05-08T10:28:49.000Z</time>
      </trkpt>
      <trkpt lat="47.51881" lon="6.7726">
        <ele>382</ele>
        <time>2015-05-08T10:28:50.000Z</time>
      </trkpt>
      <trkpt lat="47.51884" lon="6.77263">
        <ele>382</ele>
        <time>2015-05-08T10:28:51.000Z</time>
      </trkpt>
      <trkpt lat="47.51888" lon="6.77265">
        <ele>382</ele>
        <time>2015-05-08T10:28:52.000Z</time>
      </trkpt>
      <trkpt lat="47.51892" lon="6.77268">
        <ele>382</ele>
        <time>2015-05-08T10:28:53.000Z</time>
      </trkpt>
      <trkpt lat="47.51894" lon="6.77272">
        <ele>382</ele>
        <time>2015-05-08T10:28:54.000Z</time>
      </trkpt>
      <trkpt lat="47.51895" lon="6.77277">
        <ele>382</ele>
        <time>2015-05-08T10:28:55.000Z</time>
      </trkpt>
      <trkpt lat="47.51894" lon="6.77283">
        <ele>382</ele>
        <time>2015-05-08T10:28:56.000Z</time>
      </trkpt>
      <trkpt lat="47.51892" lon="6.77289">
        <ele>383</ele>
        <time>2015-05-08T10:28:57.000Z</time>
      </trkpt>
      <trkpt lat="47.5189" lon="6.77295">
        <ele>383</ele>
        <time>2015-05-08T10:28:58.000Z</time>
      </trkpt>
      <trkpt lat="47.51888" lon="6.773">
        <ele>383</ele>
        <time>2015-05-08T10:28:59.000Z</time>
      </trkpt>
      <trkpt lat="47.51886" lon="6.77306">
        <ele>383</ele>
        <time>2015-05-08T10:29:00.000Z</time>
      </trkpt>
      <trkpt lat="47.51884" lon="6.7731">
        <ele>383</ele>
        <time>2015-05-08T10:29:01.000Z</time>
      </trkpt>
      <trkpt lat="47.51882" lon="6.77315">
        <ele>383</ele>
        <time>2015-05-08T10:29:02.000Z</time>
      </trkpt>
      <trkpt lat="47.51879" lon="6.7732">
        <ele>383</ele>
        <time>2015-05-08T10:29:03.000Z</time>
      </trkpt>
      <trkpt lat="47.51877" lon="6.77325">
        <ele>383</ele>
        <time>2015-05-08T10:29:04.000Z</time>
      </trkpt>
      <trkpt lat="47.51874" lon="6.7733">
        <ele>383</ele>
        <time>2015-05-08T10:29:05.000Z</time>
      </trkpt>
      <trkpt lat="47.51872" lon="6.77334">
        <ele>384</ele>
        <time>2015-05-08T10:29:06.000Z</time>
      </trkpt>
      <trkpt lat="47.51869" lon="6.77339">
        <ele>384</ele>
        <time>2015-05-08T10:29:07.000Z</time>
      </trkpt>
      <trkpt lat="47.51866" lon="6.77343">
        <ele>384</ele>
        <time>2015-05-08T10:29:08.000Z</time>
      </trkpt>
      <trkpt lat="47.51863" lon="6.77348">
        <ele>385</ele>
        <time>2015-05-08T10:29:09.000Z</time>
      </trkpt>
      <trkpt lat="47.5186" lon="6.77352">
        <ele>385</ele>
        <time>2015-05-08T10:29:10.000Z</time>
      </trkpt>
      <trkpt lat="47.51857" lon="6.77356">
        <ele>385</ele>
        <time>2015-05-08T10:29:11.000Z</time>
      </trkpt>
      <trkpt lat="47.51853" lon="6.77362">
        <ele>385</ele>
        <time>2015-05-08T10:29:12.000Z</time>
      </trkpt>
      <trkpt lat="47.5185" lon="6.77368">
        <ele>385</ele>
        <time>2015-05-08T10:29:13.000Z</time>
      </trkpt>
      <trkpt lat="47.51848" lon="6.77376">
        <ele>385</ele>
        <time>2015-05-08T10:29:14.000Z</time>
      </trkpt>
      <trkpt lat="47.51846" lon="6.77385">
        <ele>385</ele>
        <time>2015-05-08T10:29:15.000Z</time>
      </trkpt>
      <trkpt lat="47.51845" lon="6.77393">
        <ele>385</ele>
        <time>2015-05-08T10:29:16.000Z</time>
      </trkpt>
      <trkpt lat="47.51843" lon="6.774">
        <ele>385</ele>
        <time>2015-05-08T10:29:17.000Z</time>
      </trkpt>
      <trkpt lat="47.51841" lon="6.77406">
        <ele>385</ele>
        <time>2015-05-08T10:29:18.000Z</time>
      </trkpt>
      <trkpt lat="47.5184" lon="6.77412">
        <ele>386</ele>
        <time>2015-05-08T10:29:19.000Z</time>
      </trkpt>
      <trkpt lat="47.51838" lon="6.77416">
        <ele>386</ele>
        <time>2015-05-08T10:29:20.000Z</time>
      </trkpt>
      <trkpt lat="47.51837" lon="6.77419">
        <ele>386</ele>
        <time>2015-05-08T10:29:21.000Z</time>
      </trkpt>
      <trkpt lat="47.51839" lon="6.77429">
        <ele>386</ele>
        <time>2015-05-08T10:29:22.000Z</time>
      </trkpt>
      <trkpt lat="47.51842" lon="6.77436">
        <ele>386</ele>
        <time>2015-05-08T10:29:23.000Z</time>
      </trkpt>
      <trkpt lat="47.51844" lon="6.77441">
        <ele>386</ele>
        <time>2015-05-08T10:29:24.000Z</time>
      </trkpt>
      <trkpt lat="47.51844" lon="6.77447">
        <ele>386</ele>
        <time>2015-05-08T10:29:25.000Z</time>
      </trkpt>
      <trkpt lat="47.51843" lon="6.77453">
        <ele>386</ele>
        <time>2015-05-08T10:29:26.000Z</time>
      </trkpt>
      <trkpt lat="47.51839" lon="6.77458">
        <ele>386</ele>
        <time>2015-05-08T10:29:27.000Z</time>
      </trkpt>
      <trkpt lat="47.51838" lon="6.77464">
        <ele>386</ele>
        <time>2015-05-08T10:29:28.000Z</time>
      </trkpt>
      <trkpt lat="47.51837" lon="6.7747">
        <ele>386</ele>
        <time>2015-05-08T10:29:29.000Z</time>
      </trkpt>
      <trkpt lat="47.51836" lon="6.77476">
        <ele>387</ele>
        <time>2015-05-08T10:29:30.000Z</time>
      </trkpt>
      <trkpt lat="47.51835" lon="6.77482">
        <ele>387</ele>
        <time>2015-05-08T10:29:31.000Z</time>
      </trkpt>
      <trkpt lat="47.51834" lon="6.77488">
        <ele>387</ele>
        <time>2015-05-08T10:29:32.000Z</time>
      </trkpt>
      <trkpt lat="47.51835" lon="6.77496">
        <ele>387</ele>
        <time>2015-05-08T10:29:33.000Z</time>
      </trkpt>
      <trkpt lat="47.51832" lon="6.775">
        <ele>387</ele>
        <time>2015-05-08T10:29:34.000Z</time>
      </trkpt>
      <trkpt lat="47.51828" lon="6.77496">
        <ele>387</ele>
        <time>2015-05-08T10:29:35.000Z</time>
      </trkpt>
      <trkpt lat="47.51824" lon="6.77495">
        <ele>387</ele>
        <time>2015-05-08T10:29:36.000Z</time>
      </trkpt>
      <trkpt lat="47.5182" lon="6.77494">
        <ele>387</ele>
        <time>2015-05-08T10:29:37.000Z</time>
      </trkpt>
      <trkpt lat="47.51816" lon="6.77493">
        <ele>387</ele>
        <time>2015-05-08T10:29:38.000Z</time>
      </trkpt>
      <trkpt lat="47.51813" lon="6.77492">
        <ele>388</ele>
        <time>2015-05-08T10:29:39.000Z</time>
      </trkpt>
      <trkpt lat="47.51813" lon="6.77486">
        <ele>388</ele>
        <time>2015-05-08T10:29:41.000Z</time>
      </trkpt>
      <trkpt lat="47.51811" lon="6.77483">
        <ele>388</ele>
        <time>2015-05-08T10:29:42.000Z</time>
      </trkpt>
      <trkpt lat="47.5181" lon="6.77477">
        <ele>388</ele>
        <time>2015-05-08T10:29:44.000Z</time>
      </trkpt>
      <trkpt lat="47.5181" lon="6.77473">
        <ele>388</ele>
        <time>2015-05-08T10:29:45.000Z</time>
      </trkpt>
      <trkpt lat="47.51811" lon="6.7747">
        <ele>388</ele>
        <time>2015-05-08T10:29:46.000Z</time>
      </trkpt>
      <trkpt lat="47.51812" lon="6.77466">
        <ele>388</ele>
        <time>2015-05-08T10:29:47.000Z</time>
      </trkpt>
      <trkpt lat="47.51812" lon="6.7746">
        <ele>387</ele>
        <time>2015-05-08T10:29:49.000Z</time>
      </trkpt>
      <trkpt lat="47.51812" lon="6.77459">
        <ele>387</ele>
        <time>2015-05-08T10:29:50.000Z</time>
      </trkpt>
      <trkpt lat="47.51808" lon="6.77457">
        <ele>388</ele>
        <time>2015-05-08T10:29:56.000Z</time>
      </trkpt>
      <trkpt lat="47.51808" lon="6.77459">
        <ele>388</ele>
        <time>2015-05-08T10:29:57.000Z</time>
      </trkpt>
      <trkpt lat="47.51807" lon="6.77463">
        <ele>388</ele>
        <time>2015-05-08T10:30:16.000Z</time>
      </trkpt>
      <trkpt lat="47.51806" lon="6.77466">
        <ele>388</ele>
        <time>2015-05-08T10:30:17.000Z</time>
      </trkpt>
      <trkpt lat="47.51803" lon="6.7747">
        <ele>388</ele>
        <time>2015-05-08T10:30:19.000Z</time>
      </trkpt>
      <trkpt lat="47.51803" lon="6.77472">
        <ele>388</ele>
        <time>2015-05-08T10:30:20.000Z</time>
      </trkpt>
      <trkpt lat="47.51805" lon="6.77477">
        <ele>388</ele>
        <time>2015-05-08T10:30:24.000Z</time>
      </trkpt>
      <trkpt lat="47.51805" lon="6.77478">
        <ele>388</ele>
        <time>2015-05-08T10:30:25.000Z</time>
      </trkpt>
      <trkpt lat="47.51804" lon="6.77475">
        <ele>388</ele>
        <time>2015-05-08T10:39:48.000Z</time>
      </trkpt>
    </trkseg>
  </trk>
</gpx>